<?xml version='1.0' encoding='UTF-8'?><gpx version="1.1" creator="JPX - https://github.com/jenetics/jpx" xmlns="http://www.topografix.com/GPX/1/1"><trk><trkseg><trkpt lat="45.45764345004881" lon="11.108540473054166"><ele>92.0</ele><time>2026-03-28T08:27:57Z</time></trkpt><trkpt lat="45.45771126986434" lon="11.10849746023593"><ele>92.0</ele><time>2026-03-28T08:27:59Z</time></trkpt><trkpt lat="45.457965757116426" lon="11.108447979062442"><ele>92.0</ele><time>2026-03-28T08:28:05Z</time></trkpt><trkpt lat="45.45803874307364" lon="11.108430023153653"><ele>92.0</ele><time>2026-03-28T08:28:06Z</time></trkpt><trkpt lat="45.45813764180393" lon="11.10839364236426"><ele>92.5</ele><time>2026-03-28T08:28:08Z</time></trkpt><trkpt lat="45.4582163717502" lon="11.108477686738835"><ele>93.0</ele><time>2026-03-28T08:28:11Z</time></trkpt><trkpt lat="45.45826773574814" lon="11.108584703710829"><ele>93.5</ele><time>2026-03-28T08:28:13Z</time></trkpt><trkpt lat="45.458271954233524" lon="11.108752065424664"><ele>94.0</ele><time>2026-03-28T08:28:16Z</time></trkpt><trkpt lat="45.45828116766752" lon="11.108858064852633"><ele>94.5</ele><time>2026-03-28T08:28:17Z</time></trkpt><trkpt lat="45.45830788165863" lon="11.108945479743955"><ele>95.0</ele><time>2026-03-28T08:28:18Z</time></trkpt><trkpt lat="45.45834866718389" lon="11.109038493103174"><ele>94.8</ele><time>2026-03-28T08:28:19Z</time></trkpt><trkpt lat="45.458389978298854" lon="11.109148010213389"><ele>94.6</ele><time>2026-03-28T08:28:20Z</time></trkpt><trkpt lat="45.45842321881585" lon="11.109271087816543"><ele>94.4</ele><time>2026-03-28T08:28:21Z</time></trkpt><trkpt lat="45.45846035723724" lon="11.109413998528211"><ele>94.2</ele><time>2026-03-28T08:28:22Z</time></trkpt><trkpt lat="45.45850321370203" lon="11.109547796270693"><ele>94.0</ele><time>2026-03-28T08:28:23Z</time></trkpt><trkpt lat="45.458529188260684" lon="11.109701579239754"><ele>94.0</ele><time>2026-03-28T08:28:24Z</time></trkpt><trkpt lat="45.45858893895791" lon="11.109850958986712"><ele>94.0</ele><time>2026-03-28T08:28:25Z</time></trkpt><trkpt lat="45.45863825556942" lon="11.110008723925283"><ele>94.0</ele><time>2026-03-28T08:28:26Z</time></trkpt><trkpt lat="45.458692613938794" lon="11.110156777211778"><ele>94.0</ele><time>2026-03-28T08:28:27Z</time></trkpt><trkpt lat="45.45875046642396" lon="11.110302909983558"><ele>95.4</ele><time>2026-03-28T08:28:28Z</time></trkpt><trkpt lat="45.458817920448304" lon="11.110441345054516"><ele>96.80000000000001</ele><time>2026-03-28T08:28:29Z</time></trkpt><trkpt lat="45.45887576730779" lon="11.110554629788016"><ele>98.19999999999999</ele><time>2026-03-28T08:28:30Z</time></trkpt><trkpt lat="45.45892576460838" lon="11.110647747465157"><ele>99.6</ele><time>2026-03-28T08:28:31Z</time></trkpt><trkpt lat="45.45903676066348" lon="11.110719425879312"><ele>101.0</ele><time>2026-03-28T08:28:33Z</time></trkpt><trkpt lat="45.45911775992089" lon="11.110707452444954"><ele>101.0</ele><time>2026-03-28T08:28:34Z</time></trkpt><trkpt lat="45.459202990450315" lon="11.110585504153658"><ele>101.0</ele><time>2026-03-28T08:28:35Z</time></trkpt><trkpt lat="45.459304062216134" lon="11.110542743691708"><ele>101.0</ele><time>2026-03-28T08:28:36Z</time></trkpt><trkpt lat="45.459407982975314" lon="11.110472634617555"><ele>101.0</ele><time>2026-03-28T08:28:37Z</time></trkpt><trkpt lat="45.459540797872165" lon="11.110417365715708"><ele>102.75</ele><time>2026-03-28T08:28:38Z</time></trkpt><trkpt lat="45.45967497378659" lon="11.110348094465692"><ele>104.5</ele><time>2026-03-28T08:28:39Z</time></trkpt><trkpt lat="45.45981087138635" lon="11.110276776398155"><ele>106.25</ele><time>2026-03-28T08:28:40Z</time></trkpt><trkpt lat="45.459963059877644" lon="11.110203099841593"><ele>108.0</ele><time>2026-03-28T08:28:41Z</time></trkpt><trkpt lat="45.46010674210995" lon="11.110134119787105"><ele>108.0</ele><time>2026-03-28T08:28:42Z</time></trkpt><trkpt lat="45.46022903709297" lon="11.11004829974109"><ele>108.0</ele><time>2026-03-28T08:28:43Z</time></trkpt><trkpt lat="45.460366566155244" lon="11.110003608043765"><ele>108.0</ele><time>2026-03-28T08:28:44Z</time></trkpt><trkpt lat="45.46050154075477" lon="11.109952659221776"><ele>108.0</ele><time>2026-03-28T08:28:45Z</time></trkpt><trkpt lat="45.46063417610051" lon="11.109929594119588"><ele>109.0</ele><time>2026-03-28T08:28:46Z</time></trkpt><trkpt lat="45.46075685503564" lon="11.109938466069469"><ele>110.0</ele><time>2026-03-28T08:28:47Z</time></trkpt><trkpt lat="45.46088442333906" lon="11.109957509958228"><ele>111.0</ele><time>2026-03-28T08:28:48Z</time></trkpt><trkpt lat="45.4610208315293" lon="11.109977382717462"><ele>112.0</ele><time>2026-03-28T08:28:49Z</time></trkpt><trkpt lat="45.46115986559181" lon="11.109964326527091"><ele>112.0</ele><time>2026-03-28T08:28:50Z</time></trkpt><trkpt lat="45.46128613235278" lon="11.10994439467529"><ele>112.0</ele><time>2026-03-28T08:28:51Z</time></trkpt><trkpt lat="45.46139954644504" lon="11.109897372588804"><ele>112.0</ele><time>2026-03-28T08:28:52Z</time></trkpt><trkpt lat="45.46151872437171" lon="11.109845851001182"><ele>112.0</ele><time>2026-03-28T08:28:53Z</time></trkpt><trkpt lat="45.46164696306961" lon="11.109788888707909"><ele>112.5</ele><time>2026-03-28T08:28:54Z</time></trkpt><trkpt lat="45.461779780905744" lon="11.109714094899191"><ele>113.0</ele><time>2026-03-28T08:28:55Z</time></trkpt><trkpt lat="45.46191922540621" lon="11.109654270113088"><ele>113.5</ele><time>2026-03-28T08:28:56Z</time></trkpt><trkpt lat="45.46205607919757" lon="11.10957753678002"><ele>114.0</ele><time>2026-03-28T08:28:57Z</time></trkpt><trkpt lat="45.46219499333402" lon="11.109500153351656"><ele>114.0</ele><time>2026-03-28T08:28:58Z</time></trkpt><trkpt lat="45.462328922497946" lon="11.109414602848931"><ele>114.0</ele><time>2026-03-28T08:28:59Z</time></trkpt><trkpt lat="45.46245816276645" lon="11.10931894851904"><ele>114.0</ele><time>2026-03-28T08:29:00Z</time></trkpt><trkpt lat="45.46258666487424" lon="11.109212913517569"><ele>114.0</ele><time>2026-03-28T08:29:01Z</time></trkpt><trkpt lat="45.462710195570416" lon="11.10911764105401"><ele>113.25</ele><time>2026-03-28T08:29:02Z</time></trkpt><trkpt lat="45.46284361706385" lon="11.109021503912404"><ele>112.5</ele><time>2026-03-28T08:29:03Z</time></trkpt><trkpt lat="45.462972201302456" lon="11.108943340938072"><ele>111.75</ele><time>2026-03-28T08:29:04Z</time></trkpt><trkpt lat="45.46309994573753" lon="11.108855389451787"><ele>111.0</ele><time>2026-03-28T08:29:05Z</time></trkpt><trkpt lat="45.463233013106276" lon="11.108770785062285"><ele>112.5</ele><time>2026-03-28T08:29:06Z</time></trkpt><trkpt lat="45.46336175169837" lon="11.108688522919815"><ele>114.0</ele><time>2026-03-28T08:29:07Z</time></trkpt><trkpt lat="45.46349472410299" lon="11.10861782829662"><ele>115.5</ele><time>2026-03-28T08:29:08Z</time></trkpt><trkpt lat="45.46363364175859" lon="11.108566252862023"><ele>117.0</ele><time>2026-03-28T08:29:09Z</time></trkpt><trkpt lat="45.4637769905756" lon="11.108526014234888"><ele>118.25</ele><time>2026-03-28T08:29:10Z</time></trkpt><trkpt lat="45.463918349566754" lon="11.108489241499692"><ele>119.5</ele><time>2026-03-28T08:29:11Z</time></trkpt><trkpt lat="45.464061751614786" lon="11.108466148575646"><ele>120.75</ele><time>2026-03-28T08:29:12Z</time></trkpt><trkpt lat="45.46418335832058" lon="11.108456826759555"><ele>122.0</ele><time>2026-03-28T08:29:13Z</time></trkpt><trkpt lat="45.46427459581488" lon="11.108428408425498"><ele>122.0</ele><time>2026-03-28T08:29:14Z</time></trkpt><trkpt lat="45.464353504811086" lon="11.10835379912264"><ele>122.0</ele><time>2026-03-28T08:29:15Z</time></trkpt><trkpt lat="45.46445692162575" lon="11.108263424989456"><ele>122.0</ele><time>2026-03-28T08:29:16Z</time></trkpt><trkpt lat="45.46459207339793" lon="11.108264463254864"><ele>122.0</ele><time>2026-03-28T08:29:17Z</time></trkpt><trkpt lat="45.46473827850262" lon="11.108202546905982"><ele>122.5</ele><time>2026-03-28T08:29:18Z</time></trkpt><trkpt lat="45.464875946525034" lon="11.108145215105832"><ele>123.0</ele><time>2026-03-28T08:29:19Z</time></trkpt><trkpt lat="45.46500324976111" lon="11.108056028054612"><ele>123.5</ele><time>2026-03-28T08:29:20Z</time></trkpt><trkpt lat="45.46511635578636" lon="11.10796989027082"><ele>124.0</ele><time>2026-03-28T08:29:21Z</time></trkpt><trkpt lat="45.46522509360305" lon="11.1079028259472"><ele>124.0</ele><time>2026-03-28T08:29:22Z</time></trkpt><trkpt lat="45.46533608463451" lon="11.107833298433643"><ele>124.0</ele><time>2026-03-28T08:29:23Z</time></trkpt><trkpt lat="45.46544955933771" lon="11.10776245634114"><ele>124.0</ele><time>2026-03-28T08:29:24Z</time></trkpt><trkpt lat="45.4655602528026" lon="11.10768963751974"><ele>124.0</ele><time>2026-03-28T08:29:25Z</time></trkpt><trkpt lat="45.46566649510487" lon="11.107634452295983"><ele>125.0</ele><time>2026-03-28T08:29:26Z</time></trkpt><trkpt lat="45.465755109947224" lon="11.107591179046162"><ele>126.0</ele><time>2026-03-28T08:29:27Z</time></trkpt><trkpt lat="45.46583472877802" lon="11.107543330075304"><ele>127.0</ele><time>2026-03-28T08:29:28Z</time></trkpt><trkpt lat="45.465915879966545" lon="11.107462870747472"><ele>128.0</ele><time>2026-03-28T08:29:29Z</time></trkpt><trkpt lat="45.465994143275054" lon="11.107334541808635"><ele>129.0</ele><time>2026-03-28T08:29:30Z</time></trkpt><trkpt lat="45.46606907156302" lon="11.107196214602107"><ele>129.0</ele><time>2026-03-28T08:29:31Z</time></trkpt><trkpt lat="45.46614418709312" lon="11.107091687286855"><ele>129.0</ele><time>2026-03-28T08:29:32Z</time></trkpt><trkpt lat="45.46619465440703" lon="11.1069971246178"><ele>129.0</ele><time>2026-03-28T08:29:33Z</time></trkpt><trkpt lat="45.46622076416626" lon="11.106870314604029"><ele>129.0</ele><time>2026-03-28T08:29:34Z</time></trkpt><trkpt lat="45.466218626283975" lon="11.106726647404251"><ele>129.0</ele><time>2026-03-28T08:29:35Z</time></trkpt><trkpt lat="45.46620478557747" lon="11.106619212434245"><ele>129.0</ele><time>2026-03-28T08:29:36Z</time></trkpt><trkpt lat="45.466236366276924" lon="11.106540868024734"><ele>129.0</ele><time>2026-03-28T08:29:38Z</time></trkpt><trkpt lat="45.46627498204111" lon="11.106617859882315"><ele>129.0</ele><time>2026-03-28T08:29:39Z</time></trkpt><trkpt lat="45.46636078841842" lon="11.106615951064992"><ele>129.0</ele><time>2026-03-28T08:29:41Z</time></trkpt><trkpt lat="45.46644048237947" lon="11.106633340823196"><ele>129.0</ele><time>2026-03-28T08:29:42Z</time></trkpt><trkpt lat="45.46653238029349" lon="11.106628219615429"><ele>129.0</ele><time>2026-03-28T08:29:43Z</time></trkpt><trkpt lat="45.466641601355754" lon="11.106597517040857"><ele>130.0</ele><time>2026-03-28T08:29:44Z</time></trkpt><trkpt lat="45.46674943382383" lon="11.106554623609954"><ele>131.0</ele><time>2026-03-28T08:29:45Z</time></trkpt><trkpt lat="45.466867638123524" lon="11.106511139730532"><ele>132.0</ele><time>2026-03-28T08:29:46Z</time></trkpt><trkpt lat="45.46697036254553" lon="11.106463380683932"><ele>133.0</ele><time>2026-03-28T08:29:47Z</time></trkpt><trkpt lat="45.46706409100758" lon="11.10638781101195"><ele>134.25</ele><time>2026-03-28T08:29:48Z</time></trkpt><trkpt lat="45.46714882710827" lon="11.106270278543244"><ele>135.5</ele><time>2026-03-28T08:29:48.999Z</time></trkpt><trkpt lat="45.467225702776524" lon="11.106136523572175"><ele>136.75</ele><time>2026-03-28T08:29:49.999Z</time></trkpt><trkpt lat="45.46730254870719" lon="11.105988489687306"><ele>138.0</ele><time>2026-03-28T08:29:51Z</time></trkpt><trkpt lat="45.46738160467338" lon="11.105837716192026"><ele>137.25</ele><time>2026-03-28T08:29:52Z</time></trkpt><trkpt lat="45.467465467260645" lon="11.10568951072935"><ele>136.5</ele><time>2026-03-28T08:29:53Z</time></trkpt><trkpt lat="45.46754766970804" lon="11.105532399116886"><ele>135.75</ele><time>2026-03-28T08:29:54Z</time></trkpt><trkpt lat="45.46762563242405" lon="11.105383186755482"><ele>135.0</ele><time>2026-03-28T08:29:55Z</time></trkpt><trkpt lat="45.467706895075814" lon="11.105247190832843"><ele>135.0</ele><time>2026-03-28T08:29:56Z</time></trkpt><trkpt lat="45.46779888300784" lon="11.105109111159358"><ele>135.0</ele><time>2026-03-28T08:29:57Z</time></trkpt><trkpt lat="45.46788924145805" lon="11.104966345473175"><ele>135.0</ele><time>2026-03-28T08:29:58Z</time></trkpt><trkpt lat="45.46797429535321" lon="11.10480980450807"><ele>135.0</ele><time>2026-03-28T08:29:59Z</time></trkpt><trkpt lat="45.468058428943834" lon="11.104660246889768"><ele>136.25</ele><time>2026-03-28T08:30:00Z</time></trkpt><trkpt lat="45.46816704105722" lon="11.104540587651783"><ele>137.5</ele><time>2026-03-28T08:30:01Z</time></trkpt><trkpt lat="45.46828443416139" lon="11.1044394646347"><ele>138.75</ele><time>2026-03-28T08:30:02Z</time></trkpt><trkpt lat="45.46840133757672" lon="11.104324178642552"><ele>140.0</ele><time>2026-03-28T08:30:03Z</time></trkpt><trkpt lat="45.4685164551232" lon="11.104218306440181"><ele>140.0</ele><time>2026-03-28T08:30:04Z</time></trkpt><trkpt lat="45.46863073008202" lon="11.10413368962748"><ele>140.0</ele><time>2026-03-28T08:30:05Z</time></trkpt><trkpt lat="45.46874411448326" lon="11.104067503462524"><ele>140.0</ele><time>2026-03-28T08:30:06Z</time></trkpt><trkpt lat="45.46886297897298" lon="11.104010707518286"><ele>140.0</ele><time>2026-03-28T08:30:07Z</time></trkpt><trkpt lat="45.468972000170645" lon="11.103950124707497"><ele>140.8</ele><time>2026-03-28T08:30:08Z</time></trkpt><trkpt lat="45.46905821415163" lon="11.10390802180726"><ele>141.6</ele><time>2026-03-28T08:30:09Z</time></trkpt><trkpt lat="45.46912745201189" lon="11.10386456482533"><ele>142.4</ele><time>2026-03-28T08:30:10Z</time></trkpt><trkpt lat="45.469089974497074" lon="11.103611821499317"><ele>143.2</ele><time>2026-03-28T08:30:14Z</time></trkpt><trkpt lat="45.469072357197724" lon="11.103518355374227"><ele>144.0</ele><time>2026-03-28T08:30:15Z</time></trkpt><trkpt lat="45.46904829690797" lon="11.103428093815149"><ele>144.0</ele><time>2026-03-28T08:30:16Z</time></trkpt><trkpt lat="45.46899081735795" lon="11.10327116881006"><ele>144.0</ele><time>2026-03-28T08:30:18Z</time></trkpt><trkpt lat="45.468965535709884" lon="11.103112540492482"><ele>144.0</ele><time>2026-03-28T08:30:20Z</time></trkpt><trkpt lat="45.46892403305062" lon="11.102982799036448"><ele>144.0</ele><time>2026-03-28T08:30:22Z</time></trkpt><trkpt lat="45.46890486400658" lon="11.102881996759443"><ele>144.0</ele><time>2026-03-28T08:30:24Z</time></trkpt><trkpt lat="45.46885923736805" lon="11.102817219774794"><ele>144.0</ele><time>2026-03-28T08:30:32Z</time></trkpt><trkpt lat="45.46882195041601" lon="11.102691042564109"><ele>144.0</ele><time>2026-03-28T08:30:35Z</time></trkpt><trkpt lat="45.468716049627275" lon="11.102606795434111"><ele>144.0</ele><time>2026-03-28T08:30:37Z</time></trkpt><trkpt lat="45.46868175634317" lon="11.102445362651062"><ele>144.0</ele><time>2026-03-28T08:30:39Z</time></trkpt><trkpt lat="45.46867177429301" lon="11.102336650942538"><ele>144.0</ele><time>2026-03-28T08:30:41Z</time></trkpt><trkpt lat="45.468649909704176" lon="11.102175600210606"><ele>146.5</ele><time>2026-03-28T08:30:43Z</time></trkpt><trkpt lat="45.46862852139582" lon="11.101997683792856"><ele>149.0</ele><time>2026-03-28T08:30:45Z</time></trkpt><trkpt lat="45.46861705657344" lon="11.101902315023315"><ele>151.5</ele><time>2026-03-28T08:30:46Z</time></trkpt><trkpt lat="45.46860564114306" lon="11.101807357043569"><ele>154.0</ele><time>2026-03-28T08:30:47Z</time></trkpt><trkpt lat="45.46853071654134" lon="11.10175465538304"><ele>156.5</ele><time>2026-03-28T08:30:48Z</time></trkpt><trkpt lat="45.46852501407749" lon="11.101608399996314"><ele>159.0</ele><time>2026-03-28T08:30:50Z</time></trkpt><trkpt lat="45.468450307267716" lon="11.10153045669099"><ele>161.2</ele><time>2026-03-28T08:30:52Z</time></trkpt><trkpt lat="45.46849580619008" lon="11.10142703036055"><ele>163.4</ele><time>2026-03-28T08:30:55Z</time></trkpt><trkpt lat="45.46856769645547" lon="11.101398937588062"><ele>165.6</ele><time>2026-03-28T08:30:56Z</time></trkpt><trkpt lat="45.468650134316555" lon="11.101373510281274"><ele>167.8</ele><time>2026-03-28T08:30:57Z</time></trkpt><trkpt lat="45.46875552996122" lon="11.10133799179022"><ele>170.0</ele><time>2026-03-28T08:30:58Z</time></trkpt><trkpt lat="45.46885607615333" lon="11.101293630435865"><ele>170.0</ele><time>2026-03-28T08:30:59Z</time></trkpt><trkpt lat="45.46897222066259" lon="11.101243107212863"><ele>170.0</ele><time>2026-03-28T08:31:00Z</time></trkpt><trkpt lat="45.46909364399916" lon="11.10120274267782"><ele>170.0</ele><time>2026-03-28T08:31:01Z</time></trkpt><trkpt lat="45.46921252313842" lon="11.101157182333756"><ele>170.0</ele><time>2026-03-28T08:31:02Z</time></trkpt><trkpt lat="45.469328405856125" lon="11.101115619303533"><ele>170.0</ele><time>2026-03-28T08:31:03Z</time></trkpt><trkpt lat="45.46942319751975" lon="11.101077592875717"><ele>170.0</ele><time>2026-03-28T08:31:04Z</time></trkpt><trkpt lat="45.46949343118348" lon="11.101044385759224"><ele>170.0</ele><time>2026-03-28T08:31:05Z</time></trkpt><trkpt lat="45.46954981520697" lon="11.100986168182512"><ele>170.0</ele><time>2026-03-28T08:31:06Z</time></trkpt><trkpt lat="45.46955331840634" lon="11.100888307484212"><ele>170.0</ele><time>2026-03-28T08:31:07Z</time></trkpt><trkpt lat="45.469524956757226" lon="11.100781743872"><ele>170.0</ele><time>2026-03-28T08:31:08Z</time></trkpt><trkpt lat="45.46946937655051" lon="11.10067546694859"><ele>175.0</ele><time>2026-03-28T08:31:09Z</time></trkpt><trkpt lat="45.469405285978524" lon="11.100570482892604"><ele>180.0</ele><time>2026-03-28T08:31:10Z</time></trkpt><trkpt lat="45.46934883759775" lon="11.100469639844441"><ele>185.0</ele><time>2026-03-28T08:31:11Z</time></trkpt><trkpt lat="45.4692671903593" lon="11.100369219935999"><ele>190.0</ele><time>2026-03-28T08:31:12Z</time></trkpt><trkpt lat="45.46918948683123" lon="11.10026758774573"><ele>195.0</ele><time>2026-03-28T08:31:13Z</time></trkpt><trkpt lat="45.46912035298815" lon="11.10018102504504"><ele>195.0</ele><time>2026-03-28T08:31:14Z</time></trkpt><trkpt lat="45.469043241716896" lon="11.100109129767292"><ele>195.0</ele><time>2026-03-28T08:31:15Z</time></trkpt><trkpt lat="45.46897808982591" lon="11.100000102729444"><ele>195.0</ele><time>2026-03-28T08:31:16Z</time></trkpt><trkpt lat="45.468931999055776" lon="11.099895946476583"><ele>195.0</ele><time>2026-03-28T08:31:17Z</time></trkpt><trkpt lat="45.468908734461365" lon="11.09974665416793"><ele>195.0</ele><time>2026-03-28T08:31:19Z</time></trkpt><trkpt lat="45.46895699906348" lon="11.099611651642487"><ele>200.33333333333334</ele><time>2026-03-28T08:31:21Z</time></trkpt><trkpt lat="45.46900576873164" lon="11.099532113422441"><ele>205.66666666666669</ele><time>2026-03-28T08:31:22Z</time></trkpt><trkpt lat="45.46904745473515" lon="11.099439338050129"><ele>211.0</ele><time>2026-03-28T08:31:23Z</time></trkpt><trkpt lat="45.469091651112834" lon="11.099352274994837"><ele>216.33333333333334</ele><time>2026-03-28T08:31:24Z</time></trkpt><trkpt lat="45.469141820290346" lon="11.099252778289245"><ele>221.66666666666669</ele><time>2026-03-28T08:31:25Z</time></trkpt><trkpt lat="45.469177636558506" lon="11.0991459212401"><ele>227.0</ele><time>2026-03-28T08:31:26Z</time></trkpt><trkpt lat="45.46922462812031" lon="11.099042324875917"><ele>232.0</ele><time>2026-03-28T08:31:27Z</time></trkpt><trkpt lat="45.469294174233305" lon="11.098934384319392"><ele>237.0</ele><time>2026-03-28T08:31:27.999Z</time></trkpt><trkpt lat="45.469371145509655" lon="11.098818451655388"><ele>242.0</ele><time>2026-03-28T08:31:28.999Z</time></trkpt><trkpt lat="45.46943600246302" lon="11.098727835088075"><ele>247.0</ele><time>2026-03-28T08:31:29.999Z</time></trkpt><trkpt lat="45.46948535433733" lon="11.098619375430772"><ele>252.0</ele><time>2026-03-28T08:31:30.999Z</time></trkpt><trkpt lat="45.469526518076776" lon="11.098479883554557"><ele>252.0</ele><time>2026-03-28T08:31:31.999Z</time></trkpt><trkpt lat="45.469540767557845" lon="11.098377795620467"><ele>252.0</ele><time>2026-03-28T08:31:32.999Z</time></trkpt><trkpt lat="45.469590730283905" lon="11.098286462203998"><ele>252.0</ele><time>2026-03-28T08:31:33.999Z</time></trkpt><trkpt lat="45.469624192210354" lon="11.098170904817785"><ele>252.0</ele><time>2026-03-28T08:31:34.999Z</time></trkpt><trkpt lat="45.469631450514164" lon="11.098066871389856"><ele>252.0</ele><time>2026-03-28T08:31:35.999Z</time></trkpt><trkpt lat="45.469696302662214" lon="11.097967343959823"><ele>252.0</ele><time>2026-03-28T08:31:36.999Z</time></trkpt><trkpt lat="45.46980236591422" lon="11.09785926353001"><ele>253.0</ele><time>2026-03-28T08:31:37.999Z</time></trkpt><trkpt lat="45.46988053633958" lon="11.097794557800277"><ele>254.0</ele><time>2026-03-28T08:31:38.999Z</time></trkpt><trkpt lat="45.469933947225435" lon="11.097686672223581"><ele>255.0</ele><time>2026-03-28T08:31:40.999Z</time></trkpt><trkpt lat="45.469943665156904" lon="11.097564642081744"><ele>256.0</ele><time>2026-03-28T08:31:42.999Z</time></trkpt><trkpt lat="45.469925811477125" lon="11.097380120180311"><ele>257.0</ele><time>2026-03-28T08:31:44.999Z</time></trkpt><trkpt lat="45.46992585072143" lon="11.097215149374122"><ele>260.83333333333337</ele><time>2026-03-28T08:31:46.999Z</time></trkpt><trkpt lat="45.469992308951575" lon="11.097169728485095"><ele>264.6666666666667</ele><time>2026-03-28T08:31:48.999Z</time></trkpt><trkpt lat="45.47007465278391" lon="11.097116655388637"><ele>268.5</ele><time>2026-03-28T08:31:53.999Z</time></trkpt><trkpt lat="45.47010056542067" lon="11.09700581212816"><ele>272.3333333333333</ele><time>2026-03-28T08:31:57.999Z</time></trkpt><trkpt lat="45.470173289195145" lon="11.096976236372281"><ele>276.16666666666663</ele><time>2026-03-28T08:32:02.999Z</time></trkpt><trkpt lat="45.47021635549732" lon="11.09687153607418"><ele>280.0</ele><time>2026-03-28T08:32:09.999Z</time></trkpt><trkpt lat="45.47025484409001" lon="11.096787129451082"><ele>280.0</ele><time>2026-03-28T08:32:11.999Z</time></trkpt><trkpt lat="45.47028841834924" lon="11.096693885824843"><ele>280.0</ele><time>2026-03-28T08:32:13.999Z</time></trkpt><trkpt lat="45.47033693231811" lon="11.096601719336478"><ele>280.0</ele><time>2026-03-28T08:32:15.999Z</time></trkpt><trkpt lat="45.470366834564906" lon="11.096491019585326"><ele>280.0</ele><time>2026-03-28T08:32:17.999Z</time></trkpt><trkpt lat="45.47031957124611" lon="11.096430125613995"><ele>280.0</ele><time>2026-03-28T08:32:19.999Z</time></trkpt><trkpt lat="45.470343632554986" lon="11.096317709583756"><ele>280.0</ele><time>2026-03-28T08:32:22.999Z</time></trkpt><trkpt lat="45.4703504091457" lon="11.09620095872014"><ele>280.8333333333333</ele><time>2026-03-28T08:32:24.999Z</time></trkpt><trkpt lat="45.47038910165941" lon="11.09606029621288"><ele>281.66666666666663</ele><time>2026-03-28T08:32:26.999Z</time></trkpt><trkpt lat="45.4704543376852" lon="11.095956905614498"><ele>282.5</ele><time>2026-03-28T08:32:28.999Z</time></trkpt><trkpt lat="45.47049234341851" lon="11.095879506241188"><ele>283.3333333333333</ele><time>2026-03-28T08:32:29.999Z</time></trkpt><trkpt lat="45.47053982744062" lon="11.095762385472215"><ele>284.1666666666667</ele><time>2026-03-28T08:32:31.999Z</time></trkpt><trkpt lat="45.47055437222432" lon="11.095660857227724"><ele>285.0</ele><time>2026-03-28T08:32:33.999Z</time></trkpt><trkpt lat="45.470539155801404" lon="11.095510224480051"><ele>288.0</ele><time>2026-03-28T08:32:35.999Z</time></trkpt><trkpt lat="45.47049593928842" lon="11.095417288688761"><ele>291.0</ele><time>2026-03-28T08:32:37.999Z</time></trkpt><trkpt lat="45.470411017947356" lon="11.095325180719774"><ele>294.0</ele><time>2026-03-28T08:32:39.999Z</time></trkpt><trkpt lat="45.47040437765311" lon="11.09517221492291"><ele>297.0</ele><time>2026-03-28T08:32:41.999Z</time></trkpt><trkpt lat="45.47038969921076" lon="11.095026531047306"><ele>300.0</ele><time>2026-03-28T08:32:43.999Z</time></trkpt><trkpt lat="45.470386553050105" lon="11.09491622417681"><ele>305.6666666666667</ele><time>2026-03-28T08:32:47.999Z</time></trkpt><trkpt lat="45.470341945299154" lon="11.094784422396168"><ele>311.3333333333333</ele><time>2026-03-28T08:32:49.999Z</time></trkpt><trkpt lat="45.47032733657767" lon="11.094635666877736"><ele>317.0</ele><time>2026-03-28T08:32:51.999Z</time></trkpt><trkpt lat="45.470340759468655" lon="11.094521105564565"><ele>322.66666666666663</ele><time>2026-03-28T08:32:53.999Z</time></trkpt><trkpt lat="45.470328904214966" lon="11.094431253914964"><ele>328.3333333333333</ele><time>2026-03-28T08:32:55.999Z</time></trkpt><trkpt lat="45.47031177036599" lon="11.094343531043942"><ele>334.0</ele><time>2026-03-28T08:33:01.999Z</time></trkpt><trkpt lat="45.47031412051886" lon="11.09421370189562"><ele>334.0</ele><time>2026-03-28T08:33:04.999Z</time></trkpt><trkpt lat="45.4703891842572" lon="11.094126494630355"><ele>334.0</ele><time>2026-03-28T08:33:07.999Z</time></trkpt><trkpt lat="45.47048527055124" lon="11.094099688826688"><ele>334.0</ele><time>2026-03-28T08:33:11.999Z</time></trkpt><trkpt lat="45.47055016058303" lon="11.094016844157613"><ele>334.0</ele><time>2026-03-28T08:33:13.999Z</time></trkpt><trkpt lat="45.47057163946101" lon="11.093899686023919"><ele>334.0</ele><time>2026-03-28T08:33:16.999Z</time></trkpt><trkpt lat="45.47067472667897" lon="11.093863460035783"><ele>334.6</ele><time>2026-03-28T08:33:19.999Z</time></trkpt><trkpt lat="45.47076247522609" lon="11.093793204878816"><ele>335.2</ele><time>2026-03-28T08:33:20.999Z</time></trkpt><trkpt lat="45.470825887291305" lon="11.093728626988424"><ele>335.8</ele><time>2026-03-28T08:33:21.999Z</time></trkpt><trkpt lat="45.470903077073885" lon="11.093631084681673"><ele>336.40000000000003</ele><time>2026-03-28T08:33:23.999Z</time></trkpt><trkpt lat="45.470960364271846" lon="11.093524931586849"><ele>337.0</ele><time>2026-03-28T08:33:25.999Z</time></trkpt><trkpt lat="45.47103254176655" lon="11.09338702655589"><ele>338.20000000000005</ele><time>2026-03-28T08:33:27.999Z</time></trkpt><trkpt lat="45.47106970584056" lon="11.093241053693273"><ele>339.4</ele><time>2026-03-28T08:33:29.999Z</time></trkpt><trkpt lat="45.47109032958709" lon="11.093113800960984"><ele>340.6</ele><time>2026-03-28T08:33:31.999Z</time></trkpt><trkpt lat="45.471161980183275" lon="11.092990493028488"><ele>341.79999999999995</ele><time>2026-03-28T08:33:33.999Z</time></trkpt><trkpt lat="45.47120236940726" lon="11.092876999953448"><ele>343.0</ele><time>2026-03-28T08:33:34.999Z</time></trkpt><trkpt lat="45.47121810381282" lon="11.092783712271912"><ele>341.8333333333333</ele><time>2026-03-28T08:33:35.999Z</time></trkpt><trkpt lat="45.471288516214386" lon="11.092678111801193"><ele>340.66666666666663</ele><time>2026-03-28T08:33:37.999Z</time></trkpt><trkpt lat="45.47131450184634" lon="11.09256745386047"><ele>339.5</ele><time>2026-03-28T08:33:40.999Z</time></trkpt><trkpt lat="45.471333568339546" lon="11.092429117991248"><ele>338.3333333333333</ele><time>2026-03-28T08:33:42.999Z</time></trkpt><trkpt lat="45.4713332451804" lon="11.092293607824727"><ele>337.1666666666667</ele><time>2026-03-28T08:33:44.999Z</time></trkpt><trkpt lat="45.471292971963294" lon="11.092217312180699"><ele>336.0</ele><time>2026-03-28T08:33:45.999Z</time></trkpt><trkpt lat="45.471242438692585" lon="11.092162263163589"><ele>336.0</ele><time>2026-03-28T08:33:46.999Z</time></trkpt><trkpt lat="45.47119656243822" lon="11.092044346680932"><ele>336.0</ele><time>2026-03-28T08:33:48.999Z</time></trkpt><trkpt lat="45.471253701093985" lon="11.091947922462138"><ele>336.0</ele><time>2026-03-28T08:33:50.999Z</time></trkpt><trkpt lat="45.471286730108226" lon="11.09185646750509"><ele>336.0</ele><time>2026-03-28T08:33:51.999Z</time></trkpt><trkpt lat="45.47128137036308" lon="11.091765299070447"><ele>336.0</ele><time>2026-03-28T08:33:56.999Z</time></trkpt><trkpt lat="45.47122918505414" lon="11.091821053757007"><ele>336.0</ele><time>2026-03-28T08:33:58.999Z</time></trkpt><trkpt lat="45.47115325516259" lon="11.091958253599094"><ele>339.1666666666667</ele><time>2026-03-28T08:34:00.999Z</time></trkpt><trkpt lat="45.47107912930909" lon="11.09201611292625"><ele>342.3333333333333</ele><time>2026-03-28T08:34:02.998Z</time></trkpt><trkpt lat="45.47101318614463" lon="11.092077785706897"><ele>345.5</ele><time>2026-03-28T08:34:04.998Z</time></trkpt><trkpt lat="45.4709256433741" lon="11.09206744264062"><ele>348.66666666666663</ele><time>2026-03-28T08:34:07.998Z</time></trkpt><trkpt lat="45.47086279252572" lon="11.092009930902966"><ele>351.8333333333333</ele><time>2026-03-28T08:34:09.998Z</time></trkpt><trkpt lat="45.470786056582945" lon="11.091973145352927"><ele>355.0</ele><time>2026-03-28T08:34:11.998Z</time></trkpt><trkpt lat="45.470703546580204" lon="11.092029393554562"><ele>355.0</ele><time>2026-03-28T08:34:13.998Z</time></trkpt><trkpt lat="45.47061005267283" lon="11.092154358624608"><ele>355.0</ele><time>2026-03-28T08:34:15.998Z</time></trkpt><trkpt lat="45.470511404867025" lon="11.092213594214897"><ele>355.0</ele><time>2026-03-28T08:34:17.998Z</time></trkpt><trkpt lat="45.47042292351524" lon="11.092256026636232"><ele>355.0</ele><time>2026-03-28T08:34:19.999Z</time></trkpt><trkpt lat="45.470332696367265" lon="11.092333308533066"><ele>355.0</ele><time>2026-03-28T08:34:21.999Z</time></trkpt><trkpt lat="45.47023485196015" lon="11.092398993501964"><ele>354.66666666666663</ele><time>2026-03-28T08:34:23.999Z</time></trkpt><trkpt lat="45.47012779103949" lon="11.092409243444719"><ele>354.3333333333333</ele><time>2026-03-28T08:34:25.999Z</time></trkpt><trkpt lat="45.47004551090222" lon="11.092410555973471"><ele>354.0</ele><time>2026-03-28T08:34:27.999Z</time></trkpt><trkpt lat="45.46998891595" lon="11.092454600056676"><ele>353.6666666666667</ele><time>2026-03-28T08:35:21.999Z</time></trkpt><trkpt lat="45.46991842373056" lon="11.092470829046457"><ele>353.33333333333337</ele><time>2026-03-28T08:35:22.999Z</time></trkpt><trkpt lat="45.46983259682974" lon="11.092485889815315"><ele>353.0</ele><time>2026-03-28T08:35:23.999Z</time></trkpt><trkpt lat="45.469734271501444" lon="11.092499132156311"><ele>353.0</ele><time>2026-03-28T08:35:24.999Z</time></trkpt><trkpt lat="45.46963222107778" lon="11.092531997613523"><ele>353.0</ele><time>2026-03-28T08:35:25.999Z</time></trkpt><trkpt lat="45.469508898412776" lon="11.09260274061317"><ele>353.0</ele><time>2026-03-28T08:35:26.999Z</time></trkpt><trkpt lat="45.46939116303341" lon="11.092673698434858"><ele>353.0</ele><time>2026-03-28T08:35:27.999Z</time></trkpt><trkpt lat="45.46925916950925" lon="11.092749141788364"><ele>353.4</ele><time>2026-03-28T08:35:28.999Z</time></trkpt><trkpt lat="45.46913071443742" lon="11.092827767986918"><ele>353.79999999999995</ele><time>2026-03-28T08:35:29.999Z</time></trkpt><trkpt lat="45.469022552826644" lon="11.092893234282743"><ele>354.2</ele><time>2026-03-28T08:35:30.999Z</time></trkpt><trkpt lat="45.468936180192514" lon="11.092943441025424"><ele>354.6</ele><time>2026-03-28T08:35:31.999Z</time></trkpt><trkpt lat="45.46887576998654" lon="11.092974954270508"><ele>355.0</ele><time>2026-03-28T08:35:32.999Z</time></trkpt><trkpt lat="45.46879486254668" lon="11.092922531491256"><ele>354.8333333333333</ele><time>2026-03-28T08:35:35Z</time></trkpt><trkpt lat="45.4687609169461" lon="11.092841821423978"><ele>354.66666666666663</ele><time>2026-03-28T08:35:36Z</time></trkpt><trkpt lat="45.46871829425557" lon="11.092720719597637"><ele>354.5</ele><time>2026-03-28T08:35:37Z</time></trkpt><trkpt lat="45.46867393126866" lon="11.092594514991546"><ele>354.3333333333333</ele><time>2026-03-28T08:35:38Z</time></trkpt><trkpt lat="45.4686272587675" lon="11.092489556851142"><ele>354.1666666666667</ele><time>2026-03-28T08:35:39Z</time></trkpt><trkpt lat="45.468578875734764" lon="11.092414595093777"><ele>354.0</ele><time>2026-03-28T08:35:40Z</time></trkpt><trkpt lat="45.468534667528516" lon="11.092317322508933"><ele>354.0</ele><time>2026-03-28T08:35:41Z</time></trkpt><trkpt lat="45.46843062653435" lon="11.092282804342886"><ele>354.0</ele><time>2026-03-28T08:35:42Z</time></trkpt><trkpt lat="45.46832371727758" lon="11.092244499735116"><ele>354.0</ele><time>2026-03-28T08:35:43Z</time></trkpt><trkpt lat="45.468212054013655" lon="11.09223188504219"><ele>354.0</ele><time>2026-03-28T08:35:44Z</time></trkpt><trkpt lat="45.46808696859966" lon="11.092232665448236"><ele>354.0</ele><time>2026-03-28T08:35:45Z</time></trkpt><trkpt lat="45.46796356004563" lon="11.092250514418467"><ele>354.0</ele><time>2026-03-28T08:35:46Z</time></trkpt><trkpt lat="45.46784554059657" lon="11.092272082294116"><ele>354.0</ele><time>2026-03-28T08:35:47Z</time></trkpt><trkpt lat="45.46773422786579" lon="11.09229501068302"><ele>354.0</ele><time>2026-03-28T08:35:48Z</time></trkpt><trkpt lat="45.46765311215637" lon="11.092307433313001"><ele>354.0</ele><time>2026-03-28T08:35:49Z</time></trkpt><trkpt lat="45.467556337008034" lon="11.092291942133516"><ele>352.8333333333333</ele><time>2026-03-28T08:35:51Z</time></trkpt><trkpt lat="45.46751090759859" lon="11.09219598851653"><ele>351.6666666666667</ele><time>2026-03-28T08:35:52Z</time></trkpt><trkpt lat="45.467513916300106" lon="11.09204611750727"><ele>350.5</ele><time>2026-03-28T08:35:53Z</time></trkpt><trkpt lat="45.4675169541442" lon="11.09190851265187"><ele>349.33333333333337</ele><time>2026-03-28T08:35:54Z</time></trkpt><trkpt lat="45.46751929902545" lon="11.091802298094915"><ele>348.1666666666667</ele><time>2026-03-28T08:35:55Z</time></trkpt><trkpt lat="45.4675218556933" lon="11.09168649020026"><ele>347.0</ele><time>2026-03-28T08:35:57Z</time></trkpt><trkpt lat="45.4676629463016" lon="11.091907221768116"><ele>347.0</ele><time>2026-03-28T08:36:00Z</time></trkpt><trkpt lat="45.46775026562006" lon="11.09184452399099"><ele>347.0</ele><time>2026-03-28T08:36:03Z</time></trkpt><trkpt lat="45.467815319825" lon="11.091841115153642"><ele>347.0</ele><time>2026-03-28T08:36:08.999Z</time></trkpt><trkpt lat="45.46791790036394" lon="11.091691208288022"><ele>347.0</ele><time>2026-03-28T08:36:10.999Z</time></trkpt><trkpt lat="45.46800255913534" lon="11.091610851170454"><ele>347.0</ele><time>2026-03-28T08:36:11.999Z</time></trkpt><trkpt lat="45.468103901890295" lon="11.091554238730573"><ele>347.25</ele><time>2026-03-28T08:36:12.999Z</time></trkpt><trkpt lat="45.4682020711842" lon="11.091479999162988"><ele>347.5</ele><time>2026-03-28T08:36:13.999Z</time></trkpt><trkpt lat="45.468275126819634" lon="11.091378227259034"><ele>347.75</ele><time>2026-03-28T08:36:14.999Z</time></trkpt><trkpt lat="45.46836401300334" lon="11.09127516181794"><ele>348.0</ele><time>2026-03-28T08:36:15.999Z</time></trkpt><trkpt lat="45.46846622195206" lon="11.091170980375894"><ele>348.0</ele><time>2026-03-28T08:36:16.999Z</time></trkpt><trkpt lat="45.46857874853524" lon="11.091086273589427"><ele>348.0</ele><time>2026-03-28T08:36:17.999Z</time></trkpt><trkpt lat="45.4686632257104" lon="11.09094123049224"><ele>348.0</ele><time>2026-03-28T08:36:18.999Z</time></trkpt><trkpt lat="45.46875334368294" lon="11.090799847478772"><ele>348.0</ele><time>2026-03-28T08:36:19.999Z</time></trkpt><trkpt lat="45.46885284957042" lon="11.090679935381303"><ele>347.75</ele><time>2026-03-28T08:36:20.999Z</time></trkpt><trkpt lat="45.46894425618359" lon="11.090550510814744"><ele>347.5</ele><time>2026-03-28T08:36:21.999Z</time></trkpt><trkpt lat="45.46903668288886" lon="11.090415201657475"><ele>347.25</ele><time>2026-03-28T08:36:23Z</time></trkpt><trkpt lat="45.469120298708866" lon="11.090272285909748"><ele>347.0</ele><time>2026-03-28T08:36:24Z</time></trkpt><trkpt lat="45.46918420209966" lon="11.090133520008774"><ele>347.0</ele><time>2026-03-28T08:36:25Z</time></trkpt><trkpt lat="45.469250190665484" lon="11.089998558766501"><ele>347.0</ele><time>2026-03-28T08:36:26Z</time></trkpt><trkpt lat="45.46932058746785" lon="11.08987303270442"><ele>347.0</ele><time>2026-03-28T08:36:27Z</time></trkpt><trkpt lat="45.469393222288126" lon="11.089753705279715"><ele>347.0</ele><time>2026-03-28T08:36:28Z</time></trkpt><trkpt lat="45.46949340473434" lon="11.089659662724877"><ele>347.25</ele><time>2026-03-28T08:36:29Z</time></trkpt><trkpt lat="45.46958858081405" lon="11.08953310561309"><ele>347.5</ele><time>2026-03-28T08:36:30Z</time></trkpt><trkpt lat="45.469689111846364" lon="11.089424746771416"><ele>347.75</ele><time>2026-03-28T08:36:31Z</time></trkpt><trkpt lat="45.469784292015326" lon="11.089312424494521"><ele>348.0</ele><time>2026-03-28T08:36:32Z</time></trkpt><trkpt lat="45.46987629216153" lon="11.089197986271508"><ele>346.2</ele><time>2026-03-28T08:36:33Z</time></trkpt><trkpt lat="45.46995860366546" lon="11.08904912866189"><ele>344.4</ele><time>2026-03-28T08:36:34Z</time></trkpt><trkpt lat="45.47002255404801" lon="11.088918579763785"><ele>342.59999999999997</ele><time>2026-03-28T08:36:35Z</time></trkpt><trkpt lat="45.47004806931679" lon="11.088798353536907"><ele>340.79999999999995</ele><time>2026-03-28T08:36:36Z</time></trkpt><trkpt lat="45.47006481327946" lon="11.08868722402948"><ele>339.0</ele><time>2026-03-28T08:36:37Z</time></trkpt><trkpt lat="45.470067746519284" lon="11.088555900880085"><ele>339.0</ele><time>2026-03-28T08:36:38Z</time></trkpt><trkpt lat="45.47009805034054" lon="11.088419818498318"><ele>339.0</ele><time>2026-03-28T08:36:39Z</time></trkpt><trkpt lat="45.47014169652439" lon="11.088259241038564"><ele>339.0</ele><time>2026-03-28T08:36:40Z</time></trkpt><trkpt lat="45.47021696603113" lon="11.088085269301255"><ele>339.0</ele><time>2026-03-28T08:36:41Z</time></trkpt><trkpt lat="45.47028282296153" lon="11.087904485035965"><ele>339.6</ele><time>2026-03-28T08:36:42Z</time></trkpt><trkpt lat="45.47035008784563" lon="11.087736075432415"><ele>340.2</ele><time>2026-03-28T08:36:43Z</time></trkpt><trkpt lat="45.470407841527816" lon="11.087597326456793"><ele>340.8</ele><time>2026-03-28T08:36:44Z</time></trkpt><trkpt lat="45.47045600534356" lon="11.087486588669934"><ele>341.40000000000003</ele><time>2026-03-28T08:36:45Z</time></trkpt><trkpt lat="45.47050844291461" lon="11.087395451458038"><ele>342.0</ele><time>2026-03-28T08:36:46Z</time></trkpt><trkpt lat="45.47057753044808" lon="11.0873186833256"><ele>342.0</ele><time>2026-03-28T08:36:47Z</time></trkpt><trkpt lat="45.470637519384425" lon="11.087282854602654"><ele>342.0</ele><time>2026-03-28T08:36:48Z</time></trkpt><trkpt lat="45.47070944504542" lon="11.087299750842503"><ele>342.0</ele><time>2026-03-28T08:36:51Z</time></trkpt><trkpt lat="45.47081493578185" lon="11.087315130707742"><ele>342.0</ele><time>2026-03-28T08:36:53Z</time></trkpt><trkpt lat="45.47087483496268" lon="11.087346245120814"><ele>342.0</ele><time>2026-03-28T08:36:54Z</time></trkpt><trkpt lat="45.47094485499264" lon="11.087376998369532"><ele>342.0</ele><time>2026-03-28T08:36:55Z</time></trkpt><trkpt lat="45.47102274478752" lon="11.087386235203798"><ele>342.0</ele><time>2026-03-28T08:36:56Z</time></trkpt><trkpt lat="45.47111021179517" lon="11.087406752984714"><ele>342.0</ele><time>2026-03-28T08:36:57Z</time></trkpt><trkpt lat="45.4712076476148" lon="11.08741625327618"><ele>342.0</ele><time>2026-03-28T08:36:58Z</time></trkpt><trkpt lat="45.47131355094097" lon="11.087447792295341"><ele>342.0</ele><time>2026-03-28T08:36:59Z</time></trkpt><trkpt lat="45.471425701634" lon="11.087482566726356"><ele>342.0</ele><time>2026-03-28T08:37:00Z</time></trkpt><trkpt lat="45.47151886152143" lon="11.087513780695055"><ele>343.6</ele><time>2026-03-28T08:37:01Z</time></trkpt><trkpt lat="45.471612270154566" lon="11.087541424021872"><ele>345.20000000000005</ele><time>2026-03-28T08:37:02Z</time></trkpt><trkpt lat="45.4717135268413" lon="11.08754221029529"><ele>346.8</ele><time>2026-03-28T08:37:03Z</time></trkpt><trkpt lat="45.47181466931953" lon="11.087567526276976"><ele>348.4</ele><time>2026-03-28T08:37:04Z</time></trkpt><trkpt lat="45.47192878999485" lon="11.087593797369664"><ele>350.0</ele><time>2026-03-28T08:37:05Z</time></trkpt><trkpt lat="45.472043082351966" lon="11.087621555524544"><ele>350.2</ele><time>2026-03-28T08:37:06Z</time></trkpt><trkpt lat="45.472150528425175" lon="11.087652100514354"><ele>350.4</ele><time>2026-03-28T08:37:07Z</time></trkpt><trkpt lat="45.47225536236606" lon="11.087683057984671"><ele>350.6</ele><time>2026-03-28T08:37:08Z</time></trkpt><trkpt lat="45.4723486042269" lon="11.087733008793219"><ele>350.8</ele><time>2026-03-28T08:37:09Z</time></trkpt><trkpt lat="45.472451872284836" lon="11.087775426675178"><ele>351.0</ele><time>2026-03-28T08:37:10Z</time></trkpt><trkpt lat="45.47256138170148" lon="11.087802146580835"><ele>351.0</ele><time>2026-03-28T08:37:11Z</time></trkpt><trkpt lat="45.472672814412505" lon="11.087832907671503"><ele>351.0</ele><time>2026-03-28T08:37:12Z</time></trkpt><trkpt lat="45.47277711994107" lon="11.087869026829983"><ele>351.0</ele><time>2026-03-28T08:37:13Z</time></trkpt><trkpt lat="45.472880908495384" lon="11.08790353021453"><ele>351.0</ele><time>2026-03-28T08:37:14Z</time></trkpt><trkpt lat="45.47298946167526" lon="11.08794287258749"><ele>351.0</ele><time>2026-03-28T08:37:15Z</time></trkpt><trkpt lat="45.47310117419309" lon="11.087972514380949"><ele>351.25</ele><time>2026-03-28T08:37:16Z</time></trkpt><trkpt lat="45.473210640035205" lon="11.088011110052706"><ele>351.5</ele><time>2026-03-28T08:37:17Z</time></trkpt><trkpt lat="45.47333233636555" lon="11.088047898872173"><ele>351.75</ele><time>2026-03-28T08:37:18Z</time></trkpt><trkpt lat="45.473452690823095" lon="11.088091166944224"><ele>352.0</ele><time>2026-03-28T08:37:19Z</time></trkpt><trkpt lat="45.47357484645669" lon="11.088133506740228"><ele>352.0</ele><time>2026-03-28T08:37:20Z</time></trkpt><trkpt lat="45.47369603913762" lon="11.088163928900244"><ele>352.0</ele><time>2026-03-28T08:37:21Z</time></trkpt><trkpt lat="45.47381940152166" lon="11.088207340635961"><ele>352.0</ele><time>2026-03-28T08:37:22Z</time></trkpt><trkpt lat="45.47394233823243" lon="11.088254265869681"><ele>352.0</ele><time>2026-03-28T08:37:23Z</time></trkpt><trkpt lat="45.47406332233722" lon="11.088298248246232"><ele>352.75</ele><time>2026-03-28T08:37:24Z</time></trkpt><trkpt lat="45.4741811163854" lon="11.088337121166848"><ele>353.5</ele><time>2026-03-28T08:37:25Z</time></trkpt><trkpt lat="45.474303687109604" lon="11.088399127658153"><ele>354.25</ele><time>2026-03-28T08:37:26Z</time></trkpt><trkpt lat="45.474417786593584" lon="11.088422998572632"><ele>355.0</ele><time>2026-03-28T08:37:27Z</time></trkpt><trkpt lat="45.47453359884129" lon="11.088466820580793"><ele>356.0</ele><time>2026-03-28T08:37:28Z</time></trkpt><trkpt lat="45.474644957366756" lon="11.088506887292858"><ele>357.0</ele><time>2026-03-28T08:37:29Z</time></trkpt><trkpt lat="45.47477155875902" lon="11.088546391551123"><ele>358.0</ele><time>2026-03-28T08:37:30Z</time></trkpt><trkpt lat="45.47490228078502" lon="11.088590867233185"><ele>359.0</ele><time>2026-03-28T08:37:31Z</time></trkpt><trkpt lat="45.47504286484372" lon="11.088640619935273"><ele>359.0</ele><time>2026-03-28T08:37:32Z</time></trkpt><trkpt lat="45.47517916639973" lon="11.088689709144727"><ele>359.0</ele><time>2026-03-28T08:37:33Z</time></trkpt><trkpt lat="45.47531302628113" lon="11.088736551884072"><ele>359.0</ele><time>2026-03-28T08:37:34Z</time></trkpt><trkpt lat="45.47544573606564" lon="11.088784469110397"><ele>359.0</ele><time>2026-03-28T08:37:35Z</time></trkpt><trkpt lat="45.475569470458964" lon="11.088829367461603"><ele>360.25</ele><time>2026-03-28T08:37:36Z</time></trkpt><trkpt lat="45.47569356639238" lon="11.08887553297802"><ele>361.5</ele><time>2026-03-28T08:37:37Z</time></trkpt><trkpt lat="45.47581625798989" lon="11.088925459974995"><ele>362.75</ele><time>2026-03-28T08:37:38Z</time></trkpt><trkpt lat="45.47593534001241" lon="11.088959741455408"><ele>364.0</ele><time>2026-03-28T08:37:39Z</time></trkpt><trkpt lat="45.476058709142706" lon="11.08898301716783"><ele>364.0</ele><time>2026-03-28T08:37:40Z</time></trkpt><trkpt lat="45.47617829277044" lon="11.0889892101607"><ele>364.0</ele><time>2026-03-28T08:37:41Z</time></trkpt><trkpt lat="45.476285294481215" lon="11.088988933176083"><ele>364.0</ele><time>2026-03-28T08:37:42Z</time></trkpt><trkpt lat="45.47638174439033" lon="11.088978344483953"><ele>364.0</ele><time>2026-03-28T08:37:43Z</time></trkpt><trkpt lat="45.476479813402705" lon="11.088960928438183"><ele>364.0</ele><time>2026-03-28T08:37:44Z</time></trkpt><trkpt lat="45.47659064163102" lon="11.088943816480683"><ele>363.5</ele><time>2026-03-28T08:37:45Z</time></trkpt><trkpt lat="45.476705882493995" lon="11.08894390393893"><ele>363.0</ele><time>2026-03-28T08:37:46Z</time></trkpt><trkpt lat="45.476824512328285" lon="11.088890901833656"><ele>362.5</ele><time>2026-03-28T08:37:47Z</time></trkpt><trkpt lat="45.476940819994695" lon="11.088855476614052"><ele>362.0</ele><time>2026-03-28T08:37:48Z</time></trkpt><trkpt lat="45.477058210156805" lon="11.088809619078638"><ele>359.25</ele><time>2026-03-28T08:37:49Z</time></trkpt><trkpt lat="45.4771628280571" lon="11.088734450193103"><ele>356.5</ele><time>2026-03-28T08:37:50Z</time></trkpt><trkpt lat="45.47726101226095" lon="11.088643138419053"><ele>353.75</ele><time>2026-03-28T08:37:51Z</time></trkpt><trkpt lat="45.47737161946432" lon="11.088545131273184"><ele>351.0</ele><time>2026-03-28T08:37:52Z</time></trkpt><trkpt lat="45.47751182852502" lon="11.088471321764775"><ele>351.0</ele><time>2026-03-28T08:37:53Z</time></trkpt><trkpt lat="45.47764953681902" lon="11.088465507866768"><ele>351.0</ele><time>2026-03-28T08:37:54Z</time></trkpt><trkpt lat="45.47777394752155" lon="11.088535636330977"><ele>351.0</ele><time>2026-03-28T08:37:55Z</time></trkpt><trkpt lat="45.4778778384941" lon="11.088579436400472"><ele>351.0</ele><time>2026-03-28T08:37:56Z</time></trkpt><trkpt lat="45.477993566757085" lon="11.08863372289523"><ele>349.5</ele><time>2026-03-28T08:37:57Z</time></trkpt><trkpt lat="45.478107428843835" lon="11.088664345556868"><ele>348.0</ele><time>2026-03-28T08:37:58Z</time></trkpt><trkpt lat="45.47822830901251" lon="11.088710886311492"><ele>346.5</ele><time>2026-03-28T08:37:59Z</time></trkpt><trkpt lat="45.47835594774" lon="11.08876882354459"><ele>345.0</ele><time>2026-03-28T08:38:00Z</time></trkpt><trkpt lat="45.478491757246935" lon="11.088823584200968"><ele>345.0</ele><time>2026-03-28T08:38:01Z</time></trkpt><trkpt lat="45.47862147824694" lon="11.088870613378376"><ele>345.0</ele><time>2026-03-28T08:38:02Z</time></trkpt><trkpt lat="45.478750378329856" lon="11.088919399815442"><ele>345.0</ele><time>2026-03-28T08:38:03Z</time></trkpt><trkpt lat="45.478876969931" lon="11.088965214823611"><ele>345.0</ele><time>2026-03-28T08:38:04Z</time></trkpt><trkpt lat="45.478993560134825" lon="11.089008094004434"><ele>345.4</ele><time>2026-03-28T08:38:05Z</time></trkpt><trkpt lat="45.47909653186897" lon="11.089050397697031"><ele>345.8</ele><time>2026-03-28T08:38:06Z</time></trkpt><trkpt lat="45.479191690506816" lon="11.08909059078074"><ele>346.20000000000005</ele><time>2026-03-28T08:38:07Z</time></trkpt><trkpt lat="45.4792826082643" lon="11.089117780688232"><ele>346.6</ele><time>2026-03-28T08:38:08Z</time></trkpt><trkpt lat="45.479370621559724" lon="11.089140901466303"><ele>347.0</ele><time>2026-03-28T08:38:09Z</time></trkpt><trkpt lat="45.47945057987699" lon="11.089185063281725"><ele>346.33333333333337</ele><time>2026-03-28T08:38:10Z</time></trkpt><trkpt lat="45.47957753170625" lon="11.089262628536359"><ele>345.6666666666667</ele><time>2026-03-28T08:38:12Z</time></trkpt><trkpt lat="45.479609363694905" lon="11.08935957042041"><ele>345.0</ele><time>2026-03-28T08:38:13Z</time></trkpt><trkpt lat="45.479848509932395" lon="11.089069863481708"><ele>345.0</ele><time>2026-03-28T08:38:14Z</time></trkpt><trkpt lat="45.479967316062435" lon="11.089050824090386"><ele>345.0</ele><time>2026-03-28T08:38:15Z</time></trkpt><trkpt lat="45.48010478164011" lon="11.089043695140967"><ele>345.0</ele><time>2026-03-28T08:38:16Z</time></trkpt><trkpt lat="45.480254831597314" lon="11.089037257449375"><ele>345.0</ele><time>2026-03-28T08:38:17Z</time></trkpt><trkpt lat="45.48039595068484" lon="11.089027375094595"><ele>344.25</ele><time>2026-03-28T08:38:18Z</time></trkpt><trkpt lat="45.48052040657667" lon="11.08901249215953"><ele>343.5</ele><time>2026-03-28T08:38:19Z</time></trkpt><trkpt lat="45.48065340523504" lon="11.088992975928813"><ele>342.75</ele><time>2026-03-28T08:38:20Z</time></trkpt><trkpt lat="45.48077687508053" lon="11.08898170025823"><ele>342.0</ele><time>2026-03-28T08:38:21Z</time></trkpt><trkpt lat="45.480894243062394" lon="11.088980149494205"><ele>342.0</ele><time>2026-03-28T08:38:22Z</time></trkpt><trkpt lat="45.48100729542151" lon="11.088966687794384"><ele>342.0</ele><time>2026-03-28T08:38:23Z</time></trkpt><trkpt lat="45.48111765882332" lon="11.088962297101164"><ele>342.0</ele><time>2026-03-28T08:38:24Z</time></trkpt><trkpt lat="45.48122452044004" lon="11.088959391252917"><ele>342.0</ele><time>2026-03-28T08:38:25Z</time></trkpt><trkpt lat="45.48132234419154" lon="11.088946210527576"><ele>342.0</ele><time>2026-03-28T08:38:26Z</time></trkpt><trkpt lat="45.48139001553266" lon="11.088925664327283"><ele>342.3333333333333</ele><time>2026-03-28T08:38:27Z</time></trkpt><trkpt lat="45.48146629554343" lon="11.088881564591814"><ele>342.6666666666667</ele><time>2026-03-28T08:38:29Z</time></trkpt><trkpt lat="45.48155342782363" lon="11.08884968748789"><ele>343.0</ele><time>2026-03-28T08:38:32Z</time></trkpt><trkpt lat="45.481606735410026" lon="11.08871443949198"><ele>343.33333333333337</ele><time>2026-03-28T08:38:34Z</time></trkpt><trkpt lat="45.48161338807242" lon="11.088609254564563"><ele>343.6666666666667</ele><time>2026-03-28T08:38:35Z</time></trkpt><trkpt lat="45.481611351179325" lon="11.088511894478756"><ele>344.0</ele><time>2026-03-28T08:38:36Z</time></trkpt><trkpt lat="45.48163706036729" lon="11.08838393288515"><ele>344.0</ele><time>2026-03-28T08:38:38Z</time></trkpt><trkpt lat="45.48173152100359" lon="11.08838131700109"><ele>344.0</ele><time>2026-03-28T08:38:40Z</time></trkpt><trkpt lat="45.48184872540845" lon="11.0884559609181"><ele>344.0</ele><time>2026-03-28T08:38:42Z</time></trkpt><trkpt lat="45.48195679946215" lon="11.088480886152874"><ele>344.0</ele><time>2026-03-28T08:38:44Z</time></trkpt><trkpt lat="45.48197808587858" lon="11.08837133688485"><ele>344.0</ele><time>2026-03-28T08:38:46Z</time></trkpt><trkpt lat="45.48187163136164" lon="11.08826871363799"><ele>341.4</ele><time>2026-03-28T08:38:48Z</time></trkpt><trkpt lat="45.48179304370934" lon="11.088226299254417"><ele>338.79999999999995</ele><time>2026-03-28T08:38:49Z</time></trkpt><trkpt lat="45.48171298554887" lon="11.088188301017047"><ele>336.20000000000005</ele><time>2026-03-28T08:38:50Z</time></trkpt><trkpt lat="45.48162778828585" lon="11.08813152102023"><ele>333.6</ele><time>2026-03-28T08:38:51Z</time></trkpt><trkpt lat="45.4815201945674" lon="11.088110332294926"><ele>331.0</ele><time>2026-03-28T08:38:52Z</time></trkpt><trkpt lat="45.48141327351508" lon="11.088100615785356"><ele>331.0</ele><time>2026-03-28T08:38:53Z</time></trkpt><trkpt lat="45.48129449785921" lon="11.088105658553747"><ele>331.0</ele><time>2026-03-28T08:38:54Z</time></trkpt><trkpt lat="45.48119580139067" lon="11.088139808389656"><ele>331.0</ele><time>2026-03-28T08:38:55Z</time></trkpt><trkpt lat="45.48111999932648" lon="11.088139189858412"><ele>331.0</ele><time>2026-03-28T08:38:56Z</time></trkpt><trkpt lat="45.481042074400506" lon="11.088126337970483"><ele>331.0</ele><time>2026-03-28T08:38:58Z</time></trkpt><trkpt lat="45.48103860574043" lon="11.088006339035532"><ele>330.16666666666663</ele><time>2026-03-28T08:39:00Z</time></trkpt><trkpt lat="45.48109762756176" lon="11.087877053058245"><ele>329.3333333333333</ele><time>2026-03-28T08:39:02Z</time></trkpt><trkpt lat="45.48114796185835" lon="11.087793457498798"><ele>328.5</ele><time>2026-03-28T08:39:03Z</time></trkpt><trkpt lat="45.48115171444504" lon="11.087682400211857"><ele>327.6666666666667</ele><time>2026-03-28T08:39:04Z</time></trkpt><trkpt lat="45.481180043660345" lon="11.087563777166103"><ele>326.83333333333337</ele><time>2026-03-28T08:39:05Z</time></trkpt><trkpt lat="45.48116699804959" lon="11.087434413148172"><ele>326.0</ele><time>2026-03-28T08:39:06Z</time></trkpt><trkpt lat="45.481146263555644" lon="11.087293758996333"><ele>321.6</ele><time>2026-03-28T08:39:07Z</time></trkpt><trkpt lat="45.481134655188924" lon="11.087152416105779"><ele>317.20000000000005</ele><time>2026-03-28T08:39:08Z</time></trkpt><trkpt lat="45.48113231532145" lon="11.087025650198775"><ele>312.79999999999995</ele><time>2026-03-28T08:39:09Z</time></trkpt><trkpt lat="45.4811394422628" lon="11.086897505520847"><ele>308.4</ele><time>2026-03-28T08:39:10Z</time></trkpt><trkpt lat="45.481160188903885" lon="11.086759593230703"><ele>304.0</ele><time>2026-03-28T08:39:11Z</time></trkpt><trkpt lat="45.4811763787475" lon="11.086624238065793"><ele>300.66666666666663</ele><time>2026-03-28T08:39:12Z</time></trkpt><trkpt lat="45.48119092939299" lon="11.086492006589069"><ele>297.3333333333333</ele><time>2026-03-28T08:39:13Z</time></trkpt><trkpt lat="45.48120635966882" lon="11.086362741344413"><ele>294.0</ele><time>2026-03-28T08:39:14Z</time></trkpt><trkpt lat="45.481220698871226" lon="11.08624838745952"><ele>290.6666666666667</ele><time>2026-03-28T08:39:15Z</time></trkpt><trkpt lat="45.481237863201706" lon="11.086123868290894"><ele>287.33333333333337</ele><time>2026-03-28T08:39:16Z</time></trkpt><trkpt lat="45.481244810678035" lon="11.085992613012628"><ele>284.0</ele><time>2026-03-28T08:39:17Z</time></trkpt><trkpt lat="45.481241796917985" lon="11.085863976210648"><ele>282.2</ele><time>2026-03-28T08:39:18Z</time></trkpt><trkpt lat="45.48123589003374" lon="11.085711743813691"><ele>280.4</ele><time>2026-03-28T08:39:19Z</time></trkpt><trkpt lat="45.48122858298543" lon="11.085570947558773"><ele>278.6</ele><time>2026-03-28T08:39:20Z</time></trkpt><trkpt lat="45.481204160216926" lon="11.085435136861687"><ele>276.8</ele><time>2026-03-28T08:39:21Z</time></trkpt><trkpt lat="45.48117724971193" lon="11.08529012819987"><ele>275.0</ele><time>2026-03-28T08:39:22Z</time></trkpt><trkpt lat="45.4811529684651" lon="11.085143400732697"><ele>275.0</ele><time>2026-03-28T08:39:23Z</time></trkpt><trkpt lat="45.4811187297949" lon="11.085000549903771"><ele>275.0</ele><time>2026-03-28T08:39:24Z</time></trkpt><trkpt lat="45.48107837388444" lon="11.084857503440226"><ele>275.0</ele><time>2026-03-28T08:39:25Z</time></trkpt><trkpt lat="45.48102836023457" lon="11.084706666718393"><ele>275.0</ele><time>2026-03-28T08:39:26Z</time></trkpt><trkpt lat="45.48096621820017" lon="11.084560743486472"><ele>274.5</ele><time>2026-03-28T08:39:27Z</time></trkpt><trkpt lat="45.48090326096235" lon="11.084406438555595"><ele>274.0</ele><time>2026-03-28T08:39:28Z</time></trkpt><trkpt lat="45.48084199680546" lon="11.084253719628988"><ele>273.5</ele><time>2026-03-28T08:39:29Z</time></trkpt><trkpt lat="45.48078550484726" lon="11.084108468572708"><ele>273.0</ele><time>2026-03-28T08:39:30Z</time></trkpt><trkpt lat="45.48074044501388" lon="11.083993417334689"><ele>271.6666666666667</ele><time>2026-03-28T08:39:31Z</time></trkpt><trkpt lat="45.48070268329137" lon="11.083889876380216"><ele>270.3333333333333</ele><time>2026-03-28T08:39:32Z</time></trkpt><trkpt lat="45.48067854123474" lon="11.08379302523908"><ele>269.0</ele><time>2026-03-28T08:39:33Z</time></trkpt><trkpt lat="45.480686861117825" lon="11.083700748783157"><ele>267.66666666666663</ele><time>2026-03-28T08:39:34Z</time></trkpt><trkpt lat="45.48078525376871" lon="11.083579313871196"><ele>266.3333333333333</ele><time>2026-03-28T08:39:36Z</time></trkpt><trkpt lat="45.48085923132415" lon="11.083534225320532"><ele>265.0</ele><time>2026-03-28T08:39:37Z</time></trkpt><trkpt lat="45.480922424647304" lon="11.083485226840642"><ele>265.0</ele><time>2026-03-28T08:39:38Z</time></trkpt><trkpt lat="45.480971667780885" lon="11.083364900568075"><ele>265.0</ele><time>2026-03-28T08:39:40Z</time></trkpt><trkpt lat="45.48096074729789" lon="11.08320945204403"><ele>265.0</ele><time>2026-03-28T08:39:42Z</time></trkpt><trkpt lat="45.48092323860802" lon="11.083125464307876"><ele>265.0</ele><time>2026-03-28T08:39:43Z</time></trkpt><trkpt lat="45.48087558043479" lon="11.083036207718582"><ele>265.0</ele><time>2026-03-28T08:39:44Z</time></trkpt><trkpt lat="45.4808148354715" lon="11.082937506047484"><ele>265.0</ele><time>2026-03-28T08:39:45Z</time></trkpt><trkpt lat="45.48075535146995" lon="11.082841645407045"><ele>262.8</ele><time>2026-03-28T08:39:46Z</time></trkpt><trkpt lat="45.48069660654047" lon="11.082755761361"><ele>260.6</ele><time>2026-03-28T08:39:47Z</time></trkpt><trkpt lat="45.480653119102065" lon="11.082649958161491"><ele>258.4</ele><time>2026-03-28T08:39:48Z</time></trkpt><trkpt lat="45.48060558757755" lon="11.082568334154228"><ele>256.2</ele><time>2026-03-28T08:39:49Z</time></trkpt><trkpt lat="45.48054557519871" lon="11.082463994088123"><ele>254.0</ele><time>2026-03-28T08:39:51Z</time></trkpt><trkpt lat="45.480351883204136" lon="11.082643744071063"><ele>252.33333333333334</ele><time>2026-03-28T08:39:54Z</time></trkpt><trkpt lat="45.48031498993542" lon="11.082747097195293"><ele>250.66666666666669</ele><time>2026-03-28T08:39:55Z</time></trkpt><trkpt lat="45.480246645812095" lon="11.082827198314911"><ele>249.0</ele><time>2026-03-28T08:39:56Z</time></trkpt><trkpt lat="45.48022001882753" lon="11.08292270536004"><ele>247.33333333333331</ele><time>2026-03-28T08:39:57Z</time></trkpt><trkpt lat="45.48018527018334" lon="11.083016519228241"><ele>245.66666666666666</ele><time>2026-03-28T08:39:58Z</time></trkpt><trkpt lat="45.48015028599684" lon="11.083091390640007"><ele>244.0</ele><time>2026-03-28T08:39:59Z</time></trkpt><trkpt lat="45.4800720199822" lon="11.083059869348473"><ele>243.99999999999997</ele><time>2026-03-28T08:40:04Z</time></trkpt><trkpt lat="45.480009964812716" lon="11.082999555376354"><ele>244.0</ele><time>2026-03-28T08:40:06Z</time></trkpt><trkpt lat="45.47994260985382" lon="11.0830182587431"><ele>244.0</ele><time>2026-03-28T08:40:10Z</time></trkpt><trkpt lat="45.47987172548819" lon="11.08296689826844"><ele>244.0</ele><time>2026-03-28T08:40:13Z</time></trkpt><trkpt lat="45.4797944277686" lon="11.082893511486919"><ele>243.99999999999997</ele><time>2026-03-28T08:40:15Z</time></trkpt><trkpt lat="45.47971291533923" lon="11.082818010988243"><ele>244.0</ele><time>2026-03-28T08:40:18Z</time></trkpt><trkpt lat="45.479663703729656" lon="11.082754685839436"><ele>239.99999999999997</ele><time>2026-03-28T08:40:20Z</time></trkpt><trkpt lat="45.47959630014171" lon="11.082645523985244"><ele>236.0</ele><time>2026-03-28T08:40:22.999Z</time></trkpt><trkpt lat="45.47954385226588" lon="11.08255888400483"><ele>232.0</ele><time>2026-03-28T08:40:24.999Z</time></trkpt><trkpt lat="45.4794972839824" lon="11.082458484590678"><ele>228.0</ele><time>2026-03-28T08:40:28Z</time></trkpt><trkpt lat="45.479452581164736" lon="11.08236686675808"><ele>223.99999999999997</ele><time>2026-03-28T08:40:30Z</time></trkpt><trkpt lat="45.47943526781376" lon="11.082276996670947"><ele>220.0</ele><time>2026-03-28T08:40:32Z</time></trkpt><trkpt lat="45.4793930130402" lon="11.082209938240016"><ele>219.83333333333331</ele><time>2026-03-28T08:40:35Z</time></trkpt><trkpt lat="45.47933826737588" lon="11.082123056754293"><ele>219.66666666666666</ele><time>2026-03-28T08:40:37Z</time></trkpt><trkpt lat="45.479289850300454" lon="11.082027541962985"><ele>219.5</ele><time>2026-03-28T08:40:40Z</time></trkpt><trkpt lat="45.479263106011395" lon="11.081914235926368"><ele>219.33333333333331</ele><time>2026-03-28T08:40:42Z</time></trkpt><trkpt lat="45.47924103827387" lon="11.081803344222035"><ele>219.16666666666666</ele><time>2026-03-28T08:40:44Z</time></trkpt><trkpt lat="45.47918880485737" lon="11.081671629765466"><ele>219.0</ele><time>2026-03-28T08:40:47Z</time></trkpt><trkpt lat="45.47916183365608" lon="11.081584258112207"><ele>218.79999999999998</ele><time>2026-03-28T08:40:49Z</time></trkpt><trkpt lat="45.47910732681119" lon="11.081648970413944"><ele>218.59999999999997</ele><time>2026-03-28T08:40:52Z</time></trkpt><trkpt lat="45.479086121204325" lon="11.081738535050016"><ele>218.4</ele><time>2026-03-28T08:40:54Z</time></trkpt><trkpt lat="45.47912120321145" lon="11.08185287793131"><ele>218.2</ele><time>2026-03-28T08:40:56Z</time></trkpt><trkpt lat="45.47911196101486" lon="11.081985204959894"><ele>218.0</ele><time>2026-03-28T08:40:58Z</time></trkpt><trkpt lat="45.47915533951668" lon="11.082163310662436"><ele>218.0</ele><time>2026-03-28T08:41:00Z</time></trkpt><trkpt lat="45.47915202627479" lon="11.082302324522296"><ele>218.0</ele><time>2026-03-28T08:41:02Z</time></trkpt><trkpt lat="45.47916360853068" lon="11.082439652965165"><ele>218.0</ele><time>2026-03-28T08:41:04Z</time></trkpt><trkpt lat="45.47919998398679" lon="11.082560112264714"><ele>218.0</ele><time>2026-03-28T08:41:06Z</time></trkpt><trkpt lat="45.47914762295273" lon="11.08266374269658"><ele>218.0</ele><time>2026-03-28T08:41:09Z</time></trkpt><trkpt lat="45.47918414113157" lon="11.082766355185864"><ele>218.33333333333334</ele><time>2026-03-28T08:41:11Z</time></trkpt><trkpt lat="45.47918640500342" lon="11.0829049288786"><ele>218.66666666666669</ele><time>2026-03-28T08:41:13Z</time></trkpt><trkpt lat="45.47920623954364" lon="11.083015319742222"><ele>219.0</ele><time>2026-03-28T08:41:15Z</time></trkpt><trkpt lat="45.47921063088523" lon="11.083109535071522"><ele>219.33333333333331</ele><time>2026-03-28T08:41:18Z</time></trkpt><trkpt lat="45.479124889845274" lon="11.083071112786982"><ele>219.66666666666666</ele><time>2026-03-28T08:41:23Z</time></trkpt><trkpt lat="45.47909326311852" lon="11.082992500677124"><ele>220.0</ele><time>2026-03-28T08:41:25Z</time></trkpt><trkpt lat="45.47905525260003" lon="11.082840394283709"><ele>220.0</ele><time>2026-03-28T08:41:28Z</time></trkpt><trkpt lat="45.47904440893259" lon="11.0826892407731"><ele>220.0</ele><time>2026-03-28T08:41:30Z</time></trkpt><trkpt lat="45.479014805101144" lon="11.082570134617926"><ele>220.0</ele><time>2026-03-28T08:41:32Z</time></trkpt><trkpt lat="45.479019249220755" lon="11.082442442198406"><ele>220.0</ele><time>2026-03-28T08:41:34Z</time></trkpt><trkpt lat="45.478964051115106" lon="11.082307366411275"><ele>220.0</ele><time>2026-03-28T08:41:36Z</time></trkpt><trkpt lat="45.47896242236965" lon="11.082166703600159"><ele>219.6</ele><time>2026-03-28T08:41:38Z</time></trkpt><trkpt lat="45.47893364039572" lon="11.082068046870287"><ele>219.2</ele><time>2026-03-28T08:41:40Z</time></trkpt><trkpt lat="45.4788796100988" lon="11.081976884591445"><ele>218.8</ele><time>2026-03-28T08:41:42Z</time></trkpt><trkpt lat="45.478836943084104" lon="11.081833743276968"><ele>218.4</ele><time>2026-03-28T08:41:44Z</time></trkpt><trkpt lat="45.478792872446036" lon="11.08173966667548"><ele>218.0</ele><time>2026-03-28T08:41:46Z</time></trkpt><trkpt lat="45.478702549306355" lon="11.081619984439104"><ele>214.83333333333334</ele><time>2026-03-28T08:41:48Z</time></trkpt><trkpt lat="45.47864310859959" lon="11.081549465498119"><ele>211.66666666666669</ele><time>2026-03-28T08:41:50Z</time></trkpt><trkpt lat="45.478587419695295" lon="11.081469296575898"><ele>208.5</ele><time>2026-03-28T08:41:52Z</time></trkpt><trkpt lat="45.47850854782665" lon="11.081411722750346"><ele>205.33333333333331</ele><time>2026-03-28T08:41:55Z</time></trkpt><trkpt lat="45.4785504992828" lon="11.081328928116482"><ele>202.16666666666666</ele><time>2026-03-28T08:41:58Z</time></trkpt><trkpt lat="45.4785336945802" lon="11.081193776116967"><ele>199.0</ele><time>2026-03-28T08:42:00Z</time></trkpt><trkpt lat="45.478477170036825" lon="11.081092851634125"><ele>198.99999999999997</ele><time>2026-03-28T08:42:02Z</time></trkpt><trkpt lat="45.478410699225165" lon="11.081060160117483"><ele>199.0</ele><time>2026-03-28T08:42:04Z</time></trkpt><trkpt lat="45.47831353482" lon="11.080991228908664"><ele>199.0</ele><time>2026-03-28T08:42:06Z</time></trkpt><trkpt lat="45.47825066159386" lon="11.080952381904632"><ele>199.0</ele><time>2026-03-28T08:42:07Z</time></trkpt><trkpt lat="45.47819636720343" lon="11.08090176153222"><ele>198.99999999999997</ele><time>2026-03-28T08:42:08Z</time></trkpt><trkpt lat="45.478099155467426" lon="11.08077717405702"><ele>199.0</ele><time>2026-03-28T08:42:10Z</time></trkpt><trkpt lat="45.478052545721965" lon="11.080711402354801"><ele>199.39999999999998</ele><time>2026-03-28T08:42:11Z</time></trkpt><trkpt lat="45.47794294929391" lon="11.080633791795305"><ele>199.8</ele><time>2026-03-28T08:42:13Z</time></trkpt><trkpt lat="45.477840169054595" lon="11.080559706185603"><ele>200.2</ele><time>2026-03-28T08:42:15Z</time></trkpt><trkpt lat="45.477779116081635" lon="11.080527473482581"><ele>200.60000000000002</ele><time>2026-03-28T08:42:16Z</time></trkpt><trkpt lat="45.47770243380988" lon="11.080505747561714"><ele>201.0</ele><time>2026-03-28T08:42:17Z</time></trkpt><trkpt lat="45.47761542096798" lon="11.080436191632774"><ele>198.33333333333334</ele><time>2026-03-28T08:42:19Z</time></trkpt><trkpt lat="45.47754592497209" lon="11.08039657664556"><ele>195.66666666666666</ele><time>2026-03-28T08:42:21Z</time></trkpt><trkpt lat="45.47745130893233" lon="11.080439098851006"><ele>193.0</ele><time>2026-03-28T08:42:23Z</time></trkpt><trkpt lat="45.47739855579457" lon="11.080343539886012"><ele>190.33333333333331</ele><time>2026-03-28T08:42:25Z</time></trkpt><trkpt lat="45.47737980615908" lon="11.080187664016936"><ele>187.66666666666666</ele><time>2026-03-28T08:42:26.999Z</time></trkpt><trkpt lat="45.47736775747264" lon="11.080097937042268"><ele>185.0</ele><time>2026-03-28T08:42:28.999Z</time></trkpt><trkpt lat="45.47734026941358" lon="11.080013381284733"><ele>184.2</ele><time>2026-03-28T08:42:29.999Z</time></trkpt><trkpt lat="45.47729244307522" lon="11.079933368821221"><ele>183.4</ele><time>2026-03-28T08:42:30.999Z</time></trkpt><trkpt lat="45.47730768779387" lon="11.079838411411602"><ele>182.60000000000002</ele><time>2026-03-28T08:42:32.999Z</time></trkpt><trkpt lat="45.477293755538625" lon="11.079686328773102"><ele>181.8</ele><time>2026-03-28T08:42:34.999Z</time></trkpt><trkpt lat="45.477259243923406" lon="11.079606841243324"><ele>181.0</ele><time>2026-03-28T08:42:35.999Z</time></trkpt><trkpt lat="45.47719321571798" lon="11.079423889720873"><ele>181.0</ele><time>2026-03-28T08:42:37.999Z</time></trkpt><trkpt lat="45.47716092161552" lon="11.079336703668671"><ele>181.0</ele><time>2026-03-28T08:42:38.999Z</time></trkpt><trkpt lat="45.47712700433617" lon="11.079259449767681"><ele>181.0</ele><time>2026-03-28T08:42:39.999Z</time></trkpt><trkpt lat="45.47708831084487" lon="11.079173966123067"><ele>181.0</ele><time>2026-03-28T08:42:41Z</time></trkpt><trkpt lat="45.47704775055902" lon="11.079040389225863"><ele>181.0</ele><time>2026-03-28T08:42:43Z</time></trkpt><trkpt lat="45.47712040582484" lon="11.078920169708084"><ele>181.0</ele><time>2026-03-28T08:42:45Z</time></trkpt><trkpt lat="45.477151881553326" lon="11.0787994826338"><ele>179.33333333333334</ele><time>2026-03-28T08:42:47Z</time></trkpt><trkpt lat="45.47717466833379" lon="11.07871080765656"><ele>177.66666666666669</ele><time>2026-03-28T08:42:49Z</time></trkpt><trkpt lat="45.477217950643876" lon="11.078641646479896"><ele>176.0</ele><time>2026-03-28T08:42:51Z</time></trkpt><trkpt lat="45.47729532151302" lon="11.078571653168941"><ele>174.33333333333334</ele><time>2026-03-28T08:42:53Z</time></trkpt><trkpt lat="45.47732121215464" lon="11.078398683006224"><ele>172.66666666666666</ele><time>2026-03-28T08:42:55Z</time></trkpt><trkpt lat="45.477340073733345" lon="11.078297615148813"><ele>171.0</ele><time>2026-03-28T08:42:56Z</time></trkpt><trkpt lat="45.47735396617827" lon="11.078195198771665"><ele>169.16666666666666</ele><time>2026-03-28T08:42:57Z</time></trkpt><trkpt lat="45.47737676313067" lon="11.078073370882711"><ele>167.33333333333334</ele><time>2026-03-28T08:42:59Z</time></trkpt><trkpt lat="45.47740574334591" lon="11.07797638459652"><ele>165.5</ele><time>2026-03-28T08:43:01Z</time></trkpt><trkpt lat="45.47744630161686" lon="11.077822045772836"><ele>163.66666666666669</ele><time>2026-03-28T08:43:03Z</time></trkpt><trkpt lat="45.47747260279881" lon="11.077730446550552"><ele>161.83333333333334</ele><time>2026-03-28T08:43:07Z</time></trkpt><trkpt lat="45.47745749267897" lon="11.07760836877118"><ele>160.0</ele><time>2026-03-28T08:43:09Z</time></trkpt><trkpt lat="45.47750488679722" lon="11.077549107498005"><ele>159.33333333333334</ele><time>2026-03-28T08:43:13Z</time></trkpt><trkpt lat="45.47751216427491" lon="11.077415648435627"><ele>158.66666666666669</ele><time>2026-03-28T08:43:16Z</time></trkpt><trkpt lat="45.47755268027027" lon="11.077313409270651"><ele>158.0</ele><time>2026-03-28T08:43:20Z</time></trkpt><trkpt lat="45.47758952909857" lon="11.077234051352038"><ele>157.33333333333334</ele><time>2026-03-28T08:43:26Z</time></trkpt><trkpt lat="45.47762913074271" lon="11.077137442805476"><ele>156.66666666666666</ele><time>2026-03-28T08:43:31Z</time></trkpt><trkpt lat="45.47765216136421" lon="11.077038559560252"><ele>156.0</ele><time>2026-03-28T08:43:34Z</time></trkpt><trkpt lat="45.477656926619304" lon="11.076911823834607"><ele>156.0</ele><time>2026-03-28T08:43:37Z</time></trkpt><trkpt lat="45.477658629783264" lon="11.076818719323315"><ele>156.0</ele><time>2026-03-28T08:43:39Z</time></trkpt><trkpt lat="45.47767164971191" lon="11.07670905624881"><ele>156.0</ele><time>2026-03-28T08:43:42Z</time></trkpt><trkpt lat="45.47774559755792" lon="11.076639926140633"><ele>156.0</ele><time>2026-03-28T08:43:47Z</time></trkpt><trkpt lat="45.4777622463295" lon="11.076548790707475"><ele>156.0</ele><time>2026-03-28T08:43:50Z</time></trkpt><trkpt lat="45.47777623267664" lon="11.076369679018404"><ele>156.0</ele><time>2026-03-28T08:43:52Z</time></trkpt><trkpt lat="45.4778199498085" lon="11.0762795650151"><ele>155.83333333333334</ele><time>2026-03-28T08:43:54Z</time></trkpt><trkpt lat="45.477881345961016" lon="11.076197198909849"><ele>155.66666666666666</ele><time>2026-03-28T08:43:56Z</time></trkpt><trkpt lat="45.477931130369015" lon="11.076123566831539"><ele>155.5</ele><time>2026-03-28T08:43:58Z</time></trkpt><trkpt lat="45.47797468789908" lon="11.07604339058679"><ele>155.33333333333331</ele><time>2026-03-28T08:44:00Z</time></trkpt><trkpt lat="45.47800017035289" lon="11.07594351293415"><ele>155.16666666666666</ele><time>2026-03-28T08:44:02Z</time></trkpt><trkpt lat="45.478033394109076" lon="11.075831239227862"><ele>155.0</ele><time>2026-03-28T08:44:04Z</time></trkpt><trkpt lat="45.47808160513229" lon="11.075769366525337"><ele>152.33333333333331</ele><time>2026-03-28T08:44:07Z</time></trkpt><trkpt lat="45.47806330986036" lon="11.075676731134887"><ele>149.66666666666666</ele><time>2026-03-28T08:44:11.001Z</time></trkpt><trkpt lat="45.478037309483355" lon="11.07559081130823"><ele>147.0</ele><time>2026-03-28T08:44:12.001Z</time></trkpt><trkpt lat="45.477980791387566" lon="11.0754562801021"><ele>144.33333333333334</ele><time>2026-03-28T08:44:14.001Z</time></trkpt><trkpt lat="45.477965332847376" lon="11.075350494619292"><ele>141.66666666666669</ele><time>2026-03-28T08:44:27.001Z</time></trkpt><trkpt lat="45.47797008913291" lon="11.075213507457581"><ele>139.0</ele><time>2026-03-28T08:44:30.001Z</time></trkpt><trkpt lat="45.47801049197912" lon="11.075132132438908"><ele>139.0</ele><time>2026-03-28T08:44:33Z</time></trkpt><trkpt lat="45.478087421350914" lon="11.075157817893038"><ele>139.0</ele><time>2026-03-28T08:44:35Z</time></trkpt><trkpt lat="45.47817958377812" lon="11.07515745840897"><ele>139.0</ele><time>2026-03-28T08:44:38Z</time></trkpt><trkpt lat="45.47825100000841" lon="11.075095337155881"><ele>139.0</ele><time>2026-03-28T08:44:40Z</time></trkpt><trkpt lat="45.47832217882339" lon="11.075026662116668"><ele>139.0</ele><time>2026-03-28T08:44:43Z</time></trkpt><trkpt lat="45.47838747406228" lon="11.07497538284948"><ele>139.0</ele><time>2026-03-28T08:44:46Z</time></trkpt><trkpt lat="45.47842967444626" lon="11.074873279297867"><ele>139.2</ele><time>2026-03-28T08:45:24Z</time></trkpt><trkpt lat="45.47848686408078" lon="11.07481332975952"><ele>139.4</ele><time>2026-03-28T08:45:26Z</time></trkpt><trkpt lat="45.478540078918336" lon="11.074689525604292"><ele>139.6</ele><time>2026-03-28T08:45:28Z</time></trkpt><trkpt lat="45.478592592966805" lon="11.07462512425711"><ele>139.8</ele><time>2026-03-28T08:45:29Z</time></trkpt><trkpt lat="45.478650469346015" lon="11.074436875145707"><ele>140.0</ele><time>2026-03-28T08:45:34.001Z</time></trkpt><trkpt lat="45.478702059617206" lon="11.074337129445864"><ele>140.0</ele><time>2026-03-28T08:45:35.001Z</time></trkpt><trkpt lat="45.47873201831792" lon="11.074206092628884"><ele>140.0</ele><time>2026-03-28T08:45:37.001Z</time></trkpt><trkpt lat="45.4787209080994" lon="11.074093393290221"><ele>140.0</ele><time>2026-03-28T08:45:39.001Z</time></trkpt><trkpt lat="45.47877495031073" lon="11.073966452811034"><ele>140.0</ele><time>2026-03-28T08:45:41.001Z</time></trkpt><trkpt lat="45.47883069319119" lon="11.07387377139124"><ele>140.0</ele><time>2026-03-28T08:45:42.001Z</time></trkpt><trkpt lat="45.478881338420734" lon="11.073779823069351"><ele>140.0</ele><time>2026-03-28T08:45:43.001Z</time></trkpt><trkpt lat="45.47892099596723" lon="11.073674478511045"><ele>137.2</ele><time>2026-03-28T08:45:44.001Z</time></trkpt><trkpt lat="45.47897534161435" lon="11.073523683008146"><ele>134.4</ele><time>2026-03-28T08:45:46.001Z</time></trkpt><trkpt lat="45.47901391380327" lon="11.073432466874696"><ele>131.6</ele><time>2026-03-28T08:45:47.001Z</time></trkpt><trkpt lat="45.479078010323086" lon="11.073335591896013"><ele>128.8</ele><time>2026-03-28T08:45:48.001Z</time></trkpt><trkpt lat="45.479125059834104" lon="11.073254884031277"><ele>126.0</ele><time>2026-03-28T08:45:49.001Z</time></trkpt><trkpt lat="45.47918631328516" lon="11.073156416871823"><ele>126.0</ele><time>2026-03-28T08:45:50.001Z</time></trkpt><trkpt lat="45.47919892485775" lon="11.073051057507477"><ele>126.0</ele><time>2026-03-28T08:45:51.001Z</time></trkpt><trkpt lat="45.47926974677778" lon="11.07299516139718"><ele>126.0</ele><time>2026-03-28T08:45:53.001Z</time></trkpt><trkpt lat="45.479365577047425" lon="11.072846437467419"><ele>126.0</ele><time>2026-03-28T08:45:55.001Z</time></trkpt><trkpt lat="45.47941298557218" lon="11.07277990736048"><ele>126.0</ele><time>2026-03-28T08:45:56.001Z</time></trkpt><trkpt lat="45.47942745550776" lon="11.072677086761024"><ele>126.0</ele><time>2026-03-28T08:45:58.001Z</time></trkpt><trkpt lat="45.47935425890833" lon="11.07257546856052"><ele>126.0</ele><time>2026-03-28T08:46:00.001Z</time></trkpt><trkpt lat="45.47925730159313" lon="11.072504866765415"><ele>126.0</ele><time>2026-03-28T08:46:02.001Z</time></trkpt><trkpt lat="45.47920857382986" lon="11.072318524695895"><ele>126.0</ele><time>2026-03-28T08:46:04.001Z</time></trkpt><trkpt lat="45.479163702436786" lon="11.072191968353572"><ele>126.0</ele><time>2026-03-28T08:46:05.001Z</time></trkpt><trkpt lat="45.479126939373884" lon="11.072071268525766"><ele>126.0</ele><time>2026-03-28T08:46:06.001Z</time></trkpt><trkpt lat="45.4790916361112" lon="11.071954904992506"><ele>126.28571428571428</ele><time>2026-03-28T08:46:07.001Z</time></trkpt><trkpt lat="45.47904541645087" lon="11.071880384403142"><ele>126.57142857142857</ele><time>2026-03-28T08:46:08.001Z</time></trkpt><trkpt lat="45.478981710402465" lon="11.071793424056054"><ele>126.85714285714286</ele><time>2026-03-28T08:46:09.001Z</time></trkpt><trkpt lat="45.47891828553269" lon="11.071728629916146"><ele>127.14285714285714</ele><time>2026-03-28T08:46:10.001Z</time></trkpt><trkpt lat="45.47887426673467" lon="11.071653020430958"><ele>127.42857142857142</ele><time>2026-03-28T08:46:11.001Z</time></trkpt><trkpt lat="45.47883416979204" lon="11.071577549457922"><ele>127.71428571428571</ele><time>2026-03-28T08:46:12.001Z</time></trkpt><trkpt lat="45.47876101192214" lon="11.071610200171856"><ele>128.0</ele><time>2026-03-28T08:46:15.001Z</time></trkpt><trkpt lat="45.47870324241825" lon="11.071529918723"><ele>129.0</ele><time>2026-03-28T08:46:19.001Z</time></trkpt><trkpt lat="45.47871639298531" lon="11.07143304069736"><ele>130.0</ele><time>2026-03-28T08:46:22.001Z</time></trkpt><trkpt lat="45.478725252481624" lon="11.07130565862183"><ele>131.0</ele><time>2026-03-28T08:46:28.001Z</time></trkpt><trkpt lat="45.47870605538205" lon="11.071193454168133"><ele>132.0</ele><time>2026-03-28T08:46:30.001Z</time></trkpt><trkpt lat="45.47867945776269" lon="11.071088640467625"><ele>133.0</ele><time>2026-03-28T08:46:31.001Z</time></trkpt><trkpt lat="45.47864716733313" lon="11.070918113532585"><ele>134.0</ele><time>2026-03-28T08:46:33.001Z</time></trkpt><trkpt lat="45.47864269362333" lon="11.070818068869883"><ele>133.0</ele><time>2026-03-28T08:46:34.001Z</time></trkpt><trkpt lat="45.4786381814801" lon="11.070715399189947"><ele>132.0</ele><time>2026-03-28T08:46:35.001Z</time></trkpt><trkpt lat="45.47863640983941" lon="11.070614105109344"><ele>131.0</ele><time>2026-03-28T08:46:36.001Z</time></trkpt><trkpt lat="45.4786330508696" lon="11.070518893269655"><ele>130.0</ele><time>2026-03-28T08:46:37.001Z</time></trkpt><trkpt lat="45.478619444746336" lon="11.070427964820286"><ele>129.0</ele><time>2026-03-28T08:46:38.001Z</time></trkpt><trkpt lat="45.47858214765237" lon="11.070264459226202"><ele>128.0</ele><time>2026-03-28T08:46:40Z</time></trkpt><trkpt lat="45.47853123267252" lon="11.070136024636898"><ele>127.99999999999999</ele><time>2026-03-28T08:46:42Z</time></trkpt><trkpt lat="45.47847164154231" lon="11.070005435496132"><ele>128.0</ele><time>2026-03-28T08:46:44Z</time></trkpt><trkpt lat="45.478433614520426" lon="11.06992406023813"><ele>128.0</ele><time>2026-03-28T08:46:45Z</time></trkpt><trkpt lat="45.47838452526024" lon="11.06984192523491"><ele>128.0</ele><time>2026-03-28T08:46:46Z</time></trkpt><trkpt lat="45.47832695262683" lon="11.069786220206751"><ele>127.99999999999999</ele><time>2026-03-28T08:46:47Z</time></trkpt><trkpt lat="45.478267146379125" lon="11.069733037848835"><ele>128.0</ele><time>2026-03-28T08:46:48Z</time></trkpt><trkpt lat="45.47819508595031" lon="11.069701329525344"><ele>125.83333333333333</ele><time>2026-03-28T08:46:49Z</time></trkpt><trkpt lat="45.478127490473845" lon="11.069710677606116"><ele>123.66666666666666</ele><time>2026-03-28T08:46:50Z</time></trkpt><trkpt lat="45.47805168634459" lon="11.069739423865782"><ele>121.5</ele><time>2026-03-28T08:46:51Z</time></trkpt><trkpt lat="45.477973464162865" lon="11.069791097065243"><ele>119.33333333333334</ele><time>2026-03-28T08:46:52Z</time></trkpt><trkpt lat="45.477892190544694" lon="11.069837504637285"><ele>117.16666666666667</ele><time>2026-03-28T08:46:53Z</time></trkpt><trkpt lat="45.47780312471201" lon="11.06987811722113"><ele>115.0</ele><time>2026-03-28T08:46:54Z</time></trkpt><trkpt lat="45.477697914468656" lon="11.069915605148305"><ele>115.66666666666667</ele><time>2026-03-28T08:46:55Z</time></trkpt><trkpt lat="45.47761379029396" lon="11.069968866112537"><ele>116.33333333333334</ele><time>2026-03-28T08:46:56Z</time></trkpt><trkpt lat="45.47753606390242" lon="11.07003293570489"><ele>117.0</ele><time>2026-03-28T08:46:57Z</time></trkpt><trkpt lat="45.47746124078176" lon="11.070096104518889"><ele>117.66666666666666</ele><time>2026-03-28T08:46:58Z</time></trkpt><trkpt lat="45.477406215318815" lon="11.070142699206615"><ele>118.33333333333333</ele><time>2026-03-28T08:46:59Z</time></trkpt><trkpt lat="45.47734761998221" lon="11.070042676046683"><ele>119.0</ele><time>2026-03-28T08:47:02Z</time></trkpt><trkpt lat="45.4774028438527" lon="11.06987747253265"><ele>116.6</ele><time>2026-03-28T08:47:04Z</time></trkpt><trkpt lat="45.47744459154793" lon="11.069757803230411"><ele>114.2</ele><time>2026-03-28T08:47:05Z</time></trkpt><trkpt lat="45.47748184639049" lon="11.06962368173086"><ele>111.79999999999998</ele><time>2026-03-28T08:47:06Z</time></trkpt><trkpt lat="45.477530642662494" lon="11.06948670262568"><ele>109.39999999999999</ele><time>2026-03-28T08:47:07Z</time></trkpt><trkpt lat="45.47757443725504" lon="11.069367955283008"><ele>107.0</ele><time>2026-03-28T08:47:08Z</time></trkpt><trkpt lat="45.477614567219256" lon="11.06925118894362"><ele>107.0</ele><time>2026-03-28T08:47:09Z</time></trkpt><trkpt lat="45.47767549093484" lon="11.069156918095247"><ele>106.99999999999999</ele><time>2026-03-28T08:47:10Z</time></trkpt><trkpt lat="45.47775863502625" lon="11.069060778555604"><ele>106.99999999999999</ele><time>2026-03-28T08:47:11Z</time></trkpt><trkpt lat="45.477837895572634" lon="11.06897342536258"><ele>107.0</ele><time>2026-03-28T08:47:12Z</time></trkpt><trkpt lat="45.47790836782977" lon="11.068883156831799"><ele>107.0</ele><time>2026-03-28T08:47:13Z</time></trkpt><trkpt lat="45.4779745862916" lon="11.068812290322342"><ele>105.39999999999999</ele><time>2026-03-28T08:47:14Z</time></trkpt><trkpt lat="45.478047569063484" lon="11.068733124171422"><ele>103.79999999999998</ele><time>2026-03-28T08:47:15Z</time></trkpt><trkpt lat="45.47812816019931" lon="11.068631826352984"><ele>102.2</ele><time>2026-03-28T08:47:16Z</time></trkpt><trkpt lat="45.47821451637568" lon="11.068544095443391"><ele>100.6</ele><time>2026-03-28T08:47:17Z</time></trkpt><trkpt lat="45.47830533689084" lon="11.068426078579835"><ele>99.0</ele><time>2026-03-28T08:47:18Z</time></trkpt><trkpt lat="45.47840464384473" lon="11.068348689347143"><ele>99.0</ele><time>2026-03-28T08:47:19Z</time></trkpt><trkpt lat="45.478500517722665" lon="11.0682900845379"><ele>99.0</ele><time>2026-03-28T08:47:20Z</time></trkpt><trkpt lat="45.47858662358642" lon="11.06825103612108"><ele>99.0</ele><time>2026-03-28T08:47:21Z</time></trkpt><trkpt lat="45.47866241060171" lon="11.068219838870647"><ele>99.0</ele><time>2026-03-28T08:47:22Z</time></trkpt><trkpt lat="45.47872039645101" lon="11.068162600384037"><ele>99.0</ele><time>2026-03-28T08:47:23Z</time></trkpt><trkpt lat="45.47876685854073" lon="11.068075159631077"><ele>99.0</ele><time>2026-03-28T08:47:24Z</time></trkpt><trkpt lat="45.47877579288295" lon="11.067973765670722"><ele>97.80000000000001</ele><time>2026-03-28T08:47:25Z</time></trkpt><trkpt lat="45.47875801205752" lon="11.067853414689012"><ele>96.60000000000001</ele><time>2026-03-28T08:47:26Z</time></trkpt><trkpt lat="45.478715711535386" lon="11.067708078239109"><ele>95.4</ele><time>2026-03-28T08:47:27Z</time></trkpt><trkpt lat="45.47868513527208" lon="11.067557438981368"><ele>94.2</ele><time>2026-03-28T08:47:28Z</time></trkpt><trkpt lat="45.47866552969658" lon="11.067394413885188"><ele>93.0</ele><time>2026-03-28T08:47:29Z</time></trkpt><trkpt lat="45.478668149247625" lon="11.067256710989161"><ele>92.66666666666667</ele><time>2026-03-28T08:47:30Z</time></trkpt><trkpt lat="45.47869106766657" lon="11.067140908016302"><ele>92.33333333333333</ele><time>2026-03-28T08:47:32Z</time></trkpt><trkpt lat="45.478694338990145" lon="11.066981352482436"><ele>92.0</ele><time>2026-03-28T08:47:40Z</time></trkpt><trkpt lat="45.47864664309566" lon="11.066885212112624"><ele>91.66666666666666</ele><time>2026-03-28T08:47:41Z</time></trkpt><trkpt lat="45.47861240236106" lon="11.06679875238397"><ele>91.33333333333333</ele><time>2026-03-28T08:47:42Z</time></trkpt><trkpt lat="45.478588452256126" lon="11.066694083211326"><ele>91.0</ele><time>2026-03-28T08:47:43Z</time></trkpt><trkpt lat="45.47856299815193" lon="11.06656970315662"><ele>90.6</ele><time>2026-03-28T08:47:44Z</time></trkpt><trkpt lat="45.47854836935391" lon="11.066434960450675"><ele>90.19999999999999</ele><time>2026-03-28T08:47:45.001Z</time></trkpt><trkpt lat="45.478537319268106" lon="11.066298261863098"><ele>89.80000000000001</ele><time>2026-03-28T08:47:46.001Z</time></trkpt><trkpt lat="45.47852622964501" lon="11.066161075245015"><ele>89.4</ele><time>2026-03-28T08:47:47.001Z</time></trkpt><trkpt lat="45.4785125674477" lon="11.066021278559127"><ele>89.0</ele><time>2026-03-28T08:47:48.001Z</time></trkpt><trkpt lat="45.47849750826157" lon="11.065869673463158"><ele>88.75</ele><time>2026-03-28T08:47:49.001Z</time></trkpt><trkpt lat="45.478482965554015" lon="11.065718542268828"><ele>88.5</ele><time>2026-03-28T08:47:50.001Z</time></trkpt><trkpt lat="45.478467415354146" lon="11.065542933893221"><ele>88.25</ele><time>2026-03-28T08:47:51.001Z</time></trkpt><trkpt lat="45.47845048120825" lon="11.065384694848603"><ele>88.0</ele><time>2026-03-28T08:47:52.001Z</time></trkpt><trkpt lat="45.47843361841089" lon="11.065230701770306"><ele>88.0</ele><time>2026-03-28T08:47:53.001Z</time></trkpt><trkpt lat="45.47841139461998" lon="11.06508793102542"><ele>88.0</ele><time>2026-03-28T08:47:54.001Z</time></trkpt><trkpt lat="45.47839341746092" lon="11.064949557506457"><ele>88.0</ele><time>2026-03-28T08:47:55.001Z</time></trkpt><trkpt lat="45.478379150043985" lon="11.064798592193448"><ele>88.0</ele><time>2026-03-28T08:47:56.001Z</time></trkpt><trkpt lat="45.47836499400457" lon="11.06462824245146"><ele>88.0</ele><time>2026-03-28T08:47:57.001Z</time></trkpt><trkpt lat="45.47835009709601" lon="11.064447269043162"><ele>88.0</ele><time>2026-03-28T08:47:58.001Z</time></trkpt><trkpt lat="45.47833568957622" lon="11.064253847570361"><ele>88.0</ele><time>2026-03-28T08:47:59.001Z</time></trkpt><trkpt lat="45.47832043770657" lon="11.064075990596757"><ele>88.0</ele><time>2026-03-28T08:48:00.001Z</time></trkpt><trkpt lat="45.47830306992202" lon="11.063903966829976"><ele>88.0</ele><time>2026-03-28T08:48:01.001Z</time></trkpt><trkpt lat="45.47828912647757" lon="11.063720231851136"><ele>87.75</ele><time>2026-03-28T08:48:02.001Z</time></trkpt><trkpt lat="45.47827660763" lon="11.063518776874197"><ele>87.5</ele><time>2026-03-28T08:48:03.001Z</time></trkpt><trkpt lat="45.478265092262944" lon="11.063312349793588"><ele>87.25</ele><time>2026-03-28T08:48:04.001Z</time></trkpt><trkpt lat="45.47825157173452" lon="11.063110719136558"><ele>87.0</ele><time>2026-03-28T08:48:05.001Z</time></trkpt><trkpt lat="45.4782338787126" lon="11.06291241490536"><ele>87.0</ele><time>2026-03-28T08:48:06.001Z</time></trkpt><trkpt lat="45.478223942548695" lon="11.06271319654576"><ele>87.0</ele><time>2026-03-28T08:48:07.001Z</time></trkpt><trkpt lat="45.47821271168512" lon="11.06252685158093"><ele>87.0</ele><time>2026-03-28T08:48:08.001Z</time></trkpt><trkpt lat="45.47820285861937" lon="11.062349216090889"><ele>87.0</ele><time>2026-03-28T08:48:09.001Z</time></trkpt><trkpt lat="45.47819372991841" lon="11.062174175891291"><ele>87.25</ele><time>2026-03-28T08:48:10.001Z</time></trkpt><trkpt lat="45.478166914295365" lon="11.062003981706996"><ele>87.5</ele><time>2026-03-28T08:48:11.001Z</time></trkpt><trkpt lat="45.47812507279193" lon="11.061839806002967"><ele>87.75</ele><time>2026-03-28T08:48:12.001Z</time></trkpt><trkpt lat="45.47805898449487" lon="11.061692144200087"><ele>88.0</ele><time>2026-03-28T08:48:13.001Z</time></trkpt><trkpt lat="45.47796663727877" lon="11.061562975135256"><ele>87.75</ele><time>2026-03-28T08:48:14.001Z</time></trkpt><trkpt lat="45.4778685507244" lon="11.061441258496243"><ele>87.5</ele><time>2026-03-28T08:48:15.001Z</time></trkpt><trkpt lat="45.47776536460174" lon="11.061324194167788"><ele>87.25</ele><time>2026-03-28T08:48:16.001Z</time></trkpt><trkpt lat="45.47766532931881" lon="11.061227123947925"><ele>87.0</ele><time>2026-03-28T08:48:17.001Z</time></trkpt><trkpt lat="45.47755955470015" lon="11.061155138023407"><ele>87.0</ele><time>2026-03-28T08:48:18.001Z</time></trkpt><trkpt lat="45.47744229496766" lon="11.061100578623092"><ele>87.0</ele><time>2026-03-28T08:48:19.001Z</time></trkpt><trkpt lat="45.47734177709544" lon="11.061058040858969"><ele>87.0</ele><time>2026-03-28T08:48:20.001Z</time></trkpt><trkpt lat="45.47726528942503" lon="11.061000807779175"><ele>87.0</ele><time>2026-03-28T08:48:21.001Z</time></trkpt><trkpt lat="45.477212702175066" lon="11.06094805754385"><ele>87.0</ele><time>2026-03-28T08:48:22.001Z</time></trkpt><trkpt lat="45.47712352487169" lon="11.060845214625893"><ele>87.16666666666667</ele><time>2026-03-28T08:48:24.001Z</time></trkpt><trkpt lat="45.4770747595401" lon="11.060785018519592"><ele>87.33333333333333</ele><time>2026-03-28T08:48:25.001Z</time></trkpt><trkpt lat="45.47707946285126" lon="11.060613261792065"><ele>87.5</ele><time>2026-03-28T08:48:27.001Z</time></trkpt><trkpt lat="45.47712914394992" lon="11.060486904137829"><ele>87.66666666666666</ele><time>2026-03-28T08:48:41.001Z</time></trkpt><trkpt lat="45.477165773952706" lon="11.060399770259645"><ele>87.83333333333333</ele><time>2026-03-28T08:48:42.001Z</time></trkpt><trkpt lat="45.47720137180677" lon="11.060287582205738"><ele>88.0</ele><time>2026-03-28T08:48:43.001Z</time></trkpt><trkpt lat="45.477228426350614" lon="11.06015478680507"><ele>88.0</ele><time>2026-03-28T08:48:44.001Z</time></trkpt><trkpt lat="45.47726692609484" lon="11.06000966402322"><ele>88.0</ele><time>2026-03-28T08:48:45Z</time></trkpt><trkpt lat="45.47730053222598" lon="11.059878230064204"><ele>88.0</ele><time>2026-03-28T08:48:46Z</time></trkpt><trkpt lat="45.47731373366422" lon="11.059739408963987"><ele>88.0</ele><time>2026-03-28T08:48:47Z</time></trkpt><trkpt lat="45.47734417513144" lon="11.059604622925095"><ele>88.0</ele><time>2026-03-28T08:48:49Z</time></trkpt><trkpt lat="45.4774264504342" lon="11.05959719642903"><ele>89.4</ele><time>2026-03-28T08:48:52Z</time></trkpt><trkpt lat="45.477527043143" lon="11.059659014284696"><ele>90.80000000000001</ele><time>2026-03-28T08:48:54Z</time></trkpt><trkpt lat="45.47760779108673" lon="11.059666133718073"><ele>92.2</ele><time>2026-03-28T08:48:55Z</time></trkpt><trkpt lat="45.477703378242005" lon="11.059653655661469"><ele>93.6</ele><time>2026-03-28T08:48:56Z</time></trkpt><trkpt lat="45.47780949467756" lon="11.059657547815403"><ele>95.0</ele><time>2026-03-28T08:48:57Z</time></trkpt><trkpt lat="45.47791371253432" lon="11.059670887880472"><ele>95.75</ele><time>2026-03-28T08:48:58Z</time></trkpt><trkpt lat="45.47803146083984" lon="11.059692789710358"><ele>96.5</ele><time>2026-03-28T08:48:59Z</time></trkpt><trkpt lat="45.478155408981756" lon="11.059717872487619"><ele>97.25</ele><time>2026-03-28T08:49:00Z</time></trkpt><trkpt lat="45.47827494089008" lon="11.059749874492981"><ele>98.0</ele><time>2026-03-28T08:49:01Z</time></trkpt><trkpt lat="45.47838224678845" lon="11.05978965090987"><ele>98.0</ele><time>2026-03-28T08:49:02Z</time></trkpt><trkpt lat="45.4784829511637" lon="11.059826590875312"><ele>98.0</ele><time>2026-03-28T08:49:03Z</time></trkpt><trkpt lat="45.4785961405211" lon="11.05984740833161"><ele>98.0</ele><time>2026-03-28T08:49:04Z</time></trkpt><trkpt lat="45.47872000181072" lon="11.05985864795865"><ele>98.0</ele><time>2026-03-28T08:49:05Z</time></trkpt><trkpt lat="45.478846535326596" lon="11.059870007034977"><ele>99.25</ele><time>2026-03-28T08:49:06Z</time></trkpt><trkpt lat="45.47898238120849" lon="11.059882943077781"><ele>100.5</ele><time>2026-03-28T08:49:07Z</time></trkpt><trkpt lat="45.479115444615395" lon="11.05988978452041"><ele>101.75</ele><time>2026-03-28T08:49:08Z</time></trkpt><trkpt lat="45.479226419714195" lon="11.059896835422032"><ele>103.0</ele><time>2026-03-28T08:49:09Z</time></trkpt><trkpt lat="45.479325595778754" lon="11.05990351977316"><ele>103.0</ele><time>2026-03-28T08:49:10Z</time></trkpt><trkpt lat="45.47941401138167" lon="11.059909361815583"><ele>103.0</ele><time>2026-03-28T08:49:11Z</time></trkpt><trkpt lat="45.47948562833864" lon="11.05992599268552"><ele>103.0</ele><time>2026-03-28T08:49:12Z</time></trkpt><trkpt lat="45.47959428215374" lon="11.059944858317532"><ele>103.0</ele><time>2026-03-28T08:49:14Z</time></trkpt><trkpt lat="45.47966418094555" lon="11.059902644453881"><ele>103.0</ele><time>2026-03-28T08:49:16Z</time></trkpt><trkpt lat="45.47960684864499" lon="11.059770164557072"><ele>103.0</ele><time>2026-03-28T08:49:18Z</time></trkpt><trkpt lat="45.47954028658635" lon="11.059729290831529"><ele>103.0</ele><time>2026-03-28T08:49:19Z</time></trkpt><trkpt lat="45.479409207784" lon="11.059656831665365"><ele>103.0</ele><time>2026-03-28T08:49:21Z</time></trkpt><trkpt lat="45.47934409858067" lon="11.05959941198258"><ele>103.0</ele><time>2026-03-28T08:49:22Z</time></trkpt><trkpt lat="45.47928258336319" lon="11.059555195577499"><ele>103.0</ele><time>2026-03-28T08:49:23Z</time></trkpt><trkpt lat="45.47918382171194" lon="11.059544992784703"><ele>103.00000000000001</ele><time>2026-03-28T08:49:25Z</time></trkpt><trkpt lat="45.47908191904206" lon="11.059510476010916"><ele>103.0</ele><time>2026-03-28T08:49:27Z</time></trkpt><trkpt lat="45.479020559947855" lon="11.059467782287074"><ele>103.0</ele><time>2026-03-28T08:49:28Z</time></trkpt><trkpt lat="45.47894623818299" lon="11.059428172602525"><ele>103.0</ele><time>2026-03-28T08:49:29Z</time></trkpt><trkpt lat="45.47885999907536" lon="11.059383625866015"><ele>103.00000000000001</ele><time>2026-03-28T08:49:30Z</time></trkpt><trkpt lat="45.478766723696005" lon="11.059326333107464"><ele>103.0</ele><time>2026-03-28T08:49:31Z</time></trkpt><trkpt lat="45.47867142943342" lon="11.059243500725545"><ele>103.50000000000001</ele><time>2026-03-28T08:49:32Z</time></trkpt><trkpt lat="45.47859291393756" lon="11.059167780635402"><ele>104.0</ele><time>2026-03-28T08:49:33Z</time></trkpt><trkpt lat="45.478508398652366" lon="11.059105411341204"><ele>104.5</ele><time>2026-03-28T08:49:34Z</time></trkpt><trkpt lat="45.478438210869115" lon="11.059041187399457"><ele>105.0</ele><time>2026-03-28T08:49:35Z</time></trkpt><trkpt lat="45.47838138274687" lon="11.058977658224979"><ele>105.50000000000001</ele><time>2026-03-28T08:49:36Z</time></trkpt><trkpt lat="45.478339672296485" lon="11.058899895946324"><ele>106.0</ele><time>2026-03-28T08:49:37Z</time></trkpt><trkpt lat="45.47831534785683" lon="11.0587886858572"><ele>106.00000000000001</ele><time>2026-03-28T08:49:38Z</time></trkpt><trkpt lat="45.478303540410515" lon="11.05866096421399"><ele>106.0</ele><time>2026-03-28T08:49:39Z</time></trkpt><trkpt lat="45.478276856875674" lon="11.05852034057481"><ele>106.0</ele><time>2026-03-28T08:49:40Z</time></trkpt><trkpt lat="45.478254108041064" lon="11.05840163574633"><ele>106.0</ele><time>2026-03-28T08:49:41Z</time></trkpt><trkpt lat="45.47822785950905" lon="11.058306657736244"><ele>106.00000000000001</ele><time>2026-03-28T08:49:42Z</time></trkpt><trkpt lat="45.47819951166405" lon="11.058214571419102"><ele>106.0</ele><time>2026-03-28T08:49:43.001Z</time></trkpt><trkpt lat="45.47816427213516" lon="11.058122230068703"><ele>105.6</ele><time>2026-03-28T08:49:44.001Z</time></trkpt><trkpt lat="45.47812632694614" lon="11.058020599669975"><ele>105.19999999999999</ele><time>2026-03-28T08:49:45.001Z</time></trkpt><trkpt lat="45.47808554894438" lon="11.05789631613195"><ele>104.80000000000001</ele><time>2026-03-28T08:49:46.001Z</time></trkpt><trkpt lat="45.4780340765396" lon="11.05774265889198"><ele>104.4</ele><time>2026-03-28T08:49:47.001Z</time></trkpt><trkpt lat="45.47796148986774" lon="11.057598457047353"><ele>104.0</ele><time>2026-03-28T08:49:48.001Z</time></trkpt><trkpt lat="45.47790261335696" lon="11.057483525275762"><ele>105.2</ele><time>2026-03-28T08:49:49.001Z</time></trkpt><trkpt lat="45.477862488271256" lon="11.05737510744803"><ele>106.4</ele><time>2026-03-28T08:49:50.001Z</time></trkpt><trkpt lat="45.47783706604361" lon="11.057291650813232"><ele>107.6</ele><time>2026-03-28T08:49:51.001Z</time></trkpt><trkpt lat="45.47787546161401" lon="11.05716037029406"><ele>108.8</ele><time>2026-03-28T08:49:53.001Z</time></trkpt><trkpt lat="45.4778131008429" lon="11.05698983507291"><ele>110.0</ele><time>2026-03-28T08:49:55.001Z</time></trkpt><trkpt lat="45.47775859779524" lon="11.056877368909028"><ele>109.99999999999999</ele><time>2026-03-28T08:49:56.001Z</time></trkpt><trkpt lat="45.47769956749159" lon="11.056770448484034"><ele>110.0</ele><time>2026-03-28T08:49:57.001Z</time></trkpt><trkpt lat="45.47764406124317" lon="11.056680515122288"><ele>110.0</ele><time>2026-03-28T08:49:58.001Z</time></trkpt><trkpt lat="45.477597383823216" lon="11.056586416363547"><ele>110.0</ele><time>2026-03-28T08:49:59.001Z</time></trkpt><trkpt lat="45.477544502324164" lon="11.056469209630226"><ele>109.99999999999999</ele><time>2026-03-28T08:50:00.001Z</time></trkpt><trkpt lat="45.477496591094805" lon="11.056359950283518"><ele>110.0</ele><time>2026-03-28T08:50:01.001Z</time></trkpt><trkpt lat="45.4774655751301" lon="11.056255589731457"><ele>112.4</ele><time>2026-03-28T08:50:02.001Z</time></trkpt><trkpt lat="45.477496635781954" lon="11.056093145796321"><ele>114.8</ele><time>2026-03-28T08:50:04.001Z</time></trkpt><trkpt lat="45.47755175469884" lon="11.056014207712831"><ele>117.19999999999999</ele><time>2026-03-28T08:50:05.001Z</time></trkpt><trkpt lat="45.47761363566777" lon="11.055950257023943"><ele>119.6</ele><time>2026-03-28T08:50:06.001Z</time></trkpt><trkpt lat="45.47768122287775" lon="11.055869149965236"><ele>122.0</ele><time>2026-03-28T08:50:07.001Z</time></trkpt><trkpt lat="45.477766320247376" lon="11.05579572907927"><ele>124.39999999999999</ele><time>2026-03-28T08:50:08.001Z</time></trkpt><trkpt lat="45.477851223366095" lon="11.05572995800194"><ele>126.79999999999998</ele><time>2026-03-28T08:50:09.001Z</time></trkpt><trkpt lat="45.477942464505844" lon="11.0556569014647"><ele>129.2</ele><time>2026-03-28T08:50:10.001Z</time></trkpt><trkpt lat="45.478042793301" lon="11.055577735213575"><ele>131.6</ele><time>2026-03-28T08:50:11.001Z</time></trkpt><trkpt lat="45.47813650145876" lon="11.055491046630953"><ele>134.0</ele><time>2026-03-28T08:50:12.001Z</time></trkpt><trkpt lat="45.47823529079909" lon="11.055392235437063"><ele>135.6</ele><time>2026-03-28T08:50:13.001Z</time></trkpt><trkpt lat="45.47832583598485" lon="11.055306366109496"><ele>137.2</ele><time>2026-03-28T08:50:14.001Z</time></trkpt><trkpt lat="45.47841906983417" lon="11.055227816884857"><ele>138.79999999999998</ele><time>2026-03-28T08:50:15.001Z</time></trkpt><trkpt lat="45.478519550083504" lon="11.055161871116567"><ele>140.4</ele><time>2026-03-28T08:50:16.001Z</time></trkpt><trkpt lat="45.47861200955318" lon="11.055111599123522"><ele>142.0</ele><time>2026-03-28T08:50:17.001Z</time></trkpt><trkpt lat="45.478705887624656" lon="11.055073024043615"><ele>143.2</ele><time>2026-03-28T08:50:18.001Z</time></trkpt><trkpt lat="45.478785670111414" lon="11.055012857471597"><ele>144.39999999999998</ele><time>2026-03-28T08:50:19.001Z</time></trkpt><trkpt lat="45.47885624534559" lon="11.054913828485676"><ele>145.60000000000002</ele><time>2026-03-28T08:50:20.001Z</time></trkpt><trkpt lat="45.478930987452436" lon="11.054823828923407"><ele>146.8</ele><time>2026-03-28T08:50:21.001Z</time></trkpt><trkpt lat="45.47901392866121" lon="11.054737922591316"><ele>148.0</ele><time>2026-03-28T08:50:22.001Z</time></trkpt><trkpt lat="45.479081457170395" lon="11.05468748741564"><ele>151.60000000000002</ele><time>2026-03-28T08:50:23.001Z</time></trkpt><trkpt lat="45.47916192616082" lon="11.054664730428653"><ele>155.20000000000002</ele><time>2026-03-28T08:50:24.001Z</time></trkpt><trkpt lat="45.4792684118067" lon="11.05464923015954"><ele>158.8</ele><time>2026-03-28T08:50:25.001Z</time></trkpt><trkpt lat="45.47937351297221" lon="11.054644485545577"><ele>162.4</ele><time>2026-03-28T08:50:26.001Z</time></trkpt><trkpt lat="45.47948840357924" lon="11.05464185732908"><ele>166.0</ele><time>2026-03-28T08:50:27.001Z</time></trkpt><trkpt lat="45.47958898113996" lon="11.054662031535356"><ele>164.4</ele><time>2026-03-28T08:50:28.001Z</time></trkpt><trkpt lat="45.47967685555901" lon="11.05471332811066"><ele>162.8</ele><time>2026-03-28T08:50:29.001Z</time></trkpt><trkpt lat="45.47976486010184" lon="11.054787427887407"><ele>161.20000000000002</ele><time>2026-03-28T08:50:30.001Z</time></trkpt><trkpt lat="45.47984812760978" lon="11.05489224573108"><ele>159.60000000000002</ele><time>2026-03-28T08:50:31.001Z</time></trkpt><trkpt lat="45.479909269679524" lon="11.054995434207518"><ele>158.0</ele><time>2026-03-28T08:50:32.001Z</time></trkpt><trkpt lat="45.47994516554066" lon="11.055094378732067"><ele>158.0</ele><time>2026-03-28T08:50:33.001Z</time></trkpt><trkpt lat="45.4799684203723" lon="11.055215968943202"><ele>158.0</ele><time>2026-03-28T08:50:34.001Z</time></trkpt><trkpt lat="45.47996424889583" lon="11.055353745427313"><ele>158.0</ele><time>2026-03-28T08:50:35.001Z</time></trkpt><trkpt lat="45.47995112891928" lon="11.055465583514357"><ele>158.0</ele><time>2026-03-28T08:50:36.001Z</time></trkpt><trkpt lat="45.48001725368376" lon="11.055551354990547"><ele>158.0</ele><time>2026-03-28T08:50:38.001Z</time></trkpt><trkpt lat="45.480087534196294" lon="11.055553074727312"><ele>158.0</ele><time>2026-03-28T08:50:39.001Z</time></trkpt><trkpt lat="45.480170585200945" lon="11.055538710671716"><ele>158.0</ele><time>2026-03-28T08:50:40.001Z</time></trkpt><trkpt lat="45.48026897550365" lon="11.055536433626571"><ele>158.0</ele><time>2026-03-28T08:50:41.001Z</time></trkpt><trkpt lat="45.480355007160604" lon="11.055607669274321"><ele>158.0</ele><time>2026-03-28T08:50:42.001Z</time></trkpt><trkpt lat="45.480438922054624" lon="11.055616707943617"><ele>158.0</ele><time>2026-03-28T08:50:43.001Z</time></trkpt><trkpt lat="45.48053839522534" lon="11.055620338228554"><ele>158.0</ele><time>2026-03-28T08:50:44.001Z</time></trkpt><trkpt lat="45.48064657002891" lon="11.055613651621298"><ele>160.4</ele><time>2026-03-28T08:50:45.001Z</time></trkpt><trkpt lat="45.48073503156727" lon="11.055619167904096"><ele>162.8</ele><time>2026-03-28T08:50:46.001Z</time></trkpt><trkpt lat="45.480847333771806" lon="11.055564113768446"><ele>165.2</ele><time>2026-03-28T08:50:48.001Z</time></trkpt><trkpt lat="45.48089483564882" lon="11.05537144907955"><ele>167.6</ele><time>2026-03-28T08:50:50.001Z</time></trkpt><trkpt lat="45.48089508080221" lon="11.05523056850103"><ele>170.0</ele><time>2026-03-28T08:50:51Z</time></trkpt><trkpt lat="45.48088741302002" lon="11.055098630493605"><ele>171.6</ele><time>2026-03-28T08:50:52Z</time></trkpt><trkpt lat="45.48087819314516" lon="11.054952656650864"><ele>173.2</ele><time>2026-03-28T08:50:53Z</time></trkpt><trkpt lat="45.48088382161764" lon="11.054803206444644"><ele>174.8</ele><time>2026-03-28T08:50:54Z</time></trkpt><trkpt lat="45.48089360651779" lon="11.054636729459888"><ele>176.4</ele><time>2026-03-28T08:50:55Z</time></trkpt><trkpt lat="45.48089786892641" lon="11.054499581938794"><ele>178.0</ele><time>2026-03-28T08:50:56Z</time></trkpt><trkpt lat="45.480920292272636" lon="11.054384696207856"><ele>178.0</ele><time>2026-03-28T08:50:57Z</time></trkpt><trkpt lat="45.48094103728672" lon="11.054287487862545"><ele>178.0</ele><time>2026-03-28T08:50:58Z</time></trkpt><trkpt lat="45.48095189850748" lon="11.054185182772807"><ele>178.0</ele><time>2026-03-28T08:50:59Z</time></trkpt><trkpt lat="45.48094572947863" lon="11.054092789698002"><ele>178.0</ele><time>2026-03-28T08:51:00Z</time></trkpt><trkpt lat="45.480920639386056" lon="11.053975650451314"><ele>178.0</ele><time>2026-03-28T08:51:02Z</time></trkpt><trkpt lat="45.48089653168362" lon="11.053871946139454"><ele>178.0</ele><time>2026-03-28T08:51:04Z</time></trkpt><trkpt lat="45.48085453304316" lon="11.053772513209825"><ele>184.33333333333334</ele><time>2026-03-28T08:51:06Z</time></trkpt><trkpt lat="45.48054025381939" lon="11.053749767375097"><ele>190.66666666666669</ele><time>2026-03-28T08:51:08Z</time></trkpt><trkpt lat="45.48045930592463" lon="11.053748492878949"><ele>197.0</ele><time>2026-03-28T08:51:09Z</time></trkpt><trkpt lat="45.480365175018285" lon="11.053790840750457"><ele>197.00000000000003</ele><time>2026-03-28T08:51:11Z</time></trkpt><trkpt lat="45.480303003905455" lon="11.053726788256391"><ele>197.0</ele><time>2026-03-28T08:51:13Z</time></trkpt><trkpt lat="45.480366068786786" lon="11.053662496149498"><ele>197.0</ele><time>2026-03-28T08:51:16Z</time></trkpt><trkpt lat="45.4804393313574" lon="11.053615191608435"><ele>197.0</ele><time>2026-03-28T08:51:17Z</time></trkpt><trkpt lat="45.480526111860215" lon="11.053521762679951"><ele>197.00000000000003</ele><time>2026-03-28T08:51:19Z</time></trkpt><trkpt lat="45.48057180074492" lon="11.05339200608925"><ele>197.0</ele><time>2026-03-28T08:51:21Z</time></trkpt><trkpt lat="45.48064908367426" lon="11.05326154124465"><ele>200.83333333333334</ele><time>2026-03-28T08:51:23Z</time></trkpt><trkpt lat="45.48068789776636" lon="11.053156775639302"><ele>204.66666666666669</ele><time>2026-03-28T08:51:25Z</time></trkpt><trkpt lat="45.48070870860161" lon="11.053068347027795"><ele>208.5</ele><time>2026-03-28T08:51:41Z</time></trkpt><trkpt lat="45.480642498411335" lon="11.05309099212432"><ele>212.33333333333331</ele><time>2026-03-28T08:51:45Z</time></trkpt><trkpt lat="45.480555942966994" lon="11.053072269835468"><ele>216.16666666666666</ele><time>2026-03-28T08:51:47Z</time></trkpt><trkpt lat="45.48049611318765" lon="11.053043851377263"><ele>220.0</ele><time>2026-03-28T08:51:49Z</time></trkpt><trkpt lat="45.48041565561544" lon="11.052969871938199"><ele>220.66666666666666</ele><time>2026-03-28T08:51:53Z</time></trkpt><trkpt lat="45.48033069901187" lon="11.052956935886026"><ele>221.33333333333331</ele><time>2026-03-28T08:51:56Z</time></trkpt><trkpt lat="45.48024117261944" lon="11.052949520603466"><ele>222.0</ele><time>2026-03-28T08:51:59Z</time></trkpt><trkpt lat="45.4801505312936" lon="11.0529052956707"><ele>222.66666666666669</ele><time>2026-03-28T08:52:01Z</time></trkpt><trkpt lat="45.480113701262006" lon="11.05281995516897"><ele>223.33333333333334</ele><time>2026-03-28T08:52:16.001Z</time></trkpt><trkpt lat="45.48015302676991" lon="11.052730456158908"><ele>224.0</ele><time>2026-03-28T08:52:19.001Z</time></trkpt><trkpt lat="45.48023580621736" lon="11.05263521379349"><ele>224.00000000000003</ele><time>2026-03-28T08:52:21.001Z</time></trkpt><trkpt lat="45.48029488700976" lon="11.05258569510829"><ele>224.0</ele><time>2026-03-28T08:52:24.001Z</time></trkpt><trkpt lat="45.48024042052213" lon="11.052514974639259"><ele>224.0</ele><time>2026-03-28T08:52:30.001Z</time></trkpt><trkpt lat="45.48015306509277" lon="11.052517768594152"><ele>224.0</ele><time>2026-03-28T08:52:32.001Z</time></trkpt><trkpt lat="45.48007903609593" lon="11.05251134189422"><ele>224.00000000000003</ele><time>2026-03-28T08:52:34.001Z</time></trkpt><trkpt lat="45.48000688177265" lon="11.052498789095596"><ele>224.0</ele><time>2026-03-28T08:52:35.001Z</time></trkpt><trkpt lat="45.47993112213287" lon="11.05247462843783"><ele>226.0</ele><time>2026-03-28T08:52:36.001Z</time></trkpt><trkpt lat="45.47983626973233" lon="11.052405384458604"><ele>228.0</ele><time>2026-03-28T08:52:37.001Z</time></trkpt><trkpt lat="45.47972941017992" lon="11.052377376798512"><ele>230.0</ele><time>2026-03-28T08:52:38.001Z</time></trkpt><trkpt lat="45.479612656986056" lon="11.052344244106486"><ele>232.0</ele><time>2026-03-28T08:52:39.001Z</time></trkpt><trkpt lat="45.479479704769176" lon="11.05230546678239"><ele>232.0</ele><time>2026-03-28T08:52:40.001Z</time></trkpt><trkpt lat="45.47932974123154" lon="11.052278226703574"><ele>232.0</ele><time>2026-03-28T08:52:41.001Z</time></trkpt><trkpt lat="45.47918709740077" lon="11.052226672355214"><ele>232.0</ele><time>2026-03-28T08:52:42.001Z</time></trkpt><trkpt lat="45.47905470977113" lon="11.052195578382628"><ele>232.0</ele><time>2026-03-28T08:52:43.001Z</time></trkpt><trkpt lat="45.47892426292355" lon="11.052164198920579"><ele>232.0</ele><time>2026-03-28T08:52:44.001Z</time></trkpt><trkpt lat="45.47880170258806" lon="11.052121181566035"><ele>232.0</ele><time>2026-03-28T08:52:45.001Z</time></trkpt><trkpt lat="45.478682434301376" lon="11.052081374854273"><ele>232.0</ele><time>2026-03-28T08:52:46.001Z</time></trkpt><trkpt lat="45.47855826778043" lon="11.05204846286283"><ele>232.0</ele><time>2026-03-28T08:52:47.001Z</time></trkpt><trkpt lat="45.47844281095792" lon="11.0520048571128"><ele>228.25</ele><time>2026-03-28T08:52:48.001Z</time></trkpt><trkpt lat="45.478323452035156" lon="11.05196684751509"><ele>224.5</ele><time>2026-03-28T08:52:49.001Z</time></trkpt><trkpt lat="45.478202636900505" lon="11.051932471515395"><ele>220.75</ele><time>2026-03-28T08:52:50.001Z</time></trkpt><trkpt lat="45.47807990909336" lon="11.051896485504566"><ele>217.0</ele><time>2026-03-28T08:52:51.001Z</time></trkpt><trkpt lat="45.477950509237026" lon="11.051851853080512"><ele>214.25</ele><time>2026-03-28T08:52:52.001Z</time></trkpt><trkpt lat="45.477822333595945" lon="11.051812241997991"><ele>211.5</ele><time>2026-03-28T08:52:53.001Z</time></trkpt><trkpt lat="45.47770073025562" lon="11.051780121527857"><ele>208.75</ele><time>2026-03-28T08:52:54.001Z</time></trkpt><trkpt lat="45.47757985735482" lon="11.051745157707915"><ele>206.0</ele><time>2026-03-28T08:52:55.001Z</time></trkpt><trkpt lat="45.477461220188225" lon="11.051709871334635"><ele>206.0</ele><time>2026-03-28T08:52:56.001Z</time></trkpt><trkpt lat="45.477342558605564" lon="11.051680535293656"><ele>206.0</ele><time>2026-03-28T08:52:57Z</time></trkpt><trkpt lat="45.47721605989097" lon="11.051648355170071"><ele>206.0</ele><time>2026-03-28T08:52:58Z</time></trkpt><trkpt lat="45.47708383069787" lon="11.051618655841443"><ele>206.0</ele><time>2026-03-28T08:52:59Z</time></trkpt><trkpt lat="45.476957688733044" lon="11.051575945260174"><ele>207.25</ele><time>2026-03-28T08:53:00Z</time></trkpt><trkpt lat="45.476842286560334" lon="11.051544641194837"><ele>208.5</ele><time>2026-03-28T08:53:01Z</time></trkpt><trkpt lat="45.47673222801596" lon="11.05151632386524"><ele>209.75</ele><time>2026-03-28T08:53:02Z</time></trkpt><trkpt lat="45.47661959700578" lon="11.051482087071893"><ele>211.0</ele><time>2026-03-28T08:53:03Z</time></trkpt><trkpt lat="45.47650122779522" lon="11.051448900975902"><ele>211.0</ele><time>2026-03-28T08:53:04Z</time></trkpt><trkpt lat="45.476384216260115" lon="11.051421382146872"><ele>211.0</ele><time>2026-03-28T08:53:05Z</time></trkpt><trkpt lat="45.47626461869918" lon="11.05137339038629"><ele>211.0</ele><time>2026-03-28T08:53:06Z</time></trkpt><trkpt lat="45.47614399086704" lon="11.051352061806133"><ele>211.0</ele><time>2026-03-28T08:53:07Z</time></trkpt><trkpt lat="45.47602668271717" lon="11.051300489797521"><ele>209.99999999999997</ele><time>2026-03-28T08:53:08Z</time></trkpt><trkpt lat="45.47591942361334" lon="11.051233124622813"><ele>209.0</ele><time>2026-03-28T08:53:09Z</time></trkpt><trkpt lat="45.47584239155904" lon="11.051167757086622"><ele>208.0</ele><time>2026-03-28T08:53:10Z</time></trkpt><trkpt lat="45.47579043249865" lon="11.051096073943382"><ele>207.0</ele><time>2026-03-28T08:53:11Z</time></trkpt><trkpt lat="45.475744339474744" lon="11.05099567474074"><ele>205.99999999999997</ele><time>2026-03-28T08:53:13Z</time></trkpt><trkpt lat="45.47570549058081" lon="11.050915356898106"><ele>205.0</ele><time>2026-03-28T08:53:17Z</time></trkpt><trkpt lat="45.47566083104466" lon="11.050823025886777"><ele>202.5</ele><time>2026-03-28T08:53:19Z</time></trkpt><trkpt lat="45.4753898390897" lon="11.050969139979111"><ele>200.0</ele><time>2026-03-28T08:53:21Z</time></trkpt><trkpt lat="45.47531599503908" lon="11.050991640201088"><ele>197.5</ele><time>2026-03-28T08:53:22Z</time></trkpt><trkpt lat="45.47524436099411" lon="11.051010780707147"><ele>195.0</ele><time>2026-03-28T08:53:23Z</time></trkpt><trkpt lat="45.47510627618698" lon="11.051011105806166"><ele>195.0</ele><time>2026-03-28T08:53:25Z</time></trkpt><trkpt lat="45.47502451224227" lon="11.050998532327403"><ele>195.0</ele><time>2026-03-28T08:53:26Z</time></trkpt><trkpt lat="45.47493761540681" lon="11.051003144609561"><ele>195.0</ele><time>2026-03-28T08:53:27Z</time></trkpt><trkpt lat="45.474866073149855" lon="11.051020430239477"><ele>195.0</ele><time>2026-03-28T08:53:28Z</time></trkpt><trkpt lat="45.47479761162677" lon="11.051048488247776"><ele>195.0</ele><time>2026-03-28T08:53:29Z</time></trkpt><trkpt lat="45.474725180197396" lon="11.051095989539675"><ele>195.0</ele><time>2026-03-28T08:53:30Z</time></trkpt><trkpt lat="45.47465789541144" lon="11.051125221319262"><ele>193.6</ele><time>2026-03-28T08:53:31Z</time></trkpt><trkpt lat="45.474569722107" lon="11.051105622041094"><ele>192.2</ele><time>2026-03-28T08:53:33Z</time></trkpt><trkpt lat="45.47442499386202" lon="11.051084234055484"><ele>190.8</ele><time>2026-03-28T08:53:35Z</time></trkpt><trkpt lat="45.47435036158967" lon="11.051049487557568"><ele>189.4</ele><time>2026-03-28T08:53:36Z</time></trkpt><trkpt lat="45.47424141825899" lon="11.050977965012523"><ele>188.0</ele><time>2026-03-28T08:53:38Z</time></trkpt><trkpt lat="45.474179608890445" lon="11.05095222159386"><ele>188.0</ele><time>2026-03-28T08:53:39Z</time></trkpt><trkpt lat="45.474037740968896" lon="11.050941704315635"><ele>188.0</ele><time>2026-03-28T08:53:41Z</time></trkpt><trkpt lat="45.47391444798874" lon="11.0509384787704"><ele>188.0</ele><time>2026-03-28T08:53:43Z</time></trkpt><trkpt lat="45.47384524271739" lon="11.050928146087072"><ele>188.0</ele><time>2026-03-28T08:53:44Z</time></trkpt><trkpt lat="45.47378045749549" lon="11.050933611790759"><ele>188.0</ele><time>2026-03-28T08:53:45Z</time></trkpt><trkpt lat="45.473639991229504" lon="11.050933104708003"><ele>186.83333333333331</ele><time>2026-03-28T08:53:47Z</time></trkpt><trkpt lat="45.47357276731595" lon="11.050931827746897"><ele>185.66666666666666</ele><time>2026-03-28T08:53:48Z</time></trkpt><trkpt lat="45.473506565283216" lon="11.05092250689172"><ele>184.5</ele><time>2026-03-28T08:53:49Z</time></trkpt><trkpt lat="45.47342670322902" lon="11.050895712029158"><ele>183.33333333333334</ele><time>2026-03-28T08:53:50Z</time></trkpt><trkpt lat="45.47336293881336" lon="11.050879516749202"><ele>182.16666666666669</ele><time>2026-03-28T08:53:51Z</time></trkpt><trkpt lat="45.473234740454814" lon="11.050911824745384"><ele>181.0</ele><time>2026-03-28T08:53:53Z</time></trkpt><trkpt lat="45.47315053716307" lon="11.050918963849869"><ele>181.0</ele><time>2026-03-28T08:53:54Z</time></trkpt><trkpt lat="45.47308236069071" lon="11.050913333866129"><ele>181.0</ele><time>2026-03-28T08:53:55Z</time></trkpt><trkpt lat="45.473011667502064" lon="11.050907087315304"><ele>181.0</ele><time>2026-03-28T08:53:56Z</time></trkpt><trkpt lat="45.47294171856798" lon="11.050893159341468"><ele>181.0</ele><time>2026-03-28T08:53:57Z</time></trkpt><trkpt lat="45.47280646431354" lon="11.050899896394633"><ele>181.0</ele><time>2026-03-28T08:53:59Z</time></trkpt><trkpt lat="45.472675775678454" lon="11.050875914278816"><ele>179.16666666666669</ele><time>2026-03-28T08:54:01Z</time></trkpt><trkpt lat="45.47259099852834" lon="11.050850357289232"><ele>177.33333333333334</ele><time>2026-03-28T08:54:02Z</time></trkpt><trkpt lat="45.47245990432446" lon="11.050839516612726"><ele>175.5</ele><time>2026-03-28T08:54:04Z</time></trkpt><trkpt lat="45.47238339470987" lon="11.0508592635136"><ele>173.66666666666666</ele><time>2026-03-28T08:54:05Z</time></trkpt><trkpt lat="45.47230563119579" lon="11.050909378172644"><ele>171.83333333333331</ele><time>2026-03-28T08:54:06Z</time></trkpt><trkpt lat="45.47224196731356" lon="11.050942391035402"><ele>170.0</ele><time>2026-03-28T08:54:07Z</time></trkpt><trkpt lat="45.47212357672533" lon="11.050935540932866"><ele>168.4</ele><time>2026-03-28T08:54:09.001Z</time></trkpt><trkpt lat="45.472051113440074" lon="11.05092441703751"><ele>166.8</ele><time>2026-03-28T08:54:10.001Z</time></trkpt><trkpt lat="45.47193820444312" lon="11.050956093516433"><ele>165.2</ele><time>2026-03-28T08:54:12.001Z</time></trkpt><trkpt lat="45.47184135308415" lon="11.050950146573813"><ele>163.6</ele><time>2026-03-28T08:54:14.001Z</time></trkpt><trkpt lat="45.471734086227826" lon="11.050984911244322"><ele>162.0</ele><time>2026-03-28T08:54:16.001Z</time></trkpt><trkpt lat="45.471657115262026" lon="11.050999821568379"><ele>162.0</ele><time>2026-03-28T08:54:17.001Z</time></trkpt><trkpt lat="45.47155804904567" lon="11.05097511861328"><ele>162.0</ele><time>2026-03-28T08:54:19.001Z</time></trkpt><trkpt lat="45.471487557648246" lon="11.050971095423055"><ele>162.0</ele><time>2026-03-28T08:54:20.001Z</time></trkpt><trkpt lat="45.47140183569242" lon="11.05096985706073"><ele>162.0</ele><time>2026-03-28T08:54:21.001Z</time></trkpt><trkpt lat="45.47131177584888" lon="11.050992699145722"><ele>162.0</ele><time>2026-03-28T08:54:22.001Z</time></trkpt><trkpt lat="45.47124904610686" lon="11.051006578622143"><ele>162.0</ele><time>2026-03-28T08:54:23.001Z</time></trkpt><trkpt lat="45.4711766941766" lon="11.050999120376298"><ele>161.5</ele><time>2026-03-28T08:54:24.001Z</time></trkpt><trkpt lat="45.471103200414525" lon="11.050962505159177"><ele>161.0</ele><time>2026-03-28T08:54:25.001Z</time></trkpt><trkpt lat="45.47102050172217" lon="11.050920642653502"><ele>160.5</ele><time>2026-03-28T08:54:26.001Z</time></trkpt><trkpt lat="45.470958540727466" lon="11.050874898184915"><ele>160.0</ele><time>2026-03-28T08:54:27.001Z</time></trkpt><trkpt lat="45.47088962462666" lon="11.050853590388702"><ele>159.5</ele><time>2026-03-28T08:54:28.001Z</time></trkpt><trkpt lat="45.47080739076868" lon="11.050843405817755"><ele>159.0</ele><time>2026-03-28T08:54:29.001Z</time></trkpt><trkpt lat="45.47074172171197" lon="11.050837827362837"><ele>159.0</ele><time>2026-03-28T08:54:30.001Z</time></trkpt><trkpt lat="45.47066966906494" lon="11.050827757482605"><ele>159.0</ele><time>2026-03-28T08:54:31.001Z</time></trkpt><trkpt lat="45.47059392542653" lon="11.05080026518594"><ele>159.0</ele><time>2026-03-28T08:54:32.001Z</time></trkpt><trkpt lat="45.47051989669654" lon="11.050774533911252"><ele>159.0</ele><time>2026-03-28T08:54:33.001Z</time></trkpt><trkpt lat="45.47045767577473" lon="11.050754247810765"><ele>159.0</ele><time>2026-03-28T08:54:34.001Z</time></trkpt><trkpt lat="45.47038653706946" lon="11.050727262156318"><ele>159.0</ele><time>2026-03-28T08:54:36.001Z</time></trkpt><trkpt lat="45.47029149432479" lon="11.050676172474244"><ele>155.83333333333334</ele><time>2026-03-28T08:54:38.001Z</time></trkpt><trkpt lat="45.47019547895121" lon="11.050629544923668"><ele>152.66666666666666</ele><time>2026-03-28T08:54:40.001Z</time></trkpt><trkpt lat="45.4701148595123" lon="11.050667583305906"><ele>149.5</ele><time>2026-03-28T08:54:42.001Z</time></trkpt><trkpt lat="45.47005003707223" lon="11.050697739152314"><ele>146.33333333333331</ele><time>2026-03-28T08:54:43.001Z</time></trkpt><trkpt lat="45.46998327184603" lon="11.050709829672071"><ele>143.16666666666666</ele><time>2026-03-28T08:54:44.001Z</time></trkpt><trkpt lat="45.46991427560852" lon="11.050739737102239"><ele>140.0</ele><time>2026-03-28T08:54:45.001Z</time></trkpt><trkpt lat="45.46985113484167" lon="11.050782030109328"><ele>140.33333333333331</ele><time>2026-03-28T08:54:46.001Z</time></trkpt><trkpt lat="45.46979053779895" lon="11.05083280633359"><ele>140.66666666666666</ele><time>2026-03-28T08:54:47.001Z</time></trkpt><trkpt lat="45.46973061345907" lon="11.050902733751963"><ele>141.0</ele><time>2026-03-28T08:54:48.001Z</time></trkpt><trkpt lat="45.46966946552387" lon="11.05094634213284"><ele>141.33333333333334</ele><time>2026-03-28T08:54:49.001Z</time></trkpt><trkpt lat="45.46955792670126" lon="11.051015261396998"><ele>141.66666666666669</ele><time>2026-03-28T08:54:51.001Z</time></trkpt><trkpt lat="45.469479887042446" lon="11.0510555992888"><ele>142.0</ele><time>2026-03-28T08:54:52.001Z</time></trkpt><trkpt lat="45.46941114985938" lon="11.05109250625035"><ele>142.0</ele><time>2026-03-28T08:54:53.001Z</time></trkpt><trkpt lat="45.46934418084429" lon="11.051122307484382"><ele>142.0</ele><time>2026-03-28T08:54:55.001Z</time></trkpt><trkpt lat="45.469284625075765" lon="11.051185049118796"><ele>142.0</ele><time>2026-03-28T08:54:56.001Z</time></trkpt><trkpt lat="45.469219896848294" lon="11.051235037898154"><ele>142.0</ele><time>2026-03-28T08:54:57.001Z</time></trkpt><trkpt lat="45.46913033623856" lon="11.051257723288446"><ele>142.0</ele><time>2026-03-28T08:54:59.001Z</time></trkpt><trkpt lat="45.46907021664649" lon="11.051289400751903"><ele>142.0</ele><time>2026-03-28T08:56:34.001Z</time></trkpt><trkpt lat="45.4689733577972" lon="11.051387313164517"><ele>142.0</ele><time>2026-03-28T08:56:36.001Z</time></trkpt><trkpt lat="45.46888496943099" lon="11.051443548932758"><ele>142.0</ele><time>2026-03-28T08:56:38.001Z</time></trkpt><trkpt lat="45.46878697080544" lon="11.051508057097466"><ele>142.0</ele><time>2026-03-28T08:56:40.001Z</time></trkpt><trkpt lat="45.46873839236668" lon="11.051629696648833"><ele>142.0</ele><time>2026-03-28T08:56:42.001Z</time></trkpt><trkpt lat="45.46869915825416" lon="11.051757994167959"><ele>142.0</ele><time>2026-03-28T08:56:44.001Z</time></trkpt><trkpt lat="45.46864928242344" lon="11.051931064074209"><ele>142.0</ele><time>2026-03-28T08:56:46.001Z</time></trkpt><trkpt lat="45.46862251551824" lon="11.052013881701725"><ele>142.0</ele><time>2026-03-28T08:56:47.001Z</time></trkpt><trkpt lat="45.46854723148173" lon="11.052121933710767"><ele>142.0</ele><time>2026-03-28T08:56:49.001Z</time></trkpt><trkpt lat="45.46848428638353" lon="11.05221189605032"><ele>142.0</ele><time>2026-03-28T08:56:51.001Z</time></trkpt><trkpt lat="45.46843886638311" lon="11.052362876186333"><ele>142.0</ele><time>2026-03-28T08:56:53.001Z</time></trkpt><trkpt lat="45.46839977718464" lon="11.052480358691163"><ele>139.79999999999998</ele><time>2026-03-28T08:56:55.001Z</time></trkpt><trkpt lat="45.468346722024215" lon="11.05260716363013"><ele>137.6</ele><time>2026-03-28T08:56:57.001Z</time></trkpt><trkpt lat="45.46828833214898" lon="11.052720000884245"><ele>135.39999999999998</ele><time>2026-03-28T08:56:59.001Z</time></trkpt><trkpt lat="45.46825911789865" lon="11.052836090330334"><ele>133.2</ele><time>2026-03-28T08:57:01.001Z</time></trkpt><trkpt lat="45.46820876032773" lon="11.052960372130006"><ele>131.0</ele><time>2026-03-28T08:57:04.001Z</time></trkpt><trkpt lat="45.4681568747709" lon="11.053089625545429"><ele>131.0</ele><time>2026-03-28T08:57:06.001Z</time></trkpt><trkpt lat="45.46812673621565" lon="11.053201019120381"><ele>131.0</ele><time>2026-03-28T08:57:08.001Z</time></trkpt><trkpt lat="45.468064083915344" lon="11.053217520266847"><ele>131.0</ele><time>2026-03-28T08:57:11.001Z</time></trkpt><trkpt lat="45.46798668662921" lon="11.05325310446703"><ele>131.0</ele><time>2026-03-28T08:57:13.001Z</time></trkpt><trkpt lat="45.467876429551424" lon="11.053295050337697"><ele>131.0</ele><time>2026-03-28T08:57:15.001Z</time></trkpt><trkpt lat="45.467776688892464" lon="11.053310928604782"><ele>131.0</ele><time>2026-03-28T08:57:17.001Z</time></trkpt><trkpt lat="45.467684116698095" lon="11.05327396121598"><ele>126.49999999999999</ele><time>2026-03-28T08:57:19.001Z</time></trkpt><trkpt lat="45.467606283918386" lon="11.05331754298618"><ele>122.0</ele><time>2026-03-28T08:57:20.001Z</time></trkpt><trkpt lat="45.46748942827086" lon="11.053325590552403"><ele>117.5</ele><time>2026-03-28T08:57:22.001Z</time></trkpt><trkpt lat="45.46741205327058" lon="11.053334534851576"><ele>113.0</ele><time>2026-03-28T08:57:23.001Z</time></trkpt><trkpt lat="45.46734633412545" lon="11.053344399344535"><ele>108.49999999999999</ele><time>2026-03-28T08:57:24.001Z</time></trkpt><trkpt lat="45.467257854172274" lon="11.053347870082444"><ele>104.0</ele><time>2026-03-28T08:57:25.001Z</time></trkpt><trkpt lat="45.46719071877133" lon="11.053357684073431"><ele>103.33333333333333</ele><time>2026-03-28T08:57:26.001Z</time></trkpt><trkpt lat="45.46710752122053" lon="11.053360008407067"><ele>102.66666666666666</ele><time>2026-03-28T08:57:27.001Z</time></trkpt><trkpt lat="45.4670233050556" lon="11.053383195559764"><ele>102.0</ele><time>2026-03-28T08:57:28.001Z</time></trkpt><trkpt lat="45.46694723327132" lon="11.053399256705536"><ele>101.33333333333334</ele><time>2026-03-28T08:57:29.001Z</time></trkpt><trkpt lat="45.466866063883955" lon="11.053411221411787"><ele>100.66666666666667</ele><time>2026-03-28T08:57:30.001Z</time></trkpt><trkpt lat="45.46678483308583" lon="11.053443298675642"><ele>100.0</ele><time>2026-03-28T08:57:31.001Z</time></trkpt><trkpt lat="45.46670252984987" lon="11.053487072989183"><ele>100.00000000000001</ele><time>2026-03-28T08:57:32.001Z</time></trkpt><trkpt lat="45.46661711962778" lon="11.05351090797941"><ele>100.0</ele><time>2026-03-28T08:57:33.001Z</time></trkpt><trkpt lat="45.46654030550714" lon="11.053534848131495"><ele>100.0</ele><time>2026-03-28T08:57:34.001Z</time></trkpt><trkpt lat="45.466467382901875" lon="11.053560994583624"><ele>100.0</ele><time>2026-03-28T08:57:35.001Z</time></trkpt><trkpt lat="45.466409380094206" lon="11.053611736616451"><ele>100.00000000000001</ele><time>2026-03-28T08:57:36.001Z</time></trkpt><trkpt lat="45.466349087541396" lon="11.05366297400745"><ele>100.0</ele><time>2026-03-28T08:57:37.001Z</time></trkpt><trkpt lat="45.466230216937674" lon="11.05373787432811"><ele>99.50000000000001</ele><time>2026-03-28T08:57:39.001Z</time></trkpt><trkpt lat="45.46614244905069" lon="11.05379860463924"><ele>99.0</ele><time>2026-03-28T08:57:41.001Z</time></trkpt><trkpt lat="45.466061107256" lon="11.053921858042724"><ele>98.5</ele><time>2026-03-28T08:57:43.001Z</time></trkpt><trkpt lat="45.46598882883268" lon="11.053978471974416"><ele>98.0</ele><time>2026-03-28T08:57:44.001Z</time></trkpt><trkpt lat="45.465927481374024" lon="11.054032917946445"><ele>97.50000000000001</ele><time>2026-03-28T08:57:45.001Z</time></trkpt><trkpt lat="45.46586296151674" lon="11.054069900595453"><ele>97.0</ele><time>2026-03-28T08:57:46.001Z</time></trkpt><trkpt lat="45.465769742964056" lon="11.054111116925451"><ele>93.0</ele><time>2026-03-28T08:57:48.001Z</time></trkpt><trkpt lat="45.46569088813448" lon="11.054133829859836"><ele>89.0</ele><time>2026-03-28T08:57:49.001Z</time></trkpt><trkpt lat="45.46555899695404" lon="11.054178846565128"><ele>85.0</ele><time>2026-03-28T08:57:51.001Z</time></trkpt><trkpt lat="45.46548743675819" lon="11.054187294335994"><ele>81.0</ele><time>2026-03-28T08:57:53.001Z</time></trkpt><trkpt lat="45.46557958409327" lon="11.054169199651971"><ele>77.0</ele><time>2026-03-28T08:58:34.001Z</time></trkpt><trkpt lat="45.46580606284987" lon="11.054215046830135"><ele>77.0</ele><time>2026-03-28T08:58:36.001Z</time></trkpt><trkpt lat="45.46587406039004" lon="11.054215956330541"><ele>77.0</ele><time>2026-03-28T08:58:37.001Z</time></trkpt><trkpt lat="45.46596169238565" lon="11.054222255681337"><ele>77.0</ele><time>2026-03-28T08:58:39.001Z</time></trkpt><trkpt lat="45.4660331153567" lon="11.054203840348258"><ele>77.0</ele><time>2026-03-28T08:58:41.001Z</time></trkpt><trkpt lat="45.466252827768244" lon="11.054201058932478"><ele>77.0</ele><time>2026-03-28T08:58:45.001Z</time></trkpt><trkpt lat="45.46631880313249" lon="11.054180144026066"><ele>76.75</ele><time>2026-03-28T08:58:46.001Z</time></trkpt><trkpt lat="45.46640462828831" lon="11.054159558287191"><ele>76.5</ele><time>2026-03-28T08:58:47.001Z</time></trkpt><trkpt lat="45.466472692015806" lon="11.054131809786888"><ele>76.25</ele><time>2026-03-28T08:58:48.001Z</time></trkpt><trkpt lat="45.46656044768198" lon="11.054089703055052"><ele>76.0</ele><time>2026-03-28T08:58:49.001Z</time></trkpt><trkpt lat="45.466671047702775" lon="11.053484923202937"><ele>80.8</ele><time>2026-03-28T08:58:50.001Z</time></trkpt><trkpt lat="45.46677059487674" lon="11.053448969776277"><ele>85.6</ele><time>2026-03-28T08:58:51.001Z</time></trkpt><trkpt lat="45.46688170518557" lon="11.053415276045408"><ele>90.4</ele><time>2026-03-28T08:58:52.001Z</time></trkpt><trkpt lat="45.46697783973421" lon="11.053373325956324"><ele>95.2</ele><time>2026-03-28T08:58:53.001Z</time></trkpt><trkpt lat="45.46707187598313" lon="11.053369943293273"><ele>100.0</ele><time>2026-03-28T08:58:54.001Z</time></trkpt><trkpt lat="45.4671664566909" lon="11.053383336229187"><ele>100.8</ele><time>2026-03-28T08:58:55.001Z</time></trkpt><trkpt lat="45.46725858351895" lon="11.053396915568316"><ele>101.6</ele><time>2026-03-28T08:58:56.001Z</time></trkpt><trkpt lat="45.46734887236671" lon="11.053384306101016"><ele>102.4</ele><time>2026-03-28T08:58:57.001Z</time></trkpt><trkpt lat="45.46741237201227" lon="11.053445876825135"><ele>103.2</ele><time>2026-03-28T08:58:58.001Z</time></trkpt><trkpt lat="45.46751674456142" lon="11.053388818102528"><ele>104.0</ele><time>2026-03-28T08:59:00.001Z</time></trkpt><trkpt lat="45.46759660064952" lon="11.053403416272179"><ele>104.0</ele><time>2026-03-28T08:59:01.001Z</time></trkpt><trkpt lat="45.467716706885234" lon="11.053386894565795"><ele>104.0</ele><time>2026-03-28T08:59:03.001Z</time></trkpt><trkpt lat="45.46779509931975" lon="11.053341447941307"><ele>104.0</ele><time>2026-03-28T08:59:04.001Z</time></trkpt><trkpt lat="45.46786428205817" lon="11.053327436531243"><ele>104.0</ele><time>2026-03-28T08:59:05.001Z</time></trkpt><trkpt lat="45.467956878811314" lon="11.053284622408599"><ele>104.0</ele><time>2026-03-28T08:59:07.001Z</time></trkpt><trkpt lat="45.46808112751564" lon="11.053254068925966"><ele>108.49999999999999</ele><time>2026-03-28T08:59:09.001Z</time></trkpt><trkpt lat="45.4681406003658" lon="11.05318886556273"><ele>113.0</ele><time>2026-03-28T08:59:12.001Z</time></trkpt><trkpt lat="45.46816101236485" lon="11.053095656055536"><ele>117.5</ele><time>2026-03-28T08:59:13.001Z</time></trkpt><trkpt lat="45.4682064170643" lon="11.052952669131056"><ele>122.0</ele><time>2026-03-28T08:59:15.001Z</time></trkpt><trkpt lat="45.46825882096736" lon="11.052811662633966"><ele>126.49999999999999</ele><time>2026-03-28T08:59:17.001Z</time></trkpt><trkpt lat="45.46828844279969" lon="11.052715171799608"><ele>131.0</ele><time>2026-03-28T08:59:19.001Z</time></trkpt><trkpt lat="45.468351015469274" lon="11.052558323347553"><ele>131.0</ele><time>2026-03-28T08:59:21.001Z</time></trkpt><trkpt lat="45.4683844392413" lon="11.052472177447973"><ele>131.0</ele><time>2026-03-28T08:59:22.001Z</time></trkpt><trkpt lat="45.46844486612413" lon="11.052313306641848"><ele>131.0</ele><time>2026-03-28T08:59:24.001Z</time></trkpt><trkpt lat="45.46847767594482" lon="11.052220941274236"><ele>131.0</ele><time>2026-03-28T08:59:25.001Z</time></trkpt><trkpt lat="45.46851708348277" lon="11.05212079763898"><ele>131.0</ele><time>2026-03-28T08:59:26.001Z</time></trkpt><trkpt lat="45.46860560318698" lon="11.05199538116572"><ele>132.33333333333331</ele><time>2026-03-28T08:59:28.001Z</time></trkpt><trkpt lat="45.4686450790775" lon="11.05191181908654"><ele>133.66666666666666</ele><time>2026-03-28T08:59:29.001Z</time></trkpt><trkpt lat="45.46867639355193" lon="11.051826548257365"><ele>135.0</ele><time>2026-03-28T08:59:30.001Z</time></trkpt><trkpt lat="45.46871732722298" lon="11.051712927487086"><ele>136.33333333333334</ele><time>2026-03-28T08:59:31.001Z</time></trkpt><trkpt lat="45.46875192822502" lon="11.051615821340464"><ele>137.66666666666669</ele><time>2026-03-28T08:59:32.001Z</time></trkpt><trkpt lat="45.468784502155586" lon="11.051524282565865"><ele>139.0</ele><time>2026-03-28T08:59:33.001Z</time></trkpt><trkpt lat="45.46886307568778" lon="11.05141578545112"><ele>139.6</ele><time>2026-03-28T08:59:35.001Z</time></trkpt><trkpt lat="45.468995879505634" lon="11.051363147992113"><ele>140.2</ele><time>2026-03-28T08:59:37.001Z</time></trkpt><trkpt lat="45.469057807826296" lon="11.051331840957376"><ele>140.79999999999998</ele><time>2026-03-28T08:59:38.001Z</time></trkpt><trkpt lat="45.469168069710136" lon="11.051268155921266"><ele>141.4</ele><time>2026-03-28T08:59:40.001Z</time></trkpt><trkpt lat="45.46923155518601" lon="11.051211386486697"><ele>142.0</ele><time>2026-03-28T08:59:41.001Z</time></trkpt><trkpt lat="45.46929544489048" lon="11.051150318674624"><ele>142.0</ele><time>2026-03-28T08:59:42.001Z</time></trkpt><trkpt lat="45.46937676460324" lon="11.051022335449519"><ele>142.0</ele><time>2026-03-28T08:59:44.001Z</time></trkpt><trkpt lat="45.469418578820665" lon="11.050857428031126"><ele>142.0</ele><time>2026-03-28T08:59:46.001Z</time></trkpt><trkpt lat="45.469481803112394" lon="11.050726699363727"><ele>142.0</ele><time>2026-03-28T08:59:48.001Z</time></trkpt><trkpt lat="45.46955217174899" lon="11.05059006737314"><ele>141.6</ele><time>2026-03-28T08:59:50.001Z</time></trkpt><trkpt lat="45.46964840693972" lon="11.0504588364388"><ele>141.2</ele><time>2026-03-28T08:59:52.001Z</time></trkpt><trkpt lat="45.46970992207816" lon="11.050382945208563"><ele>140.8</ele><time>2026-03-28T08:59:53.001Z</time></trkpt><trkpt lat="45.46977292784429" lon="11.050292766405915"><ele>140.4</ele><time>2026-03-28T08:59:54.001Z</time></trkpt><trkpt lat="45.469819056197686" lon="11.050228645331046"><ele>140.0</ele><time>2026-03-28T08:59:55.001Z</time></trkpt><trkpt lat="45.469870395072185" lon="11.050136309270886"><ele>140.0</ele><time>2026-03-28T08:59:56.001Z</time></trkpt><trkpt lat="45.469929279419716" lon="11.050070910586028"><ele>140.0</ele><time>2026-03-28T08:59:57.001Z</time></trkpt><trkpt lat="45.46998844220556" lon="11.050013190715987"><ele>140.0</ele><time>2026-03-28T08:59:58.001Z</time></trkpt><trkpt lat="45.470057977609805" lon="11.049955005000257"><ele>140.0</ele><time>2026-03-28T08:59:59.001Z</time></trkpt><trkpt lat="45.47011874038612" lon="11.049890992115442"><ele>140.0</ele><time>2026-03-28T09:00:00.001Z</time></trkpt><trkpt lat="45.470182410043414" lon="11.04982548700435"><ele>140.0</ele><time>2026-03-28T09:00:01.001Z</time></trkpt><trkpt lat="45.47025005777459" lon="11.049731760995213"><ele>138.4</ele><time>2026-03-28T09:00:02.001Z</time></trkpt><trkpt lat="45.47030614767574" lon="11.049678324923436"><ele>136.8</ele><time>2026-03-28T09:00:03.001Z</time></trkpt><trkpt lat="45.470388794838364" lon="11.049589975159549"><ele>135.2</ele><time>2026-03-28T09:00:05.001Z</time></trkpt><trkpt lat="45.47044267742781" lon="11.04948013930118"><ele>133.6</ele><time>2026-03-28T09:00:08.001Z</time></trkpt><trkpt lat="45.470529516465" lon="11.04936655194065"><ele>132.0</ele><time>2026-03-28T09:00:10.001Z</time></trkpt><trkpt lat="45.47062979281096" lon="11.049317079372225"><ele>132.0</ele><time>2026-03-28T09:00:12.001Z</time></trkpt><trkpt lat="45.47073506406517" lon="11.049242685202968"><ele>132.0</ele><time>2026-03-28T09:00:14.001Z</time></trkpt><trkpt lat="45.470798886236935" lon="11.049241344621935"><ele>132.0</ele><time>2026-03-28T09:00:15.001Z</time></trkpt><trkpt lat="45.47090504963768" lon="11.049264287800765"><ele>132.0</ele><time>2026-03-28T09:00:17.001Z</time></trkpt><trkpt lat="45.470989423285154" lon="11.04927074865468"><ele>132.0</ele><time>2026-03-28T09:00:18.001Z</time></trkpt><trkpt lat="45.47109151311281" lon="11.049334900867"><ele>132.0</ele><time>2026-03-28T09:00:20.001Z</time></trkpt><trkpt lat="45.47120852749194" lon="11.049353331118699"><ele>132.0</ele><time>2026-03-28T09:00:22.001Z</time></trkpt><trkpt lat="45.4712671226053" lon="11.049253182503964"><ele>132.0</ele><time>2026-03-28T09:00:24.001Z</time></trkpt><trkpt lat="45.4713368320955" lon="11.049110306424433"><ele>132.0</ele><time>2026-03-28T09:00:26.001Z</time></trkpt><trkpt lat="45.4713760164048" lon="11.048924724826843"><ele>131.79999999999998</ele><time>2026-03-28T09:00:28.001Z</time></trkpt><trkpt lat="45.47136859082867" lon="11.048816030484321"><ele>131.6</ele><time>2026-03-28T09:00:29.001Z</time></trkpt><trkpt lat="45.471344464446226" lon="11.04859479877308"><ele>131.39999999999998</ele><time>2026-03-28T09:00:31.001Z</time></trkpt><trkpt lat="45.47133969335396" lon="11.048468080720847"><ele>131.2</ele><time>2026-03-28T09:00:32.001Z</time></trkpt><trkpt lat="45.47136026410777" lon="11.04836884165015"><ele>131.0</ele><time>2026-03-28T09:00:33.001Z</time></trkpt><trkpt lat="45.47136459734774" lon="11.048274472479777"><ele>131.0</ele><time>2026-03-28T09:00:34.001Z</time></trkpt><trkpt lat="45.47138195597388" lon="11.048053039395318"><ele>131.0</ele><time>2026-03-28T09:00:36.001Z</time></trkpt><trkpt lat="45.47142169513528" lon="11.047949872797249"><ele>131.0</ele><time>2026-03-28T09:00:37.001Z</time></trkpt><trkpt lat="45.47145314320647" lon="11.047857826950247"><ele>131.0</ele><time>2026-03-28T09:00:38.001Z</time></trkpt><trkpt lat="45.4714908418436" lon="11.047737070752811"><ele>131.0</ele><time>2026-03-28T09:00:39.001Z</time></trkpt><trkpt lat="45.47153885258591" lon="11.047631262410505"><ele>131.0</ele><time>2026-03-28T09:00:40.001Z</time></trkpt><trkpt lat="45.47157252164679" lon="11.047547081279955"><ele>131.0</ele><time>2026-03-28T09:00:41.001Z</time></trkpt><trkpt lat="45.471626711565605" lon="11.047479388164724"><ele>131.0</ele><time>2026-03-28T09:00:42.001Z</time></trkpt><trkpt lat="45.471688567015924" lon="11.047363570328752"><ele>131.0</ele><time>2026-03-28T09:00:43.001Z</time></trkpt><trkpt lat="45.47175595867149" lon="11.047282923709048"><ele>131.0</ele><time>2026-03-28T09:00:44.001Z</time></trkpt><trkpt lat="45.47181794989676" lon="11.047184458890957"><ele>131.0</ele><time>2026-03-28T09:00:45.001Z</time></trkpt><trkpt lat="45.47187279940662" lon="11.04707587996578"><ele>131.5</ele><time>2026-03-28T09:00:46.001Z</time></trkpt><trkpt lat="45.471916335644984" lon="11.047002374239721"><ele>132.0</ele><time>2026-03-28T09:00:47.001Z</time></trkpt><trkpt lat="45.47201323771651" lon="11.046935692146738"><ele>132.5</ele><time>2026-03-28T09:00:48.001Z</time></trkpt><trkpt lat="45.47208374504313" lon="11.046894111962487"><ele>133.0</ele><time>2026-03-28T09:00:49.001Z</time></trkpt><trkpt lat="45.472141130810655" lon="11.046842849565914"><ele>133.5</ele><time>2026-03-28T09:00:50.001Z</time></trkpt><trkpt lat="45.472159826590065" lon="11.046698080876801"><ele>134.0</ele><time>2026-03-28T09:00:51.001Z</time></trkpt><trkpt lat="45.47222767141746" lon="11.046572220283016"><ele>131.16666666666666</ele><time>2026-03-28T09:00:52.001Z</time></trkpt><trkpt lat="45.47227663438091" lon="11.046488204624929"><ele>128.33333333333331</ele><time>2026-03-28T09:00:53.001Z</time></trkpt><trkpt lat="45.47234575253873" lon="11.046432795058816"><ele>125.5</ele><time>2026-03-28T09:00:54.001Z</time></trkpt><trkpt lat="45.4724302087412" lon="11.046373102973341"><ele>122.66666666666666</ele><time>2026-03-28T09:00:55.001Z</time></trkpt><trkpt lat="45.47250730146484" lon="11.046332721678791"><ele>119.83333333333333</ele><time>2026-03-28T09:00:56.001Z</time></trkpt><trkpt lat="45.47260135957355" lon="11.046325551001505"><ele>117.0</ele><time>2026-03-28T09:00:57.001Z</time></trkpt><trkpt lat="45.47269644450803" lon="11.046326622948015"><ele>117.0</ele><time>2026-03-28T09:00:58.001Z</time></trkpt><trkpt lat="45.472790973329445" lon="11.046346355133918"><ele>116.99999999999999</ele><time>2026-03-28T09:00:59.001Z</time></trkpt><trkpt lat="45.47288459540637" lon="11.046383911305908"><ele>116.99999999999999</ele><time>2026-03-28T09:01:00.001Z</time></trkpt><trkpt lat="45.47296150613253" lon="11.046434896763941"><ele>117.0</ele><time>2026-03-28T09:01:01.001Z</time></trkpt><trkpt lat="45.47306496179149" lon="11.04652454886819"><ele>117.0</ele><time>2026-03-28T09:01:03.001Z</time></trkpt><trkpt lat="45.4731875445767" lon="11.046498201890817"><ele>117.6</ele><time>2026-03-28T09:01:05.001Z</time></trkpt><trkpt lat="45.47325379306889" lon="11.046456892195323"><ele>118.19999999999999</ele><time>2026-03-28T09:01:06.001Z</time></trkpt><trkpt lat="45.47332268611226" lon="11.046429732837888"><ele>118.8</ele><time>2026-03-28T09:01:07.001Z</time></trkpt><trkpt lat="45.47341266933694" lon="11.04642015455825"><ele>119.4</ele><time>2026-03-28T09:01:08.001Z</time></trkpt><trkpt lat="45.47352374139931" lon="11.046340409201578"><ele>120.0</ele><time>2026-03-28T09:01:10.001Z</time></trkpt><trkpt lat="45.473616854538115" lon="11.046296585977462"><ele>120.0</ele><time>2026-03-28T09:01:11.001Z</time></trkpt><trkpt lat="45.47369682073546" lon="11.046246244601312"><ele>120.0</ele><time>2026-03-28T09:01:12.001Z</time></trkpt><trkpt lat="45.47376468856113" lon="11.046227261207443"><ele>120.0</ele><time>2026-03-28T09:01:13.001Z</time></trkpt><trkpt lat="45.4738366641282" lon="11.04624033728581"><ele>120.0</ele><time>2026-03-28T09:01:14.001Z</time></trkpt><trkpt lat="45.47393617634931" lon="11.046249638939399"><ele>120.0</ele><time>2026-03-28T09:01:15.001Z</time></trkpt><trkpt lat="45.47403255228495" lon="11.046262276235643"><ele>120.0</ele><time>2026-03-28T09:01:16.001Z</time></trkpt><trkpt lat="45.474134475105636" lon="11.04628579556324"><ele>119.2</ele><time>2026-03-28T09:01:17.001Z</time></trkpt><trkpt lat="45.4742318304011" lon="11.046304472412011"><ele>118.4</ele><time>2026-03-28T09:01:18.001Z</time></trkpt><trkpt lat="45.474325489394005" lon="11.046326340563324"><ele>117.6</ele><time>2026-03-28T09:01:19.001Z</time></trkpt><trkpt lat="45.47441344463337" lon="11.046351975309596"><ele>116.8</ele><time>2026-03-28T09:01:20.001Z</time></trkpt><trkpt lat="45.47450994712216" lon="11.0463810628313"><ele>116.0</ele><time>2026-03-28T09:01:21Z</time></trkpt><trkpt lat="45.47461771499367" lon="11.046412493916804"><ele>115.99999999999999</ele><time>2026-03-28T09:01:22Z</time></trkpt><trkpt lat="45.47469175425676" lon="11.046414412767954"><ele>116.0</ele><time>2026-03-28T09:01:23Z</time></trkpt><trkpt lat="45.47477970806561" lon="11.046422960730732"><ele>116.0</ele><time>2026-03-28T09:01:24Z</time></trkpt><trkpt lat="45.47486879516426" lon="11.046439442658956"><ele>116.0</ele><time>2026-03-28T09:01:25Z</time></trkpt><trkpt lat="45.47494450780701" lon="11.046445694852956"><ele>115.99999999999999</ele><time>2026-03-28T09:01:26Z</time></trkpt><trkpt lat="45.47501119631046" lon="11.0464365490504"><ele>116.0</ele><time>2026-03-28T09:01:27Z</time></trkpt><trkpt lat="45.47509120546261" lon="11.046443348857077"><ele>115.99999999999999</ele><time>2026-03-28T09:01:28Z</time></trkpt><trkpt lat="45.475186236577656" lon="11.046325770142072"><ele>116.0</ele><time>2026-03-28T09:01:30Z</time></trkpt><trkpt lat="45.4752069203206" lon="11.046219720357804"><ele>116.0</ele><time>2026-03-28T09:01:45Z</time></trkpt><trkpt lat="45.47522366687712" lon="11.046098264391452"><ele>116.0</ele><time>2026-03-28T09:01:48Z</time></trkpt><trkpt lat="45.47524015105909" lon="11.046007112048335"><ele>115.99999999999999</ele><time>2026-03-28T09:01:50Z</time></trkpt><trkpt lat="45.47523543402294" lon="11.045890849954173"><ele>116.0</ele><time>2026-03-28T09:01:52Z</time></trkpt><trkpt lat="45.475198922033925" lon="11.04575541044042"><ele>116.71428571428572</ele><time>2026-03-28T09:01:54Z</time></trkpt><trkpt lat="45.4751563751174" lon="11.04568019247242"><ele>117.42857142857143</ele><time>2026-03-28T09:01:55Z</time></trkpt><trkpt lat="45.47510754725547" lon="11.04561547308758"><ele>118.14285714285714</ele><time>2026-03-28T09:01:56Z</time></trkpt><trkpt lat="45.475054925168" lon="11.045528767107944"><ele>118.85714285714286</ele><time>2026-03-28T09:01:57Z</time></trkpt><trkpt lat="45.475004830696825" lon="11.045453814832065"><ele>119.57142857142856</ele><time>2026-03-28T09:01:58Z</time></trkpt><trkpt lat="45.4749601152311" lon="11.045379521389211"><ele>120.28571428571428</ele><time>2026-03-28T09:01:59Z</time></trkpt><trkpt lat="45.47491528186126" lon="11.045296478553905"><ele>121.0</ele><time>2026-03-28T09:02:00Z</time></trkpt><trkpt lat="45.47486773058127" lon="11.045210770334325"><ele>121.00000000000001</ele><time>2026-03-28T09:02:01Z</time></trkpt><trkpt lat="45.47482504231966" lon="11.045127635604322"><ele>121.0</ele><time>2026-03-28T09:02:02Z</time></trkpt><trkpt lat="45.474788207073274" lon="11.045043079023563"><ele>121.0</ele><time>2026-03-28T09:02:03Z</time></trkpt><trkpt lat="45.4747596030811" lon="11.044951108546334"><ele>121.0</ele><time>2026-03-28T09:02:04Z</time></trkpt><trkpt lat="45.47472193292755" lon="11.04487161488268"><ele>121.00000000000001</ele><time>2026-03-28T09:02:05Z</time></trkpt><trkpt lat="45.474674423971045" lon="11.0447191533932"><ele>121.0</ele><time>2026-03-28T09:02:07Z</time></trkpt><trkpt lat="45.474640738879735" lon="11.04461920447055"><ele>120.50000000000001</ele><time>2026-03-28T09:02:08Z</time></trkpt><trkpt lat="45.47460045986035" lon="11.044504521803287"><ele>120.0</ele><time>2026-03-28T09:02:09Z</time></trkpt><trkpt lat="45.47457399561241" lon="11.044379647835298"><ele>119.5</ele><time>2026-03-28T09:02:10Z</time></trkpt><trkpt lat="45.47452537353143" lon="11.044254366680983"><ele>119.0</ele><time>2026-03-28T09:02:11Z</time></trkpt><trkpt lat="45.47449586775319" lon="11.044145871891672"><ele>118.50000000000001</ele><time>2026-03-28T09:02:12Z</time></trkpt><trkpt lat="45.4744610633882" lon="11.044040538757754"><ele>118.0</ele><time>2026-03-28T09:02:13Z</time></trkpt><trkpt lat="45.47441451146129" lon="11.043901753975595"><ele>118.00000000000001</ele><time>2026-03-28T09:02:14Z</time></trkpt><trkpt lat="45.47437920256797" lon="11.043758606361527"><ele>118.0</ele><time>2026-03-28T09:02:15Z</time></trkpt><trkpt lat="45.47434137129998" lon="11.043634434168245"><ele>118.0</ele><time>2026-03-28T09:02:16Z</time></trkpt><trkpt lat="45.47431015508094" lon="11.043525170191465"><ele>118.0</ele><time>2026-03-28T09:02:17Z</time></trkpt><trkpt lat="45.47427342884402" lon="11.043443737021748"><ele>118.00000000000001</ele><time>2026-03-28T09:02:18Z</time></trkpt><trkpt lat="45.47423578681777" lon="11.043365315786973"><ele>118.0</ele><time>2026-03-28T09:02:19Z</time></trkpt><trkpt lat="45.47420020480085" lon="11.043274722288347"><ele>118.83333333333334</ele><time>2026-03-28T09:02:20Z</time></trkpt><trkpt lat="45.47415700897196" lon="11.043169592390315"><ele>119.66666666666667</ele><time>2026-03-28T09:02:21Z</time></trkpt><trkpt lat="45.47409722302804" lon="11.043079295755675"><ele>120.5</ele><time>2026-03-28T09:02:22Z</time></trkpt><trkpt lat="45.47406780624826" lon="11.04297568387479"><ele>121.33333333333334</ele><time>2026-03-28T09:02:23Z</time></trkpt><trkpt lat="45.47404907478407" lon="11.042878066429353"><ele>122.16666666666667</ele><time>2026-03-28T09:02:24Z</time></trkpt><trkpt lat="45.474034140198306" lon="11.04274804229574"><ele>123.0</ele><time>2026-03-28T09:02:25Z</time></trkpt><trkpt lat="45.474005596312615" lon="11.042614022638245"><ele>123.0</ele><time>2026-03-28T09:02:26Z</time></trkpt><trkpt lat="45.47398024485671" lon="11.042497036961615"><ele>123.0</ele><time>2026-03-28T09:02:27Z</time></trkpt><trkpt lat="45.473971290738156" lon="11.042392066145698"><ele>123.0</ele><time>2026-03-28T09:02:28Z</time></trkpt><trkpt lat="45.473988212940334" lon="11.042290365254031"><ele>123.0</ele><time>2026-03-28T09:02:29Z</time></trkpt><trkpt lat="45.47399969762759" lon="11.042179670901072"><ele>123.0</ele><time>2026-03-28T09:02:30Z</time></trkpt><trkpt lat="45.47403178067219" lon="11.042089976377452"><ele>123.0</ele><time>2026-03-28T09:02:31Z</time></trkpt><trkpt lat="45.47407622912024" lon="11.042012835350157"><ele>121.0</ele><time>2026-03-28T09:02:32Z</time></trkpt><trkpt lat="45.47412627221237" lon="11.041939914519906"><ele>119.0</ele><time>2026-03-28T09:02:33Z</time></trkpt><trkpt lat="45.474178591785666" lon="11.041877574495677"><ele>117.0</ele><time>2026-03-28T09:02:34Z</time></trkpt><trkpt lat="45.474247702205695" lon="11.04180944292425"><ele>115.0</ele><time>2026-03-28T09:02:35Z</time></trkpt><trkpt lat="45.47432482522384" lon="11.0417408742271"><ele>113.0</ele><time>2026-03-28T09:02:36Z</time></trkpt><trkpt lat="45.47439444754692" lon="11.041665666257353"><ele>111.0</ele><time>2026-03-28T09:02:37Z</time></trkpt><trkpt lat="45.47446005499741" lon="11.04163178989412"><ele>109.19999999999999</ele><time>2026-03-28T09:02:38Z</time></trkpt><trkpt lat="45.47454428554666" lon="11.041526771180653"><ele>107.39999999999999</ele><time>2026-03-28T09:02:39Z</time></trkpt><trkpt lat="45.47462198815973" lon="11.041417737998367"><ele>105.6</ele><time>2026-03-28T09:02:40Z</time></trkpt><trkpt lat="45.47469660579072" lon="11.041324419187653"><ele>103.8</ele><time>2026-03-28T09:02:41Z</time></trkpt><trkpt lat="45.474764424509814" lon="11.041235422349304"><ele>102.0</ele><time>2026-03-28T09:02:42Z</time></trkpt><trkpt lat="45.474819746551354" lon="11.041137226967946"><ele>105.0</ele><time>2026-03-28T09:02:43Z</time></trkpt><trkpt lat="45.474882572599704" lon="11.041095525136134"><ele>108.0</ele><time>2026-03-28T09:02:44Z</time></trkpt><trkpt lat="45.47496164612292" lon="11.040955108530332"><ele>111.0</ele><time>2026-03-28T09:02:46Z</time></trkpt><trkpt lat="45.47499602026978" lon="11.040874927344387"><ele>114.0</ele><time>2026-03-28T09:02:48Z</time></trkpt><trkpt lat="45.47498608642702" lon="11.040771289416373"><ele>117.0</ele><time>2026-03-28T09:02:50Z</time></trkpt><trkpt lat="45.47496877393143" lon="11.040673361681689"><ele>120.0</ele><time>2026-03-28T09:02:52Z</time></trkpt><trkpt lat="45.47494453736074" lon="11.040575374547094"><ele>120.0</ele><time>2026-03-28T09:02:54Z</time></trkpt><trkpt lat="45.47487307300367" lon="11.040520098736096"><ele>120.0</ele><time>2026-03-28T09:02:56Z</time></trkpt><trkpt lat="45.47480116301095" lon="11.040509038956644"><ele>120.0</ele><time>2026-03-28T09:02:59Z</time></trkpt><trkpt lat="45.47483508570793" lon="11.040603761686995"><ele>120.0</ele><time>2026-03-28T09:03:02.001Z</time></trkpt><trkpt lat="45.47487676480973" lon="11.040683985684165"><ele>120.0</ele><time>2026-03-28T09:03:05.001Z</time></trkpt><trkpt lat="45.47485538800167" lon="11.040776434630828"><ele>120.0</ele><time>2026-03-28T09:03:08.001Z</time></trkpt><trkpt lat="45.474792392075514" lon="11.040828148695297"><ele>120.0</ele><time>2026-03-28T09:03:11.001Z</time></trkpt><trkpt lat="45.47471694734222" lon="11.040887703753608"><ele>120.0</ele><time>2026-03-28T09:03:13.001Z</time></trkpt><trkpt lat="45.4746138087981" lon="11.040964186593017"><ele>120.0</ele><time>2026-03-28T09:03:15.001Z</time></trkpt><trkpt lat="45.474510758598804" lon="11.04104917342804"><ele>120.0</ele><time>2026-03-28T09:03:17.001Z</time></trkpt><trkpt lat="45.474411877734056" lon="11.041142594072713"><ele>120.0</ele><time>2026-03-28T09:03:19.001Z</time></trkpt><trkpt lat="45.474309602867045" lon="11.041215965782335"><ele>116.4</ele><time>2026-03-28T09:03:21.001Z</time></trkpt><trkpt lat="45.47420020830358" lon="11.041260393773365"><ele>112.8</ele><time>2026-03-28T09:03:23.001Z</time></trkpt><trkpt lat="45.47408032075755" lon="11.041287701517852"><ele>109.19999999999999</ele><time>2026-03-28T09:03:25.001Z</time></trkpt><trkpt lat="45.47400957100615" lon="11.041290503512405"><ele>105.6</ele><time>2026-03-28T09:03:26.001Z</time></trkpt><trkpt lat="45.47389495904695" lon="11.04128637637537"><ele>102.0</ele><time>2026-03-28T09:03:27.999Z</time></trkpt><trkpt lat="45.47377922087449" lon="11.041306042857068"><ele>100.57142857142857</ele><time>2026-03-28T09:03:29.999Z</time></trkpt><trkpt lat="45.47372084405433" lon="11.041346194996294"><ele>99.14285714285714</ele><time>2026-03-28T09:03:30.999Z</time></trkpt><trkpt lat="45.47366233652242" lon="11.04138224676868"><ele>97.71428571428572</ele><time>2026-03-28T09:03:31.999Z</time></trkpt><trkpt lat="45.47359962992184" lon="11.04140887335265"><ele>96.28571428571428</ele><time>2026-03-28T09:03:32.999Z</time></trkpt><trkpt lat="45.473505614574904" lon="11.041458323865294"><ele>94.85714285714285</ele><time>2026-03-28T09:03:34.999Z</time></trkpt><trkpt lat="45.47345544099493" lon="11.041515607550034"><ele>93.42857142857143</ele><time>2026-03-28T09:03:36.999Z</time></trkpt><trkpt lat="45.47340795015467" lon="11.041581331175276"><ele>92.0</ele><time>2026-03-28T09:03:52Z</time></trkpt><trkpt lat="45.47335553427205" lon="11.041637627136403"><ele>91.8</ele><time>2026-03-28T09:03:53Z</time></trkpt><trkpt lat="45.47329626677773" lon="11.041711520626276"><ele>91.6</ele><time>2026-03-28T09:03:54Z</time></trkpt><trkpt lat="45.473231180477335" lon="11.041792232439198"><ele>91.39999999999999</ele><time>2026-03-28T09:03:55Z</time></trkpt><trkpt lat="45.47315370921806" lon="11.041878153830886"><ele>91.19999999999999</ele><time>2026-03-28T09:03:56Z</time></trkpt><trkpt lat="45.473071006384494" lon="11.041976780755444"><ele>91.0</ele><time>2026-03-28T09:03:57Z</time></trkpt><trkpt lat="45.472986632855225" lon="11.042085774077924"><ele>88.39999999999999</ele><time>2026-03-28T09:03:58Z</time></trkpt><trkpt lat="45.47290806010882" lon="11.042194921672335"><ele>85.8</ele><time>2026-03-28T09:03:59Z</time></trkpt><trkpt lat="45.47282731332626" lon="11.042309602562842"><ele>83.19999999999999</ele><time>2026-03-28T09:04:00Z</time></trkpt><trkpt lat="45.472763906684435" lon="11.042426124643608"><ele>80.6</ele><time>2026-03-28T09:04:01Z</time></trkpt><trkpt lat="45.47270985938619" lon="11.04256027423734"><ele>78.0</ele><time>2026-03-28T09:04:02Z</time></trkpt><trkpt lat="45.47267984535224" lon="11.04269691342945"><ele>78.0</ele><time>2026-03-28T09:04:03Z</time></trkpt><trkpt lat="45.47267507314702" lon="11.042829938947845"><ele>78.0</ele><time>2026-03-28T09:04:04Z</time></trkpt><trkpt lat="45.472663999953966" lon="11.042957014149337"><ele>78.0</ele><time>2026-03-28T09:04:05Z</time></trkpt><trkpt lat="45.47263137043961" lon="11.043064624224566"><ele>78.0</ele><time>2026-03-28T09:04:06Z</time></trkpt><trkpt lat="45.47256882825527" lon="11.043122214997032"><ele>78.0</ele><time>2026-03-28T09:04:07Z</time></trkpt><trkpt lat="45.47247697306478" lon="11.043155609396953"><ele>78.0</ele><time>2026-03-28T09:04:08Z</time></trkpt><trkpt lat="45.472367752592874" lon="11.043214356281892"><ele>78.0</ele><time>2026-03-28T09:04:09Z</time></trkpt><trkpt lat="45.472262770213064" lon="11.043267975234272"><ele>78.0</ele><time>2026-03-28T09:04:10Z</time></trkpt><trkpt lat="45.47216950202318" lon="11.043317004542796"><ele>78.0</ele><time>2026-03-28T09:04:11Z</time></trkpt><trkpt lat="45.47208409203826" lon="11.043347447012307"><ele>78.0</ele><time>2026-03-28T09:04:12Z</time></trkpt><trkpt lat="45.47198185403151" lon="11.043451688357619"><ele>78.0</ele><time>2026-03-28T09:04:14Z</time></trkpt><trkpt lat="45.471914379090336" lon="11.043472144559281"><ele>77.0</ele><time>2026-03-28T09:04:15Z</time></trkpt><trkpt lat="45.47181532649336" lon="11.04348490569022"><ele>76.0</ele><time>2026-03-28T09:04:16Z</time></trkpt><trkpt lat="45.47171766699128" lon="11.043476791916117"><ele>75.0</ele><time>2026-03-28T09:04:17Z</time></trkpt><trkpt lat="45.471608560409585" lon="11.043462281771426"><ele>74.0</ele><time>2026-03-28T09:04:18Z</time></trkpt><trkpt lat="45.471517651516535" lon="11.043449628234383"><ele>73.0</ele><time>2026-03-28T09:04:19Z</time></trkpt><trkpt lat="45.47144427768596" lon="11.04343860474956"><ele>73.0</ele><time>2026-03-28T09:04:20Z</time></trkpt><trkpt lat="45.47136415414263" lon="11.043425908006645"><ele>73.0</ele><time>2026-03-28T09:04:22Z</time></trkpt><trkpt lat="45.47129457853764" lon="11.04343014976498"><ele>73.0</ele><time>2026-03-28T09:04:26Z</time></trkpt><trkpt lat="45.47120693673758" lon="11.043401782043196"><ele>73.0</ele><time>2026-03-28T09:04:28Z</time></trkpt><trkpt lat="45.47113762920546" lon="11.043397135176278"><ele>73.0</ele><time>2026-03-28T09:04:29Z</time></trkpt><trkpt lat="45.4710616765482" lon="11.04339204276994"><ele>73.0</ele><time>2026-03-28T09:04:30Z</time></trkpt><trkpt lat="45.47097197247849" lon="11.04340334028818"><ele>71.8</ele><time>2026-03-28T09:04:31Z</time></trkpt><trkpt lat="45.4708870242108" lon="11.043390002688133"><ele>70.6</ele><time>2026-03-28T09:04:32Z</time></trkpt><trkpt lat="45.47079800272832" lon="11.043392834853327"><ele>69.4</ele><time>2026-03-28T09:04:33Z</time></trkpt><trkpt lat="45.47069253062849" lon="11.043399506594765"><ele>68.2</ele><time>2026-03-28T09:04:34Z</time></trkpt><trkpt lat="45.47057833039831" lon="11.043424046822444"><ele>67.0</ele><time>2026-03-28T09:04:35Z</time></trkpt><trkpt lat="45.470474032975936" lon="11.043464854086396"><ele>66.5</ele><time>2026-03-28T09:04:36Z</time></trkpt><trkpt lat="45.47038386207147" lon="11.043507090831806"><ele>66.0</ele><time>2026-03-28T09:04:37Z</time></trkpt><trkpt lat="45.470305943572" lon="11.043557474186482"><ele>65.5</ele><time>2026-03-28T09:04:38Z</time></trkpt><trkpt lat="45.47022740897293" lon="11.043557710135065"><ele>65.0</ele><time>2026-03-28T09:04:39Z</time></trkpt><trkpt lat="45.47016394572113" lon="11.043587662412696"><ele>64.5</ele><time>2026-03-28T09:04:40Z</time></trkpt><trkpt lat="45.47009684049132" lon="11.043600862075532"><ele>64.0</ele><time>2026-03-28T09:04:41Z</time></trkpt><trkpt lat="45.47003368055142" lon="11.043606659149544"><ele>64.0</ele><time>2026-03-28T09:04:42Z</time></trkpt><trkpt lat="45.46990848845837" lon="11.043632792071008"><ele>64.0</ele><time>2026-03-28T09:04:44Z</time></trkpt><trkpt lat="45.46982150174132" lon="11.043648924443852"><ele>64.0</ele><time>2026-03-28T09:04:46Z</time></trkpt><trkpt lat="45.469713608770206" lon="11.043667383878905"><ele>64.0</ele><time>2026-03-28T09:04:48Z</time></trkpt><trkpt lat="45.46958283212489" lon="11.043689066735194"><ele>63.6</ele><time>2026-03-28T09:04:50Z</time></trkpt><trkpt lat="45.469493279066924" lon="11.043713369453636"><ele>63.2</ele><time>2026-03-28T09:04:51Z</time></trkpt><trkpt lat="45.46939849412204" lon="11.043750984318779"><ele>62.800000000000004</ele><time>2026-03-28T09:04:52Z</time></trkpt><trkpt lat="45.46930019241678" lon="11.043792996236148"><ele>62.400000000000006</ele><time>2026-03-28T09:04:53Z</time></trkpt><trkpt lat="45.46920559014764" lon="11.043833427083221"><ele>62.0</ele><time>2026-03-28T09:04:54Z</time></trkpt><trkpt lat="45.46911417177916" lon="11.043872497209597"><ele>62.0</ele><time>2026-03-28T09:04:55Z</time></trkpt><trkpt lat="45.46903577429736" lon="11.043906002508654"><ele>62.0</ele><time>2026-03-28T09:04:56Z</time></trkpt><trkpt lat="45.46896860399648" lon="11.043927818067267"><ele>62.0</ele><time>2026-03-28T09:04:57Z</time></trkpt><trkpt lat="45.46889458334388" lon="11.043942606303766"><ele>62.0</ele><time>2026-03-28T09:04:59Z</time></trkpt><trkpt lat="45.46880165719122" lon="11.043693589669443"><ele>62.0</ele><time>2026-03-28T09:05:00Z</time></trkpt><trkpt lat="45.46876207500389" lon="11.043571202232018"><ele>61.400000000000006</ele><time>2026-03-28T09:05:01Z</time></trkpt><trkpt lat="45.46873218013681" lon="11.04345476897405"><ele>60.800000000000004</ele><time>2026-03-28T09:05:02Z</time></trkpt><trkpt lat="45.46870441442918" lon="11.04332846690053"><ele>60.2</ele><time>2026-03-28T09:05:03Z</time></trkpt><trkpt lat="45.46867292903705" lon="11.043184708059632"><ele>59.6</ele><time>2026-03-28T09:05:04Z</time></trkpt><trkpt lat="45.46864242817397" lon="11.043029968505586"><ele>59.0</ele><time>2026-03-28T09:05:05Z</time></trkpt><trkpt lat="45.468611457871354" lon="11.042873407959746"><ele>59.0</ele><time>2026-03-28T09:05:06Z</time></trkpt><trkpt lat="45.46858037989939" lon="11.042710302311612"><ele>59.0</ele><time>2026-03-28T09:05:07Z</time></trkpt><trkpt lat="45.46855115156851" lon="11.042537510043967"><ele>59.0</ele><time>2026-03-28T09:05:08Z</time></trkpt><trkpt lat="45.46852069886255" lon="11.042345302488222"><ele>59.0</ele><time>2026-03-28T09:05:09Z</time></trkpt><trkpt lat="45.46849255294133" lon="11.042143789288767"><ele>58.75</ele><time>2026-03-28T09:05:10Z</time></trkpt><trkpt lat="45.46846734527209" lon="11.041936856400836"><ele>58.5</ele><time>2026-03-28T09:05:11Z</time></trkpt><trkpt lat="45.468444410488274" lon="11.041738346568867"><ele>58.25</ele><time>2026-03-28T09:05:12.001Z</time></trkpt><trkpt lat="45.46842411920704" lon="11.04156271726293"><ele>58.0</ele><time>2026-03-28T09:05:13.001Z</time></trkpt><trkpt lat="45.46840275904107" lon="11.041405133232923"><ele>58.0</ele><time>2026-03-28T09:05:14.001Z</time></trkpt><trkpt lat="45.46838062379165" lon="11.04124622365284"><ele>58.0</ele><time>2026-03-28T09:05:15.001Z</time></trkpt><trkpt lat="45.468358421854326" lon="11.041076360176438"><ele>58.0</ele><time>2026-03-28T09:05:16.001Z</time></trkpt><trkpt lat="45.46833602768805" lon="11.040898235388584"><ele>58.0</ele><time>2026-03-28T09:05:17.001Z</time></trkpt><trkpt lat="45.46831521017369" lon="11.040716004973177"><ele>59.0</ele><time>2026-03-28T09:05:18.001Z</time></trkpt><trkpt lat="45.46829593650786" lon="11.040534346917328"><ele>60.0</ele><time>2026-03-28T09:05:19.001Z</time></trkpt><trkpt lat="45.46827713443648" lon="11.040355415572261"><ele>61.0</ele><time>2026-03-28T09:05:20.001Z</time></trkpt><trkpt lat="45.4682523543305" lon="11.040184412286587"><ele>62.0</ele><time>2026-03-28T09:05:21.001Z</time></trkpt><trkpt lat="45.468210217291016" lon="11.040021433488906"><ele>62.25</ele><time>2026-03-28T09:05:22.001Z</time></trkpt><trkpt lat="45.468161040082414" lon="11.039845395814652"><ele>62.5</ele><time>2026-03-28T09:05:23.001Z</time></trkpt><trkpt lat="45.46812200527695" lon="11.03966760703245"><ele>62.75</ele><time>2026-03-28T09:05:24.001Z</time></trkpt><trkpt lat="45.46809981003955" lon="11.03950218793272"><ele>63.0</ele><time>2026-03-28T09:05:25.001Z</time></trkpt><trkpt lat="45.468088324745224" lon="11.039339287874464"><ele>63.0</ele><time>2026-03-28T09:05:26.001Z</time></trkpt><trkpt lat="45.46808690253925" lon="11.039172753842964"><ele>63.0</ele><time>2026-03-28T09:05:27.001Z</time></trkpt><trkpt lat="45.468088731188494" lon="11.039003244680407"><ele>63.0</ele><time>2026-03-28T09:05:28.001Z</time></trkpt><trkpt lat="45.46809068514223" lon="11.038822119966792"><ele>63.0</ele><time>2026-03-28T09:05:29.001Z</time></trkpt><trkpt lat="45.46809208592654" lon="11.038660656385362"><ele>63.333333333333336</ele><time>2026-03-28T09:05:30.001Z</time></trkpt><trkpt lat="45.46809297295509" lon="11.038526668252977"><ele>63.66666666666667</ele><time>2026-03-28T09:05:31.001Z</time></trkpt><trkpt lat="45.4680931966028" lon="11.038417725876942"><ele>64.0</ele><time>2026-03-28T09:05:32.001Z</time></trkpt><trkpt lat="45.46809238384423" lon="11.038302587052064"><ele>64.33333333333334</ele><time>2026-03-28T09:05:33.999Z</time></trkpt><trkpt lat="45.46809194338319" lon="11.038186902579824"><ele>64.66666666666667</ele><time>2026-03-28T09:05:35.999Z</time></trkpt><trkpt lat="45.46807625868494" lon="11.03809847687957"><ele>65.0</ele><time>2026-03-28T09:05:36.999Z</time></trkpt><trkpt lat="45.46804500276297" lon="11.038008249151787"><ele>65.66666666666667</ele><time>2026-03-28T09:05:37.999Z</time></trkpt><trkpt lat="45.468022954302846" lon="11.037904549376824"><ele>66.33333333333334</ele><time>2026-03-28T09:05:38.999Z</time></trkpt><trkpt lat="45.46798917886076" lon="11.0377982381256"><ele>67.0</ele><time>2026-03-28T09:05:39.999Z</time></trkpt><trkpt lat="45.467965530730794" lon="11.037676828959519"><ele>67.66666666666667</ele><time>2026-03-28T09:05:40.999Z</time></trkpt><trkpt lat="45.46792887893713" lon="11.03755801029732"><ele>68.33333333333333</ele><time>2026-03-28T09:05:41.999Z</time></trkpt><trkpt lat="45.46788604200414" lon="11.037419140502548"><ele>69.0</ele><time>2026-03-28T09:05:42.999Z</time></trkpt><trkpt lat="45.46782259144589" lon="11.037292326048187"><ele>69.2</ele><time>2026-03-28T09:05:43.999Z</time></trkpt><trkpt lat="45.46778232508725" lon="11.037165429000918"><ele>69.4</ele><time>2026-03-28T09:05:44.999Z</time></trkpt><trkpt lat="45.467751464382864" lon="11.037047761479204"><ele>69.6</ele><time>2026-03-28T09:05:45.999Z</time></trkpt><trkpt lat="45.46774155354431" lon="11.036944249114448"><ele>69.8</ele><time>2026-03-28T09:05:46.999Z</time></trkpt><trkpt lat="45.46777521160426" lon="11.03678477094253"><ele>70.0</ele><time>2026-03-28T09:05:48.999Z</time></trkpt><trkpt lat="45.46783231617974" lon="11.036712219446937"><ele>70.0</ele><time>2026-03-28T09:05:52.999Z</time></trkpt><trkpt lat="45.46793367106825" lon="11.036610480956705"><ele>70.0</ele><time>2026-03-28T09:05:55Z</time></trkpt><trkpt lat="45.468062286473454" lon="11.036540440262549"><ele>70.0</ele><time>2026-03-28T09:05:57Z</time></trkpt><trkpt lat="45.46811698256134" lon="11.036455403576456"><ele>70.0</ele><time>2026-03-28T09:05:58Z</time></trkpt><trkpt lat="45.468183910505196" lon="11.036376847941334"><ele>70.0</ele><time>2026-03-28T09:05:59Z</time></trkpt><trkpt lat="45.468262019741495" lon="11.036296635180728"><ele>70.0</ele><time>2026-03-28T09:06:00Z</time></trkpt><trkpt lat="45.468337332005134" lon="11.036220297142059"><ele>70.0</ele><time>2026-03-28T09:06:01Z</time></trkpt><trkpt lat="45.46840494075911" lon="11.036144046398256"><ele>70.0</ele><time>2026-03-28T09:06:02Z</time></trkpt><trkpt lat="45.46847640182938" lon="11.036078579749965"><ele>70.0</ele><time>2026-03-28T09:06:03Z</time></trkpt><trkpt lat="45.46854098210266" lon="11.036016908645669"><ele>70.0</ele><time>2026-03-28T09:06:04Z</time></trkpt><trkpt lat="45.46859735774278" lon="11.035961871584606"><ele>70.0</ele><time>2026-03-28T09:06:05Z</time></trkpt><trkpt lat="45.46868950849371" lon="11.035880010683929"><ele>70.0</ele><time>2026-03-28T09:06:07Z</time></trkpt><trkpt lat="45.468756709106984" lon="11.035835130767177"><ele>70.0</ele><time>2026-03-28T09:06:08Z</time></trkpt><trkpt lat="45.46883777336983" lon="11.035774151505215"><ele>70.0</ele><time>2026-03-28T09:06:09Z</time></trkpt><trkpt lat="45.46891505624182" lon="11.035724300496833"><ele>70.0</ele><time>2026-03-28T09:06:10Z</time></trkpt><trkpt lat="45.469017220349826" lon="11.035661923769132"><ele>70.0</ele><time>2026-03-28T09:06:11Z</time></trkpt><trkpt lat="45.469116667786224" lon="11.03560818649966"><ele>69.75</ele><time>2026-03-28T09:06:12Z</time></trkpt><trkpt lat="45.46921989525495" lon="11.035566446902513"><ele>69.5</ele><time>2026-03-28T09:06:13Z</time></trkpt><trkpt lat="45.46932710379698" lon="11.035517984819764"><ele>69.25</ele><time>2026-03-28T09:06:14Z</time></trkpt><trkpt lat="45.46943429830432" lon="11.035464399619917"><ele>69.0</ele><time>2026-03-28T09:06:15Z</time></trkpt><trkpt lat="45.469544078812866" lon="11.035396739112981"><ele>69.25</ele><time>2026-03-28T09:06:16Z</time></trkpt><trkpt lat="45.469656666651545" lon="11.035325984970699"><ele>69.5</ele><time>2026-03-28T09:06:17Z</time></trkpt><trkpt lat="45.46978180934709" lon="11.035245262842023"><ele>69.75</ele><time>2026-03-28T09:06:18Z</time></trkpt><trkpt lat="45.46990409665137" lon="11.035165878962415"><ele>70.0</ele><time>2026-03-28T09:06:19Z</time></trkpt><trkpt lat="45.47002251125542" lon="11.035083691797187"><ele>70.0</ele><time>2026-03-28T09:06:20Z</time></trkpt><trkpt lat="45.470136429463494" lon="11.034989593917745"><ele>70.0</ele><time>2026-03-28T09:06:21Z</time></trkpt><trkpt lat="45.47024344536223" lon="11.034906510048266"><ele>70.0</ele><time>2026-03-28T09:06:22Z</time></trkpt><trkpt lat="45.47035585424068" lon="11.034806983968348"><ele>70.0</ele><time>2026-03-28T09:06:23Z</time></trkpt><trkpt lat="45.47046015958105" lon="11.034718104188304"><ele>70.75</ele><time>2026-03-28T09:06:24Z</time></trkpt><trkpt lat="45.47056248895416" lon="11.03463318602477"><ele>71.5</ele><time>2026-03-28T09:06:25Z</time></trkpt><trkpt lat="45.47066640509377" lon="11.03454437308075"><ele>72.25</ele><time>2026-03-28T09:06:26Z</time></trkpt><trkpt lat="45.470778144266994" lon="11.034442670169641"><ele>73.0</ele><time>2026-03-28T09:06:27Z</time></trkpt><trkpt lat="45.470900635069555" lon="11.034349817589773"><ele>73.0</ele><time>2026-03-28T09:06:28Z</time></trkpt><trkpt lat="45.47101890723777" lon="11.034259023255014"><ele>73.0</ele><time>2026-03-28T09:06:29Z</time></trkpt><trkpt lat="45.47113223213303" lon="11.034175449590082"><ele>73.0</ele><time>2026-03-28T09:06:30Z</time></trkpt><trkpt lat="45.47124637271234" lon="11.034095845609066"><ele>73.0</ele><time>2026-03-28T09:06:31Z</time></trkpt><trkpt lat="45.471356095386696" lon="11.034037703728286"><ele>73.0</ele><time>2026-03-28T09:06:32Z</time></trkpt><trkpt lat="45.4714752805905" lon="11.033989942532497"><ele>73.0</ele><time>2026-03-28T09:06:33Z</time></trkpt><trkpt lat="45.471601702741765" lon="11.033947842885572"><ele>73.0</ele><time>2026-03-28T09:06:34Z</time></trkpt><trkpt lat="45.471728871306546" lon="11.033906142713949"><ele>73.0</ele><time>2026-03-28T09:06:35Z</time></trkpt><trkpt lat="45.471855387067144" lon="11.033857096245146"><ele>73.0</ele><time>2026-03-28T09:06:36Z</time></trkpt><trkpt lat="45.47198111966738" lon="11.033811104191669"><ele>73.0</ele><time>2026-03-28T09:06:37Z</time></trkpt><trkpt lat="45.47210727317886" lon="11.033772034454758"><ele>73.0</ele><time>2026-03-28T09:06:38Z</time></trkpt><trkpt lat="45.47222673545336" lon="11.033732374577367"><ele>73.0</ele><time>2026-03-28T09:06:39Z</time></trkpt><trkpt lat="45.472326371121774" lon="11.03366629399104"><ele>73.8</ele><time>2026-03-28T09:06:40Z</time></trkpt><trkpt lat="45.472409952442035" lon="11.033590953685806"><ele>74.6</ele><time>2026-03-28T09:06:41Z</time></trkpt><trkpt lat="45.472502759277184" lon="11.033532584041913"><ele>75.4</ele><time>2026-03-28T09:06:42Z</time></trkpt><trkpt lat="45.47260254369647" lon="11.0334740421935"><ele>76.2</ele><time>2026-03-28T09:06:43Z</time></trkpt><trkpt lat="45.47272294198651" lon="11.033400741409482"><ele>77.0</ele><time>2026-03-28T09:06:44Z</time></trkpt><trkpt lat="45.4728220757057" lon="11.033337335598748"><ele>76.75</ele><time>2026-03-28T09:06:45Z</time></trkpt><trkpt lat="45.472932788293654" lon="11.033273688125623"><ele>76.5</ele><time>2026-03-28T09:06:46Z</time></trkpt><trkpt lat="45.47305024631079" lon="11.033234083527422"><ele>76.25</ele><time>2026-03-28T09:06:47Z</time></trkpt><trkpt lat="45.473162771231074" lon="11.033218303909365"><ele>76.0</ele><time>2026-03-28T09:06:48Z</time></trkpt><trkpt lat="45.47326230237882" lon="11.03321032724942"><ele>76.0</ele><time>2026-03-28T09:06:49Z</time></trkpt><trkpt lat="45.47335949283615" lon="11.033208540792709"><ele>76.0</ele><time>2026-03-28T09:06:50Z</time></trkpt><trkpt lat="45.473445138709934" lon="11.033212661830948"><ele>76.0</ele><time>2026-03-28T09:06:51Z</time></trkpt><trkpt lat="45.47353353546753" lon="11.033215432236805"><ele>76.0</ele><time>2026-03-28T09:06:52Z</time></trkpt><trkpt lat="45.47362754580807" lon="11.03322100548812"><ele>76.0</ele><time>2026-03-28T09:06:53Z</time></trkpt><trkpt lat="45.47372940646583" lon="11.033228179126597"><ele>76.75</ele><time>2026-03-28T09:06:54Z</time></trkpt><trkpt lat="45.47384087519221" lon="11.033249417990179"><ele>77.5</ele><time>2026-03-28T09:06:55Z</time></trkpt><trkpt lat="45.47397321290653" lon="11.03327782755442"><ele>78.25</ele><time>2026-03-28T09:06:56Z</time></trkpt><trkpt lat="45.474125353820156" lon="11.03329336747011"><ele>79.0</ele><time>2026-03-28T09:06:57Z</time></trkpt><trkpt lat="45.47429369474595" lon="11.033306975357979"><ele>80.25</ele><time>2026-03-28T09:06:58Z</time></trkpt><trkpt lat="45.47443108382546" lon="11.033328664438594"><ele>81.5</ele><time>2026-03-28T09:06:59Z</time></trkpt><trkpt lat="45.47455652159824" lon="11.03335054978894"><ele>82.75</ele><time>2026-03-28T09:07:00Z</time></trkpt><trkpt lat="45.47467035941899" lon="11.033364929273095"><ele>84.0</ele><time>2026-03-28T09:07:01Z</time></trkpt><trkpt lat="45.47476565812213" lon="11.033369383901722"><ele>84.0</ele><time>2026-03-28T09:07:02Z</time></trkpt><trkpt lat="45.474859054473235" lon="11.033309578700242"><ele>84.0</ele><time>2026-03-28T09:07:04Z</time></trkpt><trkpt lat="45.47484986314247" lon="11.03309581625974"><ele>84.0</ele><time>2026-03-28T09:07:06.001Z</time></trkpt><trkpt lat="45.47483534674476" lon="11.032959460281704"><ele>84.0</ele><time>2026-03-28T09:07:07.001Z</time></trkpt><trkpt lat="45.47483672397175" lon="11.032810109546162"><ele>83.2</ele><time>2026-03-28T09:07:08.001Z</time></trkpt><trkpt lat="45.47483774693883" lon="11.032652304846168"><ele>82.4</ele><time>2026-03-28T09:07:09.001Z</time></trkpt><trkpt lat="45.474833264693075" lon="11.032504999099919"><ele>81.6</ele><time>2026-03-28T09:07:10.001Z</time></trkpt><trkpt lat="45.474834739789536" lon="11.03237570730387"><ele>80.8</ele><time>2026-03-28T09:07:11.001Z</time></trkpt><trkpt lat="45.47482269449819" lon="11.032258920638165"><ele>80.0</ele><time>2026-03-28T09:07:12.001Z</time></trkpt><trkpt lat="45.47481872783371" lon="11.032154835385331"><ele>80.0</ele><time>2026-03-28T09:07:13.001Z</time></trkpt><trkpt lat="45.47480241269299" lon="11.032055597734391"><ele>80.0</ele><time>2026-03-28T09:07:14.001Z</time></trkpt><trkpt lat="45.47468419847776" lon="11.031988471774003"><ele>80.0</ele><time>2026-03-28T09:07:16.001Z</time></trkpt><trkpt lat="45.4746302389448" lon="11.031916686389046"><ele>80.0</ele><time>2026-03-28T09:07:17.001Z</time></trkpt><trkpt lat="45.47459733010065" lon="11.031817247692954"><ele>80.0</ele><time>2026-03-28T09:07:18.001Z</time></trkpt><trkpt lat="45.47456940578687" lon="11.031694240602578"><ele>80.0</ele><time>2026-03-28T09:07:19.001Z</time></trkpt><trkpt lat="45.47455563281947" lon="11.031554655556011"><ele>78.5</ele><time>2026-03-28T09:07:20.001Z</time></trkpt><trkpt lat="45.47455663487537" lon="11.031391751822952"><ele>77.0</ele><time>2026-03-28T09:07:21.001Z</time></trkpt><trkpt lat="45.474555230924615" lon="11.031215088074386"><ele>75.5</ele><time>2026-03-28T09:07:22.001Z</time></trkpt><trkpt lat="45.47454504989323" lon="11.031023052829369"><ele>74.0</ele><time>2026-03-28T09:07:23.001Z</time></trkpt><trkpt lat="45.47451133238171" lon="11.030837614654649"><ele>74.0</ele><time>2026-03-28T09:07:24.001Z</time></trkpt><trkpt lat="45.47445473531967" lon="11.030667038935935"><ele>74.0</ele><time>2026-03-28T09:07:25.001Z</time></trkpt><trkpt lat="45.47439537925157" lon="11.030522814813642"><ele>74.0</ele><time>2026-03-28T09:07:26.001Z</time></trkpt><trkpt lat="45.47432963151873" lon="11.030388075465895"><ele>74.0</ele><time>2026-03-28T09:07:27.001Z</time></trkpt><trkpt lat="45.474251801876726" lon="11.030253228022577"><ele>74.0</ele><time>2026-03-28T09:07:28.001Z</time></trkpt><trkpt lat="45.47417345144884" lon="11.030135277554693"><ele>74.0</ele><time>2026-03-28T09:07:29.001Z</time></trkpt><trkpt lat="45.47409403682366" lon="11.03002879392679"><ele>74.0</ele><time>2026-03-28T09:07:30.001Z</time></trkpt><trkpt lat="45.47399922562266" lon="11.029946184225642"><ele>74.0</ele><time>2026-03-28T09:07:31.001Z</time></trkpt><trkpt lat="45.47388774722981" lon="11.029877726883802"><ele>73.8</ele><time>2026-03-28T09:07:32.001Z</time></trkpt><trkpt lat="45.47377976170992" lon="11.029823140891173"><ele>73.60000000000001</ele><time>2026-03-28T09:07:33.001Z</time></trkpt><trkpt lat="45.473695945346954" lon="11.029737445861636"><ele>73.4</ele><time>2026-03-28T09:07:34.001Z</time></trkpt><trkpt lat="45.473635788841705" lon="11.029625292585154"><ele>73.2</ele><time>2026-03-28T09:07:35.001Z</time></trkpt><trkpt lat="45.4735781542666" lon="11.029485806210474"><ele>73.0</ele><time>2026-03-28T09:07:36.001Z</time></trkpt><trkpt lat="45.47353809769925" lon="11.029334052741135"><ele>73.0</ele><time>2026-03-28T09:07:37.001Z</time></trkpt><trkpt lat="45.473519307304244" lon="11.029165108540393"><ele>73.0</ele><time>2026-03-28T09:07:38.001Z</time></trkpt><trkpt lat="45.47350018436883" lon="11.029008626344423"><ele>73.0</ele><time>2026-03-28T09:07:38.999Z</time></trkpt><trkpt lat="45.4734582549994" lon="11.028862507347405"><ele>73.0</ele><time>2026-03-28T09:07:39.999Z</time></trkpt><trkpt lat="45.473391388293855" lon="11.028715763853109"><ele>72.75</ele><time>2026-03-28T09:07:40.999Z</time></trkpt><trkpt lat="45.4733196913448" lon="11.028579390406207"><ele>72.5</ele><time>2026-03-28T09:07:41.999Z</time></trkpt><trkpt lat="45.47325340204908" lon="11.028457328824516"><ele>72.25</ele><time>2026-03-28T09:07:42.999Z</time></trkpt><trkpt lat="45.47317081847059" lon="11.028337662320943"><ele>72.0</ele><time>2026-03-28T09:07:43.999Z</time></trkpt><trkpt lat="45.47310051139044" lon="11.02821406830445"><ele>72.4</ele><time>2026-03-28T09:07:44.999Z</time></trkpt><trkpt lat="45.47304777943206" lon="11.02808164948892"><ele>72.80000000000001</ele><time>2026-03-28T09:07:45.999Z</time></trkpt><trkpt lat="45.472995416275424" lon="11.02793840867776"><ele>73.2</ele><time>2026-03-28T09:07:46.999Z</time></trkpt><trkpt lat="45.472958423200005" lon="11.027795734898726"><ele>73.60000000000001</ele><time>2026-03-28T09:07:47.999Z</time></trkpt><trkpt lat="45.472934900920194" lon="11.027641294750778"><ele>74.0</ele><time>2026-03-28T09:07:48.999Z</time></trkpt><trkpt lat="45.472926047509546" lon="11.027461763191432"><ele>74.25</ele><time>2026-03-28T09:07:49.999Z</time></trkpt><trkpt lat="45.4729152201742" lon="11.027291649531934"><ele>74.5</ele><time>2026-03-28T09:07:50.999Z</time></trkpt><trkpt lat="45.47288626096449" lon="11.02712686067879"><ele>74.75</ele><time>2026-03-28T09:07:51.999Z</time></trkpt><trkpt lat="45.472848740120135" lon="11.026951434843369"><ele>75.0</ele><time>2026-03-28T09:07:52.999Z</time></trkpt><trkpt lat="45.4728085097631" lon="11.026779259581835"><ele>75.75</ele><time>2026-03-28T09:07:54Z</time></trkpt><trkpt lat="45.472762412837994" lon="11.0266063169631"><ele>76.5</ele><time>2026-03-28T09:07:55Z</time></trkpt><trkpt lat="45.472715926219266" lon="11.026439270182776"><ele>77.25</ele><time>2026-03-28T09:07:56Z</time></trkpt><trkpt lat="45.472677515316946" lon="11.026282697284346"><ele>78.0</ele><time>2026-03-28T09:07:57Z</time></trkpt><trkpt lat="45.472641894074165" lon="11.026126073979334"><ele>78.0</ele><time>2026-03-28T09:07:58Z</time></trkpt><trkpt lat="45.47261647243145" lon="11.025976136538832"><ele>78.0</ele><time>2026-03-28T09:07:59Z</time></trkpt><trkpt lat="45.47260607244345" lon="11.02583806883188"><ele>78.0</ele><time>2026-03-28T09:08:00Z</time></trkpt><trkpt lat="45.47261054144128" lon="11.025695917290783"><ele>78.0</ele><time>2026-03-28T09:08:01Z</time></trkpt><trkpt lat="45.47261011620468" lon="11.025543560276905"><ele>78.0</ele><time>2026-03-28T09:08:02Z</time></trkpt><trkpt lat="45.472605004486205" lon="11.025386020481582"><ele>77.8</ele><time>2026-03-28T09:08:03Z</time></trkpt><trkpt lat="45.472599684156755" lon="11.025226873391187"><ele>77.6</ele><time>2026-03-28T09:08:04Z</time></trkpt><trkpt lat="45.47258812105172" lon="11.025067681337699"><ele>77.4</ele><time>2026-03-28T09:08:05Z</time></trkpt><trkpt lat="45.472585810768386" lon="11.024909771455132"><ele>77.2</ele><time>2026-03-28T09:08:06Z</time></trkpt><trkpt lat="45.47258272599557" lon="11.02478683402217"><ele>77.0</ele><time>2026-03-28T09:08:07Z</time></trkpt><trkpt lat="45.47257667162158" lon="11.024687094212188"><ele>76.6</ele><time>2026-03-28T09:08:10Z</time></trkpt><trkpt lat="45.47258953646151" lon="11.02454376598721"><ele>76.2</ele><time>2026-03-28T09:08:12Z</time></trkpt><trkpt lat="45.472608568437536" lon="11.024387467307411"><ele>75.8</ele><time>2026-03-28T09:08:13Z</time></trkpt><trkpt lat="45.472618189224235" lon="11.024231464573369"><ele>75.4</ele><time>2026-03-28T09:08:14Z</time></trkpt><trkpt lat="45.47262130159049" lon="11.024089479144052"><ele>75.0</ele><time>2026-03-28T09:08:15Z</time></trkpt><trkpt lat="45.472614025407644" lon="11.023933157809187"><ele>74.6</ele><time>2026-03-28T09:08:16Z</time></trkpt><trkpt lat="45.47260628475802" lon="11.023777874112826"><ele>74.2</ele><time>2026-03-28T09:08:17Z</time></trkpt><trkpt lat="45.472607428714824" lon="11.023625429543198"><ele>73.8</ele><time>2026-03-28T09:08:18Z</time></trkpt><trkpt lat="45.472601126871204" lon="11.023491028183516"><ele>73.4</ele><time>2026-03-28T09:08:19Z</time></trkpt><trkpt lat="45.4725780248319" lon="11.02337549109008"><ele>73.0</ele><time>2026-03-28T09:08:20Z</time></trkpt><trkpt lat="45.4725520686475" lon="11.023241903649048"><ele>72.83333333333333</ele><time>2026-03-28T09:08:21Z</time></trkpt><trkpt lat="45.472508961003854" lon="11.023144565535308"><ele>72.66666666666666</ele><time>2026-03-28T09:08:22Z</time></trkpt><trkpt lat="45.47242904988684" lon="11.023114245593538"><ele>72.5</ele><time>2026-03-28T09:08:23Z</time></trkpt><trkpt lat="45.472334550847734" lon="11.023120304627769"><ele>72.33333333333333</ele><time>2026-03-28T09:08:24Z</time></trkpt><trkpt lat="45.47226339892507" lon="11.023082451048442"><ele>72.16666666666667</ele><time>2026-03-28T09:08:25Z</time></trkpt><trkpt lat="45.4722352752894" lon="11.022994337349358"><ele>72.0</ele><time>2026-03-28T09:08:26Z</time></trkpt><trkpt lat="45.472239692909085" lon="11.022887928244588"><ele>72.0</ele><time>2026-03-28T09:08:27Z</time></trkpt><trkpt lat="45.472256846201844" lon="11.022777364674331"><ele>72.0</ele><time>2026-03-28T09:08:28Z</time></trkpt><trkpt lat="45.47226976071209" lon="11.022665811355735"><ele>72.0</ele><time>2026-03-28T09:08:29Z</time></trkpt><trkpt lat="45.47227915372442" lon="11.022550490803262"><ele>72.0</ele><time>2026-03-28T09:08:30Z</time></trkpt><trkpt lat="45.47228601201419" lon="11.022419625852514"><ele>72.0</ele><time>2026-03-28T09:08:31Z</time></trkpt><trkpt lat="45.47229330867808" lon="11.022279196814898"><ele>72.0</ele><time>2026-03-28T09:08:32Z</time></trkpt><trkpt lat="45.47229495227643" lon="11.02211911546104"><ele>72.6</ele><time>2026-03-28T09:08:33Z</time></trkpt><trkpt lat="45.472286203217216" lon="11.02196952389358"><ele>73.2</ele><time>2026-03-28T09:08:34Z</time></trkpt><trkpt lat="45.47226821882296" lon="11.0218301552236"><ele>73.8</ele><time>2026-03-28T09:08:35Z</time></trkpt><trkpt lat="45.472247298739354" lon="11.021665643197801"><ele>74.4</ele><time>2026-03-28T09:08:36Z</time></trkpt><trkpt lat="45.47223524678754" lon="11.021522904472919"><ele>75.0</ele><time>2026-03-28T09:08:37Z</time></trkpt><trkpt lat="45.472211867456444" lon="11.021429062114683"><ele>75.16666666666667</ele><time>2026-03-28T09:08:38Z</time></trkpt><trkpt lat="45.472152393395426" lon="11.021359650064815"><ele>75.33333333333333</ele><time>2026-03-28T09:08:39Z</time></trkpt><trkpt lat="45.47208889799647" lon="11.021279942568063"><ele>75.5</ele><time>2026-03-28T09:08:40Z</time></trkpt><trkpt lat="45.472041044891284" lon="11.021181651265247"><ele>75.66666666666666</ele><time>2026-03-28T09:08:41Z</time></trkpt><trkpt lat="45.47202561612932" lon="11.021044810344987"><ele>75.83333333333333</ele><time>2026-03-28T09:08:42Z</time></trkpt><trkpt lat="45.47201624407562" lon="11.020894283397471"><ele>76.0</ele><time>2026-03-28T09:08:43Z</time></trkpt><trkpt lat="45.472008761168944" lon="11.020754586543502"><ele>76.33333333333333</ele><time>2026-03-28T09:08:44Z</time></trkpt><trkpt lat="45.47200011959909" lon="11.020626316210489"><ele>76.66666666666666</ele><time>2026-03-28T09:08:45Z</time></trkpt><trkpt lat="45.4719966849872" lon="11.02053455773523"><ele>77.0</ele><time>2026-03-28T09:08:46Z</time></trkpt><trkpt lat="45.47200496463525" lon="11.020428650579747"><ele>77.33333333333333</ele><time>2026-03-28T09:08:48Z</time></trkpt><trkpt lat="45.47200750051362" lon="11.020316250357107"><ele>77.66666666666667</ele><time>2026-03-28T09:09:26.001Z</time></trkpt><trkpt lat="45.47199399570703" lon="11.020148658723066"><ele>78.0</ele><time>2026-03-28T09:09:28.001Z</time></trkpt><trkpt lat="45.47196275333571" lon="11.0200683409087"><ele>77.4</ele><time>2026-03-28T09:09:29.001Z</time></trkpt><trkpt lat="45.47194321423762" lon="11.019955612531051"><ele>76.8</ele><time>2026-03-28T09:09:30.001Z</time></trkpt><trkpt lat="45.47193410748187" lon="11.01981836173518"><ele>76.2</ele><time>2026-03-28T09:09:31.001Z</time></trkpt><trkpt lat="45.47194002800617" lon="11.019639418257492"><ele>75.6</ele><time>2026-03-28T09:09:32.001Z</time></trkpt><trkpt lat="45.47193726740541" lon="11.019455036119018"><ele>75.0</ele><time>2026-03-28T09:09:33.001Z</time></trkpt><trkpt lat="45.4719221294749" lon="11.019246698766016"><ele>75.33333333333333</ele><time>2026-03-28T09:09:34.001Z</time></trkpt><trkpt lat="45.4719119592796" lon="11.019034291353098"><ele>75.66666666666666</ele><time>2026-03-28T09:09:35.001Z</time></trkpt><trkpt lat="45.47190407964241" lon="11.018803981023952"><ele>76.0</ele><time>2026-03-28T09:09:36.001Z</time></trkpt><trkpt lat="45.47189603104812" lon="11.01859785081488"><ele>76.0</ele><time>2026-03-28T09:09:37.001Z</time></trkpt><trkpt lat="45.47189047035159" lon="11.018410893765287"><ele>76.0</ele><time>2026-03-28T09:09:38.001Z</time></trkpt><trkpt lat="45.47188326593836" lon="11.018220226001661"><ele>76.0</ele><time>2026-03-28T09:09:39.001Z</time></trkpt><trkpt lat="45.47187207343353" lon="11.018044578395548"><ele>76.0</ele><time>2026-03-28T09:09:40.001Z</time></trkpt><trkpt lat="45.471851481310395" lon="11.017877426535822"><ele>76.0</ele><time>2026-03-28T09:09:41.001Z</time></trkpt><trkpt lat="45.47180575378227" lon="11.01770510907043"><ele>76.0</ele><time>2026-03-28T09:09:42.001Z</time></trkpt><trkpt lat="45.47175946350999" lon="11.017564622335826"><ele>76.0</ele><time>2026-03-28T09:09:43.001Z</time></trkpt><trkpt lat="45.47171064455878" lon="11.017443071071185"><ele>76.0</ele><time>2026-03-28T09:09:44.001Z</time></trkpt><trkpt lat="45.471653435087156" lon="11.017366771172256"><ele>76.0</ele><time>2026-03-28T09:09:45Z</time></trkpt><trkpt lat="45.47159674230229" lon="11.0173026377643"><ele>76.39999999999999</ele><time>2026-03-28T09:09:46Z</time></trkpt><trkpt lat="45.47152620330112" lon="11.01720680716515"><ele>76.8</ele><time>2026-03-28T09:09:48Z</time></trkpt><trkpt lat="45.47147591531933" lon="11.017107091259566"><ele>77.19999999999999</ele><time>2026-03-28T09:09:50Z</time></trkpt><trkpt lat="45.47143698419403" lon="11.016906697972065"><ele>77.6</ele><time>2026-03-28T09:09:52Z</time></trkpt><trkpt lat="45.471423613849716" lon="11.016748416589367"><ele>78.0</ele><time>2026-03-28T09:09:53Z</time></trkpt><trkpt lat="45.47143719374009" lon="11.016601762340006"><ele>78.8</ele><time>2026-03-28T09:09:54Z</time></trkpt><trkpt lat="45.47144187535629" lon="11.0164869555531"><ele>79.6</ele><time>2026-03-28T09:09:55Z</time></trkpt><trkpt lat="45.47145188483732" lon="11.016371173912669"><ele>80.39999999999999</ele><time>2026-03-28T09:09:56Z</time></trkpt><trkpt lat="45.47145441729123" lon="11.016225452306454"><ele>81.19999999999999</ele><time>2026-03-28T09:09:57Z</time></trkpt><trkpt lat="45.47145717609325" lon="11.016057940881968"><ele>82.0</ele><time>2026-03-28T09:09:58Z</time></trkpt><trkpt lat="45.47146631101305" lon="11.015876748768676"><ele>83.0</ele><time>2026-03-28T09:09:59Z</time></trkpt><trkpt lat="45.47146904307361" lon="11.015721031205425"><ele>84.0</ele><time>2026-03-28T09:10:00Z</time></trkpt><trkpt lat="45.47146825687174" lon="11.015598023605227"><ele>85.0</ele><time>2026-03-28T09:10:01Z</time></trkpt><trkpt lat="45.47149793099157" lon="11.01547665997679"><ele>86.0</ele><time>2026-03-28T09:10:03Z</time></trkpt><trkpt lat="45.47156335366199" lon="11.015417130809405"><ele>87.0</ele><time>2026-03-28T09:10:06Z</time></trkpt><trkpt lat="45.47158928184367" lon="11.015310247061096"><ele>88.0</ele><time>2026-03-28T09:10:07Z</time></trkpt><trkpt lat="45.47158088576797" lon="11.015171441653239"><ele>88.0</ele><time>2026-03-28T09:10:08Z</time></trkpt><trkpt lat="45.47157028637366" lon="11.015043225026334"><ele>88.0</ele><time>2026-03-28T09:10:09Z</time></trkpt><trkpt lat="45.47158838650963" lon="11.014909312954318"><ele>88.0</ele><time>2026-03-28T09:10:10Z</time></trkpt><trkpt lat="45.47160774061694" lon="11.014768532288734"><ele>88.0</ele><time>2026-03-28T09:10:11Z</time></trkpt><trkpt lat="45.471638453568104" lon="11.014662134262297"><ele>88.0</ele><time>2026-03-28T09:10:12Z</time></trkpt><trkpt lat="45.47168929519423" lon="11.014500267198125"><ele>89.33333333333333</ele><time>2026-03-28T09:10:14Z</time></trkpt><trkpt lat="45.47174704676704" lon="11.014452580606195"><ele>90.66666666666666</ele><time>2026-03-28T09:10:16Z</time></trkpt><trkpt lat="45.47182742839332" lon="11.014461938236247"><ele>92.0</ele><time>2026-03-28T09:10:17Z</time></trkpt><trkpt lat="45.47190179144896" lon="11.014519242716462"><ele>93.33333333333333</ele><time>2026-03-28T09:10:18Z</time></trkpt><trkpt lat="45.471992851070354" lon="11.01454502893659"><ele>94.66666666666667</ele><time>2026-03-28T09:10:19Z</time></trkpt><trkpt lat="45.47208703647289" lon="11.014579386983053"><ele>96.0</ele><time>2026-03-28T09:10:20Z</time></trkpt><trkpt lat="45.472150375436726" lon="11.014612338403484"><ele>97.19999999999999</ele><time>2026-03-28T09:10:21Z</time></trkpt><trkpt lat="45.47226927121329" lon="11.014669966477394"><ele>98.39999999999999</ele><time>2026-03-28T09:10:23Z</time></trkpt><trkpt lat="45.4723798652823" lon="11.014736655104018"><ele>99.6</ele><time>2026-03-28T09:10:25Z</time></trkpt><trkpt lat="45.47243889229578" lon="11.014777224676738"><ele>100.8</ele><time>2026-03-28T09:10:26Z</time></trkpt><trkpt lat="45.4725090760559" lon="11.0147656691903"><ele>102.0</ele><time>2026-03-28T09:10:28Z</time></trkpt><trkpt lat="45.472445361393675" lon="11.01473178716663"><ele>102.0</ele><time>2026-03-28T09:10:45.001Z</time></trkpt><trkpt lat="45.47236372190851" lon="11.014687804589071"><ele>102.0</ele><time>2026-03-28T09:10:48.001Z</time></trkpt><trkpt lat="45.47242170063874" lon="11.014726728373093"><ele>102.0</ele><time>2026-03-28T09:10:54.001Z</time></trkpt><trkpt lat="45.47245268927588" lon="11.014848795343783"><ele>102.0</ele><time>2026-03-28T09:10:55.001Z</time></trkpt><trkpt lat="45.4725143045655" lon="11.01490382204834"><ele>102.0</ele><time>2026-03-28T09:10:56.001Z</time></trkpt><trkpt lat="45.47259065038254" lon="11.014968110780663"><ele>102.0</ele><time>2026-03-28T09:10:57.001Z</time></trkpt><trkpt lat="45.47267523234314" lon="11.015028058995494"><ele>102.0</ele><time>2026-03-28T09:10:58.001Z</time></trkpt><trkpt lat="45.47278522758822" lon="11.015082186617965"><ele>102.0</ele><time>2026-03-28T09:10:59.001Z</time></trkpt><trkpt lat="45.47288378642976" lon="11.015146368770951"><ele>102.0</ele><time>2026-03-28T09:11:00.001Z</time></trkpt><trkpt lat="45.47298502572177" lon="11.01519285933638"><ele>102.0</ele><time>2026-03-28T09:11:01.001Z</time></trkpt><trkpt lat="45.473069723376234" lon="11.01522080639833"><ele>102.0</ele><time>2026-03-28T09:11:02.001Z</time></trkpt><trkpt lat="45.47314842853893" lon="11.015252129744464"><ele>102.0</ele><time>2026-03-28T09:11:03.001Z</time></trkpt><trkpt lat="45.473226708911774" lon="11.015287523681177"><ele>102.0</ele><time>2026-03-28T09:11:04.001Z</time></trkpt><trkpt lat="45.47329399163142" lon="11.015305885072548"><ele>102.0</ele><time>2026-03-28T09:11:05.001Z</time></trkpt><trkpt lat="45.47337897457432" lon="11.01531214364472"><ele>102.0</ele><time>2026-03-28T09:11:07.001Z</time></trkpt><trkpt lat="45.47345740519816" lon="11.01533819708397"><ele>102.0</ele><time>2026-03-28T09:11:09.001Z</time></trkpt><trkpt lat="45.47355558150245" lon="11.01533127916689"><ele>102.0</ele><time>2026-03-28T09:11:10.001Z</time></trkpt><trkpt lat="45.4736473323072" lon="11.015295522126488"><ele>102.0</ele><time>2026-03-28T09:11:11.001Z</time></trkpt><trkpt lat="45.473724665888575" lon="11.015221465218591"><ele>102.0</ele><time>2026-03-28T09:11:12.001Z</time></trkpt><trkpt lat="45.47377075599024" lon="11.015120300226515"><ele>102.0</ele><time>2026-03-28T09:11:13.001Z</time></trkpt><trkpt lat="45.47382192076975" lon="11.015028887353484"><ele>102.0</ele><time>2026-03-28T09:11:14.001Z</time></trkpt><trkpt lat="45.47390334954177" lon="11.014949074425946"><ele>102.0</ele><time>2026-03-28T09:11:15.001Z</time></trkpt><trkpt lat="45.47393302824354" lon="11.01473585740981"><ele>102.8</ele><time>2026-03-28T09:11:16.001Z</time></trkpt><trkpt lat="45.47396074301745" lon="11.014599552620671"><ele>103.6</ele><time>2026-03-28T09:11:17.001Z</time></trkpt><trkpt lat="45.47397263958318" lon="11.014439102486126"><ele>104.39999999999999</ele><time>2026-03-28T09:11:18.001Z</time></trkpt><trkpt lat="45.47398351982335" lon="11.014300205704728"><ele>105.19999999999999</ele><time>2026-03-28T09:11:19.001Z</time></trkpt><trkpt lat="45.47398465034105" lon="11.014195629371374"><ele>106.0</ele><time>2026-03-28T09:11:20.001Z</time></trkpt><trkpt lat="45.47400235711626" lon="11.014058326516864"><ele>108.19999999999999</ele><time>2026-03-28T09:11:22.001Z</time></trkpt><trkpt lat="45.474078687007434" lon="11.013952591900566"><ele>110.39999999999999</ele><time>2026-03-28T09:11:24.001Z</time></trkpt><trkpt lat="45.4741422653186" lon="11.013863521650773"><ele>112.6</ele><time>2026-03-28T09:11:25.001Z</time></trkpt><trkpt lat="45.4742058988325" lon="11.013782789001969"><ele>114.8</ele><time>2026-03-28T09:11:26.001Z</time></trkpt><trkpt lat="45.47428059001899" lon="11.01371566064728"><ele>117.0</ele><time>2026-03-28T09:11:27.001Z</time></trkpt><trkpt lat="45.474394368616665" lon="11.01363183876777"><ele>117.0</ele><time>2026-03-28T09:11:28.001Z</time></trkpt><trkpt lat="45.47447140118391" lon="11.013598485925016"><ele>117.0</ele><time>2026-03-28T09:11:29.001Z</time></trkpt><trkpt lat="45.474554779584786" lon="11.013595265278235"><ele>117.0</ele><time>2026-03-28T09:11:30.001Z</time></trkpt><trkpt lat="45.474655680374745" lon="11.013622182235903"><ele>117.0</ele><time>2026-03-28T09:11:31.001Z</time></trkpt><trkpt lat="45.47475601442867" lon="11.013620252864506"><ele>117.0</ele><time>2026-03-28T09:11:32.001Z</time></trkpt><trkpt lat="45.47483187237936" lon="11.013608179013563"><ele>117.0</ele><time>2026-03-28T09:11:33.001Z</time></trkpt><trkpt lat="45.47492362684814" lon="11.013621234992243"><ele>118.39999999999999</ele><time>2026-03-28T09:11:34.001Z</time></trkpt><trkpt lat="45.47501930666431" lon="11.013617765691004"><ele>119.79999999999998</ele><time>2026-03-28T09:11:35.001Z</time></trkpt><trkpt lat="45.4751276634845" lon="11.013616550580796"><ele>121.2</ele><time>2026-03-28T09:11:36.001Z</time></trkpt><trkpt lat="45.47522865534905" lon="11.013611629780273"><ele>122.6</ele><time>2026-03-28T09:11:37.001Z</time></trkpt><trkpt lat="45.47532674003879" lon="11.013605348494684"><ele>124.0</ele><time>2026-03-28T09:11:38.001Z</time></trkpt><trkpt lat="45.47542270343921" lon="11.013579329640221"><ele>125.6</ele><time>2026-03-28T09:11:39.001Z</time></trkpt><trkpt lat="45.47551838747426" lon="11.013523812533412"><ele>127.2</ele><time>2026-03-28T09:11:40.001Z</time></trkpt><trkpt lat="45.47560691219877" lon="11.013432144766334"><ele>128.79999999999998</ele><time>2026-03-28T09:11:41.001Z</time></trkpt><trkpt lat="45.475701204596746" lon="11.013366751439307"><ele>130.4</ele><time>2026-03-28T09:11:42.001Z</time></trkpt><trkpt lat="45.475788529967986" lon="11.013323412384139"><ele>132.0</ele><time>2026-03-28T09:11:43.001Z</time></trkpt><trkpt lat="45.475876691934005" lon="11.013329099897218"><ele>134.79999999999998</ele><time>2026-03-28T09:11:44.001Z</time></trkpt><trkpt lat="45.475960716312144" lon="11.013306724566501"><ele>137.6</ele><time>2026-03-28T09:11:45.001Z</time></trkpt><trkpt lat="45.476063639262925" lon="11.013303337639147"><ele>140.39999999999998</ele><time>2026-03-28T09:11:46.001Z</time></trkpt><trkpt lat="45.47617572663389" lon="11.013306806910164"><ele>143.2</ele><time>2026-03-28T09:11:47.001Z</time></trkpt><trkpt lat="45.47627273338812" lon="11.013332833306062"><ele>146.0</ele><time>2026-03-28T09:11:48.001Z</time></trkpt><trkpt lat="45.4763700017157" lon="11.013382597369231"><ele>146.0</ele><time>2026-03-28T09:11:49.001Z</time></trkpt><trkpt lat="45.4764550863824" lon="11.013447473856246"><ele>146.0</ele><time>2026-03-28T09:11:50.001Z</time></trkpt><trkpt lat="45.476529857389274" lon="11.013497812393041"><ele>146.0</ele><time>2026-03-28T09:11:51Z</time></trkpt><trkpt lat="45.476605548081096" lon="11.013549943501566"><ele>146.0</ele><time>2026-03-28T09:11:52Z</time></trkpt><trkpt lat="45.476692590720106" lon="11.013580591100903"><ele>146.0</ele><time>2026-03-28T09:11:53Z</time></trkpt><trkpt lat="45.47676791149902" lon="11.013575492587986"><ele>146.0</ele><time>2026-03-28T09:11:54Z</time></trkpt><trkpt lat="45.476849367060176" lon="11.01355589856394"><ele>146.0</ele><time>2026-03-28T09:11:55Z</time></trkpt><trkpt lat="45.47693457139207" lon="11.01351147338317"><ele>146.0</ele><time>2026-03-28T09:11:56Z</time></trkpt><trkpt lat="45.47702621215044" lon="11.013506735485858"><ele>146.0</ele><time>2026-03-28T09:11:57Z</time></trkpt><trkpt lat="45.47711633970931" lon="11.013494231363019"><ele>146.0</ele><time>2026-03-28T09:11:58Z</time></trkpt><trkpt lat="45.47721600042986" lon="11.013491969782072"><ele>146.0</ele><time>2026-03-28T09:11:59Z</time></trkpt><trkpt lat="45.47731939752393" lon="11.013490893527292"><ele>148.2</ele><time>2026-03-28T09:12:00Z</time></trkpt><trkpt lat="45.477418792477586" lon="11.013472134129143"><ele>150.39999999999998</ele><time>2026-03-28T09:12:01Z</time></trkpt><trkpt lat="45.47751150662961" lon="11.013474901868658"><ele>152.6</ele><time>2026-03-28T09:12:02Z</time></trkpt><trkpt lat="45.47759751716232" lon="11.01347193660438"><ele>154.79999999999998</ele><time>2026-03-28T09:12:03Z</time></trkpt><trkpt lat="45.47769056414581" lon="11.01344053787839"><ele>157.0</ele><time>2026-03-28T09:12:04Z</time></trkpt><trkpt lat="45.47777911642211" lon="11.013399080092631"><ele>157.0</ele><time>2026-03-28T09:12:05Z</time></trkpt><trkpt lat="45.47786081178366" lon="11.01334772274167"><ele>157.0</ele><time>2026-03-28T09:12:06Z</time></trkpt><trkpt lat="45.47794204152208" lon="11.01328148570775"><ele>157.0</ele><time>2026-03-28T09:12:07Z</time></trkpt><trkpt lat="45.47801443843852" lon="11.013192384964507"><ele>157.0</ele><time>2026-03-28T09:12:08Z</time></trkpt><trkpt lat="45.47809874659732" lon="11.013107747890043"><ele>157.0</ele><time>2026-03-28T09:12:09Z</time></trkpt><trkpt lat="45.47817436144134" lon="11.013022960302935"><ele>159.66666666666669</ele><time>2026-03-28T09:12:10Z</time></trkpt><trkpt lat="45.47824081337425" lon="11.01295364618717"><ele>162.33333333333334</ele><time>2026-03-28T09:12:11Z</time></trkpt><trkpt lat="45.478312920568875" lon="11.012885026749997"><ele>165.0</ele><time>2026-03-28T09:12:12Z</time></trkpt><trkpt lat="45.47839052234634" lon="11.012824729607095"><ele>167.66666666666666</ele><time>2026-03-28T09:12:13Z</time></trkpt><trkpt lat="45.47847655998874" lon="11.012784473238948"><ele>170.33333333333331</ele><time>2026-03-28T09:12:14Z</time></trkpt><trkpt lat="45.478570964711594" lon="11.012756578698275"><ele>173.0</ele><time>2026-03-28T09:12:15Z</time></trkpt><trkpt lat="45.478652190109855" lon="11.012735115614788"><ele>173.0</ele><time>2026-03-28T09:12:16Z</time></trkpt><trkpt lat="45.4787216648487" lon="11.012716642166614"><ele>173.0</ele><time>2026-03-28T09:12:17Z</time></trkpt><trkpt lat="45.4788206898486" lon="11.01269835108937"><ele>173.0</ele><time>2026-03-28T09:12:19Z</time></trkpt><trkpt lat="45.47890610479628" lon="11.012698360375301"><ele>173.0</ele><time>2026-03-28T09:12:21Z</time></trkpt><trkpt lat="45.4790174758243" lon="11.012698360362394"><ele>173.0</ele><time>2026-03-28T09:12:23Z</time></trkpt><trkpt lat="45.47911967013214" lon="11.012691112503221"><ele>180.75</ele><time>2026-03-28T09:12:25Z</time></trkpt><trkpt lat="45.47917368792422" lon="11.012337359808637"><ele>188.5</ele><time>2026-03-28T09:12:26Z</time></trkpt><trkpt lat="45.47923065923861" lon="11.01227517475181"><ele>196.25</ele><time>2026-03-28T09:12:27Z</time></trkpt><trkpt lat="45.47928801654743" lon="11.012206630218897"><ele>204.0</ele><time>2026-03-28T09:12:28Z</time></trkpt><trkpt lat="45.47935473548226" lon="11.012145468369564"><ele>204.0</ele><time>2026-03-28T09:12:29Z</time></trkpt><trkpt lat="45.479478882460306" lon="11.012058026783928"><ele>204.0</ele><time>2026-03-28T09:12:31Z</time></trkpt><trkpt lat="45.4795514219532" lon="11.01202752130087"><ele>204.0</ele><time>2026-03-28T09:12:32Z</time></trkpt><trkpt lat="45.47962530898552" lon="11.011996871800795"><ele>204.0</ele><time>2026-03-28T09:12:33Z</time></trkpt><trkpt lat="45.47970236231871" lon="11.01195373721399"><ele>204.0</ele><time>2026-03-28T09:12:35Z</time></trkpt><trkpt lat="45.479747689606604" lon="11.01188174781778"><ele>204.0</ele><time>2026-03-28T09:12:38Z</time></trkpt><trkpt lat="45.47976946785533" lon="11.011781334919498"><ele>204.16666666666666</ele><time>2026-03-28T09:12:41Z</time></trkpt><trkpt lat="45.47978410379841" lon="11.011668569921623"><ele>204.33333333333331</ele><time>2026-03-28T09:12:49.001Z</time></trkpt><trkpt lat="45.479811148783966" lon="11.011545568476352"><ele>204.5</ele><time>2026-03-28T09:13:04.001Z</time></trkpt><trkpt lat="45.4797929528256" lon="11.01144866998237"><ele>204.66666666666666</ele><time>2026-03-28T09:16:47.001Z</time></trkpt><trkpt lat="45.479897440225855" lon="11.011370379777553"><ele>204.83333333333331</ele><time>2026-03-28T09:19:17.001Z</time></trkpt><trkpt lat="45.47997530531876" lon="11.011342578788168"><ele>205.0</ele><time>2026-03-28T09:23:04.001Z</time></trkpt><trkpt lat="45.48003949547883" lon="11.01129484031385"><ele>208.83333333333331</ele><time>2026-03-28T09:23:08.001Z</time></trkpt><trkpt lat="45.48011412079502" lon="11.011247433392338"><ele>212.66666666666666</ele><time>2026-03-28T09:23:11.001Z</time></trkpt><trkpt lat="45.480177922155505" lon="11.01117881252143"><ele>216.5</ele><time>2026-03-28T09:23:13.001Z</time></trkpt><trkpt lat="45.48024629680492" lon="11.011103909578871"><ele>220.33333333333331</ele><time>2026-03-28T09:23:16.001Z</time></trkpt><trkpt lat="45.48030412290464" lon="11.011045364137113"><ele>224.16666666666666</ele><time>2026-03-28T09:23:18.001Z</time></trkpt><trkpt lat="45.48038925756387" lon="11.010988932952356"><ele>228.0</ele><time>2026-03-28T09:23:20.001Z</time></trkpt><trkpt lat="45.48047213305251" lon="11.010933321970347"><ele>228.0</ele><time>2026-03-28T09:23:22.001Z</time></trkpt><trkpt lat="45.48052755834895" lon="11.010843323137413"><ele>228.0</ele><time>2026-03-28T09:23:24.001Z</time></trkpt><trkpt lat="45.48056076320631" lon="11.010753583160728"><ele>228.0</ele><time>2026-03-28T09:23:27.001Z</time></trkpt><trkpt lat="45.48062603610861" lon="11.010623004615294"><ele>228.0</ele><time>2026-03-28T09:23:29.001Z</time></trkpt><trkpt lat="45.4807120307881" lon="11.010612858272658"><ele>228.0</ele><time>2026-03-28T09:23:31.001Z</time></trkpt><trkpt lat="45.48077840415777" lon="11.010579262251223"><ele>228.0</ele><time>2026-03-28T09:23:32.001Z</time></trkpt><trkpt lat="45.48087580927122" lon="11.010517365380041"><ele>231.8</ele><time>2026-03-28T09:23:34.001Z</time></trkpt><trkpt lat="45.48095945974059" lon="11.010426978713202"><ele>235.60000000000002</ele><time>2026-03-28T09:23:36.001Z</time></trkpt><trkpt lat="45.481044016645164" lon="11.010334801175492"><ele>239.39999999999998</ele><time>2026-03-28T09:23:38.001Z</time></trkpt><trkpt lat="45.48112053719534" lon="11.010279297467978"><ele>243.2</ele><time>2026-03-28T09:23:40.001Z</time></trkpt><trkpt lat="45.48120266032267" lon="11.0101846375433"><ele>247.0</ele><time>2026-03-28T09:23:44.001Z</time></trkpt><trkpt lat="45.481289087630834" lon="11.010074098903566"><ele>247.0</ele><time>2026-03-28T09:23:46.001Z</time></trkpt><trkpt lat="45.481343625765" lon="11.010014970187491"><ele>247.0</ele><time>2026-03-28T09:23:47.001Z</time></trkpt><trkpt lat="45.481469771071744" lon="11.009981497734083"><ele>247.0</ele><time>2026-03-28T09:23:49.001Z</time></trkpt><trkpt lat="45.48154197898921" lon="11.00997143151721"><ele>247.0</ele><time>2026-03-28T09:23:50.001Z</time></trkpt><trkpt lat="45.48164306308752" lon="11.009890151203088"><ele>247.0</ele><time>2026-03-28T09:23:52.001Z</time></trkpt><trkpt lat="45.48169160383654" lon="11.009808505211485"><ele>252.33333333333331</ele><time>2026-03-28T09:23:53.001Z</time></trkpt><trkpt lat="45.48175391138107" lon="11.009678440862752"><ele>257.66666666666663</ele><time>2026-03-28T09:23:55.001Z</time></trkpt><trkpt lat="45.48179398693692" lon="11.009578960939473"><ele>263.0</ele><time>2026-03-28T09:23:57.001Z</time></trkpt><trkpt lat="45.481857547815075" lon="11.009488351513752"><ele>268.3333333333333</ele><time>2026-03-28T09:23:58.001Z</time></trkpt><trkpt lat="45.48189917639886" lon="11.009403637407683"><ele>273.6666666666667</ele><time>2026-03-28T09:23:59.001Z</time></trkpt><trkpt lat="45.481945456969264" lon="11.00931838162307"><ele>279.0</ele><time>2026-03-28T09:24:00.001Z</time></trkpt><trkpt lat="45.48201254557109" lon="11.009180723845557"><ele>280.5</ele><time>2026-03-28T09:24:02.001Z</time></trkpt><trkpt lat="45.482067110038685" lon="11.009082429765668"><ele>282.0</ele><time>2026-03-28T09:24:05.001Z</time></trkpt><trkpt lat="45.482144260147194" lon="11.009001731552239"><ele>283.5</ele><time>2026-03-28T09:24:07.001Z</time></trkpt><trkpt lat="45.48218022872057" lon="11.008891580608672"><ele>285.0</ele><time>2026-03-28T09:24:11.001Z</time></trkpt><trkpt lat="45.48221994204889" lon="11.008795075064155"><ele>286.5</ele><time>2026-03-28T09:24:15.001Z</time></trkpt><trkpt lat="45.48226844941746" lon="11.008701639943391"><ele>288.0</ele><time>2026-03-28T09:24:19.001Z</time></trkpt><trkpt lat="45.48227530655492" lon="11.00859030010487"><ele>288.0</ele><time>2026-03-28T09:24:23.001Z</time></trkpt><trkpt lat="45.48232759687236" lon="11.008472751279571"><ele>288.0</ele><time>2026-03-28T09:25:11Z</time></trkpt><trkpt lat="45.48233605038964" lon="11.008337836456798"><ele>288.0</ele><time>2026-03-28T09:25:15Z</time></trkpt><trkpt lat="45.48229491702551" lon="11.008233941579897"><ele>288.0</ele><time>2026-03-28T09:25:17Z</time></trkpt><trkpt lat="45.48232301926632" lon="11.008068973705093"><ele>288.0</ele><time>2026-03-28T09:25:36Z</time></trkpt><trkpt lat="45.48237178253723" lon="11.007997329262517"><ele>289.2</ele><time>2026-03-28T09:25:38Z</time></trkpt><trkpt lat="45.482310824380484" lon="11.007953856566456"><ele>290.4</ele><time>2026-03-28T09:25:42.001Z</time></trkpt><trkpt lat="45.48224675538658" lon="11.007859688207235"><ele>291.59999999999997</ele><time>2026-03-28T09:25:45.001Z</time></trkpt><trkpt lat="45.48217300259676" lon="11.00776019834491"><ele>292.8</ele><time>2026-03-28T09:25:48.001Z</time></trkpt><trkpt lat="45.482196850231254" lon="11.007653928036516"><ele>294.0</ele><time>2026-03-28T09:25:50.001Z</time></trkpt><trkpt lat="45.48232701630759" lon="11.007643198681645"><ele>294.0</ele><time>2026-03-28T09:25:52.001Z</time></trkpt><trkpt lat="45.48241198511949" lon="11.007614852485917"><ele>294.0</ele><time>2026-03-28T09:25:53.001Z</time></trkpt><trkpt lat="45.482510383332404" lon="11.007574656744618"><ele>294.0</ele><time>2026-03-28T09:25:54.001Z</time></trkpt><trkpt lat="45.48260771040705" lon="11.007530136873429"><ele>294.0</ele><time>2026-03-28T09:25:55.001Z</time></trkpt><trkpt lat="45.48268244237698" lon="11.007524999495816"><ele>294.0</ele><time>2026-03-28T09:25:56.001Z</time></trkpt><trkpt lat="45.48275071227266" lon="11.0075367678529"><ele>294.0</ele><time>2026-03-28T09:25:57.001Z</time></trkpt><trkpt lat="45.48282653559266" lon="11.007561289578527"><ele>294.0</ele><time>2026-03-28T09:25:58.001Z</time></trkpt><trkpt lat="45.48292109404943" lon="11.00759659855782"><ele>294.0</ele><time>2026-03-28T09:25:59.001Z</time></trkpt><trkpt lat="45.48301719928757" lon="11.007634541439325"><ele>294.0</ele><time>2026-03-28T09:26:00.001Z</time></trkpt><trkpt lat="45.48310166859959" lon="11.007661604828197"><ele>294.0</ele><time>2026-03-28T09:26:01.001Z</time></trkpt><trkpt lat="45.48318346101122" lon="11.007680424633689"><ele>294.0</ele><time>2026-03-28T09:26:02.001Z</time></trkpt><trkpt lat="45.48326861549207" lon="11.007700642516774"><ele>294.4</ele><time>2026-03-28T09:26:03.001Z</time></trkpt><trkpt lat="45.4833740548712" lon="11.007711625922747"><ele>294.79999999999995</ele><time>2026-03-28T09:26:04.001Z</time></trkpt><trkpt lat="45.48348273758001" lon="11.007703364760994"><ele>295.20000000000005</ele><time>2026-03-28T09:26:05.001Z</time></trkpt><trkpt lat="45.48357379481527" lon="11.007665762196677"><ele>295.6</ele><time>2026-03-28T09:26:06.001Z</time></trkpt><trkpt lat="45.48365915899691" lon="11.007606301420626"><ele>296.0</ele><time>2026-03-28T09:26:07.001Z</time></trkpt><trkpt lat="45.48375618789223" lon="11.00752380269938"><ele>294.75</ele><time>2026-03-28T09:26:08.001Z</time></trkpt><trkpt lat="45.48387439856491" lon="11.007428316031657"><ele>293.5</ele><time>2026-03-28T09:26:09.001Z</time></trkpt><trkpt lat="45.483994529650175" lon="11.007325385918508"><ele>292.25</ele><time>2026-03-28T09:26:10.001Z</time></trkpt><trkpt lat="45.48410243733501" lon="11.007256085617561"><ele>291.0</ele><time>2026-03-28T09:26:11.001Z</time></trkpt><trkpt lat="45.48419445936611" lon="11.00719660002574"><ele>291.0</ele><time>2026-03-28T09:26:12.001Z</time></trkpt><trkpt lat="45.48427581606163" lon="11.007131871573382"><ele>291.0</ele><time>2026-03-28T09:26:13.001Z</time></trkpt><trkpt lat="45.484336545870754" lon="11.007060233209621"><ele>291.0</ele><time>2026-03-28T09:26:14.001Z</time></trkpt><trkpt lat="45.48437957022133" lon="11.006982453321452"><ele>291.0</ele><time>2026-03-28T09:26:15.001Z</time></trkpt><trkpt lat="45.48441894577527" lon="11.006871673956066"><ele>291.0</ele><time>2026-03-28T09:26:16.001Z</time></trkpt><trkpt lat="45.48442965344979" lon="11.006720640226144"><ele>291.0</ele><time>2026-03-28T09:26:17.001Z</time></trkpt><trkpt lat="45.484453145358984" lon="11.006564137201922"><ele>288.5</ele><time>2026-03-28T09:26:18.001Z</time></trkpt><trkpt lat="45.48449085002596" lon="11.00639581557615"><ele>286.0</ele><time>2026-03-28T09:26:19.001Z</time></trkpt><trkpt lat="45.48454316614582" lon="11.006211670248927"><ele>283.5</ele><time>2026-03-28T09:26:20.001Z</time></trkpt><trkpt lat="45.48460158112451" lon="11.006016029232846"><ele>281.0</ele><time>2026-03-28T09:26:21.001Z</time></trkpt><trkpt lat="45.48466392238002" lon="11.005842745735372"><ele>282.40000000000003</ele><time>2026-03-28T09:26:22.001Z</time></trkpt><trkpt lat="45.484726050625014" lon="11.005709186422008"><ele>283.8</ele><time>2026-03-28T09:26:23.001Z</time></trkpt><trkpt lat="45.48479942262258" lon="11.005578302080478"><ele>285.20000000000005</ele><time>2026-03-28T09:26:24.001Z</time></trkpt><trkpt lat="45.48487442671345" lon="11.005451630606053"><ele>286.6</ele><time>2026-03-28T09:26:25.001Z</time></trkpt><trkpt lat="45.48495208042553" lon="11.005363885320103"><ele>288.0</ele><time>2026-03-28T09:26:26.001Z</time></trkpt><trkpt lat="45.485018892335454" lon="11.005305594337203"><ele>288.0</ele><time>2026-03-28T09:26:27.001Z</time></trkpt><trkpt lat="45.485095068612694" lon="11.005271755513185"><ele>288.0</ele><time>2026-03-28T09:26:28.001Z</time></trkpt><trkpt lat="45.48518775236838" lon="11.00523945916186"><ele>288.0</ele><time>2026-03-28T09:26:29.001Z</time></trkpt><trkpt lat="45.485279664836455" lon="11.005209179587759"><ele>288.0</ele><time>2026-03-28T09:26:30.001Z</time></trkpt><trkpt lat="45.48537846599635" lon="11.005161558840705"><ele>288.0</ele><time>2026-03-28T09:26:31.001Z</time></trkpt><trkpt lat="45.48547090390813" lon="11.00511960963788"><ele>287.0</ele><time>2026-03-28T09:26:32.001Z</time></trkpt><trkpt lat="45.485565103119455" lon="11.00507877186426"><ele>286.0</ele><time>2026-03-28T09:26:33Z</time></trkpt><trkpt lat="45.485667000232475" lon="11.005040807090333"><ele>285.0</ele><time>2026-03-28T09:26:34Z</time></trkpt><trkpt lat="45.48576657511485" lon="11.004996615047437"><ele>284.0</ele><time>2026-03-28T09:26:35Z</time></trkpt><trkpt lat="45.48585823633987" lon="11.00495765031281"><ele>283.0</ele><time>2026-03-28T09:26:36Z</time></trkpt><trkpt lat="45.48594042105125" lon="11.00493341978925"><ele>283.0</ele><time>2026-03-28T09:26:37Z</time></trkpt><trkpt lat="45.486015577888836" lon="11.004889602901947"><ele>283.0</ele><time>2026-03-28T09:26:38Z</time></trkpt><trkpt lat="45.48611504259834" lon="11.004848253737606"><ele>283.0</ele><time>2026-03-28T09:26:39Z</time></trkpt><trkpt lat="45.486215382130204" lon="11.00480434528919"><ele>283.0</ele><time>2026-03-28T09:26:40Z</time></trkpt><trkpt lat="45.486324732663114" lon="11.004742388825244"><ele>283.0</ele><time>2026-03-28T09:26:41Z</time></trkpt><trkpt lat="45.48644154418371" lon="11.004689132726183"><ele>285.5</ele><time>2026-03-28T09:26:42Z</time></trkpt><trkpt lat="45.48654893811982" lon="11.004646523324059"><ele>288.0</ele><time>2026-03-28T09:26:43Z</time></trkpt><trkpt lat="45.48663977650466" lon="11.00461611731554"><ele>290.5</ele><time>2026-03-28T09:26:44Z</time></trkpt><trkpt lat="45.48671554618662" lon="11.004595889670044"><ele>293.0</ele><time>2026-03-28T09:26:45Z</time></trkpt><trkpt lat="45.48680075499229" lon="11.004671281271879"><ele>295.5</ele><time>2026-03-28T09:26:47Z</time></trkpt><trkpt lat="45.48681271734524" lon="11.004760895330492"><ele>298.0</ele><time>2026-03-28T09:26:48Z</time></trkpt><trkpt lat="45.486815317877735" lon="11.004864424055887"><ele>298.0</ele><time>2026-03-28T09:26:49Z</time></trkpt><trkpt lat="45.48683768229682" lon="11.00495502142911"><ele>298.0</ele><time>2026-03-28T09:26:50Z</time></trkpt><trkpt lat="45.48688692367829" lon="11.005015547698973"><ele>298.0</ele><time>2026-03-28T09:26:51Z</time></trkpt><trkpt lat="45.48694597228541" lon="11.005052771194832"><ele>298.0</ele><time>2026-03-28T09:26:52Z</time></trkpt><trkpt lat="45.487016938488814" lon="11.005025889636372"><ele>298.0</ele><time>2026-03-28T09:26:54Z</time></trkpt><trkpt lat="45.48707508524072" lon="11.004978078119846"><ele>298.0</ele><time>2026-03-28T09:26:56Z</time></trkpt><trkpt lat="45.48715535403692" lon="11.005029545753208"><ele>298.0</ele><time>2026-03-28T09:27:03Z</time></trkpt><trkpt lat="45.487220907905055" lon="11.005102061764275"><ele>299.85714285714283</ele><time>2026-03-28T09:27:05Z</time></trkpt><trkpt lat="45.4872879675408" lon="11.005153013194239"><ele>301.71428571428567</ele><time>2026-03-28T09:27:07Z</time></trkpt><trkpt lat="45.48734990045282" lon="11.00522460298733"><ele>303.57142857142856</ele><time>2026-03-28T09:27:09Z</time></trkpt><trkpt lat="45.487385657304785" lon="11.005300020417831"><ele>305.42857142857144</ele><time>2026-03-28T09:27:11Z</time></trkpt><trkpt lat="45.487448338089145" lon="11.005279222623148"><ele>307.28571428571433</ele><time>2026-03-28T09:27:22Z</time></trkpt><trkpt lat="45.487528182610305" lon="11.005303454535238"><ele>309.1428571428571</ele><time>2026-03-28T09:27:31Z</time></trkpt><trkpt lat="45.48759915669212" lon="11.005329713085633"><ele>311.0</ele><time>2026-03-28T09:27:43Z</time></trkpt><trkpt lat="45.48767516383819" lon="11.005313253863397"><ele>311.0</ele><time>2026-03-28T09:27:49Z</time></trkpt><trkpt lat="45.487745218428465" lon="11.005273374778215"><ele>311.0</ele><time>2026-03-28T09:27:51Z</time></trkpt><trkpt lat="45.487822136726635" lon="11.005305573835503"><ele>311.0</ele><time>2026-03-28T09:28:45.999Z</time></trkpt><trkpt lat="45.48798332497211" lon="11.005283909936896"><ele>311.0</ele><time>2026-03-28T09:28:51.999Z</time></trkpt><trkpt lat="45.48804484172613" lon="11.005194622678314"><ele>311.0</ele><time>2026-03-28T09:28:55.999Z</time></trkpt><trkpt lat="45.488106773954286" lon="11.005143403018502"><ele>313.5</ele><time>2026-03-28T09:29:03Z</time></trkpt><trkpt lat="45.48818608566676" lon="11.005061555799085"><ele>316.0</ele><time>2026-03-28T09:29:07Z</time></trkpt><trkpt lat="45.488247948154594" lon="11.00497708520328"><ele>318.5</ele><time>2026-03-28T09:29:09Z</time></trkpt><trkpt lat="45.48831084287431" lon="11.00489072826216"><ele>321.0</ele><time>2026-03-28T09:29:10Z</time></trkpt><trkpt lat="45.48836069358832" lon="11.004808799699664"><ele>323.5</ele><time>2026-03-28T09:29:12Z</time></trkpt><trkpt lat="45.48842181651513" lon="11.004764620063009"><ele>326.0</ele><time>2026-03-28T09:29:14Z</time></trkpt><trkpt lat="45.48850637054642" lon="11.004727344233014"><ele>326.1666666666667</ele><time>2026-03-28T09:29:16Z</time></trkpt><trkpt lat="45.48857939120716" lon="11.004689122601956"><ele>326.33333333333337</ele><time>2026-03-28T09:29:18Z</time></trkpt><trkpt lat="45.48866213981031" lon="11.004731342874209"><ele>326.5</ele><time>2026-03-28T09:29:21Z</time></trkpt><trkpt lat="45.4887492956212" lon="11.004812898178889"><ele>326.6666666666667</ele><time>2026-03-28T09:29:23Z</time></trkpt><trkpt lat="45.48881077259493" lon="11.004855068234528"><ele>326.8333333333333</ele><time>2026-03-28T09:29:25Z</time></trkpt><trkpt lat="45.48889151138698" lon="11.004844881575861"><ele>327.0</ele><time>2026-03-28T09:29:27Z</time></trkpt><trkpt lat="45.48899196710489" lon="11.004835064863993"><ele>327.8333333333333</ele><time>2026-03-28T09:29:29Z</time></trkpt><trkpt lat="45.48907341140549" lon="11.004896565525746"><ele>328.6666666666667</ele><time>2026-03-28T09:29:31Z</time></trkpt><trkpt lat="45.48913679739215" lon="11.004975830609931"><ele>329.5</ele><time>2026-03-28T09:29:33Z</time></trkpt><trkpt lat="45.48920173636645" lon="11.004946693998178"><ele>330.33333333333337</ele><time>2026-03-28T09:29:36Z</time></trkpt><trkpt lat="45.489264460610976" lon="11.004914828043184"><ele>331.1666666666667</ele><time>2026-03-28T09:29:42Z</time></trkpt><trkpt lat="45.489334445532734" lon="11.00496011779934"><ele>332.0</ele><time>2026-03-28T09:29:44Z</time></trkpt><trkpt lat="45.48938052633964" lon="11.005039387560366"><ele>332.0</ele><time>2026-03-28T09:29:46Z</time></trkpt><trkpt lat="45.4894634467185" lon="11.005058999338189"><ele>332.0</ele><time>2026-03-28T09:29:48Z</time></trkpt><trkpt lat="45.48949279937003" lon="11.005147912001604"><ele>332.0</ele><time>2026-03-28T09:29:50Z</time></trkpt><trkpt lat="45.48953608193213" lon="11.00525973054395"><ele>332.0</ele><time>2026-03-28T09:29:52Z</time></trkpt><trkpt lat="45.4895166872459" lon="11.00535157055948"><ele>332.0</ele><time>2026-03-28T09:29:55Z</time></trkpt><trkpt lat="45.489537697204945" lon="11.005455549705664"><ele>332.0</ele><time>2026-03-28T09:29:58Z</time></trkpt><trkpt lat="45.489558849746075" lon="11.005573740046165"><ele>332.0</ele><time>2026-03-28T09:30:01Z</time></trkpt><trkpt lat="45.48956329233638" lon="11.005668182531005"><ele>332.0</ele><time>2026-03-28T09:30:07Z</time></trkpt><trkpt lat="45.48946044797594" lon="11.005689628861253"><ele>332.0</ele><time>2026-03-28T09:30:18Z</time></trkpt><trkpt lat="45.48935941477993" lon="11.00571241977409"><ele>332.0</ele><time>2026-03-28T09:30:20Z</time></trkpt><trkpt lat="45.48929279149049" lon="11.005724124343386"><ele>332.0</ele><time>2026-03-28T09:30:21Z</time></trkpt><trkpt lat="45.48922819453748" lon="11.005749745128972"><ele>332.0</ele><time>2026-03-28T09:30:22.001Z</time></trkpt><trkpt lat="45.48915445914106" lon="11.00577371648693"><ele>332.0</ele><time>2026-03-28T09:30:23.001Z</time></trkpt><trkpt lat="45.48907411453791" lon="11.00579102098909"><ele>332.0</ele><time>2026-03-28T09:30:24.001Z</time></trkpt><trkpt lat="45.48900352043435" lon="11.005791868820323"><ele>332.0</ele><time>2026-03-28T09:30:25.001Z</time></trkpt><trkpt lat="45.48893282698647" lon="11.005796643083803"><ele>332.0</ele><time>2026-03-28T09:30:26.001Z</time></trkpt><trkpt lat="45.488860924330254" lon="11.005813499821762"><ele>332.0</ele><time>2026-03-28T09:30:27.001Z</time></trkpt><trkpt lat="45.4887938055524" lon="11.005811533732071"><ele>332.0</ele><time>2026-03-28T09:30:28.001Z</time></trkpt><trkpt lat="45.48872831413859" lon="11.0058190118247"><ele>332.0</ele><time>2026-03-28T09:30:29.001Z</time></trkpt><trkpt lat="45.48866112558974" lon="11.00580369522611"><ele>331.0</ele><time>2026-03-28T09:30:30.001Z</time></trkpt><trkpt lat="45.488595723073296" lon="11.005823501258138"><ele>330.0</ele><time>2026-03-28T09:30:31.001Z</time></trkpt><trkpt lat="45.488516265302444" lon="11.005801475374076"><ele>329.0</ele><time>2026-03-28T09:30:32.001Z</time></trkpt><trkpt lat="45.488421763224146" lon="11.005800632454314"><ele>328.0</ele><time>2026-03-28T09:30:33.001Z</time></trkpt><trkpt lat="45.48832404635355" lon="11.005803394567245"><ele>327.0</ele><time>2026-03-28T09:30:34.001Z</time></trkpt><trkpt lat="45.488243444975275" lon="11.00580585888642"><ele>326.0</ele><time>2026-03-28T09:30:35.001Z</time></trkpt><trkpt lat="45.48816796016684" lon="11.005819150203234"><ele>326.0</ele><time>2026-03-28T09:30:36.001Z</time></trkpt><trkpt lat="45.48809801262056" lon="11.005802145029833"><ele>326.0</ele><time>2026-03-28T09:30:37.001Z</time></trkpt><trkpt lat="45.48803146065324" lon="11.00580243568689"><ele>326.0</ele><time>2026-03-28T09:30:38.001Z</time></trkpt><trkpt lat="45.48791760048972" lon="11.005785965216734"><ele>326.0</ele><time>2026-03-28T09:30:40.001Z</time></trkpt><trkpt lat="45.48779974342046" lon="11.005753445433486"><ele>326.0</ele><time>2026-03-28T09:30:42.001Z</time></trkpt><trkpt lat="45.48768449538319" lon="11.005680741556727"><ele>323.5</ele><time>2026-03-28T09:30:44.001Z</time></trkpt><trkpt lat="45.48762712681987" lon="11.005620764973632"><ele>321.0</ele><time>2026-03-28T09:30:44.998Z</time></trkpt><trkpt lat="45.48751633159851" lon="11.005514185330536"><ele>318.5</ele><time>2026-03-28T09:30:46.998Z</time></trkpt><trkpt lat="45.48747943019099" lon="11.005438944772617"><ele>316.0</ele><time>2026-03-28T09:30:47.998Z</time></trkpt><trkpt lat="45.48747536934373" lon="11.005346655486521"><ele>313.5</ele><time>2026-03-28T09:30:49.999Z</time></trkpt><trkpt lat="45.48749450623742" lon="11.00544415118958"><ele>311.0</ele><time>2026-03-28T09:33:22Z</time></trkpt><trkpt lat="45.48762332970787" lon="11.005368763909892"><ele>311.0</ele><time>2026-03-28T09:33:30Z</time></trkpt><trkpt lat="45.48771465601236" lon="11.005352541397727"><ele>311.0</ele><time>2026-03-28T09:33:36Z</time></trkpt><trkpt lat="45.487784995332255" lon="11.005346902982321"><ele>311.0</ele><time>2026-03-28T09:33:39.001Z</time></trkpt><trkpt lat="45.48786258885505" lon="11.00538448699112"><ele>311.0</ele><time>2026-03-28T09:33:46.001Z</time></trkpt><trkpt lat="45.48793251671684" lon="11.005352690999244"><ele>311.0</ele><time>2026-03-28T09:33:49.001Z</time></trkpt><trkpt lat="45.487981215983616" lon="11.005279767290196"><ele>311.0</ele><time>2026-03-28T09:33:52.001Z</time></trkpt><trkpt lat="45.48803935935836" lon="11.005216634706775"><ele>313.5</ele><time>2026-03-28T09:33:55.001Z</time></trkpt><trkpt lat="45.488094943699906" lon="11.005158126807322"><ele>316.0</ele><time>2026-03-28T09:33:58.001Z</time></trkpt><trkpt lat="45.488148610068386" lon="11.00509200603396"><ele>318.5</ele><time>2026-03-28T09:34:02.001Z</time></trkpt><trkpt lat="45.488203701604874" lon="11.005033820600312"><ele>321.0</ele><time>2026-03-28T09:34:05.001Z</time></trkpt><trkpt lat="45.48826242825208" lon="11.004933321725318"><ele>323.5</ele><time>2026-03-28T09:34:08.001Z</time></trkpt><trkpt lat="45.48832901488923" lon="11.004856295231118"><ele>326.0</ele><time>2026-03-28T09:34:11.001Z</time></trkpt><trkpt lat="45.488409774360775" lon="11.00479115562399"><ele>326.1666666666667</ele><time>2026-03-28T09:34:14.001Z</time></trkpt><trkpt lat="45.48850614524122" lon="11.004749800056892"><ele>326.33333333333337</ele><time>2026-03-28T09:34:16.001Z</time></trkpt><trkpt lat="45.48857990195679" lon="11.004746301685042"><ele>326.5</ele><time>2026-03-28T09:34:18.001Z</time></trkpt><trkpt lat="45.488650049217185" lon="11.004793708221163"><ele>326.6666666666667</ele><time>2026-03-28T09:34:20.001Z</time></trkpt><trkpt lat="45.488732080296835" lon="11.004862580372379"><ele>326.8333333333333</ele><time>2026-03-28T09:34:22.001Z</time></trkpt><trkpt lat="45.48881074543568" lon="11.004865403629188"><ele>327.0</ele><time>2026-03-28T09:34:24.001Z</time></trkpt><trkpt lat="45.48890865495743" lon="11.00483193497462"><ele>327.8333333333333</ele><time>2026-03-28T09:34:26.001Z</time></trkpt><trkpt lat="45.488996205423916" lon="11.004882835818945"><ele>328.6666666666667</ele><time>2026-03-28T09:34:28.001Z</time></trkpt><trkpt lat="45.489088055492985" lon="11.004942370053264"><ele>329.5</ele><time>2026-03-28T09:34:30.001Z</time></trkpt><trkpt lat="45.48916108334178" lon="11.004970922792673"><ele>330.33333333333337</ele><time>2026-03-28T09:34:34.001Z</time></trkpt><trkpt lat="45.48923329061629" lon="11.004922418978815"><ele>331.1666666666667</ele><time>2026-03-28T09:34:36.001Z</time></trkpt><trkpt lat="45.4893072236194" lon="11.00496304517739"><ele>332.0</ele><time>2026-03-28T09:34:38.001Z</time></trkpt><trkpt lat="45.48934291947538" lon="11.005040660535188"><ele>332.0</ele><time>2026-03-28T09:34:40.001Z</time></trkpt><trkpt lat="45.48941422594782" lon="11.005062757815363"><ele>332.0</ele><time>2026-03-28T09:34:42.001Z</time></trkpt><trkpt lat="45.48947442135233" lon="11.005173439477069"><ele>332.0</ele><time>2026-03-28T09:34:45.001Z</time></trkpt><trkpt lat="45.489516122508576" lon="11.005269221471071"><ele>332.0</ele><time>2026-03-28T09:34:48.001Z</time></trkpt><trkpt lat="45.489508263690595" lon="11.005363442796781"><ele>332.0</ele><time>2026-03-28T09:34:52.002Z</time></trkpt><trkpt lat="45.489556237612625" lon="11.005492497789232"><ele>332.0</ele><time>2026-03-28T09:34:55.002Z</time></trkpt><trkpt lat="45.489597151396616" lon="11.005593728872233"><ele>332.0</ele><time>2026-03-28T09:34:58Z</time></trkpt><trkpt lat="45.4895830673288" lon="11.005691570833207"><ele>332.0</ele><time>2026-03-28T09:35:02Z</time></trkpt><trkpt lat="45.48945369185354" lon="11.005672944446744"><ele>332.0</ele><time>2026-03-28T09:35:04Z</time></trkpt><trkpt lat="45.48935958679091" lon="11.005696939078183"><ele>332.0</ele><time>2026-03-28T09:35:05Z</time></trkpt><trkpt lat="45.48926788985363" lon="11.005724625045021"><ele>332.0</ele><time>2026-03-28T09:35:06Z</time></trkpt><trkpt lat="45.48916252959157" lon="11.005726929937213"><ele>332.0</ele><time>2026-03-28T09:35:07Z</time></trkpt><trkpt lat="45.48905089447735" lon="11.005731883032027"><ele>332.0</ele><time>2026-03-28T09:35:08Z</time></trkpt><trkpt lat="45.488925000739634" lon="11.00576373429255"><ele>332.0</ele><time>2026-03-28T09:35:09Z</time></trkpt><trkpt lat="45.48880976988794" lon="11.005797948488546"><ele>332.0</ele><time>2026-03-28T09:35:10Z</time></trkpt><trkpt lat="45.48869832287347" lon="11.005793507152518"><ele>330.8</ele><time>2026-03-28T09:35:11Z</time></trkpt><trkpt lat="45.4885941949565" lon="11.005781732197546"><ele>329.6</ele><time>2026-03-28T09:35:12Z</time></trkpt><trkpt lat="45.48849670885529" lon="11.00580424044178"><ele>328.40000000000003</ele><time>2026-03-28T09:35:13Z</time></trkpt><trkpt lat="45.488388451274794" lon="11.005785827656418"><ele>327.20000000000005</ele><time>2026-03-28T09:35:14Z</time></trkpt><trkpt lat="45.488291568239575" lon="11.00577288713082"><ele>326.0</ele><time>2026-03-28T09:35:15Z</time></trkpt><trkpt lat="45.48819674334973" lon="11.00577896806465"><ele>326.0</ele><time>2026-03-28T09:35:16Z</time></trkpt><trkpt lat="45.48812067436567" lon="11.005791625746388"><ele>326.0</ele><time>2026-03-28T09:35:17Z</time></trkpt><trkpt lat="45.48801613998096" lon="11.005808659163357"><ele>326.0</ele><time>2026-03-28T09:35:19Z</time></trkpt><trkpt lat="45.48791088352793" lon="11.005791718875363"><ele>326.0</ele><time>2026-03-28T09:35:21Z</time></trkpt><trkpt lat="45.48779863082544" lon="11.00574059991603"><ele>326.0</ele><time>2026-03-28T09:35:23Z</time></trkpt><trkpt lat="45.48773504311564" lon="11.005707828801766"><ele>323.5</ele><time>2026-03-28T09:35:24Z</time></trkpt><trkpt lat="45.4876315051452" lon="11.005640608466424"><ele>321.0</ele><time>2026-03-28T09:35:26Z</time></trkpt><trkpt lat="45.48755688693661" lon="11.005556928510316"><ele>318.5</ele><time>2026-03-28T09:35:29Z</time></trkpt><trkpt lat="45.4875051111796" lon="11.005450944587306"><ele>316.0</ele><time>2026-03-28T09:35:31Z</time></trkpt><trkpt lat="45.48747776330194" lon="11.005348428342195"><ele>313.5</ele><time>2026-03-28T09:35:34Z</time></trkpt><trkpt lat="45.487435418971415" lon="11.005268678532364"><ele>311.0</ele><time>2026-03-28T09:36:34.001Z</time></trkpt><trkpt lat="45.48734700026759" lon="11.005155597861448"><ele>311.0</ele><time>2026-03-28T09:36:36.001Z</time></trkpt><trkpt lat="45.487276411251806" lon="11.005089923393852"><ele>311.0</ele><time>2026-03-28T09:36:37.001Z</time></trkpt><trkpt lat="45.48720913459305" lon="11.00504621164039"><ele>311.0</ele><time>2026-03-28T09:36:38.001Z</time></trkpt><trkpt lat="45.48715248221526" lon="11.005006289195316"><ele>311.0</ele><time>2026-03-28T09:36:39.001Z</time></trkpt><trkpt lat="45.48709178291463" lon="11.00494335561156"><ele>311.0</ele><time>2026-03-28T09:36:41.001Z</time></trkpt><trkpt lat="45.48713175746201" lon="11.004832710586255"><ele>311.0</ele><time>2026-03-28T09:36:43.001Z</time></trkpt><trkpt lat="45.48715742940977" lon="11.004731707062689"><ele>311.33333333333337</ele><time>2026-03-28T09:36:44.001Z</time></trkpt><trkpt lat="45.48720013762076" lon="11.004617145652631"><ele>311.6666666666667</ele><time>2026-03-28T09:36:45.001Z</time></trkpt><trkpt lat="45.487237569365796" lon="11.00448568146398"><ele>312.0</ele><time>2026-03-28T09:36:46.001Z</time></trkpt><trkpt lat="45.48727972518122" lon="11.004354006553264"><ele>312.3333333333333</ele><time>2026-03-28T09:36:47.001Z</time></trkpt><trkpt lat="45.48732896730016" lon="11.004261008163715"><ele>312.66666666666663</ele><time>2026-03-28T09:36:48.001Z</time></trkpt><trkpt lat="45.487363716902266" lon="11.00418313535555"><ele>313.0</ele><time>2026-03-28T09:36:49.001Z</time></trkpt><trkpt lat="45.48743534536864" lon="11.004062476917689"><ele>311.4</ele><time>2026-03-28T09:36:51.001Z</time></trkpt><trkpt lat="45.487488499564876" lon="11.003979416083997"><ele>309.8</ele><time>2026-03-28T09:36:52.001Z</time></trkpt><trkpt lat="45.4875591057799" lon="11.003895818412806"><ele>308.2</ele><time>2026-03-28T09:36:53.001Z</time></trkpt><trkpt lat="45.48763022439822" lon="11.003813727810254"><ele>306.6</ele><time>2026-03-28T09:36:54.001Z</time></trkpt><trkpt lat="45.48768458811167" lon="11.003705065391701"><ele>305.0</ele><time>2026-03-28T09:36:55.001Z</time></trkpt><trkpt lat="45.48774485049988" lon="11.003582112177286"><ele>305.0</ele><time>2026-03-28T09:36:56.001Z</time></trkpt><trkpt lat="45.487810422427984" lon="11.003450268246574"><ele>305.0</ele><time>2026-03-28T09:36:57.001Z</time></trkpt><trkpt lat="45.487871078361756" lon="11.003340610353995"><ele>305.0</ele><time>2026-03-28T09:36:58.001Z</time></trkpt><trkpt lat="45.48793417471193" lon="11.003229408849789"><ele>305.0</ele><time>2026-03-28T09:36:59.001Z</time></trkpt><trkpt lat="45.48799929341371" lon="11.003123623049854"><ele>305.0</ele><time>2026-03-28T09:37:00.001Z</time></trkpt><trkpt lat="45.48804049919358" lon="11.003033202567524"><ele>304.4</ele><time>2026-03-28T09:37:01.001Z</time></trkpt><trkpt lat="45.48805276512627" lon="11.002942406500251"><ele>303.8</ele><time>2026-03-28T09:37:02.001Z</time></trkpt><trkpt lat="45.48803882486506" lon="11.002839868231025"><ele>303.2</ele><time>2026-03-28T09:37:03Z</time></trkpt><trkpt lat="45.48798000912247" lon="11.002732008768113"><ele>302.6</ele><time>2026-03-28T09:37:04Z</time></trkpt><trkpt lat="45.48790517940058" lon="11.002609084013637"><ele>302.0</ele><time>2026-03-28T09:37:05Z</time></trkpt><trkpt lat="45.48781490332972" lon="11.002493485078862"><ele>303.2</ele><time>2026-03-28T09:37:06Z</time></trkpt><trkpt lat="45.48772333724943" lon="11.002383718664614"><ele>304.4</ele><time>2026-03-28T09:37:07Z</time></trkpt><trkpt lat="45.48763551890371" lon="11.00228774705767"><ele>305.6</ele><time>2026-03-28T09:37:08Z</time></trkpt><trkpt lat="45.4875716207524" lon="11.002164889457074"><ele>306.8</ele><time>2026-03-28T09:37:09Z</time></trkpt><trkpt lat="45.48751778180834" lon="11.002032738288468"><ele>308.0</ele><time>2026-03-28T09:37:10Z</time></trkpt><trkpt lat="45.487492995448775" lon="11.001871071012568"><ele>308.0</ele><time>2026-03-28T09:37:11Z</time></trkpt><trkpt lat="45.48744289913936" lon="11.001714670835733"><ele>308.0</ele><time>2026-03-28T09:37:12Z</time></trkpt><trkpt lat="45.48741357465142" lon="11.001547927258587"><ele>308.0</ele><time>2026-03-28T09:37:13Z</time></trkpt><trkpt lat="45.48738033052238" lon="11.001378268727239"><ele>308.0</ele><time>2026-03-28T09:37:14Z</time></trkpt><trkpt lat="45.487354617537996" lon="11.001220177445688"><ele>308.0</ele><time>2026-03-28T09:37:15Z</time></trkpt><trkpt lat="45.48733369311476" lon="11.001063132355656"><ele>308.0</ele><time>2026-03-28T09:37:16Z</time></trkpt><trkpt lat="45.48732042213076" lon="11.000886844707981"><ele>308.0</ele><time>2026-03-28T09:37:17Z</time></trkpt><trkpt lat="45.48730879062308" lon="11.000710974765896"><ele>308.0</ele><time>2026-03-28T09:37:18Z</time></trkpt><trkpt lat="45.48729092341678" lon="11.000542517156624"><ele>306.8</ele><time>2026-03-28T09:37:19Z</time></trkpt><trkpt lat="45.487269129739644" lon="11.000379933612622"><ele>305.6</ele><time>2026-03-28T09:37:20Z</time></trkpt><trkpt lat="45.4872731367737" lon="11.000218294547082"><ele>304.4</ele><time>2026-03-28T09:37:21Z</time></trkpt><trkpt lat="45.487270490195485" lon="11.00006059546337"><ele>303.2</ele><time>2026-03-28T09:37:22Z</time></trkpt><trkpt lat="45.4872578375565" lon="10.99991433507474"><ele>302.0</ele><time>2026-03-28T09:37:23Z</time></trkpt><trkpt lat="45.48726510002771" lon="10.999793136203262"><ele>302.0</ele><time>2026-03-28T09:37:24Z</time></trkpt><trkpt lat="45.48729234013343" lon="10.99968656706876"><ele>302.0</ele><time>2026-03-28T09:37:25Z</time></trkpt><trkpt lat="45.48730812057381" lon="10.999593361993568"><ele>302.0</ele><time>2026-03-28T09:37:26Z</time></trkpt><trkpt lat="45.48721816254719" lon="10.999485240722628"><ele>302.0</ele><time>2026-03-28T09:37:27Z</time></trkpt><trkpt lat="45.48717716162956" lon="10.999399734652057"><ele>302.0</ele><time>2026-03-28T09:37:28Z</time></trkpt><trkpt lat="45.48714548736657" lon="10.999311057967443"><ele>302.0</ele><time>2026-03-28T09:37:29Z</time></trkpt><trkpt lat="45.48714649343081" lon="10.999208601993491"><ele>300.6</ele><time>2026-03-28T09:37:30Z</time></trkpt><trkpt lat="45.48718509437271" lon="10.999110162674851"><ele>299.2</ele><time>2026-03-28T09:37:31Z</time></trkpt><trkpt lat="45.48726363814858" lon="10.999070358445683"><ele>297.8</ele><time>2026-03-28T09:37:32Z</time></trkpt><trkpt lat="45.487297529638" lon="10.9989116822491"><ele>296.4</ele><time>2026-03-28T09:37:34Z</time></trkpt><trkpt lat="45.48724730655182" lon="10.998800814679562"><ele>295.0</ele><time>2026-03-28T09:37:35Z</time></trkpt><trkpt lat="45.487118518461635" lon="10.998760809759318"><ele>294.4</ele><time>2026-03-28T09:37:36Z</time></trkpt><trkpt lat="45.487019820006594" lon="10.99871802232302"><ele>293.8</ele><time>2026-03-28T09:37:37Z</time></trkpt><trkpt lat="45.486912603711346" lon="10.998698179043497"><ele>293.2</ele><time>2026-03-28T09:37:38Z</time></trkpt><trkpt lat="45.4868261990879" lon="10.998643931802524"><ele>292.6</ele><time>2026-03-28T09:37:39Z</time></trkpt><trkpt lat="45.48675187996907" lon="10.99859548984174"><ele>292.0</ele><time>2026-03-28T09:37:40Z</time></trkpt><trkpt lat="45.48668238221786" lon="10.998516936057571"><ele>292.0</ele><time>2026-03-28T09:37:41Z</time></trkpt><trkpt lat="45.48662568052369" lon="10.998439678147816"><ele>292.0</ele><time>2026-03-28T09:37:42Z</time></trkpt><trkpt lat="45.48658080472364" lon="10.998374931467845"><ele>292.0</ele><time>2026-03-28T09:37:43Z</time></trkpt><trkpt lat="45.48652985156193" lon="10.998299566357751"><ele>292.0</ele><time>2026-03-28T09:37:45Z</time></trkpt><trkpt lat="45.48648301374446" lon="10.998230287864684"><ele>292.0</ele><time>2026-03-28T09:37:47Z</time></trkpt><trkpt lat="45.48638423852067" lon="10.998103170302043"><ele>292.0</ele><time>2026-03-28T09:37:49Z</time></trkpt><trkpt lat="45.48633771276183" lon="10.998036220723064"><ele>290.3333333333333</ele><time>2026-03-28T09:37:50Z</time></trkpt><trkpt lat="45.48629241816662" lon="10.997954438057945"><ele>288.66666666666663</ele><time>2026-03-28T09:37:51Z</time></trkpt><trkpt lat="45.48623736929493" lon="10.997895642503998"><ele>287.0</ele><time>2026-03-28T09:37:52Z</time></trkpt><trkpt lat="45.48618727589385" lon="10.997747521999292"><ele>285.3333333333333</ele><time>2026-03-28T09:37:54Z</time></trkpt><trkpt lat="45.4861902725775" lon="10.997628586307671"><ele>283.6666666666667</ele><time>2026-03-28T09:37:57.001Z</time></trkpt><trkpt lat="45.486289334600215" lon="10.997632391769017"><ele>282.0</ele><time>2026-03-28T09:37:59.001Z</time></trkpt><trkpt lat="45.48635993572466" lon="10.997687378058467"><ele>282.0</ele><time>2026-03-28T09:38:00.001Z</time></trkpt><trkpt lat="45.486421676643" lon="10.997763718085475"><ele>282.0</ele><time>2026-03-28T09:38:01.001Z</time></trkpt><trkpt lat="45.48649439967533" lon="10.997785114297196"><ele>282.0</ele><time>2026-03-28T09:38:03.001Z</time></trkpt><trkpt lat="45.48650466582713" lon="10.99766748007788"><ele>282.0</ele><time>2026-03-28T09:38:05.001Z</time></trkpt><trkpt lat="45.486471764680566" lon="10.99758871945245"><ele>282.0</ele><time>2026-03-28T09:38:06.001Z</time></trkpt><trkpt lat="45.486412067602465" lon="10.997488172477986"><ele>282.0</ele><time>2026-03-28T09:38:07.001Z</time></trkpt><trkpt lat="45.486364186773685" lon="10.99736781526793"><ele>279.8333333333333</ele><time>2026-03-28T09:38:08.001Z</time></trkpt><trkpt lat="45.48632513697944" lon="10.997238132659218"><ele>277.6666666666667</ele><time>2026-03-28T09:38:09.001Z</time></trkpt><trkpt lat="45.486308003006485" lon="10.997123107299567"><ele>275.5</ele><time>2026-03-28T09:38:10.001Z</time></trkpt><trkpt lat="45.48625727118188" lon="10.997011880579606"><ele>273.33333333333337</ele><time>2026-03-28T09:38:11.001Z</time></trkpt><trkpt lat="45.486196547133986" lon="10.996931910316597"><ele>271.1666666666667</ele><time>2026-03-28T09:38:12.001Z</time></trkpt><trkpt lat="45.486148715678254" lon="10.996833065644864"><ele>269.0</ele><time>2026-03-28T09:38:13.001Z</time></trkpt><trkpt lat="45.48612027047778" lon="10.996745178929377"><ele>269.0</ele><time>2026-03-28T09:38:14.001Z</time></trkpt><trkpt lat="45.48607824161007" lon="10.99667112025218"><ele>269.0</ele><time>2026-03-28T09:38:15.001Z</time></trkpt><trkpt lat="45.48598507174476" lon="10.996591714030071"><ele>269.0</ele><time>2026-03-28T09:38:17.001Z</time></trkpt><trkpt lat="45.48587737891059" lon="10.996496828868548"><ele>269.0</ele><time>2026-03-28T09:38:19.001Z</time></trkpt><trkpt lat="45.4858165106871" lon="10.996467659777858"><ele>269.0</ele><time>2026-03-28T09:38:20.001Z</time></trkpt><trkpt lat="45.48574426650509" lon="10.99643342736556"><ele>269.0</ele><time>2026-03-28T09:38:21.001Z</time></trkpt><trkpt lat="45.485678162032976" lon="10.99640453462456"><ele>267.0</ele><time>2026-03-28T09:38:22.001Z</time></trkpt><trkpt lat="45.485614182689055" lon="10.996385691104013"><ele>265.0</ele><time>2026-03-28T09:38:23.001Z</time></trkpt><trkpt lat="45.48553722858935" lon="10.996370094691054"><ele>263.0</ele><time>2026-03-28T09:38:24.001Z</time></trkpt><trkpt lat="45.48547281632534" lon="10.996376956365165"><ele>261.0</ele><time>2026-03-28T09:38:25.001Z</time></trkpt><trkpt lat="45.485344441517924" lon="10.996410317094819"><ele>259.0</ele><time>2026-03-28T09:38:27.001Z</time></trkpt><trkpt lat="45.48528224373307" lon="10.996438806566372"><ele>257.0</ele><time>2026-03-28T09:38:28.001Z</time></trkpt><trkpt lat="45.48521102357582" lon="10.996509517002284"><ele>255.66666666666669</ele><time>2026-03-28T09:38:30.001Z</time></trkpt><trkpt lat="45.48513798801452" lon="10.996416196538831"><ele>254.33333333333334</ele><time>2026-03-28T09:38:33.001Z</time></trkpt><trkpt lat="45.48509658745726" lon="10.99630904875369"><ele>253.0</ele><time>2026-03-28T09:38:35.001Z</time></trkpt><trkpt lat="45.485084199213986" lon="10.996192658839353"><ele>251.66666666666669</ele><time>2026-03-28T09:38:37.001Z</time></trkpt><trkpt lat="45.485064321483485" lon="10.996060393237695"><ele>250.33333333333334</ele><time>2026-03-28T09:38:39.001Z</time></trkpt><trkpt lat="45.485018173433694" lon="10.995996170402032"><ele>249.0</ele><time>2026-03-28T09:38:41.001Z</time></trkpt><trkpt lat="45.48493152009328" lon="10.995891450088951"><ele>247.66666666666666</ele><time>2026-03-28T09:38:43.001Z</time></trkpt><trkpt lat="45.484881331035105" lon="10.99581890042832"><ele>246.33333333333331</ele><time>2026-03-28T09:38:45.001Z</time></trkpt><trkpt lat="45.4848191588333" lon="10.995745623951942"><ele>245.0</ele><time>2026-03-28T09:38:47.001Z</time></trkpt><trkpt lat="45.48482566752336" lon="10.995644213503256"><ele>243.66666666666666</ele><time>2026-03-28T09:38:51.001Z</time></trkpt><trkpt lat="45.484870461231324" lon="10.995510540805563"><ele>242.33333333333331</ele><time>2026-03-28T09:38:54.001Z</time></trkpt><trkpt lat="45.4848953943463" lon="10.995388528153981"><ele>241.0</ele><time>2026-03-28T09:38:56.001Z</time></trkpt><trkpt lat="45.484936910509184" lon="10.995313240232342"><ele>240.99999999999997</ele><time>2026-03-28T09:38:58.001Z</time></trkpt><trkpt lat="45.484969036416516" lon="10.995229068869197"><ele>241.0</ele><time>2026-03-28T09:39:00.001Z</time></trkpt><trkpt lat="45.48505914214325" lon="10.995210574341227"><ele>241.0</ele><time>2026-03-28T09:39:03.002Z</time></trkpt><trkpt lat="45.48513313483759" lon="10.995163785145241"><ele>241.0</ele><time>2026-03-28T09:39:05.002Z</time></trkpt><trkpt lat="45.48519890243189" lon="10.995126481700058"><ele>240.99999999999997</ele><time>2026-03-28T09:39:07.002Z</time></trkpt><trkpt lat="45.48523480548998" lon="10.995029302075574"><ele>241.0</ele><time>2026-03-28T09:39:11.999Z</time></trkpt><trkpt lat="45.48518435883823" lon="10.994975264985008"><ele>238.20000000000002</ele><time>2026-03-28T09:39:13.999Z</time></trkpt><trkpt lat="45.48510386146173" lon="10.994879386286598"><ele>235.40000000000003</ele><time>2026-03-28T09:39:16.999Z</time></trkpt><trkpt lat="45.48503706115163" lon="10.994725087109543"><ele>232.6</ele><time>2026-03-28T09:39:19.999Z</time></trkpt><trkpt lat="45.484981073135216" lon="10.994633119713317"><ele>229.8</ele><time>2026-03-28T09:39:22.999Z</time></trkpt><trkpt lat="45.48495371390067" lon="10.994542100124882"><ele>227.0</ele><time>2026-03-28T09:39:26.999Z</time></trkpt><trkpt lat="45.48504012090128" lon="10.99453047681747"><ele>227.0</ele><time>2026-03-28T09:39:47Z</time></trkpt><trkpt lat="45.48513774572762" lon="10.994595449055339"><ele>227.0</ele><time>2026-03-28T09:39:49Z</time></trkpt><trkpt lat="45.485279750600625" lon="10.994692472992549"><ele>227.0</ele><time>2026-03-28T09:39:51Z</time></trkpt><trkpt lat="45.4853615797321" lon="10.9947292613506"><ele>227.0</ele><time>2026-03-28T09:39:52Z</time></trkpt><trkpt lat="45.48544009458172" lon="10.994757146818568"><ele>227.0</ele><time>2026-03-28T09:39:53Z</time></trkpt><trkpt lat="45.485517332929916" lon="10.99480178238565"><ele>223.8</ele><time>2026-03-28T09:39:54Z</time></trkpt><trkpt lat="45.48558260131676" lon="10.994857624740588"><ele>220.6</ele><time>2026-03-28T09:39:55Z</time></trkpt><trkpt lat="45.485648717637105" lon="10.994887050645888"><ele>217.4</ele><time>2026-03-28T09:39:56Z</time></trkpt><trkpt lat="45.485778396835244" lon="10.994926889486832"><ele>214.20000000000002</ele><time>2026-03-28T09:39:58Z</time></trkpt><trkpt lat="45.485842854386746" lon="10.99493965394803"><ele>211.0</ele><time>2026-03-28T09:39:59Z</time></trkpt><trkpt lat="45.485953040076595" lon="10.994964622716553"><ele>211.0</ele><time>2026-03-28T09:40:01Z</time></trkpt><trkpt lat="45.48603084705599" lon="10.994974890995474"><ele>211.0</ele><time>2026-03-28T09:40:03Z</time></trkpt><trkpt lat="45.48612774075385" lon="10.995028599088338"><ele>211.0</ele><time>2026-03-28T09:40:05Z</time></trkpt><trkpt lat="45.48621490645692" lon="10.995032834741824"><ele>211.0</ele><time>2026-03-28T09:40:07Z</time></trkpt><trkpt lat="45.48632914079636" lon="10.995085703938402"><ele>211.0</ele><time>2026-03-28T09:40:09Z</time></trkpt><trkpt lat="45.48639986911095" lon="10.99512052727347"><ele>213.49999999999997</ele><time>2026-03-28T09:40:11Z</time></trkpt><trkpt lat="45.48645504162469" lon="10.995225317987694"><ele>216.0</ele><time>2026-03-28T09:40:14Z</time></trkpt><trkpt lat="45.48648728170305" lon="10.995125218575442"><ele>218.5</ele><time>2026-03-28T09:40:19.001Z</time></trkpt><trkpt lat="45.48647441562776" lon="10.99503324569288"><ele>221.0</ele><time>2026-03-28T09:40:20.001Z</time></trkpt><trkpt lat="45.486406937792914" lon="10.99492788566781"><ele>223.49999999999997</ele><time>2026-03-28T09:40:22.001Z</time></trkpt><trkpt lat="45.486370558556175" lon="10.994813244859547"><ele>226.0</ele><time>2026-03-28T09:40:25.001Z</time></trkpt><trkpt lat="45.48644877166819" lon="10.994801163602174"><ele>220.83333333333331</ele><time>2026-03-28T09:40:31.001Z</time></trkpt><trkpt lat="45.48649465230049" lon="10.994891804271859"><ele>215.66666666666666</ele><time>2026-03-28T09:40:33.001Z</time></trkpt><trkpt lat="45.48657768671958" lon="10.994974590843526"><ele>210.5</ele><time>2026-03-28T09:40:35.001Z</time></trkpt><trkpt lat="45.48662398296811" lon="10.99490095843443"><ele>205.33333333333331</ele><time>2026-03-28T09:40:40.001Z</time></trkpt><trkpt lat="45.48660382666024" lon="10.994797568775427"><ele>200.16666666666666</ele><time>2026-03-28T09:40:42.001Z</time></trkpt><trkpt lat="45.48656717240727" lon="10.994688270520669"><ele>195.0</ele><time>2026-03-28T09:40:44.001Z</time></trkpt><trkpt lat="45.48663830255321" lon="10.994691333205955"><ele>195.0</ele><time>2026-03-28T09:40:51.001Z</time></trkpt><trkpt lat="45.48670046176123" lon="10.994715734545123"><ele>195.0</ele><time>2026-03-28T09:40:54.001Z</time></trkpt><trkpt lat="45.48674259581796" lon="10.994636180132742"><ele>195.0</ele><time>2026-03-28T09:40:56.001Z</time></trkpt><trkpt lat="45.48678903878457" lon="10.994497685821813"><ele>195.0</ele><time>2026-03-28T09:40:59.001Z</time></trkpt><trkpt lat="45.486798957182856" lon="10.994305079803464"><ele>195.0</ele><time>2026-03-28T09:41:01.001Z</time></trkpt><trkpt lat="45.48684216554902" lon="10.994183981073503"><ele>189.8</ele><time>2026-03-28T09:41:03.001Z</time></trkpt><trkpt lat="45.48690020209095" lon="10.994092781669796"><ele>184.6</ele><time>2026-03-28T09:43:41.001Z</time></trkpt><trkpt lat="45.48690583028336" lon="10.993992874505674"><ele>179.39999999999998</ele><time>2026-03-28T09:43:42.001Z</time></trkpt><trkpt lat="45.486925739609006" lon="10.993853367841146"><ele>174.2</ele><time>2026-03-28T09:43:44.001Z</time></trkpt><trkpt lat="45.48687165374907" lon="10.993708583353937"><ele>169.0</ele><time>2026-03-28T09:43:46.001Z</time></trkpt><trkpt lat="45.486807018380446" lon="10.993631927811906"><ele>169.0</ele><time>2026-03-28T09:43:47.001Z</time></trkpt><trkpt lat="45.48672750523492" lon="10.99353475477458"><ele>169.0</ele><time>2026-03-28T09:43:48.001Z</time></trkpt><trkpt lat="45.48665313811993" lon="10.993429971209405"><ele>169.0</ele><time>2026-03-28T09:43:49.001Z</time></trkpt><trkpt lat="45.48658713817049" lon="10.993333166584351"><ele>169.0</ele><time>2026-03-28T09:43:50.001Z</time></trkpt><trkpt lat="45.486525463187185" lon="10.993253542221314"><ele>169.0</ele><time>2026-03-28T09:43:51.001Z</time></trkpt><trkpt lat="45.48647340697255" lon="10.993182442868312"><ele>168.0</ele><time>2026-03-28T09:43:52.001Z</time></trkpt><trkpt lat="45.48642835348529" lon="10.993117416440969"><ele>167.0</ele><time>2026-03-28T09:43:53.001Z</time></trkpt><trkpt lat="45.4863516862496" lon="10.99299484895803"><ele>166.0</ele><time>2026-03-28T09:43:55.001Z</time></trkpt><trkpt lat="45.48627377337026" lon="10.99288631704251"><ele>165.0</ele><time>2026-03-28T09:43:57.001Z</time></trkpt><trkpt lat="45.48622002301351" lon="10.992823340638965"><ele>164.0</ele><time>2026-03-28T09:43:58.001Z</time></trkpt><trkpt lat="45.48613260752806" lon="10.992759499934742"><ele>163.39999999999998</ele><time>2026-03-28T09:43:59.001Z</time></trkpt><trkpt lat="45.4860270510024" lon="10.99268204061386"><ele>162.8</ele><time>2026-03-28T09:44:00.001Z</time></trkpt><trkpt lat="45.48593167333443" lon="10.992615162171418"><ele>162.2</ele><time>2026-03-28T09:44:01.001Z</time></trkpt><trkpt lat="45.48583708423217" lon="10.992548390376419"><ele>161.60000000000002</ele><time>2026-03-28T09:44:02.001Z</time></trkpt><trkpt lat="45.485741013018256" lon="10.992480363300242"><ele>161.0</ele><time>2026-03-28T09:44:03.001Z</time></trkpt><trkpt lat="45.48564391036194" lon="10.992411714502131"><ele>160.5</ele><time>2026-03-28T09:44:04.001Z</time></trkpt><trkpt lat="45.48554279819049" lon="10.99234105425486"><ele>160.0</ele><time>2026-03-28T09:44:05.001Z</time></trkpt><trkpt lat="45.485443877064945" lon="10.992263201152243"><ele>159.5</ele><time>2026-03-28T09:44:06.001Z</time></trkpt><trkpt lat="45.485346474910756" lon="10.992185652523439"><ele>159.0</ele><time>2026-03-28T09:44:07.001Z</time></trkpt><trkpt lat="45.485240623331435" lon="10.992107603409423"><ele>157.5</ele><time>2026-03-28T09:44:08.001Z</time></trkpt><trkpt lat="45.48513287922528" lon="10.992026435056127"><ele>156.0</ele><time>2026-03-28T09:44:09.001Z</time></trkpt><trkpt lat="45.48502657649867" lon="10.991951996811414"><ele>154.5</ele><time>2026-03-28T09:44:10.001Z</time></trkpt><trkpt lat="45.48492317358567" lon="10.991883380007469"><ele>153.0</ele><time>2026-03-28T09:44:11.001Z</time></trkpt><trkpt lat="45.48482975204577" lon="10.991815225208835"><ele>153.0</ele><time>2026-03-28T09:44:12.001Z</time></trkpt><trkpt lat="45.484742278608" lon="10.991753831875481"><ele>153.0</ele><time>2026-03-28T09:44:13.001Z</time></trkpt><trkpt lat="45.48465868150086" lon="10.991695292313475"><ele>153.0</ele><time>2026-03-28T09:44:14.001Z</time></trkpt><trkpt lat="45.4845759868107" lon="10.991641665821101"><ele>153.0</ele><time>2026-03-28T09:44:15.001Z</time></trkpt><trkpt lat="45.48448994856626" lon="10.991583782915411"><ele>153.0</ele><time>2026-03-28T09:44:16.001Z</time></trkpt><trkpt lat="45.48439990243975" lon="10.991516224582268"><ele>151.4</ele><time>2026-03-28T09:44:17.001Z</time></trkpt><trkpt lat="45.48430597984519" lon="10.99144728262686"><ele>149.8</ele><time>2026-03-28T09:44:18.001Z</time></trkpt><trkpt lat="45.48421418597732" lon="10.991381627415205"><ele>148.2</ele><time>2026-03-28T09:44:19.001Z</time></trkpt><trkpt lat="45.48411646257255" lon="10.991320157363996"><ele>146.6</ele><time>2026-03-28T09:44:20.001Z</time></trkpt><trkpt lat="45.48400959858297" lon="10.991263767309137"><ele>145.0</ele><time>2026-03-28T09:44:21.001Z</time></trkpt><trkpt lat="45.48390119236347" lon="10.991230489513729"><ele>145.0</ele><time>2026-03-28T09:44:22.001Z</time></trkpt><trkpt lat="45.48378768159016" lon="10.991208663917776"><ele>145.0</ele><time>2026-03-28T09:44:23.001Z</time></trkpt><trkpt lat="45.483678408571926" lon="10.99119174980047"><ele>145.0</ele><time>2026-03-28T09:44:24.001Z</time></trkpt><trkpt lat="45.483574325328284" lon="10.991186693665496"><ele>145.0</ele><time>2026-03-28T09:44:25.001Z</time></trkpt><trkpt lat="45.4834716395493" lon="10.991180869581616"><ele>145.0</ele><time>2026-03-28T09:44:26.001Z</time></trkpt><trkpt lat="45.483373261133764" lon="10.99115848864665"><ele>145.0</ele><time>2026-03-28T09:44:27.001Z</time></trkpt><trkpt lat="45.483270087175526" lon="10.991114325160437"><ele>145.0</ele><time>2026-03-28T09:44:28.001Z</time></trkpt><trkpt lat="45.4831546429034" lon="10.991046993051222"><ele>145.0</ele><time>2026-03-28T09:44:29.001Z</time></trkpt><trkpt lat="45.48302664682475" lon="10.990976670240173"><ele>145.0</ele><time>2026-03-28T09:44:30.002Z</time></trkpt><trkpt lat="45.48290915279576" lon="10.99091159490881"><ele>144.0</ele><time>2026-03-28T09:44:31.002Z</time></trkpt><trkpt lat="45.4828002127084" lon="10.990842352285302"><ele>143.0</ele><time>2026-03-28T09:44:32.002Z</time></trkpt><trkpt lat="45.48269665005192" lon="10.99076366313467"><ele>142.0</ele><time>2026-03-28T09:44:33.002Z</time></trkpt><trkpt lat="45.482588373677274" lon="10.990680115919014"><ele>141.0</ele><time>2026-03-28T09:44:34.002Z</time></trkpt><trkpt lat="45.482480561853976" lon="10.990599927153017"><ele>140.0</ele><time>2026-03-28T09:44:35.002Z</time></trkpt><trkpt lat="45.48237547759765" lon="10.990526551726328"><ele>139.0</ele><time>2026-03-28T09:44:36.002Z</time></trkpt><trkpt lat="45.48226670435042" lon="10.990467672451153"><ele>138.0</ele><time>2026-03-28T09:44:37.002Z</time></trkpt><trkpt lat="45.482154048217616" lon="10.990416871943792"><ele>137.0</ele><time>2026-03-28T09:44:38.002Z</time></trkpt><trkpt lat="45.48204394517752" lon="10.990374469987078"><ele>136.79999999999998</ele><time>2026-03-28T09:44:39.002Z</time></trkpt><trkpt lat="45.48194199447959" lon="10.990346465215042"><ele>136.6</ele><time>2026-03-28T09:44:40.002Z</time></trkpt><trkpt lat="45.48184633682437" lon="10.990323465326286"><ele>136.39999999999998</ele><time>2026-03-28T09:44:41.002Z</time></trkpt><trkpt lat="45.481757436184274" lon="10.99029947142711"><ele>136.2</ele><time>2026-03-28T09:44:42.002Z</time></trkpt><trkpt lat="45.481670335069744" lon="10.990281485969595"><ele>136.0</ele><time>2026-03-28T09:44:43.002Z</time></trkpt><trkpt lat="45.481589144145524" lon="10.990264605437774"><ele>136.0</ele><time>2026-03-28T09:44:44.002Z</time></trkpt><trkpt lat="45.481515237718476" lon="10.990246893249603"><ele>136.0</ele><time>2026-03-28T09:44:45.002Z</time></trkpt><trkpt lat="45.48145023512004" lon="10.990234001668673"><ele>136.0</ele><time>2026-03-28T09:44:46.002Z</time></trkpt><trkpt lat="45.4813682987472" lon="10.990211811173989"><ele>136.0</ele><time>2026-03-28T09:44:48.002Z</time></trkpt><trkpt lat="45.48130555911287" lon="10.990156735319825"><ele>136.0</ele><time>2026-03-28T09:45:12.002Z</time></trkpt><trkpt lat="45.4813023537738" lon="10.99004370176381"><ele>136.0</ele><time>2026-03-28T09:45:14.002Z</time></trkpt><trkpt lat="45.48136311122615" lon="10.989980130873642"><ele>135.66666666666669</ele><time>2026-03-28T09:45:15.002Z</time></trkpt><trkpt lat="45.48130215133471" lon="10.989850817553295"><ele>135.33333333333334</ele><time>2026-03-28T09:45:17.002Z</time></trkpt><trkpt lat="45.481238100276855" lon="10.989808738209828"><ele>135.0</ele><time>2026-03-28T09:45:18.002Z</time></trkpt><trkpt lat="45.48116973711006" lon="10.989744875150043"><ele>134.66666666666666</ele><time>2026-03-28T09:45:19.002Z</time></trkpt><trkpt lat="45.48111255614849" lon="10.98968539171825"><ele>134.33333333333331</ele><time>2026-03-28T09:45:20.002Z</time></trkpt><trkpt lat="45.481039453781534" lon="10.989592827666716"><ele>134.0</ele><time>2026-03-28T09:45:21.002Z</time></trkpt><trkpt lat="45.48096569827427" lon="10.98949075447203"><ele>134.0</ele><time>2026-03-28T09:45:22.002Z</time></trkpt><trkpt lat="45.480898820708155" lon="10.989374928964276"><ele>134.0</ele><time>2026-03-28T09:45:23.002Z</time></trkpt><trkpt lat="45.480846837725956" lon="10.989254219485279"><ele>134.0</ele><time>2026-03-28T09:45:24.002Z</time></trkpt><trkpt lat="45.480806731512075" lon="10.989156393985741"><ele>134.0</ele><time>2026-03-28T09:45:25.002Z</time></trkpt><trkpt lat="45.48075891200754" lon="10.989052866772251"><ele>134.0</ele><time>2026-03-28T09:45:27.001Z</time></trkpt><trkpt lat="45.48062976581756" lon="10.988994833778092"><ele>133.5</ele><time>2026-03-28T09:45:30.001Z</time></trkpt><trkpt lat="45.48056086609992" lon="10.988987916371533"><ele>133.0</ele><time>2026-03-28T09:45:31.001Z</time></trkpt><trkpt lat="45.48050420959826" lon="10.988939529982952"><ele>132.5</ele><time>2026-03-28T09:45:32.001Z</time></trkpt><trkpt lat="45.48044031463833" lon="10.988911386147729"><ele>132.0</ele><time>2026-03-28T09:45:33.001Z</time></trkpt><trkpt lat="45.48036063768252" lon="10.98887454429523"><ele>131.5</ele><time>2026-03-28T09:45:34.001Z</time></trkpt><trkpt lat="45.480269035882955" lon="10.988852240215484"><ele>131.0</ele><time>2026-03-28T09:45:35.001Z</time></trkpt><trkpt lat="45.48017344156671" lon="10.98877243459232"><ele>131.0</ele><time>2026-03-28T09:45:36.001Z</time></trkpt><trkpt lat="45.480062219523795" lon="10.988731658315432"><ele>131.0</ele><time>2026-03-28T09:45:37.001Z</time></trkpt><trkpt lat="45.479941088391406" lon="10.988661242116617"><ele>131.0</ele><time>2026-03-28T09:45:38.001Z</time></trkpt><trkpt lat="45.47981849599245" lon="10.988604396726993"><ele>131.0</ele><time>2026-03-28T09:45:39.001Z</time></trkpt><trkpt lat="45.47971081792449" lon="10.988544677517817"><ele>131.0</ele><time>2026-03-28T09:45:40.001Z</time></trkpt><trkpt lat="45.479600853973764" lon="10.988470890211103"><ele>131.0</ele><time>2026-03-28T09:45:41.001Z</time></trkpt><trkpt lat="45.4794804662472" lon="10.988378586981762"><ele>131.0</ele><time>2026-03-28T09:45:42.001Z</time></trkpt><trkpt lat="45.4793628842643" lon="10.98827451040757"><ele>131.0</ele><time>2026-03-28T09:45:43.001Z</time></trkpt><trkpt lat="45.479250304122" lon="10.988184394527877"><ele>131.0</ele><time>2026-03-28T09:45:44.001Z</time></trkpt><trkpt lat="45.47915344969687" lon="10.98809872236165"><ele>131.0</ele><time>2026-03-28T09:45:45.001Z</time></trkpt><trkpt lat="45.47906489020631" lon="10.988040203575913"><ele>131.0</ele><time>2026-03-28T09:45:46.001Z</time></trkpt><trkpt lat="45.47899568297645" lon="10.987955417304393"><ele>131.0</ele><time>2026-03-28T09:45:47.001Z</time></trkpt><trkpt lat="45.478919386892834" lon="10.987866161529261"><ele>131.0</ele><time>2026-03-28T09:45:48.001Z</time></trkpt><trkpt lat="45.47882313692527" lon="10.987771457325515"><ele>131.4</ele><time>2026-03-28T09:45:49.001Z</time></trkpt><trkpt lat="45.47872858790285" lon="10.987655590276535"><ele>131.8</ele><time>2026-03-28T09:45:50.001Z</time></trkpt><trkpt lat="45.47863653113121" lon="10.987555885928963"><ele>132.20000000000002</ele><time>2026-03-28T09:45:51.001Z</time></trkpt><trkpt lat="45.47855265015466" lon="10.987473895893002"><ele>132.6</ele><time>2026-03-28T09:45:52.001Z</time></trkpt><trkpt lat="45.47847475414266" lon="10.987412498851029"><ele>133.0</ele><time>2026-03-28T09:45:53.001Z</time></trkpt><trkpt lat="45.47839030923234" lon="10.98735386705086"><ele>133.0</ele><time>2026-03-28T09:45:54.001Z</time></trkpt><trkpt lat="45.478300970084256" lon="10.987294610502202"><ele>133.0</ele><time>2026-03-28T09:45:55.001Z</time></trkpt><trkpt lat="45.478200690318964" lon="10.987232957577408"><ele>133.0</ele><time>2026-03-28T09:45:56.001Z</time></trkpt><trkpt lat="45.47810093087082" lon="10.98716981261216"><ele>133.0</ele><time>2026-03-28T09:45:57.001Z</time></trkpt><trkpt lat="45.47798844501578" lon="10.987112530444705"><ele>133.0</ele><time>2026-03-28T09:45:58.001Z</time></trkpt><trkpt lat="45.47786650687174" lon="10.987070157318403"><ele>131.0</ele><time>2026-03-28T09:45:59.001Z</time></trkpt><trkpt lat="45.477748230322675" lon="10.987043690746084"><ele>129.0</ele><time>2026-03-28T09:46:00.001Z</time></trkpt><trkpt lat="45.47764472744616" lon="10.987009956934912"><ele>127.00000000000001</ele><time>2026-03-28T09:46:01.001Z</time></trkpt><trkpt lat="45.47754011093571" lon="10.987011646667634"><ele>125.0</ele><time>2026-03-28T09:46:02.001Z</time></trkpt><trkpt lat="45.47743727517864" lon="10.98700099808047"><ele>123.0</ele><time>2026-03-28T09:46:03.001Z</time></trkpt><trkpt lat="45.477320178265536" lon="10.986981519326177"><ele>123.0</ele><time>2026-03-28T09:46:04.001Z</time></trkpt><trkpt lat="45.47719692735454" lon="10.986993938856056"><ele>123.0</ele><time>2026-03-28T09:46:05.001Z</time></trkpt><trkpt lat="45.47707115171328" lon="10.987018307042767"><ele>123.0</ele><time>2026-03-28T09:46:06.001Z</time></trkpt><trkpt lat="45.47695380508219" lon="10.987029140700011"><ele>123.0</ele><time>2026-03-28T09:46:07.001Z</time></trkpt><trkpt lat="45.47684314955829" lon="10.987025367602845"><ele>122.33333333333333</ele><time>2026-03-28T09:46:08.001Z</time></trkpt><trkpt lat="45.476740863505576" lon="10.987040428437409"><ele>121.66666666666666</ele><time>2026-03-28T09:46:09.001Z</time></trkpt><trkpt lat="45.47667481280845" lon="10.987059354784206"><ele>121.0</ele><time>2026-03-28T09:46:10.001Z</time></trkpt><trkpt lat="45.476593921461436" lon="10.98709728850118"><ele>120.33333333333333</ele><time>2026-03-28T09:46:12.001Z</time></trkpt><trkpt lat="45.4766628273545" lon="10.987032634965681"><ele>119.66666666666666</ele><time>2026-03-28T09:46:38.001Z</time></trkpt><trkpt lat="45.47676258989769" lon="10.987005908106218"><ele>119.0</ele><time>2026-03-28T09:46:40.001Z</time></trkpt><trkpt lat="45.476811823670545" lon="10.986882646096515"><ele>119.0</ele><time>2026-03-28T09:46:41.001Z</time></trkpt><trkpt lat="45.476872935914464" lon="10.986850455912968"><ele>119.0</ele><time>2026-03-28T09:46:42.001Z</time></trkpt><trkpt lat="45.47697969610217" lon="10.986797586560456"><ele>119.0</ele><time>2026-03-28T09:46:44.001Z</time></trkpt><trkpt lat="45.477081905995036" lon="10.986746134855196"><ele>119.0</ele><time>2026-03-28T09:46:46.001Z</time></trkpt><trkpt lat="45.47716590252523" lon="10.986669335811419"><ele>119.0</ele><time>2026-03-28T09:46:48.001Z</time></trkpt><trkpt lat="45.477264744182015" lon="10.986601178924948"><ele>123.80000000000001</ele><time>2026-03-28T09:46:50.001Z</time></trkpt><trkpt lat="45.47733013130497" lon="10.986534988756054"><ele>128.60000000000002</ele><time>2026-03-28T09:46:52.001Z</time></trkpt><trkpt lat="45.47740423070018" lon="10.986471469939405"><ele>133.4</ele><time>2026-03-28T09:46:54.001Z</time></trkpt><trkpt lat="45.477342055391" lon="10.986390072341239"><ele>138.20000000000002</ele><time>2026-03-28T09:46:58.002Z</time></trkpt><trkpt lat="45.47724233632358" lon="10.986351953165196"><ele>143.0</ele><time>2026-03-28T09:47:00.002Z</time></trkpt><trkpt lat="45.477128942258595" lon="10.986365249954055"><ele>142.33333333333331</ele><time>2026-03-28T09:47:02.002Z</time></trkpt><trkpt lat="45.47706207756393" lon="10.986347713932009"><ele>141.66666666666666</ele><time>2026-03-28T09:47:04.002Z</time></trkpt><trkpt lat="45.47698898459624" lon="10.986318969923593"><ele>141.0</ele><time>2026-03-28T09:47:06.002Z</time></trkpt><trkpt lat="45.47691457425891" lon="10.986309005107035"><ele>140.33333333333334</ele><time>2026-03-28T09:47:08.002Z</time></trkpt><trkpt lat="45.47684035096851" lon="10.986259804625627"><ele>139.66666666666669</ele><time>2026-03-28T09:47:10.002Z</time></trkpt><trkpt lat="45.4767626203881" lon="10.986237419540906"><ele>139.0</ele><time>2026-03-28T09:47:12.002Z</time></trkpt><trkpt lat="45.47666223551238" lon="10.986206858083369"><ele>139.0</ele><time>2026-03-28T09:47:15.002Z</time></trkpt><trkpt lat="45.47657651130368" lon="10.98616147928901"><ele>139.0</ele><time>2026-03-28T09:47:17.002Z</time></trkpt><trkpt lat="45.476522617435364" lon="10.986109195987844"><ele>139.0</ele><time>2026-03-28T09:47:19.002Z</time></trkpt><trkpt lat="45.47661725465145" lon="10.986058683332702"><ele>139.0</ele><time>2026-03-28T09:47:22.002Z</time></trkpt><trkpt lat="45.476697323352425" lon="10.986038525958302"><ele>139.0</ele><time>2026-03-28T09:47:24.002Z</time></trkpt><trkpt lat="45.47676094426252" lon="10.98602452682192"><ele>139.0</ele><time>2026-03-28T09:47:26.002Z</time></trkpt><trkpt lat="45.4768202907606" lon="10.985983102189044"><ele>139.0</ele><time>2026-03-28T09:47:28.002Z</time></trkpt><trkpt lat="45.47691412968758" lon="10.985960310961117"><ele>139.0</ele><time>2026-03-28T09:47:30.002Z</time></trkpt><trkpt lat="45.47701556667904" lon="10.98590828259022"><ele>139.0</ele><time>2026-03-28T09:47:32.002Z</time></trkpt><trkpt lat="45.477105030863" lon="10.985895082198159"><ele>139.0</ele><time>2026-03-28T09:47:34Z</time></trkpt><trkpt lat="45.47715582614442" lon="10.985836857364266"><ele>139.0</ele><time>2026-03-28T09:47:37Z</time></trkpt><trkpt lat="45.477053494321105" lon="10.98580205166856"><ele>145.66666666666669</ele><time>2026-03-28T09:48:16Z</time></trkpt><trkpt lat="45.47698348605306" lon="10.985797352779294"><ele>152.33333333333334</ele><time>2026-03-28T09:48:18.001Z</time></trkpt><trkpt lat="45.47690637412699" lon="10.985773702110102"><ele>159.0</ele><time>2026-03-28T09:48:20.001Z</time></trkpt><trkpt lat="45.4768216610648" lon="10.98573500855273"><ele>165.66666666666666</ele><time>2026-03-28T09:48:23.001Z</time></trkpt><trkpt lat="45.47675272243188" lon="10.98570357939351"><ele>172.33333333333331</ele><time>2026-03-28T09:48:25.001Z</time></trkpt><trkpt lat="45.476668045401254" lon="10.985642948938727"><ele>179.0</ele><time>2026-03-28T09:48:27.001Z</time></trkpt><trkpt lat="45.476598041449925" lon="10.985637878490271"><ele>179.0</ele><time>2026-03-28T09:48:29.001Z</time></trkpt><trkpt lat="45.47653090012493" lon="10.985639306152402"><ele>179.0</ele><time>2026-03-28T09:48:30.001Z</time></trkpt><trkpt lat="45.47649047773458" lon="10.98555530960889"><ele>179.0</ele><time>2026-03-28T09:48:33.001Z</time></trkpt><trkpt lat="45.47645231263025" lon="10.98546579268551"><ele>179.0</ele><time>2026-03-28T09:48:36.001Z</time></trkpt><trkpt lat="45.47642358853236" lon="10.98536750332743"><ele>179.0</ele><time>2026-03-28T09:54:48.001Z</time></trkpt><trkpt lat="45.47654136450331" lon="10.985341697752126"><ele>179.0</ele><time>2026-03-28T09:55:11.001Z</time></trkpt><trkpt lat="45.47661988187275" lon="10.9853510071469"><ele>179.0</ele><time>2026-03-28T09:56:40Z</time></trkpt><trkpt lat="45.47668357808664" lon="10.985376452600347"><ele>179.0</ele><time>2026-03-28T09:56:42Z</time></trkpt><trkpt lat="45.47684644762734" lon="10.98537381288804"><ele>179.0</ele><time>2026-03-28T09:56:49Z</time></trkpt><trkpt lat="45.4769302932953" lon="10.985367393723351"><ele>179.0</ele><time>2026-03-28T09:56:54Z</time></trkpt><trkpt lat="45.47699691904926" lon="10.98533748123497"><ele>179.0</ele><time>2026-03-28T09:56:56Z</time></trkpt><trkpt lat="45.477089685739564" lon="10.98529633691341"><ele>179.0</ele><time>2026-03-28T09:56:58Z</time></trkpt><trkpt lat="45.47716833109367" lon="10.98527204249455"><ele>179.0</ele><time>2026-03-28T09:57:00Z</time></trkpt><trkpt lat="45.47723879845037" lon="10.98527722587549"><ele>179.0</ele><time>2026-03-28T09:57:02Z</time></trkpt><trkpt lat="45.477349027232286" lon="10.985327407129187"><ele>179.0</ele><time>2026-03-28T09:57:05Z</time></trkpt><trkpt lat="45.47743497389406" lon="10.985363710787682"><ele>179.0</ele><time>2026-03-28T09:57:07Z</time></trkpt><trkpt lat="45.477500847432516" lon="10.985426758634281"><ele>179.0</ele><time>2026-03-28T09:57:09Z</time></trkpt><trkpt lat="45.477590522737565" lon="10.985412746461716"><ele>179.0</ele><time>2026-03-28T09:57:11Z</time></trkpt><trkpt lat="45.47769404645505" lon="10.985405240338565"><ele>179.0</ele><time>2026-03-28T09:57:13Z</time></trkpt><trkpt lat="45.47778078818556" lon="10.985472753942176"><ele>179.0</ele><time>2026-03-28T09:57:15Z</time></trkpt><trkpt lat="45.477879680405" lon="10.985461873588811"><ele>179.0</ele><time>2026-03-28T09:57:17Z</time></trkpt><trkpt lat="45.4779454416897" lon="10.985446241949733"><ele>179.0</ele><time>2026-03-28T09:57:19Z</time></trkpt><trkpt lat="45.47804098176512" lon="10.985488946076307"><ele>182.6</ele><time>2026-03-28T09:57:21Z</time></trkpt><trkpt lat="45.47812740103521" lon="10.985518943655842"><ele>186.2</ele><time>2026-03-28T09:57:23Z</time></trkpt><trkpt lat="45.47821807787045" lon="10.985514356453773"><ele>189.79999999999998</ele><time>2026-03-28T09:57:25Z</time></trkpt><trkpt lat="45.47829647136976" lon="10.985488448182915"><ele>193.39999999999998</ele><time>2026-03-28T09:57:27Z</time></trkpt><trkpt lat="45.478375512646686" lon="10.985479462800843"><ele>197.0</ele><time>2026-03-28T09:57:29Z</time></trkpt><trkpt lat="45.478587997633646" lon="10.985465305739133"><ele>197.0</ele><time>2026-03-28T09:57:38Z</time></trkpt><trkpt lat="45.47868533758808" lon="10.985525635549486"><ele>197.0</ele><time>2026-03-28T09:57:40Z</time></trkpt><trkpt lat="45.47875155952271" lon="10.98549835696746"><ele>197.0</ele><time>2026-03-28T09:57:42Z</time></trkpt><trkpt lat="45.478876784109865" lon="10.98549387459591"><ele>197.0</ele><time>2026-03-28T09:57:49Z</time></trkpt><trkpt lat="45.47894510789582" lon="10.985481077622754"><ele>197.0</ele><time>2026-03-28T09:57:52Z</time></trkpt><trkpt lat="45.47902771983291" lon="10.98546812081698"><ele>201.39999999999998</ele><time>2026-03-28T09:57:55Z</time></trkpt><trkpt lat="45.479128727839864" lon="10.985503820423745"><ele>205.79999999999998</ele><time>2026-03-28T09:58:04.999Z</time></trkpt><trkpt lat="45.479054578982165" lon="10.985544594423377"><ele>210.2</ele><time>2026-03-28T09:58:33Z</time></trkpt><trkpt lat="45.47912983773901" lon="10.985649729308571"><ele>214.6</ele><time>2026-03-28T09:58:40Z</time></trkpt><trkpt lat="45.47919397554177" lon="10.985673962126066"><ele>219.0</ele><time>2026-03-28T09:58:42Z</time></trkpt><trkpt lat="45.47930814113753" lon="10.985685234654811"><ele>219.0</ele><time>2026-03-28T09:59:12Z</time></trkpt><trkpt lat="45.47935723111461" lon="10.98574682964216"><ele>219.0</ele><time>2026-03-28T09:59:17Z</time></trkpt><trkpt lat="45.4794198512947" lon="10.985760212196835"><ele>219.0</ele><time>2026-03-28T09:59:24Z</time></trkpt><trkpt lat="45.479533519171916" lon="10.985831886971704"><ele>219.0</ele><time>2026-03-28T09:59:28Z</time></trkpt><trkpt lat="45.47960553649628" lon="10.985865626662468"><ele>219.0</ele><time>2026-03-28T09:59:29Z</time></trkpt><trkpt lat="45.47970960564534" lon="10.985916252427998"><ele>219.0</ele><time>2026-03-28T09:59:31Z</time></trkpt><trkpt lat="45.479804466688286" lon="10.985938919998826"><ele>216.66666666666666</ele><time>2026-03-28T09:59:33Z</time></trkpt><trkpt lat="45.479881656876806" lon="10.985977819609445"><ele>214.33333333333331</ele><time>2026-03-28T09:59:36Z</time></trkpt><trkpt lat="45.47995629291444" lon="10.98600596389422"><ele>212.0</ele><time>2026-03-28T09:59:38Z</time></trkpt><trkpt lat="45.480036238661626" lon="10.986065546680404"><ele>209.66666666666666</ele><time>2026-03-28T09:59:40Z</time></trkpt><trkpt lat="45.48009367442128" lon="10.986109509069397"><ele>207.33333333333331</ele><time>2026-03-28T09:59:41Z</time></trkpt><trkpt lat="45.480165600757374" lon="10.986140303798457"><ele>205.0</ele><time>2026-03-28T09:59:43Z</time></trkpt><trkpt lat="45.4802477356786" lon="10.986176380759078"><ele>204.99999999999997</ele><time>2026-03-28T09:59:52Z</time></trkpt><trkpt lat="45.48031645054398" lon="10.98621358592522"><ele>205.0</ele><time>2026-03-28T09:59:54Z</time></trkpt><trkpt lat="45.48039426055697" lon="10.98622489028353"><ele>205.0</ele><time>2026-03-28T09:59:57Z</time></trkpt><trkpt lat="45.48048820488638" lon="10.986264465192557"><ele>205.0</ele><time>2026-03-28T10:00:00Z</time></trkpt><trkpt lat="45.480578692437184" lon="10.98627115907045"><ele>204.99999999999997</ele><time>2026-03-28T10:00:02Z</time></trkpt><trkpt lat="45.48068573143457" lon="10.986297366295304"><ele>205.0</ele><time>2026-03-28T10:00:04Z</time></trkpt><trkpt lat="45.48074560295022" lon="10.986353407115379"><ele>208.83333333333331</ele><time>2026-03-28T10:00:06Z</time></trkpt><trkpt lat="45.4808108246947" lon="10.98630948780904"><ele>212.66666666666666</ele><time>2026-03-28T10:00:08Z</time></trkpt><trkpt lat="45.480886257531076" lon="10.986279922435545"><ele>216.5</ele><time>2026-03-28T10:00:09.999Z</time></trkpt><trkpt lat="45.480947136380195" lon="10.986233897617522"><ele>220.33333333333331</ele><time>2026-03-28T10:00:12.999Z</time></trkpt><trkpt lat="45.481016609595144" lon="10.986200114468415"><ele>224.16666666666666</ele><time>2026-03-28T10:00:14.999Z</time></trkpt><trkpt lat="45.4810701985651" lon="10.986130707399717"><ele>228.0</ele><time>2026-03-28T10:00:17.999Z</time></trkpt><trkpt lat="45.481170051154734" lon="10.986093054325782"><ele>228.0</ele><time>2026-03-28T10:00:20.999Z</time></trkpt><trkpt lat="45.48124372780158" lon="10.986039700441859"><ele>228.0</ele><time>2026-03-28T10:00:22.999Z</time></trkpt><trkpt lat="45.481329279745914" lon="10.985996174377313"><ele>228.0</ele><time>2026-03-28T10:00:25.999Z</time></trkpt><trkpt lat="45.481384344175055" lon="10.985911126769418"><ele>228.0</ele><time>2026-03-28T10:01:45Z</time></trkpt><trkpt lat="45.48142377028584" lon="10.985837695189582"><ele>228.0</ele><time>2026-03-28T10:01:49Z</time></trkpt><trkpt lat="45.4814825269567" lon="10.985793512040381"><ele>228.0</ele><time>2026-03-28T10:01:55Z</time></trkpt><trkpt lat="45.48151547866339" lon="10.985698363380662"><ele>233.16666666666666</ele><time>2026-03-28T10:02:00Z</time></trkpt><trkpt lat="45.48146143947461" lon="10.985750155300526"><ele>238.33333333333331</ele><time>2026-03-28T10:02:19.998Z</time></trkpt><trkpt lat="45.48136355036843" lon="10.985713691210668"><ele>243.5</ele><time>2026-03-28T10:02:25.999Z</time></trkpt><trkpt lat="45.48129209488929" lon="10.985680156815052"><ele>248.66666666666666</ele><time>2026-03-28T10:02:27.999Z</time></trkpt><trkpt lat="45.48123886627534" lon="10.985623729238144"><ele>253.83333333333331</ele><time>2026-03-28T10:02:30.999Z</time></trkpt><trkpt lat="45.48116373832008" lon="10.985604869710155"><ele>259.0</ele><time>2026-03-28T10:02:33.999Z</time></trkpt><trkpt lat="45.4811180874333" lon="10.985535966674481"><ele>259.0</ele><time>2026-03-28T10:02:36.999Z</time></trkpt><trkpt lat="45.48105237251248" lon="10.98550426593027"><ele>259.0</ele><time>2026-03-28T10:02:40.999Z</time></trkpt><trkpt lat="45.48097946428929" lon="10.985462210184828"><ele>259.0</ele><time>2026-03-28T10:02:43.999Z</time></trkpt><trkpt lat="45.480912605741096" lon="10.985408117211259"><ele>259.0</ele><time>2026-03-28T10:02:46.999Z</time></trkpt><trkpt lat="45.480870247658366" lon="10.985320877621785"><ele>259.0</ele><time>2026-03-28T10:02:49.999Z</time></trkpt><trkpt lat="45.48085450776595" lon="10.985233599454826"><ele>259.0</ele><time>2026-03-28T10:02:58Z</time></trkpt><trkpt lat="45.480805386788965" lon="10.985153676093894"><ele>259.0</ele><time>2026-03-28T10:03:04Z</time></trkpt><trkpt lat="45.48075063166479" lon="10.985097095062892"><ele>262.42857142857144</ele><time>2026-03-28T10:03:12Z</time></trkpt><trkpt lat="45.48075774008697" lon="10.98499620540559"><ele>265.8571428571429</ele><time>2026-03-28T10:09:08.001Z</time></trkpt><trkpt lat="45.48077890907206" lon="10.984910577870249"><ele>269.2857142857143</ele><time>2026-03-28T10:09:11.001Z</time></trkpt><trkpt lat="45.48081916142185" lon="10.984833998356937"><ele>272.7142857142857</ele><time>2026-03-28T10:09:21.001Z</time></trkpt><trkpt lat="45.48081864143059" lon="10.984731669850996"><ele>276.14285714285717</ele><time>2026-03-28T10:09:26.001Z</time></trkpt><trkpt lat="45.48080973608662" lon="10.984626983190356"><ele>279.57142857142856</ele><time>2026-03-28T10:09:32.001Z</time></trkpt><trkpt lat="45.48083721914208" lon="10.98453190459045"><ele>283.0</ele><time>2026-03-28T10:10:04.002Z</time></trkpt><trkpt lat="45.480823902835276" lon="10.984425364385332"><ele>283.0</ele><time>2026-03-28T10:10:07.002Z</time></trkpt><trkpt lat="45.480801061545016" lon="10.984316049212726"><ele>283.0</ele><time>2026-03-28T10:10:10.002Z</time></trkpt><trkpt lat="45.48081665149648" lon="10.984224585035381"><ele>283.0</ele><time>2026-03-28T10:10:12.002Z</time></trkpt><trkpt lat="45.48081627072459" lon="10.984129715748608"><ele>283.0</ele><time>2026-03-28T10:10:15.002Z</time></trkpt><trkpt lat="45.480756677775766" lon="10.984165747483837"><ele>283.0</ele><time>2026-03-28T10:11:14.001Z</time></trkpt><trkpt lat="45.48069979027778" lon="10.984118303415407"><ele>283.0</ele><time>2026-03-28T10:20:49.001Z</time></trkpt><trkpt lat="45.48071923884115" lon="10.984003120154075"><ele>283.0</ele><time>2026-03-28T10:20:52.001Z</time></trkpt><trkpt lat="45.48077381627978" lon="10.983951073920421"><ele>285.8333333333333</ele><time>2026-03-28T10:20:54.001Z</time></trkpt><trkpt lat="45.48085999794995" lon="10.983916255117386"><ele>288.66666666666663</ele><time>2026-03-28T10:20:57.001Z</time></trkpt><trkpt lat="45.48092243008552" lon="10.983941849064491"><ele>291.5</ele><time>2026-03-28T10:20:59.001Z</time></trkpt><trkpt lat="45.48101658128078" lon="10.983954309389294"><ele>294.3333333333333</ele><time>2026-03-28T10:21:02.001Z</time></trkpt><trkpt lat="45.48108962760982" lon="10.983874338831088"><ele>297.1666666666667</ele><time>2026-03-28T10:21:04.001Z</time></trkpt><trkpt lat="45.4811559981204" lon="10.983800275836815"><ele>300.0</ele><time>2026-03-28T10:21:06.001Z</time></trkpt><trkpt lat="45.481218390136576" lon="10.983729938290914"><ele>300.0</ele><time>2026-03-28T10:21:08.001Z</time></trkpt><trkpt lat="45.48126315509267" lon="10.983651321898012"><ele>300.0</ele><time>2026-03-28T10:21:10Z</time></trkpt><trkpt lat="45.48134978365392" lon="10.983595925654457"><ele>300.0</ele><time>2026-03-28T10:21:12Z</time></trkpt><trkpt lat="45.4814379303172" lon="10.983576775277285"><ele>300.0</ele><time>2026-03-28T10:21:14Z</time></trkpt><trkpt lat="45.48153863318729" lon="10.983510799493017"><ele>300.0</ele><time>2026-03-28T10:21:16Z</time></trkpt><trkpt lat="45.481600311857164" lon="10.983465460738444"><ele>300.0</ele><time>2026-03-28T10:21:17Z</time></trkpt><trkpt lat="45.48170136955833" lon="10.983439661027965"><ele>299.8333333333333</ele><time>2026-03-28T10:21:19Z</time></trkpt><trkpt lat="45.48178327821443" lon="10.98344661143127"><ele>299.6666666666667</ele><time>2026-03-28T10:21:20Z</time></trkpt><trkpt lat="45.48185295390918" lon="10.983456210436852"><ele>299.5</ele><time>2026-03-28T10:21:21Z</time></trkpt><trkpt lat="45.48195748488265" lon="10.983425051799045"><ele>299.33333333333337</ele><time>2026-03-28T10:21:23Z</time></trkpt><trkpt lat="45.48202505953807" lon="10.983396898897908"><ele>299.1666666666667</ele><time>2026-03-28T10:21:24Z</time></trkpt><trkpt lat="45.482089607189224" lon="10.983377091086206"><ele>299.0</ele><time>2026-03-28T10:21:25Z</time></trkpt><trkpt lat="45.48215925758348" lon="10.983381749249164"><ele>299.0</ele><time>2026-03-28T10:21:26Z</time></trkpt><trkpt lat="45.482228847025205" lon="10.983407157039462"><ele>299.0</ele><time>2026-03-28T10:21:27Z</time></trkpt><trkpt lat="45.48229154965423" lon="10.983439460665993"><ele>299.0</ele><time>2026-03-28T10:21:28Z</time></trkpt><trkpt lat="45.48241847970699" lon="10.983479067156484"><ele>299.0</ele><time>2026-03-28T10:21:30Z</time></trkpt><trkpt lat="45.48250063114675" lon="10.983490413563876"><ele>299.0</ele><time>2026-03-28T10:21:31Z</time></trkpt><trkpt lat="45.482570900532544" lon="10.983480629360372"><ele>299.0</ele><time>2026-03-28T10:21:32Z</time></trkpt><trkpt lat="45.48263127850128" lon="10.983435360720357"><ele>300.59999999999997</ele><time>2026-03-28T10:21:33Z</time></trkpt><trkpt lat="45.48267682607225" lon="10.983330229327965"><ele>302.2</ele><time>2026-03-28T10:21:35Z</time></trkpt><trkpt lat="45.48267353608631" lon="10.98317059413947"><ele>303.79999999999995</ele><time>2026-03-28T10:21:37Z</time></trkpt><trkpt lat="45.482751724817874" lon="10.98310122399142"><ele>305.4</ele><time>2026-03-28T10:21:39Z</time></trkpt><trkpt lat="45.48282508968478" lon="10.98310593583682"><ele>307.0</ele><time>2026-03-28T10:21:40Z</time></trkpt><trkpt lat="45.48291363693768" lon="10.98314261622925"><ele>307.5</ele><time>2026-03-28T10:21:41Z</time></trkpt><trkpt lat="45.48302411523757" lon="10.983175236557827"><ele>308.0</ele><time>2026-03-28T10:21:42Z</time></trkpt><trkpt lat="45.48315559677058" lon="10.983189950379124"><ele>308.5</ele><time>2026-03-28T10:21:43Z</time></trkpt><trkpt lat="45.483299485192966" lon="10.983208165069584"><ele>309.0</ele><time>2026-03-28T10:21:44Z</time></trkpt><trkpt lat="45.483448870081745" lon="10.983232501566762"><ele>309.0</ele><time>2026-03-28T10:21:45Z</time></trkpt><trkpt lat="45.483582430187695" lon="10.983249241148178"><ele>309.0</ele><time>2026-03-28T10:21:46Z</time></trkpt><trkpt lat="45.48372121815557" lon="10.983256469358352"><ele>309.0</ele><time>2026-03-28T10:21:47Z</time></trkpt><trkpt lat="45.48384702213845" lon="10.983274411773662"><ele>309.0</ele><time>2026-03-28T10:21:48Z</time></trkpt><trkpt lat="45.48396874932463" lon="10.983297227500636"><ele>309.75</ele><time>2026-03-28T10:21:49Z</time></trkpt><trkpt lat="45.48409979736173" lon="10.983321917783574"><ele>310.5</ele><time>2026-03-28T10:21:50Z</time></trkpt><trkpt lat="45.48422330336281" lon="10.983384372209791"><ele>311.25</ele><time>2026-03-28T10:21:51Z</time></trkpt><trkpt lat="45.4843546038868" lon="10.983408094861293"><ele>312.0</ele><time>2026-03-28T10:21:52Z</time></trkpt><trkpt lat="45.48448534724966" lon="10.983412784366985"><ele>314.0</ele><time>2026-03-28T10:21:53Z</time></trkpt><trkpt lat="45.484628743338945" lon="10.983439246826816"><ele>316.0</ele><time>2026-03-28T10:21:54Z</time></trkpt><trkpt lat="45.484779158934714" lon="10.98345810844545"><ele>318.0</ele><time>2026-03-28T10:21:55Z</time></trkpt><trkpt lat="45.484953098148424" lon="10.983494584794474"><ele>318.0</ele><time>2026-03-28T10:21:56Z</time></trkpt><trkpt lat="45.48511384856641" lon="10.983522247420094"><ele>318.0</ele><time>2026-03-28T10:21:57Z</time></trkpt><trkpt lat="45.48526095459331" lon="10.983554805556832"><ele>318.0</ele><time>2026-03-28T10:21:58Z</time></trkpt><trkpt lat="45.4854009486165" lon="10.983586208488495"><ele>317.5</ele><time>2026-03-28T10:21:59Z</time></trkpt><trkpt lat="45.485540144128294" lon="10.983621065392239"><ele>317.0</ele><time>2026-03-28T10:22:00Z</time></trkpt><trkpt lat="45.48568447608855" lon="10.98365249989582"><ele>316.5</ele><time>2026-03-28T10:22:01Z</time></trkpt><trkpt lat="45.485821122290076" lon="10.983665412667444"><ele>316.0</ele><time>2026-03-28T10:22:02Z</time></trkpt><trkpt lat="45.485932647766774" lon="10.983662870801366"><ele>316.0</ele><time>2026-03-28T10:22:03Z</time></trkpt><trkpt lat="45.486024669623745" lon="10.983664083086996"><ele>316.0</ele><time>2026-03-28T10:22:04Z</time></trkpt><trkpt lat="45.486093540980185" lon="10.983684839666346"><ele>316.0</ele><time>2026-03-28T10:22:05Z</time></trkpt><trkpt lat="45.486184915869224" lon="10.98378679255638"><ele>316.0</ele><time>2026-03-28T10:22:07Z</time></trkpt><trkpt lat="45.486259443396264" lon="10.98388711277492"><ele>316.0</ele><time>2026-03-28T10:22:09Z</time></trkpt><trkpt lat="45.486376087073104" lon="10.983923295759555"><ele>317.16666666666663</ele><time>2026-03-28T10:22:11Z</time></trkpt><trkpt lat="45.486441348465156" lon="10.983911070843535"><ele>318.3333333333333</ele><time>2026-03-28T10:22:12Z</time></trkpt><trkpt lat="45.48652208234278" lon="10.983925720797847"><ele>319.5</ele><time>2026-03-28T10:22:13Z</time></trkpt><trkpt lat="45.48659819261209" lon="10.983928286634812"><ele>320.6666666666667</ele><time>2026-03-28T10:22:14Z</time></trkpt><trkpt lat="45.48667766627017" lon="10.983908921163904"><ele>321.83333333333337</ele><time>2026-03-28T10:22:15Z</time></trkpt><trkpt lat="45.486763637885375" lon="10.983932978449236"><ele>323.0</ele><time>2026-03-28T10:22:16Z</time></trkpt><trkpt lat="45.48685373921481" lon="10.98391426621071"><ele>323.0</ele><time>2026-03-28T10:22:17Z</time></trkpt><trkpt lat="45.48693095169732" lon="10.98392288424805"><ele>323.0</ele><time>2026-03-28T10:22:18Z</time></trkpt><trkpt lat="45.48701675885336" lon="10.983939699886198"><ele>323.0</ele><time>2026-03-28T10:22:19Z</time></trkpt><trkpt lat="45.487092008372535" lon="10.983963740643608"><ele>323.0</ele><time>2026-03-28T10:22:20Z</time></trkpt><trkpt lat="45.48717412867748" lon="10.983978344823642"><ele>323.0</ele><time>2026-03-28T10:22:21Z</time></trkpt><trkpt lat="45.4872485585174" lon="10.983942953902325"><ele>323.0</ele><time>2026-03-28T10:22:22Z</time></trkpt><trkpt lat="45.487308061066706" lon="10.98387772740781"><ele>324.83333333333337</ele><time>2026-03-28T10:22:23Z</time></trkpt><trkpt lat="45.487373602161234" lon="10.98384349100144"><ele>326.6666666666667</ele><time>2026-03-28T10:22:24.001Z</time></trkpt><trkpt lat="45.48744260995195" lon="10.983814917080872"><ele>328.5</ele><time>2026-03-28T10:22:25.001Z</time></trkpt><trkpt lat="45.487523526624244" lon="10.98381946298261"><ele>330.3333333333333</ele><time>2026-03-28T10:22:26.001Z</time></trkpt><trkpt lat="45.48761334961021" lon="10.98384624784769"><ele>332.16666666666663</ele><time>2026-03-28T10:22:27.001Z</time></trkpt><trkpt lat="45.48772538005496" lon="10.983865205084378"><ele>334.0</ele><time>2026-03-28T10:22:28.001Z</time></trkpt><trkpt lat="45.487838079647716" lon="10.983904484452282"><ele>333.6</ele><time>2026-03-28T10:22:29.001Z</time></trkpt><trkpt lat="45.48795005755091" lon="10.983940766200712"><ele>333.2</ele><time>2026-03-28T10:22:30.001Z</time></trkpt><trkpt lat="45.48804955669719" lon="10.983974174807921"><ele>332.8</ele><time>2026-03-28T10:22:31.001Z</time></trkpt><trkpt lat="45.48815242207873" lon="10.983995407955089"><ele>332.40000000000003</ele><time>2026-03-28T10:22:32.001Z</time></trkpt><trkpt lat="45.48825319502266" lon="10.984009432375776"><ele>332.0</ele><time>2026-03-28T10:22:33.001Z</time></trkpt><trkpt lat="45.48835438119107" lon="10.984012633001436"><ele>332.0</ele><time>2026-03-28T10:22:34.001Z</time></trkpt><trkpt lat="45.48845592574855" lon="10.984000577494932"><ele>332.0</ele><time>2026-03-28T10:22:35.001Z</time></trkpt><trkpt lat="45.48855585846284" lon="10.983989629907141"><ele>332.0</ele><time>2026-03-28T10:22:36.001Z</time></trkpt><trkpt lat="45.48865622467984" lon="10.98399816036108"><ele>332.0</ele><time>2026-03-28T10:22:37.001Z</time></trkpt><trkpt lat="45.48875458779259" lon="10.984001430548497"><ele>332.0</ele><time>2026-03-28T10:22:38.001Z</time></trkpt><trkpt lat="45.48886078808041" lon="10.98399015348777"><ele>332.0</ele><time>2026-03-28T10:22:39.001Z</time></trkpt><trkpt lat="45.48897040283876" lon="10.98397093968977"><ele>332.0</ele><time>2026-03-28T10:22:40.001Z</time></trkpt><trkpt lat="45.4890735517499" lon="10.983943761246326"><ele>332.0</ele><time>2026-03-28T10:22:41.001Z</time></trkpt><trkpt lat="45.48917459444895" lon="10.983927799970301"><ele>332.0</ele><time>2026-03-28T10:22:42.001Z</time></trkpt><trkpt lat="45.489257706430735" lon="10.983870740324218"><ele>332.0</ele><time>2026-03-28T10:22:43.001Z</time></trkpt><trkpt lat="45.48939174573654" lon="10.983796038960458"><ele>332.0</ele><time>2026-03-28T10:22:44.001Z</time></trkpt><trkpt lat="45.48950931695646" lon="10.98375553950252"><ele>332.0</ele><time>2026-03-28T10:22:45.001Z</time></trkpt><trkpt lat="45.489624279553034" lon="10.983686730445404"><ele>332.0</ele><time>2026-03-28T10:22:46.001Z</time></trkpt><trkpt lat="45.48974081586087" lon="10.983613901978682"><ele>332.0</ele><time>2026-03-28T10:22:47.001Z</time></trkpt><trkpt lat="45.48987023854321" lon="10.983548897448665"><ele>329.75</ele><time>2026-03-28T10:22:48.001Z</time></trkpt><trkpt lat="45.49000651354853" lon="10.983496563723753"><ele>327.5</ele><time>2026-03-28T10:22:49.001Z</time></trkpt><trkpt lat="45.490125198468185" lon="10.983454846866918"><ele>325.25</ele><time>2026-03-28T10:22:50.001Z</time></trkpt><trkpt lat="45.49024267137465" lon="10.983406316677778"><ele>323.0</ele><time>2026-03-28T10:22:51.001Z</time></trkpt><trkpt lat="45.49035567770737" lon="10.983355567255176"><ele>323.59999999999997</ele><time>2026-03-28T10:22:52.001Z</time></trkpt><trkpt lat="45.490453881275315" lon="10.983297959283806"><ele>324.2</ele><time>2026-03-28T10:22:53.001Z</time></trkpt><trkpt lat="45.49055061029636" lon="10.983244560020093"><ele>324.8</ele><time>2026-03-28T10:22:54.001Z</time></trkpt><trkpt lat="45.49063914292713" lon="10.983191758584985"><ele>325.4</ele><time>2026-03-28T10:22:55.001Z</time></trkpt><trkpt lat="45.490720742131" lon="10.983143142522122"><ele>326.0</ele><time>2026-03-28T10:22:56.001Z</time></trkpt><trkpt lat="45.49078503714388" lon="10.98310937328449"><ele>326.0</ele><time>2026-03-28T10:22:57.001Z</time></trkpt><trkpt lat="45.49091975240518" lon="10.983046378171819"><ele>326.0</ele><time>2026-03-28T10:22:59.001Z</time></trkpt><trkpt lat="45.49099170185295" lon="10.983028156712669"><ele>326.0</ele><time>2026-03-28T10:23:00.001Z</time></trkpt><trkpt lat="45.49110109564334" lon="10.983014977699892"><ele>326.0</ele><time>2026-03-28T10:23:02.001Z</time></trkpt><trkpt lat="45.49119873930708" lon="10.982992096744349"><ele>326.0</ele><time>2026-03-28T10:23:05.001Z</time></trkpt><trkpt lat="45.491283683137304" lon="10.982982243788863"><ele>326.1666666666667</ele><time>2026-03-28T10:23:08.001Z</time></trkpt><trkpt lat="45.491265539872295" lon="10.982889666182986"><ele>326.33333333333337</ele><time>2026-03-28T10:23:29.999Z</time></trkpt><trkpt lat="45.491268125218205" lon="10.982776379172096"><ele>326.5</ele><time>2026-03-28T10:23:33Z</time></trkpt><trkpt lat="45.49132780092819" lon="10.982725104781004"><ele>326.6666666666667</ele><time>2026-03-28T10:23:35Z</time></trkpt><trkpt lat="45.49139022324988" lon="10.982705393294156"><ele>326.8333333333333</ele><time>2026-03-28T10:23:36Z</time></trkpt><trkpt lat="45.49148186609441" lon="10.982734535217698"><ele>327.0</ele><time>2026-03-28T10:23:38Z</time></trkpt><trkpt lat="45.49158113898119" lon="10.982712441380386"><ele>327.0</ele><time>2026-03-28T10:23:41Z</time></trkpt><trkpt lat="45.491667877020674" lon="10.982739178245359"><ele>327.0</ele><time>2026-03-28T10:23:43Z</time></trkpt><trkpt lat="45.491769049805974" lon="10.98276754494895"><ele>327.0</ele><time>2026-03-28T10:23:45Z</time></trkpt><trkpt lat="45.49183763370263" lon="10.982734615718796"><ele>327.0</ele><time>2026-03-28T10:23:47Z</time></trkpt><trkpt lat="45.49190664647433" lon="10.982723240801398"><ele>327.0</ele><time>2026-03-28T10:23:49Z</time></trkpt><trkpt lat="45.49199697639808" lon="10.982735198966017"><ele>327.0</ele><time>2026-03-28T10:23:51Z</time></trkpt><trkpt lat="45.4920844238854" lon="10.9827589723371"><ele>328.6666666666667</ele><time>2026-03-28T10:23:53Z</time></trkpt><trkpt lat="45.49215933011301" lon="10.982748312923269"><ele>330.3333333333333</ele><time>2026-03-28T10:23:55Z</time></trkpt><trkpt lat="45.49223319636966" lon="10.982709958587424"><ele>332.0</ele><time>2026-03-28T10:23:57Z</time></trkpt><trkpt lat="45.49229661471309" lon="10.982713193911275"><ele>333.66666666666663</ele><time>2026-03-28T10:23:59Z</time></trkpt><trkpt lat="45.49236377841902" lon="10.982754611174832"><ele>335.3333333333333</ele><time>2026-03-28T10:24:01Z</time></trkpt><trkpt lat="45.492437697316376" lon="10.982784876775593"><ele>337.0</ele><time>2026-03-28T10:24:03Z</time></trkpt><trkpt lat="45.49253602551327" lon="10.982832724700913"><ele>337.0</ele><time>2026-03-28T10:24:05Z</time></trkpt><trkpt lat="45.49261503233534" lon="10.982856310580319"><ele>337.0</ele><time>2026-03-28T10:24:07Z</time></trkpt><trkpt lat="45.492688204620315" lon="10.98286943167626"><ele>337.0</ele><time>2026-03-28T10:24:09Z</time></trkpt><trkpt lat="45.49273946153813" lon="10.98292560344124"><ele>337.0</ele><time>2026-03-28T10:24:11Z</time></trkpt><trkpt lat="45.492859512558425" lon="10.982953843261809"><ele>337.0</ele><time>2026-03-28T10:24:13Z</time></trkpt><trkpt lat="45.492926971690416" lon="10.982947871994886"><ele>337.0</ele><time>2026-03-28T10:24:14Z</time></trkpt><trkpt lat="45.49300561892299" lon="10.982907414453294"><ele>337.66666666666663</ele><time>2026-03-28T10:24:16Z</time></trkpt><trkpt lat="45.49306064865859" lon="10.98283954349654"><ele>338.3333333333333</ele><time>2026-03-28T10:24:18Z</time></trkpt><trkpt lat="45.49316359308284" lon="10.982853869753388"><ele>339.0</ele><time>2026-03-28T10:24:20Z</time></trkpt><trkpt lat="45.49323548899426" lon="10.982840088385403"><ele>339.6666666666667</ele><time>2026-03-28T10:24:21Z</time></trkpt><trkpt lat="45.4933332981442" lon="10.982812235993267"><ele>340.33333333333337</ele><time>2026-03-28T10:24:23Z</time></trkpt><trkpt lat="45.49340656218375" lon="10.982727401184281"><ele>341.0</ele><time>2026-03-28T10:24:26Z</time></trkpt><trkpt lat="45.4935050472203" lon="10.982734979146594"><ele>341.0</ele><time>2026-03-28T10:24:29Z</time></trkpt><trkpt lat="45.493604605652955" lon="10.982696907596988"><ele>341.0</ele><time>2026-03-28T10:24:31Z</time></trkpt><trkpt lat="45.49367391919245" lon="10.982694719565458"><ele>341.0</ele><time>2026-03-28T10:24:32Z</time></trkpt><trkpt lat="45.49374155747319" lon="10.982716407535598"><ele>341.0</ele><time>2026-03-28T10:24:33Z</time></trkpt><trkpt lat="45.493825580318884" lon="10.982725621127178"><ele>341.0</ele><time>2026-03-28T10:24:35Z</time></trkpt><trkpt lat="45.49389078732283" lon="10.982714683581412"><ele>341.0</ele><time>2026-03-28T10:24:37Z</time></trkpt><trkpt lat="45.49395332667151" lon="10.982735197479213"><ele>341.0</ele><time>2026-03-28T10:24:39Z</time></trkpt><trkpt lat="45.494028367894515" lon="10.982690455460288"><ele>341.0</ele><time>2026-03-28T10:24:42Z</time></trkpt><trkpt lat="45.4941071963968" lon="10.982622195316246"><ele>341.0</ele><time>2026-03-28T10:24:44Z</time></trkpt><trkpt lat="45.49418248283984" lon="10.982538712756275"><ele>341.0</ele><time>2026-03-28T10:24:47.001Z</time></trkpt><trkpt lat="45.494264200150575" lon="10.982524319763622"><ele>341.0</ele><time>2026-03-28T10:24:49.001Z</time></trkpt><trkpt lat="45.49433671160406" lon="10.982594909827903"><ele>341.0</ele><time>2026-03-28T10:24:51.001Z</time></trkpt><trkpt lat="45.494412989448044" lon="10.982547927602196"><ele>342.0</ele><time>2026-03-28T10:24:54.001Z</time></trkpt><trkpt lat="45.49445156537972" lon="10.982469211216086"><ele>343.0</ele><time>2026-03-28T10:24:56.001Z</time></trkpt><trkpt lat="45.49453407093717" lon="10.982476955154825"><ele>344.0</ele><time>2026-03-28T10:24:59.001Z</time></trkpt><trkpt lat="45.49459965575396" lon="10.982413037606682"><ele>345.0</ele><time>2026-03-28T10:25:01.001Z</time></trkpt><trkpt lat="45.49466215626775" lon="10.982384206594629"><ele>346.0</ele><time>2026-03-28T10:25:02.001Z</time></trkpt><trkpt lat="45.494735002051364" lon="10.982382640124998"><ele>347.0</ele><time>2026-03-28T10:25:03.001Z</time></trkpt><trkpt lat="45.49480650188638" lon="10.982382695470537"><ele>348.0</ele><time>2026-03-28T10:25:04.001Z</time></trkpt><trkpt lat="45.494917483293534" lon="10.98235873336526"><ele>348.0</ele><time>2026-03-28T10:25:06.001Z</time></trkpt><trkpt lat="45.49500515636233" lon="10.982307655990486"><ele>348.0</ele><time>2026-03-28T10:25:08.001Z</time></trkpt><trkpt lat="45.495085195654866" lon="10.982272068035035"><ele>348.0</ele><time>2026-03-28T10:25:10.001Z</time></trkpt><trkpt lat="45.495152440288955" lon="10.982249017061076"><ele>348.0</ele><time>2026-03-28T10:25:12.001Z</time></trkpt><trkpt lat="45.49522492515616" lon="10.982258183320283"><ele>348.0</ele><time>2026-03-28T10:25:13.001Z</time></trkpt><trkpt lat="45.49531022917931" lon="10.98224801752439"><ele>348.0</ele><time>2026-03-28T10:25:14.001Z</time></trkpt><trkpt lat="45.49540635335585" lon="10.982234148789397"><ele>346.59999999999997</ele><time>2026-03-28T10:25:16.001Z</time></trkpt><trkpt lat="45.49550071145016" lon="10.982282844226944"><ele>345.2</ele><time>2026-03-28T10:25:18.001Z</time></trkpt><trkpt lat="45.495606967982354" lon="10.982286712113156"><ele>343.8</ele><time>2026-03-28T10:25:20.001Z</time></trkpt><trkpt lat="45.49568713011668" lon="10.98223183774065"><ele>342.4</ele><time>2026-03-28T10:25:22Z</time></trkpt><trkpt lat="45.49575057116969" lon="10.982201384414969"><ele>341.0</ele><time>2026-03-28T10:25:23Z</time></trkpt><trkpt lat="45.495852674946846" lon="10.98219302190382"><ele>341.0</ele><time>2026-03-28T10:25:24Z</time></trkpt><trkpt lat="45.4959667058914" lon="10.982157357884597"><ele>341.0</ele><time>2026-03-28T10:25:25Z</time></trkpt><trkpt lat="45.496049596484895" lon="10.982125228514194"><ele>341.0</ele><time>2026-03-28T10:25:26Z</time></trkpt><trkpt lat="45.49613304852993" lon="10.982087142643278"><ele>341.0</ele><time>2026-03-28T10:25:27Z</time></trkpt><trkpt lat="45.49619362125524" lon="10.982052045460655"><ele>341.0</ele><time>2026-03-28T10:25:28Z</time></trkpt><trkpt lat="45.49631676095053" lon="10.982007080772858"><ele>338.85714285714283</ele><time>2026-03-28T10:25:30Z</time></trkpt><trkpt lat="45.49638340247689" lon="10.981986060812954"><ele>336.7142857142857</ele><time>2026-03-28T10:25:31Z</time></trkpt><trkpt lat="45.49644885138051" lon="10.981947429134422"><ele>334.57142857142856</ele><time>2026-03-28T10:25:32Z</time></trkpt><trkpt lat="45.49651764904828" lon="10.981913646866074"><ele>332.42857142857144</ele><time>2026-03-28T10:25:33Z</time></trkpt><trkpt lat="45.49658123003067" lon="10.981921937511267"><ele>330.2857142857143</ele><time>2026-03-28T10:25:34Z</time></trkpt><trkpt lat="45.496665148282425" lon="10.981884416921458"><ele>328.14285714285717</ele><time>2026-03-28T10:25:35Z</time></trkpt><trkpt lat="45.49672965919612" lon="10.981862860721273"><ele>326.0</ele><time>2026-03-28T10:25:36Z</time></trkpt><trkpt lat="45.49679406504877" lon="10.981853016723262"><ele>326.0</ele><time>2026-03-28T10:25:37Z</time></trkpt><trkpt lat="45.49687529676975" lon="10.981875566437362"><ele>326.0</ele><time>2026-03-28T10:25:39Z</time></trkpt><trkpt lat="45.49693945068446" lon="10.981896304973946"><ele>326.0</ele><time>2026-03-28T10:25:41Z</time></trkpt><trkpt lat="45.49700602941046" lon="10.981885396287613"><ele>326.0</ele><time>2026-03-28T10:25:43Z</time></trkpt><trkpt lat="45.497069985085375" lon="10.98183239445893"><ele>326.0</ele><time>2026-03-28T10:25:47Z</time></trkpt><trkpt lat="45.4971482183126" lon="10.981802455221683"><ele>326.0</ele><time>2026-03-28T10:25:49Z</time></trkpt><trkpt lat="45.497225953549076" lon="10.98177619853943"><ele>325.20000000000005</ele><time>2026-03-28T10:25:51Z</time></trkpt><trkpt lat="45.4973027474334" lon="10.98173268541223"><ele>324.40000000000003</ele><time>2026-03-28T10:25:53Z</time></trkpt><trkpt lat="45.49738240063231" lon="10.981704109568303"><ele>323.6</ele><time>2026-03-28T10:25:55Z</time></trkpt><trkpt lat="45.49748730314817" lon="10.981669199475638"><ele>322.8</ele><time>2026-03-28T10:25:57Z</time></trkpt><trkpt lat="45.49754878324603" lon="10.98164698905574"><ele>322.0</ele><time>2026-03-28T10:25:58Z</time></trkpt><trkpt lat="45.49765663201665" lon="10.98157836076807"><ele>324.20000000000005</ele><time>2026-03-28T10:26:00Z</time></trkpt><trkpt lat="45.49776394168609" lon="10.981516604060861"><ele>326.4</ele><time>2026-03-28T10:26:02Z</time></trkpt><trkpt lat="45.4978887318974" lon="10.981554525064103"><ele>328.6</ele><time>2026-03-28T10:26:04Z</time></trkpt><trkpt lat="45.497953376318435" lon="10.9815853368251"><ele>330.79999999999995</ele><time>2026-03-28T10:26:05Z</time></trkpt><trkpt lat="45.49803050348423" lon="10.981610196129402"><ele>333.0</ele><time>2026-03-28T10:26:06Z</time></trkpt><trkpt lat="45.49810436490197" lon="10.981622329195865"><ele>333.79999999999995</ele><time>2026-03-28T10:26:07Z</time></trkpt><trkpt lat="45.4981843008842" lon="10.981621518942358"><ele>334.6</ele><time>2026-03-28T10:26:08Z</time></trkpt><trkpt lat="45.49835929695248" lon="10.981607932618422"><ele>335.4</ele><time>2026-03-28T10:26:10Z</time></trkpt><trkpt lat="45.498449101189166" lon="10.981591376251547"><ele>336.20000000000005</ele><time>2026-03-28T10:26:11Z</time></trkpt><trkpt lat="45.49853442941459" lon="10.98157727788993"><ele>337.0</ele><time>2026-03-28T10:26:12Z</time></trkpt><trkpt lat="45.49861091206656" lon="10.981529006988115"><ele>337.0</ele><time>2026-03-28T10:26:13Z</time></trkpt><trkpt lat="45.49870082700157" lon="10.981513039245023"><ele>337.0</ele><time>2026-03-28T10:26:14Z</time></trkpt><trkpt lat="45.498778636174244" lon="10.981482265901658"><ele>337.0</ele><time>2026-03-28T10:26:15Z</time></trkpt><trkpt lat="45.498865124232935" lon="10.98152740576791"><ele>337.0</ele><time>2026-03-28T10:26:19Z</time></trkpt><trkpt lat="45.49893633715617" lon="10.981554337888408"><ele>337.0</ele><time>2026-03-28T10:26:22.001Z</time></trkpt><trkpt lat="45.499011945812946" lon="10.981592589497096"><ele>337.0</ele><time>2026-03-28T10:26:27.001Z</time></trkpt><trkpt lat="45.49908751356624" lon="10.981639652391411"><ele>334.8</ele><time>2026-03-28T10:26:29.001Z</time></trkpt><trkpt lat="45.499111007072415" lon="10.981733464696571"><ele>332.6</ele><time>2026-03-28T10:26:33.001Z</time></trkpt><trkpt lat="45.49913041553683" lon="10.981878800324147"><ele>330.40000000000003</ele><time>2026-03-28T10:26:36.001Z</time></trkpt><trkpt lat="45.499233076091826" lon="10.98190702810579"><ele>328.20000000000005</ele><time>2026-03-28T10:26:39.001Z</time></trkpt><trkpt lat="45.49934212068203" lon="10.981970280480718"><ele>326.0</ele><time>2026-03-28T10:26:41.001Z</time></trkpt><trkpt lat="45.499396778533146" lon="10.982064097913925"><ele>326.0</ele><time>2026-03-28T10:26:44.001Z</time></trkpt><trkpt lat="45.499442774226026" lon="10.98213164041728"><ele>326.0</ele><time>2026-03-28T10:26:45.001Z</time></trkpt><trkpt lat="45.49949637479557" lon="10.982202419458183"><ele>326.0</ele><time>2026-03-28T10:26:47.001Z</time></trkpt><trkpt lat="45.49960495274918" lon="10.982253005815174"><ele>326.0</ele><time>2026-03-28T10:27:27.999Z</time></trkpt><trkpt lat="45.49963874713414" lon="10.982331489801496"><ele>326.0</ele><time>2026-03-28T10:27:29.999Z</time></trkpt><trkpt lat="45.499726394089066" lon="10.982209777047963"><ele>326.0</ele><time>2026-03-28T10:27:38.999Z</time></trkpt><trkpt lat="45.499812032112054" lon="10.98224413500688"><ele>323.83333333333337</ele><time>2026-03-28T10:27:41.999Z</time></trkpt><trkpt lat="45.49989509517854" lon="10.98219533330571"><ele>321.6666666666667</ele><time>2026-03-28T10:27:44Z</time></trkpt><trkpt lat="45.49997255634371" lon="10.982162996403693"><ele>319.5</ele><time>2026-03-28T10:27:46Z</time></trkpt><trkpt lat="45.50006130423311" lon="10.982135575564344"><ele>317.3333333333333</ele><time>2026-03-28T10:27:48Z</time></trkpt><trkpt lat="45.50015473566061" lon="10.982142510082273"><ele>315.16666666666663</ele><time>2026-03-28T10:27:53Z</time></trkpt><trkpt lat="45.50021999316573" lon="10.98212432808572"><ele>313.0</ele><time>2026-03-28T10:27:55Z</time></trkpt><trkpt lat="45.50030659945147" lon="10.9821253230691"><ele>313.0</ele><time>2026-03-28T10:27:59Z</time></trkpt><trkpt lat="45.50037594634135" lon="10.982135656423674"><ele>313.0</ele><time>2026-03-28T10:28:01Z</time></trkpt><trkpt lat="45.500467250271086" lon="10.982138135051413"><ele>313.0</ele><time>2026-03-28T10:28:04Z</time></trkpt><trkpt lat="45.500549231948106" lon="10.982142231374306"><ele>313.0</ele><time>2026-03-28T10:28:07Z</time></trkpt><trkpt lat="45.50056006308811" lon="10.982028138482447"><ele>313.0</ele><time>2026-03-28T10:28:12Z</time></trkpt><trkpt lat="45.50057764659831" lon="10.981917296144896"><ele>313.0</ele><time>2026-03-28T10:28:16Z</time></trkpt><trkpt lat="45.500625531142624" lon="10.981857512897362"><ele>313.8333333333333</ele><time>2026-03-28T10:28:18Z</time></trkpt><trkpt lat="45.50069587548272" lon="10.98189321595472"><ele>314.66666666666663</ele><time>2026-03-28T10:28:24Z</time></trkpt><trkpt lat="45.500771893944645" lon="10.981977479305923"><ele>315.5</ele><time>2026-03-28T10:28:27Z</time></trkpt><trkpt lat="45.500867893096604" lon="10.982006292915552"><ele>316.3333333333333</ele><time>2026-03-28T10:28:29Z</time></trkpt><trkpt lat="45.500935613111" lon="10.982082280198451"><ele>317.1666666666667</ele><time>2026-03-28T10:28:32Z</time></trkpt><trkpt lat="45.50101456465448" lon="10.982136573577751"><ele>318.0</ele><time>2026-03-28T10:28:37Z</time></trkpt><trkpt lat="45.50109727140997" lon="10.982108699602707"><ele>318.0</ele><time>2026-03-28T10:28:39Z</time></trkpt><trkpt lat="45.50113375610763" lon="10.982026420717139"><ele>318.0</ele><time>2026-03-28T10:28:44Z</time></trkpt><trkpt lat="45.50119703172831" lon="10.982019366488897"><ele>318.0</ele><time>2026-03-28T10:28:52Z</time></trkpt><trkpt lat="45.50126206830658" lon="10.982057773508343"><ele>318.0</ele><time>2026-03-28T10:28:56.001Z</time></trkpt><trkpt lat="45.50130475066265" lon="10.98197301344395"><ele>318.0</ele><time>2026-03-28T10:29:31.001Z</time></trkpt><trkpt lat="45.50138433463316" lon="10.98193270691406"><ele>318.0</ele><time>2026-03-28T10:30:16Z</time></trkpt><trkpt lat="45.5014488132042" lon="10.981993068889652"><ele>318.0</ele><time>2026-03-28T10:30:20Z</time></trkpt><trkpt lat="45.50154091678307" lon="10.982027521788062"><ele>321.0</ele><time>2026-03-28T10:40:06Z</time></trkpt><trkpt lat="45.50162340681964" lon="10.982046700757987"><ele>324.0</ele><time>2026-03-28T10:40:09Z</time></trkpt><trkpt lat="45.501679241883316" lon="10.981988693808246"><ele>327.0</ele><time>2026-03-28T10:40:13Z</time></trkpt><trkpt lat="45.50177311190384" lon="10.982031689113844"><ele>330.0</ele><time>2026-03-28T10:40:15Z</time></trkpt><trkpt lat="45.501869352523435" lon="10.982058201374889"><ele>333.0</ele><time>2026-03-28T10:40:17Z</time></trkpt><trkpt lat="45.5019691285" lon="10.98207969283271"><ele>333.0</ele><time>2026-03-28T10:40:19Z</time></trkpt><trkpt lat="45.50207463718883" lon="10.982091379409821"><ele>333.0</ele><time>2026-03-28T10:40:21Z</time></trkpt><trkpt lat="45.50214019318274" lon="10.982083595438796"><ele>333.0</ele><time>2026-03-28T10:40:23Z</time></trkpt><trkpt lat="45.50220917194662" lon="10.982038170600632"><ele>333.0</ele><time>2026-03-28T10:40:26Z</time></trkpt><trkpt lat="45.502304498386785" lon="10.982036514482921"><ele>333.0</ele><time>2026-03-28T10:40:28Z</time></trkpt><trkpt lat="45.50236970837868" lon="10.981923338583965"><ele>333.0</ele><time>2026-03-28T10:40:31Z</time></trkpt><trkpt lat="45.502459734743034" lon="10.981870688641452"><ele>334.5714285714286</ele><time>2026-03-28T10:40:33Z</time></trkpt><trkpt lat="45.50249988837279" lon="10.981790922996758"><ele>336.1428571428571</ele><time>2026-03-28T10:40:35Z</time></trkpt><trkpt lat="45.50252477723071" lon="10.981705993493362"><ele>337.7142857142857</ele><time>2026-03-28T10:40:38Z</time></trkpt><trkpt lat="45.50258870907174" lon="10.98169081355914"><ele>339.28571428571433</ele><time>2026-03-28T10:40:40Z</time></trkpt><trkpt lat="45.5026574961554" lon="10.981690166277879"><ele>340.8571428571429</ele><time>2026-03-28T10:40:42.001Z</time></trkpt><trkpt lat="45.50274937326245" lon="10.981639555951235"><ele>342.42857142857144</ele><time>2026-03-28T10:40:45.001Z</time></trkpt><trkpt lat="45.502826620052126" lon="10.981628721073985"><ele>344.0</ele><time>2026-03-28T10:40:47.001Z</time></trkpt><trkpt lat="45.502907750232175" lon="10.9815915864389"><ele>348.6666666666667</ele><time>2026-03-28T10:40:51.001Z</time></trkpt><trkpt lat="45.502972594629" lon="10.981546583197751"><ele>353.33333333333337</ele><time>2026-03-28T10:40:53.001Z</time></trkpt><trkpt lat="45.50302009139565" lon="10.98143116055951"><ele>358.0</ele><time>2026-03-28T10:40:56.001Z</time></trkpt><trkpt lat="45.50308018647618" lon="10.981311744632665"><ele>362.6666666666667</ele><time>2026-03-28T10:40:59.001Z</time></trkpt><trkpt lat="45.50313761721085" lon="10.981212624132144"><ele>367.3333333333333</ele><time>2026-03-28T10:41:02.001Z</time></trkpt><trkpt lat="45.50317944566192" lon="10.98110164654713"><ele>372.0</ele><time>2026-03-28T10:41:04.001Z</time></trkpt><trkpt lat="45.503205295118555" lon="10.9810018279496"><ele>372.0</ele><time>2026-03-28T10:41:06.001Z</time></trkpt><trkpt lat="45.50326304650473" lon="10.98093556140594"><ele>372.0</ele><time>2026-03-28T10:41:08.001Z</time></trkpt><trkpt lat="45.50332381627595" lon="10.980882779339657"><ele>372.0</ele><time>2026-03-28T10:41:10.001Z</time></trkpt><trkpt lat="45.50340706890604" lon="10.980896181783882"><ele>372.0</ele><time>2026-03-28T10:41:12.001Z</time></trkpt><trkpt lat="45.503480097638196" lon="10.980932138618329"><ele>372.0</ele><time>2026-03-28T10:41:14.001Z</time></trkpt><trkpt lat="45.503573505404944" lon="10.980880996972223"><ele>372.0</ele><time>2026-03-28T10:41:16.001Z</time></trkpt><trkpt lat="45.50363434254258" lon="10.980794115987868"><ele>373.3333333333333</ele><time>2026-03-28T10:41:17.001Z</time></trkpt><trkpt lat="45.503679684259225" lon="10.980690120014517"><ele>374.6666666666667</ele><time>2026-03-28T10:41:20.001Z</time></trkpt><trkpt lat="45.50374395936185" lon="10.980604193992662"><ele>376.0</ele><time>2026-03-28T10:41:22.001Z</time></trkpt><trkpt lat="45.503811680602155" lon="10.980628123589335"><ele>377.33333333333337</ele><time>2026-03-28T10:41:25.002Z</time></trkpt><trkpt lat="45.50386380876822" lon="10.980565841914837"><ele>378.6666666666667</ele><time>2026-03-28T10:41:27.002Z</time></trkpt><trkpt lat="45.50392816631818" lon="10.980489672835489"><ele>380.0</ele><time>2026-03-28T10:41:30.002Z</time></trkpt><trkpt lat="45.5039665167388" lon="10.98038573897787"><ele>381.6666666666667</ele><time>2026-03-28T10:41:32.002Z</time></trkpt><trkpt lat="45.50403535957425" lon="10.98031685715934"><ele>383.33333333333337</ele><time>2026-03-28T10:41:34.002Z</time></trkpt><trkpt lat="45.50411347383996" lon="10.98028091126033"><ele>385.0</ele><time>2026-03-28T10:41:36.002Z</time></trkpt><trkpt lat="45.504166556874075" lon="10.980181761854505"><ele>386.6666666666667</ele><time>2026-03-28T10:41:38.002Z</time></trkpt><trkpt lat="45.50423071846478" lon="10.980130257425914"><ele>388.3333333333333</ele><time>2026-03-28T10:41:40.002Z</time></trkpt><trkpt lat="45.5042851247946" lon="10.980211751802614"><ele>390.0</ele><time>2026-03-28T10:41:43.002Z</time></trkpt><trkpt lat="45.504362658319714" lon="10.98022004563729"><ele>390.0</ele><time>2026-03-28T10:41:46.002Z</time></trkpt><trkpt lat="45.50445232079362" lon="10.980204676868505"><ele>390.0</ele><time>2026-03-28T10:41:48.002Z</time></trkpt><trkpt lat="45.50453913975832" lon="10.980150060448723"><ele>390.0</ele><time>2026-03-28T10:41:51.002Z</time></trkpt><trkpt lat="45.50463395905547" lon="10.980134385474052"><ele>390.0</ele><time>2026-03-28T10:41:54.002Z</time></trkpt><trkpt lat="45.50469551475137" lon="10.980184057303461"><ele>390.0</ele><time>2026-03-28T10:41:56.002Z</time></trkpt><trkpt lat="45.504791949735306" lon="10.9801580519384"><ele>390.0</ele><time>2026-03-28T10:41:58.002Z</time></trkpt><trkpt lat="45.504858567531514" lon="10.980146510351853"><ele>391.4</ele><time>2026-03-28T10:42:00.002Z</time></trkpt><trkpt lat="45.5049893258869" lon="10.980164976486055"><ele>392.8</ele><time>2026-03-28T10:42:02.002Z</time></trkpt><trkpt lat="45.505076271530754" lon="10.980197932675708"><ele>394.20000000000005</ele><time>2026-03-28T10:42:04.002Z</time></trkpt><trkpt lat="45.505151512723636" lon="10.980204092421276"><ele>395.6</ele><time>2026-03-28T10:42:06.002Z</time></trkpt><trkpt lat="45.505255759177935" lon="10.980203466568224"><ele>397.0</ele><time>2026-03-28T10:42:08.003Z</time></trkpt><trkpt lat="45.505345230678344" lon="10.980125095718936"><ele>398.20000000000005</ele><time>2026-03-28T10:42:09.999Z</time></trkpt><trkpt lat="45.505444231092014" lon="10.980067150621556"><ele>399.4</ele><time>2026-03-28T10:42:11.999Z</time></trkpt><trkpt lat="45.50553519718945" lon="10.980051803680851"><ele>400.6</ele><time>2026-03-28T10:42:13.999Z</time></trkpt><trkpt lat="45.50562888062588" lon="10.980015069519892"><ele>401.79999999999995</ele><time>2026-03-28T10:42:15.999Z</time></trkpt><trkpt lat="45.50570477494536" lon="10.979914474871949"><ele>403.0</ele><time>2026-03-28T10:42:17.999Z</time></trkpt><trkpt lat="45.50576106810029" lon="10.979828487853599"><ele>404.5714285714286</ele><time>2026-03-28T10:42:19.999Z</time></trkpt><trkpt lat="45.50576085734079" lon="10.979706917283046"><ele>406.1428571428571</ele><time>2026-03-28T10:42:21.999Z</time></trkpt><trkpt lat="45.505753181574185" lon="10.979612459426104"><ele>407.7142857142857</ele><time>2026-03-28T10:42:24Z</time></trkpt><trkpt lat="45.50578202161943" lon="10.979521224985236"><ele>409.28571428571433</ele><time>2026-03-28T10:42:26Z</time></trkpt><trkpt lat="45.505789855015834" lon="10.979421088141738"><ele>410.8571428571429</ele><time>2026-03-28T10:42:28Z</time></trkpt><trkpt lat="45.5058109838801" lon="10.979301227959"><ele>412.42857142857144</ele><time>2026-03-28T10:42:30Z</time></trkpt><trkpt lat="45.505856682655626" lon="10.979235669019214"><ele>414.0</ele><time>2026-03-28T10:42:31Z</time></trkpt><trkpt lat="45.505932968964906" lon="10.979149614412476"><ele>414.0</ele><time>2026-03-28T10:42:33Z</time></trkpt><trkpt lat="45.50600955503842" lon="10.979114008550354"><ele>414.0</ele><time>2026-03-28T10:42:35Z</time></trkpt><trkpt lat="45.506093268151176" lon="10.979041234770806"><ele>414.0</ele><time>2026-03-28T10:42:37Z</time></trkpt><trkpt lat="45.50616255965509" lon="10.97895967607324"><ele>414.0</ele><time>2026-03-28T10:42:39Z</time></trkpt><trkpt lat="45.50622195290706" lon="10.978901492622143"><ele>414.0</ele><time>2026-03-28T10:42:40Z</time></trkpt><trkpt lat="45.50631342899535" lon="10.978837135495283"><ele>414.0</ele><time>2026-03-28T10:42:42Z</time></trkpt><trkpt lat="45.506368973760324" lon="10.978781808417827"><ele>416.1666666666667</ele><time>2026-03-28T10:42:44Z</time></trkpt><trkpt lat="45.50642672087332" lon="10.978689181854607"><ele>418.33333333333337</ele><time>2026-03-28T10:42:46Z</time></trkpt><trkpt lat="45.50648612898394" lon="10.978647698988464"><ele>420.5</ele><time>2026-03-28T10:42:48Z</time></trkpt><trkpt lat="45.50656529474142" lon="10.978585445410669"><ele>422.6666666666667</ele><time>2026-03-28T10:42:50Z</time></trkpt><trkpt lat="45.506648415859495" lon="10.97853515693526"><ele>424.83333333333337</ele><time>2026-03-28T10:42:52Z</time></trkpt><trkpt lat="45.50672325482136" lon="10.978521866571079"><ele>427.0</ele><time>2026-03-28T10:42:54Z</time></trkpt><trkpt lat="45.50681714526925" lon="10.978522528271899"><ele>427.00000000000006</ele><time>2026-03-28T10:42:57.001Z</time></trkpt><trkpt lat="45.5069186863421" lon="10.978528658652955"><ele>427.0</ele><time>2026-03-28T10:43:00.001Z</time></trkpt><trkpt lat="45.50698862787518" lon="10.978535696746388"><ele>427.0</ele><time>2026-03-28T10:43:02.001Z</time></trkpt><trkpt lat="45.507034994865776" lon="10.978441387713419"><ele>427.0</ele><time>2026-03-28T10:44:08.002Z</time></trkpt><trkpt lat="45.50696905208862" lon="10.97834217397646"><ele>427.00000000000006</ele><time>2026-03-28T10:44:11.002Z</time></trkpt><trkpt lat="45.50688934205744" lon="10.978290557591906"><ele>427.0</ele><time>2026-03-28T10:44:13.002Z</time></trkpt><trkpt lat="45.50682385323809" lon="10.978230484066614"><ele>425.00000000000006</ele><time>2026-03-28T10:44:16Z</time></trkpt><trkpt lat="45.506740876437405" lon="10.978223214887802"><ele>423.0</ele><time>2026-03-28T10:44:17Z</time></trkpt><trkpt lat="45.506667001772534" lon="10.978202418458551"><ele>421.0</ele><time>2026-03-28T10:44:19Z</time></trkpt><trkpt lat="45.5065870119393" lon="10.978197300275374"><ele>419.0</ele><time>2026-03-28T10:44:22Z</time></trkpt><trkpt lat="45.50649726040598" lon="10.97818485246677"><ele>417.00000000000006</ele><time>2026-03-28T10:44:24Z</time></trkpt><trkpt lat="45.50643375994543" lon="10.978210605047314"><ele>415.0</ele><time>2026-03-28T10:44:25Z</time></trkpt><trkpt lat="45.506345868872835" lon="10.97825025191378"><ele>415.00000000000006</ele><time>2026-03-28T10:44:27Z</time></trkpt><trkpt lat="45.50627463482227" lon="10.97822374138102"><ele>415.0</ele><time>2026-03-28T10:44:30Z</time></trkpt><trkpt lat="45.50620190198683" lon="10.978220576165679"><ele>415.0</ele><time>2026-03-28T10:44:31Z</time></trkpt><trkpt lat="45.5061180090296" lon="10.978211572381639"><ele>415.0</ele><time>2026-03-28T10:44:33Z</time></trkpt><trkpt lat="45.5060331539098" lon="10.978247566651783"><ele>415.00000000000006</ele><time>2026-03-28T10:44:35Z</time></trkpt><trkpt lat="45.505967666806306" lon="10.978238228775368"><ele>415.0</ele><time>2026-03-28T10:44:37Z</time></trkpt><trkpt lat="45.505989076102054" lon="10.97814375162315"><ele>415.00000000000006</ele><time>2026-03-28T10:44:42Z</time></trkpt><trkpt lat="45.50607029840613" lon="10.978079012602173"><ele>415.0</ele><time>2026-03-28T10:44:44Z</time></trkpt><trkpt lat="45.50616541461321" lon="10.97800773497459"><ele>415.0</ele><time>2026-03-28T10:44:46Z</time></trkpt><trkpt lat="45.506226200319745" lon="10.977976846877604"><ele>415.0</ele><time>2026-03-28T10:44:47Z</time></trkpt><trkpt lat="45.50629253086162" lon="10.977958291761576"><ele>415.00000000000006</ele><time>2026-03-28T10:44:48Z</time></trkpt><trkpt lat="45.50636504399761" lon="10.977928181110444"><ele>415.0</ele><time>2026-03-28T10:44:49Z</time></trkpt><trkpt lat="45.506444403777316" lon="10.977891984908021"><ele>415.0</ele><time>2026-03-28T10:44:50Z</time></trkpt><trkpt lat="45.50652943864129" lon="10.97784294613421"><ele>415.0</ele><time>2026-03-28T10:44:51.001Z</time></trkpt><trkpt lat="45.50662378891059" lon="10.977775984561037"><ele>415.0</ele><time>2026-03-28T10:44:52.001Z</time></trkpt><trkpt lat="45.506701284652614" lon="10.97771374190665"><ele>415.0</ele><time>2026-03-28T10:44:53.001Z</time></trkpt><trkpt lat="45.506812742450016" lon="10.977644058070481"><ele>415.0</ele><time>2026-03-28T10:44:55.001Z</time></trkpt><trkpt lat="45.5068495422518" lon="10.977538272424571"><ele>413.6666666666667</ele><time>2026-03-28T10:44:56.001Z</time></trkpt><trkpt lat="45.50690212671565" lon="10.977488280517504"><ele>412.33333333333337</ele><time>2026-03-28T10:45:07.001Z</time></trkpt><trkpt lat="45.506941840776975" lon="10.977375982475364"><ele>411.0</ele><time>2026-03-28T10:45:09.001Z</time></trkpt><trkpt lat="45.506991179119495" lon="10.977295694515318"><ele>409.66666666666663</ele><time>2026-03-28T10:45:10.001Z</time></trkpt><trkpt lat="45.50705111437953" lon="10.9772209380546"><ele>408.3333333333333</ele><time>2026-03-28T10:45:11.001Z</time></trkpt><trkpt lat="45.50710603039093" lon="10.977082849593236"><ele>407.0</ele><time>2026-03-28T10:45:13.001Z</time></trkpt><trkpt lat="45.507129354500655" lon="10.976938453871318"><ele>407.0</ele><time>2026-03-28T10:45:15.001Z</time></trkpt><trkpt lat="45.507112244316794" lon="10.976786372089638"><ele>407.0</ele><time>2026-03-28T10:45:17.001Z</time></trkpt><trkpt lat="45.507093544031164" lon="10.976612244933454"><ele>407.0</ele><time>2026-03-28T10:45:19.001Z</time></trkpt><trkpt lat="45.507145665432674" lon="10.976511609239859"><ele>407.0</ele><time>2026-03-28T10:45:22.001Z</time></trkpt><trkpt lat="45.50724907985847" lon="10.976467754205176"><ele>407.0</ele><time>2026-03-28T10:45:24.001Z</time></trkpt><trkpt lat="45.5073376832587" lon="10.976410230732967"><ele>408.49999999999994</ele><time>2026-03-28T10:45:26.001Z</time></trkpt><trkpt lat="45.50739424051894" lon="10.976359592403144"><ele>410.0</ele><time>2026-03-28T10:45:27.001Z</time></trkpt><trkpt lat="45.507443082295886" lon="10.976296211775647"><ele>411.5</ele><time>2026-03-28T10:45:28.002Z</time></trkpt><trkpt lat="45.50750423101585" lon="10.976270219503439"><ele>413.0</ele><time>2026-03-28T10:45:29.002Z</time></trkpt><trkpt lat="45.50760177280184" lon="10.97624193331574"><ele>414.49999999999994</ele><time>2026-03-28T10:45:31.002Z</time></trkpt><trkpt lat="45.50773031691405" lon="10.97616955533645"><ele>416.0</ele><time>2026-03-28T10:45:33.002Z</time></trkpt><trkpt lat="45.50780633361573" lon="10.976136728624148"><ele>416.0</ele><time>2026-03-28T10:45:34.002Z</time></trkpt><trkpt lat="45.50788752758513" lon="10.976095141057426"><ele>416.0</ele><time>2026-03-28T10:45:36.002Z</time></trkpt><trkpt lat="45.507998378361364" lon="10.976081507796502"><ele>416.0</ele><time>2026-03-28T10:45:38.002Z</time></trkpt><trkpt lat="45.507948039918446" lon="10.976008238950827"><ele>416.0</ele><time>2026-03-28T10:45:50.002Z</time></trkpt><trkpt lat="45.508022902993105" lon="10.97592116097644"><ele>416.0</ele><time>2026-03-28T10:45:53.002Z</time></trkpt><trkpt lat="45.50809083141276" lon="10.975748285281478"><ele>419.20000000000005</ele><time>2026-03-28T10:45:55.002Z</time></trkpt><trkpt lat="45.508148022337515" lon="10.975633626636673"><ele>422.40000000000003</ele><time>2026-03-28T10:45:56.002Z</time></trkpt><trkpt lat="45.5082157991895" lon="10.975522724178907"><ele>425.6</ele><time>2026-03-28T10:45:57.002Z</time></trkpt><trkpt lat="45.50829056528022" lon="10.975423284390324"><ele>428.8</ele><time>2026-03-28T10:45:58.002Z</time></trkpt><trkpt lat="45.5083666076008" lon="10.97533052086026"><ele>432.0</ele><time>2026-03-28T10:45:59.002Z</time></trkpt><trkpt lat="45.508436394357275" lon="10.975236615724688"><ele>432.0</ele><time>2026-03-28T10:46:00.002Z</time></trkpt><trkpt lat="45.50848281606099" lon="10.975155273354146"><ele>432.0</ele><time>2026-03-28T10:46:01.002Z</time></trkpt><trkpt lat="45.508532179119186" lon="10.975066954013815"><ele>432.0</ele><time>2026-03-28T10:46:02.002Z</time></trkpt><trkpt lat="45.50858773884792" lon="10.974977948961302"><ele>432.0</ele><time>2026-03-28T10:46:03.002Z</time></trkpt><trkpt lat="45.50864983254113" lon="10.97489797205297"><ele>432.0</ele><time>2026-03-28T10:46:04.002Z</time></trkpt><trkpt lat="45.50872046325073" lon="10.97480903907463"><ele>432.0</ele><time>2026-03-28T10:46:05.002Z</time></trkpt><trkpt lat="45.508800252160384" lon="10.9746987864721"><ele>431.6666666666667</ele><time>2026-03-28T10:46:06.002Z</time></trkpt><trkpt lat="45.508865533492084" lon="10.974608157300391"><ele>431.33333333333337</ele><time>2026-03-28T10:46:07.002Z</time></trkpt><trkpt lat="45.50891878412975" lon="10.97453202420199"><ele>431.0</ele><time>2026-03-28T10:46:08.003Z</time></trkpt><trkpt lat="45.50897095747554" lon="10.974462363815746"><ele>430.6666666666667</ele><time>2026-03-28T10:46:09.003Z</time></trkpt><trkpt lat="45.50903583436489" lon="10.974409013344824"><ele>430.33333333333337</ele><time>2026-03-28T10:46:10.003Z</time></trkpt><trkpt lat="45.50910296002424" lon="10.974384296147457"><ele>430.0</ele><time>2026-03-28T10:46:11.003Z</time></trkpt><trkpt lat="45.50918339593747" lon="10.974373246598692"><ele>430.00000000000006</ele><time>2026-03-28T10:46:12.003Z</time></trkpt><trkpt lat="45.509266713903074" lon="10.974384971106707"><ele>430.0</ele><time>2026-03-28T10:46:13.003Z</time></trkpt><trkpt lat="45.50935158022381" lon="10.97441123537023"><ele>430.0</ele><time>2026-03-28T10:46:14.003Z</time></trkpt><trkpt lat="45.50943999789937" lon="10.974444475219942"><ele>430.0</ele><time>2026-03-28T10:46:15.003Z</time></trkpt><trkpt lat="45.50951124073769" lon="10.974474551196097"><ele>430.00000000000006</ele><time>2026-03-28T10:46:16.003Z</time></trkpt><trkpt lat="45.50959315243876" lon="10.974487854273708"><ele>430.0</ele><time>2026-03-28T10:46:17.003Z</time></trkpt><trkpt lat="45.509660086311534" lon="10.974498784073234"><ele>431.8</ele><time>2026-03-28T10:46:18.003Z</time></trkpt><trkpt lat="45.50975638725793" lon="10.974489008024438"><ele>433.6</ele><time>2026-03-28T10:46:20.003Z</time></trkpt><trkpt lat="45.50983325288034" lon="10.974453910467837"><ele>435.4</ele><time>2026-03-28T10:46:21Z</time></trkpt><trkpt lat="45.50991799767655" lon="10.974423081354265"><ele>437.2</ele><time>2026-03-28T10:46:22Z</time></trkpt><trkpt lat="45.510020653416746" lon="10.974396490277423"><ele>439.0</ele><time>2026-03-28T10:46:23Z</time></trkpt><trkpt lat="45.51012077506624" lon="10.974352485912144"><ele>439.0</ele><time>2026-03-28T10:46:24Z</time></trkpt><trkpt lat="45.51022704171539" lon="10.974280253814124"><ele>439.0</ele><time>2026-03-28T10:46:25Z</time></trkpt><trkpt lat="45.510318446779024" lon="10.974189958311168"><ele>439.0</ele><time>2026-03-28T10:46:26Z</time></trkpt><trkpt lat="45.510416942191384" lon="10.974078424916296"><ele>439.0</ele><time>2026-03-28T10:46:27Z</time></trkpt><trkpt lat="45.510513282790264" lon="10.973978660732458"><ele>441.0</ele><time>2026-03-28T10:46:28Z</time></trkpt><trkpt lat="45.51059284805207" lon="10.973900778532846"><ele>443.0</ele><time>2026-03-28T10:46:29Z</time></trkpt><trkpt lat="45.51065036607224" lon="10.97385055408111"><ele>445.0</ele><time>2026-03-28T10:46:30Z</time></trkpt><trkpt lat="45.51073563222677" lon="10.973757482050353"><ele>447.0</ele><time>2026-03-28T10:46:32Z</time></trkpt><trkpt lat="45.510798050931506" lon="10.97370547986262"><ele>449.0</ele><time>2026-03-28T10:46:34Z</time></trkpt><trkpt lat="45.51088467758186" lon="10.973794515301597"><ele>449.0</ele><time>2026-03-28T10:46:37Z</time></trkpt><trkpt lat="45.51092597476664" lon="10.97395247315935"><ele>449.0</ele><time>2026-03-28T10:46:39Z</time></trkpt><trkpt lat="45.510995318813485" lon="10.973982979751321"><ele>449.0</ele><time>2026-03-28T10:46:41Z</time></trkpt><trkpt lat="45.51099407523159" lon="10.973832124317877"><ele>449.0</ele><time>2026-03-28T10:46:44Z</time></trkpt><trkpt lat="45.510946423444786" lon="10.973737231531"><ele>449.0</ele><time>2026-03-28T10:46:45Z</time></trkpt><trkpt lat="45.51089512449939" lon="10.973627335138268"><ele>448.99999999999994</ele><time>2026-03-28T10:46:46Z</time></trkpt><trkpt lat="45.510849115440344" lon="10.973505254155418"><ele>449.0</ele><time>2026-03-28T10:46:47Z</time></trkpt><trkpt lat="45.51081612725384" lon="10.973399359588573"><ele>449.0</ele><time>2026-03-28T10:46:48Z</time></trkpt><trkpt lat="45.5107997854194" lon="10.973297275464667"><ele>449.0</ele><time>2026-03-28T10:46:49Z</time></trkpt><trkpt lat="45.510838635516365" lon="10.973157945343758"><ele>448.99999999999994</ele><time>2026-03-28T10:46:51.001Z</time></trkpt><trkpt lat="45.51090283997932" lon="10.973110260278531"><ele>449.0</ele><time>2026-03-28T10:46:53.001Z</time></trkpt><trkpt lat="45.51098102859072" lon="10.973034677972716"><ele>448.71428571428567</ele><time>2026-03-28T10:46:56.001Z</time></trkpt><trkpt lat="45.51103822174376" lon="10.972978444032735"><ele>448.4285714285714</ele><time>2026-03-28T10:46:58.001Z</time></trkpt><trkpt lat="45.51110354657424" lon="10.97291924793385"><ele>448.1428571428571</ele><time>2026-03-28T10:47:01.001Z</time></trkpt><trkpt lat="45.51116326040685" lon="10.972865616753225"><ele>447.85714285714283</ele><time>2026-03-28T10:47:05.001Z</time></trkpt><trkpt lat="45.51121841599121" lon="10.972813517992412"><ele>447.57142857142856</ele><time>2026-03-28T10:47:07.001Z</time></trkpt><trkpt lat="45.511288844183426" lon="10.97277061210273"><ele>447.2857142857142</ele><time>2026-03-28T10:47:11.001Z</time></trkpt><trkpt lat="45.51135308201655" lon="10.972735827610247"><ele>447.0</ele><time>2026-03-28T10:47:15.001Z</time></trkpt><trkpt lat="45.51141814040147" lon="10.972731456602396"><ele>447.8333333333333</ele><time>2026-03-28T10:47:17.001Z</time></trkpt><trkpt lat="45.511480253795526" lon="10.972770485470678"><ele>448.66666666666663</ele><time>2026-03-28T10:47:19.001Z</time></trkpt><trkpt lat="45.51153975198633" lon="10.972835186085671"><ele>449.5</ele><time>2026-03-28T10:47:21.001Z</time></trkpt><trkpt lat="45.51159096906048" lon="10.972917217330421"><ele>450.3333333333333</ele><time>2026-03-28T10:47:23.001Z</time></trkpt><trkpt lat="45.51160590306913" lon="10.973034401224366"><ele>451.16666666666663</ele><time>2026-03-28T10:47:25.001Z</time></trkpt><trkpt lat="45.511614936988984" lon="10.973191034760934"><ele>452.0</ele><time>2026-03-28T10:47:27.001Z</time></trkpt><trkpt lat="45.51163437878792" lon="10.973294892087553"><ele>452.0</ele><time>2026-03-28T10:47:29.001Z</time></trkpt><trkpt lat="45.51157037711349" lon="10.973333177108817"><ele>452.00000000000006</ele><time>2026-03-28T10:47:36.002Z</time></trkpt><trkpt lat="45.51155924850422" lon="10.97350781423251"><ele>452.00000000000006</ele><time>2026-03-28T10:47:38.002Z</time></trkpt><trkpt lat="45.511564690937156" lon="10.973631703321303"><ele>452.0</ele><time>2026-03-28T10:47:39.002Z</time></trkpt><trkpt lat="45.51153752973321" lon="10.973752298622406"><ele>452.0</ele><time>2026-03-28T10:47:40.002Z</time></trkpt><trkpt lat="45.511615955052676" lon="10.973911594867744"><ele>452.99999999999994</ele><time>2026-03-28T10:47:42.002Z</time></trkpt><trkpt lat="45.511678504349916" lon="10.974027866885992"><ele>454.0</ele><time>2026-03-28T10:47:43.002Z</time></trkpt><trkpt lat="45.51171041145293" lon="10.974124880769441"><ele>455.0</ele><time>2026-03-28T10:47:44.002Z</time></trkpt><trkpt lat="45.51173575332213" lon="10.974212121509364"><ele>456.0</ele><time>2026-03-28T10:47:46.002Z</time></trkpt><trkpt lat="45.51167498399251" lon="10.974286472282026"><ele>456.99999999999994</ele><time>2026-03-28T10:47:55.002Z</time></trkpt><trkpt lat="45.51160990666495" lon="10.97434972286023"><ele>458.0</ele><time>2026-03-28T10:47:56.002Z</time></trkpt><trkpt lat="45.51153806332936" lon="10.974406077292388"><ele>457.4</ele><time>2026-03-28T10:47:57.002Z</time></trkpt><trkpt lat="45.51147897589996" lon="10.974478897054679"><ele>456.79999999999995</ele><time>2026-03-28T10:47:58.002Z</time></trkpt><trkpt lat="45.511403653423656" lon="10.974587339259033"><ele>456.2</ele><time>2026-03-28T10:47:59.002Z</time></trkpt><trkpt lat="45.511329721771546" lon="10.974708425062765"><ele>455.6</ele><time>2026-03-28T10:48:00.002Z</time></trkpt><trkpt lat="45.51126972232489" lon="10.974852311738214"><ele>455.0</ele><time>2026-03-28T10:48:01.002Z</time></trkpt><trkpt lat="45.51120840826899" lon="10.975018995324596"><ele>455.4</ele><time>2026-03-28T10:48:02.002Z</time></trkpt><trkpt lat="45.51114884570686" lon="10.975184328680372"><ele>455.8</ele><time>2026-03-28T10:48:03.002Z</time></trkpt><trkpt lat="45.51109808427402" lon="10.975317411261152"><ele>456.20000000000005</ele><time>2026-03-28T10:48:04.002Z</time></trkpt><trkpt lat="45.511054540532136" lon="10.975436439332428"><ele>456.6</ele><time>2026-03-28T10:48:05.002Z</time></trkpt><trkpt lat="45.511011346560394" lon="10.975544481813232"><ele>457.0</ele><time>2026-03-28T10:48:06.002Z</time></trkpt><trkpt lat="45.51098275755797" lon="10.975643658794473"><ele>457.00000000000006</ele><time>2026-03-28T10:48:07.002Z</time></trkpt><trkpt lat="45.51095665168759" lon="10.975742322539375"><ele>457.0</ele><time>2026-03-28T10:48:08.002Z</time></trkpt><trkpt lat="45.51093911755368" lon="10.975832542041898"><ele>457.0</ele><time>2026-03-28T10:48:10.003Z</time></trkpt><trkpt lat="45.51096676411807" lon="10.975914852689545"><ele>457.0</ele><time>2026-03-28T10:48:12.003Z</time></trkpt><trkpt lat="45.511015361714676" lon="10.975995692512274"><ele>457.00000000000006</ele><time>2026-03-28T10:48:14.003Z</time></trkpt><trkpt lat="45.51110027559932" lon="10.976114748999366"><ele>457.0</ele><time>2026-03-28T10:48:16.003Z</time></trkpt><trkpt lat="45.511160522878285" lon="10.976178621550853"><ele>456.83333333333337</ele><time>2026-03-28T10:48:17.003Z</time></trkpt><trkpt lat="45.51126159888087" lon="10.976265469285986"><ele>456.6666666666667</ele><time>2026-03-28T10:48:19.003Z</time></trkpt><trkpt lat="45.51134272761939" lon="10.976284954584049"><ele>456.5</ele><time>2026-03-28T10:48:20.003Z</time></trkpt><trkpt lat="45.51141144131074" lon="10.97627727103843"><ele>456.33333333333337</ele><time>2026-03-28T10:48:21.003Z</time></trkpt><trkpt lat="45.51149443179836" lon="10.976293465402076"><ele>456.1666666666667</ele><time>2026-03-28T10:48:22.003Z</time></trkpt><trkpt lat="45.51157907373425" lon="10.976308497329496"><ele>456.0</ele><time>2026-03-28T10:48:23.003Z</time></trkpt><trkpt lat="45.51168669511886" lon="10.97631631303721"><ele>456.0</ele><time>2026-03-28T10:48:24.003Z</time></trkpt><trkpt lat="45.51178947664569" lon="10.976314665515295"><ele>456.0</ele><time>2026-03-28T10:48:25.003Z</time></trkpt><trkpt lat="45.511891554868605" lon="10.976311744028271"><ele>456.0</ele><time>2026-03-28T10:48:26.003Z</time></trkpt><trkpt lat="45.51198671425684" lon="10.976315341686028"><ele>456.0</ele><time>2026-03-28T10:48:27Z</time></trkpt><trkpt lat="45.512076715010714" lon="10.976324324793731"><ele>456.0</ele><time>2026-03-28T10:48:28Z</time></trkpt><trkpt lat="45.51217766570715" lon="10.97634232087867"><ele>455.4</ele><time>2026-03-28T10:48:29Z</time></trkpt><trkpt lat="45.512296725495546" lon="10.976360425136034"><ele>454.8</ele><time>2026-03-28T10:48:30Z</time></trkpt><trkpt lat="45.51241703952919" lon="10.976376307051218"><ele>454.19999999999993</ele><time>2026-03-28T10:48:31Z</time></trkpt><trkpt lat="45.51251462668297" lon="10.976401615663773"><ele>453.59999999999997</ele><time>2026-03-28T10:48:32Z</time></trkpt><trkpt lat="45.5125888085278" lon="10.976455766245"><ele>453.0</ele><time>2026-03-28T10:48:33Z</time></trkpt><trkpt lat="45.512672086546736" lon="10.976534775015411"><ele>453.0</ele><time>2026-03-28T10:48:34Z</time></trkpt><trkpt lat="45.512754824225965" lon="10.976604711222423"><ele>452.99999999999994</ele><time>2026-03-28T10:48:35Z</time></trkpt><trkpt lat="45.51282911972832" lon="10.976657997228504"><ele>452.99999999999994</ele><time>2026-03-28T10:48:36Z</time></trkpt><trkpt lat="45.51290739307682" lon="10.976729747360334"><ele>453.0</ele><time>2026-03-28T10:48:37Z</time></trkpt><trkpt lat="45.513005157676844" lon="10.976790547231468"><ele>453.0</ele><time>2026-03-28T10:48:38Z</time></trkpt><trkpt lat="45.5130727249928" lon="10.97684022763276"><ele>452.1666666666667</ele><time>2026-03-28T10:48:39Z</time></trkpt><trkpt lat="45.51314915712601" lon="10.97690463531855"><ele>451.33333333333337</ele><time>2026-03-28T10:48:40Z</time></trkpt><trkpt lat="45.513214134495485" lon="10.97695381424626"><ele>450.5</ele><time>2026-03-28T10:48:41Z</time></trkpt><trkpt lat="45.51327883963235" lon="10.977014428515186"><ele>449.6666666666667</ele><time>2026-03-28T10:48:42Z</time></trkpt><trkpt lat="45.51336846939096" lon="10.977032385246684"><ele>448.83333333333337</ele><time>2026-03-28T10:48:44Z</time></trkpt><trkpt lat="45.513462985601265" lon="10.977084038954947"><ele>448.0</ele><time>2026-03-28T10:48:47Z</time></trkpt><trkpt lat="45.51356663080468" lon="10.977145105589516"><ele>448.00000000000006</ele><time>2026-03-28T10:48:49Z</time></trkpt><trkpt lat="45.51366756428495" lon="10.977193314421422"><ele>448.0</ele><time>2026-03-28T10:48:51Z</time></trkpt><trkpt lat="45.5137392369031" lon="10.977242751281171"><ele>448.0</ele><time>2026-03-28T10:48:52Z</time></trkpt><trkpt lat="45.51381230900954" lon="10.977285230466292"><ele>448.0</ele><time>2026-03-28T10:48:53Z</time></trkpt><trkpt lat="45.5138957854873" lon="10.977341879963125"><ele>448.00000000000006</ele><time>2026-03-28T10:48:54Z</time></trkpt><trkpt lat="45.51396882751749" lon="10.977395986096791"><ele>448.0</ele><time>2026-03-28T10:48:55.001Z</time></trkpt><trkpt lat="45.5140494901237" lon="10.977442069030992"><ele>450.2</ele><time>2026-03-28T10:48:56.001Z</time></trkpt><trkpt lat="45.51412916212615" lon="10.977499832957028"><ele>452.4</ele><time>2026-03-28T10:48:57.001Z</time></trkpt><trkpt lat="45.514210369465054" lon="10.977546914673624"><ele>454.59999999999997</ele><time>2026-03-28T10:48:58.001Z</time></trkpt><trkpt lat="45.51428862150402" lon="10.977596998584422"><ele>456.79999999999995</ele><time>2026-03-28T10:48:59.001Z</time></trkpt><trkpt lat="45.514357031254605" lon="10.977670864334426"><ele>459.0</ele><time>2026-03-28T10:49:00.001Z</time></trkpt><trkpt lat="45.514441225631735" lon="10.977772732607502"><ele>459.0</ele><time>2026-03-28T10:49:02.001Z</time></trkpt><trkpt lat="45.51450009931403" lon="10.977868753465682"><ele>459.0</ele><time>2026-03-28T10:49:04.001Z</time></trkpt><trkpt lat="45.51452603907647" lon="10.978016016253177"><ele>459.0</ele><time>2026-03-28T10:49:08.001Z</time></trkpt><trkpt lat="45.51452502959321" lon="10.978106259557208"><ele>459.0</ele><time>2026-03-28T10:49:09.001Z</time></trkpt><trkpt lat="45.51447419922567" lon="10.978236576221493"><ele>459.0</ele><time>2026-03-28T10:49:10.001Z</time></trkpt><trkpt lat="45.51441442394679" lon="10.978341689245358"><ele>459.5</ele><time>2026-03-28T10:49:11.001Z</time></trkpt><trkpt lat="45.51434775144323" lon="10.978425847469142"><ele>460.0</ele><time>2026-03-28T10:49:12.001Z</time></trkpt><trkpt lat="45.51429179274856" lon="10.978514413296343"><ele>460.5</ele><time>2026-03-28T10:49:13.001Z</time></trkpt><trkpt lat="45.514254580807034" lon="10.978588992880596"><ele>461.0</ele><time>2026-03-28T10:49:14.001Z</time></trkpt><trkpt lat="45.51421002706069" lon="10.978700719803337"><ele>461.5</ele><time>2026-03-28T10:49:15.001Z</time></trkpt><trkpt lat="45.514162240593606" lon="10.978810796379534"><ele>462.0</ele><time>2026-03-28T10:49:17.001Z</time></trkpt><trkpt lat="45.51423507402149" lon="10.978823744811034"><ele>462.0</ele><time>2026-03-28T10:49:20.001Z</time></trkpt><trkpt lat="45.51432865883761" lon="10.978848717296442"><ele>462.00000000000006</ele><time>2026-03-28T10:49:22.001Z</time></trkpt><trkpt lat="45.51441072961257" lon="10.978870855230518"><ele>462.00000000000006</ele><time>2026-03-28T10:49:24.001Z</time></trkpt><trkpt lat="45.5144740744436" lon="10.978837872371756"><ele>462.0</ele><time>2026-03-28T10:49:26.001Z</time></trkpt><trkpt lat="45.51458953504973" lon="10.978701765262366"><ele>462.0</ele><time>2026-03-28T10:49:28.001Z</time></trkpt><trkpt lat="45.514680148959265" lon="10.978584803229335"><ele>465.0</ele><time>2026-03-28T10:49:30.001Z</time></trkpt><trkpt lat="45.51473442173661" lon="10.978487293965248"><ele>468.00000000000006</ele><time>2026-03-28T10:49:32.001Z</time></trkpt><trkpt lat="45.514841175085714" lon="10.97838889616606"><ele>471.00000000000006</ele><time>2026-03-28T10:49:34.001Z</time></trkpt><trkpt lat="45.514907666656086" lon="10.978315577888878"><ele>474.0</ele><time>2026-03-28T10:49:35.001Z</time></trkpt><trkpt lat="45.51492474379431" lon="10.978187347045571"><ele>477.0</ele><time>2026-03-28T10:49:37.001Z</time></trkpt><trkpt lat="45.514954754332706" lon="10.978285789264365"><ele>477.0</ele><time>2026-03-28T10:49:48.002Z</time></trkpt><trkpt lat="45.51499379972122" lon="10.978357768761587"><ele>477.0</ele><time>2026-03-28T10:49:51.002Z</time></trkpt><trkpt lat="45.5150059408986" lon="10.97844646896073"><ele>477.0</ele><time>2026-03-28T10:49:53.002Z</time></trkpt><trkpt lat="45.515009124692746" lon="10.978569131365585"><ele>477.0</ele><time>2026-03-28T10:49:55.002Z</time></trkpt><trkpt lat="45.51507220891655" lon="10.978734883799403"><ele>477.0</ele><time>2026-03-28T10:49:57.002Z</time></trkpt><trkpt lat="45.51510184790871" lon="10.978860816380145"><ele>477.0</ele><time>2026-03-28T10:49:58.002Z</time></trkpt><trkpt lat="45.515130206575044" lon="10.97897924939001"><ele>477.0</ele><time>2026-03-28T10:49:59.002Z</time></trkpt><trkpt lat="45.51515446774078" lon="10.979077805398267"><ele>477.0</ele><time>2026-03-28T10:50:00.002Z</time></trkpt><trkpt lat="45.51517780226612" lon="10.97918502787087"><ele>477.0</ele><time>2026-03-28T10:50:01.002Z</time></trkpt><trkpt lat="45.51519267202336" lon="10.979297068200987"><ele>477.0</ele><time>2026-03-28T10:50:02.002Z</time></trkpt><trkpt lat="45.51522289969931" lon="10.979437225697323"><ele>477.0</ele><time>2026-03-28T10:50:04.002Z</time></trkpt><trkpt lat="45.515269378015645" lon="10.979510899568192"><ele>477.0</ele><time>2026-03-28T10:50:31.003Z</time></trkpt><trkpt lat="45.515336446374555" lon="10.979411687172696"><ele>477.3333333333333</ele><time>2026-03-28T10:50:38Z</time></trkpt><trkpt lat="45.51537535804815" lon="10.979312647461443"><ele>477.66666666666663</ele><time>2026-03-28T10:50:41Z</time></trkpt><trkpt lat="45.51544972403771" lon="10.979238305090323"><ele>478.0</ele><time>2026-03-28T10:50:43Z</time></trkpt><trkpt lat="45.51550027244863" lon="10.979070841959562"><ele>478.3333333333333</ele><time>2026-03-28T10:50:47Z</time></trkpt><trkpt lat="45.515523756638984" lon="10.978984479665264"><ele>478.66666666666663</ele><time>2026-03-28T10:50:50Z</time></trkpt><trkpt lat="45.51546791938814" lon="10.978896275731234"><ele>479.0</ele><time>2026-03-28T10:50:53Z</time></trkpt><trkpt lat="45.51546940371838" lon="10.978781628783896"><ele>481.16666666666663</ele><time>2026-03-28T10:50:55Z</time></trkpt><trkpt lat="45.51554829736401" lon="10.978775337919359"><ele>483.3333333333333</ele><time>2026-03-28T10:50:58Z</time></trkpt><trkpt lat="45.51562133619827" lon="10.978738310903832"><ele>485.5</ele><time>2026-03-28T10:51:02Z</time></trkpt><trkpt lat="45.51571558393258" lon="10.978707507990395"><ele>487.66666666666663</ele><time>2026-03-28T10:51:05Z</time></trkpt><trkpt lat="45.51577896880347" lon="10.978654746746066"><ele>489.8333333333333</ele><time>2026-03-28T10:51:07Z</time></trkpt><trkpt lat="45.515853504904975" lon="10.978572551667359"><ele>492.0</ele><time>2026-03-28T10:51:09.001Z</time></trkpt><trkpt lat="45.51591547844958" lon="10.978481845042289"><ele>492.0</ele><time>2026-03-28T10:51:11.001Z</time></trkpt><trkpt lat="45.51593401134842" lon="10.978375762318088"><ele>492.0</ele><time>2026-03-28T10:51:13.001Z</time></trkpt><trkpt lat="45.51598060763506" lon="10.978300983224596"><ele>492.0</ele><time>2026-03-28T10:51:16.001Z</time></trkpt><trkpt lat="45.516041101806444" lon="10.97823775697491"><ele>492.0</ele><time>2026-03-28T10:51:19.001Z</time></trkpt><trkpt lat="45.516079596631684" lon="10.97815593490944"><ele>492.0</ele><time>2026-03-28T10:51:22.001Z</time></trkpt><trkpt lat="45.51616976191197" lon="10.978068463752734"><ele>492.0</ele><time>2026-03-28T10:51:25.001Z</time></trkpt><trkpt lat="45.516240007889294" lon="10.978027306678959"><ele>498.20000000000005</ele><time>2026-03-28T10:51:27.001Z</time></trkpt><trkpt lat="45.516299538457176" lon="10.977969540319435"><ele>504.40000000000003</ele><time>2026-03-28T10:51:30.001Z</time></trkpt><trkpt lat="45.516297382391386" lon="10.977854535793632"><ele>510.59999999999997</ele><time>2026-03-28T10:51:32.001Z</time></trkpt><trkpt lat="45.51630659453028" lon="10.977687843599432"><ele>516.8</ele><time>2026-03-28T10:51:34.001Z</time></trkpt><trkpt lat="45.516311383521746" lon="10.977556166597507"><ele>523.0</ele><time>2026-03-28T10:51:36.001Z</time></trkpt><trkpt lat="45.51634148351636" lon="10.977432141785151"><ele>523.0</ele><time>2026-03-28T10:51:38.001Z</time></trkpt><trkpt lat="45.51636281990047" lon="10.97730842186386"><ele>523.0</ele><time>2026-03-28T10:51:40.001Z</time></trkpt><trkpt lat="45.516431141654536" lon="10.977304186004762"><ele>523.0</ele><time>2026-03-28T10:51:44.001Z</time></trkpt><trkpt lat="45.516507607849846" lon="10.977402186367826"><ele>523.0</ele><time>2026-03-28T10:51:46.001Z</time></trkpt><trkpt lat="45.516581781717775" lon="10.97749505577284"><ele>523.0</ele><time>2026-03-28T10:51:48.001Z</time></trkpt><trkpt lat="45.51663259834732" lon="10.977551891992457"><ele>523.0</ele><time>2026-03-28T10:51:49.002Z</time></trkpt><trkpt lat="45.51672419922289" lon="10.977643187209424"><ele>523.0</ele><time>2026-03-28T10:51:51.002Z</time></trkpt><trkpt lat="45.5167757358629" lon="10.977696517267253"><ele>523.0</ele><time>2026-03-28T10:51:52.002Z</time></trkpt><trkpt lat="45.51685823883596" lon="10.977796249497237"><ele>523.0</ele><time>2026-03-28T10:51:54.002Z</time></trkpt><trkpt lat="45.51690651758165" lon="10.97785979032997"><ele>523.0</ele><time>2026-03-28T10:51:55.002Z</time></trkpt><trkpt lat="45.51698468430029" lon="10.977944139489546"><ele>523.0</ele><time>2026-03-28T10:51:56.002Z</time></trkpt><trkpt lat="45.51705372709989" lon="10.978019355321946"><ele>523.0</ele><time>2026-03-28T10:51:57.002Z</time></trkpt><trkpt lat="45.517147054570664" lon="10.978078697478582"><ele>524.7142857142857</ele><time>2026-03-28T10:51:59.002Z</time></trkpt><trkpt lat="45.51722311844371" lon="10.978106493343203"><ele>526.4285714285714</ele><time>2026-03-28T10:52:00.002Z</time></trkpt><trkpt lat="45.517283217414935" lon="10.978150279925236"><ele>528.1428571428571</ele><time>2026-03-28T10:52:01.002Z</time></trkpt><trkpt lat="45.51735124341265" lon="10.978196280024358"><ele>529.8571428571429</ele><time>2026-03-28T10:52:02.002Z</time></trkpt><trkpt lat="45.517412870961984" lon="10.978230157955359"><ele>531.5714285714286</ele><time>2026-03-28T10:52:03.002Z</time></trkpt><trkpt lat="45.517477466235896" lon="10.978245059436162"><ele>533.2857142857142</ele><time>2026-03-28T10:52:04.002Z</time></trkpt><trkpt lat="45.51755778919251" lon="10.978283212736546"><ele>535.0</ele><time>2026-03-28T10:52:05.002Z</time></trkpt><trkpt lat="45.51762944189726" lon="10.97830145912391"><ele>535.0</ele><time>2026-03-28T10:52:06.002Z</time></trkpt><trkpt lat="45.5176835817896" lon="10.978249849526026"><ele>535.0</ele><time>2026-03-28T10:52:07.002Z</time></trkpt><trkpt lat="45.51774758733929" lon="10.978162537039548"><ele>535.0</ele><time>2026-03-28T10:52:08.002Z</time></trkpt><trkpt lat="45.517806454676624" lon="10.978127492146193"><ele>535.0</ele><time>2026-03-28T10:52:10.002Z</time></trkpt><trkpt lat="45.51786855883961" lon="10.978064078810059"><ele>535.0</ele><time>2026-03-28T10:52:11.002Z</time></trkpt><trkpt lat="45.517919384387405" lon="10.977976172677224"><ele>535.0</ele><time>2026-03-28T10:52:12.002Z</time></trkpt><trkpt lat="45.51799204258641" lon="10.977865043799412"><ele>534.6</ele><time>2026-03-28T10:52:14.002Z</time></trkpt><trkpt lat="45.51805452019843" lon="10.977796131020426"><ele>534.2</ele><time>2026-03-28T10:52:15.002Z</time></trkpt><trkpt lat="45.518115301909056" lon="10.977683126575572"><ele>533.8</ele><time>2026-03-28T10:52:16.002Z</time></trkpt><trkpt lat="45.51818351304915" lon="10.977617924145958"><ele>533.4</ele><time>2026-03-28T10:52:17.002Z</time></trkpt><trkpt lat="45.51826042905446" lon="10.977537484519367"><ele>533.0</ele><time>2026-03-28T10:52:19.002Z</time></trkpt><trkpt lat="45.51834123442474" lon="10.977426328291168"><ele>532.8333333333333</ele><time>2026-03-28T10:52:20.002Z</time></trkpt><trkpt lat="45.51839275842737" lon="10.977358057926505"><ele>532.6666666666666</ele><time>2026-03-28T10:52:21.002Z</time></trkpt><trkpt lat="45.518456328999" lon="10.977288489995829"><ele>532.5</ele><time>2026-03-28T10:52:22.002Z</time></trkpt><trkpt lat="45.518539975714035" lon="10.977201264848489"><ele>532.3333333333334</ele><time>2026-03-28T10:52:23.002Z</time></trkpt><trkpt lat="45.51862080700959" lon="10.977120953114008"><ele>532.1666666666667</ele><time>2026-03-28T10:52:24.002Z</time></trkpt><trkpt lat="45.51868034834175" lon="10.977018086046572"><ele>532.0</ele><time>2026-03-28T10:52:25.002Z</time></trkpt><trkpt lat="45.51874157373018" lon="10.976934128183238"><ele>532.0</ele><time>2026-03-28T10:52:26.002Z</time></trkpt><trkpt lat="45.518785874445236" lon="10.976867316436504"><ele>532.0</ele><time>2026-03-28T10:52:27.002Z</time></trkpt><trkpt lat="45.51885946178848" lon="10.97685088193184"><ele>532.0</ele><time>2026-03-28T10:52:28.002Z</time></trkpt><trkpt lat="45.518990511582004" lon="10.976816124465655"><ele>532.0</ele><time>2026-03-28T10:52:30.003Z</time></trkpt><trkpt lat="45.51895354365101" lon="10.976733605623362"><ele>532.0</ele><time>2026-03-28T10:52:32.003Z</time></trkpt><trkpt lat="45.51903176946836" lon="10.976736991077198"><ele>532.0</ele><time>2026-03-28T10:52:35.003Z</time></trkpt><trkpt lat="45.519096969223085" lon="10.976647562660625"><ele>533.1666666666667</ele><time>2026-03-28T10:53:34.001Z</time></trkpt><trkpt lat="45.519150760093595" lon="10.976577328691969"><ele>534.3333333333334</ele><time>2026-03-28T10:53:37.001Z</time></trkpt><trkpt lat="45.519214663704666" lon="10.976513186670992"><ele>535.5</ele><time>2026-03-28T10:53:41.001Z</time></trkpt><trkpt lat="45.51924153934904" lon="10.976430833314428"><ele>536.6666666666666</ele><time>2026-03-28T10:54:07.002Z</time></trkpt><trkpt lat="45.51920695628602" lon="10.976300909365971"><ele>537.8333333333333</ele><time>2026-03-28T10:54:09.002Z</time></trkpt><trkpt lat="45.51915946834204" lon="10.976192271392746"><ele>539.0</ele><time>2026-03-28T10:54:11.002Z</time></trkpt><trkpt lat="45.5191341730951" lon="10.976035356382383"><ele>539.0</ele><time>2026-03-28T10:54:13.002Z</time></trkpt><trkpt lat="45.519069901975975" lon="10.975905948133427"><ele>539.0</ele><time>2026-03-28T10:54:15.002Z</time></trkpt><trkpt lat="45.519027708923105" lon="10.975799846193816"><ele>539.0</ele><time>2026-03-28T10:54:16.002Z</time></trkpt><trkpt lat="45.518993159647884" lon="10.975705772594575"><ele>539.0</ele><time>2026-03-28T10:54:18.002Z</time></trkpt><trkpt lat="45.51899722206682" lon="10.97557888408191"><ele>539.0</ele><time>2026-03-28T10:54:19.002Z</time></trkpt><trkpt lat="45.51906113969236" lon="10.975445127730353"><ele>537.0</ele><time>2026-03-28T10:54:21.002Z</time></trkpt><trkpt lat="45.51911981375009" lon="10.975335868744578"><ele>535.0</ele><time>2026-03-28T10:54:23.002Z</time></trkpt><trkpt lat="45.519180661724924" lon="10.975309757303416"><ele>533.0</ele><time>2026-03-28T10:54:24.002Z</time></trkpt><trkpt lat="45.51928178932914" lon="10.975260821794892"><ele>531.0</ele><time>2026-03-28T10:54:26.002Z</time></trkpt><trkpt lat="45.51934308506792" lon="10.975236855002894"><ele>529.0</ele><time>2026-03-28T10:54:27.002Z</time></trkpt><trkpt lat="45.519432151105065" lon="10.975118953273967"><ele>529.0</ele><time>2026-03-28T10:54:29.002Z</time></trkpt><trkpt lat="45.519495997945704" lon="10.975048309636662"><ele>529.0</ele><time>2026-03-28T10:54:30.002Z</time></trkpt><trkpt lat="45.51960222739932" lon="10.97501886821809"><ele>529.0</ele><time>2026-03-28T10:54:32.002Z</time></trkpt><trkpt lat="45.519705739436915" lon="10.975030163465936"><ele>529.0</ele><time>2026-03-28T10:54:34.002Z</time></trkpt><trkpt lat="45.519786959819015" lon="10.97504081520194"><ele>529.0</ele><time>2026-03-28T10:54:35.002Z</time></trkpt><trkpt lat="45.51991226117545" lon="10.975074876869234"><ele>526.0</ele><time>2026-03-28T10:54:37.003Z</time></trkpt><trkpt lat="45.51997553929561" lon="10.975095614110995"><ele>523.0</ele><time>2026-03-28T10:54:38.003Z</time></trkpt><trkpt lat="45.52007231674441" lon="10.975155885455468"><ele>520.0</ele><time>2026-03-28T10:54:40.003Z</time></trkpt><trkpt lat="45.52016272664851" lon="10.975164710027382"><ele>517.0</ele><time>2026-03-28T10:54:42.003Z</time></trkpt><trkpt lat="45.52022650535414" lon="10.975099030306303"><ele>514.0</ele><time>2026-03-28T10:54:45.001Z</time></trkpt><trkpt lat="45.52021939053369" lon="10.975004448031171"><ele>511.0</ele><time>2026-03-28T10:54:51.001Z</time></trkpt><trkpt lat="45.52020729618414" lon="10.974903628359709"><ele>510.6666666666667</ele><time>2026-03-28T10:55:09.001Z</time></trkpt><trkpt lat="45.52027298379601" lon="10.974853009459327"><ele>510.33333333333337</ele><time>2026-03-28T10:55:10.001Z</time></trkpt><trkpt lat="45.520349843386775" lon="10.974853223896202"><ele>510.0</ele><time>2026-03-28T10:55:11.001Z</time></trkpt><trkpt lat="45.5204561078681" lon="10.974797806096745"><ele>509.66666666666663</ele><time>2026-03-28T10:55:13.001Z</time></trkpt><trkpt lat="45.520504331373374" lon="10.97472662465012"><ele>509.3333333333333</ele><time>2026-03-28T10:55:14.001Z</time></trkpt><trkpt lat="45.52056848899771" lon="10.974743651801377"><ele>509.0</ele><time>2026-03-28T10:55:16.001Z</time></trkpt><trkpt lat="45.52066379175301" lon="10.974866048625978"><ele>508.99999999999994</ele><time>2026-03-28T10:55:18.001Z</time></trkpt><trkpt lat="45.520728844825506" lon="10.974879758542341"><ele>509.0</ele><time>2026-03-28T10:55:21.001Z</time></trkpt><trkpt lat="45.520787525931" lon="10.97480908459716"><ele>509.0</ele><time>2026-03-28T10:55:23.001Z</time></trkpt><trkpt lat="45.52087203995616" lon="10.974811614548617"><ele>509.0</ele><time>2026-03-28T10:55:27.001Z</time></trkpt><trkpt lat="45.52096957062334" lon="10.974851879888146"><ele>508.99999999999994</ele><time>2026-03-28T10:55:29.001Z</time></trkpt><trkpt lat="45.52104738791173" lon="10.974920792195574"><ele>509.0</ele><time>2026-03-28T10:55:31.001Z</time></trkpt><trkpt lat="45.52111407747439" lon="10.974974693163853"><ele>509.0</ele><time>2026-03-28T10:55:34.001Z</time></trkpt><trkpt lat="45.5211815088686" lon="10.975013167849877"><ele>509.0</ele><time>2026-03-28T10:55:36.001Z</time></trkpt><trkpt lat="45.521272435323304" lon="10.97503233558776"><ele>509.0</ele><time>2026-03-28T10:55:38.001Z</time></trkpt><trkpt lat="45.52135626222281" lon="10.975123250753487"><ele>509.0</ele><time>2026-03-28T10:55:40.001Z</time></trkpt><trkpt lat="45.521440268449936" lon="10.975152468093293"><ele>509.0</ele><time>2026-03-28T10:55:42.001Z</time></trkpt><trkpt lat="45.521524960976514" lon="10.975218216757883"><ele>509.16666666666663</ele><time>2026-03-28T10:55:44.001Z</time></trkpt><trkpt lat="45.52160055691591" lon="10.975202618408419"><ele>509.3333333333333</ele><time>2026-03-28T10:55:46.001Z</time></trkpt><trkpt lat="45.5216836678035" lon="10.975177274413042"><ele>509.5</ele><time>2026-03-28T10:55:48.001Z</time></trkpt><trkpt lat="45.52175723000471" lon="10.975213626430117"><ele>509.66666666666663</ele><time>2026-03-28T10:55:50.002Z</time></trkpt><trkpt lat="45.52183495815553" lon="10.975213616645659"><ele>509.8333333333333</ele><time>2026-03-28T10:55:52.002Z</time></trkpt><trkpt lat="45.52187851402542" lon="10.975097426704117"><ele>510.0</ele><time>2026-03-28T10:55:55.002Z</time></trkpt><trkpt lat="45.52189574306247" lon="10.975008590487324"><ele>512.5</ele><time>2026-03-28T10:55:57.002Z</time></trkpt><trkpt lat="45.52192876007816" lon="10.97490492033008"><ele>515.0</ele><time>2026-03-28T10:55:58.002Z</time></trkpt><trkpt lat="45.521971855380265" lon="10.974823821209382"><ele>517.5</ele><time>2026-03-28T10:55:59.002Z</time></trkpt><trkpt lat="45.52202894712256" lon="10.974770950519993"><ele>520.0</ele><time>2026-03-28T10:56:00.002Z</time></trkpt><trkpt lat="45.52212918182065" lon="10.974719851862185"><ele>522.5</ele><time>2026-03-28T10:56:02.002Z</time></trkpt><trkpt lat="45.522201756247405" lon="10.974695389867684"><ele>525.0</ele><time>2026-03-28T10:56:03.002Z</time></trkpt><trkpt lat="45.52226867008311" lon="10.97472176291589"><ele>526.8</ele><time>2026-03-28T10:56:04.002Z</time></trkpt><trkpt lat="45.52236901567818" lon="10.974747622261187"><ele>528.6</ele><time>2026-03-28T10:56:06.002Z</time></trkpt><trkpt lat="45.52252672877447" lon="10.97459230738522"><ele>530.4</ele><time>2026-03-28T10:56:09.002Z</time></trkpt><trkpt lat="45.52251678699933" lon="10.97449724090647"><ele>532.2</ele><time>2026-03-28T10:56:10.002Z</time></trkpt><trkpt lat="45.52254054199413" lon="10.974408058975017"><ele>534.0</ele><time>2026-03-28T10:56:11.002Z</time></trkpt><trkpt lat="45.522612413098166" lon="10.97430283108837"><ele>534.0</ele><time>2026-03-28T10:56:13.002Z</time></trkpt><trkpt lat="45.52274169811717" lon="10.974257612585191"><ele>534.0</ele><time>2026-03-28T10:56:15.002Z</time></trkpt><trkpt lat="45.522872080780026" lon="10.974224791656571"><ele>534.0</ele><time>2026-03-28T10:56:17.002Z</time></trkpt><trkpt lat="45.52292435678009" lon="10.974162663903027"><ele>534.0</ele><time>2026-03-28T10:56:18.002Z</time></trkpt><trkpt lat="45.52301257535274" lon="10.97408294452272"><ele>534.0</ele><time>2026-03-28T10:56:19.002Z</time></trkpt><trkpt lat="45.52309140682314" lon="10.97402559908759"><ele>536.4</ele><time>2026-03-28T10:56:20.002Z</time></trkpt><trkpt lat="45.523192657483555" lon="10.973958468104055"><ele>538.8</ele><time>2026-03-28T10:56:21.002Z</time></trkpt><trkpt lat="45.52331185585233" lon="10.973897956725446"><ele>541.2</ele><time>2026-03-28T10:56:22.002Z</time></trkpt><trkpt lat="45.52339364632884" lon="10.973829058691976"><ele>543.6</ele><time>2026-03-28T10:56:23.002Z</time></trkpt><trkpt lat="45.52346022384658" lon="10.973791652798456"><ele>546.0</ele><time>2026-03-28T10:56:24.002Z</time></trkpt><trkpt lat="45.52357020332227" lon="10.973683398479888"><ele>546.0</ele><time>2026-03-28T10:56:26.002Z</time></trkpt><trkpt lat="45.5236074969492" lon="10.973578040444837"><ele>546.0</ele><time>2026-03-28T10:56:27.002Z</time></trkpt><trkpt lat="45.52367590950616" lon="10.973503490910282"><ele>546.0</ele><time>2026-03-28T10:56:28.002Z</time></trkpt><trkpt lat="45.5237336823036" lon="10.973442165134934"><ele>546.0</ele><time>2026-03-28T10:56:29.002Z</time></trkpt><trkpt lat="45.523833340600085" lon="10.973400651403988"><ele>546.0</ele><time>2026-03-28T10:56:31.002Z</time></trkpt><trkpt lat="45.52390011019491" lon="10.973403465454824"><ele>546.0</ele><time>2026-03-28T10:56:32.002Z</time></trkpt><trkpt lat="45.5239623217173" lon="10.973424692546367"><ele>546.5</ele><time>2026-03-28T10:56:33.003Z</time></trkpt><trkpt lat="45.52402528788481" lon="10.973426686922474"><ele>547.0</ele><time>2026-03-28T10:56:34.003Z</time></trkpt><trkpt lat="45.524105525876195" lon="10.973419548798363"><ele>547.5</ele><time>2026-03-28T10:56:35.003Z</time></trkpt><trkpt lat="45.52423941231919" lon="10.973455970268567"><ele>548.0</ele><time>2026-03-28T10:56:37.003Z</time></trkpt><trkpt lat="45.52430492804703" lon="10.97348265091564"><ele>548.5</ele><time>2026-03-28T10:56:38.003Z</time></trkpt><trkpt lat="45.524359256362224" lon="10.973544553871468"><ele>549.0</ele><time>2026-03-28T10:56:39.003Z</time></trkpt><trkpt lat="45.524426359785835" lon="10.973594887196107"><ele>549.0</ele><time>2026-03-28T10:56:41.003Z</time></trkpt><trkpt lat="45.52444898623339" lon="10.973738154083447"><ele>549.0</ele><time>2026-03-28T10:56:45.003Z</time></trkpt><trkpt lat="45.52447972458097" lon="10.9738185837428"><ele>549.0</ele><time>2026-03-28T10:56:47.003Z</time></trkpt><trkpt lat="45.524540992124" lon="10.973870237283748"><ele>549.0</ele><time>2026-03-28T10:56:50.003Z</time></trkpt><trkpt lat="45.52462045286352" lon="10.973938815271437"><ele>549.0</ele><time>2026-03-28T10:56:52.001Z</time></trkpt><trkpt lat="45.52472643374191" lon="10.97400487026501"><ele>549.0</ele><time>2026-03-28T10:56:54.001Z</time></trkpt><trkpt lat="45.52483639081057" lon="10.974024281859197"><ele>548.4</ele><time>2026-03-28T10:56:56.001Z</time></trkpt><trkpt lat="45.524899811776" lon="10.973983388267314"><ele>547.8</ele><time>2026-03-28T10:56:57.001Z</time></trkpt><trkpt lat="45.52497322889906" lon="10.97408626585174"><ele>547.2</ele><time>2026-03-28T10:57:00.001Z</time></trkpt><trkpt lat="45.52503916384371" lon="10.974135282342495"><ele>546.6</ele><time>2026-03-28T10:57:01Z</time></trkpt><trkpt lat="45.525152368549676" lon="10.97424211870127"><ele>546.0</ele><time>2026-03-28T10:57:03Z</time></trkpt><trkpt lat="45.525281721999825" lon="10.974321729939437"><ele>546.0</ele><time>2026-03-28T10:57:05Z</time></trkpt><trkpt lat="45.525364891550694" lon="10.974360756901888"><ele>546.0</ele><time>2026-03-28T10:57:06Z</time></trkpt><trkpt lat="45.5254258654887" lon="10.974392197990952"><ele>546.0</ele><time>2026-03-28T10:57:07Z</time></trkpt><trkpt lat="45.525497130499055" lon="10.97443045940107"><ele>546.0</ele><time>2026-03-28T10:57:08Z</time></trkpt><trkpt lat="45.52555989865429" lon="10.974464214431482"><ele>546.0</ele><time>2026-03-28T10:57:09Z</time></trkpt><trkpt lat="45.5256437966149" lon="10.974518546757794"><ele>546.0</ele><time>2026-03-28T10:57:10Z</time></trkpt><trkpt lat="45.52570911288761" lon="10.974586529343991"><ele>546.8333333333334</ele><time>2026-03-28T10:57:11.001Z</time></trkpt><trkpt lat="45.52576559288437" lon="10.974646364994076"><ele>547.6666666666666</ele><time>2026-03-28T10:57:12.001Z</time></trkpt><trkpt lat="45.525826937095836" lon="10.974703741970199"><ele>548.5</ele><time>2026-03-28T10:57:13.001Z</time></trkpt><trkpt lat="45.52589927600185" lon="10.974775899105179"><ele>549.3333333333333</ele><time>2026-03-28T10:57:14.001Z</time></trkpt><trkpt lat="45.52596013512197" lon="10.974835198614578"><ele>550.1666666666666</ele><time>2026-03-28T10:57:15.001Z</time></trkpt><trkpt lat="45.526017271858166" lon="10.974893430197332"><ele>551.0</ele><time>2026-03-28T10:57:16.001Z</time></trkpt><trkpt lat="45.52609114137797" lon="10.9750326995461"><ele>551.3333333333333</ele><time>2026-03-28T10:57:18.001Z</time></trkpt><trkpt lat="45.526161734976036" lon="10.975119771019658"><ele>551.6666666666666</ele><time>2026-03-28T10:57:20.001Z</time></trkpt><trkpt lat="45.52621302589464" lon="10.975276894535929"><ele>552.0</ele><time>2026-03-28T10:57:32.001Z</time></trkpt><trkpt lat="45.526245714024505" lon="10.975367281220004"><ele>552.3333333333334</ele><time>2026-03-28T10:57:33.001Z</time></trkpt><trkpt lat="45.52627283488299" lon="10.975489544621656"><ele>552.6666666666667</ele><time>2026-03-28T10:57:34.001Z</time></trkpt><trkpt lat="45.52628293660426" lon="10.975585058468864"><ele>553.0</ele><time>2026-03-28T10:57:35.001Z</time></trkpt><trkpt lat="45.52630724041527" lon="10.97568960467281"><ele>553.0</ele><time>2026-03-28T10:57:36.001Z</time></trkpt><trkpt lat="45.52632931624129" lon="10.975798093326489"><ele>553.0</ele><time>2026-03-28T10:57:37.001Z</time></trkpt><trkpt lat="45.526354321374754" lon="10.975880908471769"><ele>553.0</ele><time>2026-03-28T10:57:38.001Z</time></trkpt><trkpt lat="45.52642105566649" lon="10.976015744206894"><ele>553.0</ele><time>2026-03-28T10:57:40.001Z</time></trkpt><trkpt lat="45.52650019392238" lon="10.976107028035688"><ele>553.0</ele><time>2026-03-28T10:57:42.001Z</time></trkpt><trkpt lat="45.526573321707204" lon="10.97617887622323"><ele>553.0</ele><time>2026-03-28T10:57:46.001Z</time></trkpt><trkpt lat="45.52663544129077" lon="10.97622758281455"><ele>550.0</ele><time>2026-03-28T10:57:49.001Z</time></trkpt><trkpt lat="45.52669004658512" lon="10.976277992807576"><ele>547.0</ele><time>2026-03-28T10:57:53.001Z</time></trkpt><trkpt lat="45.52675695379324" lon="10.976309681402048"><ele>544.0</ele><time>2026-03-28T10:58:02.001Z</time></trkpt><trkpt lat="45.52681860681716" lon="10.976348638324543"><ele>541.0</ele><time>2026-03-28T10:58:13.002Z</time></trkpt><trkpt lat="45.5268975276876" lon="10.976386479957261"><ele>538.0</ele><time>2026-03-28T10:58:18.002Z</time></trkpt><trkpt lat="45.52696940974257" lon="10.976440626948923"><ele>535.0</ele><time>2026-03-28T10:58:22.002Z</time></trkpt><trkpt lat="45.527053247142995" lon="10.976458696631672"><ele>536.0</ele><time>2026-03-28T10:58:25.002Z</time></trkpt><trkpt lat="45.527127768963254" lon="10.97647370713426"><ele>537.0</ele><time>2026-03-28T10:58:28.002Z</time></trkpt><trkpt lat="45.52720875493877" lon="10.976495771018605"><ele>538.0</ele><time>2026-03-28T10:58:30.002Z</time></trkpt><trkpt lat="45.52728194791674" lon="10.976522979259924"><ele>539.0</ele><time>2026-03-28T10:58:32.002Z</time></trkpt><trkpt lat="45.52736191157856" lon="10.976511612471601"><ele>540.0</ele><time>2026-03-28T10:58:34.002Z</time></trkpt><trkpt lat="45.527440585121184" lon="10.976565253653924"><ele>541.0</ele><time>2026-03-28T10:58:36.002Z</time></trkpt><trkpt lat="45.52752278084214" lon="10.976587155774055"><ele>541.0</ele><time>2026-03-28T10:58:38.002Z</time></trkpt><trkpt lat="45.52758951478097" lon="10.976613193134426"><ele>541.0</ele><time>2026-03-28T10:58:40.002Z</time></trkpt><trkpt lat="45.527652278404595" lon="10.976640595406382"><ele>541.0</ele><time>2026-03-28T10:58:43.002Z</time></trkpt><trkpt lat="45.527704714058174" lon="10.976694350567263"><ele>541.0</ele><time>2026-03-28T10:58:48.002Z</time></trkpt><trkpt lat="45.52774976757772" lon="10.976814701545354"><ele>541.0</ele><time>2026-03-28T10:59:30.001Z</time></trkpt><trkpt lat="45.527801004952316" lon="10.97694697020406"><ele>541.0</ele><time>2026-03-28T10:59:32.001Z</time></trkpt><trkpt lat="45.52779970039802" lon="10.97707046263335"><ele>541.1666666666667</ele><time>2026-03-28T10:59:34.001Z</time></trkpt><trkpt lat="45.52784227385086" lon="10.977163472970496"><ele>541.3333333333334</ele><time>2026-03-28T10:59:37.001Z</time></trkpt><trkpt lat="45.52790617271523" lon="10.97720367674282"><ele>541.5</ele><time>2026-03-28T10:59:40.001Z</time></trkpt><trkpt lat="45.52793533120629" lon="10.977311206470295"><ele>541.6666666666666</ele><time>2026-03-28T10:59:42.001Z</time></trkpt><trkpt lat="45.52800229434269" lon="10.97737836626067"><ele>541.8333333333333</ele><time>2026-03-28T10:59:45.001Z</time></trkpt><trkpt lat="45.52805300494658" lon="10.977457769545305"><ele>542.0</ele><time>2026-03-28T10:59:48.001Z</time></trkpt><trkpt lat="45.52809666268512" lon="10.977557977793222"><ele>547.0</ele><time>2026-03-28T10:59:50.001Z</time></trkpt><trkpt lat="45.52815369412192" lon="10.977598188001974"><ele>552.0</ele><time>2026-03-28T10:59:53.001Z</time></trkpt><trkpt lat="45.52823240688544" lon="10.977626410560271"><ele>557.0</ele><time>2026-03-28T10:59:57.001Z</time></trkpt><trkpt lat="45.52828697250705" lon="10.977693607932041"><ele>562.0</ele><time>2026-03-28T10:59:59.001Z</time></trkpt><trkpt lat="45.52834300534158" lon="10.977753819961203"><ele>567.0</ele><time>2026-03-28T11:00:01.001Z</time></trkpt><trkpt lat="45.52842313070639" lon="10.977837342258193"><ele>572.0</ele><time>2026-03-28T11:00:05.001Z</time></trkpt><trkpt lat="45.52846428792486" lon="10.97790634147209"><ele>571.9999999999999</ele><time>2026-03-28T11:00:12.001Z</time></trkpt><trkpt lat="45.52841310122152" lon="10.977833527965302"><ele>572.0</ele><time>2026-03-28T11:02:56.002Z</time></trkpt><trkpt lat="45.528354644586976" lon="10.977769888598369"><ele>572.0</ele><time>2026-03-28T11:03:10Z</time></trkpt><trkpt lat="45.528291817596845" lon="10.977702410264671"><ele>572.0</ele><time>2026-03-28T11:03:21Z</time></trkpt><trkpt lat="45.528239124196574" lon="10.977640120095922"><ele>572.0</ele><time>2026-03-28T11:05:30Z</time></trkpt><trkpt lat="45.52817334219138" lon="10.977612780310425"><ele>571.9999999999999</ele><time>2026-03-28T11:05:39Z</time></trkpt><trkpt lat="45.5281204333947" lon="10.97755032457526"><ele>572.0</ele><time>2026-03-28T11:05:48Z</time></trkpt><trkpt lat="45.52806520624784" lon="10.977493184944471"><ele>568.5</ele><time>2026-03-28T11:05:52.001Z</time></trkpt><trkpt lat="45.52800668136005" lon="10.977421691428983"><ele>565.0</ele><time>2026-03-28T11:06:02.001Z</time></trkpt><trkpt lat="45.527950075640454" lon="10.977375327662562"><ele>561.5</ele><time>2026-03-28T11:06:05.001Z</time></trkpt><trkpt lat="45.52788603630417" lon="10.977396126588065"><ele>558.0</ele><time>2026-03-28T11:06:08.001Z</time></trkpt><trkpt lat="45.52787968553593" lon="10.97748852609887"><ele>554.5</ele><time>2026-03-28T11:06:11.001Z</time></trkpt><trkpt lat="45.52778934281962" lon="10.97754853053999"><ele>551.0</ele><time>2026-03-28T11:06:26.001Z</time></trkpt><trkpt lat="45.52771605622877" lon="10.97763159588872"><ele>551.0</ele><time>2026-03-28T11:06:28.001Z</time></trkpt><trkpt lat="45.52761119391888" lon="10.977780584593432"><ele>551.0</ele><time>2026-03-28T11:06:30.001Z</time></trkpt><trkpt lat="45.52753856434282" lon="10.977865155982888"><ele>551.0</ele><time>2026-03-28T11:06:31.001Z</time></trkpt><trkpt lat="45.52747703062053" lon="10.977949182099538"><ele>551.0</ele><time>2026-03-28T11:06:32.001Z</time></trkpt><trkpt lat="45.5274265522911" lon="10.978026893331894"><ele>551.0</ele><time>2026-03-28T11:06:33.001Z</time></trkpt><trkpt lat="45.52735782885594" lon="10.978076544752906"><ele>551.0</ele><time>2026-03-28T11:06:35.001Z</time></trkpt><trkpt lat="45.52733078470774" lon="10.97795709874938"><ele>551.0</ele><time>2026-03-28T11:06:37.001Z</time></trkpt><trkpt lat="45.5273741752204" lon="10.977857277715113"><ele>551.0</ele><time>2026-03-28T11:06:38.001Z</time></trkpt><trkpt lat="45.52741765667805" lon="10.97772818366822"><ele>551.0</ele><time>2026-03-28T11:06:39.001Z</time></trkpt><trkpt lat="45.52745825582695" lon="10.977579121891933"><ele>551.0</ele><time>2026-03-28T11:06:40.001Z</time></trkpt><trkpt lat="45.527497470691735" lon="10.977432636317182"><ele>549.5</ele><time>2026-03-28T11:06:41.001Z</time></trkpt><trkpt lat="45.527539668476464" lon="10.977289284878738"><ele>548.0</ele><time>2026-03-28T11:06:42.001Z</time></trkpt><trkpt lat="45.52757641651169" lon="10.97716108073386"><ele>546.5</ele><time>2026-03-28T11:06:43.001Z</time></trkpt><trkpt lat="45.527600279835404" lon="10.977064657090992"><ele>545.0</ele><time>2026-03-28T11:06:44.001Z</time></trkpt><trkpt lat="45.52763562565854" lon="10.976930078109616"><ele>543.5</ele><time>2026-03-28T11:06:46.002Z</time></trkpt><trkpt lat="45.52760736406988" lon="10.976837323769702"><ele>542.0</ele><time>2026-03-28T11:06:49.002Z</time></trkpt><trkpt lat="45.52751254541469" lon="10.97694262898779"><ele>542.0</ele><time>2026-03-28T11:06:52.002Z</time></trkpt><trkpt lat="45.52746910777194" lon="10.977031276934678"><ele>542.0</ele><time>2026-03-28T11:06:53.002Z</time></trkpt><trkpt lat="45.527412630830284" lon="10.97710629992989"><ele>542.0</ele><time>2026-03-28T11:06:54.002Z</time></trkpt><trkpt lat="45.52735159909936" lon="10.977197408231804"><ele>542.0</ele><time>2026-03-28T11:06:55.002Z</time></trkpt><trkpt lat="45.52728586834585" lon="10.977322454043989"><ele>542.0</ele><time>2026-03-28T11:06:56.002Z</time></trkpt><trkpt lat="45.5272374038435" lon="10.977436863233063"><ele>542.0</ele><time>2026-03-28T11:06:57.002Z</time></trkpt><trkpt lat="45.527201115184624" lon="10.977550838123767"><ele>540.8000000000001</ele><time>2026-03-28T11:06:58.002Z</time></trkpt><trkpt lat="45.52715578877969" lon="10.977682186167822"><ele>539.6</ele><time>2026-03-28T11:06:59.002Z</time></trkpt><trkpt lat="45.52708867948592" lon="10.977813944658472"><ele>538.4000000000001</ele><time>2026-03-28T11:07:00.002Z</time></trkpt><trkpt lat="45.527008863833835" lon="10.977930263468236"><ele>537.2</ele><time>2026-03-28T11:07:01.002Z</time></trkpt><trkpt lat="45.52694704694013" lon="10.978029853613757"><ele>536.0</ele><time>2026-03-28T11:07:02.002Z</time></trkpt><trkpt lat="45.52688171467723" lon="10.978118963639067"><ele>536.0</ele><time>2026-03-28T11:07:03.002Z</time></trkpt><trkpt lat="45.52680463378289" lon="10.97817405742022"><ele>536.0</ele><time>2026-03-28T11:07:04.002Z</time></trkpt><trkpt lat="45.526736188748586" lon="10.97821279971761"><ele>536.0</ele><time>2026-03-28T11:07:05.002Z</time></trkpt><trkpt lat="45.52666725196595" lon="10.978275184299207"><ele>536.0</ele><time>2026-03-28T11:07:06.002Z</time></trkpt><trkpt lat="45.52660900786355" lon="10.978349234906617"><ele>536.0</ele><time>2026-03-28T11:07:07.002Z</time></trkpt><trkpt lat="45.52654980232069" lon="10.978448984889866"><ele>536.0</ele><time>2026-03-28T11:07:08.002Z</time></trkpt><trkpt lat="45.52648027796759" lon="10.978561010275527"><ele>537.4</ele><time>2026-03-28T11:07:09.002Z</time></trkpt><trkpt lat="45.52642152838838" lon="10.978667728689523"><ele>538.8</ele><time>2026-03-28T11:07:10.002Z</time></trkpt><trkpt lat="45.526348229862776" lon="10.978766786652503"><ele>540.1999999999999</ele><time>2026-03-28T11:07:11.002Z</time></trkpt><trkpt lat="45.526291229711546" lon="10.978841654294216"><ele>541.6</ele><time>2026-03-28T11:07:12.002Z</time></trkpt><trkpt lat="45.52623242523124" lon="10.978929879847493"><ele>543.0</ele><time>2026-03-28T11:07:13.002Z</time></trkpt><trkpt lat="45.52611936444671" lon="10.979058964751745"><ele>540.1666666666666</ele><time>2026-03-28T11:07:15.002Z</time></trkpt><trkpt lat="45.526058638536384" lon="10.97917648769632"><ele>537.3333333333334</ele><time>2026-03-28T11:07:17.002Z</time></trkpt><trkpt lat="45.52599983394067" lon="10.979265810215844"><ele>534.5</ele><time>2026-03-28T11:07:19.002Z</time></trkpt><trkpt lat="45.5259340274333" lon="10.979343036526293"><ele>531.6666666666667</ele><time>2026-03-28T11:07:20.999Z</time></trkpt><trkpt lat="45.52586868682721" lon="10.979426914795994"><ele>528.8333333333334</ele><time>2026-03-28T11:07:22.999Z</time></trkpt><trkpt lat="45.52580823100418" lon="10.97947322525275"><ele>526.0</ele><time>2026-03-28T11:07:23.999Z</time></trkpt><trkpt lat="45.52573238901422" lon="10.979519538690424"><ele>525.8333333333334</ele><time>2026-03-28T11:07:24.999Z</time></trkpt><trkpt lat="45.52565727075428" lon="10.979558168423697"><ele>525.6666666666667</ele><time>2026-03-28T11:07:25.999Z</time></trkpt><trkpt lat="45.525589467368064" lon="10.979585712496995"><ele>525.5</ele><time>2026-03-28T11:07:26.999Z</time></trkpt><trkpt lat="45.525488561816985" lon="10.97963633178103"><ele>525.3333333333334</ele><time>2026-03-28T11:07:28.999Z</time></trkpt><trkpt lat="45.52541981464261" lon="10.979690289874746"><ele>525.1666666666666</ele><time>2026-03-28T11:07:30.999Z</time></trkpt><trkpt lat="45.52545496611192" lon="10.979803548372518"><ele>525.0</ele><time>2026-03-28T11:07:33.999Z</time></trkpt><trkpt lat="45.52543331775085" lon="10.97993791466931"><ele>523.6</ele><time>2026-03-28T11:07:36Z</time></trkpt><trkpt lat="45.52532686135889" lon="10.97990648077706"><ele>522.2</ele><time>2026-03-28T11:07:38Z</time></trkpt><trkpt lat="45.52521953357303" lon="10.97990488654413"><ele>520.8</ele><time>2026-03-28T11:07:40Z</time></trkpt><trkpt lat="45.52509103799777" lon="10.979900141807608"><ele>519.4</ele><time>2026-03-28T11:07:42Z</time></trkpt><trkpt lat="45.52502684660278" lon="10.979929090644172"><ele>518.0</ele><time>2026-03-28T11:07:43Z</time></trkpt><trkpt lat="45.52493636639498" lon="10.979984447323092"><ele>518.5</ele><time>2026-03-28T11:07:44Z</time></trkpt><trkpt lat="45.52485373540531" lon="10.9800498802607"><ele>519.0</ele><time>2026-03-28T11:07:45Z</time></trkpt><trkpt lat="45.524778067675996" lon="10.980099178050452"><ele>519.5</ele><time>2026-03-28T11:07:46Z</time></trkpt><trkpt lat="45.5247126296735" lon="10.980160620320495"><ele>520.0</ele><time>2026-03-28T11:07:47Z</time></trkpt><trkpt lat="45.5246502851108" lon="10.980193562465203"><ele>520.5</ele><time>2026-03-28T11:07:48Z</time></trkpt><trkpt lat="45.524557739428694" lon="10.980166247624112"><ele>521.0</ele><time>2026-03-28T11:07:50Z</time></trkpt><trkpt lat="45.52443810951803" lon="10.98015233039596"><ele>521.0</ele><time>2026-03-28T11:07:52Z</time></trkpt><trkpt lat="45.524331074757434" lon="10.980155176391893"><ele>521.0</ele><time>2026-03-28T11:07:54Z</time></trkpt><trkpt lat="45.5242181685951" lon="10.980197526767801"><ele>521.0</ele><time>2026-03-28T11:07:56Z</time></trkpt><trkpt lat="45.52415779857739" lon="10.980227171917013"><ele>521.0</ele><time>2026-03-28T11:07:57Z</time></trkpt><trkpt lat="45.52409500939894" lon="10.980272284313275"><ele>521.0</ele><time>2026-03-28T11:07:58Z</time></trkpt><trkpt lat="45.524021095745155" lon="10.980305073325804"><ele>521.0</ele><time>2026-03-28T11:07:59Z</time></trkpt><trkpt lat="45.52392918359069" lon="10.980338810809572"><ele>521.0</ele><time>2026-03-28T11:08:00Z</time></trkpt><trkpt lat="45.5238262345132" lon="10.98037058173927"><ele>521.0</ele><time>2026-03-28T11:08:01Z</time></trkpt><trkpt lat="45.523736417544534" lon="10.980388614092536"><ele>521.0</ele><time>2026-03-28T11:08:02Z</time></trkpt><trkpt lat="45.52366635420073" lon="10.980388078323667"><ele>521.0</ele><time>2026-03-28T11:08:03Z</time></trkpt><trkpt lat="45.52357706762217" lon="10.980332779058502"><ele>521.0</ele><time>2026-03-28T11:08:04Z</time></trkpt><trkpt lat="45.52349402945716" lon="10.980314595546893"><ele>521.0</ele><time>2026-03-28T11:08:05Z</time></trkpt><trkpt lat="45.52341907400129" lon="10.980277160234737"><ele>521.4</ele><time>2026-03-28T11:08:06Z</time></trkpt><trkpt lat="45.52333963177632" lon="10.980196386884026"><ele>521.8</ele><time>2026-03-28T11:08:07Z</time></trkpt><trkpt lat="45.52322371502575" lon="10.980145304423848"><ele>522.1999999999999</ele><time>2026-03-28T11:08:08Z</time></trkpt><trkpt lat="45.52313032970442" lon="10.98011531958538"><ele>522.6</ele><time>2026-03-28T11:08:09Z</time></trkpt><trkpt lat="45.52302463907922" lon="10.9800843395013"><ele>523.0</ele><time>2026-03-28T11:08:10Z</time></trkpt><trkpt lat="45.52291982663509" lon="10.980048147909931"><ele>520.0</ele><time>2026-03-28T11:08:11Z</time></trkpt><trkpt lat="45.52282912450134" lon="10.980011123225626"><ele>517.0</ele><time>2026-03-28T11:08:12Z</time></trkpt><trkpt lat="45.52273346682315" lon="10.980008720142608"><ele>514.0</ele><time>2026-03-28T11:08:13Z</time></trkpt><trkpt lat="45.522632422646495" lon="10.980009075047569"><ele>511.0</ele><time>2026-03-28T11:08:14.001Z</time></trkpt><trkpt lat="45.52253243892726" lon="10.979996033224124"><ele>508.0</ele><time>2026-03-28T11:08:15.001Z</time></trkpt><trkpt lat="45.5224663506989" lon="10.979996436793934"><ele>507.50000000000006</ele><time>2026-03-28T11:08:16.001Z</time></trkpt><trkpt lat="45.52237371966086" lon="10.980028016296062"><ele>507.0</ele><time>2026-03-28T11:08:17.001Z</time></trkpt><trkpt lat="45.52229370133174" lon="10.980063562622512"><ele>506.5</ele><time>2026-03-28T11:08:18.001Z</time></trkpt><trkpt lat="45.52222333092533" lon="10.980097512157332"><ele>506.0</ele><time>2026-03-28T11:08:19.001Z</time></trkpt><trkpt lat="45.52212881889688" lon="10.980131949233792"><ele>505.50000000000006</ele><time>2026-03-28T11:08:21.001Z</time></trkpt><trkpt lat="45.52206418742238" lon="10.980197480657253"><ele>505.0</ele><time>2026-03-28T11:08:24.001Z</time></trkpt><trkpt lat="45.52208512567759" lon="10.980330763717308"><ele>507.0</ele><time>2026-03-28T11:08:27.001Z</time></trkpt><trkpt lat="45.52211628491008" lon="10.980423054211935"><ele>508.99999999999994</ele><time>2026-03-28T11:08:29.001Z</time></trkpt><trkpt lat="45.52208636051251" lon="10.980516565530552"><ele>511.0</ele><time>2026-03-28T11:09:43.999Z</time></trkpt><trkpt lat="45.522090869946474" lon="10.980643343701566"><ele>513.0</ele><time>2026-03-28T11:10:32.001Z</time></trkpt><trkpt lat="45.522159113911506" lon="10.980671445567898"><ele>515.0</ele><time>2026-03-28T11:42:26Z</time></trkpt><trkpt lat="45.52211586966161" lon="10.980603458034922"><ele>517.0</ele><time>2026-03-28T11:42:36Z</time></trkpt><trkpt lat="45.522076246895416" lon="10.980533624840852"><ele>519.0</ele><time>2026-03-28T11:44:30.999Z</time></trkpt><trkpt lat="45.52214002664201" lon="10.980470559975261"><ele>519.0</ele><time>2026-03-28T11:44:54.999Z</time></trkpt><trkpt lat="45.52207530436847" lon="10.980454411893659"><ele>519.0</ele><time>2026-03-28T11:47:31.999Z</time></trkpt><trkpt lat="45.52205314942052" lon="10.98031780430673"><ele>519.0</ele><time>2026-03-28T11:47:34.999Z</time></trkpt><trkpt lat="45.52204193214441" lon="10.98022738097673"><ele>519.0</ele><time>2026-03-28T11:47:36.999Z</time></trkpt><trkpt lat="45.52211433965301" lon="10.980168931640137"><ele>519.0</ele><time>2026-03-28T11:47:40.999Z</time></trkpt><trkpt lat="45.52217595620716" lon="10.98024343173305"><ele>519.0</ele><time>2026-03-28T11:47:42.999Z</time></trkpt><trkpt lat="45.52220357496355" lon="10.980366869356402"><ele>519.0</ele><time>2026-03-28T11:47:44.999Z</time></trkpt><trkpt lat="45.52222779248756" lon="10.980498984869051"><ele>519.0</ele><time>2026-03-28T11:47:46.999Z</time></trkpt><trkpt lat="45.522258596334765" lon="10.98066601428872"><ele>519.0</ele><time>2026-03-28T11:47:48.999Z</time></trkpt><trkpt lat="45.522268753601324" lon="10.980757551463292"><ele>519.0</ele><time>2026-03-28T11:47:49.999Z</time></trkpt><trkpt lat="45.522277228170054" lon="10.980854324016914"><ele>519.0</ele><time>2026-03-28T11:47:50.999Z</time></trkpt><trkpt lat="45.522285454629156" lon="10.980950573343984"><ele>519.0</ele><time>2026-03-28T11:47:51.999Z</time></trkpt><trkpt lat="45.522295972932255" lon="10.98105723925702"><ele>519.0</ele><time>2026-03-28T11:47:52.999Z</time></trkpt><trkpt lat="45.5223093873069" lon="10.981166015142565"><ele>519.0</ele><time>2026-03-28T11:47:53.999Z</time></trkpt><trkpt lat="45.522324589155275" lon="10.981277852804647"><ele>519.0</ele><time>2026-03-28T11:47:54.999Z</time></trkpt><trkpt lat="45.52234375951145" lon="10.981401399491999"><ele>519.0</ele><time>2026-03-28T11:47:55.999Z</time></trkpt><trkpt lat="45.522363173199984" lon="10.981523570974517"><ele>519.0</ele><time>2026-03-28T11:47:56.999Z</time></trkpt><trkpt lat="45.52239134746547" lon="10.981634821237762"><ele>519.0</ele><time>2026-03-28T11:47:57.999Z</time></trkpt><trkpt lat="45.522432461705066" lon="10.98176278110645"><ele>518.0</ele><time>2026-03-28T11:47:58.999Z</time></trkpt><trkpt lat="45.52248888677692" lon="10.981913372134306"><ele>517.0</ele><time>2026-03-28T11:47:59.999Z</time></trkpt><trkpt lat="45.52255303490483" lon="10.982069082451352"><ele>516.0</ele><time>2026-03-28T11:48:00.999Z</time></trkpt><trkpt lat="45.52260949323128" lon="10.982218136103763"><ele>515.0</ele><time>2026-03-28T11:48:01.999Z</time></trkpt><trkpt lat="45.52266471505708" lon="10.982351425781083"><ele>515.0</ele><time>2026-03-28T11:48:02.999Z</time></trkpt><trkpt lat="45.52271751211187" lon="10.9824832224966"><ele>515.0</ele><time>2026-03-28T11:48:03.999Z</time></trkpt><trkpt lat="45.52277905786046" lon="10.982624399229397"><ele>515.0</ele><time>2026-03-28T11:48:04.999Z</time></trkpt><trkpt lat="45.52284509786272" lon="10.982763414273277"><ele>515.0</ele><time>2026-03-28T11:48:05.999Z</time></trkpt><trkpt lat="45.522902881305136" lon="10.982925072741596"><ele>517.25</ele><time>2026-03-28T11:48:06.999Z</time></trkpt><trkpt lat="45.52294081306879" lon="10.983110170934737"><ele>519.5</ele><time>2026-03-28T11:48:07.999Z</time></trkpt><trkpt lat="45.52296368602615" lon="10.983290387362997"><ele>521.75</ele><time>2026-03-28T11:48:08.999Z</time></trkpt><trkpt lat="45.52297499593771" lon="10.98347061105565"><ele>524.0</ele><time>2026-03-28T11:48:09.999Z</time></trkpt><trkpt lat="45.52297290206325" lon="10.983657332987619"><ele>524.75</ele><time>2026-03-28T11:48:10.999Z</time></trkpt><trkpt lat="45.52295605282529" lon="10.983842797885394"><ele>525.5</ele><time>2026-03-28T11:48:11.999Z</time></trkpt><trkpt lat="45.52292567328458" lon="10.98402496004404"><ele>526.25</ele><time>2026-03-28T11:48:12.999Z</time></trkpt><trkpt lat="45.52289595410056" lon="10.984188787225827"><ele>527.0</ele><time>2026-03-28T11:48:13.999Z</time></trkpt><trkpt lat="45.52287363446485" lon="10.984335143268472"><ele>524.4</ele><time>2026-03-28T11:48:14.999Z</time></trkpt><trkpt lat="45.52285832383078" lon="10.984471192439253"><ele>521.8000000000001</ele><time>2026-03-28T11:48:15.999Z</time></trkpt><trkpt lat="45.522837436755346" lon="10.984595790342832"><ele>519.2</ele><time>2026-03-28T11:48:16.999Z</time></trkpt><trkpt lat="45.5228015437671" lon="10.984694111775216"><ele>516.6</ele><time>2026-03-28T11:48:17.999Z</time></trkpt><trkpt lat="45.52276997900278" lon="10.984847454756135"><ele>514.0</ele><time>2026-03-28T11:48:19.999Z</time></trkpt><trkpt lat="45.5228330734665" lon="10.984916661238795"><ele>513.8</ele><time>2026-03-28T11:48:21.999Z</time></trkpt><trkpt lat="45.52294813723554" lon="10.984965885901044"><ele>513.5999999999999</ele><time>2026-03-28T11:48:23.999Z</time></trkpt><trkpt lat="45.523020980556126" lon="10.985017028988608"><ele>513.4</ele><time>2026-03-28T11:48:24.999Z</time></trkpt><trkpt lat="45.52309126869486" lon="10.985096610204685"><ele>513.1999999999999</ele><time>2026-03-28T11:48:25.999Z</time></trkpt><trkpt lat="45.52316689073849" lon="10.98521478627301"><ele>513.0</ele><time>2026-03-28T11:48:26.999Z</time></trkpt><trkpt lat="45.52325110830933" lon="10.98533686050795"><ele>513.0</ele><time>2026-03-28T11:48:27.999Z</time></trkpt><trkpt lat="45.52334078674149" lon="10.985445808481195"><ele>513.0</ele><time>2026-03-28T11:48:28.999Z</time></trkpt><trkpt lat="45.52345127081395" lon="10.985538299210729"><ele>513.0</ele><time>2026-03-28T11:48:29.999Z</time></trkpt><trkpt lat="45.52354106433478" lon="10.9856096100695"><ele>513.0</ele><time>2026-03-28T11:48:30.999Z</time></trkpt><trkpt lat="45.52359335427922" lon="10.985688841086656"><ele>513.0</ele><time>2026-03-28T11:48:31.999Z</time></trkpt><trkpt lat="45.52359915132135" lon="10.985786413096056"><ele>516.0</ele><time>2026-03-28T11:48:32.999Z</time></trkpt><trkpt lat="45.52352921013667" lon="10.985966638226381"><ele>519.0</ele><time>2026-03-28T11:48:34.999Z</time></trkpt><trkpt lat="45.52344836720109" lon="10.98604589133206"><ele>522.0</ele><time>2026-03-28T11:48:35.999Z</time></trkpt><trkpt lat="45.52335355745377" lon="10.986115144103369"><ele>525.0</ele><time>2026-03-28T11:48:36.999Z</time></trkpt><trkpt lat="45.52324177398755" lon="10.986168393289631"><ele>525.0</ele><time>2026-03-28T11:48:37.999Z</time></trkpt><trkpt lat="45.523135136737395" lon="10.986239170399847"><ele>525.0</ele><time>2026-03-28T11:48:38.999Z</time></trkpt><trkpt lat="45.52304118169734" lon="10.986346383332492"><ele>525.0</ele><time>2026-03-28T11:48:39.999Z</time></trkpt><trkpt lat="45.522945150869916" lon="10.986456149815696"><ele>525.0</ele><time>2026-03-28T11:48:40.999Z</time></trkpt><trkpt lat="45.522842718377994" lon="10.986554516841926"><ele>526.0</ele><time>2026-03-28T11:48:41.999Z</time></trkpt><trkpt lat="45.522739292363696" lon="10.986655674209077"><ele>527.0</ele><time>2026-03-28T11:48:42.999Z</time></trkpt><trkpt lat="45.522640074979684" lon="10.986759575147733"><ele>528.0</ele><time>2026-03-28T11:48:43.999Z</time></trkpt><trkpt lat="45.52254368358223" lon="10.986846458285521"><ele>529.0</ele><time>2026-03-28T11:48:44.999Z</time></trkpt><trkpt lat="45.52244520643465" lon="10.986922689989607"><ele>529.0</ele><time>2026-03-28T11:48:45.999Z</time></trkpt><trkpt lat="45.52234662583711" lon="10.98700268286315"><ele>529.0</ele><time>2026-03-28T11:48:46.999Z</time></trkpt><trkpt lat="45.522250615902536" lon="10.987093661740001"><ele>529.0</ele><time>2026-03-28T11:48:47.999Z</time></trkpt><trkpt lat="45.52214608397134" lon="10.987159736102228"><ele>529.0</ele><time>2026-03-28T11:48:48.999Z</time></trkpt><trkpt lat="45.52203104222466" lon="10.987189924630139"><ele>526.2</ele><time>2026-03-28T11:48:49.999Z</time></trkpt><trkpt lat="45.52191891311936" lon="10.987191394094529"><ele>523.4</ele><time>2026-03-28T11:48:50.999Z</time></trkpt><trkpt lat="45.521811257312066" lon="10.987185565418441"><ele>520.6</ele><time>2026-03-28T11:48:51.999Z</time></trkpt><trkpt lat="45.52169803537849" lon="10.987183775738467"><ele>517.8</ele><time>2026-03-28T11:48:52.999Z</time></trkpt><trkpt lat="45.52160013661671" lon="10.987201673420833"><ele>515.0</ele><time>2026-03-28T11:48:53.999Z</time></trkpt><trkpt lat="45.52151446645995" lon="10.987232751914897"><ele>515.0</ele><time>2026-03-28T11:48:54.999Z</time></trkpt><trkpt lat="45.52141912274893" lon="10.98730269443894"><ele>515.0</ele><time>2026-03-28T11:48:55.999Z</time></trkpt><trkpt lat="45.521336483133375" lon="10.987401806446313"><ele>515.0</ele><time>2026-03-28T11:48:56.999Z</time></trkpt><trkpt lat="45.52125608880159" lon="10.987508884900482"><ele>515.0</ele><time>2026-03-28T11:48:57.999Z</time></trkpt><trkpt lat="45.521164640823756" lon="10.987607607471467"><ele>515.0</ele><time>2026-03-28T11:48:58.999Z</time></trkpt><trkpt lat="45.52108844761623" lon="10.987735119200085"><ele>514.4</ele><time>2026-03-28T11:48:59.999Z</time></trkpt><trkpt lat="45.52102511442362" lon="10.987880401909102"><ele>513.8</ele><time>2026-03-28T11:49:00.999Z</time></trkpt><trkpt lat="45.52098403796444" lon="10.988036185470202"><ele>513.2</ele><time>2026-03-28T11:49:01.999Z</time></trkpt><trkpt lat="45.52096709906059" lon="10.98818846565595"><ele>512.6</ele><time>2026-03-28T11:49:02.999Z</time></trkpt><trkpt lat="45.5209749174387" lon="10.988336976152922"><ele>512.0</ele><time>2026-03-28T11:49:03.999Z</time></trkpt><trkpt lat="45.52099395773162" lon="10.988497317092357"><ele>511.6</ele><time>2026-03-28T11:49:04.999Z</time></trkpt><trkpt lat="45.5210170461156" lon="10.988645055412826"><ele>511.20000000000005</ele><time>2026-03-28T11:49:05.999Z</time></trkpt><trkpt lat="45.52103638803515" lon="10.988771170614992"><ele>510.8</ele><time>2026-03-28T11:49:06.999Z</time></trkpt><trkpt lat="45.52105055025502" lon="10.988880323457305"><ele>510.4</ele><time>2026-03-28T11:49:07.999Z</time></trkpt><trkpt lat="45.52107485028648" lon="10.989005812889339"><ele>510.0</ele><time>2026-03-28T11:49:08.999Z</time></trkpt><trkpt lat="45.521110483835294" lon="10.989151068651468"><ele>509.25</ele><time>2026-03-28T11:49:09.999Z</time></trkpt><trkpt lat="45.52114362002724" lon="10.989321582156123"><ele>508.5</ele><time>2026-03-28T11:49:10.999Z</time></trkpt><trkpt lat="45.52117125873123" lon="10.989498202353841"><ele>507.75</ele><time>2026-03-28T11:49:11.999Z</time></trkpt><trkpt lat="45.52120244813927" lon="10.989651467360638"><ele>507.0</ele><time>2026-03-28T11:49:12.999Z</time></trkpt><trkpt lat="45.52123587576032" lon="10.989786895997524"><ele>506.5</ele><time>2026-03-28T11:49:13.999Z</time></trkpt><trkpt lat="45.52126906181685" lon="10.989903699200505"><ele>506.0</ele><time>2026-03-28T11:49:14.999Z</time></trkpt><trkpt lat="45.52129683988756" lon="10.989985100609488"><ele>505.5</ele><time>2026-03-28T11:49:15.999Z</time></trkpt><trkpt lat="45.52129186548567" lon="10.99012698044242"><ele>505.0</ele><time>2026-03-28T11:49:17.999Z</time></trkpt><trkpt lat="45.52124846059604" lon="10.990285059646778"><ele>504.5</ele><time>2026-03-28T11:49:19.999Z</time></trkpt><trkpt lat="45.521216459084364" lon="10.990370385584429"><ele>504.0</ele><time>2026-03-28T11:49:20.996Z</time></trkpt><trkpt lat="45.521202807182746" lon="10.990468002085027"><ele>503.3333333333333</ele><time>2026-03-28T11:49:21.996Z</time></trkpt><trkpt lat="45.52121699747143" lon="10.990592261576099"><ele>502.66666666666663</ele><time>2026-03-28T11:49:22.996Z</time></trkpt><trkpt lat="45.521220441778354" lon="10.990718654481531"><ele>502.0</ele><time>2026-03-28T11:49:23.996Z</time></trkpt><trkpt lat="45.521199107100145" lon="10.990826917459621"><ele>501.3333333333333</ele><time>2026-03-28T11:49:24.996Z</time></trkpt><trkpt lat="45.52116533258681" lon="10.990913492975011"><ele>500.66666666666663</ele><time>2026-03-28T11:49:25.996Z</time></trkpt><trkpt lat="45.5211266166686" lon="10.990997779329664"><ele>500.0</ele><time>2026-03-28T11:49:27.996Z</time></trkpt><trkpt lat="45.52113847625769" lon="10.99109011154859"><ele>497.66666666666663</ele><time>2026-03-28T11:49:31.997Z</time></trkpt><trkpt lat="45.52124418017829" lon="10.991105662536226"><ele>495.3333333333333</ele><time>2026-03-28T11:49:34.997Z</time></trkpt><trkpt lat="45.52133103663699" lon="10.991061764010997"><ele>493.0</ele><time>2026-03-28T11:49:36.997Z</time></trkpt><trkpt lat="45.52138141697957" lon="10.991120549242057"><ele>490.66666666666663</ele><time>2026-03-28T11:49:38.997Z</time></trkpt><trkpt lat="45.52145060139408" lon="10.991147662433407"><ele>488.3333333333333</ele><time>2026-03-28T11:49:39.997Z</time></trkpt><trkpt lat="45.521495432252436" lon="10.991253240538697"><ele>486.0</ele><time>2026-03-28T11:49:41.998Z</time></trkpt><trkpt lat="45.52154761946079" lon="10.991400013901458"><ele>486.0</ele><time>2026-03-28T11:49:43.998Z</time></trkpt><trkpt lat="45.521586269514465" lon="10.991484137861725"><ele>486.0</ele><time>2026-03-28T11:49:44.998Z</time></trkpt><trkpt lat="45.52161379427964" lon="10.991579518262581"><ele>486.0</ele><time>2026-03-28T11:49:45.998Z</time></trkpt><trkpt lat="45.52164479103427" lon="10.991671040387514"><ele>486.0</ele><time>2026-03-28T11:49:46.998Z</time></trkpt><trkpt lat="45.52168830497991" lon="10.991768201604092"><ele>486.0</ele><time>2026-03-28T11:49:48.998Z</time></trkpt><trkpt lat="45.52174479203506" lon="10.99190807328102"><ele>486.0</ele><time>2026-03-28T11:49:50.998Z</time></trkpt><trkpt lat="45.52180541703861" lon="10.99206355111516"><ele>483.8333333333333</ele><time>2026-03-28T11:49:52.998Z</time></trkpt><trkpt lat="45.52181655608472" lon="10.992161327792916"><ele>481.66666666666663</ele><time>2026-03-28T11:49:53.998Z</time></trkpt><trkpt lat="45.52187905130924" lon="10.992258322370404"><ele>479.5</ele><time>2026-03-28T11:49:55.998Z</time></trkpt><trkpt lat="45.52186613069629" lon="10.992354135302275"><ele>477.3333333333333</ele><time>2026-03-28T11:49:58.998Z</time></trkpt><trkpt lat="45.52184051886658" lon="10.992449553270442"><ele>475.16666666666663</ele><time>2026-03-28T11:50:01.998Z</time></trkpt><trkpt lat="45.521782335758324" lon="10.992524278964773"><ele>473.0</ele><time>2026-03-28T11:50:05.998Z</time></trkpt><trkpt lat="45.52182430910027" lon="10.992642926649426"><ele>471.2</ele><time>2026-03-28T11:50:12.999Z</time></trkpt><trkpt lat="45.521928692230375" lon="10.992715032443101"><ele>469.4</ele><time>2026-03-28T11:50:14.999Z</time></trkpt><trkpt lat="45.52202098551694" lon="10.99278297483316"><ele>467.59999999999997</ele><time>2026-03-28T11:50:15.999Z</time></trkpt><trkpt lat="45.522090775659564" lon="10.99278862525896"><ele>465.79999999999995</ele><time>2026-03-28T11:50:16.999Z</time></trkpt><trkpt lat="45.522167723686486" lon="10.992813408535222"><ele>464.0</ele><time>2026-03-28T11:50:17.999Z</time></trkpt><trkpt lat="45.522290592258244" lon="10.992936055123295"><ele>463.99999999999994</ele><time>2026-03-28T11:50:19.999Z</time></trkpt><trkpt lat="45.522338600482456" lon="10.992997283987819"><ele>464.0</ele><time>2026-03-28T11:50:20.999Z</time></trkpt><trkpt lat="45.52242626195203" lon="10.993081830882103"><ele>464.0</ele><time>2026-03-28T11:50:22.999Z</time></trkpt><trkpt lat="45.522493532926745" lon="10.993111768906909"><ele>464.0</ele><time>2026-03-28T11:50:23.999Z</time></trkpt><trkpt lat="45.522606387865416" lon="10.993214996900377"><ele>463.99999999999994</ele><time>2026-03-28T11:50:25.999Z</time></trkpt><trkpt lat="45.52267140704656" lon="10.993264935179454"><ele>464.0</ele><time>2026-03-28T11:50:26.999Z</time></trkpt><trkpt lat="45.5227706823224" lon="10.993388185766031"><ele>462.16666666666663</ele><time>2026-03-28T11:50:28.999Z</time></trkpt><trkpt lat="45.522807912536386" lon="10.993463057827247"><ele>460.3333333333333</ele><time>2026-03-28T11:50:29.999Z</time></trkpt><trkpt lat="45.52285177260731" lon="10.993530114314494"><ele>458.5</ele><time>2026-03-28T11:50:30.999Z</time></trkpt><trkpt lat="45.52291264203675" lon="10.993653342515698"><ele>456.66666666666663</ele><time>2026-03-28T11:50:32.999Z</time></trkpt><trkpt lat="45.52298315353372" lon="10.993732723901001"><ele>454.8333333333333</ele><time>2026-03-28T11:50:34.999Z</time></trkpt><trkpt lat="45.52306446715562" lon="10.993855044014143"><ele>453.0</ele><time>2026-03-28T11:50:36.999Z</time></trkpt><trkpt lat="45.52311513343816" lon="10.993984936432371"><ele>453.0</ele><time>2026-03-28T11:50:38.999Z</time></trkpt><trkpt lat="45.52316452441034" lon="10.994060246857826"><ele>452.99999999999994</ele><time>2026-03-28T11:50:40.999Z</time></trkpt><trkpt lat="45.52324136665619" lon="10.99412131500698"><ele>452.99999999999994</ele><time>2026-03-28T11:50:42.999Z</time></trkpt><trkpt lat="45.52333700284651" lon="10.994123383961634"><ele>453.0</ele><time>2026-03-28T11:50:44.999Z</time></trkpt><trkpt lat="45.52345281174263" lon="10.994073638224103"><ele>453.0</ele><time>2026-03-28T11:50:46.999Z</time></trkpt><trkpt lat="45.52352186372372" lon="10.993964122821254"><ele>453.0</ele><time>2026-03-28T11:50:49.999Z</time></trkpt><trkpt lat="45.523594024131405" lon="10.993891656731096"><ele>453.0</ele><time>2026-03-28T11:50:51.999Z</time></trkpt><trkpt lat="45.52368745095926" lon="10.993820992197543"><ele>453.0</ele><time>2026-03-28T11:50:53.999Z</time></trkpt><trkpt lat="45.523761697814926" lon="10.99377225977853"><ele>453.0</ele><time>2026-03-28T11:50:55.999Z</time></trkpt><trkpt lat="45.5238332246488" lon="10.993763430998712"><ele>453.0</ele><time>2026-03-28T11:50:57.999Z</time></trkpt><trkpt lat="45.52391076908475" lon="10.993800162176054"><ele>453.0</ele><time>2026-03-28T11:51:00.999Z</time></trkpt><trkpt lat="45.52392850946808" lon="10.993901658950945"><ele>453.6666666666667</ele><time>2026-03-28T11:51:02.999Z</time></trkpt><trkpt lat="45.52390312083344" lon="10.993984106812734"><ele>454.33333333333337</ele><time>2026-03-28T11:51:03.999Z</time></trkpt><trkpt lat="45.52387404602193" lon="10.994129339829193"><ele>455.0</ele><time>2026-03-28T11:51:05.999Z</time></trkpt><trkpt lat="45.523905720859304" lon="10.994245313309387"><ele>455.6666666666667</ele><time>2026-03-28T11:51:07.999Z</time></trkpt><trkpt lat="45.52397366044314" lon="10.994216097966618"><ele>456.33333333333337</ele><time>2026-03-28T11:51:25.999Z</time></trkpt><trkpt lat="45.52404167409186" lon="10.994252808698768"><ele>457.0</ele><time>2026-03-28T11:51:44.998Z</time></trkpt><trkpt lat="45.524095202170855" lon="10.99431401892246"><ele>457.00000000000006</ele><time>2026-03-28T11:51:49.998Z</time></trkpt><trkpt lat="45.52418534495649" lon="10.99433447813256"><ele>457.0</ele><time>2026-03-28T11:51:53.998Z</time></trkpt><trkpt lat="45.5242217934151" lon="10.994227115654018"><ele>457.0</ele><time>2026-03-28T11:51:56.998Z</time></trkpt><trkpt lat="45.524281900464494" lon="10.994183863651317"><ele>457.0</ele><time>2026-03-28T11:51:58.998Z</time></trkpt><trkpt lat="45.524349095680705" lon="10.99420606125583"><ele>457.00000000000006</ele><time>2026-03-28T11:52:03.999Z</time></trkpt><trkpt lat="45.52442383445231" lon="10.994213276985496"><ele>457.0</ele><time>2026-03-28T11:52:07.999Z</time></trkpt><trkpt lat="45.52448504074633" lon="10.994154738732245"><ele>457.33333333333337</ele><time>2026-03-28T11:52:22.999Z</time></trkpt><trkpt lat="45.524552887703464" lon="10.994159130418625"><ele>457.6666666666667</ele><time>2026-03-28T11:52:25.999Z</time></trkpt><trkpt lat="45.52463086002443" lon="10.994095283676534"><ele>458.0</ele><time>2026-03-28T11:52:27.999Z</time></trkpt><trkpt lat="45.52465656026829" lon="10.993998488492414"><ele>458.33333333333337</ele><time>2026-03-28T11:52:31.999Z</time></trkpt><trkpt lat="45.52474292473408" lon="10.994020872918512"><ele>458.6666666666667</ele><time>2026-03-28T11:52:34.999Z</time></trkpt><trkpt lat="45.52481184641967" lon="10.994044960784331"><ele>459.0</ele><time>2026-03-28T11:53:02Z</time></trkpt><trkpt lat="45.52487189594551" lon="10.99407231704724"><ele>462.1666666666667</ele><time>2026-03-28T11:53:06Z</time></trkpt><trkpt lat="45.524936420202856" lon="10.994070992014901"><ele>465.33333333333337</ele><time>2026-03-28T11:53:13Z</time></trkpt><trkpt lat="45.52501652917385" lon="10.994034885451464"><ele>468.5</ele><time>2026-03-28T11:53:20Z</time></trkpt><trkpt lat="45.52509355295908" lon="10.994006205195221"><ele>471.6666666666667</ele><time>2026-03-28T11:53:31Z</time></trkpt><trkpt lat="45.52518054509096" lon="10.993921719155084"><ele>474.83333333333337</ele><time>2026-03-28T11:54:11Z</time></trkpt><trkpt lat="45.525275283298505" lon="10.993836198606326"><ele>478.0</ele><time>2026-03-28T11:54:17Z</time></trkpt><trkpt lat="45.5253315578587" lon="10.993792220643785"><ele>480.79999999999995</ele><time>2026-03-28T11:54:22Z</time></trkpt><trkpt lat="45.52541748990848" lon="10.993844752403"><ele>483.59999999999997</ele><time>2026-03-28T11:54:25Z</time></trkpt><trkpt lat="45.525498769364646" lon="10.993857734095963"><ele>486.40000000000003</ele><time>2026-03-28T11:54:28Z</time></trkpt><trkpt lat="45.525597965061316" lon="10.993911064162642"><ele>489.20000000000005</ele><time>2026-03-28T11:55:48Z</time></trkpt><trkpt lat="45.52572644262267" lon="10.993910951453364"><ele>492.0</ele><time>2026-03-28T11:55:51Z</time></trkpt><trkpt lat="45.52579972529263" lon="10.993884286139497"><ele>492.0</ele><time>2026-03-28T11:55:55Z</time></trkpt><trkpt lat="45.52586528049436" lon="10.993914467073823"><ele>492.0</ele><time>2026-03-28T11:56:04Z</time></trkpt><trkpt lat="45.5259308223083" lon="10.993982624928837"><ele>492.0</ele><time>2026-03-28T11:56:07Z</time></trkpt><trkpt lat="45.52601934137128" lon="10.994000847650309"><ele>492.0</ele><time>2026-03-28T11:56:10Z</time></trkpt><trkpt lat="45.526073392493366" lon="10.993948762041903"><ele>492.0</ele><time>2026-03-28T11:56:12Z</time></trkpt><trkpt lat="45.526135811900275" lon="10.993967890084319"><ele>492.0</ele><time>2026-03-28T11:56:16.001Z</time></trkpt><trkpt lat="45.52623056328391" lon="10.994019612751424"><ele>493.8333333333333</ele><time>2026-03-28T11:56:22.001Z</time></trkpt><trkpt lat="45.52631795161362" lon="10.994077841521094"><ele>495.66666666666663</ele><time>2026-03-28T11:56:26.001Z</time></trkpt><trkpt lat="45.52639597042834" lon="10.994086313422194"><ele>497.5</ele><time>2026-03-28T11:56:31.001Z</time></trkpt><trkpt lat="45.52648853270199" lon="10.994092532308274"><ele>499.3333333333333</ele><time>2026-03-28T11:56:33.001Z</time></trkpt><trkpt lat="45.526564305398004" lon="10.9940726317462"><ele>501.16666666666663</ele><time>2026-03-28T11:56:35.001Z</time></trkpt><trkpt lat="45.52663072035223" lon="10.994071093541622"><ele>503.0</ele><time>2026-03-28T11:56:37.001Z</time></trkpt><trkpt lat="45.52669057690318" lon="10.994022896106484"><ele>502.99999999999994</ele><time>2026-03-28T11:56:40.001Z</time></trkpt><trkpt lat="45.52666766804094" lon="10.993874060215402"><ele>503.0</ele><time>2026-03-28T11:56:43.001Z</time></trkpt><trkpt lat="45.52663772236177" lon="10.993783257386957"><ele>503.0</ele><time>2026-03-28T11:56:45.001Z</time></trkpt><trkpt lat="45.52673440167642" lon="10.993787890082377"><ele>503.0</ele><time>2026-03-28T11:56:48.001Z</time></trkpt><trkpt lat="45.52679353887057" lon="10.993745069673405"><ele>502.99999999999994</ele><time>2026-03-28T11:56:50.001Z</time></trkpt><trkpt lat="45.526883859181694" lon="10.993694129265627"><ele>503.0</ele><time>2026-03-28T11:56:52.001Z</time></trkpt><trkpt lat="45.52694443129701" lon="10.993667464902348"><ele>502.99999999999994</ele><time>2026-03-28T11:56:54.001Z</time></trkpt><trkpt lat="45.527008061795456" lon="10.99373745989138"><ele>503.0</ele><time>2026-03-28T11:56:57.001Z</time></trkpt><trkpt lat="45.5269465589206" lon="10.993665031008184"><ele>503.0</ele><time>2026-03-28T11:57:05.001Z</time></trkpt><trkpt lat="45.52686354805022" lon="10.99359268091071"><ele>503.0</ele><time>2026-03-28T11:57:09.001Z</time></trkpt><trkpt lat="45.52677864184891" lon="10.993501006688138"><ele>502.99999999999994</ele><time>2026-03-28T11:57:11.002Z</time></trkpt><trkpt lat="45.52672757416748" lon="10.993443059134853"><ele>503.0</ele><time>2026-03-28T11:57:12.002Z</time></trkpt><trkpt lat="45.5266807947284" lon="10.99336932549929"><ele>502.99999999999994</ele><time>2026-03-28T11:57:14.002Z</time></trkpt><trkpt lat="45.526602610466426" lon="10.993361460493583"><ele>503.0</ele><time>2026-03-28T11:57:17.002Z</time></trkpt><trkpt lat="45.526508566742265" lon="10.99332114642497"><ele>503.0</ele><time>2026-03-28T11:57:19.002Z</time></trkpt><trkpt lat="45.526447998167086" lon="10.993292841337842"><ele>503.0</ele><time>2026-03-28T11:57:21.002Z</time></trkpt><trkpt lat="45.526361787868524" lon="10.99330310718011"><ele>502.99999999999994</ele><time>2026-03-28T11:57:23.002Z</time></trkpt><trkpt lat="45.52628764069505" lon="10.993264651417183"><ele>503.0</ele><time>2026-03-28T11:57:26.002Z</time></trkpt><trkpt lat="45.52621131548083" lon="10.99322755841488"><ele>503.8333333333333</ele><time>2026-03-28T11:57:28.002Z</time></trkpt><trkpt lat="45.5261198730819" lon="10.99318428606374"><ele>504.66666666666663</ele><time>2026-03-28T11:57:31.002Z</time></trkpt><trkpt lat="45.526027165866616" lon="10.993120083550648"><ele>505.5</ele><time>2026-03-28T11:57:33.002Z</time></trkpt><trkpt lat="45.5259622856713" lon="10.993023482419758"><ele>506.33333333333337</ele><time>2026-03-28T11:57:36.002Z</time></trkpt><trkpt lat="45.52593488165841" lon="10.992920409899178"><ele>507.1666666666667</ele><time>2026-03-28T11:57:39.002Z</time></trkpt><trkpt lat="45.52594948784159" lon="10.993015569795709"><ele>508.0</ele><time>2026-03-28T11:57:46Z</time></trkpt><trkpt lat="45.52602488023044" lon="10.993111133353713"><ele>508.00000000000006</ele><time>2026-03-28T11:57:48Z</time></trkpt><trkpt lat="45.526084862481454" lon="10.993158491746115"><ele>508.0</ele><time>2026-03-28T11:57:49Z</time></trkpt><trkpt lat="45.52616386966421" lon="10.9932055221625"><ele>508.0</ele><time>2026-03-28T11:57:50Z</time></trkpt><trkpt lat="45.52624098552312" lon="10.993250282371891"><ele>508.0</ele><time>2026-03-28T11:57:51Z</time></trkpt><trkpt lat="45.52633137566524" lon="10.993295781655906"><ele>508.00000000000006</ele><time>2026-03-28T11:57:52Z</time></trkpt><trkpt lat="45.52642663456573" lon="10.99330669128814"><ele>508.0</ele><time>2026-03-28T11:57:53Z</time></trkpt><trkpt lat="45.52651674776111" lon="10.99332511265881"><ele>507.1666666666667</ele><time>2026-03-28T11:57:54Z</time></trkpt><trkpt lat="45.52659839525416" lon="10.993337351056946"><ele>506.33333333333337</ele><time>2026-03-28T11:57:55Z</time></trkpt><trkpt lat="45.52666890357826" lon="10.993373413632499"><ele>505.5</ele><time>2026-03-28T11:57:56Z</time></trkpt><trkpt lat="45.52673517684968" lon="10.993420062740602"><ele>504.66666666666663</ele><time>2026-03-28T11:57:57Z</time></trkpt><trkpt lat="45.52680170144461" lon="10.993487572258227"><ele>503.8333333333333</ele><time>2026-03-28T11:57:58Z</time></trkpt><trkpt lat="45.52687355976056" lon="10.993555601791517"><ele>503.0</ele><time>2026-03-28T11:57:59Z</time></trkpt><trkpt lat="45.52694895118465" lon="10.993625433328598"><ele>502.99999999999994</ele><time>2026-03-28T11:58:00Z</time></trkpt><trkpt lat="45.527023310348795" lon="10.993690206012515"><ele>503.0</ele><time>2026-03-28T11:58:01Z</time></trkpt><trkpt lat="45.52708691824608" lon="10.993747113621698"><ele>503.0</ele><time>2026-03-28T11:58:02Z</time></trkpt><trkpt lat="45.527145379812254" lon="10.993791584669538"><ele>503.0</ele><time>2026-03-28T11:58:03Z</time></trkpt><trkpt lat="45.52724930071701" lon="10.993871808879005"><ele>502.99999999999994</ele><time>2026-03-28T11:58:05Z</time></trkpt><trkpt lat="45.52730453494626" lon="10.993917167818493"><ele>503.0</ele><time>2026-03-28T11:58:06Z</time></trkpt><trkpt lat="45.527369672236944" lon="10.99396576967943"><ele>505.4</ele><time>2026-03-28T11:58:07Z</time></trkpt><trkpt lat="45.527446572171456" lon="10.994031261811287"><ele>507.79999999999995</ele><time>2026-03-28T11:58:08Z</time></trkpt><trkpt lat="45.527525355547006" lon="10.99409414013736"><ele>510.2</ele><time>2026-03-28T11:58:09Z</time></trkpt><trkpt lat="45.52763935438504" lon="10.994167079148543"><ele>512.6</ele><time>2026-03-28T11:58:11Z</time></trkpt><trkpt lat="45.52770577160586" lon="10.994219759447297"><ele>515.0</ele><time>2026-03-28T11:58:13Z</time></trkpt><trkpt lat="45.52775856707417" lon="10.994289434271025"><ele>515.0</ele><time>2026-03-28T11:58:15Z</time></trkpt><trkpt lat="45.527793244095214" lon="10.994396973665546"><ele>515.0</ele><time>2026-03-28T11:58:17Z</time></trkpt><trkpt lat="45.527767335026375" lon="10.994527242027385"><ele>515.0</ele><time>2026-03-28T11:58:19Z</time></trkpt><trkpt lat="45.527718239029525" lon="10.994631492855836"><ele>515.0</ele><time>2026-03-28T11:58:21Z</time></trkpt><trkpt lat="45.527669011262816" lon="10.994703660520075"><ele>515.0</ele><time>2026-03-28T11:58:22Z</time></trkpt><trkpt lat="45.52762022808527" lon="10.994819738119752"><ele>515.0</ele><time>2026-03-28T11:58:25Z</time></trkpt><trkpt lat="45.52756861647967" lon="10.994949202052577"><ele>515.0</ele><time>2026-03-28T11:58:28Z</time></trkpt><trkpt lat="45.52752967609999" lon="10.99503311166196"><ele>515.0</ele><time>2026-03-28T11:58:29Z</time></trkpt><trkpt lat="45.52756754797296" lon="10.994954207998603"><ele>515.0</ele><time>2026-03-28T11:58:36.001Z</time></trkpt><trkpt lat="45.527605111612004" lon="10.99482841111437"><ele>515.0</ele><time>2026-03-28T11:58:37.001Z</time></trkpt><trkpt lat="45.527665286788796" lon="10.994724649668433"><ele>515.0</ele><time>2026-03-28T11:58:38.001Z</time></trkpt><trkpt lat="45.52771217823791" lon="10.994631104397001"><ele>515.0</ele><time>2026-03-28T11:58:39.001Z</time></trkpt><trkpt lat="45.52776125704555" lon="10.99455417152088"><ele>515.0</ele><time>2026-03-28T11:58:40.001Z</time></trkpt><trkpt lat="45.52780896157768" lon="10.994491306822853"><ele>515.0</ele><time>2026-03-28T11:58:41.001Z</time></trkpt><trkpt lat="45.527804680969616" lon="10.994334832965714"><ele>515.0</ele><time>2026-03-28T11:58:43.001Z</time></trkpt><trkpt lat="45.527724163413886" lon="10.994224004671052"><ele>515.0</ele><time>2026-03-28T11:58:45.001Z</time></trkpt><trkpt lat="45.52765199362122" lon="10.994159919959191"><ele>515.0</ele><time>2026-03-28T11:58:47.001Z</time></trkpt><trkpt lat="45.52755248133837" lon="10.994108993429235"><ele>515.6</ele><time>2026-03-28T11:58:49.001Z</time></trkpt><trkpt lat="45.52746403676844" lon="10.994058924896022"><ele>516.2</ele><time>2026-03-28T11:58:51.001Z</time></trkpt><trkpt lat="45.527393045350486" lon="10.994000711605558"><ele>516.8</ele><time>2026-03-28T11:58:53.001Z</time></trkpt><trkpt lat="45.52729364365432" lon="10.993934060874277"><ele>517.4</ele><time>2026-03-28T11:58:55.001Z</time></trkpt><trkpt lat="45.52720625836055" lon="10.993855279043464"><ele>518.0</ele><time>2026-03-28T11:58:57.001Z</time></trkpt><trkpt lat="45.527123631506626" lon="10.993794281750418"><ele>518.0</ele><time>2026-03-28T11:58:59.001Z</time></trkpt><trkpt lat="45.52705309050656" lon="10.993730577729112"><ele>518.0</ele><time>2026-03-28T11:59:01.001Z</time></trkpt><trkpt lat="45.52698110759829" lon="10.99369935056074"><ele>518.0</ele><time>2026-03-28T11:59:03.001Z</time></trkpt><trkpt lat="45.52693775769677" lon="10.993624042715943"><ele>518.0</ele><time>2026-03-28T11:59:19.001Z</time></trkpt><trkpt lat="45.52699817324743" lon="10.993669212258927"><ele>518.0</ele><time>2026-03-28T11:59:28.002Z</time></trkpt><trkpt lat="45.527078871516665" lon="10.99371052104356"><ele>518.0</ele><time>2026-03-28T11:59:45.002Z</time></trkpt><trkpt lat="45.52715129120945" lon="10.993723740027393"><ele>518.0</ele><time>2026-03-28T11:59:46.002Z</time></trkpt><trkpt lat="45.5272348878058" lon="10.993718293659974"><ele>518.0</ele><time>2026-03-28T11:59:48.002Z</time></trkpt><trkpt lat="45.52729480021986" lon="10.993625043572985"><ele>518.0</ele><time>2026-03-28T11:59:50.999Z</time></trkpt><trkpt lat="45.52738985482632" lon="10.99356819890622"><ele>518.0</ele><time>2026-03-28T11:59:53.999Z</time></trkpt><trkpt lat="45.52745873701698" lon="10.993553051311679"><ele>518.0</ele><time>2026-03-28T11:59:56.999Z</time></trkpt><trkpt lat="45.52753330105087" lon="10.993538749240848"><ele>518.0</ele><time>2026-03-28T11:59:59.999Z</time></trkpt><trkpt lat="45.52758551248968" lon="10.993478845389866"><ele>518.0</ele><time>2026-03-28T12:00:05Z</time></trkpt><trkpt lat="45.527670794152186" lon="10.993452232319799"><ele>518.0</ele><time>2026-03-28T12:00:08Z</time></trkpt><trkpt lat="45.52773534815011" lon="10.99340001672819"><ele>518.0</ele><time>2026-03-28T12:00:12Z</time></trkpt><trkpt lat="45.52778506059118" lon="10.993263879399478"><ele>518.0</ele><time>2026-03-28T12:00:15Z</time></trkpt><trkpt lat="45.52784490590459" lon="10.993195327378178"><ele>518.0</ele><time>2026-03-28T12:00:18Z</time></trkpt><trkpt lat="45.52791921255255" lon="10.993231639044991"><ele>518.0</ele><time>2026-03-28T12:00:20Z</time></trkpt><trkpt lat="45.5279952228933" lon="10.993258220492589"><ele>522.1666666666666</ele><time>2026-03-28T12:00:23Z</time></trkpt><trkpt lat="45.52805730485047" lon="10.99320430684292"><ele>526.3333333333333</ele><time>2026-03-28T12:00:26Z</time></trkpt><trkpt lat="45.52813541406128" lon="10.993141944732795"><ele>530.5</ele><time>2026-03-28T12:00:29Z</time></trkpt><trkpt lat="45.52821832851941" lon="10.993106773036246"><ele>534.6666666666666</ele><time>2026-03-28T12:00:32Z</time></trkpt><trkpt lat="45.52828382941627" lon="10.993031823255537"><ele>538.8333333333334</ele><time>2026-03-28T12:00:35Z</time></trkpt><trkpt lat="45.52833054787536" lon="10.992894472989484"><ele>543.0</ele><time>2026-03-28T12:00:38Z</time></trkpt><trkpt lat="45.52833585279253" lon="10.99277573299218"><ele>543.0</ele><time>2026-03-28T12:00:40.001Z</time></trkpt><trkpt lat="45.528318382350804" lon="10.992686768595647"><ele>543.0</ele><time>2026-03-28T12:00:42.001Z</time></trkpt><trkpt lat="45.52835323245171" lon="10.992581585580876"><ele>543.0</ele><time>2026-03-28T12:00:44.001Z</time></trkpt><trkpt lat="45.52841142274471" lon="10.992537155175283"><ele>543.0</ele><time>2026-03-28T12:00:49.001Z</time></trkpt><trkpt lat="45.52851449964747" lon="10.992569662847208"><ele>543.0</ele><time>2026-03-28T12:00:52.001Z</time></trkpt><trkpt lat="45.52857846958293" lon="10.992544261159502"><ele>543.0</ele><time>2026-03-28T12:00:54.001Z</time></trkpt><trkpt lat="45.5286668895162" lon="10.9925607585436"><ele>543.0</ele><time>2026-03-28T12:01:08.001Z</time></trkpt><trkpt lat="45.5287183824722" lon="10.992621216715273"><ele>543.0</ele><time>2026-03-28T12:01:09.001Z</time></trkpt><trkpt lat="45.52880897867" lon="10.992694633831556"><ele>543.0</ele><time>2026-03-28T12:01:11.001Z</time></trkpt><trkpt lat="45.528912704788716" lon="10.992756862132218"><ele>543.0</ele><time>2026-03-28T12:01:13.001Z</time></trkpt><trkpt lat="45.52897374266538" lon="10.99280051406881"><ele>543.0</ele><time>2026-03-28T12:01:14.001Z</time></trkpt><trkpt lat="45.52903363684007" lon="10.992869937578066"><ele>543.0</ele><time>2026-03-28T12:01:15.001Z</time></trkpt><trkpt lat="45.52911974319477" lon="10.992965711335605"><ele>543.8333333333334</ele><time>2026-03-28T12:01:17.001Z</time></trkpt><trkpt lat="45.529186806011204" lon="10.993093351767833"><ele>544.6666666666666</ele><time>2026-03-28T12:01:19.001Z</time></trkpt><trkpt lat="45.52921084278153" lon="10.993181552841897"><ele>545.5</ele><time>2026-03-28T12:01:20.001Z</time></trkpt><trkpt lat="45.5292227017199" lon="10.993296225175023"><ele>546.3333333333333</ele><time>2026-03-28T12:01:21.001Z</time></trkpt><trkpt lat="45.52923809871846" lon="10.993418062143537"><ele>547.1666666666666</ele><time>2026-03-28T12:01:22.001Z</time></trkpt><trkpt lat="45.529256743592356" lon="10.993543292657073"><ele>548.0</ele><time>2026-03-28T12:01:23.001Z</time></trkpt><trkpt lat="45.52926821265473" lon="10.993654204368006"><ele>548.0</ele><time>2026-03-28T12:01:24.001Z</time></trkpt><trkpt lat="45.52928989064371" lon="10.993746851716265"><ele>548.0</ele><time>2026-03-28T12:01:25.001Z</time></trkpt><trkpt lat="45.52928264476796" lon="10.993897040071367"><ele>548.0</ele><time>2026-03-28T12:01:27.002Z</time></trkpt><trkpt lat="45.52929718504979" lon="10.993987177109469"><ele>548.0</ele><time>2026-03-28T12:01:30.002Z</time></trkpt><trkpt lat="45.5292942405761" lon="10.994081869715455"><ele>548.0</ele><time>2026-03-28T12:01:33.002Z</time></trkpt><trkpt lat="45.52925962781476" lon="10.994186161807074"><ele>548.0</ele><time>2026-03-28T12:01:39.002Z</time></trkpt><trkpt lat="45.52924932042153" lon="10.994293417430665"><ele>546.6666666666666</ele><time>2026-03-28T12:01:41.002Z</time></trkpt><trkpt lat="45.52919304808209" lon="10.994368159457082"><ele>545.3333333333333</ele><time>2026-03-28T12:01:47.002Z</time></trkpt><trkpt lat="45.52915207063659" lon="10.99446798025922"><ele>544.0</ele><time>2026-03-28T12:01:49.002Z</time></trkpt><trkpt lat="45.52910685927495" lon="10.994564940659915"><ele>542.6666666666666</ele><time>2026-03-28T12:01:52.002Z</time></trkpt><trkpt lat="45.52906588612299" lon="10.99464661130001"><ele>541.3333333333334</ele><time>2026-03-28T12:01:56.999Z</time></trkpt><trkpt lat="45.529032735282826" lon="10.994734479074452"><ele>540.0</ele><time>2026-03-28T12:01:57.999Z</time></trkpt><trkpt lat="45.52894811546817" lon="10.99485395331938"><ele>540.0</ele><time>2026-03-28T12:01:59.999Z</time></trkpt><trkpt lat="45.52886345779379" lon="10.994956737780873"><ele>540.0</ele><time>2026-03-28T12:02:01.999Z</time></trkpt><trkpt lat="45.52879056732368" lon="10.995011377885133"><ele>540.0</ele><time>2026-03-28T12:02:03.999Z</time></trkpt><trkpt lat="45.52873173893227" lon="10.995092534709158"><ele>540.0</ele><time>2026-03-28T12:02:13Z</time></trkpt><trkpt lat="45.5287564866476" lon="10.994437442451549"><ele>538.6666666666666</ele><time>2026-03-28T12:02:22Z</time></trkpt><trkpt lat="45.528704352486955" lon="10.994348525610263"><ele>537.3333333333334</ele><time>2026-03-28T12:02:23Z</time></trkpt><trkpt lat="45.52868500763224" lon="10.994243798400998"><ele>536.0</ele><time>2026-03-28T12:02:24Z</time></trkpt><trkpt lat="45.528643476709064" lon="10.994163295473184"><ele>534.6666666666667</ele><time>2026-03-28T12:02:25Z</time></trkpt><trkpt lat="45.52858338434646" lon="10.994081882068775"><ele>533.3333333333334</ele><time>2026-03-28T12:02:27Z</time></trkpt><trkpt lat="45.528480690473536" lon="10.994114729953107"><ele>532.0</ele><time>2026-03-28T12:02:29Z</time></trkpt><trkpt lat="45.52844025762906" lon="10.994250399527962"><ele>531.4</ele><time>2026-03-28T12:02:30Z</time></trkpt><trkpt lat="45.52838753357288" lon="10.994391176854506"><ele>530.8000000000001</ele><time>2026-03-28T12:02:32Z</time></trkpt><trkpt lat="45.52831245851447" lon="10.994460564407389"><ele>530.2</ele><time>2026-03-28T12:02:33Z</time></trkpt><trkpt lat="45.528232354035005" lon="10.99452998498362"><ele>529.6</ele><time>2026-03-28T12:02:34Z</time></trkpt><trkpt lat="45.528156612436135" lon="10.994596566999165"><ele>529.0</ele><time>2026-03-28T12:02:35Z</time></trkpt><trkpt lat="45.528086336316385" lon="10.994676838870944"><ele>529.0</ele><time>2026-03-28T12:02:36Z</time></trkpt><trkpt lat="45.52799604899886" lon="10.994758770506985"><ele>529.0</ele><time>2026-03-28T12:02:37Z</time></trkpt><trkpt lat="45.527924092951416" lon="10.994884306665336"><ele>529.0</ele><time>2026-03-28T12:02:38Z</time></trkpt><trkpt lat="45.527835624237746" lon="10.995010400577492"><ele>529.0</ele><time>2026-03-28T12:02:39Z</time></trkpt><trkpt lat="45.527747428769075" lon="10.99516234850423"><ele>525.6</ele><time>2026-03-28T12:02:40Z</time></trkpt><trkpt lat="45.52767616388417" lon="10.995304354465548"><ele>522.2</ele><time>2026-03-28T12:02:41Z</time></trkpt><trkpt lat="45.527610194133864" lon="10.995427169843206"><ele>518.8000000000001</ele><time>2026-03-28T12:02:42.001Z</time></trkpt><trkpt lat="45.52755834020151" lon="10.995536918982973"><ele>515.4</ele><time>2026-03-28T12:02:43.001Z</time></trkpt><trkpt lat="45.52751435987635" lon="10.995636821804288"><ele>512.0</ele><time>2026-03-28T12:02:44.001Z</time></trkpt><trkpt lat="45.52746136222676" lon="10.995696705492236"><ele>512.0</ele><time>2026-03-28T12:02:45.001Z</time></trkpt><trkpt lat="45.5273931847436" lon="10.995776960286111"><ele>512.0</ele><time>2026-03-28T12:02:47.001Z</time></trkpt><trkpt lat="45.52738318721437" lon="10.996012774530982"><ele>512.0</ele><time>2026-03-28T12:02:49.001Z</time></trkpt><trkpt lat="45.527318091061545" lon="10.996047439633868"><ele>512.0</ele><time>2026-03-28T12:02:50.001Z</time></trkpt><trkpt lat="45.52719701393839" lon="10.996103019339648"><ele>510.49999999999994</ele><time>2026-03-28T12:02:52.001Z</time></trkpt><trkpt lat="45.527094483260505" lon="10.996154136900634"><ele>509.0</ele><time>2026-03-28T12:02:54.001Z</time></trkpt><trkpt lat="45.52700658263551" lon="10.99621622740537"><ele>507.5</ele><time>2026-03-28T12:02:56.001Z</time></trkpt><trkpt lat="45.526949814964624" lon="10.996273523452224"><ele>506.0</ele><time>2026-03-28T12:02:58.001Z</time></trkpt><trkpt lat="45.52690872006074" lon="10.996362228020107"><ele>504.49999999999994</ele><time>2026-03-28T12:03:00.001Z</time></trkpt><trkpt lat="45.52685566764226" lon="10.996452758910229"><ele>503.0</ele><time>2026-03-28T12:03:01.001Z</time></trkpt><trkpt lat="45.526806494146854" lon="10.996527111143465"><ele>502.99999999999994</ele><time>2026-03-28T12:03:04.001Z</time></trkpt><trkpt lat="45.52672375523575" lon="10.99661318215661"><ele>503.0</ele><time>2026-03-28T12:03:09.001Z</time></trkpt><trkpt lat="45.52668019522778" lon="10.996696464256694"><ele>503.0</ele><time>2026-03-28T12:03:10.001Z</time></trkpt><trkpt lat="45.526632374013694" lon="10.996776330909055"><ele>503.0</ele><time>2026-03-28T12:03:11.001Z</time></trkpt><trkpt lat="45.52659081832946" lon="10.996849756286933"><ele>502.99999999999994</ele><time>2026-03-28T12:03:12.001Z</time></trkpt><trkpt lat="45.526524663500126" lon="10.996946245317195"><ele>503.0</ele><time>2026-03-28T12:03:14.001Z</time></trkpt><trkpt lat="45.52646734992824" lon="10.997077079330284"><ele>501.49999999999994</ele><time>2026-03-28T12:03:16.001Z</time></trkpt><trkpt lat="45.526420192771425" lon="10.997160768095242"><ele>500.0</ele><time>2026-03-28T12:03:17.001Z</time></trkpt><trkpt lat="45.526371120900954" lon="10.99725148202935"><ele>498.5</ele><time>2026-03-28T12:03:18.001Z</time></trkpt><trkpt lat="45.52632546741924" lon="10.997338035283494"><ele>497.0</ele><time>2026-03-28T12:03:19.001Z</time></trkpt><trkpt lat="45.526267923709206" lon="10.99746759087888"><ele>495.49999999999994</ele><time>2026-03-28T12:03:21.001Z</time></trkpt><trkpt lat="45.526238969055925" lon="10.99757470172892"><ele>494.0</ele><time>2026-03-28T12:03:23.001Z</time></trkpt><trkpt lat="45.526210467280805" lon="10.997670071714039"><ele>494.0</ele><time>2026-03-28T12:03:25.002Z</time></trkpt><trkpt lat="45.52618490437963" lon="10.997777315286953"><ele>494.0</ele><time>2026-03-28T12:03:27.002Z</time></trkpt><trkpt lat="45.526147090933165" lon="10.997933601655179"><ele>494.0</ele><time>2026-03-28T12:03:30.002Z</time></trkpt><trkpt lat="45.52585044853358" lon="10.997745973091842"><ele>493.99999999999994</ele><time>2026-03-28T12:03:32.002Z</time></trkpt><trkpt lat="45.5258149636467" lon="10.997830011291246"><ele>494.0</ele><time>2026-03-28T12:03:34.002Z</time></trkpt><trkpt lat="45.52575978727291" lon="10.997913716429695"><ele>494.0</ele><time>2026-03-28T12:03:37.002Z</time></trkpt><trkpt lat="45.52569269837459" lon="10.997981076065773"><ele>494.0</ele><time>2026-03-28T12:03:39.002Z</time></trkpt><trkpt lat="45.525616468992986" lon="10.99805836004478"><ele>493.99999999999994</ele><time>2026-03-28T12:03:42.002Z</time></trkpt><trkpt lat="45.52556608793551" lon="10.998167264034091"><ele>494.0</ele><time>2026-03-28T12:03:45.002Z</time></trkpt><trkpt lat="45.52547518184095" lon="10.998195019114265"><ele>493.99999999999994</ele><time>2026-03-28T12:03:47.002Z</time></trkpt><trkpt lat="45.52540443409235" lon="10.998285315004216"><ele>494.0</ele><time>2026-03-28T12:03:50.002Z</time></trkpt><trkpt lat="45.52531903507426" lon="10.998353743114778"><ele>494.0</ele><time>2026-03-28T12:03:52.002Z</time></trkpt><trkpt lat="45.52526709402374" lon="10.99842717666945"><ele>494.0</ele><time>2026-03-28T12:03:54.002Z</time></trkpt><trkpt lat="45.52520379593928" lon="10.998506023016306"><ele>493.99999999999994</ele><time>2026-03-28T12:03:56.002Z</time></trkpt><trkpt lat="45.52514383923692" lon="10.998592740407158"><ele>494.0</ele><time>2026-03-28T12:03:59.002Z</time></trkpt><trkpt lat="45.52506870114826" lon="10.998648968330851"><ele>492.3333333333333</ele><time>2026-03-28T12:04:01.002Z</time></trkpt><trkpt lat="45.52503850526353" lon="10.998752653972895"><ele>490.66666666666663</ele><time>2026-03-28T12:04:03.999Z</time></trkpt><trkpt lat="45.52505311852014" lon="10.99884254708228"><ele>489.0</ele><time>2026-03-28T12:04:05.999Z</time></trkpt><trkpt lat="45.52499629113665" lon="10.99890645797223"><ele>487.33333333333337</ele><time>2026-03-28T12:04:07.999Z</time></trkpt><trkpt lat="45.52494147164136" lon="10.998992132276154"><ele>485.6666666666667</ele><time>2026-03-28T12:04:10Z</time></trkpt><trkpt lat="45.52487702947076" lon="10.999139906646514"><ele>484.0</ele><time>2026-03-28T12:04:12Z</time></trkpt><trkpt lat="45.524813594333715" lon="10.99918107390643"><ele>481.50000000000006</ele><time>2026-03-28T12:04:13Z</time></trkpt><trkpt lat="45.52474640308455" lon="10.999221923700594"><ele>479.0</ele><time>2026-03-28T12:04:14Z</time></trkpt><trkpt lat="45.524675676766314" lon="10.999368322290296"><ele>476.5</ele><time>2026-03-28T12:04:16Z</time></trkpt><trkpt lat="45.5246387359413" lon="10.999479713270496"><ele>474.0</ele><time>2026-03-28T12:04:18Z</time></trkpt><trkpt lat="45.524619427611995" lon="10.99959734178084"><ele>471.50000000000006</ele><time>2026-03-28T12:04:23Z</time></trkpt><trkpt lat="45.524611645202455" lon="10.999703917907777"><ele>469.0</ele><time>2026-03-28T12:04:27Z</time></trkpt><trkpt lat="45.524623133411524" lon="10.999792355651294"><ele>469.00000000000006</ele><time>2026-03-28T12:04:29Z</time></trkpt><trkpt lat="45.52461574893753" lon="10.999905354528048"><ele>469.0</ele><time>2026-03-28T12:04:32Z</time></trkpt><trkpt lat="45.52457692643441" lon="11.000006087821255"><ele>469.0</ele><time>2026-03-28T12:04:34Z</time></trkpt><trkpt lat="45.52456550561986" lon="11.000104370773828"><ele>469.0</ele><time>2026-03-28T12:04:36Z</time></trkpt><trkpt lat="45.52454561919079" lon="11.00022285702305"><ele>469.00000000000006</ele><time>2026-03-28T12:04:38Z</time></trkpt><trkpt lat="45.52451222905395" lon="11.000324425431273"><ele>469.0</ele><time>2026-03-28T12:04:40Z</time></trkpt><trkpt lat="45.52449173348396" lon="11.000449537905109"><ele>469.57142857142856</ele><time>2026-03-28T12:04:43Z</time></trkpt><trkpt lat="45.52447129752268" lon="11.00053813121396"><ele>470.1428571428571</ele><time>2026-03-28T12:04:45Z</time></trkpt><trkpt lat="45.52446718733549" lon="11.000632287369775"><ele>470.7142857142857</ele><time>2026-03-28T12:04:47.001Z</time></trkpt><trkpt lat="45.52446039910652" lon="11.000747718053873"><ele>471.2857142857143</ele><time>2026-03-28T12:04:49.001Z</time></trkpt><trkpt lat="45.52443979719502" lon="11.000864187709798"><ele>471.85714285714283</ele><time>2026-03-28T12:04:52.001Z</time></trkpt><trkpt lat="45.52442664065167" lon="11.000982279206612"><ele>472.42857142857144</ele><time>2026-03-28T12:05:11.001Z</time></trkpt><trkpt lat="45.5244143574814" lon="11.001074173866916"><ele>473.0</ele><time>2026-03-28T12:05:13.001Z</time></trkpt><trkpt lat="45.52439618149695" lon="11.001162132678713"><ele>472.99999999999994</ele><time>2026-03-28T12:05:15.001Z</time></trkpt><trkpt lat="45.524354027360175" lon="11.001285761910154"><ele>473.0</ele><time>2026-03-28T12:05:18.001Z</time></trkpt><trkpt lat="45.52431329401579" lon="11.001395162112251"><ele>473.0</ele><time>2026-03-28T12:05:20.001Z</time></trkpt><trkpt lat="45.5242511709908" lon="11.001502182597594"><ele>473.0</ele><time>2026-03-28T12:05:22.001Z</time></trkpt><trkpt lat="45.524214751069835" lon="11.001605565674897"><ele>472.99999999999994</ele><time>2026-03-28T12:05:24.001Z</time></trkpt><trkpt lat="45.524181221828314" lon="11.001709044872896"><ele>473.0</ele><time>2026-03-28T12:05:25.001Z</time></trkpt><trkpt lat="45.52414980883823" lon="11.001811649130598"><ele>469.99999999999994</ele><time>2026-03-28T12:05:26.002Z</time></trkpt><trkpt lat="45.52403380336665" lon="11.001850655391229"><ele>467.0</ele><time>2026-03-28T12:05:27.002Z</time></trkpt><trkpt lat="45.52402165503219" lon="11.001944128828677"><ele>464.0</ele><time>2026-03-28T12:05:28.002Z</time></trkpt><trkpt lat="45.5240094295012" lon="11.002065355865343"><ele>461.0</ele><time>2026-03-28T12:05:29.002Z</time></trkpt><trkpt lat="45.524000510162345" lon="11.00219870719603"><ele>457.99999999999994</ele><time>2026-03-28T12:05:31.002Z</time></trkpt><trkpt lat="45.523990565738856" lon="11.002303848619222"><ele>455.0</ele><time>2026-03-28T12:05:34.002Z</time></trkpt><trkpt lat="45.52394958132144" lon="11.002442613827792"><ele>450.75</ele><time>2026-03-28T12:05:38.002Z</time></trkpt><trkpt lat="45.523894297394776" lon="11.002520936768077"><ele>446.5</ele><time>2026-03-28T12:05:41.002Z</time></trkpt><trkpt lat="45.52384249080684" lon="11.002582232411454"><ele>442.25</ele><time>2026-03-28T12:05:45.002Z</time></trkpt><trkpt lat="45.52377917999909" lon="11.002616818817994"><ele>438.0</ele><time>2026-03-28T12:05:49.002Z</time></trkpt><trkpt lat="45.52379661154259" lon="11.002964689600214"><ele>438.0</ele><time>2026-03-28T12:05:51.002Z</time></trkpt><trkpt lat="45.52378304231241" lon="11.00311836366456"><ele>438.0</ele><time>2026-03-28T12:05:52.002Z</time></trkpt><trkpt lat="45.523810939768886" lon="11.003309537255127"><ele>438.0</ele><time>2026-03-28T12:05:53.002Z</time></trkpt><trkpt lat="45.52391892912417" lon="11.003497930177193"><ele>438.0</ele><time>2026-03-28T12:05:55.002Z</time></trkpt><trkpt lat="45.523914629079165" lon="11.003630741068916"><ele>434.8333333333333</ele><time>2026-03-28T12:05:56.002Z</time></trkpt><trkpt lat="45.52390365021866" lon="11.003740889460298"><ele>431.66666666666663</ele><time>2026-03-28T12:06:00.002Z</time></trkpt><trkpt lat="45.52384803495665" lon="11.003797353685679"><ele>428.5</ele><time>2026-03-28T12:06:02.002Z</time></trkpt><trkpt lat="45.523874723059514" lon="11.003907965228905"><ele>425.3333333333333</ele><time>2026-03-28T12:06:06.002Z</time></trkpt><trkpt lat="45.52393172757057" lon="11.003959550688743"><ele>422.16666666666663</ele><time>2026-03-28T12:06:10Z</time></trkpt><trkpt lat="45.52395176474838" lon="11.004074432238657"><ele>419.0</ele><time>2026-03-28T12:06:14Z</time></trkpt><trkpt lat="45.523917358312424" lon="11.004225003417371"><ele>415.99999999999994</ele><time>2026-03-28T12:06:19Z</time></trkpt><trkpt lat="45.523917966528266" lon="11.00434184199106"><ele>413.0</ele><time>2026-03-28T12:06:21Z</time></trkpt><trkpt lat="45.523887062072426" lon="11.004475932004432"><ele>410.0</ele><time>2026-03-28T12:06:23Z</time></trkpt><trkpt lat="45.52385457843114" lon="11.004610621595765"><ele>407.0</ele><time>2026-03-28T12:06:25Z</time></trkpt><trkpt lat="45.52382248013611" lon="11.004707951676165"><ele>403.99999999999994</ele><time>2026-03-28T12:06:27Z</time></trkpt><trkpt lat="45.523814276219845" lon="11.004826706391233"><ele>401.0</ele><time>2026-03-28T12:06:29Z</time></trkpt><trkpt lat="45.52379544378263" lon="11.004931754844987"><ele>401.8</ele><time>2026-03-28T12:06:31Z</time></trkpt><trkpt lat="45.52373803663323" lon="11.005025307381175"><ele>402.6</ele><time>2026-03-28T12:06:33Z</time></trkpt><trkpt lat="45.52369763707149" lon="11.00512221046901"><ele>403.4</ele><time>2026-03-28T12:06:37Z</time></trkpt><trkpt lat="45.52364654184169" lon="11.005236723866943"><ele>404.2</ele><time>2026-03-28T12:06:39Z</time></trkpt><trkpt lat="45.523589145773165" lon="11.005386606918552"><ele>405.0</ele><time>2026-03-28T12:06:41.001Z</time></trkpt><trkpt lat="45.52354745720002" lon="11.005470995017117"><ele>405.0</ele><time>2026-03-28T12:06:43.001Z</time></trkpt><trkpt lat="45.52349554830656" lon="11.005594355145256"><ele>405.0</ele><time>2026-03-28T12:06:45.001Z</time></trkpt><trkpt lat="45.52344003956375" lon="11.00568666117231"><ele>405.0</ele><time>2026-03-28T12:06:48.001Z</time></trkpt><trkpt lat="45.5233780142005" lon="11.00575367225389"><ele>405.0</ele><time>2026-03-28T12:06:53.001Z</time></trkpt><trkpt lat="45.52332657053665" lon="11.005868261698245"><ele>405.0</ele><time>2026-03-28T12:06:58.001Z</time></trkpt><trkpt lat="45.523268357987526" lon="11.005935532581132"><ele>405.0</ele><time>2026-03-28T12:07:01.001Z</time></trkpt><trkpt lat="45.52321436915323" lon="11.006045578529852"><ele>400.99999999999994</ele><time>2026-03-28T12:07:04.001Z</time></trkpt><trkpt lat="45.52317390713195" lon="11.006115773249734"><ele>397.0</ele><time>2026-03-28T12:07:06.001Z</time></trkpt><trkpt lat="45.52314083930786" lon="11.006193679342168"><ele>393.0</ele><time>2026-03-28T12:07:09.001Z</time></trkpt><trkpt lat="45.52309640107002" lon="11.006311475454662"><ele>389.0</ele><time>2026-03-28T12:07:12.001Z</time></trkpt><trkpt lat="45.52303447665718" lon="11.006367699840332"><ele>385.0</ele><time>2026-03-28T12:07:15.001Z</time></trkpt><trkpt lat="45.52298194216406" lon="11.006432829340717"><ele>380.99999999999994</ele><time>2026-03-28T12:07:18.001Z</time></trkpt><trkpt lat="45.52292561532311" lon="11.006487291610279"><ele>377.0</ele><time>2026-03-28T12:07:23.001Z</time></trkpt><trkpt lat="45.52286217880706" lon="11.006548299425084"><ele>376.83333333333337</ele><time>2026-03-28T12:07:26.002Z</time></trkpt><trkpt lat="45.52281560923353" lon="11.006644690381586"><ele>376.6666666666667</ele><time>2026-03-28T12:07:30.002Z</time></trkpt><trkpt lat="45.52275345317769" lon="11.006762551174193"><ele>376.5</ele><time>2026-03-28T12:07:33.002Z</time></trkpt><trkpt lat="45.52271019943412" lon="11.006828217854679"><ele>376.3333333333333</ele><time>2026-03-28T12:07:35.002Z</time></trkpt><trkpt lat="45.52265122595466" lon="11.006915384806023"><ele>376.16666666666663</ele><time>2026-03-28T12:07:37.002Z</time></trkpt><trkpt lat="45.52258975873473" lon="11.006950597733644"><ele>376.0</ele><time>2026-03-28T12:07:43.002Z</time></trkpt><trkpt lat="45.522568120602614" lon="11.007049119510754"><ele>371.8333333333333</ele><time>2026-03-28T12:07:47.002Z</time></trkpt><trkpt lat="45.5225396508843" lon="11.007130141200124"><ele>367.66666666666663</ele><time>2026-03-28T12:07:54.002Z</time></trkpt><trkpt lat="45.52250293426019" lon="11.007267168090523"><ele>363.5</ele><time>2026-03-28T12:07:56.002Z</time></trkpt><trkpt lat="45.522464063288524" lon="11.007410717042413"><ele>359.3333333333333</ele><time>2026-03-28T12:07:58.002Z</time></trkpt><trkpt lat="45.52242263257837" lon="11.007506058168149"><ele>355.1666666666667</ele><time>2026-03-28T12:08:02.002Z</time></trkpt><trkpt lat="45.522375356027666" lon="11.007567049444436"><ele>351.0</ele><time>2026-03-28T12:08:27.001Z</time></trkpt><trkpt lat="45.522333430777785" lon="11.007659889164408"><ele>347.3333333333333</ele><time>2026-03-28T12:08:29.001Z</time></trkpt><trkpt lat="45.522284478327975" lon="11.007774948577111"><ele>343.6666666666667</ele><time>2026-03-28T12:08:31.001Z</time></trkpt><trkpt lat="45.522239839512885" lon="11.007891680190612"><ele>340.0</ele><time>2026-03-28T12:08:33.001Z</time></trkpt><trkpt lat="45.52218773072066" lon="11.00802775308939"><ele>336.33333333333337</ele><time>2026-03-28T12:08:35.001Z</time></trkpt><trkpt lat="45.52215913203668" lon="11.00811149984226"><ele>332.6666666666667</ele><time>2026-03-28T12:08:36.001Z</time></trkpt><trkpt lat="45.522131303879036" lon="11.008199122339192"><ele>329.0</ele><time>2026-03-28T12:08:37.001Z</time></trkpt><trkpt lat="45.52208035125659" lon="11.0082688171786"><ele>328.4</ele><time>2026-03-28T12:08:38.001Z</time></trkpt><trkpt lat="45.522011763350314" lon="11.008313606266476"><ele>327.79999999999995</ele><time>2026-03-28T12:08:39.001Z</time></trkpt><trkpt lat="45.52193461333163" lon="11.008335038314074"><ele>327.20000000000005</ele><time>2026-03-28T12:08:40.001Z</time></trkpt><trkpt lat="45.52184780846882" lon="11.008402846113503"><ele>326.6</ele><time>2026-03-28T12:08:42.001Z</time></trkpt><trkpt lat="45.52179860144933" lon="11.008568554341798"><ele>326.0</ele><time>2026-03-28T12:08:44.001Z</time></trkpt><trkpt lat="45.521747106996074" lon="11.008729004563849"><ele>323.33333333333337</ele><time>2026-03-28T12:08:46.001Z</time></trkpt><trkpt lat="45.52174349180345" lon="11.008826446515043"><ele>320.6666666666667</ele><time>2026-03-28T12:08:47.001Z</time></trkpt><trkpt lat="45.52174157320977" lon="11.008923988604145"><ele>318.0</ele><time>2026-03-28T12:08:48.001Z</time></trkpt><trkpt lat="45.521742571708934" lon="11.009023636388664"><ele>315.3333333333333</ele><time>2026-03-28T12:08:49.001Z</time></trkpt><trkpt lat="45.5217351414501" lon="11.009128543001696"><ele>312.66666666666663</ele><time>2026-03-28T12:08:50.001Z</time></trkpt><trkpt lat="45.52172532148094" lon="11.009227032035444"><ele>310.0</ele><time>2026-03-28T12:08:51.001Z</time></trkpt><trkpt lat="45.52173203705896" lon="11.009401798720384"><ele>308.0</ele><time>2026-03-28T12:08:53.001Z</time></trkpt><trkpt lat="45.52172398037728" lon="11.009496227122987"><ele>306.0</ele><time>2026-03-28T12:08:54.001Z</time></trkpt><trkpt lat="45.521708284149426" lon="11.009584363039677"><ele>304.0</ele><time>2026-03-28T12:08:55.001Z</time></trkpt><trkpt lat="45.521673514138634" lon="11.009672270902225"><ele>302.0</ele><time>2026-03-28T12:08:56.001Z</time></trkpt><trkpt lat="45.52163446437755" lon="11.009747843964718"><ele>300.0</ele><time>2026-03-28T12:08:57.001Z</time></trkpt><trkpt lat="45.52159886055695" lon="11.009825508256958"><ele>298.0</ele><time>2026-03-28T12:08:58.001Z</time></trkpt><trkpt lat="45.52149700359885" lon="11.009915096885425"><ele>298.0</ele><time>2026-03-28T12:09:00.001Z</time></trkpt><trkpt lat="45.52139020216344" lon="11.009985992050002"><ele>298.0</ele><time>2026-03-28T12:09:02.001Z</time></trkpt><trkpt lat="45.52132234839046" lon="11.010036391164356"><ele>298.0</ele><time>2026-03-28T12:09:03.001Z</time></trkpt><trkpt lat="45.521259543855344" lon="11.010077547267539"><ele>298.0</ele><time>2026-03-28T12:09:04.001Z</time></trkpt><trkpt lat="45.521163593366445" lon="11.01014423928564"><ele>298.0</ele><time>2026-03-28T12:09:06.001Z</time></trkpt><trkpt lat="45.52103414117501" lon="11.010130503820168"><ele>295.3333333333333</ele><time>2026-03-28T12:09:08.001Z</time></trkpt><trkpt lat="45.52094833692184" lon="11.010114354241102"><ele>292.66666666666663</ele><time>2026-03-28T12:09:09.001Z</time></trkpt><trkpt lat="45.52087632205967" lon="11.010119536363762"><ele>290.0</ele><time>2026-03-28T12:09:10.001Z</time></trkpt><trkpt lat="45.52079721309527" lon="11.010129053972541"><ele>287.3333333333333</ele><time>2026-03-28T12:09:11.001Z</time></trkpt><trkpt lat="45.52072251029505" lon="11.010148496262632"><ele>284.6666666666667</ele><time>2026-03-28T12:09:12.001Z</time></trkpt><trkpt lat="45.52065590050781" lon="11.01016987705364"><ele>282.0</ele><time>2026-03-28T12:09:13.001Z</time></trkpt><trkpt lat="45.52056355917359" lon="11.010199115586234"><ele>282.0</ele><time>2026-03-28T12:09:15.001Z</time></trkpt><trkpt lat="45.52050044185034" lon="11.010286152421305"><ele>282.0</ele><time>2026-03-28T12:09:17.001Z</time></trkpt><trkpt lat="45.520460533173434" lon="11.010358857524617"><ele>282.0</ele><time>2026-03-28T12:09:18.001Z</time></trkpt><trkpt lat="45.52042317799718" lon="11.010444204801164"><ele>282.0</ele><time>2026-03-28T12:09:19.001Z</time></trkpt><trkpt lat="45.52038221182001" lon="11.010523010489024"><ele>282.0</ele><time>2026-03-28T12:09:21.001Z</time></trkpt><trkpt lat="45.52029137116581" lon="11.010583923678308"><ele>282.0</ele><time>2026-03-28T12:09:24.002Z</time></trkpt><trkpt lat="45.52020293215159" lon="11.01062038432403"><ele>281.0</ele><time>2026-03-28T12:09:26.002Z</time></trkpt><trkpt lat="45.520121743207255" lon="11.010752974825996"><ele>280.0</ele><time>2026-03-28T12:09:28.002Z</time></trkpt><trkpt lat="45.520078003384334" lon="11.010843456368994"><ele>279.0</ele><time>2026-03-28T12:09:29.002Z</time></trkpt><trkpt lat="45.52002147651906" lon="11.010891590343906"><ele>278.0</ele><time>2026-03-28T12:09:30.002Z</time></trkpt><trkpt lat="45.519957644323696" lon="11.010907277995235"><ele>277.0</ele><time>2026-03-28T12:09:31.002Z</time></trkpt><trkpt lat="45.51986647537295" lon="11.010912975332827"><ele>276.0</ele><time>2026-03-28T12:09:32.002Z</time></trkpt><trkpt lat="45.51976067700095" lon="11.010937483743565"><ele>275.0</ele><time>2026-03-28T12:09:33.002Z</time></trkpt><trkpt lat="45.51964103466047" lon="11.010970663361718"><ele>274.0</ele><time>2026-03-28T12:09:34.002Z</time></trkpt><trkpt lat="45.519522691111256" lon="11.011007701378425"><ele>273.0</ele><time>2026-03-28T12:09:35.002Z</time></trkpt><trkpt lat="45.51942426285667" lon="11.011037597801732"><ele>272.0</ele><time>2026-03-28T12:09:36.002Z</time></trkpt><trkpt lat="45.51934604991145" lon="11.011057741874591"><ele>271.0</ele><time>2026-03-28T12:09:37.002Z</time></trkpt><trkpt lat="45.51923557238534" lon="11.011035228401594"><ele>270.5</ele><time>2026-03-28T12:09:39.002Z</time></trkpt><trkpt lat="45.51917689404873" lon="11.0109965455382"><ele>270.0</ele><time>2026-03-28T12:09:41.002Z</time></trkpt><trkpt lat="45.51912008473445" lon="11.011136011975392"><ele>269.5</ele><time>2026-03-28T12:09:43.002Z</time></trkpt><trkpt lat="45.51911351134701" lon="11.011233291899437"><ele>269.0</ele><time>2026-03-28T12:09:44.002Z</time></trkpt><trkpt lat="45.51908997315941" lon="11.011340753453931"><ele>268.5</ele><time>2026-03-28T12:09:46.002Z</time></trkpt><trkpt lat="45.51903659961715" lon="11.011454971389988"><ele>268.0</ele><time>2026-03-28T12:09:49.002Z</time></trkpt><trkpt lat="45.51897866131924" lon="11.011582284755201"><ele>266.8</ele><time>2026-03-28T12:09:51.002Z</time></trkpt><trkpt lat="45.518887333910136" lon="11.011674491778004"><ele>265.6</ele><time>2026-03-28T12:09:53.002Z</time></trkpt><trkpt lat="45.518809241111164" lon="11.011740145053885"><ele>264.4</ele><time>2026-03-28T12:09:55.002Z</time></trkpt><trkpt lat="45.518708444631635" lon="11.011758904028477"><ele>263.2</ele><time>2026-03-28T12:09:57.002Z</time></trkpt><trkpt lat="45.51861724427535" lon="11.011777635435221"><ele>262.0</ele><time>2026-03-28T12:09:59.002Z</time></trkpt><trkpt lat="45.51853295917527" lon="11.011788791920196"><ele>259.16666666666663</ele><time>2026-03-28T12:10:01.002Z</time></trkpt><trkpt lat="45.51844630075561" lon="11.01177647156978"><ele>256.3333333333333</ele><time>2026-03-28T12:10:03.002Z</time></trkpt><trkpt lat="45.51836414913111" lon="11.011751921296975"><ele>253.5</ele><time>2026-03-28T12:10:05.002Z</time></trkpt><trkpt lat="45.518278859556155" lon="11.011718737907719"><ele>250.66666666666669</ele><time>2026-03-28T12:10:07.003Z</time></trkpt><trkpt lat="45.51821333709924" lon="11.01180598508248"><ele>247.83333333333334</ele><time>2026-03-28T12:10:09.003Z</time></trkpt><trkpt lat="45.518181837198796" lon="11.011906905182885"><ele>245.0</ele><time>2026-03-28T12:10:10.003Z</time></trkpt><trkpt lat="45.518154644437864" lon="11.01205266508627"><ele>245.0</ele><time>2026-03-28T12:10:11.003Z</time></trkpt><trkpt lat="45.51813866427653" lon="11.012219512151452"><ele>245.0</ele><time>2026-03-28T12:10:12.003Z</time></trkpt><trkpt lat="45.51813721022701" lon="11.012413506394518"><ele>245.0</ele><time>2026-03-28T12:10:13.003Z</time></trkpt><trkpt lat="45.518142866807594" lon="11.012586269215326"><ele>245.0</ele><time>2026-03-28T12:10:14.003Z</time></trkpt><trkpt lat="45.51814267902997" lon="11.012745042853611"><ele>244.4</ele><time>2026-03-28T12:10:15.003Z</time></trkpt><trkpt lat="45.51812126686005" lon="11.012895045135044"><ele>243.8</ele><time>2026-03-28T12:10:16.003Z</time></trkpt><trkpt lat="45.518076217478566" lon="11.013026179553375"><ele>243.2</ele><time>2026-03-28T12:10:17.003Z</time></trkpt><trkpt lat="45.51801705284731" lon="11.013117405262314"><ele>242.6</ele><time>2026-03-28T12:10:18.003Z</time></trkpt><trkpt lat="45.517943444111346" lon="11.013172035373756"><ele>242.0</ele><time>2026-03-28T12:10:19.003Z</time></trkpt><trkpt lat="45.517875851459934" lon="11.013209572566161"><ele>238.16666666666669</ele><time>2026-03-28T12:10:20.003Z</time></trkpt><trkpt lat="45.517806858962295" lon="11.013276930209347"><ele>234.33333333333334</ele><time>2026-03-28T12:10:23Z</time></trkpt><trkpt lat="45.51771117548" lon="11.013310659471268"><ele>230.5</ele><time>2026-03-28T12:10:25Z</time></trkpt><trkpt lat="45.51765238812795" lon="11.013344058610778"><ele>226.66666666666669</ele><time>2026-03-28T12:10:26Z</time></trkpt><trkpt lat="45.51754636068915" lon="11.013334518168014"><ele>222.83333333333334</ele><time>2026-03-28T12:10:28Z</time></trkpt><trkpt lat="45.517475923206526" lon="11.013257144562626"><ele>219.0</ele><time>2026-03-28T12:10:30Z</time></trkpt><trkpt lat="45.5174276652856" lon="11.013132563587016"><ele>219.0</ele><time>2026-03-28T12:10:32Z</time></trkpt><trkpt lat="45.51743459722376" lon="11.01303678658342"><ele>218.99999999999997</ele><time>2026-03-28T12:10:33Z</time></trkpt><trkpt lat="45.517456299392" lon="11.012925680962509"><ele>218.99999999999997</ele><time>2026-03-28T12:10:34Z</time></trkpt><trkpt lat="45.517492036796035" lon="11.01281224568461"><ele>219.0</ele><time>2026-03-28T12:10:35Z</time></trkpt><trkpt lat="45.517545925670596" lon="11.012666780276167"><ele>219.0</ele><time>2026-03-28T12:10:36Z</time></trkpt><trkpt lat="45.51759637763868" lon="11.012531866180746"><ele>219.6</ele><time>2026-03-28T12:10:37Z</time></trkpt><trkpt lat="45.517633625466694" lon="11.012402268555553"><ele>220.2</ele><time>2026-03-28T12:10:38Z</time></trkpt><trkpt lat="45.517643874870785" lon="11.012283868807383"><ele>220.79999999999998</ele><time>2026-03-28T12:10:39Z</time></trkpt><trkpt lat="45.51764708639724" lon="11.012154342235208"><ele>221.39999999999998</ele><time>2026-03-28T12:10:40Z</time></trkpt><trkpt lat="45.51763380407933" lon="11.012022637719667"><ele>222.0</ele><time>2026-03-28T12:10:41Z</time></trkpt><trkpt lat="45.51762603041195" lon="11.011881352023542"><ele>222.0</ele><time>2026-03-28T12:10:42Z</time></trkpt><trkpt lat="45.517630458837914" lon="11.011758030761099"><ele>222.0</ele><time>2026-03-28T12:10:43Z</time></trkpt><trkpt lat="45.5176279553031" lon="11.011663612515145"><ele>222.0</ele><time>2026-03-28T12:10:44Z</time></trkpt><trkpt lat="45.51758844331128" lon="11.011568760256841"><ele>222.0</ele><time>2026-03-28T12:10:46Z</time></trkpt><trkpt lat="45.517472016762596" lon="11.011608528043773"><ele>222.0</ele><time>2026-03-28T12:10:48Z</time></trkpt><trkpt lat="45.51743384915342" lon="11.0117340504245"><ele>222.0</ele><time>2026-03-28T12:10:50Z</time></trkpt><trkpt lat="45.517440986433854" lon="11.011838557161498"><ele>222.0</ele><time>2026-03-28T12:10:51Z</time></trkpt><trkpt lat="45.517448558851555" lon="11.011934477281532"><ele>222.0</ele><time>2026-03-28T12:10:52Z</time></trkpt><trkpt lat="45.51738165551569" lon="11.01204642435416"><ele>222.0</ele><time>2026-03-28T12:10:54.001Z</time></trkpt><trkpt lat="45.51725624467631" lon="11.01215913694436"><ele>222.0</ele><time>2026-03-28T12:10:56.001Z</time></trkpt><trkpt lat="45.5171718256516" lon="11.012287528798394"><ele>222.0</ele><time>2026-03-28T12:10:57.001Z</time></trkpt><trkpt lat="45.51708202542417" lon="11.01242688844338"><ele>217.5</ele><time>2026-03-28T12:10:58.001Z</time></trkpt><trkpt lat="45.51700684213899" lon="11.012563720207371"><ele>213.0</ele><time>2026-03-28T12:10:59.001Z</time></trkpt><trkpt lat="45.516933825781855" lon="11.01269335429012"><ele>208.5</ele><time>2026-03-28T12:11:00.001Z</time></trkpt><trkpt lat="45.516854696971095" lon="11.012825794345707"><ele>204.0</ele><time>2026-03-28T12:11:01.001Z</time></trkpt><trkpt lat="45.516783699708824" lon="11.012968150329204"><ele>204.0</ele><time>2026-03-28T12:11:02.001Z</time></trkpt><trkpt lat="45.51673467307802" lon="11.013114771823405"><ele>204.0</ele><time>2026-03-28T12:11:03.001Z</time></trkpt><trkpt lat="45.5166923215364" lon="11.013272181350965"><ele>204.0</ele><time>2026-03-28T12:11:04.001Z</time></trkpt><trkpt lat="45.516661356035954" lon="11.013421891456158"><ele>204.0</ele><time>2026-03-28T12:11:05.001Z</time></trkpt><trkpt lat="45.51664141667198" lon="11.013578168887696"><ele>201.75</ele><time>2026-03-28T12:11:06.001Z</time></trkpt><trkpt lat="45.51663159538216" lon="11.013742300933862"><ele>199.5</ele><time>2026-03-28T12:11:07.001Z</time></trkpt><trkpt lat="45.51661994658113" lon="11.013935307384642"><ele>197.25</ele><time>2026-03-28T12:11:08.001Z</time></trkpt><trkpt lat="45.5166033581686" lon="11.014099380303136"><ele>195.0</ele><time>2026-03-28T12:11:09.001Z</time></trkpt><trkpt lat="45.5165750718077" lon="11.014263451684895"><ele>193.2</ele><time>2026-03-28T12:11:10.001Z</time></trkpt><trkpt lat="45.516540741806025" lon="11.014412556440702"><ele>191.4</ele><time>2026-03-28T12:11:11.001Z</time></trkpt><trkpt lat="45.51650155973267" lon="11.014552752243263"><ele>189.60000000000002</ele><time>2026-03-28T12:11:12.001Z</time></trkpt><trkpt lat="45.51646188509085" lon="11.014690030524998"><ele>187.8</ele><time>2026-03-28T12:11:13.001Z</time></trkpt><trkpt lat="45.516437543253645" lon="11.014810009399888"><ele>186.0</ele><time>2026-03-28T12:11:14.001Z</time></trkpt><trkpt lat="45.51639858132215" lon="11.014932448647771"><ele>184.4</ele><time>2026-03-28T12:11:15.001Z</time></trkpt><trkpt lat="45.51635360878505" lon="11.015061986640623"><ele>182.8</ele><time>2026-03-28T12:11:16.001Z</time></trkpt><trkpt lat="45.5163026654628" lon="11.015182110672983"><ele>181.20000000000002</ele><time>2026-03-28T12:11:17.001Z</time></trkpt><trkpt lat="45.516251799613265" lon="11.015286556257294"><ele>179.60000000000002</ele><time>2026-03-28T12:11:18.001Z</time></trkpt><trkpt lat="45.51620257192391" lon="11.01540124932452"><ele>178.0</ele><time>2026-03-28T12:11:19.001Z</time></trkpt><trkpt lat="45.516164238810426" lon="11.015496306740706"><ele>178.0</ele><time>2026-03-28T12:11:20.001Z</time></trkpt><trkpt lat="45.51612631926869" lon="11.015631211317002"><ele>178.0</ele><time>2026-03-28T12:11:22.001Z</time></trkpt><trkpt lat="45.51609579989578" lon="11.015755043222493"><ele>178.0</ele><time>2026-03-28T12:11:25.001Z</time></trkpt><trkpt lat="45.51608203809025" lon="11.015859384910133"><ele>178.0</ele><time>2026-03-28T12:11:27.001Z</time></trkpt><trkpt lat="45.51607454928084" lon="11.015995658262623"><ele>178.0</ele><time>2026-03-28T12:11:29.001Z</time></trkpt><trkpt lat="45.516056761732" lon="11.016085823187876"><ele>178.0</ele><time>2026-03-28T12:11:33.001Z</time></trkpt><trkpt lat="45.51604473577435" lon="11.016197613733699"><ele>176.0</ele><time>2026-03-28T12:11:50.002Z</time></trkpt><trkpt lat="45.515964464804405" lon="11.016249529033292"><ele>174.0</ele><time>2026-03-28T12:11:52.002Z</time></trkpt><trkpt lat="45.515876171609264" lon="11.016204852198056"><ele>172.0</ele><time>2026-03-28T12:11:53.002Z</time></trkpt><trkpt lat="45.515775761708916" lon="11.01619725080345"><ele>170.0</ele><time>2026-03-28T12:11:54.002Z</time></trkpt><trkpt lat="45.51565686939291" lon="11.016179213886733"><ele>168.0</ele><time>2026-03-28T12:11:55.002Z</time></trkpt><trkpt lat="45.51553963352066" lon="11.016163349997631"><ele>168.0</ele><time>2026-03-28T12:11:56.002Z</time></trkpt><trkpt lat="45.51543368445504" lon="11.016142188262513"><ele>168.0</ele><time>2026-03-28T12:11:57.002Z</time></trkpt><trkpt lat="45.515314601085365" lon="11.016134917095878"><ele>168.0</ele><time>2026-03-28T12:11:58.002Z</time></trkpt><trkpt lat="45.515180200147896" lon="11.016126306076172"><ele>168.0</ele><time>2026-03-28T12:11:59.002Z</time></trkpt><trkpt lat="45.51504874601993" lon="11.01611764724864"><ele>167.60000000000002</ele><time>2026-03-28T12:12:00.002Z</time></trkpt><trkpt lat="45.514929327667616" lon="11.016115969481492"><ele>167.20000000000002</ele><time>2026-03-28T12:12:01.002Z</time></trkpt><trkpt lat="45.514816595660406" lon="11.016109211882434"><ele>166.8</ele><time>2026-03-28T12:12:02.002Z</time></trkpt><trkpt lat="45.514709268185754" lon="11.016106577453497"><ele>166.4</ele><time>2026-03-28T12:12:03.002Z</time></trkpt><trkpt lat="45.51460772161681" lon="11.016109875361064"><ele>166.0</ele><time>2026-03-28T12:12:04.002Z</time></trkpt><trkpt lat="45.51450992267682" lon="11.016112536497225"><ele>164.75</ele><time>2026-03-28T12:12:05.002Z</time></trkpt><trkpt lat="45.514406965309405" lon="11.016108481942323"><ele>163.5</ele><time>2026-03-28T12:12:06.002Z</time></trkpt><trkpt lat="45.51428900856151" lon="11.016108380541672"><ele>162.25</ele><time>2026-03-28T12:12:07.002Z</time></trkpt><trkpt lat="45.514149883080165" lon="11.016117279912361"><ele>161.0</ele><time>2026-03-28T12:12:08.002Z</time></trkpt><trkpt lat="45.51399654684094" lon="11.016124206823617"><ele>161.0</ele><time>2026-03-28T12:12:09.002Z</time></trkpt><trkpt lat="45.513852222878896" lon="11.016129011302862"><ele>161.0</ele><time>2026-03-28T12:12:10.002Z</time></trkpt><trkpt lat="45.513718957660025" lon="11.0161373032816"><ele>161.0</ele><time>2026-03-28T12:12:11.002Z</time></trkpt><trkpt lat="45.513581968044775" lon="11.016153632118225"><ele>161.0</ele><time>2026-03-28T12:12:12.002Z</time></trkpt><trkpt lat="45.51344887088253" lon="11.016171982227856"><ele>160.25</ele><time>2026-03-28T12:12:13.002Z</time></trkpt><trkpt lat="45.51331773173498" lon="11.01619112104793"><ele>159.5</ele><time>2026-03-28T12:12:14.002Z</time></trkpt><trkpt lat="45.51319440287774" lon="11.016224281251187"><ele>158.75</ele><time>2026-03-28T12:12:15.002Z</time></trkpt><trkpt lat="45.51308654696806" lon="11.016258959228166"><ele>158.0</ele><time>2026-03-28T12:12:16.002Z</time></trkpt><trkpt lat="45.51300215998732" lon="11.016288008141517"><ele>158.0</ele><time>2026-03-28T12:12:17.002Z</time></trkpt><trkpt lat="45.512929170027995" lon="11.016334454807767"><ele>158.0</ele><time>2026-03-28T12:12:18.002Z</time></trkpt><trkpt lat="45.512850195565434" lon="11.016368168406938"><ele>158.0</ele><time>2026-03-28T12:12:19.002Z</time></trkpt><trkpt lat="45.51277326006633" lon="11.016388651904501"><ele>158.0</ele><time>2026-03-28T12:12:20.002Z</time></trkpt><trkpt lat="45.51272455695781" lon="11.01647360136018"><ele>158.0</ele><time>2026-03-28T12:12:22.002Z</time></trkpt><trkpt lat="45.51273449121523" lon="11.016667344233763"><ele>157.5</ele><time>2026-03-28T12:12:24.002Z</time></trkpt><trkpt lat="45.51273841305867" lon="11.016792047128876"><ele>157.0</ele><time>2026-03-28T12:12:25.002Z</time></trkpt><trkpt lat="45.51274764569998" lon="11.016948591971452"><ele>156.5</ele><time>2026-03-28T12:12:26.002Z</time></trkpt><trkpt lat="45.51276658673289" lon="11.017130283398492"><ele>156.0</ele><time>2026-03-28T12:12:27Z</time></trkpt><trkpt lat="45.51279160746159" lon="11.017317145434468"><ele>155.5</ele><time>2026-03-28T12:12:28Z</time></trkpt><trkpt lat="45.51281233030497" lon="11.017512570920818"><ele>155.0</ele><time>2026-03-28T12:12:29Z</time></trkpt><trkpt lat="45.51283230049042" lon="11.017710258468638"><ele>154.5</ele><time>2026-03-28T12:12:30Z</time></trkpt><trkpt lat="45.51285279831129" lon="11.017906993475822"><ele>154.0</ele><time>2026-03-28T12:12:31Z</time></trkpt><trkpt lat="45.51287577389637" lon="11.018126762897266"><ele>153.75</ele><time>2026-03-28T12:12:32Z</time></trkpt><trkpt lat="45.5129029671755" lon="11.018344497567112"><ele>153.5</ele><time>2026-03-28T12:12:33Z</time></trkpt><trkpt lat="45.51293387772666" lon="11.018540342777237"><ele>153.25</ele><time>2026-03-28T12:12:34Z</time></trkpt><trkpt lat="45.5129691945743" lon="11.018714236758937"><ele>153.0</ele><time>2026-03-28T12:12:35Z</time></trkpt><trkpt lat="45.51300680385906" lon="11.018882729457289"><ele>153.75</ele><time>2026-03-28T12:12:36Z</time></trkpt><trkpt lat="45.51304480317109" lon="11.019035984405868"><ele>154.5</ele><time>2026-03-28T12:12:37Z</time></trkpt><trkpt lat="45.51307653937926" lon="11.019184331849381"><ele>155.25</ele><time>2026-03-28T12:12:38Z</time></trkpt><trkpt lat="45.513105129701515" lon="11.019340768689531"><ele>156.0</ele><time>2026-03-28T12:12:39Z</time></trkpt><trkpt lat="45.513139083075174" lon="11.019526500430986"><ele>156.0</ele><time>2026-03-28T12:12:40Z</time></trkpt><trkpt lat="45.51317648643864" lon="11.019707650439107"><ele>156.0</ele><time>2026-03-28T12:12:41Z</time></trkpt><trkpt lat="45.51320986475016" lon="11.019851235629977"><ele>156.0</ele><time>2026-03-28T12:12:42Z</time></trkpt><trkpt lat="45.51323521092763" lon="11.019958089499571"><ele>156.0</ele><time>2026-03-28T12:12:43Z</time></trkpt><trkpt lat="45.51324665709156" lon="11.020070743949102"><ele>156.0</ele><time>2026-03-28T12:12:44Z</time></trkpt><trkpt lat="45.51323974767943" lon="11.020170907655704"><ele>156.16666666666666</ele><time>2026-03-28T12:12:45Z</time></trkpt><trkpt lat="45.51322455474745" lon="11.020293417412898"><ele>156.33333333333334</ele><time>2026-03-28T12:12:47Z</time></trkpt><trkpt lat="45.513212404728506" lon="11.020398004969147"><ele>156.5</ele><time>2026-03-28T12:12:48Z</time></trkpt><trkpt lat="45.51323367420188" lon="11.02051650196625"><ele>156.66666666666669</ele><time>2026-03-28T12:12:49Z</time></trkpt><trkpt lat="45.513284979823624" lon="11.020607700976923"><ele>156.83333333333334</ele><time>2026-03-28T12:12:50Z</time></trkpt><trkpt lat="45.51335509475852" lon="11.020666906118764"><ele>157.0</ele><time>2026-03-28T12:12:51Z</time></trkpt><trkpt lat="45.51343003243428" lon="11.020693825919398"><ele>157.0</ele><time>2026-03-28T12:12:52Z</time></trkpt><trkpt lat="45.513519222963495" lon="11.020696062720328"><ele>157.0</ele><time>2026-03-28T12:12:53Z</time></trkpt><trkpt lat="45.51359757646766" lon="11.020691671729795"><ele>157.0</ele><time>2026-03-28T12:12:54Z</time></trkpt><trkpt lat="45.51365988000595" lon="11.020715764227697"><ele>157.0</ele><time>2026-03-28T12:12:55Z</time></trkpt><trkpt lat="45.51371545497136" lon="11.02088437430125"><ele>157.0</ele><time>2026-03-28T12:12:57Z</time></trkpt><trkpt lat="45.51370598777617" lon="11.020993500470274"><ele>157.0</ele><time>2026-03-28T12:12:58Z</time></trkpt><trkpt lat="45.51370501346619" lon="11.021112896467098"><ele>157.0</ele><time>2026-03-28T12:12:59Z</time></trkpt><trkpt lat="45.51372919076292" lon="11.021247542198173"><ele>157.0</ele><time>2026-03-28T12:13:00Z</time></trkpt><trkpt lat="45.51373852821668" lon="11.021343760500322"><ele>157.0</ele><time>2026-03-28T12:13:01Z</time></trkpt><trkpt lat="45.51379557855396" lon="11.02139942359624"><ele>157.0</ele><time>2026-03-28T12:13:03Z</time></trkpt><trkpt lat="45.51387114262933" lon="11.021494572681931"><ele>157.0</ele><time>2026-03-28T12:13:07Z</time></trkpt><trkpt lat="45.5138730896043" lon="11.021606591668546"><ele>157.0</ele><time>2026-03-28T12:13:08.001Z</time></trkpt><trkpt lat="45.513887706915035" lon="11.021733124499686"><ele>156.79999999999998</ele><time>2026-03-28T12:13:09.001Z</time></trkpt><trkpt lat="45.51391321839059" lon="11.021871506406328"><ele>156.6</ele><time>2026-03-28T12:13:10.001Z</time></trkpt><trkpt lat="45.51394656223284" lon="11.022011694591368"><ele>156.39999999999998</ele><time>2026-03-28T12:13:11.001Z</time></trkpt><trkpt lat="45.51398447149158" lon="11.022170013881704"><ele>156.2</ele><time>2026-03-28T12:13:12.001Z</time></trkpt><trkpt lat="45.51401981460367" lon="11.022319155171491"><ele>156.0</ele><time>2026-03-28T12:13:13.001Z</time></trkpt><trkpt lat="45.51404949280817" lon="11.022470787970569"><ele>156.8</ele><time>2026-03-28T12:13:14.001Z</time></trkpt><trkpt lat="45.51406340997846" lon="11.022617221028433"><ele>157.6</ele><time>2026-03-28T12:13:15.001Z</time></trkpt><trkpt lat="45.514063285628445" lon="11.02275529831881"><ele>158.4</ele><time>2026-03-28T12:13:16.001Z</time></trkpt><trkpt lat="45.51405446327525" lon="11.022906163292848"><ele>159.2</ele><time>2026-03-28T12:13:17.001Z</time></trkpt><trkpt lat="45.51406448454343" lon="11.023051500317793"><ele>160.0</ele><time>2026-03-28T12:13:18.001Z</time></trkpt><trkpt lat="45.5140705884184" lon="11.023199560453717"><ele>160.83333333333334</ele><time>2026-03-28T12:13:19.001Z</time></trkpt><trkpt lat="45.514077162991285" lon="11.02334929637712"><ele>161.66666666666669</ele><time>2026-03-28T12:13:20.001Z</time></trkpt><trkpt lat="45.514088500588684" lon="11.023468597778466"><ele>162.5</ele><time>2026-03-28T12:13:21.001Z</time></trkpt><trkpt lat="45.514103204135594" lon="11.02359980129235"><ele>163.33333333333334</ele><time>2026-03-28T12:13:22.001Z</time></trkpt><trkpt lat="45.51410600064746" lon="11.023733058010942"><ele>164.16666666666666</ele><time>2026-03-28T12:13:24.001Z</time></trkpt><trkpt lat="45.514094097107225" lon="11.023827337281414"><ele>165.0</ele><time>2026-03-28T12:13:27.001Z</time></trkpt><trkpt lat="45.51401262478365" lon="11.023797874320655"><ele>165.0</ele><time>2026-03-28T12:13:30.001Z</time></trkpt><trkpt lat="45.513886556318404" lon="11.023800241731367"><ele>165.0</ele><time>2026-03-28T12:13:32.001Z</time></trkpt><trkpt lat="45.51381654438494" lon="11.023798904879825"><ele>165.0</ele><time>2026-03-28T12:13:33.001Z</time></trkpt><trkpt lat="45.513743673139714" lon="11.023798621464653"><ele>165.0</ele><time>2026-03-28T12:13:34.001Z</time></trkpt><trkpt lat="45.5136615794765" lon="11.023812741752476"><ele>165.0</ele><time>2026-03-28T12:13:35.001Z</time></trkpt><trkpt lat="45.51357891433019" lon="11.023843562393175"><ele>165.0</ele><time>2026-03-28T12:13:36.001Z</time></trkpt><trkpt lat="45.513480584494616" lon="11.02388255507311"><ele>163.25</ele><time>2026-03-28T12:13:37.001Z</time></trkpt><trkpt lat="45.51338305120018" lon="11.023935720102513"><ele>161.5</ele><time>2026-03-28T12:13:38.001Z</time></trkpt><trkpt lat="45.51328480329114" lon="11.023997294992661"><ele>159.75</ele><time>2026-03-28T12:13:39.001Z</time></trkpt><trkpt lat="45.51317569977815" lon="11.02406035934386"><ele>158.0</ele><time>2026-03-28T12:13:40.001Z</time></trkpt><trkpt lat="45.51306215019133" lon="11.02412985631417"><ele>158.0</ele><time>2026-03-28T12:13:41.001Z</time></trkpt><trkpt lat="45.512969199908895" lon="11.024193562683996"><ele>158.0</ele><time>2026-03-28T12:13:42.001Z</time></trkpt><trkpt lat="45.512891130841204" lon="11.024247890417671"><ele>158.0</ele><time>2026-03-28T12:13:43.001Z</time></trkpt><trkpt lat="45.512817127511894" lon="11.024284518061611"><ele>158.0</ele><time>2026-03-28T12:13:44.001Z</time></trkpt><trkpt lat="45.51270704291073" lon="11.024261414616644"><ele>158.0</ele><time>2026-03-28T12:13:46.001Z</time></trkpt><trkpt lat="45.51258414123295" lon="11.024133410388579"><ele>158.0</ele><time>2026-03-28T12:13:48.001Z</time></trkpt><trkpt lat="45.51251496080956" lon="11.024027153563964"><ele>158.0</ele><time>2026-03-28T12:13:49.001Z</time></trkpt><trkpt lat="45.512444601678716" lon="11.023953864550984"><ele>158.0</ele><time>2026-03-28T12:13:50.001Z</time></trkpt><trkpt lat="45.51234633905673" lon="11.02389209853938"><ele>158.0</ele><time>2026-03-28T12:13:51.001Z</time></trkpt><trkpt lat="45.512232212285376" lon="11.023857194194548"><ele>158.0</ele><time>2026-03-28T12:13:52.002Z</time></trkpt><trkpt lat="45.51213214537531" lon="11.023844197582338"><ele>158.75</ele><time>2026-03-28T12:13:53.002Z</time></trkpt><trkpt lat="45.51203951551701" lon="11.023861261700139"><ele>159.5</ele><time>2026-03-28T12:13:54.002Z</time></trkpt><trkpt lat="45.511927700383765" lon="11.023903139201337"><ele>160.25</ele><time>2026-03-28T12:13:55.002Z</time></trkpt><trkpt lat="45.51180338063188" lon="11.023940143442584"><ele>161.0</ele><time>2026-03-28T12:13:56.002Z</time></trkpt><trkpt lat="45.511681279958026" lon="11.023948486496492"><ele>161.0</ele><time>2026-03-28T12:13:57.002Z</time></trkpt><trkpt lat="45.51157568162309" lon="11.02392226350368"><ele>161.0</ele><time>2026-03-28T12:13:58.002Z</time></trkpt><trkpt lat="45.511498993438884" lon="11.023907464561782"><ele>161.0</ele><time>2026-03-28T12:13:59.002Z</time></trkpt><trkpt lat="45.511389717497096" lon="11.023948431832908"><ele>161.0</ele><time>2026-03-28T12:14:01.002Z</time></trkpt><trkpt lat="45.51133964160702" lon="11.024110472185807"><ele>161.0</ele><time>2026-03-28T12:14:03.002Z</time></trkpt><trkpt lat="45.51135872932329" lon="11.02428227969439"><ele>163.8</ele><time>2026-03-28T12:14:05.002Z</time></trkpt><trkpt lat="45.511385188458036" lon="11.024371407941683"><ele>166.60000000000002</ele><time>2026-03-28T12:14:06.002Z</time></trkpt><trkpt lat="45.51142583088007" lon="11.02448825599523"><ele>169.4</ele><time>2026-03-28T12:14:07.002Z</time></trkpt><trkpt lat="45.511470593709994" lon="11.024628852968712"><ele>172.2</ele><time>2026-03-28T12:14:08.002Z</time></trkpt><trkpt lat="45.51151943196352" lon="11.024740320532697"><ele>175.0</ele><time>2026-03-28T12:14:09.002Z</time></trkpt><trkpt lat="45.51158631833723" lon="11.024842305417925"><ele>175.0</ele><time>2026-03-28T12:14:10.002Z</time></trkpt><trkpt lat="45.51167186913232" lon="11.024921049041538"><ele>175.0</ele><time>2026-03-28T12:14:11.002Z</time></trkpt><trkpt lat="45.511764762385425" lon="11.02495623638304"><ele>175.0</ele><time>2026-03-28T12:14:12.002Z</time></trkpt><trkpt lat="45.511848237976494" lon="11.024963441734451"><ele>175.0</ele><time>2026-03-28T12:14:13.002Z</time></trkpt><trkpt lat="45.51193705432325" lon="11.024923091195415"><ele>175.0</ele><time>2026-03-28T12:14:14.002Z</time></trkpt><trkpt lat="45.51200470752558" lon="11.024892709606755"><ele>175.0</ele><time>2026-03-28T12:14:15.002Z</time></trkpt><trkpt lat="45.512119223156034" lon="11.024960780966472"><ele>178.0</ele><time>2026-03-28T12:14:17.002Z</time></trkpt><trkpt lat="45.51216314597432" lon="11.02506091764888"><ele>181.0</ele><time>2026-03-28T12:14:18.002Z</time></trkpt><trkpt lat="45.51221084608971" lon="11.025181382898003"><ele>184.0</ele><time>2026-03-28T12:14:19.002Z</time></trkpt><trkpt lat="45.51228203461217" lon="11.025241930297868"><ele>187.0</ele><time>2026-03-28T12:14:20.002Z</time></trkpt><trkpt lat="45.51238018879" lon="11.02538017166258"><ele>190.0</ele><time>2026-03-28T12:14:21.002Z</time></trkpt><trkpt lat="45.512450431327025" lon="11.025515316864462"><ele>190.0</ele><time>2026-03-28T12:14:22.002Z</time></trkpt><trkpt lat="45.51250781909461" lon="11.025665350042413"><ele>190.0</ele><time>2026-03-28T12:14:23.002Z</time></trkpt><trkpt lat="45.512553579813094" lon="11.025826166107217"><ele>190.0</ele><time>2026-03-28T12:14:24.002Z</time></trkpt><trkpt lat="45.51258615306134" lon="11.025980492452799"><ele>190.0</ele><time>2026-03-28T12:14:25.002Z</time></trkpt><trkpt lat="45.51260832287773" lon="11.026121522680612"><ele>192.2</ele><time>2026-03-28T12:14:26.002Z</time></trkpt><trkpt lat="45.51262753944655" lon="11.026267314092406"><ele>194.4</ele><time>2026-03-28T12:14:27.002Z</time></trkpt><trkpt lat="45.51264142745087" lon="11.026394493635598"><ele>196.60000000000002</ele><time>2026-03-28T12:14:28.002Z</time></trkpt><trkpt lat="45.51265634706319" lon="11.02654076673722"><ele>198.8</ele><time>2026-03-28T12:14:29.002Z</time></trkpt><trkpt lat="45.51264696200622" lon="11.026713991749636"><ele>201.0</ele><time>2026-03-28T12:14:30.002Z</time></trkpt><trkpt lat="45.51265807674187" lon="11.026883975432614"><ele>201.83333333333334</ele><time>2026-03-28T12:14:31.002Z</time></trkpt><trkpt lat="45.51266875798354" lon="11.027042862829123"><ele>202.66666666666669</ele><time>2026-03-28T12:14:32.002Z</time></trkpt><trkpt lat="45.51268298213218" lon="11.027142135139497"><ele>203.5</ele><time>2026-03-28T12:14:33Z</time></trkpt><trkpt lat="45.51269090028295" lon="11.027246709431305"><ele>204.33333333333334</ele><time>2026-03-28T12:14:34Z</time></trkpt><trkpt lat="45.51269627450637" lon="11.0273697756954"><ele>205.16666666666669</ele><time>2026-03-28T12:14:36Z</time></trkpt><trkpt lat="45.51259958884453" lon="11.02741141918782"><ele>206.0</ele><time>2026-03-28T12:14:39Z</time></trkpt><trkpt lat="45.51250400991292" lon="11.027347393217534"><ele>205.99999999999997</ele><time>2026-03-28T12:14:41Z</time></trkpt><trkpt lat="45.5124321523769" lon="11.027268459939638"><ele>206.0</ele><time>2026-03-28T12:14:43Z</time></trkpt><trkpt lat="45.51236939090783" lon="11.027284757957853"><ele>206.0</ele><time>2026-03-28T12:14:48Z</time></trkpt><trkpt lat="45.51235980802569" lon="11.02737453773105"><ele>206.0</ele><time>2026-03-28T12:14:49Z</time></trkpt><trkpt lat="45.51237818125614" lon="11.027465996141009"><ele>206.0</ele><time>2026-03-28T12:14:50Z</time></trkpt><trkpt lat="45.5122893699762" lon="11.027476913772047"><ele>205.99999999999997</ele><time>2026-03-28T12:14:53Z</time></trkpt><trkpt lat="45.51223674495181" lon="11.02742685002497"><ele>206.0</ele><time>2026-03-28T12:14:54Z</time></trkpt><trkpt lat="45.5121789843871" lon="11.027382533231195"><ele>205.99999999999997</ele><time>2026-03-28T12:14:55Z</time></trkpt><trkpt lat="45.512111621197896" lon="11.02734336529239"><ele>206.0</ele><time>2026-03-28T12:14:56Z</time></trkpt><trkpt lat="45.51204129623933" lon="11.027331573627023"><ele>206.0</ele><time>2026-03-28T12:14:57Z</time></trkpt><trkpt lat="45.511972428325876" lon="11.027341655491082"><ele>206.0</ele><time>2026-03-28T12:14:58Z</time></trkpt><trkpt lat="45.51190364141492" lon="11.027365196559373"><ele>206.0</ele><time>2026-03-28T12:14:59Z</time></trkpt><trkpt lat="45.511831732003614" lon="11.027392615081432"><ele>205.99999999999997</ele><time>2026-03-28T12:15:00Z</time></trkpt><trkpt lat="45.51175184793423" lon="11.027420886601107"><ele>206.0</ele><time>2026-03-28T12:15:01Z</time></trkpt><trkpt lat="45.51164462913722" lon="11.02743222871574"><ele>203.33333333333334</ele><time>2026-03-28T12:15:03Z</time></trkpt><trkpt lat="45.51161738127057" lon="11.027534789695144"><ele>200.66666666666669</ele><time>2026-03-28T12:15:12.001Z</time></trkpt><trkpt lat="45.51155116910363" lon="11.027508610190681"><ele>198.0</ele><time>2026-03-28T12:15:15.001Z</time></trkpt><trkpt lat="45.51156060105048" lon="11.027392290120371"><ele>195.33333333333334</ele><time>2026-03-28T12:15:17.001Z</time></trkpt><trkpt lat="45.51150669225863" lon="11.027446659872675"><ele>192.66666666666669</ele><time>2026-03-28T12:15:22.001Z</time></trkpt><trkpt lat="45.511517246295625" lon="11.027577017656766"><ele>190.0</ele><time>2026-03-28T12:15:25.001Z</time></trkpt><trkpt lat="45.51149163020916" lon="11.027685747959627"><ele>190.0</ele><time>2026-03-28T12:15:28.001Z</time></trkpt><trkpt lat="45.51151571910199" lon="11.027781793667645"><ele>190.0</ele><time>2026-03-28T12:15:31.001Z</time></trkpt><trkpt lat="45.51152669643883" lon="11.027874859634546"><ele>190.0</ele><time>2026-03-28T12:15:33.001Z</time></trkpt><trkpt lat="45.5115611936116" lon="11.027973602940623"><ele>190.0</ele><time>2026-03-28T12:15:36.001Z</time></trkpt><trkpt lat="45.51156218675522" lon="11.028067910924388"><ele>190.0</ele><time>2026-03-28T12:15:38.001Z</time></trkpt><trkpt lat="45.51157207536649" lon="11.028181914969641"><ele>190.0</ele><time>2026-03-28T12:15:40.001Z</time></trkpt><trkpt lat="45.51159527104264" lon="11.028295988750127"><ele>190.0</ele><time>2026-03-28T12:15:42.001Z</time></trkpt><trkpt lat="45.511610300254986" lon="11.028399224016498"><ele>190.83333333333334</ele><time>2026-03-28T12:15:44.001Z</time></trkpt><trkpt lat="45.511617087049935" lon="11.02852637987496"><ele>191.66666666666669</ele><time>2026-03-28T12:15:46.001Z</time></trkpt><trkpt lat="45.51161666707361" lon="11.028638087541664"><ele>192.5</ele><time>2026-03-28T12:15:48.001Z</time></trkpt><trkpt lat="45.51162573221391" lon="11.028743823665264"><ele>193.33333333333334</ele><time>2026-03-28T12:15:50.001Z</time></trkpt><trkpt lat="45.51162027909761" lon="11.028872111442434"><ele>194.16666666666666</ele><time>2026-03-28T12:15:52.001Z</time></trkpt><trkpt lat="45.51164022095799" lon="11.028997005412782"><ele>195.0</ele><time>2026-03-28T12:15:56.002Z</time></trkpt><trkpt lat="45.511650408200836" lon="11.029092485267785"><ele>196.42857142857142</ele><time>2026-03-28T12:15:58.002Z</time></trkpt><trkpt lat="45.51164571874248" lon="11.029188921645854"><ele>197.85714285714283</ele><time>2026-03-28T12:16:01.002Z</time></trkpt><trkpt lat="45.511627066927375" lon="11.029278902607366"><ele>199.28571428571428</ele><time>2026-03-28T12:16:12.002Z</time></trkpt><trkpt lat="45.51162915571033" lon="11.0293775562271"><ele>200.71428571428572</ele><time>2026-03-28T12:16:17.002Z</time></trkpt><trkpt lat="45.51162473333946" lon="11.029471403885037"><ele>202.14285714285714</ele><time>2026-03-28T12:16:22.002Z</time></trkpt><trkpt lat="45.511639276171316" lon="11.029578899501434"><ele>203.57142857142858</ele><time>2026-03-28T12:16:26.002Z</time></trkpt><trkpt lat="45.511644239086884" lon="11.029684502128488"><ele>205.0</ele><time>2026-03-28T12:16:46Z</time></trkpt><trkpt lat="45.5116745007597" lon="11.029803128939337"><ele>204.99999999999997</ele><time>2026-03-28T12:16:50Z</time></trkpt><trkpt lat="45.51164284202365" lon="11.02988381552259"><ele>205.0</ele><time>2026-03-28T12:16:54Z</time></trkpt><trkpt lat="45.51166233805817" lon="11.02998541285311"><ele>205.0</ele><time>2026-03-28T12:16:57Z</time></trkpt><trkpt lat="45.5116708322789" lon="11.030079723298273"><ele>205.0</ele><time>2026-03-28T12:17:00Z</time></trkpt><trkpt lat="45.51163535615214" lon="11.030209306804364"><ele>204.99999999999997</ele><time>2026-03-28T12:17:04Z</time></trkpt><trkpt lat="45.51164411386074" lon="11.030320669758174"><ele>205.0</ele><time>2026-03-28T12:17:47.001Z</time></trkpt><trkpt lat="45.51166747921746" lon="11.030449339992675"><ele>206.2857142857143</ele><time>2026-03-28T12:18:40.002Z</time></trkpt><trkpt lat="45.51164459803214" lon="11.030533135769872"><ele>207.57142857142856</ele><time>2026-03-28T12:18:52Z</time></trkpt><trkpt lat="45.51163616717337" lon="11.030625204053523"><ele>208.85714285714286</ele><time>2026-03-28T12:18:56Z</time></trkpt><trkpt lat="45.51164956248464" lon="11.030732410726939"><ele>210.14285714285717</ele><time>2026-03-28T12:31:59Z</time></trkpt><trkpt lat="45.51167299059425" lon="11.030827934757701"><ele>211.42857142857144</ele><time>2026-03-28T12:32:02Z</time></trkpt><trkpt lat="45.51169595821639" lon="11.030920460998939"><ele>212.71428571428572</ele><time>2026-03-28T12:32:04Z</time></trkpt><trkpt lat="45.51175376188211" lon="11.030998736468563"><ele>214.0</ele><time>2026-03-28T12:32:06Z</time></trkpt><trkpt lat="45.51178911674581" lon="11.031087559703932"><ele>215.00000000000003</ele><time>2026-03-28T12:32:10Z</time></trkpt><trkpt lat="45.51183406684289" lon="11.031151989943318"><ele>216.0</ele><time>2026-03-28T12:32:17Z</time></trkpt><trkpt lat="45.51186003611484" lon="11.031238327527193"><ele>217.0</ele><time>2026-03-28T12:32:20Z</time></trkpt><trkpt lat="45.51189567787682" lon="11.031348893635926"><ele>218.0</ele><time>2026-03-28T12:32:36.001Z</time></trkpt><trkpt lat="45.51189015731142" lon="11.031454249886623"><ele>219.0</ele><time>2026-03-28T12:32:41.001Z</time></trkpt><trkpt lat="45.511930098862976" lon="11.03153048598991"><ele>220.00000000000003</ele><time>2026-03-28T12:32:44.001Z</time></trkpt><trkpt lat="45.51193535175409" lon="11.031648135642218"><ele>221.0</ele><time>2026-03-28T12:32:47.001Z</time></trkpt><trkpt lat="45.511974685751284" lon="11.031741719732604"><ele>222.2857142857143</ele><time>2026-03-28T12:32:52.001Z</time></trkpt><trkpt lat="45.51198426622565" lon="11.031844225723892"><ele>223.57142857142856</ele><time>2026-03-28T12:32:58.001Z</time></trkpt><trkpt lat="45.512011312292934" lon="11.031941637163131"><ele>224.85714285714283</ele><time>2026-03-28T12:33:25.001Z</time></trkpt><trkpt lat="45.51205050523436" lon="11.032014140089474"><ele>226.14285714285714</ele><time>2026-03-28T12:33:35.999Z</time></trkpt><trkpt lat="45.51207620292462" lon="11.032097195796679"><ele>227.42857142857142</ele><time>2026-03-28T12:33:51Z</time></trkpt><trkpt lat="45.51210553640218" lon="11.0321788757262"><ele>228.7142857142857</ele><time>2026-03-28T12:34:21Z</time></trkpt><trkpt lat="45.512107057987976" lon="11.032288443971868"><ele>229.99999999999997</ele><time>2026-03-28T12:34:35Z</time></trkpt><trkpt lat="45.51216124602632" lon="11.03234151216604"><ele>230.50000000000003</ele><time>2026-03-28T12:35:17Z</time></trkpt><trkpt lat="45.5122470899802" lon="11.03239633327315"><ele>231.0</ele><time>2026-03-28T12:35:20Z</time></trkpt><trkpt lat="45.51228583731062" lon="11.032476999772435"><ele>231.5</ele><time>2026-03-28T12:35:23Z</time></trkpt><trkpt lat="45.5122911618601" lon="11.032581744047883"><ele>232.0</ele><time>2026-03-28T12:35:26.001Z</time></trkpt><trkpt lat="45.51228962324828" lon="11.032688814034875"><ele>232.50000000000003</ele><time>2026-03-28T12:35:28.001Z</time></trkpt><trkpt lat="45.512313212257006" lon="11.032810058061523"><ele>233.0</ele><time>2026-03-28T12:35:31.001Z</time></trkpt><trkpt lat="45.512314918636214" lon="11.032924215035052"><ele>234.00000000000003</ele><time>2026-03-28T12:35:33.998Z</time></trkpt><trkpt lat="45.512309367646495" lon="11.033027807434818"><ele>235.0</ele><time>2026-03-28T12:35:48.999Z</time></trkpt><trkpt lat="45.51238765565706" lon="11.033099241946935"><ele>236.0</ele><time>2026-03-28T12:35:51.999Z</time></trkpt><trkpt lat="45.51241532493361" lon="11.033185165877482"><ele>237.0</ele><time>2026-03-28T12:35:54.999Z</time></trkpt><trkpt lat="45.512468420446" lon="11.033261743057697"><ele>238.00000000000003</ele><time>2026-03-28T12:35:56.999Z</time></trkpt><trkpt lat="45.512513888862834" lon="11.033371736130746"><ele>239.0</ele><time>2026-03-28T12:35:58.999Z</time></trkpt><trkpt lat="45.512524608792475" lon="11.03348857579463"><ele>240.50000000000003</ele><time>2026-03-28T12:36:00.999Z</time></trkpt><trkpt lat="45.51249489045656" lon="11.033577784854868"><ele>242.0</ele><time>2026-03-28T12:36:02.999Z</time></trkpt><trkpt lat="45.51249115406326" lon="11.033692472059098"><ele>243.5</ele><time>2026-03-28T12:36:06.999Z</time></trkpt><trkpt lat="45.512506380965895" lon="11.033800003000106"><ele>245.0</ele><time>2026-03-28T12:36:08.999Z</time></trkpt><trkpt lat="45.51247251949232" lon="11.033906582925033"><ele>246.50000000000003</ele><time>2026-03-28T12:36:29Z</time></trkpt><trkpt lat="45.51244105679383" lon="11.034069631758488"><ele>248.0</ele><time>2026-03-28T12:36:32Z</time></trkpt><trkpt lat="45.5124184421808" lon="11.03420944070403"><ele>249.71428571428572</ele><time>2026-03-28T12:36:34Z</time></trkpt><trkpt lat="45.512438642806806" lon="11.034305406952205"><ele>251.42857142857144</ele><time>2026-03-28T12:36:36Z</time></trkpt><trkpt lat="45.51243046949265" lon="11.034415285561373"><ele>253.14285714285717</ele><time>2026-03-28T12:36:38Z</time></trkpt><trkpt lat="45.51248940684168" lon="11.034484920061042"><ele>254.8571428571429</ele><time>2026-03-28T12:36:43Z</time></trkpt><trkpt lat="45.51255089018161" lon="11.034439941170447"><ele>256.57142857142856</ele><time>2026-03-28T12:36:45Z</time></trkpt><trkpt lat="45.5125647829209" lon="11.034542583113632"><ele>258.28571428571433</ele><time>2026-03-28T12:36:48Z</time></trkpt><trkpt lat="45.51258943657636" lon="11.03463018789842"><ele>260.0</ele><time>2026-03-28T12:36:52Z</time></trkpt><trkpt lat="45.51264008783793" lon="11.034542835224357"><ele>260.0</ele><time>2026-03-28T12:36:56Z</time></trkpt><trkpt lat="45.51271316504005" lon="11.034468491498588"><ele>260.0</ele><time>2026-03-28T12:36:59Z</time></trkpt><trkpt lat="45.51284378436926" lon="11.034335826979042"><ele>260.0</ele><time>2026-03-28T12:37:01Z</time></trkpt><trkpt lat="45.51291636514052" lon="11.034232918705587"><ele>260.0</ele><time>2026-03-28T12:37:02Z</time></trkpt><trkpt lat="45.51298464340613" lon="11.034170542237755"><ele>260.0</ele><time>2026-03-28T12:37:03Z</time></trkpt><trkpt lat="45.51303600549887" lon="11.034115752435541"><ele>260.8</ele><time>2026-03-28T12:37:04Z</time></trkpt><trkpt lat="45.51316378500544" lon="11.034065875550391"><ele>261.6</ele><time>2026-03-28T12:37:06Z</time></trkpt><trkpt lat="45.513253943553586" lon="11.034109426677464"><ele>262.4</ele><time>2026-03-28T12:37:08Z</time></trkpt><trkpt lat="45.51326660331913" lon="11.034260748086522"><ele>263.2</ele><time>2026-03-28T12:37:10Z</time></trkpt><trkpt lat="45.51327159947486" lon="11.03436116300576"><ele>264.0</ele><time>2026-03-28T12:37:11Z</time></trkpt><trkpt lat="45.51333387091409" lon="11.034433556606775"><ele>265.3333333333333</ele><time>2026-03-28T12:37:15Z</time></trkpt><trkpt lat="45.5132761534584" lon="11.034514813507375"><ele>266.6666666666667</ele><time>2026-03-28T12:37:17Z</time></trkpt><trkpt lat="45.513192893064655" lon="11.034508890330521"><ele>268.0</ele><time>2026-03-28T12:37:19.001Z</time></trkpt><trkpt lat="45.51309233441805" lon="11.034590367454099"><ele>269.33333333333337</ele><time>2026-03-28T12:37:21.001Z</time></trkpt><trkpt lat="45.513031324258215" lon="11.0346441594152"><ele>270.6666666666667</ele><time>2026-03-28T12:37:22.001Z</time></trkpt><trkpt lat="45.51297746778694" lon="11.034693638576952"><ele>272.0</ele><time>2026-03-28T12:37:23.001Z</time></trkpt><trkpt lat="45.51292541059592" lon="11.034748330812128"><ele>272.4</ele><time>2026-03-28T12:37:24.001Z</time></trkpt><trkpt lat="45.512868859902596" lon="11.034813991415888"><ele>272.79999999999995</ele><time>2026-03-28T12:37:25.001Z</time></trkpt><trkpt lat="45.51281109986034" lon="11.034889385760978"><ele>273.2</ele><time>2026-03-28T12:37:26.001Z</time></trkpt><trkpt lat="45.51273093285495" lon="11.034997209351298"><ele>273.59999999999997</ele><time>2026-03-28T12:37:27.001Z</time></trkpt><trkpt lat="45.512647615409676" lon="11.035112025799119"><ele>274.0</ele><time>2026-03-28T12:37:28.001Z</time></trkpt><trkpt lat="45.51255159822691" lon="11.03523764404381"><ele>274.0</ele><time>2026-03-28T12:37:29.001Z</time></trkpt><trkpt lat="45.51247069882344" lon="11.035335714096908"><ele>274.0</ele><time>2026-03-28T12:37:30.001Z</time></trkpt><trkpt lat="45.512399512555454" lon="11.035428034377494"><ele>274.0</ele><time>2026-03-28T12:37:31.001Z</time></trkpt><trkpt lat="45.51231359382248" lon="11.03553519691079"><ele>274.0</ele><time>2026-03-28T12:37:32.001Z</time></trkpt><trkpt lat="45.51222889711604" lon="11.035656721096712"><ele>274.0</ele><time>2026-03-28T12:37:33.001Z</time></trkpt><trkpt lat="45.51214677578522" lon="11.035801920656374"><ele>274.59999999999997</ele><time>2026-03-28T12:37:34.001Z</time></trkpt><trkpt lat="45.51206814381742" lon="11.035945050374224"><ele>275.2</ele><time>2026-03-28T12:37:35.001Z</time></trkpt><trkpt lat="45.51200304755107" lon="11.036062932952946"><ele>275.79999999999995</ele><time>2026-03-28T12:37:36.001Z</time></trkpt><trkpt lat="45.51193977436101" lon="11.036173396709342"><ele>276.4</ele><time>2026-03-28T12:37:37.001Z</time></trkpt><trkpt lat="45.511881562874194" lon="11.036274264126154"><ele>277.0</ele><time>2026-03-28T12:37:38.001Z</time></trkpt><trkpt lat="45.51183972513765" lon="11.036342358334089"><ele>277.0</ele><time>2026-03-28T12:37:38.998Z</time></trkpt><trkpt lat="45.51181985515118" lon="11.036504474463085"><ele>277.0</ele><time>2026-03-28T12:37:40.998Z</time></trkpt><trkpt lat="45.511852745316666" lon="11.036594457870773"><ele>277.0</ele><time>2026-03-28T12:37:41.998Z</time></trkpt><trkpt lat="45.51190943860624" lon="11.036687353141494"><ele>277.0</ele><time>2026-03-28T12:37:42.998Z</time></trkpt><trkpt lat="45.51198693355382" lon="11.036826578166746"><ele>277.0</ele><time>2026-03-28T12:37:43.998Z</time></trkpt><trkpt lat="45.51204576964739" lon="11.036988320441065"><ele>279.0</ele><time>2026-03-28T12:37:45.998Z</time></trkpt><trkpt lat="45.512046082914694" lon="11.03714925698537"><ele>281.0</ele><time>2026-03-28T12:37:47.998Z</time></trkpt><trkpt lat="45.51203923973818" lon="11.037253346097716"><ele>283.0</ele><time>2026-03-28T12:37:49.998Z</time></trkpt><trkpt lat="45.51206396570476" lon="11.03737672759701"><ele>285.0</ele><time>2026-03-28T12:37:51.998Z</time></trkpt><trkpt lat="45.51206288941758" lon="11.037566508632164"><ele>287.0</ele><time>2026-03-28T12:37:53.998Z</time></trkpt><trkpt lat="45.51206538076002" lon="11.037693811172808"><ele>288.0</ele><time>2026-03-28T12:37:54.998Z</time></trkpt><trkpt lat="45.51207240699976" lon="11.037830412000888"><ele>289.0</ele><time>2026-03-28T12:37:55.998Z</time></trkpt><trkpt lat="45.51207612815957" lon="11.037978757023561"><ele>290.0</ele><time>2026-03-28T12:37:56.999Z</time></trkpt><trkpt lat="45.51207430024036" lon="11.038144800249375"><ele>291.0</ele><time>2026-03-28T12:37:57.999Z</time></trkpt><trkpt lat="45.512065175203574" lon="11.03831547290171"><ele>292.0</ele><time>2026-03-28T12:37:58.999Z</time></trkpt><trkpt lat="45.51203767561675" lon="11.038475434312366"><ele>294.0</ele><time>2026-03-28T12:37:59.999Z</time></trkpt><trkpt lat="45.51199535569418" lon="11.038610379694298"><ele>296.0</ele><time>2026-03-28T12:38:00.999Z</time></trkpt><trkpt lat="45.51192797520828" lon="11.038743571354182"><ele>298.0</ele><time>2026-03-28T12:38:01.999Z</time></trkpt><trkpt lat="45.511855370352116" lon="11.038878765018643"><ele>300.0</ele><time>2026-03-28T12:38:02.999Z</time></trkpt><trkpt lat="45.51178624747619" lon="11.03901836792138"><ele>301.0</ele><time>2026-03-28T12:38:03.999Z</time></trkpt><trkpt lat="45.511720907376734" lon="11.039183140400237"><ele>302.0</ele><time>2026-03-28T12:38:04.999Z</time></trkpt><trkpt lat="45.51166797508662" lon="11.03936280524947"><ele>303.0</ele><time>2026-03-28T12:38:05.999Z</time></trkpt><trkpt lat="45.511627756522316" lon="11.039547623794608"><ele>304.0</ele><time>2026-03-28T12:38:06.999Z</time></trkpt><trkpt lat="45.511598049966025" lon="11.03972656139368"><ele>304.0</ele><time>2026-03-28T12:38:07.999Z</time></trkpt><trkpt lat="45.511548241500584" lon="11.039903456878378"><ele>304.0</ele><time>2026-03-28T12:38:08.999Z</time></trkpt><trkpt lat="45.51151711195514" lon="11.040083362498407"><ele>304.0</ele><time>2026-03-28T12:38:09.999Z</time></trkpt><trkpt lat="45.511488419812885" lon="11.040267020676303"><ele>304.0</ele><time>2026-03-28T12:38:10.999Z</time></trkpt><trkpt lat="45.51146342766224" lon="11.040423766983178"><ele>305.4</ele><time>2026-03-28T12:38:11.999Z</time></trkpt><trkpt lat="45.51142966063814" lon="11.040573081008576"><ele>306.79999999999995</ele><time>2026-03-28T12:38:12.999Z</time></trkpt><trkpt lat="45.51138801003125" lon="11.040704381512848"><ele>308.20000000000005</ele><time>2026-03-28T12:38:13.999Z</time></trkpt><trkpt lat="45.511361353293964" lon="11.040823792777042"><ele>309.6</ele><time>2026-03-28T12:38:14.999Z</time></trkpt><trkpt lat="45.511305449110736" lon="11.040909347227888"><ele>311.0</ele><time>2026-03-28T12:38:15.999Z</time></trkpt><trkpt lat="45.511230627452555" lon="11.04096098182148"><ele>313.8</ele><time>2026-03-28T12:38:16.999Z</time></trkpt><trkpt lat="45.51113058381035" lon="11.040990461670384"><ele>316.6</ele><time>2026-03-28T12:38:19Z</time></trkpt><trkpt lat="45.51105711410321" lon="11.041030584477255"><ele>319.4</ele><time>2026-03-28T12:38:21Z</time></trkpt><trkpt lat="45.5109718315994" lon="11.041068521640566"><ele>322.2</ele><time>2026-03-28T12:38:23Z</time></trkpt><trkpt lat="45.510890123591196" lon="11.041123531752165"><ele>325.0</ele><time>2026-03-28T12:38:25Z</time></trkpt><trkpt lat="45.510767799831186" lon="11.041149525018593"><ele>325.0</ele><time>2026-03-28T12:38:29Z</time></trkpt><trkpt lat="45.510704169293" lon="11.041132173648002"><ele>325.0</ele><time>2026-03-28T12:38:30Z</time></trkpt><trkpt lat="45.510599914918686" lon="11.041119201717835"><ele>325.0</ele><time>2026-03-28T12:38:31Z</time></trkpt><trkpt lat="45.5105235477692" lon="11.041114750948964"><ele>325.0</ele><time>2026-03-28T12:38:32Z</time></trkpt><trkpt lat="45.51043908790133" lon="11.041110686984867"><ele>325.0</ele><time>2026-03-28T12:38:34Z</time></trkpt><trkpt lat="45.510318194192344" lon="11.041104869927057"><ele>324.6</ele><time>2026-03-28T12:38:36Z</time></trkpt><trkpt lat="45.510242218632385" lon="11.041101214197113"><ele>324.2</ele><time>2026-03-28T12:38:37Z</time></trkpt><trkpt lat="45.51015752904382" lon="11.041096659955667"><ele>323.79999999999995</ele><time>2026-03-28T12:38:38Z</time></trkpt><trkpt lat="45.510043156514115" lon="11.04108995981789"><ele>323.4</ele><time>2026-03-28T12:38:39Z</time></trkpt><trkpt lat="45.50992884578534" lon="11.041083263296455"><ele>323.0</ele><time>2026-03-28T12:38:40Z</time></trkpt><trkpt lat="45.50982661316972" lon="11.041077274334524"><ele>323.0</ele><time>2026-03-28T12:38:41Z</time></trkpt><trkpt lat="45.50974942775974" lon="11.041070194630697"><ele>323.0</ele><time>2026-03-28T12:38:42Z</time></trkpt><trkpt lat="45.5096532577504" lon="11.041058717886218"><ele>323.0</ele><time>2026-03-28T12:38:43Z</time></trkpt><trkpt lat="45.50955989288234" lon="11.041040144894271"><ele>323.0</ele><time>2026-03-28T12:38:44Z</time></trkpt><trkpt lat="45.50946806731246" lon="11.041017625295572"><ele>323.0</ele><time>2026-03-28T12:38:45Z</time></trkpt><trkpt lat="45.50937090557702" lon="11.040992395674749"><ele>323.6666666666667</ele><time>2026-03-28T12:38:46Z</time></trkpt><trkpt lat="45.50929358668423" lon="11.040971393044787"><ele>324.33333333333337</ele><time>2026-03-28T12:38:47Z</time></trkpt><trkpt lat="45.50921164167267" lon="11.040947646002374"><ele>325.0</ele><time>2026-03-28T12:38:48Z</time></trkpt><trkpt lat="45.50912855319883" lon="11.040922960756868"><ele>325.6666666666667</ele><time>2026-03-28T12:38:49Z</time></trkpt><trkpt lat="45.50906176594005" lon="11.040899810005747"><ele>326.3333333333333</ele><time>2026-03-28T12:38:50Z</time></trkpt><trkpt lat="45.508957637418156" lon="11.040856045740332"><ele>327.0</ele><time>2026-03-28T12:38:51Z</time></trkpt><trkpt lat="45.50886002863428" lon="11.040816240778499"><ele>326.6</ele><time>2026-03-28T12:38:52Z</time></trkpt><trkpt lat="45.50877576581354" lon="11.040783483662443"><ele>326.20000000000005</ele><time>2026-03-28T12:38:53Z</time></trkpt><trkpt lat="45.50871413357518" lon="11.040759203580611"><ele>325.8</ele><time>2026-03-28T12:38:54Z</time></trkpt><trkpt lat="45.50863154604123" lon="11.040708576974422"><ele>325.4</ele><time>2026-03-28T12:38:55Z</time></trkpt><trkpt lat="45.50851551350139" lon="11.040600308451944"><ele>325.0</ele><time>2026-03-28T12:38:57Z</time></trkpt><trkpt lat="45.508451570985585" lon="11.04052878210965"><ele>325.0</ele><time>2026-03-28T12:38:58Z</time></trkpt><trkpt lat="45.508373727090266" lon="11.040407224140072"><ele>325.0</ele><time>2026-03-28T12:39:00Z</time></trkpt><trkpt lat="45.50831609946792" lon="11.040322807290806"><ele>325.0</ele><time>2026-03-28T12:39:01Z</time></trkpt><trkpt lat="45.50826471650346" lon="11.0402435912195"><ele>325.0</ele><time>2026-03-28T12:39:02.001Z</time></trkpt><trkpt lat="45.50821400733462" lon="11.040164449899203"><ele>325.0</ele><time>2026-03-28T12:39:03.001Z</time></trkpt><trkpt lat="45.50815293719954" lon="11.040069138316243"><ele>325.0</ele><time>2026-03-28T12:39:04.001Z</time></trkpt><trkpt lat="45.50808364829975" lon="11.0399632708056"><ele>324.4</ele><time>2026-03-28T12:39:05.001Z</time></trkpt><trkpt lat="45.50800219749908" lon="11.039849059909779"><ele>323.8</ele><time>2026-03-28T12:39:06.001Z</time></trkpt><trkpt lat="45.50791377594252" lon="11.039746991105233"><ele>323.20000000000005</ele><time>2026-03-28T12:39:07.001Z</time></trkpt><trkpt lat="45.50782938126486" lon="11.039663704172183"><ele>322.6</ele><time>2026-03-28T12:39:08.001Z</time></trkpt><trkpt lat="45.50774877423213" lon="11.039591579656319"><ele>322.0</ele><time>2026-03-28T12:39:10.001Z</time></trkpt><trkpt lat="45.507483485928866" lon="11.040077594939483"><ele>322.0</ele><time>2026-03-28T12:39:26.001Z</time></trkpt><trkpt lat="45.507352434487125" lon="11.04001176757706"><ele>322.0</ele><time>2026-03-28T12:39:33.001Z</time></trkpt><trkpt lat="45.50727282767479" lon="11.04001020700337"><ele>322.0</ele><time>2026-03-28T12:39:34.001Z</time></trkpt><trkpt lat="45.50721604753787" lon="11.039962835522642"><ele>322.0</ele><time>2026-03-28T12:39:43.001Z</time></trkpt><trkpt lat="45.50715011547334" lon="11.039908606019937"><ele>322.0</ele><time>2026-03-28T12:39:45.998Z</time></trkpt><trkpt lat="45.507019076743916" lon="11.039940327369997"><ele>321.8333333333333</ele><time>2026-03-28T12:39:47.998Z</time></trkpt><trkpt lat="45.50691878267096" lon="11.039970544756315"><ele>321.66666666666663</ele><time>2026-03-28T12:39:48.998Z</time></trkpt><trkpt lat="45.50682220697897" lon="11.039981580706721"><ele>321.5</ele><time>2026-03-28T12:39:49.998Z</time></trkpt><trkpt lat="45.50676208063618" lon="11.039943588121918"><ele>321.3333333333333</ele><time>2026-03-28T12:39:50.998Z</time></trkpt><trkpt lat="45.50667998244386" lon="11.039929906682454"><ele>321.1666666666667</ele><time>2026-03-28T12:39:51.998Z</time></trkpt><trkpt lat="45.50658081386131" lon="11.039912867895813"><ele>321.0</ele><time>2026-03-28T12:39:52.998Z</time></trkpt><trkpt lat="45.506502076422386" lon="11.0398845780327"><ele>321.0</ele><time>2026-03-28T12:39:53.998Z</time></trkpt><trkpt lat="45.50643339058332" lon="11.0398673554529"><ele>321.0</ele><time>2026-03-28T12:39:54.998Z</time></trkpt><trkpt lat="45.50634694396255" lon="11.039865657443219"><ele>321.0</ele><time>2026-03-28T12:39:55.998Z</time></trkpt><trkpt lat="45.50624783833323" lon="11.039870153212142"><ele>321.0</ele><time>2026-03-28T12:39:57.999Z</time></trkpt><trkpt lat="45.506206939121526" lon="11.039797916828249"><ele>321.0</ele><time>2026-03-28T12:39:59.999Z</time></trkpt><trkpt lat="45.506155666682545" lon="11.0397198509327"><ele>321.0</ele><time>2026-03-28T12:40:01.999Z</time></trkpt><trkpt lat="45.50605875494278" lon="11.039689275388229"><ele>321.4</ele><time>2026-03-28T12:40:03.999Z</time></trkpt><trkpt lat="45.50595267840326" lon="11.03973797898016"><ele>321.8</ele><time>2026-03-28T12:40:05.999Z</time></trkpt><trkpt lat="45.50581457491538" lon="11.03974333198559"><ele>322.2</ele><time>2026-03-28T12:40:07.999Z</time></trkpt><trkpt lat="45.50574989451594" lon="11.03972111954109"><ele>322.59999999999997</ele><time>2026-03-28T12:40:09.999Z</time></trkpt><trkpt lat="45.50569806157685" lon="11.03963734546899"><ele>323.0</ele><time>2026-03-28T12:40:12.999Z</time></trkpt><trkpt lat="45.50562886377841" lon="11.039588314361394"><ele>323.0</ele><time>2026-03-28T12:40:14.999Z</time></trkpt><trkpt lat="45.50569342462339" lon="11.039485493639809"><ele>323.0</ele><time>2026-03-28T12:40:18Z</time></trkpt><trkpt lat="45.50575835504174" lon="11.039458999449373"><ele>323.0</ele><time>2026-03-28T12:40:19Z</time></trkpt><trkpt lat="45.505771665157695" lon="11.039336052638319"><ele>323.0</ele><time>2026-03-28T12:40:22Z</time></trkpt><trkpt lat="45.5058097271032" lon="11.0392571971111"><ele>323.0</ele><time>2026-03-28T12:40:24Z</time></trkpt><trkpt lat="45.50578701572654" lon="11.039151508885777"><ele>323.0</ele><time>2026-03-28T12:40:26Z</time></trkpt><trkpt lat="45.505685358863325" lon="11.039127199977303"><ele>320.0</ele><time>2026-03-28T12:40:28Z</time></trkpt><trkpt lat="45.505620666814714" lon="11.039119881212244"><ele>317.0</ele><time>2026-03-28T12:40:29Z</time></trkpt><trkpt lat="45.505546129292064" lon="11.039101869938635"><ele>314.0</ele><time>2026-03-28T12:40:30Z</time></trkpt><trkpt lat="45.505465580747746" lon="11.039112624476113"><ele>311.0</ele><time>2026-03-28T12:40:31Z</time></trkpt><trkpt lat="45.505357956648076" lon="11.039175642744443"><ele>308.0</ele><time>2026-03-28T12:40:33Z</time></trkpt><trkpt lat="45.50529898773499" lon="11.039215112672757"><ele>305.0</ele><time>2026-03-28T12:40:34Z</time></trkpt><trkpt lat="45.50522221111935" lon="11.0392810579923"><ele>305.0</ele><time>2026-03-28T12:40:35Z</time></trkpt><trkpt lat="45.50512130812518" lon="11.039382320868683"><ele>305.0</ele><time>2026-03-28T12:40:36Z</time></trkpt><trkpt lat="45.5050135273461" lon="11.039474364761086"><ele>305.0</ele><time>2026-03-28T12:40:37Z</time></trkpt><trkpt lat="45.504896260530145" lon="11.039574072260113"><ele>305.0</ele><time>2026-03-28T12:40:38Z</time></trkpt><trkpt lat="45.50475603408061" lon="11.039681860532257"><ele>305.0</ele><time>2026-03-28T12:40:39Z</time></trkpt><trkpt lat="45.504635024077494" lon="11.039766225339932"><ele>305.0</ele><time>2026-03-28T12:40:40Z</time></trkpt><trkpt lat="45.50451215902632" lon="11.039833988624428"><ele>305.0</ele><time>2026-03-28T12:40:41Z</time></trkpt><trkpt lat="45.50439062652281" lon="11.03989938584452"><ele>305.0</ele><time>2026-03-28T12:40:42Z</time></trkpt><trkpt lat="45.504266206751915" lon="11.039952443970588"><ele>305.0</ele><time>2026-03-28T12:40:43Z</time></trkpt><trkpt lat="45.50413588829659" lon="11.040008782131725"><ele>305.0</ele><time>2026-03-28T12:40:44Z</time></trkpt><trkpt lat="45.504016749123146" lon="11.04008002569401"><ele>305.0</ele><time>2026-03-28T12:40:45Z</time></trkpt><trkpt lat="45.50392132872788" lon="11.040128728352826"><ele>305.0</ele><time>2026-03-28T12:40:46Z</time></trkpt><trkpt lat="45.50383427664726" lon="11.040188252726695"><ele>305.0</ele><time>2026-03-28T12:40:47Z</time></trkpt><trkpt lat="45.50375768362066" lon="11.040261915336334"><ele>305.0</ele><time>2026-03-28T12:40:48Z</time></trkpt><trkpt lat="45.50368104862689" lon="11.040331630472531"><ele>305.0</ele><time>2026-03-28T12:40:49Z</time></trkpt><trkpt lat="45.503615254441705" lon="11.040405361862813"><ele>305.0</ele><time>2026-03-28T12:40:50.001Z</time></trkpt><trkpt lat="45.503560776607095" lon="11.040465772304522"><ele>305.0</ele><time>2026-03-28T12:40:51.001Z</time></trkpt><trkpt lat="45.50347668658927" lon="11.040556694230027"><ele>305.0</ele><time>2026-03-28T12:40:53.001Z</time></trkpt><trkpt lat="45.50347568770573" lon="11.040704867581823"><ele>304.6666666666667</ele><time>2026-03-28T12:40:57.001Z</time></trkpt><trkpt lat="45.50348771327492" lon="11.040806979201799"><ele>304.33333333333337</ele><time>2026-03-28T12:40:58.001Z</time></trkpt><trkpt lat="45.50347272794827" lon="11.040906657926291"><ele>304.0</ele><time>2026-03-28T12:41:00.001Z</time></trkpt><trkpt lat="45.50339711508832" lon="11.040919735091439"><ele>303.6666666666667</ele><time>2026-03-28T12:41:04.001Z</time></trkpt><trkpt lat="45.503354447237385" lon="11.040846666224091"><ele>303.3333333333333</ele><time>2026-03-28T12:41:06.001Z</time></trkpt><trkpt lat="45.503318269964936" lon="11.040752043252498"><ele>303.0</ele><time>2026-03-28T12:41:07.001Z</time></trkpt><trkpt lat="45.50324037274894" lon="11.040689752158114"><ele>303.0</ele><time>2026-03-28T12:41:08.001Z</time></trkpt><trkpt lat="45.50316865644479" lon="11.040636299481001"><ele>303.0</ele><time>2026-03-28T12:41:09.001Z</time></trkpt><trkpt lat="45.50309478216573" lon="11.040595509097654"><ele>303.0</ele><time>2026-03-28T12:41:10.001Z</time></trkpt><trkpt lat="45.503022693454334" lon="11.040541648748668"><ele>303.0</ele><time>2026-03-28T12:41:11.001Z</time></trkpt><trkpt lat="45.502948292133304" lon="11.040512053499175"><ele>303.0</ele><time>2026-03-28T12:41:12.001Z</time></trkpt><trkpt lat="45.50287003706513" lon="11.040486976385889"><ele>303.0</ele><time>2026-03-28T12:41:13.001Z</time></trkpt><trkpt lat="45.50279700073505" lon="11.040492412945866"><ele>305.0</ele><time>2026-03-28T12:41:14.001Z</time></trkpt><trkpt lat="45.502724894072735" lon="11.04048956791892"><ele>307.0</ele><time>2026-03-28T12:41:15.001Z</time></trkpt><trkpt lat="45.502668813662304" lon="11.040443279253774"><ele>309.0</ele><time>2026-03-28T12:41:21.001Z</time></trkpt><trkpt lat="45.502556382426846" lon="11.040367647456486"><ele>311.0</ele><time>2026-03-28T12:41:24.001Z</time></trkpt><trkpt lat="45.502461393538304" lon="11.040269198285932"><ele>313.0</ele><time>2026-03-28T12:41:26.001Z</time></trkpt><trkpt lat="45.50237969336021" lon="11.040191589866113"><ele>313.0</ele><time>2026-03-28T12:41:28.001Z</time></trkpt><trkpt lat="45.502358305054415" lon="11.039996760682737"><ele>313.0</ele><time>2026-03-28T12:41:30.002Z</time></trkpt><trkpt lat="45.50236324513475" lon="11.039888678995254"><ele>313.0</ele><time>2026-03-28T12:41:31.002Z</time></trkpt><trkpt lat="45.50236104464585" lon="11.039728492590726"><ele>313.0</ele><time>2026-03-28T12:41:33.002Z</time></trkpt><trkpt lat="45.502334415121126" lon="11.039578008644995"><ele>313.0</ele><time>2026-03-28T12:41:35.002Z</time></trkpt><trkpt lat="45.502263857438784" lon="11.039438384844381"><ele>310.5</ele><time>2026-03-28T12:41:37.002Z</time></trkpt><trkpt lat="45.50219423693343" lon="11.039313153883858"><ele>308.0</ele><time>2026-03-28T12:41:39.002Z</time></trkpt><trkpt lat="45.5021353694619" lon="11.039218710051426"><ele>305.5</ele><time>2026-03-28T12:41:41.002Z</time></trkpt><trkpt lat="45.5020621885593" lon="11.03911758183042"><ele>303.0</ele><time>2026-03-28T12:41:43.002Z</time></trkpt><trkpt lat="45.502027137613375" lon="11.039042523321859"><ele>300.5</ele><time>2026-03-28T12:41:44.002Z</time></trkpt><trkpt lat="45.501996796328406" lon="11.038962812427627"><ele>298.0</ele><time>2026-03-28T12:41:45.002Z</time></trkpt><trkpt lat="45.50195766198751" lon="11.038797533900429"><ele>297.5</ele><time>2026-03-28T12:41:47.002Z</time></trkpt><trkpt lat="45.501921449463325" lon="11.038696114823223"><ele>297.0</ele><time>2026-03-28T12:41:49.002Z</time></trkpt><trkpt lat="45.501828134316554" lon="11.038687028732722"><ele>296.5</ele><time>2026-03-28T12:42:24Z</time></trkpt><trkpt lat="45.50177000653802" lon="11.038746636328028"><ele>296.0</ele><time>2026-03-28T12:42:26Z</time></trkpt><trkpt lat="45.501714921311006" lon="11.038874378313785"><ele>295.5</ele><time>2026-03-28T12:42:28Z</time></trkpt><trkpt lat="45.501679314145434" lon="11.0389919298288"><ele>295.0</ele><time>2026-03-28T12:42:29Z</time></trkpt><trkpt lat="45.501624428912955" lon="11.03913501194574"><ele>295.0</ele><time>2026-03-28T12:42:30Z</time></trkpt><trkpt lat="45.50156016238422" lon="11.039293895010111"><ele>295.0</ele><time>2026-03-28T12:42:31Z</time></trkpt><trkpt lat="45.501492758859555" lon="11.039446992272246"><ele>295.0</ele><time>2026-03-28T12:42:32Z</time></trkpt><trkpt lat="45.50143291325768" lon="11.0395836764904"><ele>295.0</ele><time>2026-03-28T12:42:33Z</time></trkpt><trkpt lat="45.50136763781063" lon="11.039755373915469"><ele>295.0</ele><time>2026-03-28T12:42:34Z</time></trkpt><trkpt lat="45.50130367699228" lon="11.039933906113466"><ele>295.0</ele><time>2026-03-28T12:42:35Z</time></trkpt><trkpt lat="45.5012409815093" lon="11.040086110403365"><ele>295.0</ele><time>2026-03-28T12:42:36Z</time></trkpt><trkpt lat="45.50118294023513" lon="11.04021542017953"><ele>295.0</ele><time>2026-03-28T12:42:37Z</time></trkpt><trkpt lat="45.501134169501256" lon="11.040329716281972"><ele>295.4</ele><time>2026-03-28T12:42:38Z</time></trkpt><trkpt lat="45.5011080565876" lon="11.040418154743476"><ele>295.8</ele><time>2026-03-28T12:42:39Z</time></trkpt><trkpt lat="45.501121471386625" lon="11.040598081983054"><ele>296.2</ele><time>2026-03-28T12:42:41Z</time></trkpt><trkpt lat="45.50105664204447" lon="11.040738544836532"><ele>296.6</ele><time>2026-03-28T12:42:43Z</time></trkpt><trkpt lat="45.500977992399406" lon="11.040814097810136"><ele>297.0</ele><time>2026-03-28T12:42:44Z</time></trkpt><trkpt lat="45.50086432442851" lon="11.040891829879904"><ele>297.0</ele><time>2026-03-28T12:42:45.001Z</time></trkpt><trkpt lat="45.50075007293523" lon="11.040990195444772"><ele>297.0</ele><time>2026-03-28T12:42:46.001Z</time></trkpt><trkpt lat="45.50064016864429" lon="11.041090302724232"><ele>297.0</ele><time>2026-03-28T12:42:47.001Z</time></trkpt><trkpt lat="45.50055917948625" lon="11.04116856301946"><ele>297.0</ele><time>2026-03-28T12:42:48.001Z</time></trkpt><trkpt lat="45.50049730223154" lon="11.041265955124484"><ele>297.0</ele><time>2026-03-28T12:42:49.001Z</time></trkpt><trkpt lat="45.50043103500031" lon="11.041375568491478"><ele>297.0</ele><time>2026-03-28T12:42:50.001Z</time></trkpt><trkpt lat="45.50037282413005" lon="11.041480084438005"><ele>297.0</ele><time>2026-03-28T12:42:51.001Z</time></trkpt><trkpt lat="45.50032355637492" lon="11.041612778117415"><ele>297.0</ele><time>2026-03-28T12:42:52.001Z</time></trkpt><trkpt lat="45.50027852379269" lon="11.041778947601864"><ele>297.0</ele><time>2026-03-28T12:42:53.001Z</time></trkpt><trkpt lat="45.50024225132916" lon="11.041971355267055"><ele>296.25</ele><time>2026-03-28T12:42:54.001Z</time></trkpt><trkpt lat="45.50021187603055" lon="11.042158699832976"><ele>295.5</ele><time>2026-03-28T12:42:55.001Z</time></trkpt><trkpt lat="45.50018534892218" lon="11.042321561536221"><ele>294.75</ele><time>2026-03-28T12:42:56.001Z</time></trkpt><trkpt lat="45.50017027716061" lon="11.04249090786907"><ele>294.0</ele><time>2026-03-28T12:42:57.001Z</time></trkpt><trkpt lat="45.500173609925206" lon="11.042636627721786"><ele>294.0</ele><time>2026-03-28T12:42:58.001Z</time></trkpt><trkpt lat="45.50018052881335" lon="11.042770706225808"><ele>294.0</ele><time>2026-03-28T12:42:59.001Z</time></trkpt><trkpt lat="45.50020936498116" lon="11.042903058754016"><ele>294.0</ele><time>2026-03-28T12:43:00.001Z</time></trkpt><trkpt lat="45.50023379684803" lon="11.043047911851644"><ele>294.0</ele><time>2026-03-28T12:43:01.001Z</time></trkpt><trkpt lat="45.50022829360427" lon="11.043212674804943"><ele>294.0</ele><time>2026-03-28T12:43:02.001Z</time></trkpt><trkpt lat="45.50020726245404" lon="11.043412256079744"><ele>295.25</ele><time>2026-03-28T12:43:03.001Z</time></trkpt><trkpt lat="45.50018697943479" lon="11.04361755410357"><ele>296.5</ele><time>2026-03-28T12:43:04.001Z</time></trkpt><trkpt lat="45.50016377641729" lon="11.0438042937627"><ele>297.75</ele><time>2026-03-28T12:43:05.001Z</time></trkpt><trkpt lat="45.500131543408564" lon="11.043982373489644"><ele>299.0</ele><time>2026-03-28T12:43:06.001Z</time></trkpt><trkpt lat="45.50008733899629" lon="11.044149021479715"><ele>299.0</ele><time>2026-03-28T12:43:07.001Z</time></trkpt><trkpt lat="45.500034587723825" lon="11.044307589336892"><ele>299.0</ele><time>2026-03-28T12:43:08.001Z</time></trkpt><trkpt lat="45.499985969408996" lon="11.044458844894082"><ele>299.0</ele><time>2026-03-28T12:43:09.001Z</time></trkpt><trkpt lat="45.499943065517385" lon="11.044604621194049"><ele>299.0</ele><time>2026-03-28T12:43:10.001Z</time></trkpt><trkpt lat="45.499909492876675" lon="11.044748158923332"><ele>299.0</ele><time>2026-03-28T12:43:11.001Z</time></trkpt><trkpt lat="45.49988470070196" lon="11.04488821174773"><ele>299.0</ele><time>2026-03-28T12:43:12.001Z</time></trkpt><trkpt lat="45.49987493850425" lon="11.045018288192924"><ele>299.0</ele><time>2026-03-28T12:43:13.001Z</time></trkpt><trkpt lat="45.499889082838465" lon="11.045148373043261"><ele>299.0</ele><time>2026-03-28T12:43:14.001Z</time></trkpt><trkpt lat="45.499920803060526" lon="11.045279190373844"><ele>299.0</ele><time>2026-03-28T12:43:15.001Z</time></trkpt><trkpt lat="45.4999613650261" lon="11.045431040345662"><ele>298.75</ele><time>2026-03-28T12:43:16.001Z</time></trkpt><trkpt lat="45.50000732080969" lon="11.045575712136715"><ele>298.5</ele><time>2026-03-28T12:43:17.001Z</time></trkpt><trkpt lat="45.50006805952942" lon="11.045705688861439"><ele>298.25</ele><time>2026-03-28T12:43:18.001Z</time></trkpt><trkpt lat="45.50014629984763" lon="11.045854666199645"><ele>298.0</ele><time>2026-03-28T12:43:19.002Z</time></trkpt><trkpt lat="45.50022533391577" lon="11.04599513396669"><ele>298.0</ele><time>2026-03-28T12:43:20.002Z</time></trkpt><trkpt lat="45.5002901308222" lon="11.046111832450842"><ele>298.0</ele><time>2026-03-28T12:43:21.002Z</time></trkpt><trkpt lat="45.50032789181978" lon="11.046211051493156"><ele>298.0</ele><time>2026-03-28T12:43:22.002Z</time></trkpt><trkpt lat="45.500288452487794" lon="11.046395055410914"><ele>298.0</ele><time>2026-03-28T12:43:24.002Z</time></trkpt><trkpt lat="45.50020193999796" lon="11.04650588837881"><ele>298.0</ele><time>2026-03-28T12:43:25.002Z</time></trkpt><trkpt lat="45.50009214689382" lon="11.046630982942837"><ele>297.5</ele><time>2026-03-28T12:43:26.002Z</time></trkpt><trkpt lat="45.499980678076334" lon="11.046754408392548"><ele>297.0</ele><time>2026-03-28T12:43:27.002Z</time></trkpt><trkpt lat="45.499875813914585" lon="11.046854798443684"><ele>296.5</ele><time>2026-03-28T12:43:28.002Z</time></trkpt><trkpt lat="45.499782600734044" lon="11.046962365371213"><ele>296.0</ele><time>2026-03-28T12:43:29.002Z</time></trkpt><trkpt lat="45.49969667681014" lon="11.047097206026795"><ele>296.0</ele><time>2026-03-28T12:43:30.002Z</time></trkpt><trkpt lat="45.49961365098209" lon="11.047253687856829"><ele>296.0</ele><time>2026-03-28T12:43:31.002Z</time></trkpt><trkpt lat="45.499548260696336" lon="11.04741090707372"><ele>296.0</ele><time>2026-03-28T12:43:32.002Z</time></trkpt><trkpt lat="45.49949316616825" lon="11.04754629918454"><ele>296.0</ele><time>2026-03-28T12:43:33.002Z</time></trkpt><trkpt lat="45.49944008671878" lon="11.04764540267556"><ele>298.6</ele><time>2026-03-28T12:43:34.002Z</time></trkpt><trkpt lat="45.49937859871461" lon="11.04768539372626"><ele>301.20000000000005</ele><time>2026-03-28T12:43:35.002Z</time></trkpt><trkpt lat="45.49924090521951" lon="11.047639532825292"><ele>303.79999999999995</ele><time>2026-03-28T12:43:37.002Z</time></trkpt><trkpt lat="45.4991399655741" lon="11.04761668629489"><ele>306.4</ele><time>2026-03-28T12:43:38.002Z</time></trkpt><trkpt lat="45.49904518569618" lon="11.04761552802163"><ele>309.0</ele><time>2026-03-28T12:43:39.002Z</time></trkpt><trkpt lat="45.49895962361372" lon="11.047570181667055"><ele>309.0</ele><time>2026-03-28T12:43:40.002Z</time></trkpt><trkpt lat="45.49887607586353" lon="11.047494063300123"><ele>309.0</ele><time>2026-03-28T12:43:41.002Z</time></trkpt><trkpt lat="45.49880665729045" lon="11.047386251323598"><ele>309.0</ele><time>2026-03-28T12:43:42.002Z</time></trkpt><trkpt lat="45.49874351943458" lon="11.047324788350362"><ele>309.0</ele><time>2026-03-28T12:43:43.002Z</time></trkpt><trkpt lat="45.49867758645027" lon="11.04733146700493"><ele>309.0</ele><time>2026-03-28T12:43:44.002Z</time></trkpt><trkpt lat="45.498595875243666" lon="11.047346524337986"><ele>309.0</ele><time>2026-03-28T12:43:45.002Z</time></trkpt><trkpt lat="45.498514342017174" lon="11.047349627520965"><ele>309.1666666666667</ele><time>2026-03-28T12:43:46.002Z</time></trkpt><trkpt lat="45.4984063074614" lon="11.047356824297784"><ele>309.3333333333333</ele><time>2026-03-28T12:43:47.002Z</time></trkpt><trkpt lat="45.49834218082128" lon="11.04736901262939"><ele>309.5</ele><time>2026-03-28T12:43:48.002Z</time></trkpt><trkpt lat="45.498262098304885" lon="11.04735058946539"><ele>309.66666666666663</ele><time>2026-03-28T12:43:50.002Z</time></trkpt><trkpt lat="45.49817766447189" lon="11.047332317791602"><ele>309.8333333333333</ele><time>2026-03-28T12:43:51.002Z</time></trkpt><trkpt lat="45.49810643673126" lon="11.04732388075307"><ele>310.0</ele><time>2026-03-28T12:43:52.002Z</time></trkpt><trkpt lat="45.497998130544964" lon="11.047301294977085"><ele>310.0</ele><time>2026-03-28T12:43:54.003Z</time></trkpt><trkpt lat="45.497934746768735" lon="11.047319012896107"><ele>310.0</ele><time>2026-03-28T12:43:55.003Z</time></trkpt><trkpt lat="45.497868426713126" lon="11.047353802336989"><ele>310.0</ele><time>2026-03-28T12:43:56.003Z</time></trkpt><trkpt lat="45.49777148348345" lon="11.047500141745342"><ele>310.0</ele><time>2026-03-28T12:43:58Z</time></trkpt><trkpt lat="45.49771120947785" lon="11.047586265477493"><ele>310.0</ele><time>2026-03-28T12:43:59Z</time></trkpt><trkpt lat="45.49761251182474" lon="11.047665532089255"><ele>313.4</ele><time>2026-03-28T12:44:01Z</time></trkpt><trkpt lat="45.497527069118824" lon="11.047689976783335"><ele>316.8</ele><time>2026-03-28T12:44:02Z</time></trkpt><trkpt lat="45.49742962819443" lon="11.04774017046504"><ele>320.20000000000005</ele><time>2026-03-28T12:44:03Z</time></trkpt><trkpt lat="45.49733522867274" lon="11.047804794923723"><ele>323.6</ele><time>2026-03-28T12:44:04Z</time></trkpt><trkpt lat="45.497262052481574" lon="11.04786161564304"><ele>327.0</ele><time>2026-03-28T12:44:05Z</time></trkpt><trkpt lat="45.49717293558453" lon="11.047883046654771"><ele>325.6</ele><time>2026-03-28T12:44:06Z</time></trkpt><trkpt lat="45.497067944756715" lon="11.047897834495563"><ele>324.20000000000005</ele><time>2026-03-28T12:44:07Z</time></trkpt><trkpt lat="45.49696219171215" lon="11.047918941913364"><ele>322.8</ele><time>2026-03-28T12:44:08Z</time></trkpt><trkpt lat="45.49686710206818" lon="11.047945400018305"><ele>321.4</ele><time>2026-03-28T12:44:09Z</time></trkpt><trkpt lat="45.49678150932153" lon="11.047960234236347"><ele>320.0</ele><time>2026-03-28T12:44:10Z</time></trkpt><trkpt lat="45.49670840121299" lon="11.047982478777001"><ele>320.0</ele><time>2026-03-28T12:44:11Z</time></trkpt><trkpt lat="45.496635600892056" lon="11.048017435970825"><ele>320.0</ele><time>2026-03-28T12:44:12Z</time></trkpt><trkpt lat="45.49655171790511" lon="11.04805182923931"><ele>320.0</ele><time>2026-03-28T12:44:13Z</time></trkpt><trkpt lat="45.496497348010216" lon="11.048101909604567"><ele>320.0</ele><time>2026-03-28T12:44:14Z</time></trkpt><trkpt lat="45.4964631229692" lon="11.048195887818034"><ele>320.0</ele><time>2026-03-28T12:44:15Z</time></trkpt><trkpt lat="45.496427080946475" lon="11.04832608463148"><ele>320.0</ele><time>2026-03-28T12:44:16Z</time></trkpt><trkpt lat="45.49636871431369" lon="11.048466854986472"><ele>321.5</ele><time>2026-03-28T12:44:17Z</time></trkpt><trkpt lat="45.49629656929571" lon="11.048599352321288"><ele>323.0</ele><time>2026-03-28T12:44:18Z</time></trkpt><trkpt lat="45.49622045757041" lon="11.048742839966089"><ele>324.5</ele><time>2026-03-28T12:44:19Z</time></trkpt><trkpt lat="45.496139286846585" lon="11.04888531592194"><ele>326.0</ele><time>2026-03-28T12:44:20Z</time></trkpt><trkpt lat="45.49606517933003" lon="11.049041973449528"><ele>328.0</ele><time>2026-03-28T12:44:21Z</time></trkpt><trkpt lat="45.49602059462131" lon="11.049166795854061"><ele>330.0</ele><time>2026-03-28T12:44:22Z</time></trkpt><trkpt lat="45.49598644064172" lon="11.0493062543761"><ele>332.0</ele><time>2026-03-28T12:44:23Z</time></trkpt><trkpt lat="45.4959646498096" lon="11.04939298478874"><ele>334.0</ele><time>2026-03-28T12:44:24Z</time></trkpt><trkpt lat="45.49588577706668" lon="11.049470407460978"><ele>336.0</ele><time>2026-03-28T12:44:36.001Z</time></trkpt><trkpt lat="45.49581104142917" lon="11.0494699863035"><ele>338.0</ele><time>2026-03-28T12:44:37.001Z</time></trkpt><trkpt lat="45.49571184406795" lon="11.049448194103412"><ele>338.0</ele><time>2026-03-28T12:44:38.001Z</time></trkpt><trkpt lat="45.49559205037439" lon="11.049422240449294"><ele>338.0</ele><time>2026-03-28T12:44:39.001Z</time></trkpt><trkpt lat="45.495454747623015" lon="11.049403853270595"><ele>338.0</ele><time>2026-03-28T12:44:40.001Z</time></trkpt><trkpt lat="45.495317133044125" lon="11.049386461499354"><ele>338.0</ele><time>2026-03-28T12:44:41.001Z</time></trkpt><trkpt lat="45.495158956372734" lon="11.049373290605113"><ele>337.33333333333337</ele><time>2026-03-28T12:44:42.001Z</time></trkpt><trkpt lat="45.49499697965092" lon="11.049384018299543"><ele>336.6666666666667</ele><time>2026-03-28T12:44:43.001Z</time></trkpt><trkpt lat="45.49484436904745" lon="11.049401345797074"><ele>336.0</ele><time>2026-03-28T12:44:44.001Z</time></trkpt><trkpt lat="45.4946860032104" lon="11.049429226331554"><ele>336.3333333333333</ele><time>2026-03-28T12:44:45.001Z</time></trkpt><trkpt lat="45.49452747154453" lon="11.049470912851511"><ele>336.66666666666663</ele><time>2026-03-28T12:44:46.001Z</time></trkpt><trkpt lat="45.49437312237898" lon="11.04951743227144"><ele>337.0</ele><time>2026-03-28T12:44:47.001Z</time></trkpt><trkpt lat="45.49421660725072" lon="11.049570299049368"><ele>337.0</ele><time>2026-03-28T12:44:48.001Z</time></trkpt><trkpt lat="45.49407162846188" lon="11.049612948557531"><ele>337.0</ele><time>2026-03-28T12:44:49.001Z</time></trkpt><trkpt lat="45.493948482137846" lon="11.04964498842382"><ele>337.0</ele><time>2026-03-28T12:44:50.001Z</time></trkpt><trkpt lat="45.49383215004841" lon="11.049649396863318"><ele>337.0</ele><time>2026-03-28T12:44:51.001Z</time></trkpt><trkpt lat="45.49369395071499" lon="11.049600664348702"><ele>337.3333333333333</ele><time>2026-03-28T12:44:52.001Z</time></trkpt><trkpt lat="45.493543087394194" lon="11.049533501966232"><ele>337.6666666666667</ele><time>2026-03-28T12:44:53.001Z</time></trkpt><trkpt lat="45.49338304520823" lon="11.049478298401239"><ele>338.0</ele><time>2026-03-28T12:44:54.001Z</time></trkpt><trkpt lat="45.49323778431848" lon="11.049428299977524"><ele>338.0</ele><time>2026-03-28T12:44:55.001Z</time></trkpt><trkpt lat="45.49310656764729" lon="11.049370051272241"><ele>338.0</ele><time>2026-03-28T12:44:56.001Z</time></trkpt><trkpt lat="45.49296630794056" lon="11.049291253498025"><ele>338.0</ele><time>2026-03-28T12:44:57.001Z</time></trkpt><trkpt lat="45.49282321822617" lon="11.049205746751435"><ele>338.0</ele><time>2026-03-28T12:44:58.001Z</time></trkpt><trkpt lat="45.49267841735003" lon="11.049118696161726"><ele>334.0</ele><time>2026-03-28T12:44:59.001Z</time></trkpt><trkpt lat="45.49252982054544" lon="11.049031834664557"><ele>330.0</ele><time>2026-03-28T12:45:00.001Z</time></trkpt><trkpt lat="45.492386151271546" lon="11.048931677694965"><ele>326.0</ele><time>2026-03-28T12:45:01.001Z</time></trkpt><trkpt lat="45.492239612716936" lon="11.048824625962848"><ele>326.0</ele><time>2026-03-28T12:45:02.001Z</time></trkpt><trkpt lat="45.49210225508478" lon="11.048720857060225"><ele>326.0</ele><time>2026-03-28T12:45:03.001Z</time></trkpt><trkpt lat="45.49198220636266" lon="11.048631480769824"><ele>326.0</ele><time>2026-03-28T12:45:04.001Z</time></trkpt><trkpt lat="45.491867363213665" lon="11.048545232720205"><ele>326.0</ele><time>2026-03-28T12:45:05.002Z</time></trkpt><trkpt lat="45.49175699218474" lon="11.04845260040316"><ele>325.6666666666667</ele><time>2026-03-28T12:45:06.002Z</time></trkpt><trkpt lat="45.49166336908147" lon="11.048365237840516"><ele>325.33333333333337</ele><time>2026-03-28T12:45:07.002Z</time></trkpt><trkpt lat="45.4915915352043" lon="11.048297132869374"><ele>325.0</ele><time>2026-03-28T12:45:08.002Z</time></trkpt><trkpt lat="45.491523391382124" lon="11.048258330443913"><ele>324.6666666666667</ele><time>2026-03-28T12:45:09.002Z</time></trkpt><trkpt lat="45.49145150935266" lon="11.048254527141173"><ele>324.3333333333333</ele><time>2026-03-28T12:45:10.002Z</time></trkpt><trkpt lat="45.49136435045807" lon="11.04827301144662"><ele>324.0</ele><time>2026-03-28T12:45:11.002Z</time></trkpt><trkpt lat="45.49129178641392" lon="11.048310536379596"><ele>330.6</ele><time>2026-03-28T12:45:12.002Z</time></trkpt><trkpt lat="45.49120300076164" lon="11.048360023247694"><ele>337.2</ele><time>2026-03-28T12:45:13.002Z</time></trkpt><trkpt lat="45.49111550313784" lon="11.0484131107685"><ele>343.8</ele><time>2026-03-28T12:45:14.002Z</time></trkpt><trkpt lat="45.491009852809576" lon="11.048453774493245"><ele>350.40000000000003</ele><time>2026-03-28T12:45:15.002Z</time></trkpt><trkpt lat="45.49090644049479" lon="11.04848160474638"><ele>357.0</ele><time>2026-03-28T12:45:16.002Z</time></trkpt><trkpt lat="45.49080038597022" lon="11.048519054244773"><ele>357.0</ele><time>2026-03-28T12:45:17.002Z</time></trkpt><trkpt lat="45.49069047463242" lon="11.04856926826509"><ele>357.0</ele><time>2026-03-28T12:45:18.002Z</time></trkpt><trkpt lat="45.490595899967644" lon="11.048593381414184"><ele>357.0</ele><time>2026-03-28T12:45:19.002Z</time></trkpt><trkpt lat="45.49049295293332" lon="11.048566988506902"><ele>357.0</ele><time>2026-03-28T12:45:21.002Z</time></trkpt><trkpt lat="45.49044738453004" lon="11.048501661821756"><ele>357.0</ele><time>2026-03-28T12:45:22.002Z</time></trkpt><trkpt lat="45.49040733589683" lon="11.048424409162768"><ele>357.0</ele><time>2026-03-28T12:45:23.002Z</time></trkpt><trkpt lat="45.49035168267315" lon="11.048343081226072"><ele>354.8</ele><time>2026-03-28T12:45:24.002Z</time></trkpt><trkpt lat="45.49027320447298" lon="11.048238289087248"><ele>352.6</ele><time>2026-03-28T12:45:25.002Z</time></trkpt><trkpt lat="45.49020570333435" lon="11.04812592655993"><ele>350.40000000000003</ele><time>2026-03-28T12:45:26.002Z</time></trkpt><trkpt lat="45.49014437452689" lon="11.04800962719706"><ele>348.20000000000005</ele><time>2026-03-28T12:45:27.002Z</time></trkpt><trkpt lat="45.49008564502541" lon="11.047903435911447"><ele>346.0</ele><time>2026-03-28T12:45:28.002Z</time></trkpt><trkpt lat="45.49001993903501" lon="11.047795869920916"><ele>346.0</ele><time>2026-03-28T12:45:29.002Z</time></trkpt><trkpt lat="45.48995716407393" lon="11.047698669719471"><ele>346.0</ele><time>2026-03-28T12:45:30.002Z</time></trkpt><trkpt lat="45.48989005901252" lon="11.047621601406236"><ele>346.0</ele><time>2026-03-28T12:45:31.002Z</time></trkpt><trkpt lat="45.48981837382695" lon="11.04754936685224"><ele>346.0</ele><time>2026-03-28T12:45:32.002Z</time></trkpt><trkpt lat="45.489715336759694" lon="11.047419593375743"><ele>346.0</ele><time>2026-03-28T12:45:34.002Z</time></trkpt><trkpt lat="45.48966457110175" lon="11.04735841313636"><ele>344.57142857142856</ele><time>2026-03-28T12:45:35.002Z</time></trkpt><trkpt lat="45.48960215001737" lon="11.04731395629466"><ele>343.14285714285717</ele><time>2026-03-28T12:45:36.002Z</time></trkpt><trkpt lat="45.489533625871" lon="11.047289688056114"><ele>341.7142857142857</ele><time>2026-03-28T12:45:37.002Z</time></trkpt><trkpt lat="45.48945368487635" lon="11.04726641420271"><ele>340.2857142857143</ele><time>2026-03-28T12:45:38.002Z</time></trkpt><trkpt lat="45.489386265312916" lon="11.047240707378084"><ele>338.8571428571429</ele><time>2026-03-28T12:45:39.003Z</time></trkpt><trkpt lat="45.489321830612354" lon="11.047199295555433"><ele>337.42857142857144</ele><time>2026-03-28T12:45:40.003Z</time></trkpt><trkpt lat="45.489256564203195" lon="11.047150621063833"><ele>336.0</ele><time>2026-03-28T12:45:41.003Z</time></trkpt><trkpt lat="45.489174014632724" lon="11.047089916888098"><ele>336.0</ele><time>2026-03-28T12:45:42.003Z</time></trkpt><trkpt lat="45.48908659440206" lon="11.047047116896229"><ele>336.0</ele><time>2026-03-28T12:45:43.003Z</time></trkpt><trkpt lat="45.489000140932035" lon="11.04702711252465"><ele>336.0</ele><time>2026-03-28T12:45:44.003Z</time></trkpt><trkpt lat="45.488879386627154" lon="11.046972561179349"><ele>336.0</ele><time>2026-03-28T12:45:46.003Z</time></trkpt><trkpt lat="45.488802031556105" lon="11.046913968004821"><ele>336.0</ele><time>2026-03-28T12:45:48.003Z</time></trkpt><trkpt lat="45.48873054726163" lon="11.046947326630109"><ele>335.20000000000005</ele><time>2026-03-28T12:45:50.003Z</time></trkpt><trkpt lat="45.48864423931699" lon="11.047077469893344"><ele>334.40000000000003</ele><time>2026-03-28T12:45:52.003Z</time></trkpt><trkpt lat="45.488518520997154" lon="11.04704709157857"><ele>333.6</ele><time>2026-03-28T12:45:54.003Z</time></trkpt><trkpt lat="45.48843998141734" lon="11.047016241082545"><ele>332.8</ele><time>2026-03-28T12:45:55.003Z</time></trkpt><trkpt lat="45.48836962012357" lon="11.04701760475723"><ele>332.0</ele><time>2026-03-28T12:45:56.003Z</time></trkpt><trkpt lat="45.488308853582616" lon="11.047071155309732"><ele>332.0</ele><time>2026-03-28T12:45:58.003Z</time></trkpt><trkpt lat="45.488255351346034" lon="11.047123094445626"><ele>332.0</ele><time>2026-03-28T12:46:00.003Z</time></trkpt><trkpt lat="45.48812567737623" lon="11.04709485096936"><ele>332.0</ele><time>2026-03-28T12:46:02.003Z</time></trkpt><trkpt lat="45.4880489505673" lon="11.04706699258392"><ele>332.0</ele><time>2026-03-28T12:46:03Z</time></trkpt><trkpt lat="45.48797377387496" lon="11.047036177158118"><ele>332.0</ele><time>2026-03-28T12:46:04Z</time></trkpt><trkpt lat="45.48790691364311" lon="11.047012303758397"><ele>332.0</ele><time>2026-03-28T12:46:05Z</time></trkpt><trkpt lat="45.48784479558064" lon="11.046978859515773"><ele>332.40000000000003</ele><time>2026-03-28T12:46:06Z</time></trkpt><trkpt lat="45.487780489464974" lon="11.046938468475444"><ele>332.8</ele><time>2026-03-28T12:46:07Z</time></trkpt><trkpt lat="45.48770920019039" lon="11.046895259997184"><ele>333.2</ele><time>2026-03-28T12:46:08Z</time></trkpt><trkpt lat="45.487629838671914" lon="11.04685577955351"><ele>333.6</ele><time>2026-03-28T12:46:09Z</time></trkpt><trkpt lat="45.48751830741371" lon="11.046924899259531"><ele>334.0</ele><time>2026-03-28T12:46:11Z</time></trkpt><trkpt lat="45.487448634371894" lon="11.047034730999313"><ele>334.0</ele><time>2026-03-28T12:46:12Z</time></trkpt><trkpt lat="45.48737024730968" lon="11.047133138344467"><ele>334.0</ele><time>2026-03-28T12:46:13Z</time></trkpt><trkpt lat="45.487283915527854" lon="11.04721680240104"><ele>334.0</ele><time>2026-03-28T12:46:14Z</time></trkpt><trkpt lat="45.487215522535955" lon="11.047304541952487"><ele>334.0</ele><time>2026-03-28T12:46:15Z</time></trkpt><trkpt lat="45.487160510153025" lon="11.047360737342439"><ele>334.0</ele><time>2026-03-28T12:46:16Z</time></trkpt><trkpt lat="45.487062765504895" lon="11.047372232213753"><ele>334.3333333333333</ele><time>2026-03-28T12:46:18Z</time></trkpt><trkpt lat="45.4870104714779" lon="11.04726491916353"><ele>334.66666666666663</ele><time>2026-03-28T12:46:20Z</time></trkpt><trkpt lat="45.48697900790891" lon="11.047169323941283"><ele>335.0</ele><time>2026-03-28T12:46:21Z</time></trkpt><trkpt lat="45.48693661999052" lon="11.047065051031707"><ele>335.3333333333333</ele><time>2026-03-28T12:46:22Z</time></trkpt><trkpt lat="45.48688944897074" lon="11.04697132795721"><ele>335.6666666666667</ele><time>2026-03-28T12:46:23Z</time></trkpt><trkpt lat="45.486852800372816" lon="11.04686868257978"><ele>336.0</ele><time>2026-03-28T12:46:24Z</time></trkpt><trkpt lat="45.48683323493595" lon="11.046779644399862"><ele>336.0</ele><time>2026-03-28T12:46:25Z</time></trkpt><trkpt lat="45.486834240240555" lon="11.046661449317922"><ele>336.0</ele><time>2026-03-28T12:46:26Z</time></trkpt><trkpt lat="45.48685265380886" lon="11.04653439305198"><ele>336.0</ele><time>2026-03-28T12:46:27Z</time></trkpt><trkpt lat="45.486857328615876" lon="11.046399521592061"><ele>336.0</ele><time>2026-03-28T12:46:28.001Z</time></trkpt><trkpt lat="45.48683906727779" lon="11.046271026400918"><ele>336.0</ele><time>2026-03-28T12:46:29.001Z</time></trkpt><trkpt lat="45.48684992012888" lon="11.046123902399675"><ele>334.1666666666667</ele><time>2026-03-28T12:46:31.001Z</time></trkpt><trkpt lat="45.486926343384624" lon="11.046037990880153"><ele>332.3333333333333</ele><time>2026-03-28T12:46:33.001Z</time></trkpt><trkpt lat="45.486989267587674" lon="11.046022760816806"><ele>330.5</ele><time>2026-03-28T12:46:34.001Z</time></trkpt><trkpt lat="45.48706740227396" lon="11.04601300655973"><ele>328.66666666666663</ele><time>2026-03-28T12:46:35.001Z</time></trkpt><trkpt lat="45.487163117300454" lon="11.046003854879785"><ele>326.8333333333333</ele><time>2026-03-28T12:46:36.001Z</time></trkpt><trkpt lat="45.48723986658744" lon="11.04601993437565"><ele>325.0</ele><time>2026-03-28T12:46:37.001Z</time></trkpt><trkpt lat="45.4873074785536" lon="11.046026692409455"><ele>325.0</ele><time>2026-03-28T12:46:44.001Z</time></trkpt><trkpt lat="45.48738902687106" lon="11.046077176935986"><ele>325.0</ele><time>2026-03-28T12:46:46.001Z</time></trkpt><trkpt lat="45.48745784719242" lon="11.046085967135602"><ele>325.0</ele><time>2026-03-28T12:46:47.001Z</time></trkpt><trkpt lat="45.48754419256466" lon="11.046111518274735"><ele>325.0</ele><time>2026-03-28T12:46:48.001Z</time></trkpt><trkpt lat="45.48762994092152" lon="11.04613785962987"><ele>325.0</ele><time>2026-03-28T12:46:49.001Z</time></trkpt><trkpt lat="45.48770366231421" lon="11.046163638721602"><ele>325.0</ele><time>2026-03-28T12:46:50.001Z</time></trkpt><trkpt lat="45.48777540074161" lon="11.046177474344058"><ele>325.0</ele><time>2026-03-28T12:46:51.001Z</time></trkpt><trkpt lat="45.487746715034916" lon="11.046077177758276"><ele>325.0</ele><time>2026-03-28T12:46:57.001Z</time></trkpt><trkpt lat="45.48766007835622" lon="11.046049704531688"><ele>325.0</ele><time>2026-03-28T12:46:58.001Z</time></trkpt><trkpt lat="45.48756700255246" lon="11.045992953322056"><ele>325.0</ele><time>2026-03-28T12:46:59.001Z</time></trkpt><trkpt lat="45.48747381817488" lon="11.045932115078308"><ele>325.0</ele><time>2026-03-28T12:47:00.001Z</time></trkpt><trkpt lat="45.487380552878214" lon="11.045873924713142"><ele>325.0</ele><time>2026-03-28T12:47:01.001Z</time></trkpt><trkpt lat="45.48728592982153" lon="11.045829192898168"><ele>325.0</ele><time>2026-03-28T12:47:02.001Z</time></trkpt><trkpt lat="45.487203207024066" lon="11.045777903061705"><ele>325.0</ele><time>2026-03-28T12:47:03.001Z</time></trkpt><trkpt lat="45.48713173926749" lon="11.045731926579764"><ele>325.0</ele><time>2026-03-28T12:47:04.002Z</time></trkpt><trkpt lat="45.48706779624898" lon="11.045706194368526"><ele>325.0</ele><time>2026-03-28T12:47:05.002Z</time></trkpt><trkpt lat="45.48694506338979" lon="11.045661361833835"><ele>320.66666666666663</ele><time>2026-03-28T12:47:07.002Z</time></trkpt><trkpt lat="45.486866523754706" lon="11.045619050565435"><ele>316.3333333333333</ele><time>2026-03-28T12:47:08.002Z</time></trkpt><trkpt lat="45.48679820961153" lon="11.045600344471605"><ele>312.0</ele><time>2026-03-28T12:47:09.002Z</time></trkpt><trkpt lat="45.48672133914725" lon="11.045630904949393"><ele>307.6666666666667</ele><time>2026-03-28T12:47:10.002Z</time></trkpt><trkpt lat="45.48662874622708" lon="11.04562554941902"><ele>303.33333333333337</ele><time>2026-03-28T12:47:11.002Z</time></trkpt><trkpt lat="45.48655504398719" lon="11.045638301140356"><ele>299.0</ele><time>2026-03-28T12:47:12.002Z</time></trkpt><trkpt lat="45.48646972530688" lon="11.045676416305533"><ele>299.0</ele><time>2026-03-28T12:47:13.002Z</time></trkpt><trkpt lat="45.486400253582715" lon="11.045729281123078"><ele>299.0</ele><time>2026-03-28T12:47:14.002Z</time></trkpt><trkpt lat="45.486318732803916" lon="11.045803756834507"><ele>299.0</ele><time>2026-03-28T12:47:15.002Z</time></trkpt><trkpt lat="45.48624485168997" lon="11.045873069754514"><ele>299.0</ele><time>2026-03-28T12:47:16.002Z</time></trkpt><trkpt lat="45.486165311971796" lon="11.045931467473695"><ele>299.0</ele><time>2026-03-28T12:47:17.002Z</time></trkpt><trkpt lat="45.48609598300603" lon="11.045994057341655"><ele>299.0</ele><time>2026-03-28T12:47:18.002Z</time></trkpt><trkpt lat="45.48603555695485" lon="11.0460463338087"><ele>298.8</ele><time>2026-03-28T12:47:19.002Z</time></trkpt><trkpt lat="45.48595197265741" lon="11.04612596041454"><ele>298.59999999999997</ele><time>2026-03-28T12:47:21.002Z</time></trkpt><trkpt lat="45.48589753173587" lon="11.046191512352063"><ele>298.4</ele><time>2026-03-28T12:47:23.002Z</time></trkpt><trkpt lat="45.485804672327475" lon="11.046279339442458"><ele>298.2</ele><time>2026-03-28T12:47:25.002Z</time></trkpt><trkpt lat="45.485716706216" lon="11.046355327830552"><ele>298.0</ele><time>2026-03-28T12:47:27.002Z</time></trkpt><trkpt lat="45.48558092451486" lon="11.046452096517594"><ele>298.0</ele><time>2026-03-28T12:47:29.002Z</time></trkpt><trkpt lat="45.485489792352276" lon="11.046518480510308"><ele>298.0</ele><time>2026-03-28T12:47:30.002Z</time></trkpt><trkpt lat="45.48540214097503" lon="11.046591803595788"><ele>298.0</ele><time>2026-03-28T12:47:31.002Z</time></trkpt><trkpt lat="45.48531173497982" lon="11.046650223256963"><ele>298.0</ele><time>2026-03-28T12:47:32.002Z</time></trkpt><trkpt lat="45.48522019013883" lon="11.046700522293367"><ele>298.0</ele><time>2026-03-28T12:47:33.002Z</time></trkpt><trkpt lat="45.485129689745335" lon="11.046754579072363"><ele>296.25</ele><time>2026-03-28T12:47:34.002Z</time></trkpt><trkpt lat="45.48503902195144" lon="11.04682485274972"><ele>294.5</ele><time>2026-03-28T12:47:35.002Z</time></trkpt><trkpt lat="45.48492737006852" lon="11.046896215707832"><ele>292.75</ele><time>2026-03-28T12:47:36.002Z</time></trkpt><trkpt lat="45.484818812071886" lon="11.046960607558995"><ele>291.0</ele><time>2026-03-28T12:47:37.002Z</time></trkpt><trkpt lat="45.48471844411799" lon="11.047039622035605"><ele>291.0</ele><time>2026-03-28T12:47:38.003Z</time></trkpt><trkpt lat="45.48463253004918" lon="11.04707375974444"><ele>291.0</ele><time>2026-03-28T12:47:39.003Z</time></trkpt><trkpt lat="45.48452135840259" lon="11.04709268008472"><ele>291.0</ele><time>2026-03-28T12:47:40.003Z</time></trkpt><trkpt lat="45.48441878377782" lon="11.04710884334689"><ele>291.0</ele><time>2026-03-28T12:47:41.003Z</time></trkpt><trkpt lat="45.4843217275006" lon="11.047106509862854"><ele>291.0</ele><time>2026-03-28T12:47:42.003Z</time></trkpt><trkpt lat="45.484213887720784" lon="11.047099010927438"><ele>288.0</ele><time>2026-03-28T12:47:43.003Z</time></trkpt><trkpt lat="45.48410945381026" lon="11.047078442289354"><ele>285.0</ele><time>2026-03-28T12:47:44.003Z</time></trkpt><trkpt lat="45.484009926797114" lon="11.047062594044423"><ele>282.0</ele><time>2026-03-28T12:47:45.003Z</time></trkpt><trkpt lat="45.48391039065356" lon="11.047068437086082"><ele>279.0</ele><time>2026-03-28T12:47:46.003Z</time></trkpt><trkpt lat="45.48383001580449" lon="11.047110066535138"><ele>276.0</ele><time>2026-03-28T12:47:47.003Z</time></trkpt><trkpt lat="45.48374068148275" lon="11.04715144479862"><ele>273.6</ele><time>2026-03-28T12:47:48.003Z</time></trkpt><trkpt lat="45.48366113954568" lon="11.047209099159828"><ele>271.20000000000005</ele><time>2026-03-28T12:47:49.003Z</time></trkpt><trkpt lat="45.4835640742013" lon="11.047279010037505"><ele>268.79999999999995</ele><time>2026-03-28T12:47:51.003Z</time></trkpt><trkpt lat="45.483462291458345" lon="11.047340463909732"><ele>266.4</ele><time>2026-03-28T12:47:56.003Z</time></trkpt><trkpt lat="45.483424143778514" lon="11.047429085066861"><ele>264.0</ele><time>2026-03-28T12:47:59.003Z</time></trkpt><trkpt lat="45.4833664510235" lon="11.047489115299275"><ele>268.1666666666667</ele><time>2026-03-28T12:48:02.003Z</time></trkpt><trkpt lat="45.48332678061769" lon="11.047602534465723"><ele>272.3333333333333</ele><time>2026-03-28T12:48:05.003Z</time></trkpt><trkpt lat="45.48329521205199" lon="11.047700689147957"><ele>276.5</ele><time>2026-03-28T12:48:07.003Z</time></trkpt><trkpt lat="45.48323579271443" lon="11.047780123809789"><ele>280.66666666666663</ele><time>2026-03-28T12:48:10.001Z</time></trkpt><trkpt lat="45.483181972245454" lon="11.04783650083372"><ele>284.8333333333333</ele><time>2026-03-28T12:48:12.001Z</time></trkpt><trkpt lat="45.48310748080927" lon="11.047878812180038"><ele>289.0</ele><time>2026-03-28T12:48:15.001Z</time></trkpt><trkpt lat="45.483047693106506" lon="11.047963072993701"><ele>289.0</ele><time>2026-03-28T12:48:18.001Z</time></trkpt><trkpt lat="45.482959275975226" lon="11.04802534990471"><ele>289.0</ele><time>2026-03-28T12:48:20.001Z</time></trkpt><trkpt lat="45.48287359675839" lon="11.04812244638019"><ele>289.0</ele><time>2026-03-28T12:48:22Z</time></trkpt><trkpt lat="45.482832060094715" lon="11.048223460885533"><ele>289.0</ele><time>2026-03-28T12:48:25.001Z</time></trkpt><trkpt lat="45.48280556233972" lon="11.048317816020019"><ele>289.0</ele><time>2026-03-28T12:48:28.001Z</time></trkpt><trkpt lat="45.482765176588074" lon="11.048406537701695"><ele>289.0</ele><time>2026-03-28T12:48:30.001Z</time></trkpt><trkpt lat="45.48267496733427" lon="11.048476639073485"><ele>287.8333333333333</ele><time>2026-03-28T12:48:33.001Z</time></trkpt><trkpt lat="45.48261480908757" lon="11.048562262808725"><ele>286.66666666666663</ele><time>2026-03-28T12:48:35.001Z</time></trkpt><trkpt lat="45.482552363554824" lon="11.048631228676856"><ele>285.5</ele><time>2026-03-28T12:48:37.001Z</time></trkpt><trkpt lat="45.48248417619009" lon="11.048693934428016"><ele>284.3333333333333</ele><time>2026-03-28T12:48:39.001Z</time></trkpt><trkpt lat="45.482414716415185" lon="11.048794005245082"><ele>283.1666666666667</ele><time>2026-03-28T12:48:41.001Z</time></trkpt><trkpt lat="45.48234261301272" lon="11.048897525629249"><ele>282.0</ele><time>2026-03-28T12:48:44.001Z</time></trkpt><trkpt lat="45.48224778148085" lon="11.049029217859761"><ele>282.0</ele><time>2026-03-28T12:48:46.001Z</time></trkpt><trkpt lat="45.48219561989636" lon="11.049113041497609"><ele>282.0</ele><time>2026-03-28T12:48:48.001Z</time></trkpt><trkpt lat="45.482127714871844" lon="11.049173209225586"><ele>282.0</ele><time>2026-03-28T12:48:50.001Z</time></trkpt><trkpt lat="45.48208879183852" lon="11.049249702685373"><ele>282.0</ele><time>2026-03-28T12:48:52.001Z</time></trkpt><trkpt lat="45.48204175427828" lon="11.049349927463098"><ele>282.0</ele><time>2026-03-28T12:48:54.001Z</time></trkpt><trkpt lat="45.48193972541318" lon="11.049485507218176"><ele>282.0</ele><time>2026-03-28T12:48:56.001Z</time></trkpt><trkpt lat="45.481875175731595" lon="11.049543259407072"><ele>282.5</ele><time>2026-03-28T12:48:58.001Z</time></trkpt><trkpt lat="45.48180146594298" lon="11.049606226775767"><ele>283.0</ele><time>2026-03-28T12:49:04.001Z</time></trkpt><trkpt lat="45.481752204882625" lon="11.04973824826862"><ele>283.5</ele><time>2026-03-28T12:49:06.001Z</time></trkpt><trkpt lat="45.48177831917908" lon="11.049820818992583"><ele>284.0</ele><time>2026-03-28T12:49:08.002Z</time></trkpt><trkpt lat="45.48187187238007" lon="11.049822405878308"><ele>284.5</ele><time>2026-03-28T12:49:23.002Z</time></trkpt><trkpt lat="45.481927069657004" lon="11.049894461442383"><ele>285.0</ele><time>2026-03-28T12:49:25.002Z</time></trkpt><trkpt lat="45.481979155998836" lon="11.049989562375357"><ele>285.0</ele><time>2026-03-28T12:49:27.002Z</time></trkpt><trkpt lat="45.481963596342894" lon="11.050079807716774"><ele>285.0</ele><time>2026-03-28T12:54:44.001Z</time></trkpt><trkpt lat="45.48199000148042" lon="11.050173412903336"><ele>285.0</ele><time>2026-03-28T12:54:49.001Z</time></trkpt><trkpt lat="45.48200733938229" lon="11.050291103305968"><ele>285.0</ele><time>2026-03-28T12:54:52.001Z</time></trkpt><trkpt lat="45.48198539140663" lon="11.050391580156417"><ele>285.0</ele><time>2026-03-28T12:54:56.001Z</time></trkpt><trkpt lat="45.48197174672472" lon="11.05048795189004"><ele>285.0</ele><time>2026-03-28T12:55:01.001Z</time></trkpt><trkpt lat="45.48192849232429" lon="11.050596471538288"><ele>285.0</ele><time>2026-03-28T12:55:05.001Z</time></trkpt><trkpt lat="45.48187229572323" lon="11.05064881560764"><ele>285.0</ele><time>2026-03-28T12:55:08.001Z</time></trkpt><trkpt lat="45.48188647043538" lon="11.050765887631364"><ele>285.0</ele><time>2026-03-28T12:55:12.001Z</time></trkpt><trkpt lat="45.481930134233295" lon="11.050866317629913"><ele>285.0</ele><time>2026-03-28T12:55:15.001Z</time></trkpt><trkpt lat="45.48191354749803" lon="11.050974376041026"><ele>285.0</ele><time>2026-03-28T12:55:18.001Z</time></trkpt><trkpt lat="45.48185966287751" lon="11.05102682863054"><ele>285.0</ele><time>2026-03-28T12:55:20.001Z</time></trkpt><trkpt lat="45.48179804097509" lon="11.051086333464992"><ele>283.7142857142857</ele><time>2026-03-28T12:55:22.001Z</time></trkpt><trkpt lat="45.481749617703144" lon="11.051163906859093"><ele>282.42857142857144</ele><time>2026-03-28T12:55:26.001Z</time></trkpt><trkpt lat="45.481707508685986" lon="11.051243711342623"><ele>281.14285714285717</ele><time>2026-03-28T12:55:32.001Z</time></trkpt><trkpt lat="45.48167226242439" lon="11.051350286227986"><ele>279.8571428571429</ele><time>2026-03-28T12:55:37.002Z</time></trkpt><trkpt lat="45.48160610269453" lon="11.051410669937033"><ele>278.5714285714286</ele><time>2026-03-28T12:55:40.002Z</time></trkpt><trkpt lat="45.48155860719058" lon="11.051484530541481"><ele>277.2857142857143</ele><time>2026-03-28T12:55:44.002Z</time></trkpt><trkpt lat="45.48153688993271" lon="11.051577438658699"><ele>276.0</ele><time>2026-03-28T12:55:47.002Z</time></trkpt><trkpt lat="45.48151120577219" lon="11.051662594981314"><ele>272.1666666666667</ele><time>2026-03-28T12:55:50.002Z</time></trkpt><trkpt lat="45.48147370561693" lon="11.051755944180243"><ele>268.3333333333333</ele><time>2026-03-28T12:55:54.002Z</time></trkpt><trkpt lat="45.48142340977268" lon="11.051847659916499"><ele>264.5</ele><time>2026-03-28T12:55:59.002Z</time></trkpt><trkpt lat="45.481381847812706" lon="11.051955826924528"><ele>260.66666666666663</ele><time>2026-03-28T12:56:04.002Z</time></trkpt><trkpt lat="45.48133091917457" lon="11.05201742428695"><ele>256.8333333333333</ele><time>2026-03-28T12:56:06.002Z</time></trkpt><trkpt lat="45.481280139898345" lon="11.052114667600414"><ele>253.0</ele><time>2026-03-28T12:56:09.002Z</time></trkpt><trkpt lat="45.48122130895491" lon="11.052153218784392"><ele>252.00000000000003</ele><time>2026-03-28T12:56:11.002Z</time></trkpt><trkpt lat="45.48116001922669" lon="11.052180250376024"><ele>251.0</ele><time>2026-03-28T12:56:13.002Z</time></trkpt><trkpt lat="45.48109569035253" lon="11.052216050738405"><ele>250.00000000000003</ele><time>2026-03-28T12:56:19.002Z</time></trkpt><trkpt lat="45.48103312842912" lon="11.05230431845213"><ele>249.00000000000003</ele><time>2026-03-28T12:56:22.002Z</time></trkpt><trkpt lat="45.481003685894656" lon="11.05239020872854"><ele>248.0</ele><time>2026-03-28T12:56:26.002Z</time></trkpt><trkpt lat="45.48107234957868" lon="11.052425448577944"><ele>247.00000000000003</ele><time>2026-03-28T12:56:31.003Z</time></trkpt><trkpt lat="45.48114121317057" lon="11.052482609250642"><ele>246.00000000000003</ele><time>2026-03-28T12:56:34Z</time></trkpt><trkpt lat="45.48124560044745" lon="11.052563459102029"><ele>241.4</ele><time>2026-03-28T12:56:36Z</time></trkpt><trkpt lat="45.481309159055705" lon="11.052603975556826"><ele>236.8</ele><time>2026-03-28T12:56:37Z</time></trkpt><trkpt lat="45.48141096497132" lon="11.052687439251624"><ele>232.20000000000002</ele><time>2026-03-28T12:56:39Z</time></trkpt><trkpt lat="45.48148468974324" lon="11.052793796973798"><ele>227.60000000000002</ele><time>2026-03-28T12:56:41Z</time></trkpt><trkpt lat="45.4815530425695" lon="11.052921585727015"><ele>223.0</ele><time>2026-03-28T12:56:43Z</time></trkpt><trkpt lat="45.48160238911391" lon="11.052983053472506"><ele>222.99999999999997</ele><time>2026-03-28T12:56:44Z</time></trkpt><trkpt lat="45.48165208131911" lon="11.05304128649015"><ele>223.0</ele><time>2026-03-28T12:56:45Z</time></trkpt><trkpt lat="45.481693207752954" lon="11.053114298671069"><ele>223.0</ele><time>2026-03-28T12:56:46Z</time></trkpt><trkpt lat="45.48174975130661" lon="11.053187180032689"><ele>223.0</ele><time>2026-03-28T12:56:47Z</time></trkpt><trkpt lat="45.48180306800784" lon="11.053272033369328"><ele>222.99999999999997</ele><time>2026-03-28T12:56:48Z</time></trkpt><trkpt lat="45.4818512843816" lon="11.053357470675264"><ele>223.0</ele><time>2026-03-28T12:56:49Z</time></trkpt><trkpt lat="45.481930186128906" lon="11.053445550255116"><ele>219.28571428571428</ele><time>2026-03-28T12:56:51Z</time></trkpt><trkpt lat="45.48188622743598" lon="11.05352187506478"><ele>215.57142857142856</ele><time>2026-03-28T12:56:57Z</time></trkpt><trkpt lat="45.48193798221093" lon="11.053594235525791"><ele>211.85714285714286</ele><time>2026-03-28T12:57:16.001Z</time></trkpt><trkpt lat="45.48195945043623" lon="11.053689757977503"><ele>208.14285714285714</ele><time>2026-03-28T12:57:19.001Z</time></trkpt><trkpt lat="45.48188173456747" lon="11.053756778540444"><ele>204.42857142857144</ele><time>2026-03-28T12:57:21.001Z</time></trkpt><trkpt lat="45.481815406925776" lon="11.05375232039371"><ele>200.71428571428572</ele><time>2026-03-28T12:57:22.001Z</time></trkpt><trkpt lat="45.481738723006366" lon="11.053727637902576"><ele>197.0</ele><time>2026-03-28T12:57:23.001Z</time></trkpt><trkpt lat="45.481652286769645" lon="11.053699214824103"><ele>197.0</ele><time>2026-03-28T12:57:24.001Z</time></trkpt><trkpt lat="45.48155903039583" lon="11.053671323127691"><ele>197.0</ele><time>2026-03-28T12:57:25.001Z</time></trkpt><trkpt lat="45.48145130209963" lon="11.05363884844734"><ele>197.0</ele><time>2026-03-28T12:57:26.001Z</time></trkpt><trkpt lat="45.481328198285055" lon="11.053600108120914"><ele>197.0</ele><time>2026-03-28T12:57:27.001Z</time></trkpt><trkpt lat="45.481216289688035" lon="11.053565147819773"><ele>197.0</ele><time>2026-03-28T12:57:28.001Z</time></trkpt><trkpt lat="45.48111773955131" lon="11.053530701488587"><ele>197.0</ele><time>2026-03-28T12:57:29.001Z</time></trkpt><trkpt lat="45.48103337480751" lon="11.053493747419038"><ele>197.0</ele><time>2026-03-28T12:57:30.001Z</time></trkpt><trkpt lat="45.48093059874624" lon="11.053466369472273"><ele>197.0</ele><time>2026-03-28T12:57:32.001Z</time></trkpt><trkpt lat="45.48086481322866" lon="11.053593964576699"><ele>197.0</ele><time>2026-03-28T12:57:34.001Z</time></trkpt><trkpt lat="45.48086127689215" lon="11.053735416571497"><ele>197.0</ele><time>2026-03-28T12:57:35.001Z</time></trkpt><trkpt lat="45.48088504977654" lon="11.053908382307961"><ele>197.0</ele><time>2026-03-28T12:57:36.001Z</time></trkpt><trkpt lat="45.48091996473409" lon="11.054057843236393"><ele>197.0</ele><time>2026-03-28T12:57:37.001Z</time></trkpt><trkpt lat="45.48094293954188" lon="11.05419739880589"><ele>197.0</ele><time>2026-03-28T12:57:38.001Z</time></trkpt><trkpt lat="45.480931032603884" lon="11.054334025512729"><ele>197.0</ele><time>2026-03-28T12:57:39.001Z</time></trkpt><trkpt lat="45.4808937783455" lon="11.054480093010543"><ele>197.0</ele><time>2026-03-28T12:57:40.001Z</time></trkpt><trkpt lat="45.48088150100011" lon="11.054609663869726"><ele>193.2</ele><time>2026-03-28T12:57:41.001Z</time></trkpt><trkpt lat="45.48088042954901" lon="11.054750752201347"><ele>189.39999999999998</ele><time>2026-03-28T12:57:42.001Z</time></trkpt><trkpt lat="45.48087310160257" lon="11.05490646072584"><ele>185.60000000000002</ele><time>2026-03-28T12:57:43.001Z</time></trkpt><trkpt lat="45.480867404528645" lon="11.055069036392908"><ele>181.8</ele><time>2026-03-28T12:57:44.001Z</time></trkpt><trkpt lat="45.4808616600823" lon="11.055231644067979"><ele>178.0</ele><time>2026-03-28T12:57:45.001Z</time></trkpt><trkpt lat="45.48085583489963" lon="11.055369160138715"><ele>176.66666666666669</ele><time>2026-03-28T12:57:46.001Z</time></trkpt><trkpt lat="45.48085290223598" lon="11.055476450589012"><ele>175.33333333333334</ele><time>2026-03-28T12:57:47.001Z</time></trkpt><trkpt lat="45.48084342369068" lon="11.055572562869624"><ele>174.0</ele><time>2026-03-28T12:57:48.001Z</time></trkpt><trkpt lat="45.48074546968402" lon="11.055639323911217"><ele>172.66666666666666</ele><time>2026-03-28T12:57:50.001Z</time></trkpt><trkpt lat="45.48066311646058" lon="11.055604611532273"><ele>171.33333333333331</ele><time>2026-03-28T12:57:51.001Z</time></trkpt><trkpt lat="45.48056607290133" lon="11.055530772505517"><ele>170.0</ele><time>2026-03-28T12:57:52.001Z</time></trkpt><trkpt lat="45.48046928877998" lon="11.055500286753178"><ele>167.6</ele><time>2026-03-28T12:57:53.001Z</time></trkpt><trkpt lat="45.48036609858088" lon="11.055496485137523"><ele>165.2</ele><time>2026-03-28T12:57:54.001Z</time></trkpt><trkpt lat="45.48026468886478" lon="11.055495473050922"><ele>162.8</ele><time>2026-03-28T12:57:55.001Z</time></trkpt><trkpt lat="45.480161423549816" lon="11.055484676149055"><ele>160.4</ele><time>2026-03-28T12:57:56.001Z</time></trkpt><trkpt lat="45.48006838077017" lon="11.055481171000055"><ele>158.0</ele><time>2026-03-28T12:57:57.001Z</time></trkpt><trkpt lat="45.480003216259306" lon="11.05548250110744"><ele>158.0</ele><time>2026-03-28T12:57:58.001Z</time></trkpt><trkpt lat="45.47993088702369" lon="11.055438909746018"><ele>158.0</ele><time>2026-03-28T12:58:00.001Z</time></trkpt><trkpt lat="45.47994848961464" lon="11.055285148922728"><ele>158.0</ele><time>2026-03-28T12:58:02.001Z</time></trkpt><trkpt lat="45.479950870884174" lon="11.055182846590286"><ele>158.0</ele><time>2026-03-28T12:58:03.001Z</time></trkpt><trkpt lat="45.47992183151137" lon="11.055052449400236"><ele>158.0</ele><time>2026-03-28T12:58:04.001Z</time></trkpt><trkpt lat="45.4798740126766" lon="11.054926786108254"><ele>159.60000000000002</ele><time>2026-03-28T12:58:05.001Z</time></trkpt><trkpt lat="45.479807620387454" lon="11.054828299479285"><ele>161.20000000000002</ele><time>2026-03-28T12:58:06.001Z</time></trkpt><trkpt lat="45.479712625643415" lon="11.054750515612279"><ele>162.8</ele><time>2026-03-28T12:58:07.001Z</time></trkpt><trkpt lat="45.479615278422095" lon="11.054688098677145"><ele>164.4</ele><time>2026-03-28T12:58:08.002Z</time></trkpt><trkpt lat="45.479512933503585" lon="11.054649723508463"><ele>166.0</ele><time>2026-03-28T12:58:09.002Z</time></trkpt><trkpt lat="45.4794044499099" lon="11.05463610606912"><ele>166.0</ele><time>2026-03-28T12:58:10.002Z</time></trkpt><trkpt lat="45.479286824304346" lon="11.054648703288214"><ele>166.0</ele><time>2026-03-28T12:58:11.002Z</time></trkpt><trkpt lat="45.479174127617554" lon="11.054682609320524"><ele>166.0</ele><time>2026-03-28T12:58:12.002Z</time></trkpt><trkpt lat="45.47906503882321" lon="11.054722778028"><ele>166.0</ele><time>2026-03-28T12:58:13.002Z</time></trkpt><trkpt lat="45.478977516187626" lon="11.05475528482212"><ele>166.0</ele><time>2026-03-28T12:58:14.002Z</time></trkpt><trkpt lat="45.47891065605957" lon="11.054768887382394"><ele>166.0</ele><time>2026-03-28T12:58:16.002Z</time></trkpt><trkpt lat="45.478826888350454" lon="11.054784032241402"><ele>166.0</ele><time>2026-03-28T12:58:19.002Z</time></trkpt><trkpt lat="45.478750411365645" lon="11.054827946275713"><ele>166.0</ele><time>2026-03-28T12:58:21.002Z</time></trkpt><trkpt lat="45.47867099953179" lon="11.054797582516798"><ele>166.0</ele><time>2026-03-28T12:58:25.002Z</time></trkpt><trkpt lat="45.47873091706807" lon="11.054741553917063"><ele>166.0</ele><time>2026-03-28T12:58:28.002Z</time></trkpt><trkpt lat="45.47884881748752" lon="11.054786820447918"><ele>166.0</ele><time>2026-03-28T12:58:30.002Z</time></trkpt><trkpt lat="45.47894790724755" lon="11.054727170447585"><ele>166.0</ele><time>2026-03-28T12:58:32.002Z</time></trkpt><trkpt lat="45.47901303361669" lon="11.05475746076982"><ele>166.0</ele><time>2026-03-28T12:58:34.002Z</time></trkpt><trkpt lat="45.47896835584966" lon="11.05482250831772"><ele>166.0</ele><time>2026-03-28T12:58:36.002Z</time></trkpt><trkpt lat="45.47886028202325" lon="11.054904302945486"><ele>166.0</ele><time>2026-03-28T12:58:38.002Z</time></trkpt><trkpt lat="45.478802324598455" lon="11.054960904701616"><ele>166.0</ele><time>2026-03-28T12:58:38.999Z</time></trkpt><trkpt lat="45.47872210475094" lon="11.055057991294657"><ele>166.0</ele><time>2026-03-28T12:58:40.999Z</time></trkpt><trkpt lat="45.478629630774414" lon="11.055113880022535"><ele>162.0</ele><time>2026-03-28T12:58:42.999Z</time></trkpt><trkpt lat="45.478542507976776" lon="11.05515312612324"><ele>158.0</ele><time>2026-03-28T12:58:43.999Z</time></trkpt><trkpt lat="45.47845898873874" lon="11.055190493867704"><ele>154.0</ele><time>2026-03-28T12:58:44.999Z</time></trkpt><trkpt lat="45.47838466628732" lon="11.05525012227052"><ele>150.0</ele><time>2026-03-28T12:58:45.999Z</time></trkpt><trkpt lat="45.47830913260119" lon="11.055317508128812"><ele>146.0</ele><time>2026-03-28T12:58:46.999Z</time></trkpt><trkpt lat="45.478234569754996" lon="11.055382535408002"><ele>142.0</ele><time>2026-03-28T12:58:47.999Z</time></trkpt><trkpt lat="45.4781525432434" lon="11.055458150895678"><ele>142.0</ele><time>2026-03-28T12:58:48.999Z</time></trkpt><trkpt lat="45.47807725811067" lon="11.055532184152671"><ele>142.0</ele><time>2026-03-28T12:58:49.999Z</time></trkpt><trkpt lat="45.477996391667745" lon="11.055605206031972"><ele>142.0</ele><time>2026-03-28T12:58:50.999Z</time></trkpt><trkpt lat="45.47792375614664" lon="11.055670241147448"><ele>142.0</ele><time>2026-03-28T12:58:51.999Z</time></trkpt><trkpt lat="45.47782376557424" lon="11.055745466622378"><ele>142.0</ele><time>2026-03-28T12:58:52.999Z</time></trkpt><trkpt lat="45.47773719099609" lon="11.05579277050512"><ele>138.0</ele><time>2026-03-28T12:58:53.999Z</time></trkpt><trkpt lat="45.477653241271724" lon="11.055874650995541"><ele>134.0</ele><time>2026-03-28T12:58:54.999Z</time></trkpt><trkpt lat="45.477589749113335" lon="11.055959781486035"><ele>130.0</ele><time>2026-03-28T12:58:55.999Z</time></trkpt><trkpt lat="45.47753546290159" lon="11.056047713712154"><ele>126.0</ele><time>2026-03-28T12:58:57Z</time></trkpt><trkpt lat="45.47749455802126" lon="11.056123585086752"><ele>122.0</ele><time>2026-03-28T12:58:58Z</time></trkpt><trkpt lat="45.47745134447211" lon="11.056271234239633"><ele>122.0</ele><time>2026-03-28T12:59:00Z</time></trkpt><trkpt lat="45.47751310374496" lon="11.056429692192639"><ele>121.99999999999999</ele><time>2026-03-28T12:59:02Z</time></trkpt><trkpt lat="45.47756934826481" lon="11.05652746285766"><ele>121.99999999999999</ele><time>2026-03-28T12:59:03Z</time></trkpt><trkpt lat="45.47760925462597" lon="11.056619342701136"><ele>122.0</ele><time>2026-03-28T12:59:04Z</time></trkpt><trkpt lat="45.477662344837604" lon="11.056713353479887"><ele>122.0</ele><time>2026-03-28T12:59:05Z</time></trkpt><trkpt lat="45.47772352196525" lon="11.056816478676062"><ele>119.6</ele><time>2026-03-28T12:59:06Z</time></trkpt><trkpt lat="45.47777839628754" lon="11.056910572572122"><ele>117.19999999999999</ele><time>2026-03-28T12:59:07Z</time></trkpt><trkpt lat="45.477819386440494" lon="11.057005398684717"><ele>114.8</ele><time>2026-03-28T12:59:08Z</time></trkpt><trkpt lat="45.47783224885727" lon="11.05714481178956"><ele>112.4</ele><time>2026-03-28T12:59:10Z</time></trkpt><trkpt lat="45.47783381301262" lon="11.057290845988133"><ele>110.0</ele><time>2026-03-28T12:59:13Z</time></trkpt><trkpt lat="45.47786972459776" lon="11.057431681488744"><ele>110.6</ele><time>2026-03-28T12:59:15Z</time></trkpt><trkpt lat="45.47791304135531" lon="11.057504668300218"><ele>111.2</ele><time>2026-03-28T12:59:16Z</time></trkpt><trkpt lat="45.4779598562594" lon="11.057615326858814"><ele>111.80000000000001</ele><time>2026-03-28T12:59:17Z</time></trkpt><trkpt lat="45.47801444608352" lon="11.057747778305329"><ele>112.4</ele><time>2026-03-28T12:59:18Z</time></trkpt><trkpt lat="45.47807266649587" lon="11.057879542266248"><ele>113.0</ele><time>2026-03-28T12:59:19Z</time></trkpt><trkpt lat="45.47812536328914" lon="11.058006575904715"><ele>112.99999999999999</ele><time>2026-03-28T12:59:20Z</time></trkpt><trkpt lat="45.478172323523495" lon="11.058138419192577"><ele>113.0</ele><time>2026-03-28T12:59:21Z</time></trkpt><trkpt lat="45.47820990662036" lon="11.058260802701795"><ele>113.0</ele><time>2026-03-28T12:59:22Z</time></trkpt><trkpt lat="45.478245085650414" lon="11.058384381214646"><ele>113.0</ele><time>2026-03-28T12:59:23Z</time></trkpt><trkpt lat="45.47827757082952" lon="11.058496966160375"><ele>112.99999999999999</ele><time>2026-03-28T12:59:24Z</time></trkpt><trkpt lat="45.47830099019029" lon="11.05858834058999"><ele>113.0</ele><time>2026-03-28T12:59:25Z</time></trkpt><trkpt lat="45.47832856915279" lon="11.058736748034827"><ele>111.60000000000001</ele><time>2026-03-28T12:59:27Z</time></trkpt><trkpt lat="45.47834710424895" lon="11.058890465919822"><ele>110.20000000000002</ele><time>2026-03-28T12:59:29Z</time></trkpt><trkpt lat="45.47831801792863" lon="11.058990645196515"><ele>108.8</ele><time>2026-03-28T12:59:31Z</time></trkpt><trkpt lat="45.47816452149778" lon="11.059043630127697"><ele>107.4</ele><time>2026-03-28T12:59:33Z</time></trkpt><trkpt lat="45.47806669804345" lon="11.05908335254512"><ele>106.0</ele><time>2026-03-28T12:59:34Z</time></trkpt><trkpt lat="45.477954332729595" lon="11.059122373103163"><ele>103.8</ele><time>2026-03-28T12:59:35Z</time></trkpt><trkpt lat="45.4778492118" lon="11.05914958546318"><ele>101.6</ele><time>2026-03-28T12:59:36Z</time></trkpt><trkpt lat="45.47774545058308" lon="11.059173109219907"><ele>99.4</ele><time>2026-03-28T12:59:37.001Z</time></trkpt><trkpt lat="45.47764608740099" lon="11.059187572228502"><ele>97.2</ele><time>2026-03-28T12:59:38.001Z</time></trkpt><trkpt lat="45.477555054535735" lon="11.059192259737857"><ele>95.0</ele><time>2026-03-28T12:59:39.001Z</time></trkpt><trkpt lat="45.47746589988352" lon="11.05919547990835"><ele>95.0</ele><time>2026-03-28T12:59:40.001Z</time></trkpt><trkpt lat="45.47737578507864" lon="11.059198974144739"><ele>95.0</ele><time>2026-03-28T12:59:41.001Z</time></trkpt><trkpt lat="45.4772895110321" lon="11.059204848783992"><ele>95.0</ele><time>2026-03-28T12:59:42.001Z</time></trkpt><trkpt lat="45.47721453569987" lon="11.059204289144027"><ele>95.0</ele><time>2026-03-28T12:59:43.001Z</time></trkpt><trkpt lat="45.47709564489848" lon="11.059217865972148"><ele>95.0</ele><time>2026-03-28T12:59:45.001Z</time></trkpt><trkpt lat="45.47703298854182" lon="11.059257789326457"><ele>95.0</ele><time>2026-03-28T12:59:47.001Z</time></trkpt><trkpt lat="45.477025219021435" lon="11.059355743210505"><ele>95.0</ele><time>2026-03-28T12:59:50.001Z</time></trkpt><trkpt lat="45.47711214660252" lon="11.059445250768634"><ele>95.0</ele><time>2026-03-28T12:59:52.001Z</time></trkpt><trkpt lat="45.477188015834166" lon="11.059459423650663"><ele>95.0</ele><time>2026-03-28T12:59:53.001Z</time></trkpt><trkpt lat="45.47724402931772" lon="11.059504991266884"><ele>95.0</ele><time>2026-03-28T12:59:54.001Z</time></trkpt><trkpt lat="45.477321270205984" lon="11.059599086310222"><ele>95.0</ele><time>2026-03-28T12:59:56.001Z</time></trkpt><trkpt lat="45.47730384435997" lon="11.059808528875442"><ele>93.25</ele><time>2026-03-28T12:59:58.001Z</time></trkpt><trkpt lat="45.477265802866185" lon="11.059957572036623"><ele>91.5</ele><time>2026-03-28T12:59:59.001Z</time></trkpt><trkpt lat="45.47723422377866" lon="11.060111705355581"><ele>89.75</ele><time>2026-03-28T13:00:00.001Z</time></trkpt><trkpt lat="45.47718725160222" lon="11.060281954934826"><ele>88.0</ele><time>2026-03-28T13:00:01.001Z</time></trkpt><trkpt lat="45.477134221078074" lon="11.060432894966922"><ele>87.83333333333333</ele><time>2026-03-28T13:00:02.001Z</time></trkpt><trkpt lat="45.477090564375345" lon="11.060536377321458"><ele>87.66666666666666</ele><time>2026-03-28T13:00:03.001Z</time></trkpt><trkpt lat="45.47707494244916" lon="11.060637177735101"><ele>87.5</ele><time>2026-03-28T13:00:04.001Z</time></trkpt><trkpt lat="45.47709548583042" lon="11.060793410763045"><ele>87.33333333333333</ele><time>2026-03-28T13:00:06.001Z</time></trkpt><trkpt lat="45.477172594419216" lon="11.060861733025476"><ele>87.16666666666667</ele><time>2026-03-28T13:00:08.001Z</time></trkpt><trkpt lat="45.47723305738844" lon="11.060941593141928"><ele>87.0</ele><time>2026-03-28T13:00:10.001Z</time></trkpt><trkpt lat="45.47729871340487" lon="11.061008982923203"><ele>87.0</ele><time>2026-03-28T13:00:12.001Z</time></trkpt><trkpt lat="45.47735519789032" lon="11.061050234516566"><ele>87.0</ele><time>2026-03-28T13:00:13.001Z</time></trkpt><trkpt lat="45.47741823395083" lon="11.061098555268604"><ele>87.0</ele><time>2026-03-28T13:00:14.001Z</time></trkpt><trkpt lat="45.477514032749" lon="11.061155758402386"><ele>87.0</ele><time>2026-03-28T13:00:15.001Z</time></trkpt><trkpt lat="45.47763568979552" lon="11.061256412715501"><ele>87.0</ele><time>2026-03-28T13:00:16.001Z</time></trkpt><trkpt lat="45.47777613761619" lon="11.061353836050337"><ele>87.0</ele><time>2026-03-28T13:00:17.001Z</time></trkpt><trkpt lat="45.4778880824464" lon="11.061496294176736"><ele>87.0</ele><time>2026-03-28T13:00:18.001Z</time></trkpt><trkpt lat="45.47797724004084" lon="11.061635227218622"><ele>87.0</ele><time>2026-03-28T13:00:19.001Z</time></trkpt><trkpt lat="45.47805528945202" lon="11.06177573980007"><ele>87.0</ele><time>2026-03-28T13:00:20.001Z</time></trkpt><trkpt lat="45.47812146280642" lon="11.061945308032207"><ele>87.0</ele><time>2026-03-28T13:00:21.001Z</time></trkpt><trkpt lat="45.47816456033516" lon="11.062147700256507"><ele>87.0</ele><time>2026-03-28T13:00:22.001Z</time></trkpt><trkpt lat="45.478184486473076" lon="11.062384700506113"><ele>87.0</ele><time>2026-03-28T13:00:23.001Z</time></trkpt><trkpt lat="45.47819048202433" lon="11.06260045249533"><ele>87.0</ele><time>2026-03-28T13:00:24.002Z</time></trkpt><trkpt lat="45.47819830671661" lon="11.062800256686947"><ele>87.0</ele><time>2026-03-28T13:00:25.002Z</time></trkpt><trkpt lat="45.47820831412807" lon="11.063011649039584"><ele>87.0</ele><time>2026-03-28T13:00:26.002Z</time></trkpt><trkpt lat="45.47822342677218" lon="11.063239050969768"><ele>87.0</ele><time>2026-03-28T13:00:27.002Z</time></trkpt><trkpt lat="45.47823830608364" lon="11.063453840832414"><ele>87.0</ele><time>2026-03-28T13:00:28.002Z</time></trkpt><trkpt lat="45.47824903803106" lon="11.063653894430622"><ele>87.0</ele><time>2026-03-28T13:00:29.002Z</time></trkpt><trkpt lat="45.478260905022964" lon="11.063842311540837"><ele>87.0</ele><time>2026-03-28T13:00:30.002Z</time></trkpt><trkpt lat="45.47827686779693" lon="11.064038959206398"><ele>87.0</ele><time>2026-03-28T13:00:31.002Z</time></trkpt><trkpt lat="45.47829409980589" lon="11.064238103020568"><ele>87.25</ele><time>2026-03-28T13:00:32.002Z</time></trkpt><trkpt lat="45.47831468056623" lon="11.064436538393938"><ele>87.5</ele><time>2026-03-28T13:00:33.002Z</time></trkpt><trkpt lat="45.47833869271194" lon="11.064640377009312"><ele>87.75</ele><time>2026-03-28T13:00:34.002Z</time></trkpt><trkpt lat="45.47835913805916" lon="11.064844028571477"><ele>88.0</ele><time>2026-03-28T13:00:35.002Z</time></trkpt><trkpt lat="45.478377453610925" lon="11.06504723811475"><ele>88.0</ele><time>2026-03-28T13:00:36.002Z</time></trkpt><trkpt lat="45.478395602046554" lon="11.06525344544168"><ele>88.0</ele><time>2026-03-28T13:00:37.002Z</time></trkpt><trkpt lat="45.478416088202444" lon="11.065452164504146"><ele>88.0</ele><time>2026-03-28T13:00:38.002Z</time></trkpt><trkpt lat="45.47843991942716" lon="11.065643147253203"><ele>88.0</ele><time>2026-03-28T13:00:39.002Z</time></trkpt><trkpt lat="45.47846681281141" lon="11.06583540111782"><ele>88.25</ele><time>2026-03-28T13:00:40.002Z</time></trkpt><trkpt lat="45.478488791566015" lon="11.066041554313387"><ele>88.5</ele><time>2026-03-28T13:00:41.002Z</time></trkpt><trkpt lat="45.478504111237385" lon="11.066243975413878"><ele>88.75</ele><time>2026-03-28T13:00:42.002Z</time></trkpt><trkpt lat="45.47852240192695" lon="11.066423218879077"><ele>89.0</ele><time>2026-03-28T13:00:43.002Z</time></trkpt><trkpt lat="45.47854429584502" lon="11.066582803935258"><ele>89.4</ele><time>2026-03-28T13:00:44.002Z</time></trkpt><trkpt lat="45.47857046149263" lon="11.06675188958078"><ele>89.80000000000001</ele><time>2026-03-28T13:00:44.999Z</time></trkpt><trkpt lat="45.478605809160804" lon="11.066897335627202"><ele>90.19999999999999</ele><time>2026-03-28T13:00:45.999Z</time></trkpt><trkpt lat="45.47864798340869" lon="11.067016995899202"><ele>90.6</ele><time>2026-03-28T13:00:46.999Z</time></trkpt><trkpt lat="45.47867158133894" lon="11.067131728553873"><ele>91.0</ele><time>2026-03-28T13:00:47.999Z</time></trkpt><trkpt lat="45.47864959655299" lon="11.067317758305139"><ele>91.4</ele><time>2026-03-28T13:00:48.999Z</time></trkpt><trkpt lat="45.47866536198307" lon="11.06748228615856"><ele>91.8</ele><time>2026-03-28T13:00:49.999Z</time></trkpt><trkpt lat="45.478700800290795" lon="11.06763507352634"><ele>92.2</ele><time>2026-03-28T13:00:50.999Z</time></trkpt><trkpt lat="45.47874592325515" lon="11.067771501608307"><ele>92.60000000000001</ele><time>2026-03-28T13:00:51.999Z</time></trkpt><trkpt lat="45.47875901057125" lon="11.067888393526934"><ele>93.0</ele><time>2026-03-28T13:00:52.999Z</time></trkpt><trkpt lat="45.47874632975056" lon="11.067995969201757"><ele>93.0</ele><time>2026-03-28T13:00:53.999Z</time></trkpt><trkpt lat="45.478710493628014" lon="11.068094970006848"><ele>93.0</ele><time>2026-03-28T13:00:54.999Z</time></trkpt><trkpt lat="45.4786603959902" lon="11.068177971697544"><ele>93.0</ele><time>2026-03-28T13:00:55.999Z</time></trkpt><trkpt lat="45.47857833697892" lon="11.068201009260738"><ele>93.0</ele><time>2026-03-28T13:00:56.999Z</time></trkpt><trkpt lat="45.47847955557691" lon="11.068220513207516"><ele>93.0</ele><time>2026-03-28T13:00:57.999Z</time></trkpt><trkpt lat="45.47837197802534" lon="11.068321323311277"><ele>94.5</ele><time>2026-03-28T13:00:58.999Z</time></trkpt><trkpt lat="45.478250246548704" lon="11.068411716494785"><ele>96.0</ele><time>2026-03-28T13:00:59.999Z</time></trkpt><trkpt lat="45.47812863753019" lon="11.068545818882315"><ele>97.5</ele><time>2026-03-28T13:01:00.999Z</time></trkpt><trkpt lat="45.47802230822847" lon="11.068666644626855"><ele>99.0</ele><time>2026-03-28T13:01:01.999Z</time></trkpt><trkpt lat="45.47793577443455" lon="11.068797492257922"><ele>97.5</ele><time>2026-03-28T13:01:03Z</time></trkpt><trkpt lat="45.477832356195826" lon="11.068888090151127"><ele>96.0</ele><time>2026-03-28T13:01:04Z</time></trkpt><trkpt lat="45.47774615394338" lon="11.068994779406788"><ele>94.5</ele><time>2026-03-28T13:01:05Z</time></trkpt><trkpt lat="45.477673684966675" lon="11.069116967034637"><ele>93.0</ele><time>2026-03-28T13:01:06Z</time></trkpt><trkpt lat="45.477591811490875" lon="11.069242653198367"><ele>96.5</ele><time>2026-03-28T13:01:07Z</time></trkpt><trkpt lat="45.4775228055828" lon="11.069392649731965"><ele>100.0</ele><time>2026-03-28T13:01:08Z</time></trkpt><trkpt lat="45.477471198685315" lon="11.069570030117166"><ele>103.5</ele><time>2026-03-28T13:01:09Z</time></trkpt><trkpt lat="45.47741656215746" lon="11.069712456651265"><ele>107.0</ele><time>2026-03-28T13:01:10Z</time></trkpt><trkpt lat="45.47737304858676" lon="11.069850361041823"><ele>109.39999999999999</ele><time>2026-03-28T13:01:11Z</time></trkpt><trkpt lat="45.47734223949961" lon="11.069973789911096"><ele>111.79999999999998</ele><time>2026-03-28T13:01:12Z</time></trkpt><trkpt lat="45.47733313047542" lon="11.070109193490802"><ele>114.2</ele><time>2026-03-28T13:01:14Z</time></trkpt><trkpt lat="45.47741331548224" lon="11.070111436678554"><ele>116.6</ele><time>2026-03-28T13:01:16Z</time></trkpt><trkpt lat="45.477534803588526" lon="11.070034225989305"><ele>119.0</ele><time>2026-03-28T13:01:18Z</time></trkpt><trkpt lat="45.47759939918226" lon="11.069980105182907"><ele>118.2</ele><time>2026-03-28T13:01:19Z</time></trkpt><trkpt lat="45.477685426741694" lon="11.069920371839858"><ele>117.4</ele><time>2026-03-28T13:01:20Z</time></trkpt><trkpt lat="45.47778884486711" lon="11.069851258047086"><ele>116.6</ele><time>2026-03-28T13:01:21Z</time></trkpt><trkpt lat="45.47788695172011" lon="11.069797458872893"><ele>115.8</ele><time>2026-03-28T13:01:22Z</time></trkpt><trkpt lat="45.47797222899298" lon="11.069766318952135"><ele>115.0</ele><time>2026-03-28T13:01:23Z</time></trkpt><trkpt lat="45.47805717765876" lon="11.06973410332834"><ele>114.99999999999999</ele><time>2026-03-28T13:01:24Z</time></trkpt><trkpt lat="45.47812816675787" lon="11.069712876160377"><ele>115.0</ele><time>2026-03-28T13:01:25Z</time></trkpt><trkpt lat="45.47820287006314" lon="11.069717440354271"><ele>114.99999999999999</ele><time>2026-03-28T13:01:26Z</time></trkpt><trkpt lat="45.47826946449356" lon="11.069740728770839"><ele>114.99999999999999</ele><time>2026-03-28T13:01:27Z</time></trkpt><trkpt lat="45.4783301260668" lon="11.06978830878782"><ele>115.0</ele><time>2026-03-28T13:01:28Z</time></trkpt><trkpt lat="45.47838617176595" lon="11.069851570930222"><ele>114.99999999999999</ele><time>2026-03-28T13:01:29Z</time></trkpt><trkpt lat="45.47843821286258" lon="11.069941201782354"><ele>114.99999999999999</ele><time>2026-03-28T13:01:30Z</time></trkpt><trkpt lat="45.47847874350247" lon="11.070063831639613"><ele>117.16666666666667</ele><time>2026-03-28T13:01:31Z</time></trkpt><trkpt lat="45.478511391063236" lon="11.070164314914004"><ele>119.33333333333334</ele><time>2026-03-28T13:01:32Z</time></trkpt><trkpt lat="45.47853889126431" lon="11.070282030814612"><ele>121.5</ele><time>2026-03-28T13:01:33Z</time></trkpt><trkpt lat="45.47855259762933" lon="11.070400135414442"><ele>123.66666666666666</ele><time>2026-03-28T13:01:34Z</time></trkpt><trkpt lat="45.47856016691263" lon="11.0705292403999"><ele>125.83333333333333</ele><time>2026-03-28T13:01:35Z</time></trkpt><trkpt lat="45.47855361398799" lon="11.070665149371774"><ele>128.0</ele><time>2026-03-28T13:01:36.001Z</time></trkpt><trkpt lat="45.47852552015119" lon="11.070793668652088"><ele>129.5</ele><time>2026-03-28T13:01:37.001Z</time></trkpt><trkpt lat="45.47849169684268" lon="11.07089720537485"><ele>131.0</ele><time>2026-03-28T13:01:38.001Z</time></trkpt><trkpt lat="45.4784560148412" lon="11.070995633166772"><ele>132.5</ele><time>2026-03-28T13:01:39.001Z</time></trkpt><trkpt lat="45.47843830075126" lon="11.071105890695916"><ele>134.0</ele><time>2026-03-28T13:01:41.001Z</time></trkpt><trkpt lat="45.47872478310768" lon="11.071548033209343"><ele>133.0</ele><time>2026-03-28T13:01:52.001Z</time></trkpt><trkpt lat="45.47880848117938" lon="11.07154946426721"><ele>132.0</ele><time>2026-03-28T13:01:56.001Z</time></trkpt><trkpt lat="45.47887448420359" lon="11.07167028538045"><ele>131.0</ele><time>2026-03-28T13:01:58.001Z</time></trkpt><trkpt lat="45.478933188129254" lon="11.071744090817868"><ele>130.0</ele><time>2026-03-28T13:01:59.001Z</time></trkpt><trkpt lat="45.47898719947187" lon="11.071808359556645"><ele>129.0</ele><time>2026-03-28T13:02:00.001Z</time></trkpt><trkpt lat="45.47903520101498" lon="11.071902307905285"><ele>128.0</ele><time>2026-03-28T13:02:02.001Z</time></trkpt><trkpt lat="45.47908914557493" lon="11.071981847409528"><ele>127.99999999999999</ele><time>2026-03-28T13:02:03.001Z</time></trkpt><trkpt lat="45.47910357873978" lon="11.072076039368804"><ele>128.0</ele><time>2026-03-28T13:02:04.001Z</time></trkpt><trkpt lat="45.479131532423686" lon="11.072183053929912"><ele>128.0</ele><time>2026-03-28T13:02:05.001Z</time></trkpt><trkpt lat="45.47917173272807" lon="11.07227652641395"><ele>128.0</ele><time>2026-03-28T13:02:06.001Z</time></trkpt><trkpt lat="45.47922376854153" lon="11.072362958657932"><ele>127.99999999999999</ele><time>2026-03-28T13:02:07.001Z</time></trkpt><trkpt lat="45.479263451905005" lon="11.072481031394654"><ele>128.0</ele><time>2026-03-28T13:02:09.001Z</time></trkpt><trkpt lat="45.47934704489239" lon="11.072559631432254"><ele>127.60000000000001</ele><time>2026-03-28T13:02:11.001Z</time></trkpt><trkpt lat="45.47941173802451" lon="11.072656595729104"><ele>127.20000000000002</ele><time>2026-03-28T13:02:13.001Z</time></trkpt><trkpt lat="45.47940467423947" lon="11.072777204170517"><ele>126.8</ele><time>2026-03-28T13:02:15.001Z</time></trkpt><trkpt lat="45.47932446452435" lon="11.072885642295727"><ele>126.4</ele><time>2026-03-28T13:02:17.001Z</time></trkpt><trkpt lat="45.479241447289056" lon="11.07300569830624"><ele>126.0</ele><time>2026-03-28T13:02:19.002Z</time></trkpt><trkpt lat="45.47920134066476" lon="11.073134449396143"><ele>126.0</ele><time>2026-03-28T13:02:22.002Z</time></trkpt><trkpt lat="45.479167119487514" lon="11.073216799661754"><ele>126.0</ele><time>2026-03-28T13:02:23.002Z</time></trkpt><trkpt lat="45.47910629724144" lon="11.073306183699184"><ele>126.0</ele><time>2026-03-28T13:02:24.002Z</time></trkpt><trkpt lat="45.47905694786527" lon="11.073370934055394"><ele>126.0</ele><time>2026-03-28T13:02:25.002Z</time></trkpt><trkpt lat="45.47901239075002" lon="11.073455658200956"><ele>126.0</ele><time>2026-03-28T13:02:26.002Z</time></trkpt><trkpt lat="45.47897356180398" lon="11.07355787887065"><ele>126.0</ele><time>2026-03-28T13:02:27.002Z</time></trkpt><trkpt lat="45.478893342775734" lon="11.073758534880259"><ele>125.5</ele><time>2026-03-28T13:02:29.002Z</time></trkpt><trkpt lat="45.478850589249426" lon="11.073888130480551"><ele>125.0</ele><time>2026-03-28T13:02:30.002Z</time></trkpt><trkpt lat="45.478792781139795" lon="11.073965449996852"><ele>124.5</ele><time>2026-03-28T13:02:31.002Z</time></trkpt><trkpt lat="45.47875007873251" lon="11.074073800686817"><ele>124.0</ele><time>2026-03-28T13:02:33.002Z</time></trkpt><trkpt lat="45.4787644308961" lon="11.074172844729402"><ele>123.5</ele><time>2026-03-28T13:02:35.002Z</time></trkpt><trkpt lat="45.47874014585087" lon="11.07427908019818"><ele>123.0</ele><time>2026-03-28T13:02:36.002Z</time></trkpt><trkpt lat="45.47868606012548" lon="11.074359194885751"><ele>126.4</ele><time>2026-03-28T13:02:37.002Z</time></trkpt><trkpt lat="45.47862558221286" lon="11.074411445651757"><ele>129.8</ele><time>2026-03-28T13:02:38.002Z</time></trkpt><trkpt lat="45.47858958124355" lon="11.074533509267033"><ele>133.2</ele><time>2026-03-28T13:02:40.002Z</time></trkpt><trkpt lat="45.47851457368025" lon="11.07462514463131"><ele>136.6</ele><time>2026-03-28T13:02:42.002Z</time></trkpt><trkpt lat="45.478503286970614" lon="11.074741852422084"><ele>140.0</ele><time>2026-03-28T13:02:44.002Z</time></trkpt><trkpt lat="45.47845261157617" lon="11.074894274110525"><ele>139.8</ele><time>2026-03-28T13:02:46.002Z</time></trkpt><trkpt lat="45.478388937845835" lon="11.075001720017582"><ele>139.6</ele><time>2026-03-28T13:02:48.002Z</time></trkpt><trkpt lat="45.4784087737811" lon="11.075124141283752"><ele>139.4</ele><time>2026-03-28T13:02:50.002Z</time></trkpt><trkpt lat="45.47834800989946" lon="11.075243454792055"><ele>139.2</ele><time>2026-03-28T13:02:51.999Z</time></trkpt><trkpt lat="45.47825556747168" lon="11.075337425555405"><ele>139.0</ele><time>2026-03-28T13:02:53.999Z</time></trkpt><trkpt lat="45.47822674544419" lon="11.075445937700618"><ele>139.0</ele><time>2026-03-28T13:02:55.999Z</time></trkpt><trkpt lat="45.47815568494058" lon="11.075576488943597"><ele>139.0</ele><time>2026-03-28T13:02:57.999Z</time></trkpt><trkpt lat="45.478114091403334" lon="11.075645394088571"><ele>139.0</ele><time>2026-03-28T13:02:58.999Z</time></trkpt><trkpt lat="45.47804875245783" lon="11.075788713506698"><ele>139.0</ele><time>2026-03-28T13:03:00.999Z</time></trkpt><trkpt lat="45.478015701365905" lon="11.075877500993657"><ele>139.0</ele><time>2026-03-28T13:03:01.999Z</time></trkpt><trkpt lat="45.47798692720882" lon="11.075994278437294"><ele>139.33333333333334</ele><time>2026-03-28T13:03:03.999Z</time></trkpt><trkpt lat="45.47795713463095" lon="11.076081528892956"><ele>139.66666666666669</ele><time>2026-03-28T13:03:08Z</time></trkpt><trkpt lat="45.4779032934648" lon="11.076210710038087"><ele>140.0</ele><time>2026-03-28T13:03:16Z</time></trkpt><trkpt lat="45.47786725187115" lon="11.076284371320051"><ele>140.33333333333334</ele><time>2026-03-28T13:03:17Z</time></trkpt><trkpt lat="45.47781339352674" lon="11.076358007677921"><ele>140.66666666666666</ele><time>2026-03-28T13:03:19Z</time></trkpt><trkpt lat="45.477791698945886" lon="11.076522327084716"><ele>141.0</ele><time>2026-03-28T13:03:21Z</time></trkpt><trkpt lat="45.47779327485608" lon="11.076651044953932"><ele>143.5</ele><time>2026-03-28T13:03:23Z</time></trkpt><trkpt lat="45.47777154868861" lon="11.076754639456778"><ele>146.0</ele><time>2026-03-28T13:03:29Z</time></trkpt><trkpt lat="45.477730004505815" lon="11.076856207699684"><ele>148.5</ele><time>2026-03-28T13:03:32Z</time></trkpt><trkpt lat="45.4777153799652" lon="11.076961456794328"><ele>151.0</ele><time>2026-03-28T13:03:35Z</time></trkpt><trkpt lat="45.47768734815475" lon="11.07704655881295"><ele>153.5</ele><time>2026-03-28T13:03:37Z</time></trkpt><trkpt lat="45.47762047114965" lon="11.077113614053138"><ele>156.0</ele><time>2026-03-28T13:03:43.001Z</time></trkpt><trkpt lat="45.47759121455566" lon="11.07721670842738"><ele>156.0</ele><time>2026-03-28T13:03:48.001Z</time></trkpt><trkpt lat="45.47755900882887" lon="11.07729683953493"><ele>156.0</ele><time>2026-03-28T13:03:53.001Z</time></trkpt><trkpt lat="45.47751925856033" lon="11.077414541603067"><ele>156.0</ele><time>2026-03-28T13:03:57.001Z</time></trkpt><trkpt lat="45.47749505663287" lon="11.077519221246455"><ele>156.0</ele><time>2026-03-28T13:03:59.001Z</time></trkpt><trkpt lat="45.477478684693935" lon="11.07762175948202"><ele>156.0</ele><time>2026-03-28T13:04:02.001Z</time></trkpt><trkpt lat="45.477477512315566" lon="11.077747603880955"><ele>156.0</ele><time>2026-03-28T13:04:04.001Z</time></trkpt><trkpt lat="45.47744273799" lon="11.077838684894703"><ele>156.66666666666666</ele><time>2026-03-28T13:04:06.001Z</time></trkpt><trkpt lat="45.477421133277154" lon="11.077926731811583"><ele>157.33333333333334</ele><time>2026-03-28T13:04:08.001Z</time></trkpt><trkpt lat="45.47740534902783" lon="11.078056603490095"><ele>158.0</ele><time>2026-03-28T13:04:32.002Z</time></trkpt><trkpt lat="45.47737228974812" lon="11.078135437018423"><ele>158.66666666666669</ele><time>2026-03-28T13:04:35.002Z</time></trkpt><trkpt lat="45.47735386303133" lon="11.078226435630436"><ele>159.33333333333334</ele><time>2026-03-28T13:04:36.002Z</time></trkpt><trkpt lat="45.47733425007767" lon="11.078382401545504"><ele>160.0</ele><time>2026-03-28T13:04:38.002Z</time></trkpt><trkpt lat="45.47729055110552" lon="11.0785267457989"><ele>162.2</ele><time>2026-03-28T13:04:40.002Z</time></trkpt><trkpt lat="45.47723028116593" lon="11.07862843721423"><ele>164.4</ele><time>2026-03-28T13:04:42.002Z</time></trkpt><trkpt lat="45.477160980541456" lon="11.078729697040366"><ele>166.60000000000002</ele><time>2026-03-28T13:04:44.002Z</time></trkpt><trkpt lat="45.4771335075537" lon="11.078866198400512"><ele>168.8</ele><time>2026-03-28T13:04:46.002Z</time></trkpt><trkpt lat="45.477074864596" lon="11.079036800473208"><ele>171.0</ele><time>2026-03-28T13:04:48.002Z</time></trkpt><trkpt lat="45.47707810186733" lon="11.079187549022869"><ele>172.66666666666666</ele><time>2026-03-28T13:04:50.002Z</time></trkpt><trkpt lat="45.47713024458579" lon="11.079264747781272"><ele>174.33333333333334</ele><time>2026-03-28T13:04:51.002Z</time></trkpt><trkpt lat="45.47717855141939" lon="11.079349838708312"><ele>176.0</ele><time>2026-03-28T13:04:52.002Z</time></trkpt><trkpt lat="45.47721979454586" lon="11.07946668473191"><ele>177.66666666666669</ele><time>2026-03-28T13:04:53.002Z</time></trkpt><trkpt lat="45.477259863819256" lon="11.079595744151595"><ele>179.33333333333334</ele><time>2026-03-28T13:04:54.002Z</time></trkpt><trkpt lat="45.47728886228007" lon="11.079702660619985"><ele>181.0</ele><time>2026-03-28T13:04:55.002Z</time></trkpt><trkpt lat="45.47731176280984" lon="11.079811960519722"><ele>181.0</ele><time>2026-03-28T13:04:56.003Z</time></trkpt><trkpt lat="45.477316805046854" lon="11.079918055760945"><ele>181.0</ele><time>2026-03-28T13:04:57Z</time></trkpt><trkpt lat="45.47732212837178" lon="11.080008953516204"><ele>181.0</ele><time>2026-03-28T13:04:58Z</time></trkpt><trkpt lat="45.477387612023314" lon="11.080147266572755"><ele>181.0</ele><time>2026-03-28T13:05:00Z</time></trkpt><trkpt lat="45.4774089835477" lon="11.080238149560316"><ele>181.0</ele><time>2026-03-28T13:05:01Z</time></trkpt><trkpt lat="45.477387781783435" lon="11.080389826991654"><ele>181.0</ele><time>2026-03-28T13:05:03Z</time></trkpt><trkpt lat="45.47743188010689" lon="11.080470994912273"><ele>181.8</ele><time>2026-03-28T13:05:05Z</time></trkpt><trkpt lat="45.477542953042416" lon="11.08042922490172"><ele>182.60000000000002</ele><time>2026-03-28T13:05:07Z</time></trkpt><trkpt lat="45.47762443326092" lon="11.08047424918672"><ele>183.4</ele><time>2026-03-28T13:05:09Z</time></trkpt><trkpt lat="45.47770297915187" lon="11.08054641452281"><ele>184.2</ele><time>2026-03-28T13:05:11Z</time></trkpt><trkpt lat="45.47778307656719" lon="11.08058410126386"><ele>185.0</ele><time>2026-03-28T13:05:13Z</time></trkpt><trkpt lat="45.47786332994633" lon="11.080650628878155"><ele>185.0</ele><time>2026-03-28T13:05:15Z</time></trkpt><trkpt lat="45.47792601446707" lon="11.080683065505537"><ele>185.0</ele><time>2026-03-28T13:05:16Z</time></trkpt><trkpt lat="45.477999116409826" lon="11.080798319534386"><ele>185.0</ele><time>2026-03-28T13:05:18Z</time></trkpt><trkpt lat="45.47805821835284" lon="11.080867001350871"><ele>185.0</ele><time>2026-03-28T13:05:19Z</time></trkpt><trkpt lat="45.478147854091524" lon="11.080975178663477"><ele>185.0</ele><time>2026-03-28T13:05:21Z</time></trkpt><trkpt lat="45.4782624399477" lon="11.081044279547"><ele>187.33333333333331</ele><time>2026-03-28T13:05:23Z</time></trkpt><trkpt lat="45.47832425919307" lon="11.081083515810265"><ele>189.66666666666666</ele><time>2026-03-28T13:05:27Z</time></trkpt><trkpt lat="45.47839674034554" lon="11.08120801622943"><ele>192.0</ele><time>2026-03-28T13:05:31.001Z</time></trkpt><trkpt lat="45.47846202506053" lon="11.08123013872151"><ele>194.33333333333331</ele><time>2026-03-28T13:05:33.001Z</time></trkpt><trkpt lat="45.478534240197604" lon="11.08133463573465"><ele>196.66666666666666</ele><time>2026-03-28T13:05:35.001Z</time></trkpt><trkpt lat="45.47852318104738" lon="11.081423230127813"><ele>199.0</ele><time>2026-03-28T13:05:37.001Z</time></trkpt><trkpt lat="45.47856356156403" lon="11.081503999317569"><ele>199.0</ele><time>2026-03-28T13:05:41.001Z</time></trkpt><trkpt lat="45.47862195045902" lon="11.081550487503348"><ele>199.0</ele><time>2026-03-28T13:05:48.001Z</time></trkpt><trkpt lat="45.4786969895277" lon="11.081637047519923"><ele>199.0</ele><time>2026-03-28T13:05:50.001Z</time></trkpt><trkpt lat="45.47878367448315" lon="11.081736384181907"><ele>199.0</ele><time>2026-03-28T13:05:52.001Z</time></trkpt><trkpt lat="45.4788461024307" lon="11.081853519273661"><ele>199.0</ele><time>2026-03-28T13:05:54.001Z</time></trkpt><trkpt lat="45.478893692888455" lon="11.081969446347394"><ele>202.79999999999998</ele><time>2026-03-28T13:05:56.001Z</time></trkpt><trkpt lat="45.47892157784214" lon="11.082077510215486"><ele>206.6</ele><time>2026-03-28T13:05:58.001Z</time></trkpt><trkpt lat="45.478977087091096" lon="11.082173595930929"><ele>210.4</ele><time>2026-03-28T13:06:00.001Z</time></trkpt><trkpt lat="45.47897210580826" lon="11.08230484889832"><ele>214.2</ele><time>2026-03-28T13:06:02.001Z</time></trkpt><trkpt lat="45.47898737799308" lon="11.082435517817084"><ele>218.0</ele><time>2026-03-28T13:06:04.001Z</time></trkpt><trkpt lat="45.47901993476651" lon="11.082583188305918"><ele>218.33333333333334</ele><time>2026-03-28T13:06:06.001Z</time></trkpt><trkpt lat="45.479022759728686" lon="11.082705879361619"><ele>218.66666666666669</ele><time>2026-03-28T13:06:08.001Z</time></trkpt><trkpt lat="45.4790581016834" lon="11.082826388228018"><ele>219.0</ele><time>2026-03-28T13:06:10.002Z</time></trkpt><trkpt lat="45.479070332698186" lon="11.082914861599514"><ele>219.33333333333331</ele><time>2026-03-28T13:06:11.002Z</time></trkpt><trkpt lat="45.479097805248614" lon="11.083053981010982"><ele>219.66666666666666</ele><time>2026-03-28T13:06:13.002Z</time></trkpt><trkpt lat="45.47913643018461" lon="11.083145322620236"><ele>220.0</ele><time>2026-03-28T13:06:15.002Z</time></trkpt><trkpt lat="45.47919538175796" lon="11.083189452204563"><ele>219.99999999999997</ele><time>2026-03-28T13:06:38.002Z</time></trkpt><trkpt lat="45.47920038936166" lon="11.083081075736889"><ele>220.0</ele><time>2026-03-28T13:06:44.002Z</time></trkpt><trkpt lat="45.47918196584438" lon="11.08296738667178"><ele>220.0</ele><time>2026-03-28T13:06:47.003Z</time></trkpt><trkpt lat="45.4791665652247" lon="11.082868573978212"><ele>220.0</ele><time>2026-03-28T13:06:49.003Z</time></trkpt><trkpt lat="45.47918431683039" lon="11.082753776719908"><ele>219.99999999999997</ele><time>2026-03-28T13:06:51.003Z</time></trkpt><trkpt lat="45.47916786514638" lon="11.082630450189118"><ele>220.0</ele><time>2026-03-28T13:06:53.003Z</time></trkpt><trkpt lat="45.47915608043151" lon="11.082487482248975"><ele>219.66666666666666</ele><time>2026-03-28T13:06:55.003Z</time></trkpt><trkpt lat="45.47913504486139" lon="11.082328964051786"><ele>219.33333333333331</ele><time>2026-03-28T13:06:57.003Z</time></trkpt><trkpt lat="45.47912431019396" lon="11.082225395762523"><ele>219.0</ele><time>2026-03-28T13:06:58.003Z</time></trkpt><trkpt lat="45.47910389627167" lon="11.08212277649232"><ele>218.66666666666669</ele><time>2026-03-28T13:06:59.003Z</time></trkpt><trkpt lat="45.47908251656534" lon="11.08199433964204"><ele>218.33333333333334</ele><time>2026-03-28T13:07:01.003Z</time></trkpt><trkpt lat="45.47906595975373" lon="11.081871372680121"><ele>218.0</ele><time>2026-03-28T13:07:03.002Z</time></trkpt><trkpt lat="45.47904595454842" lon="11.081728749797819"><ele>218.00000000000003</ele><time>2026-03-28T13:07:05.002Z</time></trkpt><trkpt lat="45.47907594668941" lon="11.081623083292287"><ele>218.0</ele><time>2026-03-28T13:07:07.002Z</time></trkpt><trkpt lat="45.479128078575066" lon="11.081678773086606"><ele>218.0</ele><time>2026-03-28T13:07:13.002Z</time></trkpt><trkpt lat="45.479180507992616" lon="11.081767632725018"><ele>218.0</ele><time>2026-03-28T13:07:18.001Z</time></trkpt><trkpt lat="45.479206485621866" lon="11.081889985838071"><ele>218.00000000000003</ele><time>2026-03-28T13:07:20.001Z</time></trkpt><trkpt lat="45.47923545218663" lon="11.081994084665066"><ele>218.0</ele><time>2026-03-28T13:07:22.001Z</time></trkpt><trkpt lat="45.47930004832825" lon="11.082072408382254"><ele>218.00000000000003</ele><time>2026-03-28T13:07:25.001Z</time></trkpt><trkpt lat="45.479347334378254" lon="11.082176755003925"><ele>218.0</ele><time>2026-03-28T13:07:27.001Z</time></trkpt><trkpt lat="45.47940701964191" lon="11.082221752335807"><ele>218.0</ele><time>2026-03-28T13:07:30.001Z</time></trkpt><trkpt lat="45.479421547724364" lon="11.082357176436958"><ele>218.0</ele><time>2026-03-28T13:07:33.001Z</time></trkpt><trkpt lat="45.47945465199212" lon="11.082446887416339"><ele>218.00000000000003</ele><time>2026-03-28T13:07:35.001Z</time></trkpt><trkpt lat="45.479505855009926" lon="11.082542538348171"><ele>218.0</ele><time>2026-03-28T13:07:37.001Z</time></trkpt><trkpt lat="45.4795582574477" lon="11.0826421504289"><ele>222.33333333333334</ele><time>2026-03-28T13:07:39.001Z</time></trkpt><trkpt lat="45.4796082472137" lon="11.082721809621257"><ele>226.66666666666669</ele><time>2026-03-28T13:07:42.001Z</time></trkpt><trkpt lat="45.47966242945094" lon="11.08280635099335"><ele>231.0</ele><time>2026-03-28T13:07:44.001Z</time></trkpt><trkpt lat="45.47973664800669" lon="11.082865354024952"><ele>235.33333333333331</ele><time>2026-03-28T13:07:46.001Z</time></trkpt><trkpt lat="45.47979895487819" lon="11.08292827654113"><ele>239.66666666666666</ele><time>2026-03-28T13:07:48.001Z</time></trkpt><trkpt lat="45.47987289710718" lon="11.08302108093076"><ele>244.0</ele><time>2026-03-28T13:07:50.002Z</time></trkpt><trkpt lat="45.479944097859786" lon="11.08297904041599"><ele>243.99999999999997</ele><time>2026-03-28T13:07:53.002Z</time></trkpt><trkpt lat="45.48000687191635" lon="11.083002221692052"><ele>244.0</ele><time>2026-03-28T13:07:55.002Z</time></trkpt><trkpt lat="45.480078012789704" lon="11.083085193857679"><ele>243.99999999999997</ele><time>2026-03-28T13:07:57.002Z</time></trkpt><trkpt lat="45.48013542439593" lon="11.08316858587338"><ele>243.99999999999997</ele><time>2026-03-28T13:08:01.002Z</time></trkpt><trkpt lat="45.4801866826906" lon="11.083107707208768"><ele>244.0</ele><time>2026-03-28T13:08:03.002Z</time></trkpt><trkpt lat="45.4802193002876" lon="11.08303010241931"><ele>243.99999999999997</ele><time>2026-03-28T13:08:04.002Z</time></trkpt><trkpt lat="45.48025171915638" lon="11.0829299678007"><ele>243.99999999999997</ele><time>2026-03-28T13:08:05.002Z</time></trkpt><trkpt lat="45.48027982076359" lon="11.08283116125564"><ele>244.0</ele><time>2026-03-28T13:08:06.002Z</time></trkpt><trkpt lat="45.480318359527715" lon="11.082722469506738"><ele>243.99999999999997</ele><time>2026-03-28T13:08:07.002Z</time></trkpt><trkpt lat="45.48036500681371" lon="11.082635030817183"><ele>243.99999999999997</ele><time>2026-03-28T13:08:08.002Z</time></trkpt><trkpt lat="45.48044127130994" lon="11.08252785061363"><ele>244.0</ele><time>2026-03-28T13:08:10.002Z</time></trkpt><trkpt lat="45.480502713355214" lon="11.08248412935912"><ele>244.0</ele><time>2026-03-28T13:08:12.002Z</time></trkpt><trkpt lat="45.4806732142768" lon="11.082771873341743"><ele>246.0</ele><time>2026-03-28T13:08:15.002Z</time></trkpt><trkpt lat="45.48074083787382" lon="11.082858169497909"><ele>247.99999999999997</ele><time>2026-03-28T13:08:16.002Z</time></trkpt><trkpt lat="45.48082430529423" lon="11.082962818691309"><ele>249.99999999999997</ele><time>2026-03-28T13:08:17.002Z</time></trkpt><trkpt lat="45.48087449586071" lon="11.08310523219218"><ele>252.0</ele><time>2026-03-28T13:08:18.002Z</time></trkpt><trkpt lat="45.48091703903017" lon="11.083212762309689"><ele>254.0</ele><time>2026-03-28T13:08:19.002Z</time></trkpt><trkpt lat="45.48093875523708" lon="11.083302875252263"><ele>255.83333333333334</ele><time>2026-03-28T13:08:20.002Z</time></trkpt><trkpt lat="45.480918091873626" lon="11.083430336230053"><ele>257.6666666666667</ele><time>2026-03-28T13:08:22.002Z</time></trkpt><trkpt lat="45.48079760302273" lon="11.083483364212848"><ele>259.5</ele><time>2026-03-28T13:08:24.002Z</time></trkpt><trkpt lat="45.48073430449519" lon="11.083551338627547"><ele>261.3333333333333</ele><time>2026-03-28T13:08:25.002Z</time></trkpt><trkpt lat="45.48067798212047" lon="11.08362781411798"><ele>263.16666666666663</ele><time>2026-03-28T13:08:26.002Z</time></trkpt><trkpt lat="45.480640675133245" lon="11.083704944444364"><ele>265.0</ele><time>2026-03-28T13:08:27.002Z</time></trkpt><trkpt lat="45.48063290592164" lon="11.083823786978998"><ele>265.0</ele><time>2026-03-28T13:08:28.002Z</time></trkpt><trkpt lat="45.480649630063" lon="11.083936554573091"><ele>265.0</ele><time>2026-03-28T13:08:29.002Z</time></trkpt><trkpt lat="45.48071419922116" lon="11.084057030199618"><ele>265.0</ele><time>2026-03-28T13:08:30.002Z</time></trkpt><trkpt lat="45.480759119129225" lon="11.084158561966895"><ele>265.0</ele><time>2026-03-28T13:08:31.002Z</time></trkpt><trkpt lat="45.4808157304247" lon="11.084263845059692"><ele>265.0</ele><time>2026-03-28T13:08:32.002Z</time></trkpt><trkpt lat="45.48085168103727" lon="11.084387197689242"><ele>266.6</ele><time>2026-03-28T13:08:33.002Z</time></trkpt><trkpt lat="45.480911011761904" lon="11.084501480177872"><ele>268.2</ele><time>2026-03-28T13:08:34.002Z</time></trkpt><trkpt lat="45.480963790979885" lon="11.084635790654174"><ele>269.8</ele><time>2026-03-28T13:08:35.002Z</time></trkpt><trkpt lat="45.48101728151545" lon="11.084778120587792"><ele>271.4</ele><time>2026-03-28T13:08:36.002Z</time></trkpt><trkpt lat="45.48107242695341" lon="11.084921679748717"><ele>273.0</ele><time>2026-03-28T13:08:37.002Z</time></trkpt><trkpt lat="45.48110040178369" lon="11.085084931456288"><ele>273.5</ele><time>2026-03-28T13:08:38.002Z</time></trkpt><trkpt lat="45.48113254592909" lon="11.08524077217231"><ele>274.0</ele><time>2026-03-28T13:08:39.002Z</time></trkpt><trkpt lat="45.481160023696496" lon="11.085412341175875"><ele>274.5</ele><time>2026-03-28T13:08:40.002Z</time></trkpt><trkpt lat="45.481181287747305" lon="11.085595249396178"><ele>275.0</ele><time>2026-03-28T13:08:41.003Z</time></trkpt><trkpt lat="45.48119028260641" lon="11.085771499520806"><ele>276.8</ele><time>2026-03-28T13:08:42.003Z</time></trkpt><trkpt lat="45.481190855303744" lon="11.085945308486078"><ele>278.6</ele><time>2026-03-28T13:08:43.003Z</time></trkpt><trkpt lat="45.481187145753836" lon="11.086098385592969"><ele>280.4</ele><time>2026-03-28T13:08:44.003Z</time></trkpt><trkpt lat="45.481181059612766" lon="11.086242338762158"><ele>282.2</ele><time>2026-03-28T13:08:45.003Z</time></trkpt><trkpt lat="45.48116362607726" lon="11.086405478180914"><ele>284.0</ele><time>2026-03-28T13:08:46.003Z</time></trkpt><trkpt lat="45.481145327947914" lon="11.086554091653374"><ele>289.0</ele><time>2026-03-28T13:08:47.003Z</time></trkpt><trkpt lat="45.48113647010217" lon="11.086724950144868"><ele>294.0</ele><time>2026-03-28T13:08:48.003Z</time></trkpt><trkpt lat="45.48111400026024" lon="11.086888686990934"><ele>299.0</ele><time>2026-03-28T13:08:49.003Z</time></trkpt><trkpt lat="45.48110726117144" lon="11.087063176217892"><ele>304.0</ele><time>2026-03-28T13:08:50.003Z</time></trkpt><trkpt lat="45.48111002832998" lon="11.087207268565193"><ele>304.0</ele><time>2026-03-28T13:08:51.003Z</time></trkpt><trkpt lat="45.48110953186978" lon="11.087332741094238"><ele>304.0</ele><time>2026-03-28T13:08:52.003Z</time></trkpt><trkpt lat="45.48112098301207" lon="11.087452447275615"><ele>304.0</ele><time>2026-03-28T13:08:53.003Z</time></trkpt><trkpt lat="45.481115200273244" lon="11.087557763638504"><ele>304.0</ele><time>2026-03-28T13:08:54.003Z</time></trkpt><trkpt lat="45.481101872201876" lon="11.087692269154479"><ele>304.0</ele><time>2026-03-28T13:08:55.003Z</time></trkpt><trkpt lat="45.481070116531114" lon="11.087825849007983"><ele>304.0</ele><time>2026-03-28T13:08:56.003Z</time></trkpt><trkpt lat="45.48103335028909" lon="11.08794625321146"><ele>308.4</ele><time>2026-03-28T13:08:57.003Z</time></trkpt><trkpt lat="45.48100454569218" lon="11.088030550737335"><ele>312.79999999999995</ele><time>2026-03-28T13:08:58.003Z</time></trkpt><trkpt lat="45.48099303435414" lon="11.088135780144412"><ele>317.20000000000005</ele><time>2026-03-28T13:08:59.003Z</time></trkpt><trkpt lat="45.48105859808493" lon="11.088267810276989"><ele>321.6</ele><time>2026-03-28T13:09:01.003Z</time></trkpt><trkpt lat="45.4811576204172" lon="11.088263878632374"><ele>326.0</ele><time>2026-03-28T13:09:02.003Z</time></trkpt><trkpt lat="45.4812514321262" lon="11.088161987975036"><ele>326.83333333333337</ele><time>2026-03-28T13:09:03.003Z</time></trkpt><trkpt lat="45.48132431827763" lon="11.08812935224629"><ele>327.6666666666667</ele><time>2026-03-28T13:09:04.003Z</time></trkpt><trkpt lat="45.48140261500013" lon="11.088126898401208"><ele>328.5</ele><time>2026-03-28T13:09:05.003Z</time></trkpt><trkpt lat="45.48148357467827" lon="11.088133569209946"><ele>329.3333333333333</ele><time>2026-03-28T13:09:06.003Z</time></trkpt><trkpt lat="45.48156382190633" lon="11.088164239742666"><ele>330.16666666666663</ele><time>2026-03-28T13:09:07.003Z</time></trkpt><trkpt lat="45.481628993698514" lon="11.088177606076831"><ele>331.0</ele><time>2026-03-28T13:09:08.003Z</time></trkpt><trkpt lat="45.48173248147289" lon="11.0882278225826"><ele>331.0</ele><time>2026-03-28T13:09:10.003Z</time></trkpt><trkpt lat="45.48178977874711" lon="11.088293187930603"><ele>331.0</ele><time>2026-03-28T13:09:14.002Z</time></trkpt><trkpt lat="45.48180321964167" lon="11.08838464761168"><ele>331.0</ele><time>2026-03-28T13:09:17.002Z</time></trkpt><trkpt lat="45.48172206875562" lon="11.088254528445216"><ele>331.0</ele><time>2026-03-28T13:09:19.002Z</time></trkpt><trkpt lat="45.48162050905875" lon="11.088202313296211"><ele>331.0</ele><time>2026-03-28T13:09:21.002Z</time></trkpt><trkpt lat="45.48158778007535" lon="11.088577751918823"><ele>333.20000000000005</ele><time>2026-03-28T13:09:23.002Z</time></trkpt><trkpt lat="45.48158102041493" lon="11.088726350663292"><ele>335.40000000000003</ele><time>2026-03-28T13:09:25.002Z</time></trkpt><trkpt lat="45.4815667816221" lon="11.088819716660407"><ele>337.6</ele><time>2026-03-28T13:09:26.002Z</time></trkpt><trkpt lat="45.481487177892134" lon="11.088935403938768"><ele>339.8</ele><time>2026-03-28T13:09:28.002Z</time></trkpt><trkpt lat="45.48137036500356" lon="11.088976485797856"><ele>342.0</ele><time>2026-03-28T13:09:30.002Z</time></trkpt><trkpt lat="45.48123673044109" lon="11.088970745078775"><ele>342.0</ele><time>2026-03-28T13:09:32.002Z</time></trkpt><trkpt lat="45.48113931500856" lon="11.088982420442434"><ele>342.0</ele><time>2026-03-28T13:09:33.002Z</time></trkpt><trkpt lat="45.481054936592535" lon="11.088980953766455"><ele>342.0</ele><time>2026-03-28T13:09:34.002Z</time></trkpt><trkpt lat="45.48093663443972" lon="11.088985250823633"><ele>342.0</ele><time>2026-03-28T13:09:35.002Z</time></trkpt><trkpt lat="45.480822478057156" lon="11.08899475229417"><ele>342.0</ele><time>2026-03-28T13:09:36.002Z</time></trkpt><trkpt lat="45.48068773100807" lon="11.08901571028897"><ele>342.0</ele><time>2026-03-28T13:09:37.002Z</time></trkpt><trkpt lat="45.480560488964066" lon="11.089022514979343"><ele>342.0</ele><time>2026-03-28T13:09:38.002Z</time></trkpt><trkpt lat="45.480421108024146" lon="11.08903542947345"><ele>342.0</ele><time>2026-03-28T13:09:39.002Z</time></trkpt><trkpt lat="45.480272381908236" lon="11.089051201576586"><ele>342.0</ele><time>2026-03-28T13:09:40.002Z</time></trkpt><trkpt lat="45.48011399194032" lon="11.089066639587344"><ele>342.75</ele><time>2026-03-28T13:09:41.002Z</time></trkpt><trkpt lat="45.47997270631626" lon="11.089078990511892"><ele>343.5</ele><time>2026-03-28T13:09:42.002Z</time></trkpt><trkpt lat="45.479848293435865" lon="11.089092530734806"><ele>344.25</ele><time>2026-03-28T13:09:43.002Z</time></trkpt><trkpt lat="45.4797371025755" lon="11.089103500254181"><ele>345.0</ele><time>2026-03-28T13:09:44.002Z</time></trkpt><trkpt lat="45.47963477237188" lon="11.089112674659868"><ele>345.4</ele><time>2026-03-28T13:09:45.002Z</time></trkpt><trkpt lat="45.47953050679677" lon="11.089112842195568"><ele>345.8</ele><time>2026-03-28T13:09:46.002Z</time></trkpt><trkpt lat="45.479423895803706" lon="11.089111593036959"><ele>346.20000000000005</ele><time>2026-03-28T13:09:47.002Z</time></trkpt><trkpt lat="45.47931346031123" lon="11.089107534203782"><ele>346.6</ele><time>2026-03-28T13:09:48.002Z</time></trkpt><trkpt lat="45.479189375899196" lon="11.089086232629988"><ele>347.0</ele><time>2026-03-28T13:09:49.002Z</time></trkpt><trkpt lat="45.47905114740514" lon="11.089057087103035"><ele>347.0</ele><time>2026-03-28T13:09:50.002Z</time></trkpt><trkpt lat="45.478915902227726" lon="11.08900882467711"><ele>347.0</ele><time>2026-03-28T13:09:51.002Z</time></trkpt><trkpt lat="45.47877292994838" lon="11.08894817344679"><ele>347.0</ele><time>2026-03-28T13:09:52.002Z</time></trkpt><trkpt lat="45.47862461370556" lon="11.088889040080323"><ele>347.0</ele><time>2026-03-28T13:09:53.002Z</time></trkpt><trkpt lat="45.47847536246037" lon="11.08883261530632"><ele>346.5</ele><time>2026-03-28T13:09:54.002Z</time></trkpt><trkpt lat="45.47835898315647" lon="11.088688373482437"><ele>346.0</ele><time>2026-03-28T13:09:55.002Z</time></trkpt><trkpt lat="45.478225330315" lon="11.088635674599288"><ele>345.5</ele><time>2026-03-28T13:09:56.002Z</time></trkpt><trkpt lat="45.47809766195137" lon="11.088586320406156"><ele>345.0</ele><time>2026-03-28T13:09:57.002Z</time></trkpt><trkpt lat="45.47797495479511" lon="11.08854157475537"><ele>346.5</ele><time>2026-03-28T13:09:58.002Z</time></trkpt><trkpt lat="45.477855709023885" lon="11.088498091195097"><ele>348.0</ele><time>2026-03-28T13:09:59.002Z</time></trkpt><trkpt lat="45.47774303293211" lon="11.08844828681453"><ele>349.5</ele><time>2026-03-28T13:10:00.002Z</time></trkpt><trkpt lat="45.47756607846796" lon="11.088396923751837"><ele>351.0</ele><time>2026-03-28T13:10:01.002Z</time></trkpt><trkpt lat="45.477355392791466" lon="11.088471257184429"><ele>351.0</ele><time>2026-03-28T13:10:02.002Z</time></trkpt><trkpt lat="45.4772072167275" lon="11.088608225677055"><ele>351.0</ele><time>2026-03-28T13:10:03.002Z</time></trkpt><trkpt lat="45.477097313411626" lon="11.088700746580198"><ele>351.0</ele><time>2026-03-28T13:10:04.002Z</time></trkpt><trkpt lat="45.477003361706984" lon="11.08875721877005"><ele>351.0</ele><time>2026-03-28T13:10:05.002Z</time></trkpt><trkpt lat="45.476894719151275" lon="11.088796836183612"><ele>353.75</ele><time>2026-03-28T13:10:06.002Z</time></trkpt><trkpt lat="45.476760550386466" lon="11.08883554789666"><ele>356.5</ele><time>2026-03-28T13:10:07.002Z</time></trkpt><trkpt lat="45.476627520756125" lon="11.08886834047118"><ele>359.25</ele><time>2026-03-28T13:10:08.002Z</time></trkpt><trkpt lat="45.47648538757267" lon="11.088920456488188"><ele>362.0</ele><time>2026-03-28T13:10:09.002Z</time></trkpt><trkpt lat="45.47635737814485" lon="11.088917490655374"><ele>362.40000000000003</ele><time>2026-03-28T13:10:10.002Z</time></trkpt><trkpt lat="45.476249205695844" lon="11.088926299783786"><ele>362.8</ele><time>2026-03-28T13:10:11.002Z</time></trkpt><trkpt lat="45.47614789389635" lon="11.088929123599444"><ele>363.2</ele><time>2026-03-28T13:10:12.002Z</time></trkpt><trkpt lat="45.47605894779944" lon="11.088919750794624"><ele>363.6</ele><time>2026-03-28T13:10:13.002Z</time></trkpt><trkpt lat="45.47596891825808" lon="11.088904443490224"><ele>364.0</ele><time>2026-03-28T13:10:14.002Z</time></trkpt><trkpt lat="45.475870937173454" lon="11.088881750541578"><ele>364.0</ele><time>2026-03-28T13:10:15.002Z</time></trkpt><trkpt lat="45.47576381940785" lon="11.088852385368703"><ele>364.0</ele><time>2026-03-28T13:10:16.002Z</time></trkpt><trkpt lat="45.475656040446005" lon="11.088812308674052"><ele>364.0</ele><time>2026-03-28T13:10:17.002Z</time></trkpt><trkpt lat="45.47553714320112" lon="11.088762941376544"><ele>364.0</ele><time>2026-03-28T13:10:18.002Z</time></trkpt><trkpt lat="45.47541407513036" lon="11.088717969858997"><ele>362.75</ele><time>2026-03-28T13:10:19.002Z</time></trkpt><trkpt lat="45.475288261857095" lon="11.088672219622566"><ele>361.5</ele><time>2026-03-28T13:10:20.002Z</time></trkpt><trkpt lat="45.47515409616406" lon="11.088624557589425"><ele>360.25</ele><time>2026-03-28T13:10:21.002Z</time></trkpt><trkpt lat="45.47501579464599" lon="11.088578186130155"><ele>359.0</ele><time>2026-03-28T13:10:22.002Z</time></trkpt><trkpt lat="45.47487506442272" lon="11.088533960235885"><ele>359.0</ele><time>2026-03-28T13:10:23.002Z</time></trkpt><trkpt lat="45.47471766640799" lon="11.088484496340422"><ele>359.0</ele><time>2026-03-28T13:10:24.002Z</time></trkpt><trkpt lat="45.47455043785345" lon="11.088454537248937"><ele>359.0</ele><time>2026-03-28T13:10:25.002Z</time></trkpt><trkpt lat="45.47439854004289" lon="11.088400726511829"><ele>358.5</ele><time>2026-03-28T13:10:26.002Z</time></trkpt><trkpt lat="45.4742685517062" lon="11.08833629934253"><ele>358.0</ele><time>2026-03-28T13:10:27.002Z</time></trkpt><trkpt lat="45.47414474377835" lon="11.088285294948294"><ele>357.5</ele><time>2026-03-28T13:10:28.002Z</time></trkpt><trkpt lat="45.474035255713694" lon="11.088239785665685"><ele>357.0</ele><time>2026-03-28T13:10:29.002Z</time></trkpt><trkpt lat="45.47391062946647" lon="11.088189364842085"><ele>357.0</ele><time>2026-03-28T13:10:30.002Z</time></trkpt><trkpt lat="45.47377594479396" lon="11.088142428815088"><ele>357.0</ele><time>2026-03-28T13:10:31.002Z</time></trkpt><trkpt lat="45.47365004530117" lon="11.088104909687331"><ele>357.0</ele><time>2026-03-28T13:10:32.002Z</time></trkpt><trkpt lat="45.47351391720446" lon="11.088065945251596"><ele>357.0</ele><time>2026-03-28T13:10:33.002Z</time></trkpt><trkpt lat="45.47338661232029" lon="11.088029506319465"><ele>355.75</ele><time>2026-03-28T13:10:34.002Z</time></trkpt><trkpt lat="45.473267548522344" lon="11.087995426266282"><ele>354.5</ele><time>2026-03-28T13:10:35.002Z</time></trkpt><trkpt lat="45.4731446732981" lon="11.087959558166826"><ele>353.25</ele><time>2026-03-28T13:10:36.002Z</time></trkpt><trkpt lat="45.473031936910424" lon="11.087923295725682"><ele>352.0</ele><time>2026-03-28T13:10:37.002Z</time></trkpt><trkpt lat="45.47290638392946" lon="11.087878386860071"><ele>351.75</ele><time>2026-03-28T13:10:38.002Z</time></trkpt><trkpt lat="45.47277777333011" lon="11.087832092645348"><ele>351.5</ele><time>2026-03-28T13:10:39.002Z</time></trkpt><trkpt lat="45.47266053271314" lon="11.087790849241179"><ele>351.25</ele><time>2026-03-28T13:10:40.002Z</time></trkpt><trkpt lat="45.47254711589139" lon="11.087753071420172"><ele>351.0</ele><time>2026-03-28T13:10:41.002Z</time></trkpt><trkpt lat="45.4724358720851" lon="11.087716089847998"><ele>351.0</ele><time>2026-03-28T13:10:42.002Z</time></trkpt><trkpt lat="45.47231577105532" lon="11.087676163980808"><ele>351.0</ele><time>2026-03-28T13:10:43.002Z</time></trkpt><trkpt lat="45.47218926703569" lon="11.087634109569892"><ele>351.0</ele><time>2026-03-28T13:10:44.002Z</time></trkpt><trkpt lat="45.47205469079515" lon="11.087591739143372"><ele>351.0</ele><time>2026-03-28T13:10:45.002Z</time></trkpt><trkpt lat="45.47193006184375" lon="11.087562766387817"><ele>350.8</ele><time>2026-03-28T13:10:46.002Z</time></trkpt><trkpt lat="45.47181895241761" lon="11.087532909632573"><ele>350.6</ele><time>2026-03-28T13:10:47.002Z</time></trkpt><trkpt lat="45.47171013383796" lon="11.087512163923238"><ele>350.4</ele><time>2026-03-28T13:10:48.002Z</time></trkpt><trkpt lat="45.47160015078691" lon="11.087493048683584"><ele>350.2</ele><time>2026-03-28T13:10:49.002Z</time></trkpt><trkpt lat="45.47149573735104" lon="11.087457652750034"><ele>350.0</ele><time>2026-03-28T13:10:50.002Z</time></trkpt><trkpt lat="45.47139318722918" lon="11.087427857799856"><ele>350.0</ele><time>2026-03-28T13:10:51.002Z</time></trkpt><trkpt lat="45.471284729828625" lon="11.08742827267571"><ele>350.0</ele><time>2026-03-28T13:10:52.002Z</time></trkpt><trkpt lat="45.47117805569837" lon="11.087379811896671"><ele>350.0</ele><time>2026-03-28T13:10:53.002Z</time></trkpt><trkpt lat="45.47108362091297" lon="11.087352012863263"><ele>350.0</ele><time>2026-03-28T13:10:54.002Z</time></trkpt><trkpt lat="45.47099146272285" lon="11.087325132065814"><ele>350.0</ele><time>2026-03-28T13:10:55.002Z</time></trkpt><trkpt lat="45.47089613202741" lon="11.087321426022129"><ele>348.4</ele><time>2026-03-28T13:10:56.002Z</time></trkpt><trkpt lat="45.470813775302766" lon="11.087293045016859"><ele>346.8</ele><time>2026-03-28T13:10:57.002Z</time></trkpt><trkpt lat="45.47072902784463" lon="11.087246187064602"><ele>345.20000000000005</ele><time>2026-03-28T13:10:59.002Z</time></trkpt><trkpt lat="45.47065171365006" lon="11.08723965415091"><ele>343.6</ele><time>2026-03-28T13:11:02.002Z</time></trkpt><trkpt lat="45.47053248511844" lon="11.087308987076318"><ele>342.0</ele><time>2026-03-28T13:11:04.003Z</time></trkpt><trkpt lat="45.47041636400837" lon="11.087486619118323"><ele>339.75</ele><time>2026-03-28T13:11:06.003Z</time></trkpt><trkpt lat="45.47035622730721" lon="11.087627294272144"><ele>337.5</ele><time>2026-03-28T13:11:07.003Z</time></trkpt><trkpt lat="45.47029735077812" lon="11.087771190400375"><ele>335.25</ele><time>2026-03-28T13:11:08.003Z</time></trkpt><trkpt lat="45.47023316713235" lon="11.08795820526565"><ele>333.0</ele><time>2026-03-28T13:11:09.003Z</time></trkpt><trkpt lat="45.47017922013606" lon="11.088127185571372"><ele>334.5</ele><time>2026-03-28T13:11:10.003Z</time></trkpt><trkpt lat="45.470106791553704" lon="11.08829055236637"><ele>336.0</ele><time>2026-03-28T13:11:11.003Z</time></trkpt><trkpt lat="45.470058152138925" lon="11.088448155694124"><ele>337.5</ele><time>2026-03-28T13:11:12.003Z</time></trkpt><trkpt lat="45.470038551289484" lon="11.088622299674025"><ele>339.0</ele><time>2026-03-28T13:11:13.003Z</time></trkpt><trkpt lat="45.4700275984581" lon="11.088770976933027"><ele>339.0</ele><time>2026-03-28T13:11:14.003Z</time></trkpt><trkpt lat="45.47000330798973" lon="11.088889267245003"><ele>339.0</ele><time>2026-03-28T13:11:15.002Z</time></trkpt><trkpt lat="45.469950072019635" lon="11.088984046080878"><ele>339.0</ele><time>2026-03-28T13:11:16.002Z</time></trkpt><trkpt lat="45.46988853305851" lon="11.0891024099934"><ele>339.0</ele><time>2026-03-28T13:11:17.002Z</time></trkpt><trkpt lat="45.469810271582205" lon="11.08922507351355"><ele>339.0</ele><time>2026-03-28T13:11:18.002Z</time></trkpt><trkpt lat="45.46971310490319" lon="11.0893490002085"><ele>337.5</ele><time>2026-03-28T13:11:19.002Z</time></trkpt><trkpt lat="45.46960284892659" lon="11.089478755518384"><ele>336.0</ele><time>2026-03-28T13:11:20.002Z</time></trkpt><trkpt lat="45.46949492242797" lon="11.089598791699435"><ele>334.5</ele><time>2026-03-28T13:11:21.002Z</time></trkpt><trkpt lat="45.469387126729046" lon="11.089720843667116"><ele>333.0</ele><time>2026-03-28T13:11:22.001Z</time></trkpt><trkpt lat="45.469283144196176" lon="11.089869188666666"><ele>336.5</ele><time>2026-03-28T13:11:23.001Z</time></trkpt><trkpt lat="45.46918566628735" lon="11.090004657038717"><ele>340.0</ele><time>2026-03-28T13:11:24.001Z</time></trkpt><trkpt lat="45.46910861496982" lon="11.090176363776777"><ele>343.5</ele><time>2026-03-28T13:11:25.001Z</time></trkpt><trkpt lat="45.46903252652892" lon="11.090361873517269"><ele>347.0</ele><time>2026-03-28T13:11:26.001Z</time></trkpt><trkpt lat="45.468925534617874" lon="11.090490202734966"><ele>347.0</ele><time>2026-03-28T13:11:27.001Z</time></trkpt><trkpt lat="45.46881400681855" lon="11.09064105744225"><ele>347.0</ele><time>2026-03-28T13:11:28.001Z</time></trkpt><trkpt lat="45.46872589655486" lon="11.090805951274248"><ele>347.0</ele><time>2026-03-28T13:11:29.001Z</time></trkpt><trkpt lat="45.46862035659618" lon="11.09093878873191"><ele>347.0</ele><time>2026-03-28T13:11:30.001Z</time></trkpt><trkpt lat="45.46853534392756" lon="11.09108624800006"><ele>347.25</ele><time>2026-03-28T13:11:31.001Z</time></trkpt><trkpt lat="45.468413394936796" lon="11.091161870793895"><ele>347.5</ele><time>2026-03-28T13:11:32.001Z</time></trkpt><trkpt lat="45.468307974655616" lon="11.09127812184715"><ele>347.75</ele><time>2026-03-28T13:11:33.001Z</time></trkpt><trkpt lat="45.468208703704505" lon="11.091387800407498"><ele>348.0</ele><time>2026-03-28T13:11:34.001Z</time></trkpt><trkpt lat="45.46810089410706" lon="11.091484532414388"><ele>348.0</ele><time>2026-03-28T13:11:35.001Z</time></trkpt><trkpt lat="45.46799062550638" lon="11.091568090863875"><ele>348.0</ele><time>2026-03-28T13:11:36.001Z</time></trkpt><trkpt lat="45.467894371221206" lon="11.09168338255185"><ele>348.0</ele><time>2026-03-28T13:11:37.001Z</time></trkpt><trkpt lat="45.46779924929486" lon="11.091789203033107"><ele>348.0</ele><time>2026-03-28T13:11:38.001Z</time></trkpt><trkpt lat="45.46770839376305" lon="11.091917451630406"><ele>347.75</ele><time>2026-03-28T13:11:39.001Z</time></trkpt><trkpt lat="45.467613656255025" lon="11.092028917766354"><ele>347.5</ele><time>2026-03-28T13:11:40.001Z</time></trkpt><trkpt lat="45.467534160364806" lon="11.092134237849862"><ele>347.25</ele><time>2026-03-28T13:11:41.001Z</time></trkpt><trkpt lat="45.46752169128729" lon="11.09232798359497"><ele>347.0</ele><time>2026-03-28T13:11:42.001Z</time></trkpt><trkpt lat="45.46751607036222" lon="11.092515645155107"><ele>347.8</ele><time>2026-03-28T13:11:43.001Z</time></trkpt><trkpt lat="45.46746367516386" lon="11.09266137987195"><ele>348.6</ele><time>2026-03-28T13:11:44.001Z</time></trkpt><trkpt lat="45.46747413040329" lon="11.09277944022333"><ele>349.40000000000003</ele><time>2026-03-28T13:11:45.001Z</time></trkpt><trkpt lat="45.46749303825268" lon="11.092905937273061"><ele>350.20000000000005</ele><time>2026-03-28T13:11:46.001Z</time></trkpt><trkpt lat="45.46750924001639" lon="11.093029619792189"><ele>351.0</ele><time>2026-03-28T13:11:47.001Z</time></trkpt><trkpt lat="45.467538722681056" lon="11.093153755849855"><ele>351.0</ele><time>2026-03-28T13:11:48.001Z</time></trkpt><trkpt lat="45.46757849455335" lon="11.093271291381512"><ele>351.0</ele><time>2026-03-28T13:11:49.001Z</time></trkpt><trkpt lat="45.46768465824127" lon="11.093281665020708"><ele>351.0</ele><time>2026-03-28T13:11:50.001Z</time></trkpt><trkpt lat="45.46776140666628" lon="11.093290754955188"><ele>351.0</ele><time>2026-03-28T13:11:51.001Z</time></trkpt><trkpt lat="45.467830026538614" lon="11.093332371654798"><ele>351.0</ele><time>2026-03-28T13:11:52.001Z</time></trkpt><trkpt lat="45.46789914682342" lon="11.093416237091926"><ele>351.0</ele><time>2026-03-28T13:11:53.001Z</time></trkpt><trkpt lat="45.46796764979833" lon="11.09348302940085"><ele>351.0</ele><time>2026-03-28T13:11:54.001Z</time></trkpt><trkpt lat="45.4680566631913" lon="11.093477922722982"><ele>351.0</ele><time>2026-03-28T13:11:55.001Z</time></trkpt><trkpt lat="45.46812902848027" lon="11.093471794927593"><ele>351.0</ele><time>2026-03-28T13:11:56.001Z</time></trkpt><trkpt lat="45.46817174505091" lon="11.093539171902744"><ele>351.0</ele><time>2026-03-28T13:11:57.001Z</time></trkpt><trkpt lat="45.46821105174565" lon="11.093629847603225"><ele>351.0</ele><time>2026-03-28T13:11:58.001Z</time></trkpt><trkpt lat="45.46823800805253" lon="11.093822022575502"><ele>351.0</ele><time>2026-03-28T13:11:59.001Z</time></trkpt><trkpt lat="45.46828859743708" lon="11.093943813859216"><ele>351.0</ele><time>2026-03-28T13:12:00.001Z</time></trkpt><trkpt lat="45.46834786747934" lon="11.094077010777253"><ele>351.0</ele><time>2026-03-28T13:12:01.001Z</time></trkpt><trkpt lat="45.4683944451263" lon="11.094203270717726"><ele>351.0</ele><time>2026-03-28T13:12:02.001Z</time></trkpt><trkpt lat="45.46843608035123" lon="11.094334319023252"><ele>351.0</ele><time>2026-03-28T13:12:03.001Z</time></trkpt><trkpt lat="45.46844043730926" lon="11.094432014803163"><ele>351.0</ele><time>2026-03-28T13:12:04.001Z</time></trkpt><trkpt lat="45.46847250997085" lon="11.094525317444853"><ele>350.0</ele><time>2026-03-28T13:12:05.001Z</time></trkpt><trkpt lat="45.46851494697281" lon="11.094605427552716"><ele>349.0</ele><time>2026-03-28T13:12:06.001Z</time></trkpt><trkpt lat="45.46857312925135" lon="11.094660812573222"><ele>348.0</ele><time>2026-03-28T13:12:07.001Z</time></trkpt><trkpt lat="45.46863725560124" lon="11.094702558735884"><ele>347.0</ele><time>2026-03-28T13:12:08.001Z</time></trkpt><trkpt lat="45.468749875458485" lon="11.094726422853816"><ele>346.0</ele><time>2026-03-28T13:12:10.001Z</time></trkpt><trkpt lat="45.468838990229486" lon="11.094699788183105"><ele>345.0</ele><time>2026-03-28T13:12:12.001Z</time></trkpt><trkpt lat="45.468940706682666" lon="11.094643212212999"><ele>344.6</ele><time>2026-03-28T13:12:14.001Z</time></trkpt><trkpt lat="45.46900348629006" lon="11.094666344683693"><ele>344.2</ele><time>2026-03-28T13:12:16.001Z</time></trkpt><trkpt lat="45.4690224871907" lon="11.094802909204493"><ele>343.79999999999995</ele><time>2026-03-28T13:12:19.001Z</time></trkpt><trkpt lat="45.46904956130253" lon="11.094970457780496"><ele>343.4</ele><time>2026-03-28T13:12:21.001Z</time></trkpt><trkpt lat="45.46905185498616" lon="11.095098859965404"><ele>343.0</ele><time>2026-03-28T13:12:23.001Z</time></trkpt><trkpt lat="45.46898314752953" lon="11.095193314920088"><ele>340.59999999999997</ele><time>2026-03-28T13:12:25.001Z</time></trkpt><trkpt lat="45.468920776650776" lon="11.095229255994095"><ele>338.2</ele><time>2026-03-28T13:12:26.001Z</time></trkpt><trkpt lat="45.46885194146079" lon="11.095289327375271"><ele>335.8</ele><time>2026-03-28T13:12:27.001Z</time></trkpt><trkpt lat="45.468774873917624" lon="11.095384951325718"><ele>333.4</ele><time>2026-03-28T13:12:28.001Z</time></trkpt><trkpt lat="45.46870186622876" lon="11.095479826467596"><ele>331.0</ele><time>2026-03-28T13:12:29.001Z</time></trkpt><trkpt lat="45.46861861282112" lon="11.095566976949224"><ele>331.0</ele><time>2026-03-28T13:12:30.001Z</time></trkpt><trkpt lat="45.468533673151946" lon="11.095649794177023"><ele>331.0</ele><time>2026-03-28T13:12:31.001Z</time></trkpt><trkpt lat="45.46846177593085" lon="11.095712855354217"><ele>331.0</ele><time>2026-03-28T13:12:32.001Z</time></trkpt><trkpt lat="45.46840082287391" lon="11.09575741749958"><ele>331.0</ele><time>2026-03-28T13:12:33.001Z</time></trkpt><trkpt lat="45.46829631288338" lon="11.095809148466818"><ele>331.0</ele><time>2026-03-28T13:12:35.001Z</time></trkpt><trkpt lat="45.468313985724514" lon="11.095905279268333"><ele>331.0</ele><time>2026-03-28T13:12:38.001Z</time></trkpt><trkpt lat="45.4684445664378" lon="11.095871803917793"><ele>326.25</ele><time>2026-03-28T13:12:40.001Z</time></trkpt><trkpt lat="45.468550875222945" lon="11.095864897410294"><ele>321.5</ele><time>2026-03-28T13:12:41.001Z</time></trkpt><trkpt lat="45.46865471833534" lon="11.09587860163094"><ele>316.75</ele><time>2026-03-28T13:12:42.001Z</time></trkpt><trkpt lat="45.46877932854699" lon="11.095866582743811"><ele>312.0</ele><time>2026-03-28T13:12:43.001Z</time></trkpt><trkpt lat="45.46891238238754" lon="11.095851493695747"><ele>311.6</ele><time>2026-03-28T13:12:44.001Z</time></trkpt><trkpt lat="45.46903630691982" lon="11.095816528604345"><ele>311.2</ele><time>2026-03-28T13:12:45.001Z</time></trkpt><trkpt lat="45.46918010999018" lon="11.095783553313037"><ele>310.8</ele><time>2026-03-28T13:12:46.001Z</time></trkpt><trkpt lat="45.469248418231686" lon="11.095777400310702"><ele>310.4</ele><time>2026-03-28T13:12:47.001Z</time></trkpt><trkpt lat="45.46931522568097" lon="11.095760102655143"><ele>310.0</ele><time>2026-03-28T13:12:48.001Z</time></trkpt><trkpt lat="45.469376944261086" lon="11.095740265860972"><ele>310.0</ele><time>2026-03-28T13:12:49.001Z</time></trkpt><trkpt lat="45.46948444661664" lon="11.09573073682515"><ele>310.0</ele><time>2026-03-28T13:12:51.001Z</time></trkpt><trkpt lat="45.46953740598339" lon="11.095813401440163"><ele>310.0</ele><time>2026-03-28T13:12:53.001Z</time></trkpt><trkpt lat="45.46949480464374" lon="11.095923880140335"><ele>310.0</ele><time>2026-03-28T13:12:55.002Z</time></trkpt><trkpt lat="45.469433444385245" lon="11.09595887673486"><ele>310.0</ele><time>2026-03-28T13:12:56.002Z</time></trkpt><trkpt lat="45.46935861292334" lon="11.096001761629847"><ele>310.0</ele><time>2026-03-28T13:12:57.002Z</time></trkpt><trkpt lat="45.469262179985954" lon="11.096077373455383"><ele>310.0</ele><time>2026-03-28T13:12:58.002Z</time></trkpt><trkpt lat="45.46916995743593" lon="11.096156930129128"><ele>310.0</ele><time>2026-03-28T13:12:59.002Z</time></trkpt><trkpt lat="45.4690692691066" lon="11.096245033814018"><ele>310.0</ele><time>2026-03-28T13:13:00.002Z</time></trkpt><trkpt lat="45.468965213231755" lon="11.096323957874024"><ele>310.0</ele><time>2026-03-28T13:13:01.002Z</time></trkpt><trkpt lat="45.46886094849928" lon="11.096392054034792"><ele>310.5</ele><time>2026-03-28T13:13:02.002Z</time></trkpt><trkpt lat="45.46875092712186" lon="11.096457686908476"><ele>311.0</ele><time>2026-03-28T13:13:03.002Z</time></trkpt><trkpt lat="45.468626872002815" lon="11.096526870923517"><ele>311.5</ele><time>2026-03-28T13:13:04.002Z</time></trkpt><trkpt lat="45.46850610568018" lon="11.096605214222068"><ele>312.0</ele><time>2026-03-28T13:13:05.002Z</time></trkpt><trkpt lat="45.468383816902914" lon="11.09668664398538"><ele>306.0</ele><time>2026-03-28T13:13:06.002Z</time></trkpt><trkpt lat="45.46826630763108" lon="11.096762533908377"><ele>300.0</ele><time>2026-03-28T13:13:07.002Z</time></trkpt><trkpt lat="45.468161541756565" lon="11.096829074084834"><ele>294.0</ele><time>2026-03-28T13:13:08.002Z</time></trkpt><trkpt lat="45.46805153430871" lon="11.096886255934606"><ele>288.0</ele><time>2026-03-28T13:13:09.002Z</time></trkpt><trkpt lat="45.46794360416344" lon="11.096941489622703"><ele>288.3333333333333</ele><time>2026-03-28T13:13:10.002Z</time></trkpt><trkpt lat="45.46784748135573" lon="11.096978218894105"><ele>288.6666666666667</ele><time>2026-03-28T13:13:11.002Z</time></trkpt><trkpt lat="45.467785131168284" lon="11.097018179822415"><ele>289.0</ele><time>2026-03-28T13:13:12.002Z</time></trkpt><trkpt lat="45.4677048324002" lon="11.097154894602706"><ele>289.33333333333337</ele><time>2026-03-28T13:13:14.002Z</time></trkpt><trkpt lat="45.467683584303224" lon="11.097251404625693"><ele>289.6666666666667</ele><time>2026-03-28T13:13:15.002Z</time></trkpt><trkpt lat="45.467678805534796" lon="11.097351356598635"><ele>290.0</ele><time>2026-03-28T13:13:16.002Z</time></trkpt><trkpt lat="45.467682287823166" lon="11.09744177402465"><ele>287.0</ele><time>2026-03-28T13:13:17.002Z</time></trkpt><trkpt lat="45.46766452420267" lon="11.09759778149058"><ele>284.0</ele><time>2026-03-28T13:13:19.002Z</time></trkpt><trkpt lat="45.4675649094443" lon="11.09765967936777"><ele>281.0</ele><time>2026-03-28T13:13:21.001Z</time></trkpt><trkpt lat="45.46749367484371" lon="11.097671757761063"><ele>278.0</ele><time>2026-03-28T13:13:22.001Z</time></trkpt><trkpt lat="45.46741430986183" lon="11.097681919158415"><ele>275.0</ele><time>2026-03-28T13:13:23.001Z</time></trkpt><trkpt lat="45.46732145436511" lon="11.097686709668585"><ele>275.0</ele><time>2026-03-28T13:13:24.001Z</time></trkpt><trkpt lat="45.467231284395496" lon="11.097687435249327"><ele>275.0</ele><time>2026-03-28T13:13:25.001Z</time></trkpt><trkpt lat="45.46712713508802" lon="11.097685154662754"><ele>275.0</ele><time>2026-03-28T13:13:26.001Z</time></trkpt><trkpt lat="45.46702191819213" lon="11.097679122666616"><ele>275.0</ele><time>2026-03-28T13:13:27.001Z</time></trkpt><trkpt lat="45.46690398894971" lon="11.097670362004239"><ele>275.0</ele><time>2026-03-28T13:13:28.001Z</time></trkpt><trkpt lat="45.46679515612333" lon="11.097665758933513"><ele>274.8</ele><time>2026-03-28T13:13:29.001Z</time></trkpt><trkpt lat="45.46669927093043" lon="11.097665043918552"><ele>274.6</ele><time>2026-03-28T13:13:30.001Z</time></trkpt><trkpt lat="45.466610642248426" lon="11.097674755557806"><ele>274.4</ele><time>2026-03-28T13:13:31.001Z</time></trkpt><trkpt lat="45.46652457071797" lon="11.097683483564962"><ele>274.2</ele><time>2026-03-28T13:13:32.001Z</time></trkpt><trkpt lat="45.46644548815944" lon="11.097688260571818"><ele>274.0</ele><time>2026-03-28T13:13:33.001Z</time></trkpt><trkpt lat="45.46633570211422" lon="11.097694868457383"><ele>273.0</ele><time>2026-03-28T13:13:35.001Z</time></trkpt><trkpt lat="45.46626206744965" lon="11.097707803630259"><ele>272.0</ele><time>2026-03-28T13:13:37.001Z</time></trkpt><trkpt lat="45.46616280558026" lon="11.097687345028238"><ele>271.0</ele><time>2026-03-28T13:13:39.001Z</time></trkpt><trkpt lat="45.46607388842729" lon="11.097615839922028"><ele>270.0</ele><time>2026-03-28T13:13:41.001Z</time></trkpt><trkpt lat="45.46600005957494" lon="11.097587616622114"><ele>269.0</ele><time>2026-03-28T13:13:43.001Z</time></trkpt><trkpt lat="45.46591229525691" lon="11.097641165429716"><ele>268.0</ele><time>2026-03-28T13:13:45.001Z</time></trkpt><trkpt lat="45.465843594937695" lon="11.097688693817188"><ele>268.0</ele><time>2026-03-28T13:13:46.001Z</time></trkpt><trkpt lat="45.4657800359545" lon="11.097756047809913"><ele>268.0</ele><time>2026-03-28T13:13:47.001Z</time></trkpt><trkpt lat="45.46573787820339" lon="11.09784441425262"><ele>268.0</ele><time>2026-03-28T13:13:48.001Z</time></trkpt><trkpt lat="45.46572217599947" lon="11.097952777566753"><ele>268.0</ele><time>2026-03-28T13:13:50.001Z</time></trkpt><trkpt lat="45.46576858548134" lon="11.098057319931735"><ele>268.0</ele><time>2026-03-28T13:13:52.001Z</time></trkpt><trkpt lat="45.46582786313174" lon="11.098150952753395"><ele>268.0</ele><time>2026-03-28T13:13:54.001Z</time></trkpt><trkpt lat="45.46585708485433" lon="11.098302894215397"><ele>265.16666666666663</ele><time>2026-03-28T13:13:56.001Z</time></trkpt><trkpt lat="45.4659408126983" lon="11.098414267490208"><ele>262.3333333333333</ele><time>2026-03-28T13:13:58.001Z</time></trkpt><trkpt lat="45.465887076992644" lon="11.098507830971378"><ele>259.5</ele><time>2026-03-28T13:14:01.001Z</time></trkpt><trkpt lat="45.46582090680663" lon="11.098522306409963"><ele>256.6666666666667</ele><time>2026-03-28T13:14:02.001Z</time></trkpt><trkpt lat="45.4657475344127" lon="11.098553798952159"><ele>253.83333333333334</ele><time>2026-03-28T13:14:03.001Z</time></trkpt><trkpt lat="45.46566538556946" lon="11.098590390447479"><ele>251.0</ele><time>2026-03-28T13:14:04.001Z</time></trkpt><trkpt lat="45.465599050944704" lon="11.098630653861761"><ele>251.0</ele><time>2026-03-28T13:14:05.001Z</time></trkpt><trkpt lat="45.465513321398" lon="11.098777344324985"><ele>251.00000000000003</ele><time>2026-03-28T13:14:07.001Z</time></trkpt><trkpt lat="45.465508519031225" lon="11.098883484748626"><ele>251.00000000000003</ele><time>2026-03-28T13:14:08.001Z</time></trkpt><trkpt lat="45.46552614222385" lon="11.09899220828147"><ele>251.0</ele><time>2026-03-28T13:14:09.001Z</time></trkpt><trkpt lat="45.46554249956161" lon="11.09912007148562"><ele>251.0</ele><time>2026-03-28T13:14:10.001Z</time></trkpt><trkpt lat="45.4655368368901" lon="11.09923622445783"><ele>249.00000000000003</ele><time>2026-03-28T13:14:11.001Z</time></trkpt><trkpt lat="45.46552178663098" lon="11.099358694539013"><ele>247.0</ele><time>2026-03-28T13:14:12.001Z</time></trkpt><trkpt lat="45.4655026156382" lon="11.099472686550103"><ele>245.0</ele><time>2026-03-28T13:14:13.001Z</time></trkpt><trkpt lat="45.46548541669337" lon="11.099569381089045"><ele>243.0</ele><time>2026-03-28T13:14:14.001Z</time></trkpt><trkpt lat="45.4654632954369" lon="11.099661291688433"><ele>241.00000000000003</ele><time>2026-03-28T13:14:15.001Z</time></trkpt><trkpt lat="45.46542672855222" lon="11.099799666121179"><ele>239.0</ele><time>2026-03-28T13:14:17.001Z</time></trkpt><trkpt lat="45.46541525468767" lon="11.099923003041637"><ele>237.00000000000003</ele><time>2026-03-28T13:14:19.001Z</time></trkpt><trkpt lat="45.465423534675665" lon="11.100048986380738"><ele>235.0</ele><time>2026-03-28T13:14:21.001Z</time></trkpt><trkpt lat="45.46543868625053" lon="11.100141346581973"><ele>233.0</ele><time>2026-03-28T13:14:23.001Z</time></trkpt><trkpt lat="45.46544692576555" lon="11.100278177735255"><ele>231.0</ele><time>2026-03-28T13:14:25.001Z</time></trkpt><trkpt lat="45.46540972760495" lon="11.100399183239457"><ele>229.00000000000003</ele><time>2026-03-28T13:14:27.001Z</time></trkpt><trkpt lat="45.46533002967129" lon="11.100489989027645"><ele>227.0</ele><time>2026-03-28T13:14:29.001Z</time></trkpt><trkpt lat="45.465222831446" lon="11.100581382305357"><ele>227.0</ele><time>2026-03-28T13:14:31.001Z</time></trkpt><trkpt lat="45.465130148048345" lon="11.100621658116722"><ele>227.0</ele><time>2026-03-28T13:14:32.001Z</time></trkpt><trkpt lat="45.46504451920987" lon="11.100666335806926"><ele>227.0</ele><time>2026-03-28T13:14:33.001Z</time></trkpt><trkpt lat="45.464946227546804" lon="11.10069335621962"><ele>227.0</ele><time>2026-03-28T13:14:35.001Z</time></trkpt><trkpt lat="45.46486192756785" lon="11.100726646343388"><ele>227.0</ele><time>2026-03-28T13:14:37.001Z</time></trkpt><trkpt lat="45.46478649330789" lon="11.100750442675494"><ele>227.00000000000003</ele><time>2026-03-28T13:14:39.001Z</time></trkpt><trkpt lat="45.464704543432234" lon="11.10077040934971"><ele>227.0</ele><time>2026-03-28T13:14:41.001Z</time></trkpt><trkpt lat="45.46463936773142" lon="11.10067118925643"><ele>227.0</ele><time>2026-03-28T13:14:43.001Z</time></trkpt><trkpt lat="45.46458688211989" lon="11.10059969863964"><ele>227.0</ele><time>2026-03-28T13:14:45.001Z</time></trkpt><trkpt lat="45.46452021567754" lon="11.100590448818577"><ele>227.00000000000003</ele><time>2026-03-28T13:14:47.001Z</time></trkpt><trkpt lat="45.464486854699445" lon="11.10069357621791"><ele>227.0</ele><time>2026-03-28T13:14:49.001Z</time></trkpt><trkpt lat="45.46449279981984" lon="11.100839738700694"><ele>223.6</ele><time>2026-03-28T13:14:51.001Z</time></trkpt><trkpt lat="45.4644840140236" lon="11.100955539993677"><ele>220.2</ele><time>2026-03-28T13:14:53.001Z</time></trkpt><trkpt lat="45.4644452706336" lon="11.101074616229717"><ele>216.8</ele><time>2026-03-28T13:14:55.001Z</time></trkpt><trkpt lat="45.464372505646914" lon="11.101226503564407"><ele>213.4</ele><time>2026-03-28T13:14:57.001Z</time></trkpt><trkpt lat="45.46432428748433" lon="11.101312557115236"><ele>210.0</ele><time>2026-03-28T13:14:59.001Z</time></trkpt><trkpt lat="45.46428995422152" lon="11.101418452839404"><ele>210.0</ele><time>2026-03-28T13:15:00.001Z</time></trkpt><trkpt lat="45.464269078972315" lon="11.101515268816566"><ele>210.0</ele><time>2026-03-28T13:15:01.001Z</time></trkpt><trkpt lat="45.464266019585125" lon="11.10165154709247"><ele>210.0</ele><time>2026-03-28T13:15:03.001Z</time></trkpt><trkpt lat="45.46431095782172" lon="11.101726533457267"><ele>210.0</ele><time>2026-03-28T13:15:05.001Z</time></trkpt><trkpt lat="45.46434961778426" lon="11.101845432566448"><ele>210.0</ele><time>2026-03-28T13:15:07.001Z</time></trkpt><trkpt lat="45.464389886258715" lon="11.101947198469029"><ele>210.0</ele><time>2026-03-28T13:15:09.001Z</time></trkpt><trkpt lat="45.464431198835754" lon="11.10207326120997"><ele>207.8</ele><time>2026-03-28T13:15:11.001Z</time></trkpt><trkpt lat="45.46449640263503" lon="11.102166187222258"><ele>205.6</ele><time>2026-03-28T13:15:13.001Z</time></trkpt><trkpt lat="45.46461029891177" lon="11.102246977422238"><ele>203.39999999999998</ele><time>2026-03-28T13:15:15.001Z</time></trkpt><trkpt lat="45.46468173591084" lon="11.102285674815962"><ele>201.2</ele><time>2026-03-28T13:15:16.001Z</time></trkpt><trkpt lat="45.46476705615948" lon="11.102342897498776"><ele>199.0</ele><time>2026-03-28T13:15:17.001Z</time></trkpt><trkpt lat="45.46483163483049" lon="11.10239000498156"><ele>195.99999999999997</ele><time>2026-03-28T13:15:18.001Z</time></trkpt><trkpt lat="45.46488782604829" lon="11.102433408992443"><ele>193.0</ele><time>2026-03-28T13:15:19.001Z</time></trkpt><trkpt lat="45.46494250261264" lon="11.102477923588616"><ele>190.0</ele><time>2026-03-28T13:15:20.001Z</time></trkpt><trkpt lat="45.46504010312021" lon="11.102540840752349"><ele>187.0</ele><time>2026-03-28T13:15:22.001Z</time></trkpt><trkpt lat="45.46513689250689" lon="11.102503814366424"><ele>184.0</ele><time>2026-03-28T13:15:24.001Z</time></trkpt><trkpt lat="45.46520721337184" lon="11.102494429636762"><ele>181.0</ele><time>2026-03-28T13:15:25.001Z</time></trkpt><trkpt lat="45.465259669443626" lon="11.10256121022091"><ele>181.0</ele><time>2026-03-28T13:15:26.001Z</time></trkpt><trkpt lat="45.46528858724576" lon="11.102647409660827"><ele>181.0</ele><time>2026-03-28T13:15:27.001Z</time></trkpt><trkpt lat="45.465368415515414" lon="11.102747210223393"><ele>181.0</ele><time>2026-03-28T13:15:29.001Z</time></trkpt><trkpt lat="45.46543527812516" lon="11.102749413033457"><ele>181.0</ele><time>2026-03-28T13:15:30.001Z</time></trkpt><trkpt lat="45.465506702191874" lon="11.10273178065004"><ele>181.0</ele><time>2026-03-28T13:15:31.001Z</time></trkpt><trkpt lat="45.465572996663745" lon="11.102709635282805"><ele>181.0</ele><time>2026-03-28T13:15:32.001Z</time></trkpt><trkpt lat="45.46563901413863" lon="11.102696365709885"><ele>181.0</ele><time>2026-03-28T13:15:33.001Z</time></trkpt><trkpt lat="45.46570579954979" lon="11.102656047139803"><ele>179.0</ele><time>2026-03-28T13:15:34.001Z</time></trkpt><trkpt lat="45.465770338832016" lon="11.102623582790407"><ele>177.0</ele><time>2026-03-28T13:15:35.001Z</time></trkpt><trkpt lat="45.46587432841818" lon="11.10262080618823"><ele>175.0</ele><time>2026-03-28T13:15:37.001Z</time></trkpt><trkpt lat="45.46596744192033" lon="11.10274218886637"><ele>173.0</ele><time>2026-03-28T13:15:39.001Z</time></trkpt><trkpt lat="45.466022287164755" lon="11.102802484009349"><ele>171.0</ele><time>2026-03-28T13:15:40.001Z</time></trkpt><trkpt lat="45.46615223728601" lon="11.102798306581812"><ele>171.0</ele><time>2026-03-28T13:15:42.001Z</time></trkpt><trkpt lat="45.46622338781067" lon="11.102798071936794"><ele>171.0</ele><time>2026-03-28T13:15:43.001Z</time></trkpt><trkpt lat="45.4663269432692" lon="11.102866888437697"><ele>171.0</ele><time>2026-03-28T13:15:45.001Z</time></trkpt><trkpt lat="45.46636174405621" lon="11.102949900854204"><ele>171.0</ele><time>2026-03-28T13:15:46.001Z</time></trkpt><trkpt lat="45.46640098029962" lon="11.103035547649425"><ele>171.0</ele><time>2026-03-28T13:15:47.001Z</time></trkpt><trkpt lat="45.46644407367959" lon="11.103118306418889"><ele>171.0</ele><time>2026-03-28T13:15:48.001Z</time></trkpt><trkpt lat="45.466493986601144" lon="11.103203904084271"><ele>165.83333333333334</ele><time>2026-03-28T13:15:49.001Z</time></trkpt><trkpt lat="45.466543177685445" lon="11.10329675395469"><ele>160.66666666666666</ele><time>2026-03-28T13:15:50.001Z</time></trkpt><trkpt lat="45.46658887517408" lon="11.103386098718076"><ele>155.5</ele><time>2026-03-28T13:15:51.001Z</time></trkpt><trkpt lat="45.46662886254099" lon="11.103483634278925"><ele>150.33333333333331</ele><time>2026-03-28T13:15:52.001Z</time></trkpt><trkpt lat="45.46665837063965" lon="11.10358062015199"><ele>145.16666666666666</ele><time>2026-03-28T13:15:53.001Z</time></trkpt><trkpt lat="45.46670567127654" lon="11.103730104663908"><ele>140.0</ele><time>2026-03-28T13:15:55.001Z</time></trkpt><trkpt lat="45.46674858239506" lon="11.103814026050465"><ele>140.0</ele><time>2026-03-28T13:15:57.001Z</time></trkpt><trkpt lat="45.466796507031646" lon="11.10387874756258"><ele>140.0</ele><time>2026-03-28T13:17:25.001Z</time></trkpt><trkpt lat="45.46675671844542" lon="11.10397263840415"><ele>140.0</ele><time>2026-03-28T13:17:30.001Z</time></trkpt><trkpt lat="45.4667910756037" lon="11.104056926072579"><ele>140.0</ele><time>2026-03-28T13:17:32.001Z</time></trkpt><trkpt lat="45.46675410736272" lon="11.104152677706677"><ele>140.0</ele><time>2026-03-28T13:17:36.001Z</time></trkpt><trkpt lat="45.46671857482723" lon="11.104244726150606"><ele>140.0</ele><time>2026-03-28T13:17:39.001Z</time></trkpt><trkpt lat="45.46664048848213" lon="11.104365788083777"><ele>139.2</ele><time>2026-03-28T13:17:41.001Z</time></trkpt><trkpt lat="45.46650201317602" lon="11.10431160941694"><ele>138.4</ele><time>2026-03-28T13:17:43.001Z</time></trkpt><trkpt lat="45.466431991461164" lon="11.104397723149864"><ele>137.6</ele><time>2026-03-28T13:17:45.001Z</time></trkpt><trkpt lat="45.46637673364199" lon="11.104465679561837"><ele>136.8</ele><time>2026-03-28T13:17:47.001Z</time></trkpt><trkpt lat="45.466308287619015" lon="11.104549855079016"><ele>136.0</ele><time>2026-03-28T13:17:49.001Z</time></trkpt><trkpt lat="45.466245037472454" lon="11.10462367798328"><ele>136.0</ele><time>2026-03-28T13:17:51.001Z</time></trkpt><trkpt lat="45.46616196604482" lon="11.104714030495023"><ele>136.0</ele><time>2026-03-28T13:17:53.001Z</time></trkpt><trkpt lat="45.46607747541931" lon="11.104799508225208"><ele>136.0</ele><time>2026-03-28T13:17:55.001Z</time></trkpt><trkpt lat="45.466000605279646" lon="11.104870172821864"><ele>136.0</ele><time>2026-03-28T13:17:57.001Z</time></trkpt><trkpt lat="45.46592783321173" lon="11.104929002278618"><ele>136.0</ele><time>2026-03-28T13:17:59.001Z</time></trkpt><trkpt lat="45.465835972028344" lon="11.104994592872467"><ele>134.8</ele><time>2026-03-28T13:18:01.001Z</time></trkpt><trkpt lat="45.465760202878656" lon="11.105035566465894"><ele>133.6</ele><time>2026-03-28T13:18:04.001Z</time></trkpt><trkpt lat="45.46569827467489" lon="11.105241354094051"><ele>132.4</ele><time>2026-03-28T13:18:11.001Z</time></trkpt><trkpt lat="45.46565752810884" lon="11.105323420833725"><ele>131.2</ele><time>2026-03-28T13:18:16.001Z</time></trkpt><trkpt lat="45.46559986788247" lon="11.105409625396089"><ele>130.0</ele><time>2026-03-28T13:18:18.001Z</time></trkpt><trkpt lat="45.46557305503559" lon="11.105506110123777"><ele>130.0</ele><time>2026-03-28T13:18:20.001Z</time></trkpt><trkpt lat="45.465519506727354" lon="11.105660966928383"><ele>130.0</ele><time>2026-03-28T13:18:22.001Z</time></trkpt><trkpt lat="45.465450567235465" lon="11.105784000316856"><ele>130.0</ele><time>2026-03-28T13:18:24.001Z</time></trkpt><trkpt lat="45.4653979768243" lon="11.10590172333584"><ele>130.0</ele><time>2026-03-28T13:18:26.001Z</time></trkpt><trkpt lat="45.465340796465746" lon="11.106036348014538"><ele>130.0</ele><time>2026-03-28T13:18:28.001Z</time></trkpt><trkpt lat="45.46528766926673" lon="11.106156986919684"><ele>129.0</ele><time>2026-03-28T13:18:30.001Z</time></trkpt><trkpt lat="45.46524328834868" lon="11.1062468284877"><ele>128.0</ele><time>2026-03-28T13:18:31.001Z</time></trkpt><trkpt lat="45.46519421085319" lon="11.106351109523853"><ele>127.0</ele><time>2026-03-28T13:18:33.001Z</time></trkpt><trkpt lat="45.46514778323667" lon="11.106448497339441"><ele>126.0</ele><time>2026-03-28T13:18:35.001Z</time></trkpt><trkpt lat="45.46510382945098" lon="11.106550606219757"><ele>125.00000000000001</ele><time>2026-03-28T13:18:37.001Z</time></trkpt><trkpt lat="45.46507739152868" lon="11.106635927092738"><ele>124.0</ele><time>2026-03-28T13:18:40.001Z</time></trkpt><trkpt lat="45.465011230087825" lon="11.106756329691253"><ele>123.6</ele><time>2026-03-28T13:18:45.001Z</time></trkpt><trkpt lat="45.464973029778854" lon="11.106850477996831"><ele>123.2</ele><time>2026-03-28T13:18:47.001Z</time></trkpt><trkpt lat="45.464907695913254" lon="11.106973349041418"><ele>122.79999999999998</ele><time>2026-03-28T13:18:49.001Z</time></trkpt><trkpt lat="45.46482246395411" lon="11.107094017485252"><ele>122.39999999999999</ele><time>2026-03-28T13:18:51.001Z</time></trkpt><trkpt lat="45.464746362092974" lon="11.107177926757615"><ele>122.0</ele><time>2026-03-28T13:18:53.001Z</time></trkpt><trkpt lat="45.46465924346668" lon="11.107245288585503"><ele>121.49999999999999</ele><time>2026-03-28T13:18:55.001Z</time></trkpt><trkpt lat="45.46458120314389" lon="11.107307017990031"><ele>121.0</ele><time>2026-03-28T13:18:57.001Z</time></trkpt><trkpt lat="45.46451708382235" lon="11.107307396069757"><ele>120.5</ele><time>2026-03-28T13:19:01.001Z</time></trkpt><trkpt lat="45.46444909605652" lon="11.107328658908534"><ele>120.0</ele><time>2026-03-28T13:19:04.001Z</time></trkpt><trkpt lat="45.46436750848134" lon="11.10736521169517"><ele>119.49999999999999</ele><time>2026-03-28T13:19:06.001Z</time></trkpt><trkpt lat="45.464297243241774" lon="11.107389303410505"><ele>119.0</ele><time>2026-03-28T13:19:12.001Z</time></trkpt><trkpt lat="45.46423054331607" lon="11.107419153495547"><ele>119.0</ele><time>2026-03-28T13:19:14.001Z</time></trkpt><trkpt lat="45.464151975493074" lon="11.10748606406296"><ele>119.0</ele><time>2026-03-28T13:19:16.001Z</time></trkpt><trkpt lat="45.46406017406476" lon="11.107594579786097"><ele>119.0</ele><time>2026-03-28T13:19:18.001Z</time></trkpt><trkpt lat="45.4639718221337" lon="11.107709930390953"><ele>119.0</ele><time>2026-03-28T13:19:20.001Z</time></trkpt><trkpt lat="45.46389731421666" lon="11.107790407190286"><ele>119.0</ele><time>2026-03-28T13:19:22.001Z</time></trkpt><trkpt lat="45.46383517350137" lon="11.107858818422102"><ele>118.99999999999999</ele><time>2026-03-28T13:19:24.001Z</time></trkpt><trkpt lat="45.46378176987173" lon="11.107924244138056"><ele>119.0</ele><time>2026-03-28T13:19:26.001Z</time></trkpt><trkpt lat="45.46373179727834" lon="11.107986718237434"><ele>119.0</ele><time>2026-03-28T13:19:28.001Z</time></trkpt><trkpt lat="45.46366292923191" lon="11.108043766377003"><ele>119.0</ele><time>2026-03-28T13:19:30.001Z</time></trkpt><trkpt lat="45.46360190679461" lon="11.108069602878983"><ele>118.99999999999999</ele><time>2026-03-28T13:19:32.001Z</time></trkpt><trkpt lat="45.463497740781875" lon="11.108124849375987"><ele>119.0</ele><time>2026-03-28T13:19:35.001Z</time></trkpt><trkpt lat="45.46340512492782" lon="11.10816293274706"><ele>118.66666666666666</ele><time>2026-03-28T13:19:38.001Z</time></trkpt><trkpt lat="45.463334521819725" lon="11.108214220711124"><ele>118.33333333333333</ele><time>2026-03-28T13:19:41.001Z</time></trkpt><trkpt lat="45.46325022463964" lon="11.108249180643224"><ele>118.0</ele><time>2026-03-28T13:19:44.001Z</time></trkpt><trkpt lat="45.46317493238649" lon="11.108285389601221"><ele>117.66666666666666</ele><time>2026-03-28T13:19:46.001Z</time></trkpt><trkpt lat="45.46311021090089" lon="11.108318619286422"><ele>117.33333333333333</ele><time>2026-03-28T13:19:50.001Z</time></trkpt><trkpt lat="45.463013768257845" lon="11.108360111268508"><ele>117.0</ele><time>2026-03-28T13:23:36Z</time></trkpt><trkpt lat="45.462937201850146" lon="11.10839595850793"><ele>116.14285714285715</ele><time>2026-03-28T13:23:39Z</time></trkpt><trkpt lat="45.46286726600693" lon="11.108431475058271"><ele>115.2857142857143</ele><time>2026-03-28T13:23:43Z</time></trkpt><trkpt lat="45.462796129904625" lon="11.108455416776879"><ele>114.42857142857143</ele><time>2026-03-28T13:23:46Z</time></trkpt><trkpt lat="45.46270451157432" lon="11.10847333097259"><ele>113.57142857142858</ele><time>2026-03-28T13:23:49Z</time></trkpt><trkpt lat="45.462638378469606" lon="11.10849546122209"><ele>112.71428571428572</ele><time>2026-03-28T13:23:51Z</time></trkpt><trkpt lat="45.462571939559794" lon="11.10851693606789"><ele>111.85714285714286</ele><time>2026-03-28T13:23:54Z</time></trkpt><trkpt lat="45.46250015305444" lon="11.108534031982657"><ele>111.0</ele><time>2026-03-28T13:23:56Z</time></trkpt><trkpt lat="45.462437292034714" lon="11.108549747439687"><ele>111.0</ele><time>2026-03-28T13:23:58Z</time></trkpt><trkpt lat="45.46234822020442" lon="11.10859016153217"><ele>111.0</ele><time>2026-03-28T13:24:00Z</time></trkpt><trkpt lat="45.46227755360862" lon="11.108588763015057"><ele>111.0</ele><time>2026-03-28T13:24:02Z</time></trkpt><trkpt lat="45.46220450466609" lon="11.108592952543162"><ele>111.0</ele><time>2026-03-28T13:24:05Z</time></trkpt><trkpt lat="45.46213582834112" lon="11.108632042195124"><ele>111.0</ele><time>2026-03-28T13:24:13Z</time></trkpt><trkpt lat="45.46206430708233" lon="11.108634101998167"><ele>111.0</ele><time>2026-03-28T13:24:19Z</time></trkpt><trkpt lat="45.46197181809448" lon="11.108659530020299"><ele>110.33333333333333</ele><time>2026-03-28T13:24:21Z</time></trkpt><trkpt lat="45.46189186122277" lon="11.108686722425483"><ele>109.66666666666666</ele><time>2026-03-28T13:24:23Z</time></trkpt><trkpt lat="45.46181542368526" lon="11.108717299938437"><ele>109.0</ele><time>2026-03-28T13:24:25Z</time></trkpt><trkpt lat="45.4617380059743" lon="11.108770059289606"><ele>108.33333333333333</ele><time>2026-03-28T13:24:35Z</time></trkpt><trkpt lat="45.46166401038591" lon="11.108823494710599"><ele>107.66666666666666</ele><time>2026-03-28T13:24:37Z</time></trkpt><trkpt lat="45.46157328537304" lon="11.108888737945396"><ele>107.0</ele><time>2026-03-28T13:24:39Z</time></trkpt><trkpt lat="45.461471808673345" lon="11.108934764177992"><ele>107.0</ele><time>2026-03-28T13:24:41Z</time></trkpt><trkpt lat="45.46137442730382" lon="11.108981923088981"><ele>106.99999999999999</ele><time>2026-03-28T13:24:43Z</time></trkpt><trkpt lat="45.461277854068584" lon="11.109040750280249"><ele>106.99999999999999</ele><time>2026-03-28T13:24:45Z</time></trkpt><trkpt lat="45.46116583185162" lon="11.109086163666133"><ele>107.0</ele><time>2026-03-28T13:24:47Z</time></trkpt><trkpt lat="45.4611028315397" lon="11.109121393986843"><ele>107.0</ele><time>2026-03-28T13:24:48Z</time></trkpt><trkpt lat="45.4610179650357" lon="11.109175562653709"><ele>106.39999999999999</ele><time>2026-03-28T13:24:50Z</time></trkpt><trkpt lat="45.460909606985204" lon="11.109214464065996"><ele>105.79999999999998</ele><time>2026-03-28T13:24:52Z</time></trkpt><trkpt lat="45.46081885104179" lon="11.10926340740093"><ele>105.2</ele><time>2026-03-28T13:24:54Z</time></trkpt><trkpt lat="45.46072744302296" lon="11.109323698185843"><ele>104.6</ele><time>2026-03-28T13:24:56Z</time></trkpt><trkpt lat="45.46063408879607" lon="11.109349700152407"><ele>104.0</ele><time>2026-03-28T13:24:58Z</time></trkpt><trkpt lat="45.460544098775415" lon="11.109367022496489"><ele>103.6</ele><time>2026-03-28T13:25:00Z</time></trkpt><trkpt lat="45.46042453024314" lon="11.109389176190865"><ele>103.2</ele><time>2026-03-28T13:25:02Z</time></trkpt><trkpt lat="45.460311634680096" lon="11.109362512833682"><ele>102.8</ele><time>2026-03-28T13:25:04Z</time></trkpt><trkpt lat="45.46018317165472" lon="11.109356976945602"><ele>102.39999999999999</ele><time>2026-03-28T13:25:06Z</time></trkpt><trkpt lat="45.46010724798466" lon="11.109348217951208"><ele>102.0</ele><time>2026-03-28T13:25:07Z</time></trkpt><trkpt lat="45.46003376969957" lon="11.10934822469393"><ele>102.0</ele><time>2026-03-28T13:25:08Z</time></trkpt><trkpt lat="45.45996000522947" lon="11.1093344433906"><ele>102.0</ele><time>2026-03-28T13:25:09Z</time></trkpt><trkpt lat="45.4598936887587" lon="11.109329531744542"><ele>102.0</ele><time>2026-03-28T13:25:10Z</time></trkpt><trkpt lat="45.45976947111249" lon="11.109322260487628"><ele>102.0</ele><time>2026-03-28T13:25:12Z</time></trkpt><trkpt lat="45.45964998232237" lon="11.10930891868876"><ele>102.0</ele><time>2026-03-28T13:25:14Z</time></trkpt><trkpt lat="45.45958413863717" lon="11.10929864556805"><ele>101.39999999999999</ele><time>2026-03-28T13:25:15Z</time></trkpt><trkpt lat="45.4594633325195" lon="11.10929536036207"><ele>100.8</ele><time>2026-03-28T13:25:17Z</time></trkpt><trkpt lat="45.45934596425575" lon="11.109289880130982"><ele>100.2</ele><time>2026-03-28T13:25:19Z</time></trkpt><trkpt lat="45.459283128831146" lon="11.109280082031788"><ele>99.6</ele><time>2026-03-28T13:25:20Z</time></trkpt><trkpt lat="45.45917175126669" lon="11.109254562831792"><ele>99.0</ele><time>2026-03-28T13:25:22Z</time></trkpt><trkpt lat="45.45908294540989" lon="11.109165266734285"><ele>98.80000000000001</ele><time>2026-03-28T13:25:24Z</time></trkpt><trkpt lat="45.45899553515178" lon="11.1090605750926"><ele>98.60000000000001</ele><time>2026-03-28T13:25:26Z</time></trkpt><trkpt lat="45.45894648429253" lon="11.108996257694512"><ele>98.4</ele><time>2026-03-28T13:25:27Z</time></trkpt><trkpt lat="45.45884862019811" lon="11.108914414572988"><ele>98.2</ele><time>2026-03-28T13:25:29Z</time></trkpt><trkpt lat="45.458744620236374" lon="11.108863778694413"><ele>98.0</ele><time>2026-03-28T13:25:31Z</time></trkpt><trkpt lat="45.458657196227094" lon="11.108829527037175"><ele>97.4</ele><time>2026-03-28T13:25:33Z</time></trkpt><trkpt lat="45.45854872910787" lon="11.108755906894547"><ele>96.80000000000001</ele><time>2026-03-28T13:25:35Z</time></trkpt><trkpt lat="45.458454806807005" lon="11.108678179128654"><ele>96.2</ele><time>2026-03-28T13:25:37Z</time></trkpt><trkpt lat="45.458390018165886" lon="11.108594457365617"><ele>95.6</ele><time>2026-03-28T13:25:39Z</time></trkpt><trkpt lat="45.45832280719952" lon="11.108508785364265"><ele>95.0</ele><time>2026-03-28T13:25:42Z</time></trkpt><trkpt lat="45.45825200791834" lon="11.108451152962378"><ele>95.0</ele><time>2026-03-28T13:25:45Z</time></trkpt><trkpt lat="45.4581847879708" lon="11.108397003671472"><ele>95.0</ele><time>2026-03-28T13:25:47Z</time></trkpt><trkpt lat="45.458103098402425" lon="11.108429175427634"><ele>95.0</ele><time>2026-03-28T13:25:53Z</time></trkpt><trkpt lat="45.45804522757582" lon="11.108477172307657"><ele>95.0</ele><time>2026-03-28T13:25:54Z</time></trkpt><trkpt lat="45.45797608621756" lon="11.108500828840077"><ele>95.0</ele><time>2026-03-28T13:25:56Z</time></trkpt><trkpt lat="45.45788849502419" lon="11.108523251381094"><ele>95.0</ele><time>2026-03-28T13:25:58Z</time></trkpt><trkpt lat="45.457766236004154" lon="11.108517363947609"><ele>94.5</ele><time>2026-03-28T13:26:00Z</time></trkpt><trkpt lat="45.457703776925406" lon="11.108535739548918"><ele>94.0</ele><time>2026-03-28T13:26:01Z</time></trkpt><trkpt lat="45.45757707408175" lon="11.108573003836115"><ele>93.5</ele><time>2026-03-28T13:26:03Z</time></trkpt><trkpt lat="45.45750523746419" lon="11.108576035999308"><ele>93.0</ele><time>2026-03-28T13:26:04Z</time></trkpt><trkpt lat="45.45742435899788" lon="11.108577518225"><ele>92.5</ele><time>2026-03-28T13:26:06Z</time></trkpt><trkpt lat="45.45735049107834" lon="11.10857975927382"><ele>92.0</ele><time>2026-03-28T13:26:09Z</time></trkpt><trkpt lat="45.457280914324855" lon="11.10860312828427"><ele>92.0</ele><time>2026-03-28T13:26:11Z</time></trkpt><trkpt lat="45.45721189198511" lon="11.108580328741231"><ele>92.0</ele><time>2026-03-28T13:26:13Z</time></trkpt><trkpt lat="45.45710332150947" lon="11.108581981006646"><ele>92.0</ele><time>2026-03-28T13:26:15Z</time></trkpt><trkpt lat="45.457032899722456" lon="11.10858945830498"><ele>92.0</ele><time>2026-03-28T13:26:16Z</time></trkpt><trkpt lat="45.456963846398764" lon="11.108597551044104"><ele>92.0</ele><time>2026-03-28T13:26:17Z</time></trkpt><trkpt lat="45.45688339185646" lon="11.108594267485195"><ele>92.0</ele><time>2026-03-28T13:26:18Z</time></trkpt><trkpt lat="45.45675342305975" lon="11.108596822264646"><ele>91.33333333333334</ele><time>2026-03-28T13:26:20Z</time></trkpt><trkpt lat="45.45662797826869" lon="11.108606743667748"><ele>90.66666666666667</ele><time>2026-03-28T13:26:22Z</time></trkpt><trkpt lat="45.45655939293377" lon="11.108593618594112"><ele>90.0</ele><time>2026-03-28T13:26:23Z</time></trkpt><trkpt lat="45.456478851913204" lon="11.108558920523972"><ele>89.33333333333333</ele><time>2026-03-28T13:26:24Z</time></trkpt><trkpt lat="45.45639832523157" lon="11.108538729251109"><ele>88.66666666666666</ele><time>2026-03-28T13:26:25Z</time></trkpt><trkpt lat="45.45632363690187" lon="11.108510400904581"><ele>88.0</ele><time>2026-03-28T13:26:26Z</time></trkpt><trkpt lat="45.45625674817876" lon="11.10847937810888"><ele>87.83333333333333</ele><time>2026-03-28T13:26:27Z</time></trkpt><trkpt lat="45.45618476183995" lon="11.108453041441361"><ele>87.66666666666666</ele><time>2026-03-28T13:26:28Z</time></trkpt><trkpt lat="45.45611403752793" lon="11.108411678994564"><ele>87.5</ele><time>2026-03-28T13:26:29Z</time></trkpt><trkpt lat="45.45604872186562" lon="11.108395165963323"><ele>87.33333333333333</ele><time>2026-03-28T13:26:30Z</time></trkpt><trkpt lat="45.45598321913124" lon="11.108380939961767"><ele>87.16666666666667</ele><time>2026-03-28T13:26:31Z</time></trkpt><trkpt lat="45.45586016229364" lon="11.108360690418815"><ele>87.0</ele><time>2026-03-28T13:26:33Z</time></trkpt><trkpt lat="45.45578888120874" lon="11.108337405992458"><ele>87.0</ele><time>2026-03-28T13:26:34Z</time></trkpt><trkpt lat="45.45571153129911" lon="11.108317510268195"><ele>87.0</ele><time>2026-03-28T13:26:35Z</time></trkpt><trkpt lat="45.455627441790945" lon="11.108291667547682"><ele>87.0</ele><time>2026-03-28T13:26:36Z</time></trkpt><trkpt lat="45.455551360715724" lon="11.108271615171295"><ele>87.0</ele><time>2026-03-28T13:26:37Z</time></trkpt><trkpt lat="45.45548734775263" lon="11.10825108270485"><ele>87.0</ele><time>2026-03-28T13:26:38Z</time></trkpt><trkpt lat="45.45541293377524" lon="11.108229517082757"><ele>87.0</ele><time>2026-03-28T13:26:39Z</time></trkpt><trkpt lat="45.455347053901846" lon="11.108209133087902"><ele>86.16666666666667</ele><time>2026-03-28T13:26:40Z</time></trkpt><trkpt lat="45.4552652442781" lon="11.108192068901912"><ele>85.33333333333333</ele><time>2026-03-28T13:26:41Z</time></trkpt><trkpt lat="45.45519051533308" lon="11.108167032908986"><ele>84.5</ele><time>2026-03-28T13:26:42Z</time></trkpt><trkpt lat="45.45511012398162" lon="11.108131897139002"><ele>83.66666666666666</ele><time>2026-03-28T13:26:43Z</time></trkpt><trkpt lat="45.45503223712908" lon="11.108103817559162"><ele>82.83333333333333</ele><time>2026-03-28T13:26:44Z</time></trkpt><trkpt lat="45.454953938461756" lon="11.10808344723409"><ele>82.0</ele><time>2026-03-28T13:26:45Z</time></trkpt><trkpt lat="45.454873652514394" lon="11.108055187373552"><ele>82.0</ele><time>2026-03-28T13:26:46Z</time></trkpt><trkpt lat="45.454796900093385" lon="11.108030944216424"><ele>82.0</ele><time>2026-03-28T13:26:47Z</time></trkpt><trkpt lat="45.45471971158199" lon="11.108006896930906"><ele>82.0</ele><time>2026-03-28T13:26:48Z</time></trkpt><trkpt lat="45.45465366031304" lon="11.10798327668957"><ele>82.0</ele><time>2026-03-28T13:26:49Z</time></trkpt><trkpt lat="45.45455223750329" lon="11.107975914805932"><ele>82.0</ele><time>2026-03-28T13:26:51Z</time></trkpt><trkpt lat="45.45445244248265" lon="11.108016086010807"><ele>82.0</ele><time>2026-03-28T13:26:53Z</time></trkpt><trkpt lat="45.45434188958848" lon="11.108085841370432"><ele>81.66666666666666</ele><time>2026-03-28T13:26:55Z</time></trkpt><trkpt lat="45.454287378302716" lon="11.108142281067707"><ele>81.33333333333333</ele><time>2026-03-28T13:26:56Z</time></trkpt><trkpt lat="45.454236317956166" lon="11.108224029488744"><ele>81.0</ele><time>2026-03-28T13:26:57Z</time></trkpt><trkpt lat="45.454180605363824" lon="11.108334236255315"><ele>80.66666666666667</ele><time>2026-03-28T13:26:58Z</time></trkpt><trkpt lat="45.4541402190606" lon="11.108433978487056"><ele>80.33333333333334</ele><time>2026-03-28T13:26:59Z</time></trkpt><trkpt lat="45.45409424182526" lon="11.108537027721455"><ele>80.0</ele><time>2026-03-28T13:27:00Z</time></trkpt><trkpt lat="45.45404704832497" lon="11.108641685855083"><ele>80.0</ele><time>2026-03-28T13:27:01Z</time></trkpt><trkpt lat="45.453991823767275" lon="11.10876969052534"><ele>80.0</ele><time>2026-03-28T13:27:02Z</time></trkpt><trkpt lat="45.453929326898376" lon="11.108885228174376"><ele>80.0</ele><time>2026-03-28T13:27:03Z</time></trkpt><trkpt lat="45.45387768242513" lon="11.108954073752258"><ele>80.0</ele><time>2026-03-28T13:27:04Z</time></trkpt><trkpt lat="45.45376987029051" lon="11.109010009233671"><ele>80.0</ele><time>2026-03-28T13:27:06Z</time></trkpt><trkpt lat="45.4536940853243" lon="11.109010692796295"><ele>79.0</ele><time>2026-03-28T13:27:07Z</time></trkpt><trkpt lat="45.453603493784364" lon="11.10900606593105"><ele>78.0</ele><time>2026-03-28T13:27:08Z</time></trkpt><trkpt lat="45.45349848206787" lon="11.108977587023197"><ele>77.0</ele><time>2026-03-28T13:27:09Z</time></trkpt><trkpt lat="45.4534066147091" lon="11.108939403048131"><ele>76.0</ele><time>2026-03-28T13:27:10Z</time></trkpt><trkpt lat="45.45332879374955" lon="11.108896790225941"><ele>75.0</ele><time>2026-03-28T13:27:11Z</time></trkpt><trkpt lat="45.453261479088106" lon="11.108853108356648"><ele>75.0</ele><time>2026-03-28T13:27:12Z</time></trkpt><trkpt lat="45.453205045604456" lon="11.108806546035535"><ele>75.0</ele><time>2026-03-28T13:27:13Z</time></trkpt><trkpt lat="45.45312075455748" lon="11.108768984561957"><ele>75.0</ele><time>2026-03-28T13:27:15Z</time></trkpt><trkpt lat="45.45300354463719" lon="11.108744970855875"><ele>75.0</ele><time>2026-03-28T13:27:25Z</time></trkpt><trkpt lat="45.452905220843945" lon="11.108737853627106"><ele>75.0</ele><time>2026-03-28T13:27:26Z</time></trkpt><trkpt lat="45.452800391398554" lon="11.108706076587437"><ele>74.75</ele><time>2026-03-28T13:27:27Z</time></trkpt><trkpt lat="45.452687684474114" lon="11.108670781355759"><ele>74.5</ele><time>2026-03-28T13:27:28Z</time></trkpt><trkpt lat="45.4525686269188" lon="11.108632277512644"><ele>74.25</ele><time>2026-03-28T13:27:29Z</time></trkpt><trkpt lat="45.45246287991776" lon="11.1085944337733"><ele>74.0</ele><time>2026-03-28T13:27:30Z</time></trkpt><trkpt lat="45.452355984084484" lon="11.108549357016862"><ele>74.0</ele><time>2026-03-28T13:27:31Z</time></trkpt><trkpt lat="45.452245443102775" lon="11.108523134796004"><ele>74.0</ele><time>2026-03-28T13:27:32Z</time></trkpt><trkpt lat="45.45213058811976" lon="11.108499027041626"><ele>74.0</ele><time>2026-03-28T13:27:33Z</time></trkpt><trkpt lat="45.452010380857274" lon="11.108474385298427"><ele>74.0</ele><time>2026-03-28T13:27:34Z</time></trkpt><trkpt lat="45.45189317549727" lon="11.108439013426354"><ele>73.25</ele><time>2026-03-28T13:27:35Z</time></trkpt><trkpt lat="45.451771955411076" lon="11.108409972128376"><ele>72.5</ele><time>2026-03-28T13:27:36Z</time></trkpt><trkpt lat="45.45164465527751" lon="11.10839629281549"><ele>71.75</ele><time>2026-03-28T13:27:37Z</time></trkpt><trkpt lat="45.45151809588865" lon="11.108389299504259"><ele>71.0</ele><time>2026-03-28T13:27:38Z</time></trkpt><trkpt lat="45.45139034272249" lon="11.108376706374097"><ele>70.75</ele><time>2026-03-28T13:27:39Z</time></trkpt><trkpt lat="45.45126529674395" lon="11.108341715507757"><ele>70.5</ele><time>2026-03-28T13:27:40Z</time></trkpt><trkpt lat="45.451149117132964" lon="11.108330090976576"><ele>70.25</ele><time>2026-03-28T13:27:41Z</time></trkpt><trkpt lat="45.45101956721104" lon="11.108326731269658"><ele>70.0</ele><time>2026-03-28T13:27:42Z</time></trkpt><trkpt lat="45.45088985000522" lon="11.108313144207308"><ele>70.0</ele><time>2026-03-28T13:27:43Z</time></trkpt><trkpt lat="45.45075555593674" lon="11.10830060465799"><ele>70.0</ele><time>2026-03-28T13:27:44Z</time></trkpt><trkpt lat="45.450625367226415" lon="11.108268811366033"><ele>70.0</ele><time>2026-03-28T13:27:45Z</time></trkpt><trkpt lat="45.45049813038966" lon="11.108255992464263"><ele>70.0</ele><time>2026-03-28T13:27:46Z</time></trkpt><trkpt lat="45.45037548727298" lon="11.108242877228777"><ele>69.0</ele><time>2026-03-28T13:27:47Z</time></trkpt><trkpt lat="45.45024104129235" lon="11.10823468614876"><ele>68.0</ele><time>2026-03-28T13:27:48Z</time></trkpt><trkpt lat="45.45011495730885" lon="11.108215803888593"><ele>67.0</ele><time>2026-03-28T13:27:49Z</time></trkpt><trkpt lat="45.44998475978235" lon="11.108199097724448"><ele>66.0</ele><time>2026-03-28T13:27:50Z</time></trkpt><trkpt lat="45.44985433750239" lon="11.10818420550606"><ele>66.0</ele><time>2026-03-28T13:27:51Z</time></trkpt><trkpt lat="45.44972088078503" lon="11.10816700061565"><ele>66.0</ele><time>2026-03-28T13:27:52Z</time></trkpt><trkpt lat="45.44958823544076" lon="11.10816225492914"><ele>66.0</ele><time>2026-03-28T13:27:53Z</time></trkpt><trkpt lat="45.449463326817636" lon="11.10815330481501"><ele>66.0</ele><time>2026-03-28T13:27:54Z</time></trkpt><trkpt lat="45.44935492576636" lon="11.108161935550218"><ele>66.16666666666667</ele><time>2026-03-28T13:27:55Z</time></trkpt><trkpt lat="45.44925631446978" lon="11.108158691670898"><ele>66.33333333333333</ele><time>2026-03-28T13:27:56Z</time></trkpt><trkpt lat="45.44915928333425" lon="11.108152013278573"><ele>66.5</ele><time>2026-03-28T13:27:57Z</time></trkpt><trkpt lat="45.44908355915422" lon="11.10813972287111"><ele>66.66666666666666</ele><time>2026-03-28T13:27:58Z</time></trkpt><trkpt lat="45.44899225378277" lon="11.108167145575838"><ele>66.83333333333333</ele><time>2026-03-28T13:27:59Z</time></trkpt><trkpt lat="45.44891534197412" lon="11.108193099449412"><ele>67.0</ele><time>2026-03-28T13:28:00Z</time></trkpt><trkpt lat="45.44884257303436" lon="11.108226237220155"><ele>66.2</ele><time>2026-03-28T13:28:02Z</time></trkpt><trkpt lat="45.44875571470364" lon="11.108240627061555"><ele>65.4</ele><time>2026-03-28T13:28:04Z</time></trkpt><trkpt lat="45.4486913963105" lon="11.108215872213652"><ele>64.6</ele><time>2026-03-28T13:28:05Z</time></trkpt><trkpt lat="45.44854397488425" lon="11.108184390112818"><ele>63.8</ele><time>2026-03-28T13:28:07Z</time></trkpt><trkpt lat="45.44844848877026" lon="11.108172068666208"><ele>63.0</ele><time>2026-03-28T13:28:08Z</time></trkpt><trkpt lat="45.44834468742664" lon="11.108183780296182"><ele>63.0</ele><time>2026-03-28T13:28:09Z</time></trkpt><trkpt lat="45.44823430471035" lon="11.108167582948996"><ele>63.0</ele><time>2026-03-28T13:28:10Z</time></trkpt><trkpt lat="45.4480935146184" lon="11.108134820475632"><ele>63.0</ele><time>2026-03-28T13:28:11Z</time></trkpt><trkpt lat="45.447975266297554" lon="11.10809667630787"><ele>63.0</ele><time>2026-03-28T13:28:12Z</time></trkpt><trkpt lat="45.44783918950867" lon="11.108044346498145"><ele>62.25</ele><time>2026-03-28T13:28:13Z</time></trkpt><trkpt lat="45.44769117657079" lon="11.108006566914776"><ele>61.5</ele><time>2026-03-28T13:28:14Z</time></trkpt><trkpt lat="45.44757459639477" lon="11.10797408881716"><ele>60.75</ele><time>2026-03-28T13:28:15Z</time></trkpt><trkpt lat="45.44745909601925" lon="11.107930419322418"><ele>60.0</ele><time>2026-03-28T13:28:16Z</time></trkpt><trkpt lat="45.44733699335918" lon="11.107901523208234"><ele>60.0</ele><time>2026-03-28T13:28:17Z</time></trkpt><trkpt lat="45.447205233198126" lon="11.107862602796343"><ele>60.0</ele><time>2026-03-28T13:28:18Z</time></trkpt><trkpt lat="45.44707168844137" lon="11.107814797191406"><ele>60.0</ele><time>2026-03-28T13:28:19Z</time></trkpt><trkpt lat="45.44694588742876" lon="11.107772716529126"><ele>60.0</ele><time>2026-03-28T13:28:20Z</time></trkpt><trkpt lat="45.44681579047323" lon="11.107738953058796"><ele>59.25</ele><time>2026-03-28T13:28:21Z</time></trkpt><trkpt lat="45.44669164600775" lon="11.107706619639718"><ele>58.5</ele><time>2026-03-28T13:28:22Z</time></trkpt><trkpt lat="45.44656195330548" lon="11.107672589637904"><ele>57.75</ele><time>2026-03-28T13:28:23Z</time></trkpt><trkpt lat="45.44644596563826" lon="11.107629998792122"><ele>57.0</ele><time>2026-03-28T13:28:24Z</time></trkpt><trkpt lat="45.44634837025759" lon="11.107591048307336"><ele>57.0</ele><time>2026-03-28T13:28:25Z</time></trkpt><trkpt lat="45.446257725650185" lon="11.107563636321524"><ele>57.0</ele><time>2026-03-28T13:28:26Z</time></trkpt><trkpt lat="45.44617819303939" lon="11.1075397747293"><ele>57.0</ele><time>2026-03-28T13:28:27Z</time></trkpt><trkpt lat="45.44609950540011" lon="11.107521637633834"><ele>57.0</ele><time>2026-03-28T13:28:28Z</time></trkpt><trkpt lat="45.44598823420969" lon="11.107536022232585"><ele>57.0</ele><time>2026-03-28T13:28:30Z</time></trkpt><trkpt lat="45.445932198774166" lon="11.107708271254397"><ele>57.0</ele><time>2026-03-28T13:28:32Z</time></trkpt><trkpt lat="45.4459218146926" lon="11.10784952197619"><ele>57.0</ele><time>2026-03-28T13:28:33Z</time></trkpt><trkpt lat="45.44590996012399" lon="11.108001973148085"><ele>57.0</ele><time>2026-03-28T13:28:34Z</time></trkpt><trkpt lat="45.44587896852305" lon="11.108129828695308"><ele>57.0</ele><time>2026-03-28T13:28:35Z</time></trkpt><trkpt lat="45.44583069551296" lon="11.108235174326845"><ele>57.0</ele><time>2026-03-28T13:28:36Z</time></trkpt><trkpt lat="45.4457904838446" lon="11.108352319325226"><ele>56.6</ele><time>2026-03-28T13:28:37Z</time></trkpt><trkpt lat="45.44574977988886" lon="11.108463142301483"><ele>56.2</ele><time>2026-03-28T13:28:38Z</time></trkpt><trkpt lat="45.44570110009222" lon="11.108553279598313"><ele>55.8</ele><time>2026-03-28T13:28:39Z</time></trkpt><trkpt lat="45.44563435002108" lon="11.108612360419626"><ele>55.4</ele><time>2026-03-28T13:28:40Z</time></trkpt><trkpt lat="45.44554121287768" lon="11.108633647905682"><ele>55.0</ele><time>2026-03-28T13:28:41Z</time></trkpt><trkpt lat="45.44543192035452" lon="11.108644312618933"><ele>55.0</ele><time>2026-03-28T13:28:42Z</time></trkpt><trkpt lat="45.44533061221342" lon="11.108648228256229"><ele>55.0</ele><time>2026-03-28T13:28:43Z</time></trkpt><trkpt lat="45.445245483301385" lon="11.108651327650671"><ele>55.0</ele><time>2026-03-28T13:28:44Z</time></trkpt><trkpt lat="45.44516639160456" lon="11.10867888922275"><ele>55.0</ele><time>2026-03-28T13:28:45Z</time></trkpt><trkpt lat="45.44506889032961" lon="11.10873841219259"><ele>55.0</ele><time>2026-03-28T13:28:46Z</time></trkpt><trkpt lat="45.44496601591676" lon="11.108793460084435"><ele>55.0</ele><time>2026-03-28T13:28:47Z</time></trkpt><trkpt lat="45.44485901046985" lon="11.10883586211466"><ele>55.0</ele><time>2026-03-28T13:28:48Z</time></trkpt><trkpt lat="45.44475380404305" lon="11.108864059080028"><ele>55.0</ele><time>2026-03-28T13:28:49Z</time></trkpt><trkpt lat="45.44464187427975" lon="11.10888967959616"><ele>55.0</ele><time>2026-03-28T13:28:50Z</time></trkpt><trkpt lat="45.44454455140254" lon="11.108912333760525"><ele>55.0</ele><time>2026-03-28T13:28:51Z</time></trkpt><trkpt lat="45.444456963421885" lon="11.108924616593237"><ele>54.99999999999999</ele><time>2026-03-28T13:28:52Z</time></trkpt><trkpt lat="45.44437219251245" lon="11.108934639685327"><ele>55.0</ele><time>2026-03-28T13:28:53Z</time></trkpt><trkpt lat="45.444300646822995" lon="11.108950697371595"><ele>55.0</ele><time>2026-03-28T13:28:54Z</time></trkpt><trkpt lat="45.44423159873851" lon="11.108958031689339"><ele>55.0</ele><time>2026-03-28T13:28:55Z</time></trkpt><trkpt lat="45.444186590834455" lon="11.10903338217275"><ele>54.99999999999999</ele><time>2026-03-28T13:28:57Z</time></trkpt><trkpt lat="45.44411663535886" lon="11.109163453849714"><ele>55.0</ele><time>2026-03-28T13:28:59Z</time></trkpt><trkpt lat="45.44398570056955" lon="11.109201729676208"><ele>56.166666666666664</ele><time>2026-03-28T13:29:01Z</time></trkpt><trkpt lat="45.44390965134174" lon="11.109225392161697"><ele>57.33333333333333</ele><time>2026-03-28T13:29:02Z</time></trkpt><trkpt lat="45.44381699924568" lon="11.10926419369592"><ele>58.5</ele><time>2026-03-28T13:29:03Z</time></trkpt><trkpt lat="45.443713157398086" lon="11.109297298419287"><ele>59.66666666666667</ele><time>2026-03-28T13:29:04Z</time></trkpt><trkpt lat="45.44363233986365" lon="11.109318177644075"><ele>60.833333333333336</ele><time>2026-03-28T13:29:05Z</time></trkpt><trkpt lat="45.44356665070071" lon="11.109351911864762"><ele>62.0</ele><time>2026-03-28T13:29:06Z</time></trkpt><trkpt lat="45.4434599362347" lon="11.109414360723502"><ele>62.0</ele><time>2026-03-28T13:29:07Z</time></trkpt><trkpt lat="45.44337150784122" lon="11.1094704233897"><ele>62.0</ele><time>2026-03-28T13:29:08Z</time></trkpt><trkpt lat="45.443291270856875" lon="11.10953764227923"><ele>62.0</ele><time>2026-03-28T13:29:09Z</time></trkpt><trkpt lat="45.44322506253933" lon="11.109603197905304"><ele>62.0</ele><time>2026-03-28T13:29:10Z</time></trkpt><trkpt lat="45.44315534268487" lon="11.109668125174478"><ele>62.0</ele><time>2026-03-28T13:29:11Z</time></trkpt><trkpt lat="45.443058137211686" lon="11.109768475504527"><ele>62.0</ele><time>2026-03-28T13:29:12Z</time></trkpt><trkpt lat="45.442964331012405" lon="11.109874463634926"><ele>62.0</ele><time>2026-03-28T13:29:13Z</time></trkpt><trkpt lat="45.44287722268114" lon="11.109960921403738"><ele>62.0</ele><time>2026-03-28T13:29:14Z</time></trkpt><trkpt lat="45.44278128126006" lon="11.110058377369308"><ele>62.0</ele><time>2026-03-28T13:29:15Z</time></trkpt><trkpt lat="45.44268997426756" lon="11.110160250562211"><ele>62.333333333333336</ele><time>2026-03-28T13:29:16Z</time></trkpt><trkpt lat="45.44261235366333" lon="11.110260564506083"><ele>62.66666666666667</ele><time>2026-03-28T13:29:17Z</time></trkpt><trkpt lat="45.442523454568644" lon="11.110345756901369"><ele>63.0</ele><time>2026-03-28T13:29:18Z</time></trkpt><trkpt lat="45.442455950063604" lon="11.110405838708587"><ele>63.33333333333333</ele><time>2026-03-28T13:29:20Z</time></trkpt><trkpt lat="45.442386788481556" lon="11.110450161475905"><ele>63.666666666666664</ele><time>2026-03-28T13:29:22Z</time></trkpt><trkpt lat="45.442325259650495" lon="11.110505753114815"><ele>64.0</ele><time>2026-03-28T13:29:24Z</time></trkpt><trkpt lat="45.44223101999839" lon="11.110575327299461"><ele>64.0</ele><time>2026-03-28T13:29:27Z</time></trkpt><trkpt lat="45.44215186373297" lon="11.110654303202946"><ele>64.0</ele><time>2026-03-28T13:29:29Z</time></trkpt><trkpt lat="45.44208572948761" lon="11.11072061782378"><ele>64.0</ele><time>2026-03-28T13:29:30Z</time></trkpt><trkpt lat="45.441978453887806" lon="11.110878504814428"><ele>64.0</ele><time>2026-03-28T13:29:32Z</time></trkpt><trkpt lat="45.44190343561561" lon="11.111000733020438"><ele>64.0</ele><time>2026-03-28T13:29:33Z</time></trkpt><trkpt lat="45.44183194709038" lon="11.111123842489373"><ele>63.400000000000006</ele><time>2026-03-28T13:29:34Z</time></trkpt><trkpt lat="45.44177718744595" lon="11.11124703774033"><ele>62.800000000000004</ele><time>2026-03-28T13:29:35Z</time></trkpt><trkpt lat="45.44171762369575" lon="11.111351565284552"><ele>62.199999999999996</ele><time>2026-03-28T13:29:36Z</time></trkpt><trkpt lat="45.441655293202246" lon="11.111461484681639"><ele>61.599999999999994</ele><time>2026-03-28T13:29:37Z</time></trkpt><trkpt lat="45.44155282173756" lon="11.111598684665262"><ele>61.0</ele><time>2026-03-28T13:29:38Z</time></trkpt><trkpt lat="45.44143001978637" lon="11.11168068889082"><ele>60.0</ele><time>2026-03-28T13:29:39Z</time></trkpt><trkpt lat="45.44133103694566" lon="11.11179901028258"><ele>58.99999999999999</ele><time>2026-03-28T13:29:40Z</time></trkpt><trkpt lat="45.441246419620576" lon="11.11188364540285"><ele>57.99999999999999</ele><time>2026-03-28T13:29:41Z</time></trkpt><trkpt lat="45.44117878913299" lon="11.111974790096374"><ele>57.0</ele><time>2026-03-28T13:29:42Z</time></trkpt><trkpt lat="45.441105625770426" lon="11.112081933174231"><ele>56.0</ele><time>2026-03-28T13:29:43Z</time></trkpt><trkpt lat="45.441048847436214" lon="11.112195586937636"><ele>56.0</ele><time>2026-03-28T13:29:44Z</time></trkpt><trkpt lat="45.44096090959257" lon="11.112387901925988"><ele>56.0</ele><time>2026-03-28T13:29:45Z</time></trkpt><trkpt lat="45.440881056130245" lon="11.112552283112413"><ele>56.0</ele><time>2026-03-28T13:29:46Z</time></trkpt><trkpt lat="45.44080593942245" lon="11.112713900494935"><ele>56.0</ele><time>2026-03-28T13:29:47Z</time></trkpt><trkpt lat="45.44074659814586" lon="11.112851181044922"><ele>57.0</ele><time>2026-03-28T13:29:48Z</time></trkpt><trkpt lat="45.44067194737392" lon="11.113001433171679"><ele>58.0</ele><time>2026-03-28T13:29:49Z</time></trkpt><trkpt lat="45.44058834004338" lon="11.113163432353788"><ele>59.0</ele><time>2026-03-28T13:29:50Z</time></trkpt><trkpt lat="45.44051263776309" lon="11.113255769374415"><ele>60.0</ele><time>2026-03-28T13:29:51Z</time></trkpt><trkpt lat="45.44043682355839" lon="11.113338819514253"><ele>60.0</ele><time>2026-03-28T13:29:52Z</time></trkpt><trkpt lat="45.44035743325065" lon="11.113419517203837"><ele>60.0</ele><time>2026-03-28T13:29:53Z</time></trkpt><trkpt lat="45.44023910726629" lon="11.113523629798458"><ele>60.0</ele><time>2026-03-28T13:29:55Z</time></trkpt><trkpt lat="45.44017833926193" lon="11.113580988488206"><ele>60.0</ele><time>2026-03-28T13:29:56Z</time></trkpt><trkpt lat="45.44008510854873" lon="11.113706165319995"><ele>60.0</ele><time>2026-03-28T13:29:58Z</time></trkpt><trkpt lat="45.440006434166285" lon="11.11377528181734"><ele>60.0</ele><time>2026-03-28T13:29:59Z</time></trkpt><trkpt lat="45.43993485302815" lon="11.113842432271998"><ele>60.0</ele><time>2026-03-28T13:30:00Z</time></trkpt><trkpt lat="45.43985616918261" lon="11.113927334604778"><ele>60.0</ele><time>2026-03-28T13:30:01Z</time></trkpt><trkpt lat="45.43978067046153" lon="11.11396571367558"><ele>60.0</ele><time>2026-03-28T13:30:02Z</time></trkpt><trkpt lat="45.43967562531365" lon="11.113993486393596"><ele>60.0</ele><time>2026-03-28T13:30:03Z</time></trkpt><trkpt lat="45.4395691955439" lon="11.114028987567574"><ele>60.8</ele><time>2026-03-28T13:30:04Z</time></trkpt><trkpt lat="45.43945731268667" lon="11.114045645614116"><ele>61.6</ele><time>2026-03-28T13:30:05Z</time></trkpt><trkpt lat="45.43933435432572" lon="11.114075672028886"><ele>62.400000000000006</ele><time>2026-03-28T13:30:05.999Z</time></trkpt><trkpt lat="45.43923650714836" lon="11.11410001137526"><ele>63.2</ele><time>2026-03-28T13:30:06.999Z</time></trkpt><trkpt lat="45.43914445096643" lon="11.114124553088457"><ele>64.0</ele><time>2026-03-28T13:30:07.999Z</time></trkpt><trkpt lat="45.43906253361513" lon="11.114144727960038"><ele>63.99999999999999</ele><time>2026-03-28T13:30:09Z</time></trkpt><trkpt lat="45.43898733398445" lon="11.114173494921868"><ele>64.0</ele><time>2026-03-28T13:30:10Z</time></trkpt><trkpt lat="45.43891069186148" lon="11.114184139285936"><ele>64.0</ele><time>2026-03-28T13:30:11Z</time></trkpt><trkpt lat="45.43881676193654" lon="11.114133297073685"><ele>64.0</ele><time>2026-03-28T13:30:13Z</time></trkpt><trkpt lat="45.4387848402791" lon="11.114001649839194"><ele>63.99999999999999</ele><time>2026-03-28T13:30:15Z</time></trkpt><trkpt lat="45.43870228152104" lon="11.113998994418404"><ele>64.0</ele><time>2026-03-28T13:30:17Z</time></trkpt><trkpt lat="45.43860578410422" lon="11.114037538307104"><ele>62.99999999999999</ele><time>2026-03-28T13:30:19Z</time></trkpt><trkpt lat="45.438540458931215" lon="11.114060388779928"><ele>62.0</ele><time>2026-03-28T13:30:20Z</time></trkpt><trkpt lat="45.43847154495243" lon="11.114076573371644"><ele>61.0</ele><time>2026-03-28T13:30:21Z</time></trkpt><trkpt lat="45.438399373737106" lon="11.114079292079628"><ele>60.0</ele><time>2026-03-28T13:30:22Z</time></trkpt><trkpt lat="45.438315251703806" lon="11.114081109340539"><ele>58.99999999999999</ele><time>2026-03-28T13:30:23Z</time></trkpt><trkpt lat="45.43822114931401" lon="11.114105418400817"><ele>58.0</ele><time>2026-03-28T13:30:24Z</time></trkpt><trkpt lat="45.438112343743" lon="11.1141492231587"><ele>58.0</ele><time>2026-03-28T13:30:25Z</time></trkpt><trkpt lat="45.43798638308456" lon="11.114198443423932"><ele>58.0</ele><time>2026-03-28T13:30:26Z</time></trkpt><trkpt lat="45.43783280431413" lon="11.114245165429752"><ele>58.0</ele><time>2026-03-28T13:30:27Z</time></trkpt><trkpt lat="45.43767364638643" lon="11.114290033498392"><ele>55.33333333333333</ele><time>2026-03-28T13:30:28Z</time></trkpt><trkpt lat="45.43752676477968" lon="11.114332576278917"><ele>52.66666666666667</ele><time>2026-03-28T13:30:29Z</time></trkpt><trkpt lat="45.43738228732244" lon="11.114376193165118"><ele>50.0</ele><time>2026-03-28T13:30:30Z</time></trkpt><trkpt lat="45.437228260362005" lon="11.114421291681433"><ele>49.0</ele><time>2026-03-28T13:30:31Z</time></trkpt><trkpt lat="45.43706064637398" lon="11.114469483614826"><ele>48.0</ele><time>2026-03-28T13:30:32Z</time></trkpt><trkpt lat="45.43690016279909" lon="11.114510784860189"><ele>47.0</ele><time>2026-03-28T13:30:33Z</time></trkpt><trkpt lat="45.43674685758889" lon="11.114546486394877"><ele>47.0</ele><time>2026-03-28T13:30:34Z</time></trkpt><trkpt lat="45.43658641108161" lon="11.11458797409064"><ele>47.0</ele><time>2026-03-28T13:30:35Z</time></trkpt><trkpt lat="45.43643392659483" lon="11.11463285106509"><ele>47.0</ele><time>2026-03-28T13:30:36Z</time></trkpt><trkpt lat="45.43628616840109" lon="11.11467857625191"><ele>46.25</ele><time>2026-03-28T13:30:37Z</time></trkpt><trkpt lat="45.436143574005484" lon="11.114716319605886"><ele>45.5</ele><time>2026-03-28T13:30:38Z</time></trkpt><trkpt lat="45.43599849985638" lon="11.114748704242462"><ele>44.75</ele><time>2026-03-28T13:30:39Z</time></trkpt><trkpt lat="45.43585817908934" lon="11.114785018978774"><ele>44.0</ele><time>2026-03-28T13:30:40Z</time></trkpt><trkpt lat="45.43571180649592" lon="11.114830707622273"><ele>44.0</ele><time>2026-03-28T13:30:41Z</time></trkpt><trkpt lat="45.43557142210333" lon="11.114873309146164"><ele>44.0</ele><time>2026-03-28T13:30:42Z</time></trkpt><trkpt lat="45.435413808818716" lon="11.114912647096075"><ele>44.0</ele><time>2026-03-28T13:30:43Z</time></trkpt><trkpt lat="45.43525369514401" lon="11.114953643320051"><ele>43.5</ele><time>2026-03-28T13:30:44Z</time></trkpt><trkpt lat="45.43510103765643" lon="11.114988853800943"><ele>43.0</ele><time>2026-03-28T13:30:45Z</time></trkpt><trkpt lat="45.434957919219826" lon="11.11502453536366"><ele>42.5</ele><time>2026-03-28T13:30:46Z</time></trkpt><trkpt lat="45.43481860144814" lon="11.115062656699914"><ele>42.0</ele><time>2026-03-28T13:30:47Z</time></trkpt><trkpt lat="45.43469474918702" lon="11.115096749580292"><ele>41.8</ele><time>2026-03-28T13:30:48Z</time></trkpt><trkpt lat="45.434578411080075" lon="11.115121210687283"><ele>41.6</ele><time>2026-03-28T13:30:49Z</time></trkpt><trkpt lat="45.43446927983285" lon="11.115148876224426"><ele>41.4</ele><time>2026-03-28T13:30:50Z</time></trkpt><trkpt lat="45.43436695509231" lon="11.115174110735287"><ele>41.199999999999996</ele><time>2026-03-28T13:30:51Z</time></trkpt><trkpt lat="45.43425406239627" lon="11.115197995416752"><ele>41.0</ele><time>2026-03-28T13:30:52Z</time></trkpt><trkpt lat="45.43415488117182" lon="11.115227721461109"><ele>41.0</ele><time>2026-03-28T13:30:53Z</time></trkpt><trkpt lat="45.43407443634784" lon="11.11525448174406"><ele>41.0</ele><time>2026-03-28T13:30:54Z</time></trkpt><trkpt lat="45.43398532077912" lon="11.115271059490603"><ele>41.0</ele><time>2026-03-28T13:30:56Z</time></trkpt><trkpt lat="45.433914282553424" lon="11.11528695638753"><ele>41.0</ele><time>2026-03-28T13:30:58Z</time></trkpt><trkpt lat="45.43384721401496" lon="11.115283265058634"><ele>41.0</ele><time>2026-03-28T13:31:01Z</time></trkpt><trkpt lat="45.43377618280486" lon="11.115246547933697"><ele>41.0</ele><time>2026-03-28T13:31:04Z</time></trkpt><trkpt lat="45.433659830041705" lon="11.115236405778237"><ele>40.83333333333333</ele><time>2026-03-28T13:31:07Z</time></trkpt><trkpt lat="45.433589697434584" lon="11.115271374316295"><ele>40.666666666666664</ele><time>2026-03-28T13:31:08Z</time></trkpt><trkpt lat="45.43351296597872" lon="11.115312037874888"><ele>40.5</ele><time>2026-03-28T13:31:09Z</time></trkpt><trkpt lat="45.4334332058333" lon="11.115336889765535"><ele>40.333333333333336</ele><time>2026-03-28T13:31:10Z</time></trkpt><trkpt lat="45.433350512731685" lon="11.115352618673255"><ele>40.16666666666667</ele><time>2026-03-28T13:31:11Z</time></trkpt><trkpt lat="45.43324940376782" lon="11.115366684419724"><ele>40.0</ele><time>2026-03-28T13:31:12Z</time></trkpt><trkpt lat="45.43313682791775" lon="11.115397819603793"><ele>40.0</ele><time>2026-03-28T13:31:13Z</time></trkpt><trkpt lat="45.433032220751684" lon="11.115432048481441"><ele>40.0</ele><time>2026-03-28T13:31:14Z</time></trkpt><trkpt lat="45.43291507639192" lon="11.115469489844973"><ele>40.0</ele><time>2026-03-28T13:31:15Z</time></trkpt><trkpt lat="45.4327849174482" lon="11.115507647843271"><ele>40.0</ele><time>2026-03-28T13:31:16Z</time></trkpt><trkpt lat="45.43264075287368" lon="11.11554012964757"><ele>39.75</ele><time>2026-03-28T13:31:17Z</time></trkpt><trkpt lat="45.432499031981074" lon="11.115576557371025"><ele>39.5</ele><time>2026-03-28T13:31:18Z</time></trkpt><trkpt lat="45.43236655488673" lon="11.11561889120956"><ele>39.25</ele><time>2026-03-28T13:31:19Z</time></trkpt><trkpt lat="45.43223812836298" lon="11.115656937042504"><ele>39.0</ele><time>2026-03-28T13:31:20Z</time></trkpt><trkpt lat="45.432105309744095" lon="11.115687268302374"><ele>39.0</ele><time>2026-03-28T13:31:21Z</time></trkpt><trkpt lat="45.431985147066484" lon="11.115710683887688"><ele>39.0</ele><time>2026-03-28T13:31:22Z</time></trkpt><trkpt lat="45.4318796700804" lon="11.115735597825473"><ele>39.0</ele><time>2026-03-28T13:31:23Z</time></trkpt><trkpt lat="45.43178753538783" lon="11.115754217387027"><ele>39.0</ele><time>2026-03-28T13:31:24Z</time></trkpt><trkpt lat="45.43170443344201" lon="11.115766264686572"><ele>39.0</ele><time>2026-03-28T13:31:25Z</time></trkpt><trkpt lat="45.43163900672297" lon="11.115780838553036"><ele>39.4</ele><time>2026-03-28T13:31:26Z</time></trkpt><trkpt lat="45.43154695347792" lon="11.11583158570499"><ele>39.8</ele><time>2026-03-28T13:31:28Z</time></trkpt><trkpt lat="45.43152720271626" lon="11.115942184054015"><ele>40.199999999999996</ele><time>2026-03-28T13:31:30Z</time></trkpt><trkpt lat="45.431436679093814" lon="11.116006556527191"><ele>40.599999999999994</ele><time>2026-03-28T13:31:32Z</time></trkpt><trkpt lat="45.43134025100849" lon="11.116000655975723"><ele>41.0</ele><time>2026-03-28T13:31:33Z</time></trkpt><trkpt lat="45.431245460454" lon="11.116019901102192"><ele>41.0</ele><time>2026-03-28T13:31:34Z</time></trkpt><trkpt lat="45.43113414499876" lon="11.116058042148818"><ele>41.0</ele><time>2026-03-28T13:31:35Z</time></trkpt><trkpt lat="45.43101702042933" lon="11.116090021289457"><ele>41.0</ele><time>2026-03-28T13:31:36Z</time></trkpt><trkpt lat="45.43088731991959" lon="11.116122431593972"><ele>41.0</ele><time>2026-03-28T13:31:37Z</time></trkpt><trkpt lat="45.43074027921649" lon="11.116165489985962"><ele>41.0</ele><time>2026-03-28T13:31:38Z</time></trkpt><trkpt lat="45.43060899503366" lon="11.116209061104293"><ele>41.0</ele><time>2026-03-28T13:31:39Z</time></trkpt><trkpt lat="45.430488952201614" lon="11.11624954400562"><ele>41.0</ele><time>2026-03-28T13:31:40Z</time></trkpt><trkpt lat="45.43036600528085" lon="11.116282581636662"><ele>41.0</ele><time>2026-03-28T13:31:41Z</time></trkpt><trkpt lat="45.430242527956295" lon="11.116315370546024"><ele>41.0</ele><time>2026-03-28T13:31:42Z</time></trkpt><trkpt lat="45.430116521383106" lon="11.116345827461148"><ele>41.0</ele><time>2026-03-28T13:31:43Z</time></trkpt><trkpt lat="45.42999070414637" lon="11.116376207275545"><ele>41.0</ele><time>2026-03-28T13:31:44Z</time></trkpt><trkpt lat="45.42985430095333" lon="11.11640776971931"><ele>41.0</ele><time>2026-03-28T13:31:45Z</time></trkpt><trkpt lat="45.4297060886446" lon="11.116442338699663"><ele>41.33333333333333</ele><time>2026-03-28T13:31:46Z</time></trkpt><trkpt lat="45.4295474471419" lon="11.116486160169387"><ele>41.666666666666664</ele><time>2026-03-28T13:31:47Z</time></trkpt><trkpt lat="45.42939828677303" lon="11.116530329046501"><ele>42.0</ele><time>2026-03-28T13:31:48Z</time></trkpt><trkpt lat="45.4292484677973" lon="11.11657645058645"><ele>42.333333333333336</ele><time>2026-03-28T13:31:49Z</time></trkpt><trkpt lat="45.42909705582597" lon="11.116620340084435"><ele>42.66666666666667</ele><time>2026-03-28T13:31:50Z</time></trkpt><trkpt lat="45.42894358129843" lon="11.116660257351954"><ele>43.0</ele><time>2026-03-28T13:31:51Z</time></trkpt><trkpt lat="45.42879061814542" lon="11.116695587741564"><ele>43.0</ele><time>2026-03-28T13:31:52Z</time></trkpt><trkpt lat="45.42863668734258" lon="11.116734762979823"><ele>43.0</ele><time>2026-03-28T13:31:53Z</time></trkpt><trkpt lat="45.428487834314666" lon="11.116778853055363"><ele>43.0</ele><time>2026-03-28T13:31:54Z</time></trkpt><trkpt lat="45.42834114402659" lon="11.116827383483807"><ele>43.0</ele><time>2026-03-28T13:31:55Z</time></trkpt><trkpt lat="45.4281983640811" lon="11.116873216354312"><ele>43.0</ele><time>2026-03-28T13:31:56Z</time></trkpt><trkpt lat="45.42805073478231" lon="11.116913292175097"><ele>43.0</ele><time>2026-03-28T13:31:57Z</time></trkpt><trkpt lat="45.42790677135067" lon="11.11694655654281"><ele>43.0</ele><time>2026-03-28T13:31:58Z</time></trkpt><trkpt lat="45.427764874596264" lon="11.116982764907025"><ele>43.0</ele><time>2026-03-28T13:31:58.999Z</time></trkpt><trkpt lat="45.42761783892831" lon="11.117026801125865"><ele>43.0</ele><time>2026-03-28T13:31:59.999Z</time></trkpt><trkpt lat="45.42747616533291" lon="11.117073215889906"><ele>43.0</ele><time>2026-03-28T13:32:00.999Z</time></trkpt><trkpt lat="45.427327706607734" lon="11.117121217446094"><ele>43.0</ele><time>2026-03-28T13:32:01.999Z</time></trkpt><trkpt lat="45.427178888172016" lon="11.117163521359195"><ele>42.75</ele><time>2026-03-28T13:32:02.999Z</time></trkpt><trkpt lat="45.42702263797191" lon="11.117198452884582"><ele>42.5</ele><time>2026-03-28T13:32:03.999Z</time></trkpt><trkpt lat="45.42689089498601" lon="11.117229689436728"><ele>42.25</ele><time>2026-03-28T13:32:04.999Z</time></trkpt><trkpt lat="45.426763651094284" lon="11.11726593853776"><ele>42.0</ele><time>2026-03-28T13:32:05.999Z</time></trkpt><trkpt lat="45.426623650732544" lon="11.117305779646513"><ele>42.0</ele><time>2026-03-28T13:32:06.999Z</time></trkpt><trkpt lat="45.42647705393669" lon="11.117345760814965"><ele>42.0</ele><time>2026-03-28T13:32:07.999Z</time></trkpt><trkpt lat="45.42633415278605" lon="11.117383264328767"><ele>42.0</ele><time>2026-03-28T13:32:08.999Z</time></trkpt><trkpt lat="45.42619647223798" lon="11.11742084307359"><ele>42.0</ele><time>2026-03-28T13:32:09.999Z</time></trkpt><trkpt lat="45.42605230359059" lon="11.117461752545708"><ele>42.0</ele><time>2026-03-28T13:32:10.999Z</time></trkpt><trkpt lat="45.425901421467195" lon="11.117498885850798"><ele>42.0</ele><time>2026-03-28T13:32:11.999Z</time></trkpt><trkpt lat="45.42575501557572" lon="11.117530438107002"><ele>42.0</ele><time>2026-03-28T13:32:12.999Z</time></trkpt><trkpt lat="45.42560810046129" lon="11.117562850492204"><ele>42.25</ele><time>2026-03-28T13:32:13.999Z</time></trkpt><trkpt lat="45.42546708113649" lon="11.11760233681137"><ele>42.5</ele><time>2026-03-28T13:32:15Z</time></trkpt><trkpt lat="45.42532544124998" lon="11.117649401904755"><ele>42.75</ele><time>2026-03-28T13:32:16Z</time></trkpt><trkpt lat="45.42518616992166" lon="11.117693364661731"><ele>43.0</ele><time>2026-03-28T13:32:17Z</time></trkpt><trkpt lat="45.42505197985401" lon="11.117733947651049"><ele>43.0</ele><time>2026-03-28T13:32:18Z</time></trkpt><trkpt lat="45.42491088447953" lon="11.117774114372693"><ele>43.0</ele><time>2026-03-28T13:32:19Z</time></trkpt><trkpt lat="45.4247691176033" lon="11.11780653673639"><ele>43.0</ele><time>2026-03-28T13:32:20Z</time></trkpt><trkpt lat="45.42462135816897" lon="11.117840913533945"><ele>43.0</ele><time>2026-03-28T13:32:21Z</time></trkpt><trkpt lat="45.42448153977198" lon="11.11787689936586"><ele>43.0</ele><time>2026-03-28T13:32:22Z</time></trkpt><trkpt lat="45.42434785828956" lon="11.117920782487879"><ele>43.0</ele><time>2026-03-28T13:32:23Z</time></trkpt><trkpt lat="45.42423882281625" lon="11.117956621319205"><ele>43.0</ele><time>2026-03-28T13:32:24Z</time></trkpt><trkpt lat="45.42415462024628" lon="11.117980330092875"><ele>43.0</ele><time>2026-03-28T13:32:25Z</time></trkpt><trkpt lat="45.42409051126248" lon="11.118002365495432"><ele>43.0</ele><time>2026-03-28T13:32:26Z</time></trkpt><trkpt lat="45.42407808436495" lon="11.1180928474822"><ele>43.0</ele><time>2026-03-28T13:32:29Z</time></trkpt><trkpt lat="45.42407104612331" lon="11.118218732740134"><ele>43.0</ele><time>2026-03-28T13:33:36Z</time></trkpt><trkpt lat="45.42407400184239" lon="11.118330139307224"><ele>43.0</ele><time>2026-03-28T13:33:37Z</time></trkpt><trkpt lat="45.42409803586448" lon="11.11845916506481"><ele>43.0</ele><time>2026-03-28T13:33:38Z</time></trkpt><trkpt lat="45.4241375972578" lon="11.11859395621325"><ele>43.0</ele><time>2026-03-28T13:33:39Z</time></trkpt><trkpt lat="45.4242049402262" lon="11.118726235024825"><ele>44.0</ele><time>2026-03-28T13:33:40Z</time></trkpt><trkpt lat="45.424311212487" lon="11.11885542327098"><ele>45.0</ele><time>2026-03-28T13:33:41Z</time></trkpt><trkpt lat="45.424433712155896" lon="11.118960700502855"><ele>46.0</ele><time>2026-03-28T13:33:42Z</time></trkpt><trkpt lat="45.42457083762478" lon="11.119078122898753"><ele>47.0</ele><time>2026-03-28T13:33:43Z</time></trkpt><trkpt lat="45.424682762473985" lon="11.119209089571788"><ele>49.25</ele><time>2026-03-28T13:33:44Z</time></trkpt><trkpt lat="45.42477539258315" lon="11.119344408466489"><ele>51.5</ele><time>2026-03-28T13:33:45Z</time></trkpt><trkpt lat="45.42487111514622" lon="11.119485097111038"><ele>53.75</ele><time>2026-03-28T13:33:46Z</time></trkpt><trkpt lat="45.42496323913619" lon="11.119585124423608"><ele>56.0</ele><time>2026-03-28T13:33:47Z</time></trkpt><trkpt lat="45.425058580570344" lon="11.11964778729849"><ele>56.0</ele><time>2026-03-28T13:33:48Z</time></trkpt><trkpt lat="45.42516192355673" lon="11.119692100638295"><ele>56.0</ele><time>2026-03-28T13:33:49Z</time></trkpt><trkpt lat="45.42528571028902" lon="11.119726796256503"><ele>56.0</ele><time>2026-03-28T13:33:50Z</time></trkpt><trkpt lat="45.42541950632753" lon="11.119772681478938"><ele>56.0</ele><time>2026-03-28T13:33:51Z</time></trkpt><trkpt lat="45.425552366013456" lon="11.119761145585722"><ele>56.25</ele><time>2026-03-28T13:33:52Z</time></trkpt><trkpt lat="45.425693378847214" lon="11.119758467179782"><ele>56.5</ele><time>2026-03-28T13:33:53Z</time></trkpt><trkpt lat="45.42582944338055" lon="11.11975647577017"><ele>56.75</ele><time>2026-03-28T13:33:54Z</time></trkpt><trkpt lat="45.42598476714587" lon="11.119758932680185"><ele>57.0</ele><time>2026-03-28T13:33:55Z</time></trkpt><trkpt lat="45.42612604126047" lon="11.119768445676048"><ele>57.0</ele><time>2026-03-28T13:33:56Z</time></trkpt><trkpt lat="45.42626628128959" lon="11.119791894263654"><ele>57.0</ele><time>2026-03-28T13:33:57Z</time></trkpt><trkpt lat="45.42639783288718" lon="11.119835430557076"><ele>57.0</ele><time>2026-03-28T13:33:58Z</time></trkpt><trkpt lat="45.42653147375271" lon="11.119891044447586"><ele>57.0</ele><time>2026-03-28T13:33:58.999Z</time></trkpt><trkpt lat="45.426660535346386" lon="11.11995609592518"><ele>60.0</ele><time>2026-03-28T13:33:59.999Z</time></trkpt><trkpt lat="45.42679485463479" lon="11.120035891368174"><ele>63.0</ele><time>2026-03-28T13:34:00.999Z</time></trkpt><trkpt lat="45.4269250142678" lon="11.120120157850817"><ele>66.0</ele><time>2026-03-28T13:34:01.999Z</time></trkpt><trkpt lat="45.42706474012977" lon="11.120202347789466"><ele>69.0</ele><time>2026-03-28T13:34:02.999Z</time></trkpt><trkpt lat="45.42720403983494" lon="11.120279667018945"><ele>70.0</ele><time>2026-03-28T13:34:03.999Z</time></trkpt><trkpt lat="45.42731708577853" lon="11.120329641574083"><ele>71.0</ele><time>2026-03-28T13:34:04.999Z</time></trkpt><trkpt lat="45.427422740732084" lon="11.120363330117955"><ele>72.0</ele><time>2026-03-28T13:34:05.999Z</time></trkpt><trkpt lat="45.427513052723626" lon="11.120383928947794"><ele>73.0</ele><time>2026-03-28T13:34:06.999Z</time></trkpt><trkpt lat="45.427596348408436" lon="11.120397201490752"><ele>74.0</ele><time>2026-03-28T13:34:07.999Z</time></trkpt><trkpt lat="45.42766526838591" lon="11.120407635592105"><ele>74.0</ele><time>2026-03-28T13:34:08.999Z</time></trkpt><trkpt lat="45.427744985175075" lon="11.120420376189863"><ele>74.0</ele><time>2026-03-28T13:34:10.999Z</time></trkpt><trkpt lat="45.427633075630574" lon="11.120613190360803"><ele>74.0</ele><time>2026-03-28T13:34:13.999Z</time></trkpt><trkpt lat="45.427554122591566" lon="11.120659309918166"><ele>74.0</ele><time>2026-03-28T13:34:14.999Z</time></trkpt><trkpt lat="45.42745456144385" lon="11.120749132023237"><ele>74.25</ele><time>2026-03-28T13:34:15.999Z</time></trkpt><trkpt lat="45.42736195392311" lon="11.120844427662846"><ele>74.5</ele><time>2026-03-28T13:34:16.999Z</time></trkpt><trkpt lat="45.427254273883925" lon="11.12095980534971"><ele>74.75</ele><time>2026-03-28T13:34:17.999Z</time></trkpt><trkpt lat="45.42713939437733" lon="11.12107901588303"><ele>75.0</ele><time>2026-03-28T13:34:18.999Z</time></trkpt><trkpt lat="45.4270148522069" lon="11.121204439545163"><ele>75.0</ele><time>2026-03-28T13:34:19.999Z</time></trkpt><trkpt lat="45.42689132421733" lon="11.121329030242274"><ele>75.0</ele><time>2026-03-28T13:34:21Z</time></trkpt><trkpt lat="45.42678032848893" lon="11.121455213193192"><ele>75.0</ele><time>2026-03-28T13:34:22Z</time></trkpt><trkpt lat="45.42668971950655" lon="11.121608083706734"><ele>75.0</ele><time>2026-03-28T13:34:23Z</time></trkpt><trkpt lat="45.426604858114885" lon="11.121781950679102"><ele>74.2</ele><time>2026-03-28T13:34:24Z</time></trkpt><trkpt lat="45.426531055004055" lon="11.121952640088356"><ele>73.4</ele><time>2026-03-28T13:34:25Z</time></trkpt><trkpt lat="45.42646447518531" lon="11.122098112533653"><ele>72.6</ele><time>2026-03-28T13:34:26Z</time></trkpt><trkpt lat="45.42640658550613" lon="11.122195634685825"><ele>71.8</ele><time>2026-03-28T13:34:27Z</time></trkpt><trkpt lat="45.426358030104645" lon="11.122273067527011"><ele>71.0</ele><time>2026-03-28T13:34:28Z</time></trkpt><trkpt lat="45.426298247651076" lon="11.122385214792397"><ele>72.83333333333334</ele><time>2026-03-28T13:34:30Z</time></trkpt><trkpt lat="45.426330877711074" lon="11.122470932384978"><ele>74.66666666666667</ele><time>2026-03-28T13:34:32Z</time></trkpt><trkpt lat="45.42643301945186" lon="11.122451379285819"><ele>76.5</ele><time>2026-03-28T13:34:34Z</time></trkpt><trkpt lat="45.42648946844406" lon="11.122390466770595"><ele>78.33333333333333</ele><time>2026-03-28T13:34:35Z</time></trkpt><trkpt lat="45.426590152943405" lon="11.122413286644464"><ele>80.16666666666666</ele><time>2026-03-28T13:34:37Z</time></trkpt><trkpt lat="45.42665323939069" lon="11.12245324561032"><ele>82.0</ele><time>2026-03-28T13:34:38Z</time></trkpt><trkpt lat="45.42678186927441" lon="11.122410702915737"><ele>82.0</ele><time>2026-03-28T13:34:40Z</time></trkpt><trkpt lat="45.42685171088886" lon="11.122299831374084"><ele>82.0</ele><time>2026-03-28T13:34:42Z</time></trkpt><trkpt lat="45.42688612925814" lon="11.122109830844767"><ele>82.0</ele><time>2026-03-28T13:34:44Z</time></trkpt><trkpt lat="45.426922370254985" lon="11.122019501208788"><ele>82.0</ele><time>2026-03-28T13:34:45Z</time></trkpt><trkpt lat="45.42697499338875" lon="11.121929429124716"><ele>82.0</ele><time>2026-03-28T13:34:46Z</time></trkpt><trkpt lat="45.427045085088395" lon="11.121842622403966"><ele>82.0</ele><time>2026-03-28T13:34:47Z</time></trkpt><trkpt lat="45.42712604893309" lon="11.121773565964062"><ele>82.0</ele><time>2026-03-28T13:34:48Z</time></trkpt><trkpt lat="45.42721410693202" lon="11.121741531743993"><ele>82.0</ele><time>2026-03-28T13:34:49Z</time></trkpt><trkpt lat="45.427303538526154" lon="11.121715899724883"><ele>82.0</ele><time>2026-03-28T13:34:50Z</time></trkpt><trkpt lat="45.42740133008406" lon="11.121681429624221"><ele>82.0</ele><time>2026-03-28T13:34:51Z</time></trkpt><trkpt lat="45.42751073285939" lon="11.12162625670894"><ele>82.0</ele><time>2026-03-28T13:34:52Z</time></trkpt><trkpt lat="45.427618571397836" lon="11.121565858419045"><ele>82.0</ele><time>2026-03-28T13:34:53Z</time></trkpt><trkpt lat="45.427731687512726" lon="11.121526542494196"><ele>82.0</ele><time>2026-03-28T13:34:54Z</time></trkpt><trkpt lat="45.42783529947168" lon="11.121506838915389"><ele>82.0</ele><time>2026-03-28T13:34:55Z</time></trkpt><trkpt lat="45.42792453069978" lon="11.12151044960287"><ele>82.0</ele><time>2026-03-28T13:34:56Z</time></trkpt><trkpt lat="45.42800136754089" lon="11.121529833317647"><ele>86.39999999999999</ele><time>2026-03-28T13:34:57Z</time></trkpt><trkpt lat="45.4280807408888" lon="11.121581389976017"><ele>90.8</ele><time>2026-03-28T13:34:58Z</time></trkpt><trkpt lat="45.42816583188895" lon="11.121647206799686"><ele>95.2</ele><time>2026-03-28T13:34:59Z</time></trkpt><trkpt lat="45.428274719624696" lon="11.121716886704178"><ele>99.6</ele><time>2026-03-28T13:35:00Z</time></trkpt><trkpt lat="45.42839624807324" lon="11.121788998538866"><ele>104.0</ele><time>2026-03-28T13:35:01Z</time></trkpt><trkpt lat="45.42852371057749" lon="11.121861732760841"><ele>104.0</ele><time>2026-03-28T13:35:02Z</time></trkpt><trkpt lat="45.42865457906981" lon="11.121932755308585"><ele>104.0</ele><time>2026-03-28T13:35:03Z</time></trkpt><trkpt lat="45.428753385149854" lon="11.121983617643494"><ele>104.0</ele><time>2026-03-28T13:35:04Z</time></trkpt><trkpt lat="45.42882234266601" lon="11.122020783163997"><ele>104.0</ele><time>2026-03-28T13:35:05Z</time></trkpt><trkpt lat="45.42885991919336" lon="11.12209766667623"><ele>104.0</ele><time>2026-03-28T13:35:07Z</time></trkpt><trkpt lat="45.42881850952286" lon="11.122188784760425"><ele>106.4</ele><time>2026-03-28T13:35:09Z</time></trkpt><trkpt lat="45.42888112935984" lon="11.122267398462045"><ele>108.80000000000001</ele><time>2026-03-28T13:35:13Z</time></trkpt><trkpt lat="45.429022913023594" lon="11.122233810061752"><ele>111.19999999999999</ele><time>2026-03-28T13:35:15Z</time></trkpt><trkpt lat="45.42910801417635" lon="11.122223959256099"><ele>113.6</ele><time>2026-03-28T13:35:16Z</time></trkpt><trkpt lat="45.42920634912769" lon="11.122219200670507"><ele>116.0</ele><time>2026-03-28T13:35:17Z</time></trkpt><trkpt lat="45.42929958636792" lon="11.122223666762075"><ele>115.99999999999999</ele><time>2026-03-28T13:35:18Z</time></trkpt><trkpt lat="45.42938540744539" lon="11.122219265723508"><ele>116.0</ele><time>2026-03-28T13:35:19Z</time></trkpt><trkpt lat="45.429471001550255" lon="11.122229371136505"><ele>116.0</ele><time>2026-03-28T13:35:20Z</time></trkpt><trkpt lat="45.42955720343899" lon="11.122234625467785"><ele>116.0</ele><time>2026-03-28T13:35:21Z</time></trkpt><trkpt lat="45.429651903867004" lon="11.122238607318144"><ele>115.99999999999999</ele><time>2026-03-28T13:35:22Z</time></trkpt><trkpt lat="45.429731605198086" lon="11.122243271810055"><ele>116.0</ele><time>2026-03-28T13:35:23Z</time></trkpt><trkpt lat="45.42983122519543" lon="11.122240258405848"><ele>117.4</ele><time>2026-03-28T13:35:24Z</time></trkpt><trkpt lat="45.42994070842515" lon="11.122224095686379"><ele>118.8</ele><time>2026-03-28T13:35:25Z</time></trkpt><trkpt lat="45.43004690992059" lon="11.122204327267626"><ele>120.20000000000002</ele><time>2026-03-28T13:35:26Z</time></trkpt><trkpt lat="45.4301349163611" lon="11.122188463106394"><ele>121.60000000000001</ele><time>2026-03-28T13:35:27Z</time></trkpt><trkpt lat="45.43021507314776" lon="11.122173152213438"><ele>123.0</ele><time>2026-03-28T13:35:28Z</time></trkpt><trkpt lat="45.43030756645916" lon="11.122163257664967"><ele>123.0</ele><time>2026-03-28T13:35:29Z</time></trkpt><trkpt lat="45.43040750819575" lon="11.122155001652562"><ele>123.00000000000001</ele><time>2026-03-28T13:35:30Z</time></trkpt><trkpt lat="45.4305115237708" lon="11.122138936028474"><ele>123.00000000000001</ele><time>2026-03-28T13:35:31Z</time></trkpt><trkpt lat="45.4306045365885" lon="11.122134132670414"><ele>123.0</ele><time>2026-03-28T13:35:32Z</time></trkpt><trkpt lat="45.43069488573065" lon="11.122127996111878"><ele>123.0</ele><time>2026-03-28T13:35:33Z</time></trkpt><trkpt lat="45.43077762218122" lon="11.122115536453965"><ele>123.5</ele><time>2026-03-28T13:35:34Z</time></trkpt><trkpt lat="45.43084453700543" lon="11.122095638089382"><ele>124.0</ele><time>2026-03-28T13:35:35Z</time></trkpt><trkpt lat="45.4309333343759" lon="11.12215636008168"><ele>124.5</ele><time>2026-03-28T13:35:37Z</time></trkpt><trkpt lat="45.430944156047694" lon="11.122258103502707"><ele>125.0</ele><time>2026-03-28T13:35:38Z</time></trkpt><trkpt lat="45.43092128387434" lon="11.122359811463708"><ele>125.5</ele><time>2026-03-28T13:35:39Z</time></trkpt><trkpt lat="45.430890073246246" lon="11.122476913901579"><ele>126.0</ele><time>2026-03-28T13:35:40Z</time></trkpt><trkpt lat="45.43086417139643" lon="11.122613396161865"><ele>126.83333333333333</ele><time>2026-03-28T13:35:41Z</time></trkpt><trkpt lat="45.43083766378905" lon="11.122738550741897"><ele>127.66666666666666</ele><time>2026-03-28T13:35:42Z</time></trkpt><trkpt lat="45.43079789405324" lon="11.122827792386927"><ele>128.5</ele><time>2026-03-28T13:35:43Z</time></trkpt><trkpt lat="45.43067886830075" lon="11.122861331157225"><ele>129.33333333333331</ele><time>2026-03-28T13:35:45Z</time></trkpt><trkpt lat="45.430617493407745" lon="11.122828851158353"><ele>130.16666666666666</ele><time>2026-03-28T13:35:46Z</time></trkpt><trkpt lat="45.430555283831744" lon="11.122794817768947"><ele>131.0</ele><time>2026-03-28T13:35:47Z</time></trkpt><trkpt lat="45.430464954044375" lon="11.122848782598263"><ele>131.0</ele><time>2026-03-28T13:35:49Z</time></trkpt><trkpt lat="45.43035999841334" lon="11.122930613287014"><ele>131.0</ele><time>2026-03-28T13:35:50.999Z</time></trkpt><trkpt lat="45.43028116681387" lon="11.122969793010643"><ele>131.0</ele><time>2026-03-28T13:35:51.999Z</time></trkpt><trkpt lat="45.43021071621855" lon="11.123021092294461"><ele>131.0</ele><time>2026-03-28T13:35:52.999Z</time></trkpt><trkpt lat="45.430137214447385" lon="11.123071218666107"><ele>131.0</ele><time>2026-03-28T13:35:53.999Z</time></trkpt><trkpt lat="45.430071004984796" lon="11.123124696848418"><ele>131.0</ele><time>2026-03-28T13:35:54.999Z</time></trkpt><trkpt lat="45.42998380469344" lon="11.123204321016846"><ele>131.0</ele><time>2026-03-28T13:35:56.999Z</time></trkpt><trkpt lat="45.4298911910956" lon="11.123261522562888"><ele>131.0</ele><time>2026-03-28T13:35:58.999Z</time></trkpt><trkpt lat="45.42982959625296" lon="11.123300165671994"><ele>131.0</ele><time>2026-03-28T13:36:00.999Z</time></trkpt><trkpt lat="45.429787100395544" lon="11.123227532790223"><ele>131.0</ele><time>2026-03-28T13:36:02.999Z</time></trkpt><trkpt lat="45.429815824065145" lon="11.123121384871352"><ele>131.0</ele><time>2026-03-28T13:36:04.999Z</time></trkpt><trkpt lat="45.429860234461856" lon="11.123036705581473"><ele>131.0</ele><time>2026-03-28T13:36:58Z</time></trkpt></trkseg></trk></gpx>